<?xml version="1.0" encoding="UTF-8" standalone="no" ?>
<gpx xmlns="http://www.topografix.com/GPX/1/1" xmlns:xsi="http://www.w3.org/2001/XMLSchema-instance" xsi:schemaLocation="http://www.topografix.com/GPX/1/1 http://www.topografix.com/GPX/1/1/gpx.xsd" version="1.1" creator="VisuGPX - https://www.visugpx.com">
  <metadata>
    <name>Balade hivernale</name>
    <desc><![CDATA[Balade effectuée du 9 décembre 2022 au 7 janvier 2023.]]></desc>
  </metadata>
  <trk>
    <name><![CDATA[La Teste de Buch - Uzeste]]></name>
    <extensions>
      <line xmlns="http://www.topografix.com/GPX/gpx_style/0/2">
        <color>0000ff</color>
        <width>4</width>
      </line>
    </extensions>
    <trkseg>
      <trkpt lat="44.62892" lon="-1.1466">
        <ele>54.585943</ele>
        <time>2022-12-27T10:33:59.403Z</time>
      </trkpt>
      <trkpt lat="44.629" lon="-1.14653">
        <ele>54.585943</ele>
        <time>2022-12-27T10:34:31.711Z</time>
      </trkpt>
      <trkpt lat="44.62909" lon="-1.14648">
        <ele>54.585943</ele>
        <time>2022-12-27T10:34:36.691Z</time>
      </trkpt>
      <trkpt lat="44.6292" lon="-1.14646">
        <ele>54.585943</ele>
        <time>2022-12-27T10:34:41.685Z</time>
      </trkpt>
      <trkpt lat="44.6293" lon="-1.14642">
        <ele>54.585943</ele>
        <time>2022-12-27T10:34:45.684Z</time>
      </trkpt>
      <trkpt lat="44.62939" lon="-1.14642">
        <ele>54.585943</ele>
        <time>2022-12-27T10:34:49.695Z</time>
      </trkpt>
      <trkpt lat="44.62948" lon="-1.14642">
        <ele>54.585943</ele>
        <time>2022-12-27T10:34:52.683Z</time>
      </trkpt>
      <trkpt lat="44.6296" lon="-1.14642">
        <ele>54.585943</ele>
        <time>2022-12-27T10:34:56.685Z</time>
      </trkpt>
      <trkpt lat="44.62971" lon="-1.14643">
        <ele>54.585943</ele>
        <time>2022-12-27T10:34:59.687Z</time>
      </trkpt>
      <trkpt lat="44.6298" lon="-1.14645">
        <ele>54.518927</ele>
        <time>2022-12-27T10:35:02.687Z</time>
      </trkpt>
      <trkpt lat="44.62991" lon="-1.14647">
        <ele>54.063518</ele>
        <time>2022-12-27T10:35:06.683Z</time>
      </trkpt>
      <trkpt lat="44.63001" lon="-1.14648">
        <ele>53.675964</ele>
        <time>2022-12-27T10:35:09.688Z</time>
      </trkpt>
      <trkpt lat="44.6301" lon="-1.1465">
        <ele>53.278285</ele>
        <time>2022-12-27T10:35:12.683Z</time>
      </trkpt>
      <trkpt lat="44.63021" lon="-1.14652">
        <ele>52.838278</ele>
        <time>2022-12-27T10:35:16.686Z</time>
      </trkpt>
      <trkpt lat="44.6303" lon="-1.14654">
        <ele>52.44256</ele>
        <time>2022-12-27T10:35:19.686Z</time>
      </trkpt>
      <trkpt lat="44.63039" lon="-1.14656">
        <ele>52.052311</ele>
        <time>2022-12-27T10:35:22.684Z</time>
      </trkpt>
      <trkpt lat="44.63048" lon="-1.14658">
        <ele>51.669834</ele>
        <time>2022-12-27T10:35:25.684Z</time>
      </trkpt>
      <trkpt lat="44.63059" lon="-1.1466">
        <ele>51.21667</ele>
        <time>2022-12-27T10:35:29.696Z</time>
      </trkpt>
      <trkpt lat="44.63071" lon="-1.14661">
        <ele>50.741473</ele>
        <time>2022-12-27T10:35:33.698Z</time>
      </trkpt>
      <trkpt lat="44.63082" lon="-1.14665">
        <ele>50.24618</ele>
        <time>2022-12-27T10:35:37.684Z</time>
      </trkpt>
      <trkpt lat="44.63093" lon="-1.14666">
        <ele>49.814223</ele>
        <time>2022-12-27T10:35:40.689Z</time>
      </trkpt>
      <trkpt lat="44.63102" lon="-1.14667">
        <ele>49.414003</ele>
        <time>2022-12-27T10:35:43.688Z</time>
      </trkpt>
      <trkpt lat="44.63112" lon="-1.1467">
        <ele>49.00289</ele>
        <time>2022-12-27T10:35:47.685Z</time>
      </trkpt>
      <trkpt lat="44.63122" lon="-1.14673">
        <ele>48.568247</ele>
        <time>2022-12-27T10:35:54.682Z</time>
      </trkpt>
      <trkpt lat="44.6313" lon="-1.14665">
        <ele>48.143084</ele>
        <time>2022-12-27T10:35:58.699Z</time>
      </trkpt>
      <trkpt lat="44.63134" lon="-1.14652">
        <ele>47.748463</ele>
        <time>2022-12-27T10:36:01.688Z</time>
      </trkpt>
      <trkpt lat="44.63136" lon="-1.14638">
        <ele>47.30944</ele>
        <time>2022-12-27T10:36:04.686Z</time>
      </trkpt>
      <trkpt lat="44.63139" lon="-1.14624">
        <ele>47.295101</ele>
        <time>2022-12-27T10:36:08.691Z</time>
      </trkpt>
      <trkpt lat="44.63139" lon="-1.14607">
        <ele>47.671475</ele>
        <time>2022-12-27T10:36:12.685Z</time>
      </trkpt>
      <trkpt lat="44.63138" lon="-1.14594">
        <ele>47.962692</ele>
        <time>2022-12-27T10:36:15.687Z</time>
      </trkpt>
      <trkpt lat="44.63138" lon="-1.14577">
        <ele>48.33561</ele>
        <time>2022-12-27T10:36:19.690Z</time>
      </trkpt>
      <trkpt lat="44.63138" lon="-1.14564">
        <ele>48.642555</ele>
        <time>2022-12-27T10:36:22.688Z</time>
      </trkpt>
      <trkpt lat="44.6314" lon="-1.14549">
        <ele>48.979427</ele>
        <time>2022-12-27T10:36:25.680Z</time>
      </trkpt>
      <trkpt lat="44.63141" lon="-1.14536">
        <ele>49.277127</ele>
        <time>2022-12-27T10:36:28.689Z</time>
      </trkpt>
      <trkpt lat="44.63141" lon="-1.14521">
        <ele>49.604228</ele>
        <time>2022-12-27T10:36:32.693Z</time>
      </trkpt>
      <trkpt lat="44.63141" lon="-1.14506">
        <ele>49.952127</ele>
        <time>2022-12-27T10:36:36.687Z</time>
      </trkpt>
      <trkpt lat="44.6314" lon="-1.14492">
        <ele>50.260404</ele>
        <time>2022-12-27T10:36:40.700Z</time>
      </trkpt>
      <trkpt lat="44.63141" lon="-1.14477">
        <ele>50.594004</ele>
        <time>2022-12-27T10:36:44.685Z</time>
      </trkpt>
      <trkpt lat="44.63145" lon="-1.14462">
        <ele>50.950908</ele>
        <time>2022-12-27T10:36:47.689Z</time>
      </trkpt>
      <trkpt lat="44.63149" lon="-1.14447">
        <ele>51.318133</ele>
        <time>2022-12-27T10:36:50.691Z</time>
      </trkpt>
      <trkpt lat="44.63151" lon="-1.14433">
        <ele>51.636564</ele>
        <time>2022-12-27T10:36:53.695Z</time>
      </trkpt>
      <trkpt lat="44.63154" lon="-1.14418">
        <ele>51.986741</ele>
        <time>2022-12-27T10:36:57.690Z</time>
      </trkpt>
      <trkpt lat="44.6316" lon="-1.14408">
        <ele>52.277454</ele>
        <time>2022-12-27T10:37:06.689Z</time>
      </trkpt>
      <trkpt lat="44.63171" lon="-1.14409">
        <ele>52.628456</ele>
        <time>2022-12-27T10:37:11.682Z</time>
      </trkpt>
      <trkpt lat="44.63181" lon="-1.14412">
        <ele>52.771455</ele>
        <time>2022-12-27T10:37:14.682Z</time>
      </trkpt>
      <trkpt lat="44.63193" lon="-1.14414">
        <ele>52.754429</ele>
        <time>2022-12-27T10:37:18.703Z</time>
      </trkpt>
      <trkpt lat="44.63204" lon="-1.14415">
        <ele>52.739493</ele>
        <time>2022-12-27T10:37:21.690Z</time>
      </trkpt>
      <trkpt lat="44.63213" lon="-1.14415">
        <ele>52.726494</ele>
        <time>2022-12-27T10:37:24.691Z</time>
      </trkpt>
      <trkpt lat="44.63218" lon="-1.14403">
        <ele>52.713487</ele>
        <time>2022-12-27T10:37:28.689Z</time>
      </trkpt>
      <trkpt lat="44.63217" lon="-1.14389">
        <ele>52.699862</ele>
        <time>2022-12-27T10:37:31.688Z</time>
      </trkpt>
      <trkpt lat="44.63216" lon="-1.14373">
        <ele>52.684245</ele>
        <time>2022-12-27T10:37:34.693Z</time>
      </trkpt>
      <trkpt lat="44.63214" lon="-1.1436">
        <ele>52.671237</ele>
        <time>2022-12-27T10:37:37.683Z</time>
      </trkpt>
      <trkpt lat="44.63213" lon="-1.14344">
        <ele>52.655052</ele>
        <time>2022-12-27T10:37:40.684Z</time>
      </trkpt>
      <trkpt lat="44.63211" lon="-1.1433">
        <ele>52.641179</ele>
        <time>2022-12-27T10:37:43.696Z</time>
      </trkpt>
      <trkpt lat="44.63209" lon="-1.14315">
        <ele>52.626711</ele>
        <time>2022-12-27T10:37:46.704Z</time>
      </trkpt>
      <trkpt lat="44.63208" lon="-1.14301">
        <ele>52.612988</ele>
        <time>2022-12-27T10:37:49.684Z</time>
      </trkpt>
      <trkpt lat="44.63206" lon="-1.14288">
        <ele>52.59995</ele>
        <time>2022-12-27T10:37:52.681Z</time>
      </trkpt>
      <trkpt lat="44.63202" lon="-1.14274">
        <ele>52.585735</ele>
        <time>2022-12-27T10:37:57.698Z</time>
      </trkpt>
      <trkpt lat="44.63198" lon="-1.14262">
        <ele>52.572928</ele>
        <time>2022-12-27T10:38:02.689Z</time>
      </trkpt>
      <trkpt lat="44.63192" lon="-1.14253">
        <ele>52.559964</ele>
        <time>2022-12-27T10:38:07.682Z</time>
      </trkpt>
      <trkpt lat="44.63175" lon="-1.14242">
        <ele>52.534947</ele>
        <time>2022-12-27T10:39:06.706Z</time>
      </trkpt>
      <trkpt lat="44.63166" lon="-1.14238">
        <ele>52.548931</ele>
        <time>2022-12-27T10:39:09.700Z</time>
      </trkpt>
      <trkpt lat="44.63157" lon="-1.14231">
        <ele>52.571414</ele>
        <time>2022-12-27T10:39:12.704Z</time>
      </trkpt>
      <trkpt lat="44.6315" lon="-1.14224">
        <ele>52.590888</ele>
        <time>2022-12-27T10:39:15.687Z</time>
      </trkpt>
      <trkpt lat="44.63139" lon="-1.14217">
        <ele>52.616101</ele>
        <time>2022-12-27T10:39:19.693Z</time>
      </trkpt>
      <trkpt lat="44.6313" lon="-1.14211">
        <ele>52.638171</ele>
        <time>2022-12-27T10:39:23.695Z</time>
      </trkpt>
      <trkpt lat="44.6312" lon="-1.14205">
        <ele>52.660637</ele>
        <time>2022-12-27T10:39:27.692Z</time>
      </trkpt>
      <trkpt lat="44.63111" lon="-1.14199">
        <ele>52.684018</ele>
        <time>2022-12-27T10:39:32.709Z</time>
      </trkpt>
      <trkpt lat="44.63092" lon="-1.14189">
        <ele>52.726119</ele>
        <time>2022-12-27T10:40:03.689Z</time>
      </trkpt>
      <trkpt lat="44.63083" lon="-1.14184">
        <ele>52.747804</ele>
        <time>2022-12-27T10:40:07.690Z</time>
      </trkpt>
      <trkpt lat="44.63075" lon="-1.14178">
        <ele>52.767459</ele>
        <time>2022-12-27T10:40:10.704Z</time>
      </trkpt>
      <trkpt lat="44.63067" lon="-1.14172">
        <ele>52.787385</ele>
        <time>2022-12-27T10:40:13.692Z</time>
      </trkpt>
      <trkpt lat="44.63056" lon="-1.14167">
        <ele>52.812077</ele>
        <time>2022-12-27T10:40:17.691Z</time>
      </trkpt>
      <trkpt lat="44.63047" lon="-1.14163">
        <ele>52.832818</ele>
        <time>2022-12-27T10:40:20.689Z</time>
      </trkpt>
      <trkpt lat="44.63038" lon="-1.14159">
        <ele>52.853124</ele>
        <time>2022-12-27T10:40:23.691Z</time>
      </trkpt>
      <trkpt lat="44.63028" lon="-1.14155">
        <ele>52.874349</ele>
        <time>2022-12-27T10:40:26.696Z</time>
      </trkpt>
      <trkpt lat="44.63018" lon="-1.14152">
        <ele>52.897524</ele>
        <time>2022-12-27T10:40:29.692Z</time>
      </trkpt>
      <trkpt lat="44.63007" lon="-1.14151">
        <ele>52.92398</ele>
        <time>2022-12-27T10:40:32.690Z</time>
      </trkpt>
      <trkpt lat="44.62995" lon="-1.14149">
        <ele>53.053836</ele>
        <time>2022-12-27T10:40:35.686Z</time>
      </trkpt>
      <trkpt lat="44.62984" lon="-1.14147">
        <ele>53.18142</ele>
        <time>2022-12-27T10:40:38.698Z</time>
      </trkpt>
      <trkpt lat="44.62973" lon="-1.14146">
        <ele>53.309004</ele>
        <time>2022-12-27T10:40:41.701Z</time>
      </trkpt>
      <trkpt lat="44.62963" lon="-1.14144">
        <ele>53.430658</ele>
        <time>2022-12-27T10:40:44.690Z</time>
      </trkpt>
      <trkpt lat="44.62952" lon="-1.14143">
        <ele>53.552474</ele>
        <time>2022-12-27T10:40:47.683Z</time>
      </trkpt>
      <trkpt lat="44.62943" lon="-1.14141">
        <ele>53.654717</ele>
        <time>2022-12-27T10:40:50.685Z</time>
      </trkpt>
      <trkpt lat="44.62934" lon="-1.14139">
        <ele>53.764867</ele>
        <time>2022-12-27T10:40:53.706Z</time>
      </trkpt>
      <trkpt lat="44.62923" lon="-1.14139">
        <ele>53.889481</ele>
        <time>2022-12-27T10:40:56.688Z</time>
      </trkpt>
      <trkpt lat="44.62911" lon="-1.14137">
        <ele>54.018036</ele>
        <time>2022-12-27T10:40:59.699Z</time>
      </trkpt>
      <trkpt lat="44.629" lon="-1.14136">
        <ele>54.14508</ele>
        <time>2022-12-27T10:41:02.689Z</time>
      </trkpt>
      <trkpt lat="44.62889" lon="-1.14134">
        <ele>54.273285</ele>
        <time>2022-12-27T10:41:05.690Z</time>
      </trkpt>
      <trkpt lat="44.62878" lon="-1.14132">
        <ele>54.399489</ele>
        <time>2022-12-27T10:41:08.689Z</time>
      </trkpt>
      <trkpt lat="44.62868" lon="-1.14131">
        <ele>54.522442</ele>
        <time>2022-12-27T10:41:11.690Z</time>
      </trkpt>
      <trkpt lat="44.62856" lon="-1.14128">
        <ele>54.65482</ele>
        <time>2022-12-27T10:41:14.692Z</time>
      </trkpt>
      <trkpt lat="44.62845" lon="-1.14126">
        <ele>54.785405</ele>
        <time>2022-12-27T10:41:17.691Z</time>
      </trkpt>
      <trkpt lat="44.62834" lon="-1.14123">
        <ele>54.909921</ele>
        <time>2022-12-27T10:41:20.691Z</time>
      </trkpt>
      <trkpt lat="44.62824" lon="-1.14122">
        <ele>54.949914</ele>
        <time>2022-12-27T10:41:23.692Z</time>
      </trkpt>
      <trkpt lat="44.62814" lon="-1.1412">
        <ele>54.896093</ele>
        <time>2022-12-27T10:41:26.709Z</time>
      </trkpt>
      <trkpt lat="44.62803" lon="-1.14118">
        <ele>54.83231</ele>
        <time>2022-12-27T10:41:30.689Z</time>
      </trkpt>
      <trkpt lat="44.62793" lon="-1.14116">
        <ele>54.77773</ele>
        <time>2022-12-27T10:41:33.693Z</time>
      </trkpt>
      <trkpt lat="44.62783" lon="-1.14114">
        <ele>54.720462</ele>
        <time>2022-12-27T10:41:36.690Z</time>
      </trkpt>
      <trkpt lat="44.62773" lon="-1.14113">
        <ele>54.662362</ele>
        <time>2022-12-27T10:41:39.688Z</time>
      </trkpt>
      <trkpt lat="44.62763" lon="-1.14113">
        <ele>54.606625</ele>
        <time>2022-12-27T10:41:42.697Z</time>
      </trkpt>
      <trkpt lat="44.62752" lon="-1.14113">
        <ele>54.543551</ele>
        <time>2022-12-27T10:41:45.720Z</time>
      </trkpt>
      <trkpt lat="44.6274" lon="-1.14115">
        <ele>54.478593</ele>
        <time>2022-12-27T10:41:48.708Z</time>
      </trkpt>
      <trkpt lat="44.62729" lon="-1.14121">
        <ele>54.412306</ele>
        <time>2022-12-27T10:41:51.691Z</time>
      </trkpt>
      <trkpt lat="44.62718" lon="-1.14126">
        <ele>54.343878</ele>
        <time>2022-12-27T10:41:54.689Z</time>
      </trkpt>
      <trkpt lat="44.62707" lon="-1.14131">
        <ele>54.280764</ele>
        <time>2022-12-27T10:41:57.786Z</time>
      </trkpt>
      <trkpt lat="44.62697" lon="-1.14136">
        <ele>54.219135</ele>
        <time>2022-12-27T10:42:00.690Z</time>
      </trkpt>
      <trkpt lat="44.62688" lon="-1.1414">
        <ele>54.164955</ele>
        <time>2022-12-27T10:42:03.695Z</time>
      </trkpt>
      <trkpt lat="44.62677" lon="-1.14143">
        <ele>54.106753</ele>
        <time>2022-12-27T10:42:07.696Z</time>
      </trkpt>
      <trkpt lat="44.62668" lon="-1.14136">
        <ele>54.044992</ele>
        <time>2022-12-27T10:42:12.697Z</time>
      </trkpt>
      <trkpt lat="44.62661" lon="-1.14127">
        <ele>53.990617</ele>
        <time>2022-12-27T10:42:17.693Z</time>
      </trkpt>
      <trkpt lat="44.62649" lon="-1.14122">
        <ele>54.053074</ele>
        <time>2022-12-27T10:43:43.721Z</time>
      </trkpt>
      <trkpt lat="44.62644" lon="-1.14111">
        <ele>54.167729</ele>
        <time>2022-12-27T10:43:48.706Z</time>
      </trkpt>
      <trkpt lat="44.62638" lon="-1.14097">
        <ele>54.309915</ele>
        <time>2022-12-27T10:43:52.697Z</time>
      </trkpt>
      <trkpt lat="44.62632" lon="-1.14085">
        <ele>54.436504</ele>
        <time>2022-12-27T10:43:56.718Z</time>
      </trkpt>
      <trkpt lat="44.62628" lon="-1.14073">
        <ele>54.555119</ele>
        <time>2022-12-27T10:44:00.700Z</time>
      </trkpt>
      <trkpt lat="44.62623" lon="-1.14061">
        <ele>54.67506</ele>
        <time>2022-12-27T10:44:04.691Z</time>
      </trkpt>
      <trkpt lat="44.62617" lon="-1.14048">
        <ele>54.81068</ele>
        <time>2022-12-27T10:44:08.695Z</time>
      </trkpt>
      <trkpt lat="44.62612" lon="-1.14036">
        <ele>54.931602</ele>
        <time>2022-12-27T10:44:12.704Z</time>
      </trkpt>
      <trkpt lat="44.62606" lon="-1.14023">
        <ele>55.069458</ele>
        <time>2022-12-27T10:44:16.735Z</time>
      </trkpt>
      <trkpt lat="44.62601" lon="-1.14011">
        <ele>55.187431</ele>
        <time>2022-12-27T10:44:20.706Z</time>
      </trkpt>
      <trkpt lat="44.62596" lon="-1.14">
        <ele>55.304338</ele>
        <time>2022-12-27T10:44:24.687Z</time>
      </trkpt>
      <trkpt lat="44.62591" lon="-1.13988">
        <ele>55.420371</ele>
        <time>2022-12-27T10:44:28.734Z</time>
      </trkpt>
      <trkpt lat="44.62586" lon="-1.13974">
        <ele>55.557624</ele>
        <time>2022-12-27T10:44:32.708Z</time>
      </trkpt>
      <trkpt lat="44.6258" lon="-1.13962">
        <ele>55.685452</ele>
        <time>2022-12-27T10:44:36.688Z</time>
      </trkpt>
      <trkpt lat="44.62574" lon="-1.13948">
        <ele>55.827639</ele>
        <time>2022-12-27T10:44:40.694Z</time>
      </trkpt>
      <trkpt lat="44.62569" lon="-1.13937">
        <ele>55.938939</ele>
        <time>2022-12-27T10:44:43.690Z</time>
      </trkpt>
      <trkpt lat="44.62564" lon="-1.13926">
        <ele>56.053393</ele>
        <time>2022-12-27T10:44:46.688Z</time>
      </trkpt>
      <trkpt lat="44.62558" lon="-1.13915">
        <ele>56.165328</ele>
        <time>2022-12-27T10:44:49.695Z</time>
      </trkpt>
      <trkpt lat="44.62553" lon="-1.13904">
        <ele>56.156165</ele>
        <time>2022-12-27T10:44:52.700Z</time>
      </trkpt>
      <trkpt lat="44.62547" lon="-1.1389">
        <ele>56.144973</ele>
        <time>2022-12-27T10:44:56.703Z</time>
      </trkpt>
      <trkpt lat="44.62542" lon="-1.13878">
        <ele>56.135683</ele>
        <time>2022-12-27T10:44:59.694Z</time>
      </trkpt>
      <trkpt lat="44.62537" lon="-1.13866">
        <ele>56.126664</ele>
        <time>2022-12-27T10:45:03.698Z</time>
      </trkpt>
      <trkpt lat="44.62533" lon="-1.13855">
        <ele>56.117927</ele>
        <time>2022-12-27T10:45:08.720Z</time>
      </trkpt>
      <trkpt lat="44.62534" lon="-1.13841">
        <ele>56.108285</ele>
        <time>2022-12-27T10:45:52.713Z</time>
      </trkpt>
      <trkpt lat="44.62538" lon="-1.13829">
        <ele>56.099611</ele>
        <time>2022-12-27T10:46:04.696Z</time>
      </trkpt>
      <trkpt lat="44.62532" lon="-1.13817">
        <ele>56.089688</ele>
        <time>2022-12-27T10:46:09.692Z</time>
      </trkpt>
      <trkpt lat="44.62528" lon="-1.13806">
        <ele>56.080833</ele>
        <time>2022-12-27T10:46:12.685Z</time>
      </trkpt>
      <trkpt lat="44.62522" lon="-1.13793">
        <ele>56.070816</ele>
        <time>2022-12-27T10:46:15.689Z</time>
      </trkpt>
      <trkpt lat="44.62516" lon="-1.1378">
        <ele>56.060519</ele>
        <time>2022-12-27T10:46:18.695Z</time>
      </trkpt>
      <trkpt lat="44.6251" lon="-1.13767">
        <ele>56.049828</ele>
        <time>2022-12-27T10:46:21.707Z</time>
      </trkpt>
      <trkpt lat="44.62504" lon="-1.13753">
        <ele>56.038958</ele>
        <time>2022-12-27T10:46:24.690Z</time>
      </trkpt>
      <trkpt lat="44.62498" lon="-1.13739">
        <ele>56.028138</ele>
        <time>2022-12-27T10:46:27.694Z</time>
      </trkpt>
      <trkpt lat="44.62493" lon="-1.13726">
        <ele>56.01751</ele>
        <time>2022-12-27T10:46:30.715Z</time>
      </trkpt>
      <trkpt lat="44.62487" lon="-1.13712">
        <ele>56.006632</ele>
        <time>2022-12-27T10:46:33.690Z</time>
      </trkpt>
      <trkpt lat="44.62481" lon="-1.13698">
        <ele>55.99558</ele>
        <time>2022-12-27T10:46:36.712Z</time>
      </trkpt>
      <trkpt lat="44.62475" lon="-1.13684">
        <ele>56.045916</ele>
        <time>2022-12-27T10:46:39.695Z</time>
      </trkpt>
      <trkpt lat="44.62469" lon="-1.1367">
        <ele>56.098533</ele>
        <time>2022-12-27T10:46:42.706Z</time>
      </trkpt>
      <trkpt lat="44.62463" lon="-1.13655">
        <ele>56.153643</ele>
        <time>2022-12-27T10:46:45.707Z</time>
      </trkpt>
      <trkpt lat="44.62457" lon="-1.13639">
        <ele>56.211035</ele>
        <time>2022-12-27T10:46:48.706Z</time>
      </trkpt>
      <trkpt lat="44.62451" lon="-1.13624">
        <ele>56.269284</ele>
        <time>2022-12-27T10:46:51.723Z</time>
      </trkpt>
      <trkpt lat="44.62445" lon="-1.13608">
        <ele>56.327152</ele>
        <time>2022-12-27T10:46:54.705Z</time>
      </trkpt>
      <trkpt lat="44.62438" lon="-1.13592">
        <ele>56.387471</ele>
        <time>2022-12-27T10:46:57.704Z</time>
      </trkpt>
      <trkpt lat="44.62433" lon="-1.13577">
        <ele>56.443578</ele>
        <time>2022-12-27T10:47:00.696Z</time>
      </trkpt>
      <trkpt lat="44.62428" lon="-1.13562">
        <ele>56.497092</ele>
        <time>2022-12-27T10:47:03.696Z</time>
      </trkpt>
      <trkpt lat="44.62422" lon="-1.13547">
        <ele>56.551295</ele>
        <time>2022-12-27T10:47:06.703Z</time>
      </trkpt>
      <trkpt lat="44.62417" lon="-1.13533">
        <ele>56.60084</ele>
        <time>2022-12-27T10:47:09.714Z</time>
      </trkpt>
      <trkpt lat="44.62414" lon="-1.13521">
        <ele>56.64278</ele>
        <time>2022-12-27T10:47:12.710Z</time>
      </trkpt>
      <trkpt lat="44.62411" lon="-1.13509">
        <ele>56.685026</ele>
        <time>2022-12-27T10:47:15.702Z</time>
      </trkpt>
      <trkpt lat="44.62407" lon="-1.13495">
        <ele>56.734155</ele>
        <time>2022-12-27T10:47:18.710Z</time>
      </trkpt>
      <trkpt lat="44.62402" lon="-1.13479">
        <ele>56.787615</ele>
        <time>2022-12-27T10:47:21.695Z</time>
      </trkpt>
      <trkpt lat="44.62398" lon="-1.13464">
        <ele>56.821968</ele>
        <time>2022-12-27T10:47:24.709Z</time>
      </trkpt>
      <trkpt lat="44.62394" lon="-1.13449">
        <ele>56.838703</ele>
        <time>2022-12-27T10:47:27.695Z</time>
      </trkpt>
      <trkpt lat="44.62389" lon="-1.13435">
        <ele>56.853819</ele>
        <time>2022-12-27T10:47:30.717Z</time>
      </trkpt>
      <trkpt lat="44.62383" lon="-1.13423">
        <ele>56.870104</ele>
        <time>2022-12-27T10:47:33.705Z</time>
      </trkpt>
      <trkpt lat="44.62374" lon="-1.13411">
        <ele>56.886834</ele>
        <time>2022-12-27T10:47:36.710Z</time>
      </trkpt>
      <trkpt lat="44.62366" lon="-1.134">
        <ele>56.903389</ele>
        <time>2022-12-27T10:47:39.698Z</time>
      </trkpt>
      <trkpt lat="44.62356" lon="-1.13391">
        <ele>56.920093</ele>
        <time>2022-12-27T10:47:42.700Z</time>
      </trkpt>
      <trkpt lat="44.62347" lon="-1.13384">
        <ele>56.935333</ele>
        <time>2022-12-27T10:47:45.691Z</time>
      </trkpt>
      <trkpt lat="44.6233" lon="-1.1337">
        <ele>56.963432</ele>
        <time>2022-12-27T10:48:15.691Z</time>
      </trkpt>
      <trkpt lat="44.62321" lon="-1.13363">
        <ele>56.977744</ele>
        <time>2022-12-27T10:48:18.712Z</time>
      </trkpt>
      <trkpt lat="44.62312" lon="-1.13355">
        <ele>56.99323</ele>
        <time>2022-12-27T10:48:21.711Z</time>
      </trkpt>
      <trkpt lat="44.62303" lon="-1.13347">
        <ele>57.008717</ele>
        <time>2022-12-27T10:48:24.705Z</time>
      </trkpt>
      <trkpt lat="44.62293" lon="-1.13338">
        <ele>57.024906</ele>
        <time>2022-12-27T10:48:27.715Z</time>
      </trkpt>
      <trkpt lat="44.62283" lon="-1.13331">
        <ele>57.041341</ele>
        <time>2022-12-27T10:48:30.694Z</time>
      </trkpt>
      <trkpt lat="44.62273" lon="-1.13321">
        <ele>57.058515</ele>
        <time>2022-12-27T10:48:33.718Z</time>
      </trkpt>
      <trkpt lat="44.62263" lon="-1.13312">
        <ele>57.068268</ele>
        <time>2022-12-27T10:48:36.712Z</time>
      </trkpt>
      <trkpt lat="44.62253" lon="-1.13303">
        <ele>57.058306</ele>
        <time>2022-12-27T10:48:39.698Z</time>
      </trkpt>
      <trkpt lat="44.62243" lon="-1.13294">
        <ele>57.048466</ele>
        <time>2022-12-27T10:48:42.713Z</time>
      </trkpt>
      <trkpt lat="44.62233" lon="-1.13286">
        <ele>57.038647</ele>
        <time>2022-12-27T10:48:45.711Z</time>
      </trkpt>
      <trkpt lat="44.62222" lon="-1.13276">
        <ele>57.028331</ele>
        <time>2022-12-27T10:48:48.722Z</time>
      </trkpt>
      <trkpt lat="44.62212" lon="-1.13267">
        <ele>57.017984</ele>
        <time>2022-12-27T10:48:51.718Z</time>
      </trkpt>
      <trkpt lat="44.62201" lon="-1.13257">
        <ele>57.00744</ele>
        <time>2022-12-27T10:48:54.716Z</time>
      </trkpt>
      <trkpt lat="44.6219" lon="-1.13248">
        <ele>56.996998</ele>
        <time>2022-12-27T10:48:57.711Z</time>
      </trkpt>
      <trkpt lat="44.6218" lon="-1.13238">
        <ele>56.98651</ele>
        <time>2022-12-27T10:49:00.690Z</time>
      </trkpt>
      <trkpt lat="44.62169" lon="-1.13229">
        <ele>56.975998</ele>
        <time>2022-12-27T10:49:03.690Z</time>
      </trkpt>
      <trkpt lat="44.62158" lon="-1.1322">
        <ele>56.965965</ele>
        <time>2022-12-27T10:49:06.688Z</time>
      </trkpt>
      <trkpt lat="44.62148" lon="-1.13211">
        <ele>56.955897</ele>
        <time>2022-12-27T10:49:09.717Z</time>
      </trkpt>
      <trkpt lat="44.62138" lon="-1.13201">
        <ele>56.945594</ele>
        <time>2022-12-27T10:49:12.702Z</time>
      </trkpt>
      <trkpt lat="44.62127" lon="-1.13192">
        <ele>56.935253</ele>
        <time>2022-12-27T10:49:15.691Z</time>
      </trkpt>
      <trkpt lat="44.62117" lon="-1.13183">
        <ele>56.924976</ele>
        <time>2022-12-27T10:49:18.725Z</time>
      </trkpt>
      <trkpt lat="44.62108" lon="-1.13175">
        <ele>56.92296</ele>
        <time>2022-12-27T10:49:21.705Z</time>
      </trkpt>
      <trkpt lat="44.62099" lon="-1.13167">
        <ele>56.92442</ele>
        <time>2022-12-27T10:49:27.692Z</time>
      </trkpt>
      <trkpt lat="44.62097" lon="-1.13153">
        <ele>56.925801</ele>
        <time>2022-12-27T10:49:33.687Z</time>
      </trkpt>
      <trkpt lat="44.62092" lon="-1.13141">
        <ele>56.92728</ele>
        <time>2022-12-27T10:49:38.721Z</time>
      </trkpt>
      <trkpt lat="44.62083" lon="-1.1314">
        <ele>56.928571</ele>
        <time>2022-12-27T10:49:42.697Z</time>
      </trkpt>
      <trkpt lat="44.62072" lon="-1.13139">
        <ele>56.930098</ele>
        <time>2022-12-27T10:49:47.709Z</time>
      </trkpt>
      <trkpt lat="44.62061" lon="-1.13139">
        <ele>56.931682</ele>
        <time>2022-12-27T10:49:52.716Z</time>
      </trkpt>
      <trkpt lat="44.62052" lon="-1.1314">
        <ele>56.933069</ele>
        <time>2022-12-27T10:49:56.684Z</time>
      </trkpt>
      <trkpt lat="44.62052" lon="-1.1312">
        <ele>56.935124</ele>
        <time>2022-12-27T10:50:31.687Z</time>
      </trkpt>
      <trkpt lat="44.62057" lon="-1.13105">
        <ele>56.936807</ele>
        <time>2022-12-27T10:50:35.704Z</time>
      </trkpt>
      <trkpt lat="44.62061" lon="-1.1309">
        <ele>56.9384</ele>
        <time>2022-12-27T10:50:39.685Z</time>
      </trkpt>
      <trkpt lat="44.62064" lon="-1.13077">
        <ele>56.939811</ele>
        <time>2022-12-27T10:50:43.683Z</time>
      </trkpt>
      <trkpt lat="44.62057" lon="-1.13066">
        <ele>56.941264</ele>
        <time>2022-12-27T10:50:47.684Z</time>
      </trkpt>
      <trkpt lat="44.6205" lon="-1.13058">
        <ele>56.942644</ele>
        <time>2022-12-27T10:50:50.695Z</time>
      </trkpt>
      <trkpt lat="44.62043" lon="-1.13045">
        <ele>56.944208</ele>
        <time>2022-12-27T10:50:53.686Z</time>
      </trkpt>
      <trkpt lat="44.62039" lon="-1.13031">
        <ele>56.945812</ele>
        <time>2022-12-27T10:50:56.715Z</time>
      </trkpt>
      <trkpt lat="44.62034" lon="-1.13017">
        <ele>56.947366</ele>
        <time>2022-12-27T10:50:59.709Z</time>
      </trkpt>
      <trkpt lat="44.6203" lon="-1.13002">
        <ele>57.006177</ele>
        <time>2022-12-27T10:51:02.699Z</time>
      </trkpt>
      <trkpt lat="44.62025" lon="-1.12987">
        <ele>57.076757</ele>
        <time>2022-12-27T10:51:05.716Z</time>
      </trkpt>
      <trkpt lat="44.6202" lon="-1.12973">
        <ele>57.146949</ele>
        <time>2022-12-27T10:51:08.704Z</time>
      </trkpt>
      <trkpt lat="44.62015" lon="-1.12959">
        <ele>57.21398</ele>
        <time>2022-12-27T10:51:11.688Z</time>
      </trkpt>
      <trkpt lat="44.6201" lon="-1.12944">
        <ele>57.286263</ele>
        <time>2022-12-27T10:51:15.712Z</time>
      </trkpt>
      <trkpt lat="44.62007" lon="-1.12932">
        <ele>57.342224</ele>
        <time>2022-12-27T10:51:18.690Z</time>
      </trkpt>
      <trkpt lat="44.62003" lon="-1.12919">
        <ele>57.403479</ele>
        <time>2022-12-27T10:51:21.684Z</time>
      </trkpt>
      <trkpt lat="44.61998" lon="-1.12907">
        <ele>57.461837</ele>
        <time>2022-12-27T10:51:24.712Z</time>
      </trkpt>
      <trkpt lat="44.61994" lon="-1.12895">
        <ele>57.521249</ele>
        <time>2022-12-27T10:51:27.697Z</time>
      </trkpt>
      <trkpt lat="44.6199" lon="-1.12884">
        <ele>57.578713</ele>
        <time>2022-12-27T10:51:30.686Z</time>
      </trkpt>
      <trkpt lat="44.61985" lon="-1.12868">
        <ele>57.650794</ele>
        <time>2022-12-27T10:51:34.722Z</time>
      </trkpt>
      <trkpt lat="44.61981" lon="-1.12855">
        <ele>57.714147</ele>
        <time>2022-12-27T10:51:38.719Z</time>
      </trkpt>
      <trkpt lat="44.61976" lon="-1.12841">
        <ele>57.784507</ele>
        <time>2022-12-27T10:51:42.717Z</time>
      </trkpt>
      <trkpt lat="44.61971" lon="-1.12826">
        <ele>57.853388</ele>
        <time>2022-12-27T10:51:46.706Z</time>
      </trkpt>
      <trkpt lat="44.61966" lon="-1.12812">
        <ele>57.926357</ele>
        <time>2022-12-27T10:51:50.696Z</time>
      </trkpt>
      <trkpt lat="44.61963" lon="-1.128">
        <ele>57.981659</ele>
        <time>2022-12-27T10:51:53.705Z</time>
      </trkpt>
      <trkpt lat="44.61958" lon="-1.12786">
        <ele>58.04632</ele>
        <time>2022-12-27T10:51:57.710Z</time>
      </trkpt>
      <trkpt lat="44.61954" lon="-1.12774">
        <ele>57.981141</ele>
        <time>2022-12-27T10:52:01.712Z</time>
      </trkpt>
      <trkpt lat="44.6195" lon="-1.12761">
        <ele>57.897459</ele>
        <time>2022-12-27T10:52:05.712Z</time>
      </trkpt>
      <trkpt lat="44.61945" lon="-1.12747">
        <ele>57.8049</ele>
        <time>2022-12-27T10:52:09.715Z</time>
      </trkpt>
      <trkpt lat="44.61941" lon="-1.12734">
        <ele>57.725525</ele>
        <time>2022-12-27T10:52:12.693Z</time>
      </trkpt>
      <trkpt lat="44.61937" lon="-1.12723">
        <ele>57.651581</ele>
        <time>2022-12-27T10:52:15.685Z</time>
      </trkpt>
      <trkpt lat="44.61933" lon="-1.1271">
        <ele>57.57277</ele>
        <time>2022-12-27T10:52:18.724Z</time>
      </trkpt>
      <trkpt lat="44.61928" lon="-1.12696">
        <ele>57.481916</ele>
        <time>2022-12-27T10:52:22.716Z</time>
      </trkpt>
      <trkpt lat="44.61924" lon="-1.12684">
        <ele>57.404498</ele>
        <time>2022-12-27T10:52:25.708Z</time>
      </trkpt>
      <trkpt lat="44.6192" lon="-1.12669">
        <ele>57.310542</ele>
        <time>2022-12-27T10:52:29.756Z</time>
      </trkpt>
      <trkpt lat="44.61916" lon="-1.12654">
        <ele>57.21987</ele>
        <time>2022-12-27T10:52:33.691Z</time>
      </trkpt>
      <trkpt lat="44.61911" lon="-1.12642">
        <ele>57.139976</ele>
        <time>2022-12-27T10:52:36.687Z</time>
      </trkpt>
      <trkpt lat="44.61907" lon="-1.12628">
        <ele>57.050366</ele>
        <time>2022-12-27T10:52:40.701Z</time>
      </trkpt>
      <trkpt lat="44.61901" lon="-1.12614">
        <ele>56.957591</ele>
        <time>2022-12-27T10:52:44.704Z</time>
      </trkpt>
      <trkpt lat="44.61895" lon="-1.126">
        <ele>56.866323</ele>
        <time>2022-12-27T10:52:48.723Z</time>
      </trkpt>
      <trkpt lat="44.61891" lon="-1.12585">
        <ele>56.770456</ele>
        <time>2022-12-27T10:52:52.744Z</time>
      </trkpt>
      <trkpt lat="44.61886" lon="-1.12571">
        <ele>56.680847</ele>
        <time>2022-12-27T10:52:56.693Z</time>
      </trkpt>
      <trkpt lat="44.61882" lon="-1.12559">
        <ele>56.606551</ele>
        <time>2022-12-27T10:53:00.690Z</time>
      </trkpt>
      <trkpt lat="44.61882" lon="-1.12545">
        <ele>56.624371</ele>
        <time>2022-12-27T10:53:04.683Z</time>
      </trkpt>
      <trkpt lat="44.61885" lon="-1.1253">
        <ele>56.669369</ele>
        <time>2022-12-27T10:53:08.693Z</time>
      </trkpt>
      <trkpt lat="44.61892" lon="-1.12518">
        <ele>56.712573</ele>
        <time>2022-12-27T10:53:11.705Z</time>
      </trkpt>
      <trkpt lat="44.61901" lon="-1.12506">
        <ele>56.761253</ele>
        <time>2022-12-27T10:53:14.715Z</time>
      </trkpt>
      <trkpt lat="44.61909" lon="-1.12495">
        <ele>56.807883</ele>
        <time>2022-12-27T10:53:17.717Z</time>
      </trkpt>
      <trkpt lat="44.61915" lon="-1.12483">
        <ele>56.851514</ele>
        <time>2022-12-27T10:53:20.690Z</time>
      </trkpt>
      <trkpt lat="44.61913" lon="-1.12469">
        <ele>56.893413</ele>
        <time>2022-12-27T10:53:23.685Z</time>
      </trkpt>
      <trkpt lat="44.61909" lon="-1.12457">
        <ele>56.930583</ele>
        <time>2022-12-27T10:53:26.697Z</time>
      </trkpt>
      <trkpt lat="44.61904" lon="-1.12444">
        <ele>56.974301</ele>
        <time>2022-12-27T10:53:30.692Z</time>
      </trkpt>
      <trkpt lat="44.61897" lon="-1.12432">
        <ele>57.019322</ele>
        <time>2022-12-27T10:53:34.684Z</time>
      </trkpt>
      <trkpt lat="44.61891" lon="-1.1242">
        <ele>57.060341</ele>
        <time>2022-12-27T10:53:37.712Z</time>
      </trkpt>
      <trkpt lat="44.61886" lon="-1.12405">
        <ele>57.105852</ele>
        <time>2022-12-27T10:53:40.689Z</time>
      </trkpt>
      <trkpt lat="44.61883" lon="-1.12389">
        <ele>57.154222</ele>
        <time>2022-12-27T10:53:43.713Z</time>
      </trkpt>
      <trkpt lat="44.6188" lon="-1.12373">
        <ele>57.202227</ele>
        <time>2022-12-27T10:53:46.714Z</time>
      </trkpt>
      <trkpt lat="44.61874" lon="-1.12358">
        <ele>57.252048</ele>
        <time>2022-12-27T10:53:49.685Z</time>
      </trkpt>
      <trkpt lat="44.61868" lon="-1.12342">
        <ele>57.304334</ele>
        <time>2022-12-27T10:53:52.713Z</time>
      </trkpt>
      <trkpt lat="44.61863" lon="-1.12325">
        <ele>57.312574</ele>
        <time>2022-12-27T10:53:55.704Z</time>
      </trkpt>
      <trkpt lat="44.6186" lon="-1.12307">
        <ele>57.305634</ele>
        <time>2022-12-27T10:53:58.689Z</time>
      </trkpt>
      <trkpt lat="44.61861" lon="-1.12294">
        <ele>57.30093</ele>
        <time>2022-12-27T10:54:00.702Z</time>
      </trkpt>
      <trkpt lat="44.61864" lon="-1.12276">
        <ele>57.294087</ele>
        <time>2022-12-27T10:54:03.703Z</time>
      </trkpt>
      <trkpt lat="44.61865" lon="-1.12259">
        <ele>57.287684</ele>
        <time>2022-12-27T10:54:06.684Z</time>
      </trkpt>
      <trkpt lat="44.61861" lon="-1.12242">
        <ele>57.280938</ele>
        <time>2022-12-27T10:54:09.703Z</time>
      </trkpt>
      <trkpt lat="44.61857" lon="-1.12224">
        <ele>57.274025</ele>
        <time>2022-12-27T10:54:12.715Z</time>
      </trkpt>
      <trkpt lat="44.61852" lon="-1.12207">
        <ele>57.267288</ele>
        <time>2022-12-27T10:54:15.715Z</time>
      </trkpt>
      <trkpt lat="44.61848" lon="-1.12195">
        <ele>57.262433</ele>
        <time>2022-12-27T10:54:17.708Z</time>
      </trkpt>
      <trkpt lat="44.61842" lon="-1.1218">
        <ele>57.255781</ele>
        <time>2022-12-27T10:54:20.681Z</time>
      </trkpt>
      <trkpt lat="44.61838" lon="-1.12163">
        <ele>57.249162</ele>
        <time>2022-12-27T10:54:23.715Z</time>
      </trkpt>
      <trkpt lat="44.61835" lon="-1.12145">
        <ele>57.242584</ele>
        <time>2022-12-27T10:54:26.699Z</time>
      </trkpt>
      <trkpt lat="44.61832" lon="-1.12128">
        <ele>57.235885</ele>
        <time>2022-12-27T10:54:29.689Z</time>
      </trkpt>
      <trkpt lat="44.61829" lon="-1.1211">
        <ele>57.229102</ele>
        <time>2022-12-27T10:54:32.696Z</time>
      </trkpt>
      <trkpt lat="44.61827" lon="-1.12092">
        <ele>57.241397</ele>
        <time>2022-12-27T10:54:35.714Z</time>
      </trkpt>
      <trkpt lat="44.61827" lon="-1.12075">
        <ele>57.314019</ele>
        <time>2022-12-27T10:54:38.723Z</time>
      </trkpt>
      <trkpt lat="44.61827" lon="-1.1206">
        <ele>57.382301</ele>
        <time>2022-12-27T10:54:41.712Z</time>
      </trkpt>
      <trkpt lat="44.61827" lon="-1.12044">
        <ele>57.449734</ele>
        <time>2022-12-27T10:54:44.705Z</time>
      </trkpt>
      <trkpt lat="44.61831" lon="-1.1203">
        <ele>57.515722</ele>
        <time>2022-12-27T10:54:47.714Z</time>
      </trkpt>
      <trkpt lat="44.61835" lon="-1.12017">
        <ele>57.579452</ele>
        <time>2022-12-27T10:54:51.712Z</time>
      </trkpt>
      <trkpt lat="44.61835" lon="-1.12031">
        <ele>57.64069</ele>
        <time>2022-12-27T10:55:03.695Z</time>
      </trkpt>
      <trkpt lat="44.61832" lon="-1.12045">
        <ele>57.703293</ele>
        <time>2022-12-27T10:55:07.708Z</time>
      </trkpt>
      <trkpt lat="44.6183" lon="-1.1206">
        <ele>57.771971</ele>
        <time>2022-12-27T10:55:11.695Z</time>
      </trkpt>
      <trkpt lat="44.61824" lon="-1.12071">
        <ele>57.829732</ele>
        <time>2022-12-27T10:55:16.688Z</time>
      </trkpt>
      <trkpt lat="44.61818" lon="-1.12059">
        <ele>57.896761</ele>
        <time>2022-12-27T10:55:25.691Z</time>
      </trkpt>
      <trkpt lat="44.61816" lon="-1.12042">
        <ele>57.96901</ele>
        <time>2022-12-27T10:55:29.713Z</time>
      </trkpt>
      <trkpt lat="44.61815" lon="-1.12029">
        <ele>58.028521</ele>
        <time>2022-12-27T10:55:32.721Z</time>
      </trkpt>
      <trkpt lat="44.61814" lon="-1.12014">
        <ele>58.094982</ele>
        <time>2022-12-27T10:55:35.683Z</time>
      </trkpt>
      <trkpt lat="44.61812" lon="-1.11998">
        <ele>58.166008</ele>
        <time>2022-12-27T10:55:38.704Z</time>
      </trkpt>
      <trkpt lat="44.61811" lon="-1.11982">
        <ele>58.235219</ele>
        <time>2022-12-27T10:55:41.712Z</time>
      </trkpt>
      <trkpt lat="44.61809" lon="-1.11965">
        <ele>58.307546</ele>
        <time>2022-12-27T10:55:44.708Z</time>
      </trkpt>
      <trkpt lat="44.61807" lon="-1.11948">
        <ele>58.407216</ele>
        <time>2022-12-27T10:55:47.715Z</time>
      </trkpt>
      <trkpt lat="44.61805" lon="-1.11931">
        <ele>58.513506</ele>
        <time>2022-12-27T10:55:50.700Z</time>
      </trkpt>
      <trkpt lat="44.61804" lon="-1.11914">
        <ele>58.620875</ele>
        <time>2022-12-27T10:55:53.713Z</time>
      </trkpt>
      <trkpt lat="44.61801" lon="-1.11897">
        <ele>58.731434</ele>
        <time>2022-12-27T10:55:56.706Z</time>
      </trkpt>
      <trkpt lat="44.61799" lon="-1.1188">
        <ele>58.842939</ele>
        <time>2022-12-27T10:55:59.714Z</time>
      </trkpt>
      <trkpt lat="44.61796" lon="-1.11862">
        <ele>58.95768</ele>
        <time>2022-12-27T10:56:02.712Z</time>
      </trkpt>
      <trkpt lat="44.61794" lon="-1.11844">
        <ele>59.069312</ele>
        <time>2022-12-27T10:56:05.715Z</time>
      </trkpt>
      <trkpt lat="44.61792" lon="-1.11826">
        <ele>59.180391</ele>
        <time>2022-12-27T10:56:08.724Z</time>
      </trkpt>
      <trkpt lat="44.6179" lon="-1.11808">
        <ele>59.294181</ele>
        <time>2022-12-27T10:56:11.714Z</time>
      </trkpt>
      <trkpt lat="44.61787" lon="-1.1179">
        <ele>59.41277</ele>
        <time>2022-12-27T10:56:14.708Z</time>
      </trkpt>
      <trkpt lat="44.61786" lon="-1.11777">
        <ele>59.493194</ele>
        <time>2022-12-27T10:56:16.706Z</time>
      </trkpt>
      <trkpt lat="44.61784" lon="-1.11764">
        <ele>59.574703</ele>
        <time>2022-12-27T10:56:18.714Z</time>
      </trkpt>
      <trkpt lat="44.61781" lon="-1.11746">
        <ele>59.691565</ele>
        <time>2022-12-27T10:56:21.713Z</time>
      </trkpt>
      <trkpt lat="44.6178" lon="-1.11733">
        <ele>59.771522</ele>
        <time>2022-12-27T10:56:23.706Z</time>
      </trkpt>
      <trkpt lat="44.61778" lon="-1.11716">
        <ele>59.883154</ele>
        <time>2022-12-27T10:56:26.712Z</time>
      </trkpt>
      <trkpt lat="44.61776" lon="-1.117">
        <ele>59.875096</ele>
        <time>2022-12-27T10:56:29.705Z</time>
      </trkpt>
      <trkpt lat="44.61774" lon="-1.11685">
        <ele>59.836161</ele>
        <time>2022-12-27T10:56:32.720Z</time>
      </trkpt>
      <trkpt lat="44.61774" lon="-1.11672">
        <ele>59.800186</ele>
        <time>2022-12-27T10:56:35.706Z</time>
      </trkpt>
      <trkpt lat="44.61782" lon="-1.11665">
        <ele>59.764612</ele>
        <time>2022-12-27T10:56:39.712Z</time>
      </trkpt>
      <trkpt lat="44.61791" lon="-1.11661">
        <ele>59.728389</ele>
        <time>2022-12-27T10:56:43.713Z</time>
      </trkpt>
      <trkpt lat="44.61795" lon="-1.11648">
        <ele>59.692374</ele>
        <time>2022-12-27T10:56:47.688Z</time>
      </trkpt>
      <trkpt lat="44.61793" lon="-1.11634">
        <ele>59.654502</ele>
        <time>2022-12-27T10:56:50.685Z</time>
      </trkpt>
      <trkpt lat="44.61792" lon="-1.11616">
        <ele>59.606471</ele>
        <time>2022-12-27T10:56:53.714Z</time>
      </trkpt>
      <trkpt lat="44.6179" lon="-1.11599">
        <ele>59.561897</ele>
        <time>2022-12-27T10:56:56.695Z</time>
      </trkpt>
      <trkpt lat="44.61788" lon="-1.11586">
        <ele>59.527408</ele>
        <time>2022-12-27T10:56:58.708Z</time>
      </trkpt>
      <trkpt lat="44.61785" lon="-1.11574">
        <ele>59.492807</ele>
        <time>2022-12-27T10:57:00.689Z</time>
      </trkpt>
      <trkpt lat="44.61783" lon="-1.11561">
        <ele>59.458659</ele>
        <time>2022-12-27T10:57:02.709Z</time>
      </trkpt>
      <trkpt lat="44.61783" lon="-1.11548">
        <ele>59.424933</ele>
        <time>2022-12-27T10:57:04.684Z</time>
      </trkpt>
      <trkpt lat="44.61782" lon="-1.1153">
        <ele>59.375855</ele>
        <time>2022-12-27T10:57:07.712Z</time>
      </trkpt>
      <trkpt lat="44.6178" lon="-1.11511">
        <ele>59.325834</ele>
        <time>2022-12-27T10:57:10.692Z</time>
      </trkpt>
      <trkpt lat="44.61777" lon="-1.11498">
        <ele>59.290624</ele>
        <time>2022-12-27T10:57:12.728Z</time>
      </trkpt>
      <trkpt lat="44.61775" lon="-1.11486">
        <ele>59.255958</ele>
        <time>2022-12-27T10:57:14.697Z</time>
      </trkpt>
      <trkpt lat="44.61771" lon="-1.11468">
        <ele>59.304392</ele>
        <time>2022-12-27T10:57:17.715Z</time>
      </trkpt>
      <trkpt lat="44.6177" lon="-1.11453">
        <ele>59.386587</ele>
        <time>2022-12-27T10:57:20.682Z</time>
      </trkpt>
      <trkpt lat="44.61764" lon="-1.11438">
        <ele>59.474691</ele>
        <time>2022-12-27T10:57:23.716Z</time>
      </trkpt>
      <trkpt lat="44.6176" lon="-1.11421">
        <ele>59.569071</ele>
        <time>2022-12-27T10:57:26.686Z</time>
      </trkpt>
      <trkpt lat="44.61757" lon="-1.11404">
        <ele>59.66236</ele>
        <time>2022-12-27T10:57:29.703Z</time>
      </trkpt>
      <trkpt lat="44.61754" lon="-1.11386">
        <ele>59.762942</ele>
        <time>2022-12-27T10:57:32.711Z</time>
      </trkpt>
      <trkpt lat="44.61753" lon="-1.11373">
        <ele>59.830254</ele>
        <time>2022-12-27T10:57:34.713Z</time>
      </trkpt>
      <trkpt lat="44.61753" lon="-1.1136">
        <ele>59.901189</ele>
        <time>2022-12-27T10:57:36.704Z</time>
      </trkpt>
      <trkpt lat="44.61752" lon="-1.11347">
        <ele>59.971061</ele>
        <time>2022-12-27T10:57:38.722Z</time>
      </trkpt>
      <trkpt lat="44.61751" lon="-1.11333">
        <ele>60.042562</ele>
        <time>2022-12-27T10:57:40.693Z</time>
      </trkpt>
      <trkpt lat="44.61748" lon="-1.11315">
        <ele>60.141944</ele>
        <time>2022-12-27T10:57:43.715Z</time>
      </trkpt>
      <trkpt lat="44.61745" lon="-1.113">
        <ele>60.228511</ele>
        <time>2022-12-27T10:57:46.683Z</time>
      </trkpt>
      <trkpt lat="44.61741" lon="-1.11287">
        <ele>60.303269</ele>
        <time>2022-12-27T10:57:49.697Z</time>
      </trkpt>
      <trkpt lat="44.61733" lon="-1.11277">
        <ele>60.383553</ele>
        <time>2022-12-27T10:57:53.708Z</time>
      </trkpt>
      <trkpt lat="44.61722" lon="-1.11277">
        <ele>60.464426</ele>
        <time>2022-12-27T10:57:57.698Z</time>
      </trkpt>
      <trkpt lat="44.61718" lon="-1.11264">
        <ele>60.539654</ele>
        <time>2022-12-27T10:58:01.686Z</time>
      </trkpt>
      <trkpt lat="44.61716" lon="-1.1125">
        <ele>60.588812</ele>
        <time>2022-12-27T10:58:04.713Z</time>
      </trkpt>
      <trkpt lat="44.61715" lon="-1.11235">
        <ele>60.59921</ele>
        <time>2022-12-27T10:58:07.689Z</time>
      </trkpt>
      <trkpt lat="44.61714" lon="-1.11219">
        <ele>60.609327</ele>
        <time>2022-12-27T10:58:10.687Z</time>
      </trkpt>
      <trkpt lat="44.61712" lon="-1.11204">
        <ele>60.619478</ele>
        <time>2022-12-27T10:58:13.713Z</time>
      </trkpt>
      <trkpt lat="44.61714" lon="-1.11188">
        <ele>60.630196</ele>
        <time>2022-12-27T10:58:16.685Z</time>
      </trkpt>
      <trkpt lat="44.61716" lon="-1.11173">
        <ele>60.640506</ele>
        <time>2022-12-27T10:58:19.697Z</time>
      </trkpt>
      <trkpt lat="44.61715" lon="-1.11157">
        <ele>60.650987</ele>
        <time>2022-12-27T10:58:22.706Z</time>
      </trkpt>
      <trkpt lat="44.61713" lon="-1.1114">
        <ele>60.662202</ele>
        <time>2022-12-27T10:58:25.691Z</time>
      </trkpt>
      <trkpt lat="44.6171" lon="-1.11123">
        <ele>60.673581</ele>
        <time>2022-12-27T10:58:28.721Z</time>
      </trkpt>
      <trkpt lat="44.61708" lon="-1.11105">
        <ele>60.685521</ele>
        <time>2022-12-27T10:58:31.712Z</time>
      </trkpt>
      <trkpt lat="44.61706" lon="-1.11087">
        <ele>60.697554</ele>
        <time>2022-12-27T10:58:34.696Z</time>
      </trkpt>
      <trkpt lat="44.61704" lon="-1.11069">
        <ele>60.709397</ele>
        <time>2022-12-27T10:58:37.687Z</time>
      </trkpt>
      <trkpt lat="44.61702" lon="-1.11051">
        <ele>60.721182</ele>
        <time>2022-12-27T10:58:40.690Z</time>
      </trkpt>
      <trkpt lat="44.61701" lon="-1.11038">
        <ele>60.729593</ele>
        <time>2022-12-27T10:58:42.718Z</time>
      </trkpt>
      <trkpt lat="44.61699" lon="-1.11026">
        <ele>60.737871</ele>
        <time>2022-12-27T10:58:44.717Z</time>
      </trkpt>
      <trkpt lat="44.61698" lon="-1.11013">
        <ele>60.746489</ele>
        <time>2022-12-27T10:58:46.702Z</time>
      </trkpt>
      <trkpt lat="44.61696" lon="-1.11">
        <ele>60.710734</ele>
        <time>2022-12-27T10:58:48.721Z</time>
      </trkpt>
      <trkpt lat="44.61694" lon="-1.10988">
        <ele>60.632188</ele>
        <time>2022-12-27T10:58:50.690Z</time>
      </trkpt>
      <trkpt lat="44.61693" lon="-1.10975">
        <ele>60.554892</ele>
        <time>2022-12-27T10:58:52.715Z</time>
      </trkpt>
      <trkpt lat="44.6169" lon="-1.10958">
        <ele>60.445108</ele>
        <time>2022-12-27T10:58:55.719Z</time>
      </trkpt>
      <trkpt lat="44.61687" lon="-1.10941">
        <ele>60.339</ele>
        <time>2022-12-27T10:58:58.707Z</time>
      </trkpt>
      <trkpt lat="44.61686" lon="-1.10924">
        <ele>60.234853</ele>
        <time>2022-12-27T10:59:01.686Z</time>
      </trkpt>
      <trkpt lat="44.61685" lon="-1.10907">
        <ele>60.12617</ele>
        <time>2022-12-27T10:59:04.685Z</time>
      </trkpt>
      <trkpt lat="44.61683" lon="-1.1089">
        <ele>60.020888</ele>
        <time>2022-12-27T10:59:07.710Z</time>
      </trkpt>
      <trkpt lat="44.61682" lon="-1.10876">
        <ele>59.934449</ele>
        <time>2022-12-27T10:59:10.693Z</time>
      </trkpt>
      <trkpt lat="44.6168" lon="-1.10861">
        <ele>59.843794</ele>
        <time>2022-12-27T10:59:13.690Z</time>
      </trkpt>
      <trkpt lat="44.61679" lon="-1.10844">
        <ele>59.736886</ele>
        <time>2022-12-27T10:59:16.694Z</time>
      </trkpt>
      <trkpt lat="44.61678" lon="-1.10828">
        <ele>59.637476</ele>
        <time>2022-12-27T10:59:19.700Z</time>
      </trkpt>
      <trkpt lat="44.61677" lon="-1.10811">
        <ele>59.531695</ele>
        <time>2022-12-27T10:59:22.716Z</time>
      </trkpt>
      <trkpt lat="44.61676" lon="-1.10793">
        <ele>59.423041</ele>
        <time>2022-12-27T10:59:25.715Z</time>
      </trkpt>
      <trkpt lat="44.61677" lon="-1.10775">
        <ele>59.311959</ele>
        <time>2022-12-27T10:59:28.700Z</time>
      </trkpt>
      <trkpt lat="44.61677" lon="-1.10758">
        <ele>59.208858</ele>
        <time>2022-12-27T10:59:31.696Z</time>
      </trkpt>
      <trkpt lat="44.61676" lon="-1.10744">
        <ele>59.008508</ele>
        <time>2022-12-27T10:59:34.694Z</time>
      </trkpt>
      <trkpt lat="44.61674" lon="-1.10731">
        <ele>58.796059</ele>
        <time>2022-12-27T10:59:37.710Z</time>
      </trkpt>
      <trkpt lat="44.61681" lon="-1.10719">
        <ele>58.550648</ele>
        <time>2022-12-27T10:59:41.686Z</time>
      </trkpt>
      <trkpt lat="44.61692" lon="-1.10715">
        <ele>58.29639</ele>
        <time>2022-12-27T10:59:44.704Z</time>
      </trkpt>
      <trkpt lat="44.61704" lon="-1.10711">
        <ele>58.026739</ele>
        <time>2022-12-27T10:59:47.696Z</time>
      </trkpt>
      <trkpt lat="44.61713" lon="-1.1071">
        <ele>57.821112</ele>
        <time>2022-12-27T10:59:49.694Z</time>
      </trkpt>
      <trkpt lat="44.61722" lon="-1.10707">
        <ele>57.616798</ele>
        <time>2022-12-27T10:59:51.695Z</time>
      </trkpt>
      <trkpt lat="44.61736" lon="-1.10704">
        <ele>57.309555</ele>
        <time>2022-12-27T10:59:54.698Z</time>
      </trkpt>
      <trkpt lat="44.61746" lon="-1.10701">
        <ele>57.092576</ele>
        <time>2022-12-27T10:59:56.692Z</time>
      </trkpt>
      <trkpt lat="44.61755" lon="-1.10698">
        <ele>56.871561</ele>
        <time>2022-12-27T10:59:58.709Z</time>
      </trkpt>
      <trkpt lat="44.61766" lon="-1.10696">
        <ele>56.635811</ele>
        <time>2022-12-27T11:00:00.691Z</time>
      </trkpt>
      <trkpt lat="44.61777" lon="-1.10696">
        <ele>56.404745</ele>
        <time>2022-12-27T11:00:02.718Z</time>
      </trkpt>
      <trkpt lat="44.61786" lon="-1.10695">
        <ele>56.186472</ele>
        <time>2022-12-27T11:00:04.710Z</time>
      </trkpt>
      <trkpt lat="44.61796" lon="-1.10692">
        <ele>55.978976</ele>
        <time>2022-12-27T11:00:06.713Z</time>
      </trkpt>
      <trkpt lat="44.61805" lon="-1.1069">
        <ele>55.780797</ele>
        <time>2022-12-27T11:00:08.721Z</time>
      </trkpt>
      <trkpt lat="44.61814" lon="-1.10687">
        <ele>55.57492</ele>
        <time>2022-12-27T11:00:10.690Z</time>
      </trkpt>
      <trkpt lat="44.61824" lon="-1.10685">
        <ele>55.35489</ele>
        <time>2022-12-27T11:00:12.716Z</time>
      </trkpt>
      <trkpt lat="44.61833" lon="-1.1068">
        <ele>55.231409</ele>
        <time>2022-12-27T11:00:14.726Z</time>
      </trkpt>
      <trkpt lat="44.61843" lon="-1.10675">
        <ele>55.208239</ele>
        <time>2022-12-27T11:00:16.710Z</time>
      </trkpt>
      <trkpt lat="44.61853" lon="-1.10672">
        <ele>55.186647</ele>
        <time>2022-12-27T11:00:18.702Z</time>
      </trkpt>
      <trkpt lat="44.61864" lon="-1.1067">
        <ele>55.163091</ele>
        <time>2022-12-27T11:00:20.693Z</time>
      </trkpt>
      <trkpt lat="44.61873" lon="-1.10668">
        <ele>55.143379</ele>
        <time>2022-12-27T11:00:22.699Z</time>
      </trkpt>
      <trkpt lat="44.61887" lon="-1.10665">
        <ele>55.11379</ele>
        <time>2022-12-27T11:00:25.704Z</time>
      </trkpt>
      <trkpt lat="44.619" lon="-1.10663">
        <ele>55.085394</ele>
        <time>2022-12-27T11:00:28.725Z</time>
      </trkpt>
      <trkpt lat="44.61909" lon="-1.1066">
        <ele>55.065023</ele>
        <time>2022-12-27T11:00:30.702Z</time>
      </trkpt>
      <trkpt lat="44.61918" lon="-1.10656">
        <ele>55.044661</ele>
        <time>2022-12-27T11:00:32.717Z</time>
      </trkpt>
      <trkpt lat="44.61928" lon="-1.10653">
        <ele>55.023765</ele>
        <time>2022-12-27T11:00:34.713Z</time>
      </trkpt>
      <trkpt lat="44.61937" lon="-1.10651">
        <ele>55.002693</ele>
        <time>2022-12-27T11:00:36.694Z</time>
      </trkpt>
      <trkpt lat="44.61948" lon="-1.10648">
        <ele>54.980405</ele>
        <time>2022-12-27T11:00:38.705Z</time>
      </trkpt>
      <trkpt lat="44.61957" lon="-1.10645">
        <ele>54.959961</ele>
        <time>2022-12-27T11:00:40.689Z</time>
      </trkpt>
      <trkpt lat="44.6197" lon="-1.10641">
        <ele>54.931777</ele>
        <time>2022-12-27T11:00:43.714Z</time>
      </trkpt>
      <trkpt lat="44.61979" lon="-1.10638">
        <ele>54.911996</ele>
        <time>2022-12-27T11:00:45.714Z</time>
      </trkpt>
      <trkpt lat="44.61992" lon="-1.10634">
        <ele>54.882936</ele>
        <time>2022-12-27T11:00:48.773Z</time>
      </trkpt>
      <trkpt lat="44.62001" lon="-1.10631">
        <ele>54.862879</ele>
        <time>2022-12-27T11:00:50.688Z</time>
      </trkpt>
      <trkpt lat="44.62013" lon="-1.10628">
        <ele>54.832468</ele>
        <time>2022-12-27T11:00:53.700Z</time>
      </trkpt>
      <trkpt lat="44.62024" lon="-1.10624">
        <ele>54.802496</ele>
        <time>2022-12-27T11:00:56.714Z</time>
      </trkpt>
      <trkpt lat="44.62036" lon="-1.1062">
        <ele>54.771608</ele>
        <time>2022-12-27T11:00:59.713Z</time>
      </trkpt>
      <trkpt lat="44.62047" lon="-1.10617">
        <ele>54.743266</ele>
        <time>2022-12-27T11:01:02.715Z</time>
      </trkpt>
      <trkpt lat="44.62057" lon="-1.10614">
        <ele>54.715861</ele>
        <time>2022-12-27T11:01:05.716Z</time>
      </trkpt>
      <trkpt lat="44.62065" lon="-1.10607">
        <ele>54.692008</ele>
        <time>2022-12-27T11:01:09.687Z</time>
      </trkpt>
      <trkpt lat="44.62059" lon="-1.10595">
        <ele>54.665539</ele>
        <time>2022-12-27T11:01:13.689Z</time>
      </trkpt>
      <trkpt lat="44.62051" lon="-1.10588">
        <ele>54.640461</ele>
        <time>2022-12-27T11:01:16.687Z</time>
      </trkpt>
      <trkpt lat="44.62043" lon="-1.1058">
        <ele>54.614068</ele>
        <time>2022-12-27T11:01:19.689Z</time>
      </trkpt>
      <trkpt lat="44.62033" lon="-1.10573">
        <ele>54.586163</ele>
        <time>2022-12-27T11:01:22.691Z</time>
      </trkpt>
      <trkpt lat="44.62024" lon="-1.10567">
        <ele>54.560231</ele>
        <time>2022-12-27T11:01:25.716Z</time>
      </trkpt>
      <trkpt lat="44.62015" lon="-1.10562">
        <ele>54.53487</ele>
        <time>2022-12-27T11:01:29.712Z</time>
      </trkpt>
      <trkpt lat="44.62015" lon="-1.10549">
        <ele>54.510926</ele>
        <time>2022-12-27T11:01:38.702Z</time>
      </trkpt>
      <trkpt lat="44.6202" lon="-1.10536">
        <ele>54.4845</ele>
        <time>2022-12-27T11:01:45.705Z</time>
      </trkpt>
      <trkpt lat="44.62021" lon="-1.10522">
        <ele>54.45832</ele>
        <time>2022-12-27T11:01:50.691Z</time>
      </trkpt>
      <trkpt lat="44.62019" lon="-1.10507">
        <ele>54.429928</ele>
        <time>2022-12-27T11:01:54.696Z</time>
      </trkpt>
      <trkpt lat="44.6201" lon="-1.105">
        <ele>54.403914</ele>
        <time>2022-12-27T11:01:58.688Z</time>
      </trkpt>
      <trkpt lat="44.62001" lon="-1.10493">
        <ele>54.478767</ele>
        <time>2022-12-27T11:02:02.688Z</time>
      </trkpt>
      <trkpt lat="44.6199" lon="-1.10486">
        <ele>54.63198</ele>
        <time>2022-12-27T11:02:06.707Z</time>
      </trkpt>
      <trkpt lat="44.6198" lon="-1.10481">
        <ele>54.760513</ele>
        <time>2022-12-27T11:02:09.711Z</time>
      </trkpt>
      <trkpt lat="44.61969" lon="-1.10477">
        <ele>54.906262</ele>
        <time>2022-12-27T11:02:12.714Z</time>
      </trkpt>
      <trkpt lat="44.61959" lon="-1.10472">
        <ele>55.040699</ele>
        <time>2022-12-27T11:02:15.935Z</time>
      </trkpt>
      <trkpt lat="44.61949" lon="-1.10464">
        <ele>55.182231</ele>
        <time>2022-12-27T11:02:18.696Z</time>
      </trkpt>
      <trkpt lat="44.61938" lon="-1.10456">
        <ele>55.329232</ele>
        <time>2022-12-27T11:02:21.708Z</time>
      </trkpt>
      <trkpt lat="44.61928" lon="-1.10448">
        <ele>55.47927</ele>
        <time>2022-12-27T11:02:24.698Z</time>
      </trkpt>
      <trkpt lat="44.61917" lon="-1.1044">
        <ele>55.632912</ele>
        <time>2022-12-27T11:02:27.709Z</time>
      </trkpt>
      <trkpt lat="44.61907" lon="-1.10431">
        <ele>55.78463</ele>
        <time>2022-12-27T11:02:30.702Z</time>
      </trkpt>
      <trkpt lat="44.61896" lon="-1.10421">
        <ele>55.946474</ele>
        <time>2022-12-27T11:02:33.684Z</time>
      </trkpt>
      <trkpt lat="44.61884" lon="-1.10413">
        <ele>56.104975</ele>
        <time>2022-12-27T11:02:36.705Z</time>
      </trkpt>
      <trkpt lat="44.61872" lon="-1.10405">
        <ele>56.27098</ele>
        <time>2022-12-27T11:02:39.694Z</time>
      </trkpt>
      <trkpt lat="44.61862" lon="-1.10397">
        <ele>56.416644</ele>
        <time>2022-12-27T11:02:42.713Z</time>
      </trkpt>
      <trkpt lat="44.61854" lon="-1.1039">
        <ele>56.542276</ele>
        <time>2022-12-27T11:02:45.691Z</time>
      </trkpt>
      <trkpt lat="44.61846" lon="-1.10381">
        <ele>56.634948</ele>
        <time>2022-12-27T11:02:48.709Z</time>
      </trkpt>
      <trkpt lat="44.61839" lon="-1.10373">
        <ele>56.623222</ele>
        <time>2022-12-27T11:02:51.692Z</time>
      </trkpt>
      <trkpt lat="44.61832" lon="-1.10363">
        <ele>56.611375</ele>
        <time>2022-12-27T11:02:54.690Z</time>
      </trkpt>
      <trkpt lat="44.61826" lon="-1.10353">
        <ele>56.599309</ele>
        <time>2022-12-27T11:02:57.715Z</time>
      </trkpt>
      <trkpt lat="44.61817" lon="-1.10347">
        <ele>56.587616</ele>
        <time>2022-12-27T11:03:00.693Z</time>
      </trkpt>
      <trkpt lat="44.61807" lon="-1.10341">
        <ele>56.574316</ele>
        <time>2022-12-27T11:03:04.710Z</time>
      </trkpt>
      <trkpt lat="44.61798" lon="-1.10339">
        <ele>56.562216</ele>
        <time>2022-12-27T11:03:08.721Z</time>
      </trkpt>
      <trkpt lat="44.61808" lon="-1.10338">
        <ele>56.549028</ele>
        <time>2022-12-27T11:03:46.694Z</time>
      </trkpt>
      <trkpt lat="44.61818" lon="-1.10346">
        <ele>56.535113</ele>
        <time>2022-12-27T11:03:49.710Z</time>
      </trkpt>
      <trkpt lat="44.61828" lon="-1.10353">
        <ele>56.521071</ele>
        <time>2022-12-27T11:03:52.705Z</time>
      </trkpt>
      <trkpt lat="44.61835" lon="-1.10365">
        <ele>56.508014</ele>
        <time>2022-12-27T11:03:55.691Z</time>
      </trkpt>
      <trkpt lat="44.61842" lon="-1.10376">
        <ele>56.494833</ele>
        <time>2022-12-27T11:03:58.722Z</time>
      </trkpt>
      <trkpt lat="44.61849" lon="-1.10386">
        <ele>56.481819</ele>
        <time>2022-12-27T11:04:00.712Z</time>
      </trkpt>
      <trkpt lat="44.61858" lon="-1.10394">
        <ele>56.46943</ele>
        <time>2022-12-27T11:04:02.689Z</time>
      </trkpt>
      <trkpt lat="44.61866" lon="-1.10401">
        <ele>56.457266</ele>
        <time>2022-12-27T11:04:04.689Z</time>
      </trkpt>
      <trkpt lat="44.61875" lon="-1.10408">
        <ele>56.444846</ele>
        <time>2022-12-27T11:04:06.713Z</time>
      </trkpt>
      <trkpt lat="44.61884" lon="-1.10413">
        <ele>56.432541</ele>
        <time>2022-12-27T11:04:08.704Z</time>
      </trkpt>
      <trkpt lat="44.61893" lon="-1.10418">
        <ele>56.420943</ele>
        <time>2022-12-27T11:04:10.711Z</time>
      </trkpt>
      <trkpt lat="44.61904" lon="-1.10428">
        <ele>56.433417</ele>
        <time>2022-12-27T11:04:13.699Z</time>
      </trkpt>
      <trkpt lat="44.61913" lon="-1.10436">
        <ele>56.461096</ele>
        <time>2022-12-27T11:04:16.717Z</time>
      </trkpt>
      <trkpt lat="44.61924" lon="-1.10445">
        <ele>56.49061</ele>
        <time>2022-12-27T11:04:19.685Z</time>
      </trkpt>
      <trkpt lat="44.61936" lon="-1.10455">
        <ele>56.525283</ele>
        <time>2022-12-27T11:04:22.708Z</time>
      </trkpt>
      <trkpt lat="44.61945" lon="-1.10461">
        <ele>56.548861</ele>
        <time>2022-12-27T11:04:24.716Z</time>
      </trkpt>
      <trkpt lat="44.61957" lon="-1.1047">
        <ele>56.582655</ele>
        <time>2022-12-27T11:04:27.712Z</time>
      </trkpt>
      <trkpt lat="44.61965" lon="-1.10476">
        <ele>56.605486</ele>
        <time>2022-12-27T11:04:29.713Z</time>
      </trkpt>
      <trkpt lat="44.61974" lon="-1.1048">
        <ele>56.627918</ele>
        <time>2022-12-27T11:04:31.685Z</time>
      </trkpt>
      <trkpt lat="44.61985" lon="-1.10485">
        <ele>56.656133</ele>
        <time>2022-12-27T11:04:34.713Z</time>
      </trkpt>
      <trkpt lat="44.61994" lon="-1.1049">
        <ele>56.678277</ele>
        <time>2022-12-27T11:04:37.714Z</time>
      </trkpt>
      <trkpt lat="44.62004" lon="-1.10494">
        <ele>56.703787</ele>
        <time>2022-12-27T11:04:41.691Z</time>
      </trkpt>
      <trkpt lat="44.62011" lon="-1.10485">
        <ele>56.726442</ele>
        <time>2022-12-27T11:04:45.737Z</time>
      </trkpt>
      <trkpt lat="44.62015" lon="-1.10474">
        <ele>56.749117</ele>
        <time>2022-12-27T11:04:48.710Z</time>
      </trkpt>
      <trkpt lat="44.6202" lon="-1.10462">
        <ele>56.771221</ele>
        <time>2022-12-27T11:04:51.713Z</time>
      </trkpt>
      <trkpt lat="44.62028" lon="-1.10452">
        <ele>56.798369</ele>
        <time>2022-12-27T11:04:55.688Z</time>
      </trkpt>
      <trkpt lat="44.62035" lon="-1.10441">
        <ele>56.823449</ele>
        <time>2022-12-27T11:04:58.712Z</time>
      </trkpt>
      <trkpt lat="44.62041" lon="-1.10429">
        <ele>56.849534</ele>
        <time>2022-12-27T11:05:01.691Z</time>
      </trkpt>
      <trkpt lat="44.62046" lon="-1.10416">
        <ele>56.921577</ele>
        <time>2022-12-27T11:05:04.689Z</time>
      </trkpt>
      <trkpt lat="44.62051" lon="-1.10401">
        <ele>57.009851</ele>
        <time>2022-12-27T11:05:07.697Z</time>
      </trkpt>
      <trkpt lat="44.62056" lon="-1.10385">
        <ele>57.105175</ele>
        <time>2022-12-27T11:05:10.689Z</time>
      </trkpt>
      <trkpt lat="44.6206" lon="-1.10373">
        <ele>57.17262</ele>
        <time>2022-12-27T11:05:12.722Z</time>
      </trkpt>
      <trkpt lat="44.62065" lon="-1.10362">
        <ele>57.242553</ele>
        <time>2022-12-27T11:05:14.686Z</time>
      </trkpt>
      <trkpt lat="44.62069" lon="-1.10351">
        <ele>57.310044</ele>
        <time>2022-12-27T11:05:16.715Z</time>
      </trkpt>
      <trkpt lat="44.62075" lon="-1.1034">
        <ele>57.382519</ele>
        <time>2022-12-27T11:05:18.721Z</time>
      </trkpt>
      <trkpt lat="44.6208" lon="-1.10329">
        <ele>57.453169</ele>
        <time>2022-12-27T11:05:21.693Z</time>
      </trkpt>
      <trkpt lat="44.62085" lon="-1.10317">
        <ele>57.525246</ele>
        <time>2022-12-27T11:05:24.689Z</time>
      </trkpt>
      <trkpt lat="44.62089" lon="-1.10304">
        <ele>57.603033</ele>
        <time>2022-12-27T11:05:28.721Z</time>
      </trkpt>
      <trkpt lat="44.62093" lon="-1.10292">
        <ele>57.674175</ele>
        <time>2022-12-27T11:05:32.685Z</time>
      </trkpt>
      <trkpt lat="44.62092" lon="-1.10308">
        <ele>57.758436</ele>
        <time>2022-12-27T11:05:47.700Z</time>
      </trkpt>
      <trkpt lat="44.62098" lon="-1.1032">
        <ele>57.836882</ele>
        <time>2022-12-27T11:05:52.715Z</time>
      </trkpt>
      <trkpt lat="44.62109" lon="-1.10327">
        <ele>57.922433</ele>
        <time>2022-12-27T11:05:56.713Z</time>
      </trkpt>
      <trkpt lat="44.62119" lon="-1.10335">
        <ele>58.010151</ele>
        <time>2022-12-27T11:05:59.692Z</time>
      </trkpt>
      <trkpt lat="44.62127" lon="-1.10343">
        <ele>58.085737</ele>
        <time>2022-12-27T11:06:02.687Z</time>
      </trkpt>
      <trkpt lat="44.62138" lon="-1.10353">
        <ele>58.18114</ele>
        <time>2022-12-27T11:06:05.708Z</time>
      </trkpt>
      <trkpt lat="44.62149" lon="-1.10362">
        <ele>58.193823</ele>
        <time>2022-12-27T11:06:08.702Z</time>
      </trkpt>
      <trkpt lat="44.6216" lon="-1.10369">
        <ele>58.191563</ele>
        <time>2022-12-27T11:06:11.690Z</time>
      </trkpt>
      <trkpt lat="44.62164" lon="-1.10371">
        <ele>58.190845</ele>
        <time>2022-12-27T11:06:12.810Z</time>
      </trkpt>
      <trkpt lat="44.62292" lon="-1.02473">
        <ele>57.511867</ele>
        <time>2022-12-27T11:37:03.930Z</time>
      </trkpt>
      <trkpt lat="44.62288" lon="-1.02468">
        <ele>57.525736</ele>
        <time>2022-12-27T12:00:20.540Z</time>
      </trkpt>
      <trkpt lat="44.62287" lon="-1.02448">
        <ele>57.566338</ele>
        <time>2022-12-27T12:00:43.702Z</time>
      </trkpt>
      <trkpt lat="44.62289" lon="-1.02435">
        <ele>57.592273</ele>
        <time>2022-12-27T12:00:47.694Z</time>
      </trkpt>
      <trkpt lat="44.62295" lon="-1.02424">
        <ele>57.61982</ele>
        <time>2022-12-27T12:00:51.697Z</time>
      </trkpt>
      <trkpt lat="44.62297" lon="-1.02411">
        <ele>57.646392</ele>
        <time>2022-12-27T12:00:55.706Z</time>
      </trkpt>
      <trkpt lat="44.62293" lon="-1.02399">
        <ele>57.673182</ele>
        <time>2022-12-27T12:00:58.692Z</time>
      </trkpt>
      <trkpt lat="44.62288" lon="-1.02385">
        <ele>57.703104</ele>
        <time>2022-12-27T12:01:01.695Z</time>
      </trkpt>
      <trkpt lat="44.62284" lon="-1.0237">
        <ele>57.735723</ele>
        <time>2022-12-27T12:01:04.722Z</time>
      </trkpt>
      <trkpt lat="44.6228" lon="-1.02356">
        <ele>57.765198</ele>
        <time>2022-12-27T12:01:07.691Z</time>
      </trkpt>
      <trkpt lat="44.62276" lon="-1.02343">
        <ele>57.793511</ele>
        <time>2022-12-27T12:01:10.716Z</time>
      </trkpt>
      <trkpt lat="44.62272" lon="-1.02328">
        <ele>57.783442</ele>
        <time>2022-12-27T12:01:13.714Z</time>
      </trkpt>
      <trkpt lat="44.62267" lon="-1.02313">
        <ele>57.728849</ele>
        <time>2022-12-27T12:01:16.716Z</time>
      </trkpt>
      <trkpt lat="44.62262" lon="-1.02298">
        <ele>57.677889</ele>
        <time>2022-12-27T12:01:19.714Z</time>
      </trkpt>
      <trkpt lat="44.62257" lon="-1.02284">
        <ele>57.627881</ele>
        <time>2022-12-27T12:01:22.712Z</time>
      </trkpt>
      <trkpt lat="44.62253" lon="-1.0227">
        <ele>57.581669</ele>
        <time>2022-12-27T12:01:25.728Z</time>
      </trkpt>
      <trkpt lat="44.62249" lon="-1.02257">
        <ele>57.536674</ele>
        <time>2022-12-27T12:01:28.697Z</time>
      </trkpt>
      <trkpt lat="44.62244" lon="-1.02244">
        <ele>57.490236</ele>
        <time>2022-12-27T12:01:31.694Z</time>
      </trkpt>
      <trkpt lat="44.62239" lon="-1.02228">
        <ele>57.434693</ele>
        <time>2022-12-27T12:01:34.705Z</time>
      </trkpt>
      <trkpt lat="44.62235" lon="-1.02212">
        <ele>57.381026</ele>
        <time>2022-12-27T12:01:37.713Z</time>
      </trkpt>
      <trkpt lat="44.62232" lon="-1.022">
        <ele>57.340597</ele>
        <time>2022-12-27T12:01:39.699Z</time>
      </trkpt>
      <trkpt lat="44.62228" lon="-1.02182">
        <ele>57.282082</ele>
        <time>2022-12-27T12:01:42.727Z</time>
      </trkpt>
      <trkpt lat="44.62224" lon="-1.02165">
        <ele>57.225366</ele>
        <time>2022-12-27T12:01:45.697Z</time>
      </trkpt>
      <trkpt lat="44.62219" lon="-1.02148">
        <ele>57.166533</ele>
        <time>2022-12-27T12:01:48.711Z</time>
      </trkpt>
      <trkpt lat="44.62216" lon="-1.02136">
        <ele>57.12586</ele>
        <time>2022-12-27T12:01:50.696Z</time>
      </trkpt>
      <trkpt lat="44.62212" lon="-1.02118">
        <ele>57.066174</ele>
        <time>2022-12-27T12:01:53.712Z</time>
      </trkpt>
      <trkpt lat="44.62208" lon="-1.02101">
        <ele>57.011574</ele>
        <time>2022-12-27T12:01:56.725Z</time>
      </trkpt>
      <trkpt lat="44.62205" lon="-1.02086">
        <ele>56.942558</ele>
        <time>2022-12-27T12:01:59.714Z</time>
      </trkpt>
      <trkpt lat="44.62201" lon="-1.02071">
        <ele>56.87372</ele>
        <time>2022-12-27T12:02:02.716Z</time>
      </trkpt>
      <trkpt lat="44.62198" lon="-1.02054">
        <ele>56.797115</ele>
        <time>2022-12-27T12:02:05.721Z</time>
      </trkpt>
      <trkpt lat="44.62195" lon="-1.02035">
        <ele>56.711482</ele>
        <time>2022-12-27T12:02:08.699Z</time>
      </trkpt>
      <trkpt lat="44.62192" lon="-1.02022">
        <ele>56.651957</ele>
        <time>2022-12-27T12:02:10.713Z</time>
      </trkpt>
      <trkpt lat="44.62189" lon="-1.02009">
        <ele>56.593277</ele>
        <time>2022-12-27T12:02:12.715Z</time>
      </trkpt>
      <trkpt lat="44.62188" lon="-1.01996">
        <ele>56.535719</ele>
        <time>2022-12-27T12:02:14.713Z</time>
      </trkpt>
      <trkpt lat="44.62184" lon="-1.01977">
        <ele>56.44956</ele>
        <time>2022-12-27T12:02:17.698Z</time>
      </trkpt>
      <trkpt lat="44.62181" lon="-1.01959">
        <ele>56.36836</ele>
        <time>2022-12-27T12:02:20.719Z</time>
      </trkpt>
      <trkpt lat="44.62179" lon="-1.01941">
        <ele>56.28842</ele>
        <time>2022-12-27T12:02:23.701Z</time>
      </trkpt>
      <trkpt lat="44.62177" lon="-1.01924">
        <ele>56.213124</ele>
        <time>2022-12-27T12:02:26.716Z</time>
      </trkpt>
      <trkpt lat="44.62175" lon="-1.01907">
        <ele>56.137705</ele>
        <time>2022-12-27T12:02:29.716Z</time>
      </trkpt>
      <trkpt lat="44.62171" lon="-1.0189">
        <ele>56.0611</ele>
        <time>2022-12-27T12:02:32.703Z</time>
      </trkpt>
      <trkpt lat="44.62168" lon="-1.01873">
        <ele>55.98469</ele>
        <time>2022-12-27T12:02:35.723Z</time>
      </trkpt>
      <trkpt lat="44.62166" lon="-1.01857">
        <ele>55.911931</ele>
        <time>2022-12-27T12:02:38.729Z</time>
      </trkpt>
      <trkpt lat="44.62162" lon="-1.01843">
        <ele>55.88235</ele>
        <time>2022-12-27T12:02:41.693Z</time>
      </trkpt>
      <trkpt lat="44.62157" lon="-1.0183">
        <ele>55.855803</ele>
        <time>2022-12-27T12:02:44.726Z</time>
      </trkpt>
      <trkpt lat="44.62159" lon="-1.01815">
        <ele>55.827508</ele>
        <time>2022-12-27T12:02:47.705Z</time>
      </trkpt>
      <trkpt lat="44.6216" lon="-1.01799">
        <ele>55.797523</ele>
        <time>2022-12-27T12:02:50.697Z</time>
      </trkpt>
      <trkpt lat="44.62158" lon="-1.01782">
        <ele>55.764177</ele>
        <time>2022-12-27T12:02:53.702Z</time>
      </trkpt>
      <trkpt lat="44.62155" lon="-1.01765">
        <ele>55.731794</ele>
        <time>2022-12-27T12:02:56.722Z</time>
      </trkpt>
      <trkpt lat="44.62151" lon="-1.0175">
        <ele>55.702067</ele>
        <time>2022-12-27T12:02:59.695Z</time>
      </trkpt>
      <trkpt lat="44.62149" lon="-1.01734">
        <ele>55.672553</ele>
        <time>2022-12-27T12:03:02.694Z</time>
      </trkpt>
      <trkpt lat="44.62148" lon="-1.01716">
        <ele>55.639786</ele>
        <time>2022-12-27T12:03:05.699Z</time>
      </trkpt>
      <trkpt lat="44.62147" lon="-1.01704">
        <ele>55.616124</ele>
        <time>2022-12-27T12:03:07.704Z</time>
      </trkpt>
      <trkpt lat="44.62145" lon="-1.01685">
        <ele>55.581288</ele>
        <time>2022-12-27T12:03:10.704Z</time>
      </trkpt>
      <trkpt lat="44.62143" lon="-1.01673">
        <ele>55.557535</ele>
        <time>2022-12-27T12:03:12.709Z</time>
      </trkpt>
      <trkpt lat="44.62142" lon="-1.0166">
        <ele>55.534091</ele>
        <time>2022-12-27T12:03:14.712Z</time>
      </trkpt>
      <trkpt lat="44.6214" lon="-1.01642">
        <ele>55.499438</ele>
        <time>2022-12-27T12:03:17.720Z</time>
      </trkpt>
      <trkpt lat="44.62137" lon="-1.01623">
        <ele>55.463239</ele>
        <time>2022-12-27T12:03:20.714Z</time>
      </trkpt>
      <trkpt lat="44.62134" lon="-1.0161">
        <ele>55.436259</ele>
        <time>2022-12-27T12:03:22.694Z</time>
      </trkpt>
      <trkpt lat="44.62133" lon="-1.01597">
        <ele>55.390104</ele>
        <time>2022-12-27T12:03:24.720Z</time>
      </trkpt>
      <trkpt lat="44.62132" lon="-1.01583">
        <ele>55.342582</ele>
        <time>2022-12-27T12:03:26.693Z</time>
      </trkpt>
      <trkpt lat="44.62131" lon="-1.01571">
        <ele>55.296881</ele>
        <time>2022-12-27T12:03:28.701Z</time>
      </trkpt>
      <trkpt lat="44.6213" lon="-1.01558">
        <ele>55.250582</ele>
        <time>2022-12-27T12:03:30.700Z</time>
      </trkpt>
      <trkpt lat="44.62128" lon="-1.01539">
        <ele>55.18532</ele>
        <time>2022-12-27T12:03:33.699Z</time>
      </trkpt>
      <trkpt lat="44.62125" lon="-1.0152">
        <ele>55.116195</ele>
        <time>2022-12-27T12:03:36.692Z</time>
      </trkpt>
      <trkpt lat="44.62123" lon="-1.01502">
        <ele>55.050777</ele>
        <time>2022-12-27T12:03:39.710Z</time>
      </trkpt>
      <trkpt lat="44.62121" lon="-1.01484">
        <ele>54.984469</ele>
        <time>2022-12-27T12:03:42.700Z</time>
      </trkpt>
      <trkpt lat="44.62118" lon="-1.01466">
        <ele>54.920197</ele>
        <time>2022-12-27T12:03:45.713Z</time>
      </trkpt>
      <trkpt lat="44.62116" lon="-1.0145">
        <ele>54.861439</ele>
        <time>2022-12-27T12:03:48.725Z</time>
      </trkpt>
      <trkpt lat="44.62115" lon="-1.01435">
        <ele>54.81024</ele>
        <time>2022-12-27T12:03:51.694Z</time>
      </trkpt>
      <trkpt lat="44.62113" lon="-1.01422">
        <ele>54.761839</ele>
        <time>2022-12-27T12:03:54.697Z</time>
      </trkpt>
      <trkpt lat="44.62111" lon="-1.01406">
        <ele>54.704918</ele>
        <time>2022-12-27T12:03:57.711Z</time>
      </trkpt>
      <trkpt lat="44.62109" lon="-1.01392">
        <ele>54.654896</ele>
        <time>2022-12-27T12:04:00.704Z</time>
      </trkpt>
      <trkpt lat="44.62106" lon="-1.01376">
        <ele>54.595918</ele>
        <time>2022-12-27T12:04:03.710Z</time>
      </trkpt>
      <trkpt lat="44.62104" lon="-1.01362">
        <ele>54.544363</ele>
        <time>2022-12-27T12:04:05.720Z</time>
      </trkpt>
      <trkpt lat="44.62104" lon="-1.01348">
        <ele>54.61724</ele>
        <time>2022-12-27T12:04:07.712Z</time>
      </trkpt>
      <trkpt lat="44.62102" lon="-1.0133">
        <ele>54.711555</ele>
        <time>2022-12-27T12:04:10.713Z</time>
      </trkpt>
      <trkpt lat="44.621" lon="-1.01315">
        <ele>54.787561</ele>
        <time>2022-12-27T12:04:13.710Z</time>
      </trkpt>
      <trkpt lat="44.62097" lon="-1.01302">
        <ele>54.860583</ele>
        <time>2022-12-27T12:04:16.699Z</time>
      </trkpt>
      <trkpt lat="44.62093" lon="-1.01285">
        <ele>54.95148</ele>
        <time>2022-12-27T12:04:19.713Z</time>
      </trkpt>
      <trkpt lat="44.62089" lon="-1.01269">
        <ele>55.040244</ele>
        <time>2022-12-27T12:04:22.714Z</time>
      </trkpt>
      <trkpt lat="44.62086" lon="-1.01256">
        <ele>55.112855</ele>
        <time>2022-12-27T12:04:24.710Z</time>
      </trkpt>
      <trkpt lat="44.62082" lon="-1.01243">
        <ele>55.182649</ele>
        <time>2022-12-27T12:04:26.704Z</time>
      </trkpt>
      <trkpt lat="44.62077" lon="-1.01227">
        <ele>55.27633</ele>
        <time>2022-12-27T12:04:29.722Z</time>
      </trkpt>
      <trkpt lat="44.62072" lon="-1.01211">
        <ele>55.365637</ele>
        <time>2022-12-27T12:04:32.709Z</time>
      </trkpt>
      <trkpt lat="44.62067" lon="-1.01198">
        <ele>55.444805</ele>
        <time>2022-12-27T12:04:35.712Z</time>
      </trkpt>
      <trkpt lat="44.62063" lon="-1.01185">
        <ele>55.514512</ele>
        <time>2022-12-27T12:04:38.713Z</time>
      </trkpt>
      <trkpt lat="44.62059" lon="-1.01173">
        <ele>55.587007</ele>
        <time>2022-12-27T12:04:42.697Z</time>
      </trkpt>
      <trkpt lat="44.62051" lon="-1.01162">
        <ele>55.666584</ele>
        <time>2022-12-27T12:04:46.692Z</time>
      </trkpt>
      <trkpt lat="44.62041" lon="-1.0116">
        <ele>55.737081</ele>
        <time>2022-12-27T12:04:50.695Z</time>
      </trkpt>
      <trkpt lat="44.62032" lon="-1.01151">
        <ele>55.819398</ele>
        <time>2022-12-27T12:04:54.708Z</time>
      </trkpt>
      <trkpt lat="44.62026" lon="-1.01138">
        <ele>55.789547</ele>
        <time>2022-12-27T12:04:58.701Z</time>
      </trkpt>
      <trkpt lat="44.62021" lon="-1.01126">
        <ele>55.686203</ele>
        <time>2022-12-27T12:05:01.701Z</time>
      </trkpt>
      <trkpt lat="44.62015" lon="-1.01114">
        <ele>55.580893</ele>
        <time>2022-12-27T12:05:04.704Z</time>
      </trkpt>
      <trkpt lat="44.62011" lon="-1.011">
        <ele>55.465866</ele>
        <time>2022-12-27T12:05:07.701Z</time>
      </trkpt>
      <trkpt lat="44.62008" lon="-1.01084">
        <ele>55.346635</ele>
        <time>2022-12-27T12:05:10.703Z</time>
      </trkpt>
      <trkpt lat="44.62002" lon="-1.01068">
        <ele>55.218093</ele>
        <time>2022-12-27T12:05:13.724Z</time>
      </trkpt>
      <trkpt lat="44.61997" lon="-1.01054">
        <ele>55.099505</ele>
        <time>2022-12-27T12:05:16.698Z</time>
      </trkpt>
      <trkpt lat="44.62006" lon="-1.01064">
        <ele>54.985427</ele>
        <time>2022-12-27T12:05:43.697Z</time>
      </trkpt>
      <trkpt lat="44.6201" lon="-1.01076">
        <ele>54.887103</ele>
        <time>2022-12-27T12:05:46.711Z</time>
      </trkpt>
      <trkpt lat="44.62015" lon="-1.0109">
        <ele>54.775373</ele>
        <time>2022-12-27T12:05:49.703Z</time>
      </trkpt>
      <trkpt lat="44.6202" lon="-1.01104">
        <ele>54.655205</ele>
        <time>2022-12-27T12:05:52.691Z</time>
      </trkpt>
      <trkpt lat="44.62025" lon="-1.01119">
        <ele>54.539475</ele>
        <time>2022-12-27T12:05:55.710Z</time>
      </trkpt>
      <trkpt lat="44.62029" lon="-1.01132">
        <ele>54.430174</ele>
        <time>2022-12-27T12:05:58.694Z</time>
      </trkpt>
      <trkpt lat="44.62033" lon="-1.01144">
        <ele>54.335212</ele>
        <time>2022-12-27T12:06:01.694Z</time>
      </trkpt>
      <trkpt lat="44.62041" lon="-1.01153">
        <ele>54.225727</ele>
        <time>2022-12-27T12:06:05.713Z</time>
      </trkpt>
      <trkpt lat="44.62052" lon="-1.01153">
        <ele>54.119622</ele>
        <time>2022-12-27T12:06:08.693Z</time>
      </trkpt>
      <trkpt lat="44.62062" lon="-1.01149">
        <ele>54.008925</ele>
        <time>2022-12-27T12:06:12.709Z</time>
      </trkpt>
      <trkpt lat="44.62073" lon="-1.01147">
        <ele>54.016726</ele>
        <time>2022-12-27T12:06:15.718Z</time>
      </trkpt>
      <trkpt lat="44.62083" lon="-1.01144">
        <ele>54.030608</ele>
        <time>2022-12-27T12:06:17.706Z</time>
      </trkpt>
      <trkpt lat="44.62095" lon="-1.01143">
        <ele>54.047956</ele>
        <time>2022-12-27T12:06:20.697Z</time>
      </trkpt>
      <trkpt lat="44.62105" lon="-1.01142">
        <ele>54.061077</ele>
        <time>2022-12-27T12:06:22.706Z</time>
      </trkpt>
      <trkpt lat="44.62114" lon="-1.01142">
        <ele>54.074732</ele>
        <time>2022-12-27T12:06:24.711Z</time>
      </trkpt>
      <trkpt lat="44.62124" lon="-1.01142">
        <ele>54.087826</ele>
        <time>2022-12-27T12:06:26.716Z</time>
      </trkpt>
      <trkpt lat="44.62136" lon="-1.0114">
        <ele>54.105765</ele>
        <time>2022-12-27T12:06:29.708Z</time>
      </trkpt>
      <trkpt lat="44.62149" lon="-1.01139">
        <ele>54.123804</ele>
        <time>2022-12-27T12:06:32.697Z</time>
      </trkpt>
      <trkpt lat="44.62162" lon="-1.0114">
        <ele>54.141975</ele>
        <time>2022-12-27T12:06:35.702Z</time>
      </trkpt>
      <trkpt lat="44.62175" lon="-1.0114">
        <ele>54.160276</ele>
        <time>2022-12-27T12:06:38.717Z</time>
      </trkpt>
      <trkpt lat="44.62189" lon="-1.01139">
        <ele>54.179878</ele>
        <time>2022-12-27T12:06:41.707Z</time>
      </trkpt>
      <trkpt lat="44.62198" lon="-1.01138">
        <ele>54.193194</ele>
        <time>2022-12-27T12:06:43.693Z</time>
      </trkpt>
      <trkpt lat="44.62208" lon="-1.01137">
        <ele>54.20605</ele>
        <time>2022-12-27T12:06:45.701Z</time>
      </trkpt>
      <trkpt lat="44.62217" lon="-1.01136">
        <ele>54.219853</ele>
        <time>2022-12-27T12:06:47.695Z</time>
      </trkpt>
      <trkpt lat="44.62227" lon="-1.01136">
        <ele>54.232803</ele>
        <time>2022-12-27T12:06:49.697Z</time>
      </trkpt>
      <trkpt lat="44.6224" lon="-1.01136">
        <ele>54.251243</ele>
        <time>2022-12-27T12:06:52.696Z</time>
      </trkpt>
      <trkpt lat="44.62249" lon="-1.01136">
        <ele>54.322362</ele>
        <time>2022-12-27T12:06:54.725Z</time>
      </trkpt>
      <trkpt lat="44.62258" lon="-1.01136">
        <ele>54.412295</ele>
        <time>2022-12-27T12:06:56.713Z</time>
      </trkpt>
      <trkpt lat="44.62267" lon="-1.01136">
        <ele>54.50527</ele>
        <time>2022-12-27T12:06:58.715Z</time>
      </trkpt>
      <trkpt lat="44.62279" lon="-1.01135">
        <ele>54.620264</ele>
        <time>2022-12-27T12:07:01.692Z</time>
      </trkpt>
      <trkpt lat="44.62288" lon="-1.01134">
        <ele>54.716637</ele>
        <time>2022-12-27T12:07:03.711Z</time>
      </trkpt>
      <trkpt lat="44.623" lon="-1.01133">
        <ele>54.836651</ele>
        <time>2022-12-27T12:07:06.723Z</time>
      </trkpt>
      <trkpt lat="44.62313" lon="-1.01133">
        <ele>54.963559</ele>
        <time>2022-12-27T12:07:09.714Z</time>
      </trkpt>
      <trkpt lat="44.62326" lon="-1.01133">
        <ele>55.09451</ele>
        <time>2022-12-27T12:07:12.718Z</time>
      </trkpt>
      <trkpt lat="44.62336" lon="-1.01132">
        <ele>55.190534</ele>
        <time>2022-12-27T12:07:14.713Z</time>
      </trkpt>
      <trkpt lat="44.62348" lon="-1.01132">
        <ele>55.318441</ele>
        <time>2022-12-27T12:07:17.722Z</time>
      </trkpt>
      <trkpt lat="44.6236" lon="-1.01131">
        <ele>55.438487</ele>
        <time>2022-12-27T12:07:20.720Z</time>
      </trkpt>
      <trkpt lat="44.62371" lon="-1.01131">
        <ele>55.540433</ele>
        <time>2022-12-27T12:07:23.718Z</time>
      </trkpt>
      <trkpt lat="44.62379" lon="-1.01135">
        <ele>55.633534</ele>
        <time>2022-12-27T12:07:26.706Z</time>
      </trkpt>
      <trkpt lat="44.62389" lon="-1.01138">
        <ele>55.732632</ele>
        <time>2022-12-27T12:07:30.707Z</time>
      </trkpt>
      <trkpt lat="44.62401" lon="-1.01138">
        <ele>55.854544</ele>
        <time>2022-12-27T12:07:34.696Z</time>
      </trkpt>
      <trkpt lat="44.62412" lon="-1.01133">
        <ele>55.963215</ele>
        <time>2022-12-27T12:07:37.703Z</time>
      </trkpt>
      <trkpt lat="44.62423" lon="-1.01128">
        <ele>56.046766</ele>
        <time>2022-12-27T12:07:40.711Z</time>
      </trkpt>
      <trkpt lat="44.62434" lon="-1.01128">
        <ele>56.024297</ele>
        <time>2022-12-27T12:07:43.707Z</time>
      </trkpt>
      <trkpt lat="44.62445" lon="-1.0113">
        <ele>56.001403</ele>
        <time>2022-12-27T12:07:46.706Z</time>
      </trkpt>
      <trkpt lat="44.62457" lon="-1.01129">
        <ele>55.977864</ele>
        <time>2022-12-27T12:07:49.706Z</time>
      </trkpt>
      <trkpt lat="44.62469" lon="-1.01127">
        <ele>55.954931</ele>
        <time>2022-12-27T12:07:52.710Z</time>
      </trkpt>
      <trkpt lat="44.62482" lon="-1.01127">
        <ele>55.929075</ele>
        <time>2022-12-27T12:07:55.721Z</time>
      </trkpt>
      <trkpt lat="44.62491" lon="-1.01127">
        <ele>55.909793</ele>
        <time>2022-12-27T12:07:57.714Z</time>
      </trkpt>
      <trkpt lat="44.625" lon="-1.01127">
        <ele>55.891901</ele>
        <time>2022-12-27T12:07:59.715Z</time>
      </trkpt>
      <trkpt lat="44.62512" lon="-1.01126">
        <ele>55.868628</ele>
        <time>2022-12-27T12:08:02.713Z</time>
      </trkpt>
      <trkpt lat="44.62524" lon="-1.01126">
        <ele>55.845549</ele>
        <time>2022-12-27T12:08:05.716Z</time>
      </trkpt>
      <trkpt lat="44.62536" lon="-1.01126">
        <ele>55.821695</ele>
        <time>2022-12-27T12:08:08.723Z</time>
      </trkpt>
      <trkpt lat="44.62547" lon="-1.01126">
        <ele>55.799034</ele>
        <time>2022-12-27T12:08:11.700Z</time>
      </trkpt>
      <trkpt lat="44.62556" lon="-1.01126">
        <ele>55.78113</ele>
        <time>2022-12-27T12:08:14.697Z</time>
      </trkpt>
      <trkpt lat="44.62565" lon="-1.01127">
        <ele>55.76222</ele>
        <time>2022-12-27T12:08:17.696Z</time>
      </trkpt>
      <trkpt lat="44.62577" lon="-1.01126">
        <ele>55.73992</ele>
        <time>2022-12-27T12:08:20.716Z</time>
      </trkpt>
      <trkpt lat="44.62589" lon="-1.01125">
        <ele>55.715246</ele>
        <time>2022-12-27T12:08:23.715Z</time>
      </trkpt>
      <trkpt lat="44.626" lon="-1.01125">
        <ele>55.687617</ele>
        <time>2022-12-27T12:08:26.712Z</time>
      </trkpt>
      <trkpt lat="44.62609" lon="-1.01124">
        <ele>55.60179</ele>
        <time>2022-12-27T12:08:29.713Z</time>
      </trkpt>
      <trkpt lat="44.6262" lon="-1.01124">
        <ele>55.506977</ele>
        <time>2022-12-27T12:08:32.703Z</time>
      </trkpt>
      <trkpt lat="44.6263" lon="-1.01123">
        <ele>55.407296</ele>
        <time>2022-12-27T12:08:35.701Z</time>
      </trkpt>
      <trkpt lat="44.62642" lon="-1.01123">
        <ele>55.303185</ele>
        <time>2022-12-27T12:08:38.711Z</time>
      </trkpt>
      <trkpt lat="44.62653" lon="-1.01123">
        <ele>55.194378</ele>
        <time>2022-12-27T12:08:41.698Z</time>
      </trkpt>
      <trkpt lat="44.62665" lon="-1.01122">
        <ele>55.08078</ele>
        <time>2022-12-27T12:08:44.693Z</time>
      </trkpt>
      <trkpt lat="44.62677" lon="-1.01122">
        <ele>54.973865</ele>
        <time>2022-12-27T12:08:47.694Z</time>
      </trkpt>
      <trkpt lat="44.62689" lon="-1.01121">
        <ele>54.862037</ele>
        <time>2022-12-27T12:08:50.694Z</time>
      </trkpt>
      <trkpt lat="44.62701" lon="-1.01121">
        <ele>54.749555</ele>
        <time>2022-12-27T12:08:53.720Z</time>
      </trkpt>
      <trkpt lat="44.62712" lon="-1.01122">
        <ele>54.645311</ele>
        <time>2022-12-27T12:08:56.727Z</time>
      </trkpt>
      <trkpt lat="44.62722" lon="-1.01123">
        <ele>54.551034</ele>
        <time>2022-12-27T12:08:59.716Z</time>
      </trkpt>
      <trkpt lat="44.62734" lon="-1.01122">
        <ele>54.441061</ele>
        <time>2022-12-27T12:09:02.714Z</time>
      </trkpt>
      <trkpt lat="44.62746" lon="-1.0112">
        <ele>54.331724</ele>
        <time>2022-12-27T12:09:05.713Z</time>
      </trkpt>
      <trkpt lat="44.62757" lon="-1.01116">
        <ele>54.227712</ele>
        <time>2022-12-27T12:09:08.699Z</time>
      </trkpt>
      <trkpt lat="44.62765" lon="-1.01108">
        <ele>54.135666</ele>
        <time>2022-12-27T12:09:11.692Z</time>
      </trkpt>
      <trkpt lat="44.62772" lon="-1.01099">
        <ele>54.045682</ele>
        <time>2022-12-27T12:09:15.701Z</time>
      </trkpt>
      <trkpt lat="44.62782" lon="-1.01091">
        <ele>54.057782</ele>
        <time>2022-12-27T12:09:20.700Z</time>
      </trkpt>
      <trkpt lat="44.62782" lon="-1.01076">
        <ele>54.102178</ele>
        <time>2022-12-27T12:09:25.696Z</time>
      </trkpt>
      <trkpt lat="44.62782" lon="-1.01061">
        <ele>54.142626</ele>
        <time>2022-12-27T12:09:38.718Z</time>
      </trkpt>
      <trkpt lat="44.62778" lon="-1.01048">
        <ele>54.183034</ele>
        <time>2022-12-27T12:09:43.702Z</time>
      </trkpt>
      <trkpt lat="44.62774" lon="-1.01036">
        <ele>54.220427</ele>
        <time>2022-12-27T12:09:46.699Z</time>
      </trkpt>
      <trkpt lat="44.62769" lon="-1.01022">
        <ele>54.265903</ele>
        <time>2022-12-27T12:09:49.701Z</time>
      </trkpt>
      <trkpt lat="44.62765" lon="-1.01007">
        <ele>54.311466</ele>
        <time>2022-12-27T12:09:52.700Z</time>
      </trkpt>
      <trkpt lat="44.62759" lon="-1.00992">
        <ele>54.359148</ele>
        <time>2022-12-27T12:09:55.707Z</time>
      </trkpt>
      <trkpt lat="44.62754" lon="-1.00977">
        <ele>54.405639</ele>
        <time>2022-12-27T12:09:58.698Z</time>
      </trkpt>
      <trkpt lat="44.62749" lon="-1.00962">
        <ele>54.453577</ele>
        <time>2022-12-27T12:10:01.698Z</time>
      </trkpt>
      <trkpt lat="44.62743" lon="-1.00945">
        <ele>54.505432</ele>
        <time>2022-12-27T12:10:04.716Z</time>
      </trkpt>
      <trkpt lat="44.62738" lon="-1.0093">
        <ele>54.554632</ele>
        <time>2022-12-27T12:10:07.712Z</time>
      </trkpt>
      <trkpt lat="44.62732" lon="-1.00914">
        <ele>54.60427</ele>
        <time>2022-12-27T12:10:10.711Z</time>
      </trkpt>
      <trkpt lat="44.62726" lon="-1.00898">
        <ele>54.654167</ele>
        <time>2022-12-27T12:10:13.710Z</time>
      </trkpt>
      <trkpt lat="44.62721" lon="-1.00881">
        <ele>54.707131</ele>
        <time>2022-12-27T12:10:16.708Z</time>
      </trkpt>
      <trkpt lat="44.62715" lon="-1.00865">
        <ele>54.733023</ele>
        <time>2022-12-27T12:10:19.699Z</time>
      </trkpt>
      <trkpt lat="44.6271" lon="-1.00848">
        <ele>54.723103</ele>
        <time>2022-12-27T12:10:22.702Z</time>
      </trkpt>
      <trkpt lat="44.62705" lon="-1.00829">
        <ele>54.712838</ele>
        <time>2022-12-27T12:10:25.695Z</time>
      </trkpt>
      <trkpt lat="44.62701" lon="-1.00818">
        <ele>54.70597</ele>
        <time>2022-12-27T12:10:27.711Z</time>
      </trkpt>
      <trkpt lat="44.62699" lon="-1.00805">
        <ele>54.698971</ele>
        <time>2022-12-27T12:10:29.708Z</time>
      </trkpt>
      <trkpt lat="44.62695" lon="-1.00793">
        <ele>54.691813</ele>
        <time>2022-12-27T12:10:31.694Z</time>
      </trkpt>
      <trkpt lat="44.6269" lon="-1.00776">
        <ele>54.682011</ele>
        <time>2022-12-27T12:10:34.695Z</time>
      </trkpt>
      <trkpt lat="44.62686" lon="-1.00762">
        <ele>54.674617</ele>
        <time>2022-12-27T12:10:36.715Z</time>
      </trkpt>
      <trkpt lat="44.62681" lon="-1.00743">
        <ele>54.663627</ele>
        <time>2022-12-27T12:10:39.708Z</time>
      </trkpt>
      <trkpt lat="44.62677" lon="-1.00728">
        <ele>54.655064</ele>
        <time>2022-12-27T12:10:41.704Z</time>
      </trkpt>
      <trkpt lat="44.62674" lon="-1.00715">
        <ele>54.647721</ele>
        <time>2022-12-27T12:10:43.711Z</time>
      </trkpt>
      <trkpt lat="44.6267" lon="-1.00703">
        <ele>54.640902</ele>
        <time>2022-12-27T12:10:45.720Z</time>
      </trkpt>
      <trkpt lat="44.62666" lon="-1.00691">
        <ele>54.633792</ele>
        <time>2022-12-27T12:10:47.711Z</time>
      </trkpt>
      <trkpt lat="44.62662" lon="-1.00679">
        <ele>54.626766</ele>
        <time>2022-12-27T12:10:49.722Z</time>
      </trkpt>
      <trkpt lat="44.62657" lon="-1.00662">
        <ele>54.617057</ele>
        <time>2022-12-27T12:10:52.712Z</time>
      </trkpt>
      <trkpt lat="44.62652" lon="-1.00646">
        <ele>54.60743</ele>
        <time>2022-12-27T12:10:55.718Z</time>
      </trkpt>
      <trkpt lat="44.62646" lon="-1.0063">
        <ele>54.61387</ele>
        <time>2022-12-27T12:10:58.701Z</time>
      </trkpt>
      <trkpt lat="44.62644" lon="-1.00617">
        <ele>54.629842</ele>
        <time>2022-12-27T12:11:00.713Z</time>
      </trkpt>
      <trkpt lat="44.6264" lon="-1.00605">
        <ele>54.645659</ele>
        <time>2022-12-27T12:11:02.716Z</time>
      </trkpt>
      <trkpt lat="44.62635" lon="-1.00588">
        <ele>54.667183</ele>
        <time>2022-12-27T12:11:05.716Z</time>
      </trkpt>
      <trkpt lat="44.6263" lon="-1.00572">
        <ele>54.688838</ele>
        <time>2022-12-27T12:11:08.719Z</time>
      </trkpt>
      <trkpt lat="44.62626" lon="-1.00559">
        <ele>54.705555</ele>
        <time>2022-12-27T12:11:10.719Z</time>
      </trkpt>
      <trkpt lat="44.62622" lon="-1.00545">
        <ele>54.722933</ele>
        <time>2022-12-27T12:11:12.725Z</time>
      </trkpt>
      <trkpt lat="44.62618" lon="-1.00532">
        <ele>54.739917</ele>
        <time>2022-12-27T12:11:14.714Z</time>
      </trkpt>
      <trkpt lat="44.62614" lon="-1.00518">
        <ele>54.757789</ele>
        <time>2022-12-27T12:11:16.715Z</time>
      </trkpt>
      <trkpt lat="44.62611" lon="-1.00505">
        <ele>54.774421</ele>
        <time>2022-12-27T12:11:18.711Z</time>
      </trkpt>
      <trkpt lat="44.62608" lon="-1.00493">
        <ele>54.789559</ele>
        <time>2022-12-27T12:11:20.713Z</time>
      </trkpt>
      <trkpt lat="44.62603" lon="-1.0048">
        <ele>54.806406</ele>
        <time>2022-12-27T12:11:22.715Z</time>
      </trkpt>
      <trkpt lat="44.626" lon="-1.00467">
        <ele>54.823279</ele>
        <time>2022-12-27T12:11:24.712Z</time>
      </trkpt>
      <trkpt lat="44.62596" lon="-1.00454">
        <ele>54.840364</ele>
        <time>2022-12-27T12:11:26.706Z</time>
      </trkpt>
      <trkpt lat="44.62593" lon="-1.00442">
        <ele>54.855647</ele>
        <time>2022-12-27T12:11:28.715Z</time>
      </trkpt>
      <trkpt lat="44.6259" lon="-1.00429">
        <ele>54.872114</ele>
        <time>2022-12-27T12:11:30.707Z</time>
      </trkpt>
      <trkpt lat="44.62587" lon="-1.00416">
        <ele>54.887581</ele>
        <time>2022-12-27T12:11:32.718Z</time>
      </trkpt>
      <trkpt lat="44.62584" lon="-1.00403">
        <ele>54.903717</ele>
        <time>2022-12-27T12:11:34.714Z</time>
      </trkpt>
      <trkpt lat="44.62583" lon="-1.0039">
        <ele>54.818835</ele>
        <time>2022-12-27T12:11:36.711Z</time>
      </trkpt>
      <trkpt lat="44.6258" lon="-1.00375">
        <ele>54.726744</ele>
        <time>2022-12-27T12:11:38.711Z</time>
      </trkpt>
      <trkpt lat="44.62579" lon="-1.00361">
        <ele>54.634717</ele>
        <time>2022-12-27T12:11:40.699Z</time>
      </trkpt>
      <trkpt lat="44.62579" lon="-1.00348">
        <ele>54.549391</ele>
        <time>2022-12-27T12:11:42.715Z</time>
      </trkpt>
      <trkpt lat="44.62579" lon="-1.00333">
        <ele>54.45386</ele>
        <time>2022-12-27T12:11:44.702Z</time>
      </trkpt>
      <trkpt lat="44.62579" lon="-1.00318">
        <ele>54.358852</ele>
        <time>2022-12-27T12:11:46.711Z</time>
      </trkpt>
      <trkpt lat="44.6258" lon="-1.00303">
        <ele>54.2676</ele>
        <time>2022-12-27T12:11:48.698Z</time>
      </trkpt>
      <trkpt lat="44.62582" lon="-1.00291">
        <ele>54.18641</ele>
        <time>2022-12-27T12:11:50.712Z</time>
      </trkpt>
      <trkpt lat="44.62583" lon="-1.00277">
        <ele>54.097469</ele>
        <time>2022-12-27T12:11:52.712Z</time>
      </trkpt>
      <trkpt lat="44.62585" lon="-1.00264">
        <ele>54.013322</ele>
        <time>2022-12-27T12:11:54.705Z</time>
      </trkpt>
      <trkpt lat="44.62585" lon="-1.0025">
        <ele>53.926447</ele>
        <time>2022-12-27T12:11:56.712Z</time>
      </trkpt>
      <trkpt lat="44.62586" lon="-1.00237">
        <ele>53.839115</ele>
        <time>2022-12-27T12:11:58.727Z</time>
      </trkpt>
      <trkpt lat="44.62588" lon="-1.00218">
        <ele>53.715165</ele>
        <time>2022-12-27T12:12:01.696Z</time>
      </trkpt>
      <trkpt lat="44.6259" lon="-1.00205">
        <ele>53.63317</ele>
        <time>2022-12-27T12:12:03.720Z</time>
      </trkpt>
      <trkpt lat="44.62592" lon="-1.0019">
        <ele>53.538786</ele>
        <time>2022-12-27T12:12:05.715Z</time>
      </trkpt>
      <trkpt lat="44.62594" lon="-1.00175">
        <ele>53.442587</ele>
        <time>2022-12-27T12:12:07.714Z</time>
      </trkpt>
      <trkpt lat="44.62595" lon="-1.0016">
        <ele>53.344852</ele>
        <time>2022-12-27T12:12:09.719Z</time>
      </trkpt>
      <trkpt lat="44.62596" lon="-1.00145">
        <ele>53.245801</ele>
        <time>2022-12-27T12:12:11.709Z</time>
      </trkpt>
      <trkpt lat="44.62597" lon="-1.00129">
        <ele>53.143236</ele>
        <time>2022-12-27T12:12:13.721Z</time>
      </trkpt>
      <trkpt lat="44.62598" lon="-1.00114">
        <ele>53.040584</ele>
        <time>2022-12-27T12:12:15.724Z</time>
      </trkpt>
      <trkpt lat="44.626" lon="-1.001">
        <ele>52.944402</ele>
        <time>2022-12-27T12:12:17.707Z</time>
      </trkpt>
      <trkpt lat="44.62603" lon="-1.00088">
        <ele>52.859963</ele>
        <time>2022-12-27T12:12:19.698Z</time>
      </trkpt>
      <trkpt lat="44.62609" lon="-1.00075">
        <ele>52.760659</ele>
        <time>2022-12-27T12:12:22.719Z</time>
      </trkpt>
      <trkpt lat="44.62613" lon="-1.00057">
        <ele>52.640201</ele>
        <time>2022-12-27T12:12:25.705Z</time>
      </trkpt>
      <trkpt lat="44.62616" lon="-1.00039">
        <ele>52.514688</ele>
        <time>2022-12-27T12:12:28.693Z</time>
      </trkpt>
      <trkpt lat="44.62621" lon="-1.00026">
        <ele>52.422962</ele>
        <time>2022-12-27T12:12:30.721Z</time>
      </trkpt>
      <trkpt lat="44.62629" lon="-1.00013">
        <ele>52.305029</ele>
        <time>2022-12-27T12:12:33.701Z</time>
      </trkpt>
      <trkpt lat="44.62637" lon="-0.99998">
        <ele>52.186889</ele>
        <time>2022-12-27T12:12:36.704Z</time>
      </trkpt>
      <trkpt lat="44.62641" lon="-0.99986">
        <ele>52.099565</ele>
        <time>2022-12-27T12:12:38.700Z</time>
      </trkpt>
      <trkpt lat="44.62644" lon="-0.99974">
        <ele>52.009131</ele>
        <time>2022-12-27T12:12:40.713Z</time>
      </trkpt>
      <trkpt lat="44.62649" lon="-0.99962">
        <ele>51.917959</ele>
        <time>2022-12-27T12:12:42.713Z</time>
      </trkpt>
      <trkpt lat="44.62654" lon="-0.9995">
        <ele>51.827696</ele>
        <time>2022-12-27T12:12:44.705Z</time>
      </trkpt>
      <trkpt lat="44.62656" lon="-0.99936">
        <ele>51.733854</ele>
        <time>2022-12-27T12:12:47.704Z</time>
      </trkpt>
      <trkpt lat="44.62656" lon="-0.9992">
        <ele>51.632474</ele>
        <time>2022-12-27T12:12:51.696Z</time>
      </trkpt>
      <trkpt lat="44.62654" lon="-0.99908">
        <ele>51.781775</ele>
        <time>2022-12-27T12:12:54.715Z</time>
      </trkpt>
      <trkpt lat="44.62648" lon="-0.99896">
        <ele>51.947854</ele>
        <time>2022-12-27T12:12:57.695Z</time>
      </trkpt>
      <trkpt lat="44.62639" lon="-0.99885">
        <ele>52.149528</ele>
        <time>2022-12-27T12:13:00.704Z</time>
      </trkpt>
      <trkpt lat="44.62634" lon="-0.9987">
        <ele>52.336841</ele>
        <time>2022-12-27T12:13:03.697Z</time>
      </trkpt>
      <trkpt lat="44.62632" lon="-0.99854">
        <ele>52.530225</ele>
        <time>2022-12-27T12:13:06.710Z</time>
      </trkpt>
      <trkpt lat="44.62631" lon="-0.99838">
        <ele>52.723916</ele>
        <time>2022-12-27T12:13:09.711Z</time>
      </trkpt>
      <trkpt lat="44.62632" lon="-0.99822">
        <ele>52.919574</ele>
        <time>2022-12-27T12:13:12.700Z</time>
      </trkpt>
      <trkpt lat="44.62633" lon="-0.99805">
        <ele>53.112084</ele>
        <time>2022-12-27T12:13:15.715Z</time>
      </trkpt>
      <trkpt lat="44.62634" lon="-0.99792">
        <ele>53.277441</ele>
        <time>2022-12-27T12:13:18.709Z</time>
      </trkpt>
      <trkpt lat="44.62635" lon="-0.99778">
        <ele>53.442958</ele>
        <time>2022-12-27T12:13:21.694Z</time>
      </trkpt>
      <trkpt lat="44.62636" lon="-0.99763">
        <ele>53.615716</ele>
        <time>2022-12-27T12:13:24.715Z</time>
      </trkpt>
      <trkpt lat="44.62636" lon="-0.99747">
        <ele>53.809006</ele>
        <time>2022-12-27T12:13:27.727Z</time>
      </trkpt>
      <trkpt lat="44.62638" lon="-0.9973">
        <ele>54.015688</ele>
        <time>2022-12-27T12:13:30.711Z</time>
      </trkpt>
      <trkpt lat="44.62639" lon="-0.99712">
        <ele>54.226182</ele>
        <time>2022-12-27T12:13:33.703Z</time>
      </trkpt>
      <trkpt lat="44.62641" lon="-0.99694">
        <ele>54.441766</ele>
        <time>2022-12-27T12:13:36.725Z</time>
      </trkpt>
      <trkpt lat="44.62643" lon="-0.99676">
        <ele>54.615562</ele>
        <time>2022-12-27T12:13:39.721Z</time>
      </trkpt>
      <trkpt lat="44.62644" lon="-0.99661">
        <ele>54.562892</ele>
        <time>2022-12-27T12:13:42.721Z</time>
      </trkpt>
      <trkpt lat="44.62646" lon="-0.99645">
        <ele>54.505741</ele>
        <time>2022-12-27T12:13:46.710Z</time>
      </trkpt>
      <trkpt lat="44.62648" lon="-0.99632">
        <ele>54.456978</ele>
        <time>2022-12-27T12:13:49.712Z</time>
      </trkpt>
      <trkpt lat="44.62649" lon="-0.99616">
        <ele>54.40234</ele>
        <time>2022-12-27T12:13:52.719Z</time>
      </trkpt>
      <trkpt lat="44.62651" lon="-0.996">
        <ele>54.345189</ele>
        <time>2022-12-27T12:13:55.715Z</time>
      </trkpt>
      <trkpt lat="44.62653" lon="-0.99584">
        <ele>54.28645</ele>
        <time>2022-12-27T12:13:58.716Z</time>
      </trkpt>
      <trkpt lat="44.62654" lon="-0.99567">
        <ele>54.226593</ele>
        <time>2022-12-27T12:14:01.702Z</time>
      </trkpt>
      <trkpt lat="44.62656" lon="-0.99548">
        <ele>54.159061</ele>
        <time>2022-12-27T12:14:04.719Z</time>
      </trkpt>
      <trkpt lat="44.62658" lon="-0.99529">
        <ele>54.091529</ele>
        <time>2022-12-27T12:14:07.691Z</time>
      </trkpt>
      <trkpt lat="44.62659" lon="-0.99516">
        <ele>54.046392</ele>
        <time>2022-12-27T12:14:09.700Z</time>
      </trkpt>
      <trkpt lat="44.6266" lon="-0.99503">
        <ele>53.999918</ele>
        <time>2022-12-27T12:14:11.707Z</time>
      </trkpt>
      <trkpt lat="44.62662" lon="-0.9949">
        <ele>53.952126</ele>
        <time>2022-12-27T12:14:13.724Z</time>
      </trkpt>
      <trkpt lat="44.62663" lon="-0.99471">
        <ele>53.884922</ele>
        <time>2022-12-27T12:14:16.693Z</time>
      </trkpt>
      <trkpt lat="44.62665" lon="-0.99453">
        <ele>53.82241</ele>
        <time>2022-12-27T12:14:19.693Z</time>
      </trkpt>
      <trkpt lat="44.62666" lon="-0.9944">
        <ele>53.77601</ele>
        <time>2022-12-27T12:14:22.717Z</time>
      </trkpt>
      <trkpt lat="44.62667" lon="-0.99421">
        <ele>53.749662</ele>
        <time>2022-12-27T12:14:46.713Z</time>
      </trkpt>
      <trkpt lat="44.62669" lon="-0.99405">
        <ele>53.78179</ele>
        <time>2022-12-27T12:14:49.714Z</time>
      </trkpt>
      <trkpt lat="44.6267" lon="-0.99388">
        <ele>53.817674</ele>
        <time>2022-12-27T12:14:52.722Z</time>
      </trkpt>
      <trkpt lat="44.62672" lon="-0.9937">
        <ele>53.856852</ele>
        <time>2022-12-27T12:14:55.711Z</time>
      </trkpt>
      <trkpt lat="44.62674" lon="-0.99356">
        <ele>53.88515</ele>
        <time>2022-12-27T12:14:57.718Z</time>
      </trkpt>
      <trkpt lat="44.62675" lon="-0.99342">
        <ele>53.914485</ele>
        <time>2022-12-27T12:14:59.715Z</time>
      </trkpt>
      <trkpt lat="44.62677" lon="-0.99328">
        <ele>53.943964</ele>
        <time>2022-12-27T12:15:01.701Z</time>
      </trkpt>
      <trkpt lat="44.62679" lon="-0.99314">
        <ele>53.974701</ele>
        <time>2022-12-27T12:15:03.722Z</time>
      </trkpt>
      <trkpt lat="44.62681" lon="-0.99301">
        <ele>54.003681</ele>
        <time>2022-12-27T12:15:05.713Z</time>
      </trkpt>
      <trkpt lat="44.62684" lon="-0.99286">
        <ele>54.034356</ele>
        <time>2022-12-27T12:15:07.722Z</time>
      </trkpt>
      <trkpt lat="44.62687" lon="-0.99271">
        <ele>54.066606</ele>
        <time>2022-12-27T12:15:09.719Z</time>
      </trkpt>
      <trkpt lat="44.62691" lon="-0.99257">
        <ele>54.099211</ele>
        <time>2022-12-27T12:15:11.693Z</time>
      </trkpt>
      <trkpt lat="44.62695" lon="-0.99244">
        <ele>54.128096</ele>
        <time>2022-12-27T12:15:13.719Z</time>
      </trkpt>
      <trkpt lat="44.62699" lon="-0.9923">
        <ele>54.160089</ele>
        <time>2022-12-27T12:15:15.714Z</time>
      </trkpt>
      <trkpt lat="44.62704" lon="-0.99216">
        <ele>54.192517</ele>
        <time>2022-12-27T12:15:17.726Z</time>
      </trkpt>
      <trkpt lat="44.62709" lon="-0.99204">
        <ele>54.221754</ele>
        <time>2022-12-27T12:15:19.710Z</time>
      </trkpt>
      <trkpt lat="44.62715" lon="-0.99192">
        <ele>54.250448</ele>
        <time>2022-12-27T12:15:21.696Z</time>
      </trkpt>
      <trkpt lat="44.6272" lon="-0.99181">
        <ele>54.253509</ele>
        <time>2022-12-27T12:15:23.695Z</time>
      </trkpt>
      <trkpt lat="44.62726" lon="-0.9917">
        <ele>54.243747</ele>
        <time>2022-12-27T12:15:25.697Z</time>
      </trkpt>
      <trkpt lat="44.62732" lon="-0.99158">
        <ele>54.233756</ele>
        <time>2022-12-27T12:15:27.696Z</time>
      </trkpt>
      <trkpt lat="44.62738" lon="-0.99145">
        <ele>54.223069</ele>
        <time>2022-12-27T12:15:29.698Z</time>
      </trkpt>
      <trkpt lat="44.62743" lon="-0.99133">
        <ele>54.21284</ele>
        <time>2022-12-27T12:15:31.697Z</time>
      </trkpt>
      <trkpt lat="44.6275" lon="-0.99121">
        <ele>54.201986</ele>
        <time>2022-12-27T12:15:33.720Z</time>
      </trkpt>
      <trkpt lat="44.62756" lon="-0.99107">
        <ele>54.190771</ele>
        <time>2022-12-27T12:15:35.718Z</time>
      </trkpt>
      <trkpt lat="44.62762" lon="-0.99094">
        <ele>54.179632</ele>
        <time>2022-12-27T12:15:37.713Z</time>
      </trkpt>
      <trkpt lat="44.62768" lon="-0.99082">
        <ele>54.16895</ele>
        <time>2022-12-27T12:15:39.716Z</time>
      </trkpt>
      <trkpt lat="44.62774" lon="-0.9907">
        <ele>54.158833</ele>
        <time>2022-12-27T12:15:41.696Z</time>
      </trkpt>
      <trkpt lat="44.62779" lon="-0.99058">
        <ele>54.149238</ele>
        <time>2022-12-27T12:15:43.713Z</time>
      </trkpt>
      <trkpt lat="44.62785" lon="-0.99047">
        <ele>54.139708</ele>
        <time>2022-12-27T12:15:45.711Z</time>
      </trkpt>
      <trkpt lat="44.62789" lon="-0.99036">
        <ele>54.130707</ele>
        <time>2022-12-27T12:15:47.704Z</time>
      </trkpt>
      <trkpt lat="44.62794" lon="-0.99024">
        <ele>54.120928</ele>
        <time>2022-12-27T12:15:49.715Z</time>
      </trkpt>
      <trkpt lat="44.628" lon="-0.99011">
        <ele>54.110392</ele>
        <time>2022-12-27T12:15:51.694Z</time>
      </trkpt>
      <trkpt lat="44.62805" lon="-0.98999">
        <ele>54.100544</ele>
        <time>2022-12-27T12:15:53.702Z</time>
      </trkpt>
      <trkpt lat="44.6281" lon="-0.98987">
        <ele>54.090532</ele>
        <time>2022-12-27T12:15:55.722Z</time>
      </trkpt>
      <trkpt lat="44.62816" lon="-0.98976">
        <ele>54.076312</ele>
        <time>2022-12-27T12:15:57.722Z</time>
      </trkpt>
      <trkpt lat="44.62821" lon="-0.98963">
        <ele>54.035404</ele>
        <time>2022-12-27T12:15:59.703Z</time>
      </trkpt>
      <trkpt lat="44.62826" lon="-0.98951">
        <ele>53.995835</ele>
        <time>2022-12-27T12:16:01.694Z</time>
      </trkpt>
      <trkpt lat="44.62832" lon="-0.98939">
        <ele>53.954905</ele>
        <time>2022-12-27T12:16:03.691Z</time>
      </trkpt>
      <trkpt lat="44.62838" lon="-0.98927">
        <ele>53.914867</ele>
        <time>2022-12-27T12:16:05.696Z</time>
      </trkpt>
      <trkpt lat="44.62843" lon="-0.98915">
        <ele>53.875275</ele>
        <time>2022-12-27T12:16:07.710Z</time>
      </trkpt>
      <trkpt lat="44.62849" lon="-0.98902">
        <ele>53.832514</ele>
        <time>2022-12-27T12:16:09.704Z</time>
      </trkpt>
      <trkpt lat="44.62854" lon="-0.98888">
        <ele>53.790441</ele>
        <time>2022-12-27T12:16:11.697Z</time>
      </trkpt>
      <trkpt lat="44.6286" lon="-0.98876">
        <ele>53.748099</ele>
        <time>2022-12-27T12:16:13.726Z</time>
      </trkpt>
      <trkpt lat="44.62866" lon="-0.98863">
        <ele>53.704476</ele>
        <time>2022-12-27T12:16:15.717Z</time>
      </trkpt>
      <trkpt lat="44.62871" lon="-0.9885">
        <ele>53.664436</ele>
        <time>2022-12-27T12:16:17.702Z</time>
      </trkpt>
      <trkpt lat="44.62878" lon="-0.98838">
        <ele>53.622177</ele>
        <time>2022-12-27T12:16:19.700Z</time>
      </trkpt>
      <trkpt lat="44.62884" lon="-0.98824">
        <ele>53.576029</ele>
        <time>2022-12-27T12:16:21.695Z</time>
      </trkpt>
      <trkpt lat="44.6289" lon="-0.98812">
        <ele>53.533988</ele>
        <time>2022-12-27T12:16:23.700Z</time>
      </trkpt>
      <trkpt lat="44.62896" lon="-0.988">
        <ele>53.494533</ele>
        <time>2022-12-27T12:16:25.725Z</time>
      </trkpt>
      <trkpt lat="44.629" lon="-0.98788">
        <ele>53.456337</ele>
        <time>2022-12-27T12:16:27.699Z</time>
      </trkpt>
      <trkpt lat="44.62905" lon="-0.98776">
        <ele>53.418077</ele>
        <time>2022-12-27T12:16:29.692Z</time>
      </trkpt>
      <trkpt lat="44.62911" lon="-0.98765">
        <ele>53.380132</ele>
        <time>2022-12-27T12:16:31.694Z</time>
      </trkpt>
      <trkpt lat="44.62916" lon="-0.98753">
        <ele>53.370932</ele>
        <time>2022-12-27T12:16:33.720Z</time>
      </trkpt>
      <trkpt lat="44.62921" lon="-0.98742">
        <ele>53.364393</ele>
        <time>2022-12-27T12:16:35.704Z</time>
      </trkpt>
      <trkpt lat="44.62928" lon="-0.98726">
        <ele>53.354887</ele>
        <time>2022-12-27T12:16:38.701Z</time>
      </trkpt>
      <trkpt lat="44.62933" lon="-0.98714">
        <ele>53.347998</ele>
        <time>2022-12-27T12:16:40.714Z</time>
      </trkpt>
      <trkpt lat="44.62938" lon="-0.98704">
        <ele>53.341536</ele>
        <time>2022-12-27T12:16:42.723Z</time>
      </trkpt>
      <trkpt lat="44.62943" lon="-0.98692">
        <ele>53.334777</ele>
        <time>2022-12-27T12:16:44.703Z</time>
      </trkpt>
      <trkpt lat="44.6295" lon="-0.98678">
        <ele>53.326233</ele>
        <time>2022-12-27T12:16:47.713Z</time>
      </trkpt>
      <trkpt lat="44.62955" lon="-0.98666">
        <ele>53.31907</ele>
        <time>2022-12-27T12:16:50.697Z</time>
      </trkpt>
      <trkpt lat="44.6296" lon="-0.98655">
        <ele>53.312362</ele>
        <time>2022-12-27T12:16:53.697Z</time>
      </trkpt>
      <trkpt lat="44.62965" lon="-0.98642">
        <ele>53.305194</ele>
        <time>2022-12-27T12:16:56.699Z</time>
      </trkpt>
      <trkpt lat="44.62971" lon="-0.98631">
        <ele>53.298082</ele>
        <time>2022-12-27T12:16:59.711Z</time>
      </trkpt>
      <trkpt lat="44.62977" lon="-0.98617">
        <ele>53.289842</ele>
        <time>2022-12-27T12:17:02.716Z</time>
      </trkpt>
      <trkpt lat="44.62984" lon="-0.98601">
        <ele>53.280629</ele>
        <time>2022-12-27T12:17:05.694Z</time>
      </trkpt>
      <trkpt lat="44.6299" lon="-0.9859">
        <ele>53.273682</ele>
        <time>2022-12-27T12:17:07.721Z</time>
      </trkpt>
      <trkpt lat="44.62995" lon="-0.98578">
        <ele>53.266923</ele>
        <time>2022-12-27T12:17:09.726Z</time>
      </trkpt>
      <trkpt lat="44.63001" lon="-0.98567">
        <ele>53.260178</ele>
        <time>2022-12-27T12:17:11.703Z</time>
      </trkpt>
      <trkpt lat="44.63006" lon="-0.98555">
        <ele>53.252765</ele>
        <time>2022-12-27T12:17:13.725Z</time>
      </trkpt>
      <trkpt lat="44.63012" lon="-0.98542">
        <ele>53.225602</ele>
        <time>2022-12-27T12:17:15.725Z</time>
      </trkpt>
      <trkpt lat="44.63018" lon="-0.9853">
        <ele>53.188776</ele>
        <time>2022-12-27T12:17:17.722Z</time>
      </trkpt>
      <trkpt lat="44.63024" lon="-0.98517">
        <ele>53.152138</ele>
        <time>2022-12-27T12:17:19.713Z</time>
      </trkpt>
      <trkpt lat="44.63031" lon="-0.98504">
        <ele>53.115507</ele>
        <time>2022-12-27T12:17:21.695Z</time>
      </trkpt>
      <trkpt lat="44.63036" lon="-0.98491">
        <ele>53.080381</ele>
        <time>2022-12-27T12:17:23.724Z</time>
      </trkpt>
      <trkpt lat="44.63041" lon="-0.98479">
        <ele>53.045607</ele>
        <time>2022-12-27T12:17:25.725Z</time>
      </trkpt>
      <trkpt lat="44.63046" lon="-0.98467">
        <ele>53.013516</ele>
        <time>2022-12-27T12:17:27.712Z</time>
      </trkpt>
      <trkpt lat="44.63052" lon="-0.98456">
        <ele>52.981512</ele>
        <time>2022-12-27T12:17:29.714Z</time>
      </trkpt>
      <trkpt lat="44.63057" lon="-0.98445">
        <ele>52.950645</ele>
        <time>2022-12-27T12:17:31.695Z</time>
      </trkpt>
      <trkpt lat="44.63062" lon="-0.98434">
        <ele>52.920158</ele>
        <time>2022-12-27T12:17:33.714Z</time>
      </trkpt>
      <trkpt lat="44.63067" lon="-0.98422">
        <ele>52.888202</ele>
        <time>2022-12-27T12:17:35.698Z</time>
      </trkpt>
      <trkpt lat="44.63072" lon="-0.98411">
        <ele>52.854825</ele>
        <time>2022-12-27T12:17:37.715Z</time>
      </trkpt>
      <trkpt lat="44.63078" lon="-0.98398">
        <ele>52.820452</ele>
        <time>2022-12-27T12:17:39.697Z</time>
      </trkpt>
      <trkpt lat="44.63083" lon="-0.98386">
        <ele>52.785701</ele>
        <time>2022-12-27T12:17:41.690Z</time>
      </trkpt>
      <trkpt lat="44.63089" lon="-0.98374">
        <ele>52.751328</ele>
        <time>2022-12-27T12:17:43.697Z</time>
      </trkpt>
      <trkpt lat="44.63094" lon="-0.98361">
        <ele>52.717102</ele>
        <time>2022-12-27T12:17:45.698Z</time>
      </trkpt>
      <trkpt lat="44.63099" lon="-0.98349">
        <ele>52.68426</ele>
        <time>2022-12-27T12:17:47.699Z</time>
      </trkpt>
      <trkpt lat="44.63105" lon="-0.98339">
        <ele>52.654185</ele>
        <time>2022-12-27T12:17:49.699Z</time>
      </trkpt>
      <trkpt lat="44.63111" lon="-0.9833">
        <ele>52.726262</ele>
        <time>2022-12-27T12:17:51.697Z</time>
      </trkpt>
      <trkpt lat="44.63118" lon="-0.98315">
        <ele>52.831035</ele>
        <time>2022-12-27T12:17:54.707Z</time>
      </trkpt>
      <trkpt lat="44.63121" lon="-0.983">
        <ele>52.928537</ele>
        <time>2022-12-27T12:17:57.726Z</time>
      </trkpt>
      <trkpt lat="44.63127" lon="-0.98285">
        <ele>53.031236</ele>
        <time>2022-12-27T12:18:00.690Z</time>
      </trkpt>
      <trkpt lat="44.63133" lon="-0.9827">
        <ele>53.136886</ele>
        <time>2022-12-27T12:18:03.724Z</time>
      </trkpt>
      <trkpt lat="44.6314" lon="-0.98255">
        <ele>53.246205</ele>
        <time>2022-12-27T12:18:06.727Z</time>
      </trkpt>
      <trkpt lat="44.63146" lon="-0.98239">
        <ele>53.358107</ele>
        <time>2022-12-27T12:18:09.705Z</time>
      </trkpt>
      <trkpt lat="44.63151" lon="-0.98227">
        <ele>53.440902</ele>
        <time>2022-12-27T12:18:11.690Z</time>
      </trkpt>
      <trkpt lat="44.63159" lon="-0.98211">
        <ele>53.558131</ele>
        <time>2022-12-27T12:18:14.711Z</time>
      </trkpt>
      <trkpt lat="44.63165" lon="-0.98194">
        <ele>53.675159</ele>
        <time>2022-12-27T12:18:17.718Z</time>
      </trkpt>
      <trkpt lat="44.63171" lon="-0.98183">
        <ele>53.755229</ele>
        <time>2022-12-27T12:18:19.715Z</time>
      </trkpt>
      <trkpt lat="44.63177" lon="-0.98167">
        <ele>53.865736</ele>
        <time>2022-12-27T12:18:22.710Z</time>
      </trkpt>
      <trkpt lat="44.63184" lon="-0.98153">
        <ele>53.968484</ele>
        <time>2022-12-27T12:18:25.713Z</time>
      </trkpt>
      <trkpt lat="44.63191" lon="-0.98138">
        <ele>54.078611</ele>
        <time>2022-12-27T12:18:28.719Z</time>
      </trkpt>
      <trkpt lat="44.63198" lon="-0.98123">
        <ele>54.18636</ele>
        <time>2022-12-27T12:18:31.695Z</time>
      </trkpt>
      <trkpt lat="44.63205" lon="-0.98109">
        <ele>54.252554</ele>
        <time>2022-12-27T12:18:34.766Z</time>
      </trkpt>
      <trkpt lat="44.63212" lon="-0.98095">
        <ele>54.32104</ele>
        <time>2022-12-27T12:18:37.707Z</time>
      </trkpt>
      <trkpt lat="44.63218" lon="-0.98081">
        <ele>54.385654</ele>
        <time>2022-12-27T12:18:40.704Z</time>
      </trkpt>
      <trkpt lat="44.63224" lon="-0.98068">
        <ele>54.44752</ele>
        <time>2022-12-27T12:18:43.694Z</time>
      </trkpt>
      <trkpt lat="44.63231" lon="-0.98055">
        <ele>54.511457</ele>
        <time>2022-12-27T12:18:46.718Z</time>
      </trkpt>
      <trkpt lat="44.63237" lon="-0.98041">
        <ele>54.579034</ele>
        <time>2022-12-27T12:18:49.720Z</time>
      </trkpt>
      <trkpt lat="44.63243" lon="-0.98026">
        <ele>54.647092</ele>
        <time>2022-12-27T12:18:52.720Z</time>
      </trkpt>
      <trkpt lat="44.6325" lon="-0.98011">
        <ele>54.716115</ele>
        <time>2022-12-27T12:18:55.724Z</time>
      </trkpt>
      <trkpt lat="44.63256" lon="-0.97997">
        <ele>54.780708</ele>
        <time>2022-12-27T12:18:58.717Z</time>
      </trkpt>
      <trkpt lat="44.63263" lon="-0.97987">
        <ele>54.836524</ele>
        <time>2022-12-27T12:19:01.697Z</time>
      </trkpt>
      <trkpt lat="44.63272" lon="-0.97977">
        <ele>54.898734</ele>
        <time>2022-12-27T12:19:05.695Z</time>
      </trkpt>
      <trkpt lat="44.63278" lon="-0.97966">
        <ele>54.957631</ele>
        <time>2022-12-27T12:19:10.694Z</time>
      </trkpt>
      <trkpt lat="44.63279" lon="-0.97951">
        <ele>55.016206</ele>
        <time>2022-12-27T12:19:15.710Z</time>
      </trkpt>
      <trkpt lat="44.63282" lon="-0.97938">
        <ele>55.069291</ele>
        <time>2022-12-27T12:19:19.721Z</time>
      </trkpt>
      <trkpt lat="44.63287" lon="-0.97927">
        <ele>55.121016</ele>
        <time>2022-12-27T12:19:22.695Z</time>
      </trkpt>
      <trkpt lat="44.63293" lon="-0.97914">
        <ele>55.182087</ele>
        <time>2022-12-27T12:19:25.714Z</time>
      </trkpt>
      <trkpt lat="44.63299" lon="-0.979">
        <ele>55.25698</ele>
        <time>2022-12-27T12:19:28.714Z</time>
      </trkpt>
      <trkpt lat="44.63305" lon="-0.97887">
        <ele>55.332847</ele>
        <time>2022-12-27T12:19:31.696Z</time>
      </trkpt>
      <trkpt lat="44.63311" lon="-0.97872">
        <ele>55.410981</ele>
        <time>2022-12-27T12:19:34.715Z</time>
      </trkpt>
      <trkpt lat="44.63317" lon="-0.97858">
        <ele>55.488659</ele>
        <time>2022-12-27T12:19:37.724Z</time>
      </trkpt>
      <trkpt lat="44.63324" lon="-0.97844">
        <ele>55.567555</ele>
        <time>2022-12-27T12:19:40.711Z</time>
      </trkpt>
      <trkpt lat="44.63331" lon="-0.9783">
        <ele>55.647169</ele>
        <time>2022-12-27T12:19:43.724Z</time>
      </trkpt>
      <trkpt lat="44.63337" lon="-0.97816">
        <ele>55.727925</ele>
        <time>2022-12-27T12:19:46.730Z</time>
      </trkpt>
      <trkpt lat="44.63344" lon="-0.97801">
        <ele>55.80811</ele>
        <time>2022-12-27T12:19:49.726Z</time>
      </trkpt>
      <trkpt lat="44.6335" lon="-0.97786">
        <ele>55.890974</ele>
        <time>2022-12-27T12:19:52.722Z</time>
      </trkpt>
      <trkpt lat="44.63356" lon="-0.97772">
        <ele>55.967631</ele>
        <time>2022-12-27T12:19:55.722Z</time>
      </trkpt>
      <trkpt lat="44.63363" lon="-0.97758">
        <ele>56.043891</ele>
        <time>2022-12-27T12:19:58.715Z</time>
      </trkpt>
      <trkpt lat="44.63369" lon="-0.97743">
        <ele>56.124816</ele>
        <time>2022-12-27T12:20:01.695Z</time>
      </trkpt>
      <trkpt lat="44.63376" lon="-0.97728">
        <ele>56.209505</ele>
        <time>2022-12-27T12:20:04.723Z</time>
      </trkpt>
      <trkpt lat="44.63382" lon="-0.97714">
        <ele>56.285765</ele>
        <time>2022-12-27T12:20:07.714Z</time>
      </trkpt>
      <trkpt lat="44.63388" lon="-0.97701">
        <ele>56.35931</ele>
        <time>2022-12-27T12:20:10.722Z</time>
      </trkpt>
      <trkpt lat="44.63395" lon="-0.97687">
        <ele>56.444657</ele>
        <time>2022-12-27T12:20:13.716Z</time>
      </trkpt>
      <trkpt lat="44.63402" lon="-0.97672">
        <ele>56.53446</ele>
        <time>2022-12-27T12:20:16.719Z</time>
      </trkpt>
      <trkpt lat="44.63408" lon="-0.97657">
        <ele>56.625922</ele>
        <time>2022-12-27T12:20:19.706Z</time>
      </trkpt>
      <trkpt lat="44.63415" lon="-0.97641">
        <ele>56.719513</ele>
        <time>2022-12-27T12:20:22.714Z</time>
      </trkpt>
      <trkpt lat="44.63422" lon="-0.97626">
        <ele>56.810692</ele>
        <time>2022-12-27T12:20:25.702Z</time>
      </trkpt>
      <trkpt lat="44.63427" lon="-0.97612">
        <ele>56.89557</ele>
        <time>2022-12-27T12:20:28.724Z</time>
      </trkpt>
      <trkpt lat="44.63433" lon="-0.97599">
        <ele>56.972184</ele>
        <time>2022-12-27T12:20:31.704Z</time>
      </trkpt>
      <trkpt lat="44.63439" lon="-0.97586">
        <ele>57.049937</ele>
        <time>2022-12-27T12:20:34.715Z</time>
      </trkpt>
      <trkpt lat="44.63445" lon="-0.97573">
        <ele>57.13348</ele>
        <time>2022-12-27T12:20:37.726Z</time>
      </trkpt>
      <trkpt lat="44.63451" lon="-0.97559">
        <ele>57.213031</ele>
        <time>2022-12-27T12:20:40.706Z</time>
      </trkpt>
      <trkpt lat="44.63456" lon="-0.97547">
        <ele>57.286167</ele>
        <time>2022-12-27T12:20:43.698Z</time>
      </trkpt>
      <trkpt lat="44.63462" lon="-0.97536">
        <ele>57.358015</ele>
        <time>2022-12-27T12:20:46.699Z</time>
      </trkpt>
      <trkpt lat="44.63468" lon="-0.97526">
        <ele>57.42396</ele>
        <time>2022-12-27T12:20:49.724Z</time>
      </trkpt>
      <trkpt lat="44.63478" lon="-0.97521">
        <ele>57.501769</ele>
        <time>2022-12-27T12:20:53.694Z</time>
      </trkpt>
      <trkpt lat="44.63485" lon="-0.9751">
        <ele>57.574513</ele>
        <time>2022-12-27T12:20:57.699Z</time>
      </trkpt>
      <trkpt lat="44.6349" lon="-0.97498">
        <ele>57.648534</ele>
        <time>2022-12-27T12:21:01.697Z</time>
      </trkpt>
      <trkpt lat="44.6349" lon="-0.97483">
        <ele>57.714513</ele>
        <time>2022-12-27T12:21:05.725Z</time>
      </trkpt>
      <trkpt lat="44.63493" lon="-0.97468">
        <ele>57.787034</ele>
        <time>2022-12-27T12:21:09.723Z</time>
      </trkpt>
      <trkpt lat="44.63499" lon="-0.97455">
        <ele>57.852196</ele>
        <time>2022-12-27T12:21:12.709Z</time>
      </trkpt>
      <trkpt lat="44.63505" lon="-0.97442">
        <ele>57.921713</ele>
        <time>2022-12-27T12:21:15.716Z</time>
      </trkpt>
      <trkpt lat="44.63511" lon="-0.9743">
        <ele>57.986754</ele>
        <time>2022-12-27T12:21:18.716Z</time>
      </trkpt>
      <trkpt lat="44.63516" lon="-0.9742">
        <ele>58.047095</ele>
        <time>2022-12-27T12:21:21.697Z</time>
      </trkpt>
      <trkpt lat="44.63521" lon="-0.97407">
        <ele>58.110267</ele>
        <time>2022-12-27T12:21:25.719Z</time>
      </trkpt>
      <trkpt lat="44.63526" lon="-0.97395">
        <ele>58.169107</ele>
        <time>2022-12-27T12:21:31.695Z</time>
      </trkpt>
      <trkpt lat="44.63533" lon="-0.97384">
        <ele>58.235667</ele>
        <time>2022-12-27T12:21:36.723Z</time>
      </trkpt>
      <trkpt lat="44.63537" lon="-0.97372">
        <ele>58.298661</ele>
        <time>2022-12-27T12:21:42.706Z</time>
      </trkpt>
      <trkpt lat="44.63532" lon="-0.97359">
        <ele>58.366108</ele>
        <time>2022-12-27T12:21:48.697Z</time>
      </trkpt>
      <trkpt lat="44.63536" lon="-0.97345">
        <ele>58.431933</ele>
        <time>2022-12-27T12:21:53.699Z</time>
      </trkpt>
      <trkpt lat="44.63543" lon="-0.97331">
        <ele>58.507544</ele>
        <time>2022-12-27T12:21:57.715Z</time>
      </trkpt>
      <trkpt lat="44.63549" lon="-0.97318">
        <ele>58.579615</ele>
        <time>2022-12-27T12:22:01.700Z</time>
      </trkpt>
      <trkpt lat="44.63555" lon="-0.97304">
        <ele>58.648473</ele>
        <time>2022-12-27T12:22:05.701Z</time>
      </trkpt>
      <trkpt lat="44.6356" lon="-0.97293">
        <ele>58.710103</ele>
        <time>2022-12-27T12:22:09.713Z</time>
      </trkpt>
      <trkpt lat="44.63565" lon="-0.97281">
        <ele>58.771955</ele>
        <time>2022-12-27T12:22:12.722Z</time>
      </trkpt>
      <trkpt lat="44.63571" lon="-0.97268">
        <ele>58.850925</ele>
        <time>2022-12-27T12:22:15.718Z</time>
      </trkpt>
      <trkpt lat="44.63577" lon="-0.97256">
        <ele>58.93007</ele>
        <time>2022-12-27T12:22:18.717Z</time>
      </trkpt>
      <trkpt lat="44.63583" lon="-0.97243">
        <ele>59.013278</ele>
        <time>2022-12-27T12:22:23.703Z</time>
      </trkpt>
      <trkpt lat="44.63588" lon="-0.97231">
        <ele>59.092056</ele>
        <time>2022-12-27T12:22:27.720Z</time>
      </trkpt>
      <trkpt lat="44.63593" lon="-0.9722">
        <ele>59.160707</ele>
        <time>2022-12-27T12:22:30.711Z</time>
      </trkpt>
      <trkpt lat="44.63599" lon="-0.97207">
        <ele>59.245986</ele>
        <time>2022-12-27T12:22:34.714Z</time>
      </trkpt>
      <trkpt lat="44.63605" lon="-0.97196">
        <ele>59.318456</ele>
        <time>2022-12-27T12:22:37.728Z</time>
      </trkpt>
      <trkpt lat="44.6361" lon="-0.97182">
        <ele>59.401966</ele>
        <time>2022-12-27T12:22:41.702Z</time>
      </trkpt>
      <trkpt lat="44.63615" lon="-0.97171">
        <ele>59.474929</ele>
        <time>2022-12-27T12:22:44.713Z</time>
      </trkpt>
      <trkpt lat="44.63621" lon="-0.97157">
        <ele>59.561704</ele>
        <time>2022-12-27T12:22:48.717Z</time>
      </trkpt>
      <trkpt lat="44.63627" lon="-0.97144">
        <ele>59.647926</ele>
        <time>2022-12-27T12:22:52.721Z</time>
      </trkpt>
      <trkpt lat="44.63631" lon="-0.97132">
        <ele>59.718148</ele>
        <time>2022-12-27T12:22:55.713Z</time>
      </trkpt>
      <trkpt lat="44.63635" lon="-0.97119">
        <ele>59.797341</ele>
        <time>2022-12-27T12:22:59.701Z</time>
      </trkpt>
      <trkpt lat="44.63635" lon="-0.97115">
        <ele>59.817948</ele>
        <time>2022-12-27T12:23:07.845Z</time>
      </trkpt>
      <trkpt lat="44.63644" lon="-0.97108">
        <ele>59.894137</ele>
        <time>2022-12-27T12:30:02.711Z</time>
      </trkpt>
      <trkpt lat="44.63647" lon="-0.97095">
        <ele>59.974155</ele>
        <time>2022-12-27T12:30:06.714Z</time>
      </trkpt>
      <trkpt lat="44.63655" lon="-0.97084">
        <ele>60.053096</ele>
        <time>2022-12-27T12:30:11.702Z</time>
      </trkpt>
      <trkpt lat="44.6366" lon="-0.97073">
        <ele>60.126891</ele>
        <time>2022-12-27T12:30:15.700Z</time>
      </trkpt>
      <trkpt lat="44.63665" lon="-0.9706">
        <ele>60.198796</ele>
        <time>2022-12-27T12:30:19.720Z</time>
      </trkpt>
      <trkpt lat="44.63671" lon="-0.97048">
        <ele>60.265146</ele>
        <time>2022-12-27T12:30:23.709Z</time>
      </trkpt>
      <trkpt lat="44.63677" lon="-0.97033">
        <ele>60.340467</ele>
        <time>2022-12-27T12:30:27.727Z</time>
      </trkpt>
      <trkpt lat="44.63682" lon="-0.97022">
        <ele>60.400921</ele>
        <time>2022-12-27T12:30:30.714Z</time>
      </trkpt>
      <trkpt lat="44.63688" lon="-0.97011">
        <ele>60.461</ele>
        <time>2022-12-27T12:30:33.722Z</time>
      </trkpt>
      <trkpt lat="44.63692" lon="-0.96999">
        <ele>60.519498</ele>
        <time>2022-12-27T12:30:36.723Z</time>
      </trkpt>
      <trkpt lat="44.63697" lon="-0.96988">
        <ele>60.578647</ele>
        <time>2022-12-27T12:30:39.718Z</time>
      </trkpt>
      <trkpt lat="44.63702" lon="-0.96977">
        <ele>60.640227</ele>
        <time>2022-12-27T12:30:42.717Z</time>
      </trkpt>
      <trkpt lat="44.63707" lon="-0.96965">
        <ele>60.701056</ele>
        <time>2022-12-27T12:30:45.729Z</time>
      </trkpt>
      <trkpt lat="44.63713" lon="-0.96951">
        <ele>60.774455</ele>
        <time>2022-12-27T12:30:49.712Z</time>
      </trkpt>
      <trkpt lat="44.6372" lon="-0.96938">
        <ele>60.846233</ele>
        <time>2022-12-27T12:30:53.718Z</time>
      </trkpt>
      <trkpt lat="44.63725" lon="-0.96928">
        <ele>60.903753</ele>
        <time>2022-12-27T12:30:56.716Z</time>
      </trkpt>
      <trkpt lat="44.6373" lon="-0.96917">
        <ele>60.963941</ele>
        <time>2022-12-27T12:30:59.731Z</time>
      </trkpt>
      <trkpt lat="44.63735" lon="-0.96906">
        <ele>61.022269</ele>
        <time>2022-12-27T12:31:02.705Z</time>
      </trkpt>
      <trkpt lat="44.6374" lon="-0.96894">
        <ele>61.082075</ele>
        <time>2022-12-27T12:31:05.730Z</time>
      </trkpt>
      <trkpt lat="44.63745" lon="-0.96883">
        <ele>61.142557</ele>
        <time>2022-12-27T12:31:08.722Z</time>
      </trkpt>
      <trkpt lat="44.63751" lon="-0.9687">
        <ele>61.21305</ele>
        <time>2022-12-27T12:31:12.730Z</time>
      </trkpt>
      <trkpt lat="44.63756" lon="-0.96856">
        <ele>61.281997</ele>
        <time>2022-12-27T12:31:16.718Z</time>
      </trkpt>
      <trkpt lat="44.63753" lon="-0.96842">
        <ele>61.164613</ele>
        <time>2022-12-27T12:31:20.716Z</time>
      </trkpt>
      <trkpt lat="44.63753" lon="-0.96829">
        <ele>61.000187</ele>
        <time>2022-12-27T12:31:24.729Z</time>
      </trkpt>
      <trkpt lat="44.63757" lon="-0.96817">
        <ele>60.845466</ele>
        <time>2022-12-27T12:31:28.717Z</time>
      </trkpt>
      <trkpt lat="44.63764" lon="-0.96806">
        <ele>60.669317</ele>
        <time>2022-12-27T12:31:34.716Z</time>
      </trkpt>
      <trkpt lat="44.63763" lon="-0.96792">
        <ele>60.49786</ele>
        <time>2022-12-27T12:31:39.722Z</time>
      </trkpt>
      <trkpt lat="44.63756" lon="-0.96779">
        <ele>60.305027</ele>
        <time>2022-12-27T12:31:43.720Z</time>
      </trkpt>
      <trkpt lat="44.63749" lon="-0.96767">
        <ele>60.10651</ele>
        <time>2022-12-27T12:31:47.724Z</time>
      </trkpt>
      <trkpt lat="44.63742" lon="-0.96754">
        <ele>59.9135</ele>
        <time>2022-12-27T12:31:51.705Z</time>
      </trkpt>
      <trkpt lat="44.63736" lon="-0.96743">
        <ele>59.73538</ele>
        <time>2022-12-27T12:31:55.716Z</time>
      </trkpt>
      <trkpt lat="44.6373" lon="-0.96717">
        <ele>59.41496</ele>
        <time>2022-12-27T12:32:56.707Z</time>
      </trkpt>
      <trkpt lat="44.63722" lon="-0.96707">
        <ele>59.231216</ele>
        <time>2022-12-27T12:33:00.725Z</time>
      </trkpt>
      <trkpt lat="44.63715" lon="-0.96696">
        <ele>59.059124</ele>
        <time>2022-12-27T12:33:04.707Z</time>
      </trkpt>
      <trkpt lat="44.6371" lon="-0.96685">
        <ele>58.900622</ele>
        <time>2022-12-27T12:33:08.719Z</time>
      </trkpt>
      <trkpt lat="44.63704" lon="-0.96674">
        <ele>58.73519</ele>
        <time>2022-12-27T12:33:14.713Z</time>
      </trkpt>
      <trkpt lat="44.63696" lon="-0.96668">
        <ele>58.582444</ele>
        <time>2022-12-27T12:33:31.696Z</time>
      </trkpt>
      <trkpt lat="44.63691" lon="-0.96656">
        <ele>58.404339</ele>
        <time>2022-12-27T12:33:34.713Z</time>
      </trkpt>
      <trkpt lat="44.63682" lon="-0.96644">
        <ele>58.264789</ele>
        <time>2022-12-27T12:33:37.705Z</time>
      </trkpt>
      <trkpt lat="44.63675" lon="-0.96633">
        <ele>58.335998</ele>
        <time>2022-12-27T12:33:40.716Z</time>
      </trkpt>
      <trkpt lat="44.63669" lon="-0.96622">
        <ele>58.409419</ele>
        <time>2022-12-27T12:33:44.717Z</time>
      </trkpt>
      <trkpt lat="44.63662" lon="-0.96614">
        <ele>58.47431</ele>
        <time>2022-12-27T12:33:48.727Z</time>
      </trkpt>
      <trkpt lat="44.63661" lon="-0.966">
        <ele>58.5438</ele>
        <time>2022-12-27T12:33:54.701Z</time>
      </trkpt>
      <trkpt lat="44.63654" lon="-0.96592">
        <ele>58.610751</ele>
        <time>2022-12-27T12:33:59.703Z</time>
      </trkpt>
      <trkpt lat="44.63644" lon="-0.96589">
        <ele>58.681975</ele>
        <time>2022-12-27T12:34:04.703Z</time>
      </trkpt>
      <trkpt lat="44.63637" lon="-0.96579">
        <ele>58.755795</ele>
        <time>2022-12-27T12:34:08.718Z</time>
      </trkpt>
      <trkpt lat="44.63629" lon="-0.96571">
        <ele>58.823862</ele>
        <time>2022-12-27T12:34:11.699Z</time>
      </trkpt>
      <trkpt lat="44.63621" lon="-0.9656">
        <ele>58.906069</ele>
        <time>2022-12-27T12:34:15.707Z</time>
      </trkpt>
      <trkpt lat="44.63614" lon="-0.96551">
        <ele>58.971331</ele>
        <time>2022-12-27T12:34:18.716Z</time>
      </trkpt>
      <trkpt lat="44.63607" lon="-0.96543">
        <ele>59.039314</ele>
        <time>2022-12-27T12:34:21.702Z</time>
      </trkpt>
      <trkpt lat="44.63598" lon="-0.96533">
        <ele>59.117392</ele>
        <time>2022-12-27T12:34:24.704Z</time>
      </trkpt>
      <trkpt lat="44.6359" lon="-0.96524">
        <ele>59.194642</ele>
        <time>2022-12-27T12:34:27.701Z</time>
      </trkpt>
      <trkpt lat="44.6358" lon="-0.96515">
        <ele>59.276235</ele>
        <time>2022-12-27T12:34:30.717Z</time>
      </trkpt>
      <trkpt lat="44.63573" lon="-0.96507">
        <ele>59.343252</ele>
        <time>2022-12-27T12:34:33.721Z</time>
      </trkpt>
      <trkpt lat="44.63564" lon="-0.96498">
        <ele>59.425127</ele>
        <time>2022-12-27T12:34:37.725Z</time>
      </trkpt>
      <trkpt lat="44.63555" lon="-0.96491">
        <ele>59.495287</ele>
        <time>2022-12-27T12:34:40.717Z</time>
      </trkpt>
      <trkpt lat="44.63547" lon="-0.96482">
        <ele>59.530943</ele>
        <time>2022-12-27T12:34:43.721Z</time>
      </trkpt>
      <trkpt lat="44.63537" lon="-0.96473">
        <ele>59.525097</ele>
        <time>2022-12-27T12:34:46.711Z</time>
      </trkpt>
      <trkpt lat="44.63528" lon="-0.96464">
        <ele>59.519051</ele>
        <time>2022-12-27T12:34:49.730Z</time>
      </trkpt>
      <trkpt lat="44.63518" lon="-0.96456">
        <ele>59.512995</ele>
        <time>2022-12-27T12:34:52.703Z</time>
      </trkpt>
      <trkpt lat="44.63508" lon="-0.96447">
        <ele>59.506737</ele>
        <time>2022-12-27T12:34:55.731Z</time>
      </trkpt>
      <trkpt lat="44.63499" lon="-0.96438">
        <ele>59.500564</ele>
        <time>2022-12-27T12:34:58.718Z</time>
      </trkpt>
      <trkpt lat="44.63489" lon="-0.96428">
        <ele>59.494176</ele>
        <time>2022-12-27T12:35:01.702Z</time>
      </trkpt>
      <trkpt lat="44.63478" lon="-0.96419">
        <ele>59.487777</ele>
        <time>2022-12-27T12:35:04.721Z</time>
      </trkpt>
      <trkpt lat="44.63469" lon="-0.9641">
        <ele>59.481953</ele>
        <time>2022-12-27T12:35:07.722Z</time>
      </trkpt>
      <trkpt lat="44.63461" lon="-0.96404">
        <ele>59.476951</ele>
        <time>2022-12-27T12:35:10.715Z</time>
      </trkpt>
      <trkpt lat="44.63453" lon="-0.96396">
        <ele>59.471684</ele>
        <time>2022-12-27T12:35:13.712Z</time>
      </trkpt>
      <trkpt lat="44.63443" lon="-0.96387">
        <ele>59.465492</ele>
        <time>2022-12-27T12:35:16.715Z</time>
      </trkpt>
      <trkpt lat="44.63432" lon="-0.96378">
        <ele>59.458878</ele>
        <time>2022-12-27T12:35:19.730Z</time>
      </trkpt>
      <trkpt lat="44.63422" lon="-0.96369">
        <ele>59.452414</ele>
        <time>2022-12-27T12:35:22.709Z</time>
      </trkpt>
      <trkpt lat="44.63411" lon="-0.96359">
        <ele>59.445736</ele>
        <time>2022-12-27T12:35:25.714Z</time>
      </trkpt>
      <trkpt lat="44.63401" lon="-0.9635">
        <ele>59.439536</ele>
        <time>2022-12-27T12:35:28.727Z</time>
      </trkpt>
      <trkpt lat="44.63393" lon="-0.96342">
        <ele>59.42116</ele>
        <time>2022-12-27T12:35:31.705Z</time>
      </trkpt>
      <trkpt lat="44.63385" lon="-0.96334">
        <ele>59.401024</ele>
        <time>2022-12-27T12:35:34.713Z</time>
      </trkpt>
      <trkpt lat="44.63376" lon="-0.96326">
        <ele>59.380236</ele>
        <time>2022-12-27T12:35:37.723Z</time>
      </trkpt>
      <trkpt lat="44.63366" lon="-0.96317">
        <ele>59.357063</ele>
        <time>2022-12-27T12:35:41.708Z</time>
      </trkpt>
      <trkpt lat="44.63358" lon="-0.9631">
        <ele>59.337797</ele>
        <time>2022-12-27T12:35:44.724Z</time>
      </trkpt>
      <trkpt lat="44.6335" lon="-0.96302">
        <ele>59.317906</ele>
        <time>2022-12-27T12:35:47.726Z</time>
      </trkpt>
      <trkpt lat="44.63342" lon="-0.96294">
        <ele>59.299399</ele>
        <time>2022-12-27T12:35:50.723Z</time>
      </trkpt>
      <trkpt lat="44.63333" lon="-0.96284">
        <ele>59.276406</ele>
        <time>2022-12-27T12:35:54.719Z</time>
      </trkpt>
      <trkpt lat="44.63325" lon="-0.96275">
        <ele>59.255293</ele>
        <time>2022-12-27T12:35:59.716Z</time>
      </trkpt>
      <trkpt lat="44.63325" lon="-0.96262">
        <ele>59.237142</ele>
        <time>2022-12-27T12:36:04.720Z</time>
      </trkpt>
      <trkpt lat="44.63315" lon="-0.96261">
        <ele>59.217204</ele>
        <time>2022-12-27T12:36:11.695Z</time>
      </trkpt>
      <trkpt lat="44.63307" lon="-0.96268">
        <ele>59.199158</ele>
        <time>2022-12-27T12:36:15.708Z</time>
      </trkpt>
      <trkpt lat="44.63295" lon="-0.96263">
        <ele>59.17449</ele>
        <time>2022-12-27T12:36:19.706Z</time>
      </trkpt>
      <trkpt lat="44.63286" lon="-0.96255">
        <ele>59.152857</ele>
        <time>2022-12-27T12:36:22.722Z</time>
      </trkpt>
      <trkpt lat="44.63277" lon="-0.96247">
        <ele>59.131251</ele>
        <time>2022-12-27T12:36:25.716Z</time>
      </trkpt>
      <trkpt lat="44.63267" lon="-0.96238">
        <ele>59.107402</ele>
        <time>2022-12-27T12:36:28.717Z</time>
      </trkpt>
      <trkpt lat="44.63258" lon="-0.96228">
        <ele>59.085046</ele>
        <time>2022-12-27T12:36:31.704Z</time>
      </trkpt>
      <trkpt lat="44.63249" lon="-0.96221">
        <ele>58.894608</ele>
        <time>2022-12-27T12:36:34.708Z</time>
      </trkpt>
      <trkpt lat="44.63241" lon="-0.96214">
        <ele>58.664567</ele>
        <time>2022-12-27T12:36:37.725Z</time>
      </trkpt>
      <trkpt lat="44.63233" lon="-0.96207">
        <ele>58.444772</ele>
        <time>2022-12-27T12:36:40.723Z</time>
      </trkpt>
      <trkpt lat="44.63224" lon="-0.96198">
        <ele>58.183861</ele>
        <time>2022-12-27T12:36:43.698Z</time>
      </trkpt>
      <trkpt lat="44.63214" lon="-0.96189">
        <ele>57.890142</ele>
        <time>2022-12-27T12:36:46.721Z</time>
      </trkpt>
      <trkpt lat="44.63203" lon="-0.9618">
        <ele>57.599607</ele>
        <time>2022-12-27T12:36:49.728Z</time>
      </trkpt>
      <trkpt lat="44.63192" lon="-0.96171">
        <ele>57.300619</ele>
        <time>2022-12-27T12:36:52.720Z</time>
      </trkpt>
      <trkpt lat="44.63182" lon="-0.96161">
        <ele>56.999087</ele>
        <time>2022-12-27T12:36:55.730Z</time>
      </trkpt>
      <trkpt lat="44.63173" lon="-0.96155">
        <ele>56.775238</ele>
        <time>2022-12-27T12:36:57.722Z</time>
      </trkpt>
      <trkpt lat="44.63164" lon="-0.9615">
        <ele>56.540825</ele>
        <time>2022-12-27T12:36:59.726Z</time>
      </trkpt>
      <trkpt lat="44.63155" lon="-0.96145">
        <ele>56.311768</ele>
        <time>2022-12-27T12:37:01.705Z</time>
      </trkpt>
      <trkpt lat="44.63146" lon="-0.96141">
        <ele>56.091457</ele>
        <time>2022-12-27T12:37:03.727Z</time>
      </trkpt>
      <trkpt lat="44.63137" lon="-0.96137">
        <ele>55.86662</ele>
        <time>2022-12-27T12:37:05.723Z</time>
      </trkpt>
      <trkpt lat="44.63129" lon="-0.96134">
        <ele>55.6522</ele>
        <time>2022-12-27T12:37:07.721Z</time>
      </trkpt>
      <trkpt lat="44.63116" lon="-0.96136">
        <ele>55.357749</ele>
        <time>2022-12-27T12:37:10.720Z</time>
      </trkpt>
      <trkpt lat="44.63105" lon="-0.96143">
        <ele>55.069331</ele>
        <time>2022-12-27T12:37:13.716Z</time>
      </trkpt>
      <trkpt lat="44.63097" lon="-0.96138">
        <ele>54.844787</ele>
        <time>2022-12-27T12:37:16.722Z</time>
      </trkpt>
      <trkpt lat="44.63091" lon="-0.96125">
        <ele>54.85416</ele>
        <time>2022-12-27T12:37:19.698Z</time>
      </trkpt>
      <trkpt lat="44.63082" lon="-0.96118">
        <ele>54.910144</ele>
        <time>2022-12-27T12:37:22.728Z</time>
      </trkpt>
      <trkpt lat="44.63071" lon="-0.96116">
        <ele>54.969884</ele>
        <time>2022-12-27T12:37:25.695Z</time>
      </trkpt>
      <trkpt lat="44.6306" lon="-0.96116">
        <ele>55.028204</ele>
        <time>2022-12-27T12:37:28.726Z</time>
      </trkpt>
      <trkpt lat="44.63051" lon="-0.96117">
        <ele>55.08126</ele>
        <time>2022-12-27T12:37:31.704Z</time>
      </trkpt>
      <trkpt lat="44.63039" lon="-0.96116">
        <ele>55.14386</ele>
        <time>2022-12-27T12:37:35.731Z</time>
      </trkpt>
      <trkpt lat="44.63027" lon="-0.96118">
        <ele>55.208317</ele>
        <time>2022-12-27T12:37:38.707Z</time>
      </trkpt>
      <trkpt lat="44.63014" lon="-0.96118">
        <ele>55.279485</ele>
        <time>2022-12-27T12:37:41.703Z</time>
      </trkpt>
      <trkpt lat="44.63" lon="-0.9612">
        <ele>55.349777</ele>
        <time>2022-12-27T12:37:44.728Z</time>
      </trkpt>
      <trkpt lat="44.62988" lon="-0.96119">
        <ele>55.414534</ele>
        <time>2022-12-27T12:37:47.718Z</time>
      </trkpt>
      <trkpt lat="44.62979" lon="-0.96119">
        <ele>55.464833</ele>
        <time>2022-12-27T12:37:50.706Z</time>
      </trkpt>
      <trkpt lat="44.6297" lon="-0.9612">
        <ele>55.513594</ele>
        <time>2022-12-27T12:37:53.729Z</time>
      </trkpt>
      <trkpt lat="44.62959" lon="-0.9612">
        <ele>55.570842</ele>
        <time>2022-12-27T12:37:57.720Z</time>
      </trkpt>
      <trkpt lat="44.62947" lon="-0.96121">
        <ele>55.635064</ele>
        <time>2022-12-27T12:38:00.708Z</time>
      </trkpt>
      <trkpt lat="44.62935" lon="-0.96121">
        <ele>55.701462</ele>
        <time>2022-12-27T12:38:03.727Z</time>
      </trkpt>
      <trkpt lat="44.62925" lon="-0.96123">
        <ele>55.754128</ele>
        <time>2022-12-27T12:38:06.726Z</time>
      </trkpt>
      <trkpt lat="44.62915" lon="-0.96125">
        <ele>55.848611</ele>
        <time>2022-12-27T12:38:09.709Z</time>
      </trkpt>
      <trkpt lat="44.62905" lon="-0.96126">
        <ele>55.955999</ele>
        <time>2022-12-27T12:38:12.737Z</time>
      </trkpt>
      <trkpt lat="44.62896" lon="-0.96128">
        <ele>56.060906</ele>
        <time>2022-12-27T12:38:15.705Z</time>
      </trkpt>
      <trkpt lat="44.62886" lon="-0.96127">
        <ele>56.16871</ele>
        <time>2022-12-27T12:38:18.717Z</time>
      </trkpt>
      <trkpt lat="44.62874" lon="-0.96126">
        <ele>56.295315</ele>
        <time>2022-12-27T12:38:22.731Z</time>
      </trkpt>
      <trkpt lat="44.62863" lon="-0.96121">
        <ele>56.423158</ele>
        <time>2022-12-27T12:38:26.729Z</time>
      </trkpt>
      <trkpt lat="44.62854" lon="-0.96117">
        <ele>56.528689</ele>
        <time>2022-12-27T12:38:29.746Z</time>
      </trkpt>
      <trkpt lat="44.62845" lon="-0.96111">
        <ele>56.62989</ele>
        <time>2022-12-27T12:38:32.717Z</time>
      </trkpt>
      <trkpt lat="44.62837" lon="-0.96104">
        <ele>56.734081</ele>
        <time>2022-12-27T12:38:35.732Z</time>
      </trkpt>
      <trkpt lat="44.62829" lon="-0.96097">
        <ele>56.838517</ele>
        <time>2022-12-27T12:38:38.713Z</time>
      </trkpt>
      <trkpt lat="44.6282" lon="-0.96091">
        <ele>56.949019</ele>
        <time>2022-12-27T12:38:41.697Z</time>
      </trkpt>
      <trkpt lat="44.62812" lon="-0.96084">
        <ele>57.053055</ele>
        <time>2022-12-27T12:38:44.718Z</time>
      </trkpt>
      <trkpt lat="44.62801" lon="-0.96075">
        <ele>57.182534</ele>
        <time>2022-12-27T12:38:48.745Z</time>
      </trkpt>
      <trkpt lat="44.62792" lon="-0.96068">
        <ele>57.299638</ele>
        <time>2022-12-27T12:38:52.718Z</time>
      </trkpt>
      <trkpt lat="44.62783" lon="-0.96063">
        <ele>57.402547</ele>
        <time>2022-12-27T12:38:56.718Z</time>
      </trkpt>
      <trkpt lat="44.62775" lon="-0.96058">
        <ele>57.501974</ele>
        <time>2022-12-27T12:39:00.717Z</time>
      </trkpt>
      <trkpt lat="44.62766" lon="-0.96068">
        <ele>57.625436</ele>
        <time>2022-12-27T12:39:05.724Z</time>
      </trkpt>
      <trkpt lat="44.6276" lon="-0.96079">
        <ele>57.745524</ele>
        <time>2022-12-27T12:39:08.704Z</time>
      </trkpt>
      <trkpt lat="44.62754" lon="-0.9609">
        <ele>57.972953</ele>
        <time>2022-12-27T12:39:12.705Z</time>
      </trkpt>
      <trkpt lat="44.62749" lon="-0.96102">
        <ele>58.201446</ele>
        <time>2022-12-27T12:39:16.694Z</time>
      </trkpt>
      <trkpt lat="44.62743" lon="-0.96113">
        <ele>58.427003</ele>
        <time>2022-12-27T12:39:20.721Z</time>
      </trkpt>
      <trkpt lat="44.62739" lon="-0.96126">
        <ele>58.65779</ele>
        <time>2022-12-27T12:39:23.717Z</time>
      </trkpt>
      <trkpt lat="44.62736" lon="-0.96141">
        <ele>58.902287</ele>
        <time>2022-12-27T12:39:26.716Z</time>
      </trkpt>
      <trkpt lat="44.62732" lon="-0.96156">
        <ele>59.162661</ele>
        <time>2022-12-27T12:39:29.720Z</time>
      </trkpt>
      <trkpt lat="44.6273" lon="-0.96168">
        <ele>59.372183</ele>
        <time>2022-12-27T12:39:31.713Z</time>
      </trkpt>
      <trkpt lat="44.62726" lon="-0.96182">
        <ele>59.614351</ele>
        <time>2022-12-27T12:39:34.709Z</time>
      </trkpt>
      <trkpt lat="44.62723" lon="-0.96198">
        <ele>59.886849</ele>
        <time>2022-12-27T12:39:37.723Z</time>
      </trkpt>
      <trkpt lat="44.62719" lon="-0.96213">
        <ele>60.134294</ele>
        <time>2022-12-27T12:39:40.719Z</time>
      </trkpt>
      <trkpt lat="44.62715" lon="-0.96229">
        <ele>60.41756</ele>
        <time>2022-12-27T12:39:43.724Z</time>
      </trkpt>
      <trkpt lat="44.62712" lon="-0.96245">
        <ele>60.687996</ele>
        <time>2022-12-27T12:39:46.719Z</time>
      </trkpt>
      <trkpt lat="44.62708" lon="-0.96262">
        <ele>60.975127</ele>
        <time>2022-12-27T12:39:49.718Z</time>
      </trkpt>
      <trkpt lat="44.62705" lon="-0.96278">
        <ele>61.240155</ele>
        <time>2022-12-27T12:39:52.722Z</time>
      </trkpt>
      <trkpt lat="44.62702" lon="-0.96294">
        <ele>61.51304</ele>
        <time>2022-12-27T12:39:55.725Z</time>
      </trkpt>
      <trkpt lat="44.62696" lon="-0.96305">
        <ele>61.743529</ele>
        <time>2022-12-27T12:39:57.727Z</time>
      </trkpt>
      <trkpt lat="44.62687" lon="-0.96311">
        <ele>61.565617</ele>
        <time>2022-12-27T12:39:59.709Z</time>
      </trkpt>
      <trkpt lat="44.62674" lon="-0.96316">
        <ele>61.037249</ele>
        <time>2022-12-27T12:40:02.717Z</time>
      </trkpt>
      <trkpt lat="44.62662" lon="-0.96322">
        <ele>60.520118</ele>
        <time>2022-12-27T12:40:05.716Z</time>
      </trkpt>
      <trkpt lat="44.62652" lon="-0.96327">
        <ele>60.087284</ele>
        <time>2022-12-27T12:40:08.727Z</time>
      </trkpt>
      <trkpt lat="44.62645" lon="-0.96337">
        <ele>59.679436</ele>
        <time>2022-12-27T12:40:11.727Z</time>
      </trkpt>
      <trkpt lat="44.62639" lon="-0.96352">
        <ele>59.174164</ele>
        <time>2022-12-27T12:40:14.735Z</time>
      </trkpt>
      <trkpt lat="44.62634" lon="-0.96365">
        <ele>58.75618</ele>
        <time>2022-12-27T12:40:16.707Z</time>
      </trkpt>
      <trkpt lat="44.6263" lon="-0.96378">
        <ele>58.34291</ele>
        <time>2022-12-27T12:40:18.722Z</time>
      </trkpt>
      <trkpt lat="44.62626" lon="-0.9639">
        <ele>57.942235</ele>
        <time>2022-12-27T12:40:20.722Z</time>
      </trkpt>
      <trkpt lat="44.62621" lon="-0.96402">
        <ele>57.547067</ele>
        <time>2022-12-27T12:40:22.722Z</time>
      </trkpt>
      <trkpt lat="44.62616" lon="-0.96414">
        <ele>57.169362</ele>
        <time>2022-12-27T12:40:24.721Z</time>
      </trkpt>
      <trkpt lat="44.62612" lon="-0.96429">
        <ele>56.694221</ele>
        <time>2022-12-27T12:40:27.713Z</time>
      </trkpt>
      <trkpt lat="44.62607" lon="-0.96444">
        <ele>56.193653</ele>
        <time>2022-12-27T12:40:30.712Z</time>
      </trkpt>
      <trkpt lat="44.62601" lon="-0.9646">
        <ele>55.684471</ele>
        <time>2022-12-27T12:40:33.752Z</time>
      </trkpt>
      <trkpt lat="44.62595" lon="-0.96476">
        <ele>55.175993</ele>
        <time>2022-12-27T12:40:36.721Z</time>
      </trkpt>
      <trkpt lat="44.62589" lon="-0.9649">
        <ele>54.682725</ele>
        <time>2022-12-27T12:40:39.715Z</time>
      </trkpt>
      <trkpt lat="44.6258" lon="-0.965">
        <ele>54.683673</ele>
        <time>2022-12-27T12:40:42.720Z</time>
      </trkpt>
      <trkpt lat="44.62568" lon="-0.96501">
        <ele>54.947975</ele>
        <time>2022-12-27T12:40:45.706Z</time>
      </trkpt>
      <trkpt lat="44.62558" lon="-0.96492">
        <ele>55.207344</ele>
        <time>2022-12-27T12:40:48.714Z</time>
      </trkpt>
      <trkpt lat="44.62549" lon="-0.96482">
        <ele>55.475457</ele>
        <time>2022-12-27T12:40:51.712Z</time>
      </trkpt>
      <trkpt lat="44.62539" lon="-0.9647">
        <ele>55.754712</ele>
        <time>2022-12-27T12:40:54.730Z</time>
      </trkpt>
      <trkpt lat="44.62532" lon="-0.96462">
        <ele>55.956204</ele>
        <time>2022-12-27T12:40:56.721Z</time>
      </trkpt>
      <trkpt lat="44.62525" lon="-0.96454">
        <ele>56.157904</ele>
        <time>2022-12-27T12:40:58.719Z</time>
      </trkpt>
      <trkpt lat="44.62518" lon="-0.96446">
        <ele>56.364307</ele>
        <time>2022-12-27T12:41:00.724Z</time>
      </trkpt>
      <trkpt lat="44.62508" lon="-0.96435">
        <ele>56.642875</ele>
        <time>2022-12-27T12:41:03.716Z</time>
      </trkpt>
      <trkpt lat="44.62499" lon="-0.96425">
        <ele>56.904345</ele>
        <time>2022-12-27T12:41:06.728Z</time>
      </trkpt>
      <trkpt lat="44.62489" lon="-0.96414">
        <ele>57.178634</ele>
        <time>2022-12-27T12:41:09.724Z</time>
      </trkpt>
      <trkpt lat="44.62481" lon="-0.96403">
        <ele>57.415864</ele>
        <time>2022-12-27T12:41:12.719Z</time>
      </trkpt>
      <trkpt lat="44.62473" lon="-0.96393">
        <ele>57.667742</ele>
        <time>2022-12-27T12:41:16.725Z</time>
      </trkpt>
      <trkpt lat="44.62465" lon="-0.96383">
        <ele>57.902966</ele>
        <time>2022-12-27T12:41:20.719Z</time>
      </trkpt>
      <trkpt lat="44.62457" lon="-0.96373">
        <ele>58.143973</ele>
        <time>2022-12-27T12:41:24.724Z</time>
      </trkpt>
      <trkpt lat="44.62448" lon="-0.96363">
        <ele>58.390372</ele>
        <time>2022-12-27T12:41:28.713Z</time>
      </trkpt>
      <trkpt lat="44.6244" lon="-0.96353">
        <ele>58.536674</ele>
        <time>2022-12-27T12:41:32.700Z</time>
      </trkpt>
      <trkpt lat="44.62433" lon="-0.96344">
        <ele>58.591527</ele>
        <time>2022-12-27T12:41:36.723Z</time>
      </trkpt>
      <trkpt lat="44.62425" lon="-0.96335">
        <ele>58.644861</ele>
        <time>2022-12-27T12:41:40.724Z</time>
      </trkpt>
      <trkpt lat="44.62418" lon="-0.96326">
        <ele>58.698962</ele>
        <time>2022-12-27T12:41:44.726Z</time>
      </trkpt>
      <trkpt lat="44.62411" lon="-0.96318">
        <ele>58.750625</ele>
        <time>2022-12-27T12:41:48.717Z</time>
      </trkpt>
      <trkpt lat="44.62403" lon="-0.9631">
        <ele>58.804209</ele>
        <time>2022-12-27T12:41:52.720Z</time>
      </trkpt>
      <trkpt lat="44.62394" lon="-0.96304">
        <ele>58.855253</ele>
        <time>2022-12-27T12:41:56.705Z</time>
      </trkpt>
      <trkpt lat="44.62385" lon="-0.96295">
        <ele>58.916937</ele>
        <time>2022-12-27T12:42:01.724Z</time>
      </trkpt>
      <trkpt lat="44.62377" lon="-0.96288">
        <ele>58.969722</ele>
        <time>2022-12-27T12:42:05.731Z</time>
      </trkpt>
      <trkpt lat="44.62368" lon="-0.96281">
        <ele>59.026549</ele>
        <time>2022-12-27T12:42:09.695Z</time>
      </trkpt>
      <trkpt lat="44.6236" lon="-0.96275">
        <ele>59.076924</ele>
        <time>2022-12-27T12:42:12.721Z</time>
      </trkpt>
      <trkpt lat="44.62352" lon="-0.96268">
        <ele>59.130652</ele>
        <time>2022-12-27T12:42:15.716Z</time>
      </trkpt>
      <trkpt lat="44.62344" lon="-0.9626">
        <ele>59.183337</ele>
        <time>2022-12-27T12:42:18.720Z</time>
      </trkpt>
      <trkpt lat="44.62333" lon="-0.96255">
        <ele>59.244255</ele>
        <time>2022-12-27T12:42:21.709Z</time>
      </trkpt>
      <trkpt lat="44.62324" lon="-0.96265">
        <ele>59.308629</ele>
        <time>2022-12-27T12:42:24.720Z</time>
      </trkpt>
      <trkpt lat="44.62318" lon="-0.9628">
        <ele>59.375256</ele>
        <time>2022-12-27T12:42:27.725Z</time>
      </trkpt>
      <trkpt lat="44.62312" lon="-0.96293">
        <ele>59.437781</ele>
        <time>2022-12-27T12:42:30.703Z</time>
      </trkpt>
      <trkpt lat="44.62303" lon="-0.96298">
        <ele>59.488476</ele>
        <time>2022-12-27T12:42:33.717Z</time>
      </trkpt>
      <trkpt lat="44.62296" lon="-0.96286">
        <ele>59.32509</ele>
        <time>2022-12-27T12:42:37.726Z</time>
      </trkpt>
      <trkpt lat="44.62295" lon="-0.96272">
        <ele>59.147469</ele>
        <time>2022-12-27T12:42:40.717Z</time>
      </trkpt>
      <trkpt lat="44.62297" lon="-0.96256">
        <ele>58.943269</ele>
        <time>2022-12-27T12:42:43.726Z</time>
      </trkpt>
      <trkpt lat="44.62301" lon="-0.96238">
        <ele>58.722203</ele>
        <time>2022-12-27T12:42:46.727Z</time>
      </trkpt>
      <trkpt lat="44.62303" lon="-0.96221">
        <ele>58.499547</ele>
        <time>2022-12-27T12:42:49.718Z</time>
      </trkpt>
      <trkpt lat="44.62303" lon="-0.96202">
        <ele>58.262347</ele>
        <time>2022-12-27T12:42:52.720Z</time>
      </trkpt>
      <trkpt lat="44.62298" lon="-0.96189">
        <ele>58.089543</ele>
        <time>2022-12-27T12:42:54.717Z</time>
      </trkpt>
      <trkpt lat="44.6229" lon="-0.96179">
        <ele>57.908657</ele>
        <time>2022-12-27T12:42:56.726Z</time>
      </trkpt>
      <trkpt lat="44.62283" lon="-0.96171">
        <ele>57.7374</ele>
        <time>2022-12-27T12:42:58.723Z</time>
      </trkpt>
      <trkpt lat="44.62275" lon="-0.96162">
        <ele>57.568431</ele>
        <time>2022-12-27T12:43:00.704Z</time>
      </trkpt>
      <trkpt lat="44.62265" lon="-0.9615">
        <ele>57.340468</ele>
        <time>2022-12-27T12:43:03.730Z</time>
      </trkpt>
      <trkpt lat="44.62255" lon="-0.96139">
        <ele>57.117978</ele>
        <time>2022-12-27T12:43:06.717Z</time>
      </trkpt>
      <trkpt lat="44.62247" lon="-0.9613">
        <ele>56.93544</ele>
        <time>2022-12-27T12:43:08.722Z</time>
      </trkpt>
      <trkpt lat="44.6224" lon="-0.9612">
        <ele>56.760908</ele>
        <time>2022-12-27T12:43:10.723Z</time>
      </trkpt>
      <trkpt lat="44.62232" lon="-0.96112">
        <ele>56.594074</ele>
        <time>2022-12-27T12:43:12.723Z</time>
      </trkpt>
      <trkpt lat="44.62224" lon="-0.96103">
        <ele>56.416477</ele>
        <time>2022-12-27T12:43:14.722Z</time>
      </trkpt>
      <trkpt lat="44.62217" lon="-0.96095">
        <ele>56.342353</ele>
        <time>2022-12-27T12:43:16.715Z</time>
      </trkpt>
      <trkpt lat="44.6221" lon="-0.96086">
        <ele>56.305267</ele>
        <time>2022-12-27T12:43:18.729Z</time>
      </trkpt>
      <trkpt lat="44.62202" lon="-0.96077">
        <ele>56.267278</ele>
        <time>2022-12-27T12:43:20.714Z</time>
      </trkpt>
      <trkpt lat="44.62193" lon="-0.96068">
        <ele>56.228918</ele>
        <time>2022-12-27T12:43:22.732Z</time>
      </trkpt>
      <trkpt lat="44.62185" lon="-0.96059">
        <ele>56.189899</ele>
        <time>2022-12-27T12:43:24.707Z</time>
      </trkpt>
      <trkpt lat="44.62176" lon="-0.96049">
        <ele>56.148643</ele>
        <time>2022-12-27T12:43:26.727Z</time>
      </trkpt>
      <trkpt lat="44.62168" lon="-0.96039">
        <ele>56.108429</ele>
        <time>2022-12-27T12:43:28.723Z</time>
      </trkpt>
      <trkpt lat="44.6216" lon="-0.9603">
        <ele>56.071404</ele>
        <time>2022-12-27T12:43:30.719Z</time>
      </trkpt>
      <trkpt lat="44.62152" lon="-0.9602">
        <ele>56.031559</ele>
        <time>2022-12-27T12:43:32.717Z</time>
      </trkpt>
      <trkpt lat="44.62144" lon="-0.96011">
        <ele>55.992047</ele>
        <time>2022-12-27T12:43:34.717Z</time>
      </trkpt>
      <trkpt lat="44.62135" lon="-0.96002">
        <ele>55.953804</ele>
        <time>2022-12-27T12:43:36.718Z</time>
      </trkpt>
      <trkpt lat="44.62127" lon="-0.95993">
        <ele>55.915362</ele>
        <time>2022-12-27T12:43:38.723Z</time>
      </trkpt>
      <trkpt lat="44.6212" lon="-0.95982">
        <ele>55.875759</ele>
        <time>2022-12-27T12:43:40.719Z</time>
      </trkpt>
      <trkpt lat="44.62112" lon="-0.95973">
        <ele>55.837099</ele>
        <time>2022-12-27T12:43:42.710Z</time>
      </trkpt>
      <trkpt lat="44.62104" lon="-0.95965">
        <ele>55.801916</ele>
        <time>2022-12-27T12:43:44.727Z</time>
      </trkpt>
      <trkpt lat="44.62097" lon="-0.95956">
        <ele>55.76609</ele>
        <time>2022-12-27T12:43:46.725Z</time>
      </trkpt>
      <trkpt lat="44.6209" lon="-0.95947">
        <ele>55.731663</ele>
        <time>2022-12-27T12:43:48.715Z</time>
      </trkpt>
      <trkpt lat="44.62081" lon="-0.95939">
        <ele>55.707524</ele>
        <time>2022-12-27T12:43:50.728Z</time>
      </trkpt>
      <trkpt lat="44.62073" lon="-0.9593">
        <ele>55.741355</ele>
        <time>2022-12-27T12:43:52.726Z</time>
      </trkpt>
      <trkpt lat="44.62066" lon="-0.95921">
        <ele>55.77626</ele>
        <time>2022-12-27T12:43:54.706Z</time>
      </trkpt>
      <trkpt lat="44.62058" lon="-0.95911">
        <ele>55.810626</ele>
        <time>2022-12-27T12:43:56.711Z</time>
      </trkpt>
      <trkpt lat="44.6205" lon="-0.95902">
        <ele>55.843766</ele>
        <time>2022-12-27T12:43:58.726Z</time>
      </trkpt>
      <trkpt lat="44.62043" lon="-0.95893">
        <ele>55.875338</ele>
        <time>2022-12-27T12:44:00.726Z</time>
      </trkpt>
      <trkpt lat="44.62035" lon="-0.95885">
        <ele>55.91064</ele>
        <time>2022-12-27T12:44:02.729Z</time>
      </trkpt>
      <trkpt lat="44.62028" lon="-0.95876">
        <ele>55.941486</ele>
        <time>2022-12-27T12:44:04.719Z</time>
      </trkpt>
      <trkpt lat="44.62018" lon="-0.95865">
        <ele>55.984596</ele>
        <time>2022-12-27T12:44:07.716Z</time>
      </trkpt>
      <trkpt lat="44.62008" lon="-0.95853">
        <ele>56.026479</ele>
        <time>2022-12-27T12:44:10.732Z</time>
      </trkpt>
      <trkpt lat="44.61999" lon="-0.95842">
        <ele>56.065554</ele>
        <time>2022-12-27T12:44:13.728Z</time>
      </trkpt>
      <trkpt lat="44.6199" lon="-0.95832">
        <ele>56.106469</ele>
        <time>2022-12-27T12:44:16.715Z</time>
      </trkpt>
      <trkpt lat="44.6198" lon="-0.95821">
        <ele>56.148058</ele>
        <time>2022-12-27T12:44:19.698Z</time>
      </trkpt>
      <trkpt lat="44.6197" lon="-0.95809">
        <ele>56.191578</ele>
        <time>2022-12-27T12:44:22.725Z</time>
      </trkpt>
      <trkpt lat="44.61961" lon="-0.95797">
        <ele>56.234374</ele>
        <time>2022-12-27T12:44:25.720Z</time>
      </trkpt>
      <trkpt lat="44.61951" lon="-0.95785">
        <ele>56.27759</ele>
        <time>2022-12-27T12:44:28.710Z</time>
      </trkpt>
      <trkpt lat="44.61944" lon="-0.95777">
        <ele>56.308914</ele>
        <time>2022-12-27T12:44:30.716Z</time>
      </trkpt>
      <trkpt lat="44.61936" lon="-0.95769">
        <ele>56.342251</ele>
        <time>2022-12-27T12:44:32.714Z</time>
      </trkpt>
      <trkpt lat="44.61929" lon="-0.9576">
        <ele>56.373467</ele>
        <time>2022-12-27T12:44:34.723Z</time>
      </trkpt>
      <trkpt lat="44.61922" lon="-0.95752">
        <ele>56.406733</ele>
        <time>2022-12-27T12:44:36.712Z</time>
      </trkpt>
      <trkpt lat="44.61914" lon="-0.95743">
        <ele>56.439841</ele>
        <time>2022-12-27T12:44:38.726Z</time>
      </trkpt>
      <trkpt lat="44.61907" lon="-0.95734">
        <ele>56.47232</ele>
        <time>2022-12-27T12:44:40.696Z</time>
      </trkpt>
      <trkpt lat="44.619" lon="-0.95726">
        <ele>56.504214</ele>
        <time>2022-12-27T12:44:42.724Z</time>
      </trkpt>
      <trkpt lat="44.61892" lon="-0.95718">
        <ele>56.536827</ele>
        <time>2022-12-27T12:44:44.718Z</time>
      </trkpt>
      <trkpt lat="44.61885" lon="-0.9571">
        <ele>56.569829</ele>
        <time>2022-12-27T12:44:46.729Z</time>
      </trkpt>
      <trkpt lat="44.61878" lon="-0.95702">
        <ele>56.601575</ele>
        <time>2022-12-27T12:44:48.716Z</time>
      </trkpt>
      <trkpt lat="44.61871" lon="-0.95694">
        <ele>56.633313</ele>
        <time>2022-12-27T12:44:50.719Z</time>
      </trkpt>
      <trkpt lat="44.61864" lon="-0.95685">
        <ele>56.665112</ele>
        <time>2022-12-27T12:44:52.726Z</time>
      </trkpt>
      <trkpt lat="44.61857" lon="-0.95677">
        <ele>56.697334</ele>
        <time>2022-12-27T12:44:54.716Z</time>
      </trkpt>
      <trkpt lat="44.61849" lon="-0.95668">
        <ele>56.731022</ele>
        <time>2022-12-27T12:44:56.730Z</time>
      </trkpt>
      <trkpt lat="44.61842" lon="-0.95659">
        <ele>56.763242</ele>
        <time>2022-12-27T12:44:58.722Z</time>
      </trkpt>
      <trkpt lat="44.61835" lon="-0.95651">
        <ele>56.795773</ele>
        <time>2022-12-27T12:45:00.728Z</time>
      </trkpt>
      <trkpt lat="44.61825" lon="-0.95639">
        <ele>56.838845</ele>
        <time>2022-12-27T12:45:03.720Z</time>
      </trkpt>
      <trkpt lat="44.61818" lon="-0.95631">
        <ele>56.870763</ele>
        <time>2022-12-27T12:45:05.727Z</time>
      </trkpt>
      <trkpt lat="44.61811" lon="-0.95624">
        <ele>56.902258</ele>
        <time>2022-12-27T12:45:07.728Z</time>
      </trkpt>
      <trkpt lat="44.61803" lon="-0.95615">
        <ele>56.928545</ele>
        <time>2022-12-27T12:45:09.711Z</time>
      </trkpt>
      <trkpt lat="44.61793" lon="-0.95604">
        <ele>56.949585</ele>
        <time>2022-12-27T12:45:12.733Z</time>
      </trkpt>
      <trkpt lat="44.61783" lon="-0.95592">
        <ele>56.970746</ele>
        <time>2022-12-27T12:45:15.715Z</time>
      </trkpt>
      <trkpt lat="44.61774" lon="-0.95582">
        <ele>56.990281</ele>
        <time>2022-12-27T12:45:18.707Z</time>
      </trkpt>
      <trkpt lat="44.61765" lon="-0.95572">
        <ele>57.007506</ele>
        <time>2022-12-27T12:45:21.705Z</time>
      </trkpt>
      <trkpt lat="44.61758" lon="-0.95563">
        <ele>57.02394</ele>
        <time>2022-12-27T12:45:24.717Z</time>
      </trkpt>
      <trkpt lat="44.61749" lon="-0.95552">
        <ele>57.043398</ele>
        <time>2022-12-27T12:45:27.713Z</time>
      </trkpt>
      <trkpt lat="44.61739" lon="-0.95541">
        <ele>57.062925</ele>
        <time>2022-12-27T12:45:30.715Z</time>
      </trkpt>
      <trkpt lat="44.61729" lon="-0.9553">
        <ele>57.083877</ele>
        <time>2022-12-27T12:45:33.707Z</time>
      </trkpt>
      <trkpt lat="44.61722" lon="-0.95521">
        <ele>57.0994</ele>
        <time>2022-12-27T12:45:35.728Z</time>
      </trkpt>
      <trkpt lat="44.61714" lon="-0.95513">
        <ele>57.114979</ele>
        <time>2022-12-27T12:45:37.715Z</time>
      </trkpt>
      <trkpt lat="44.61707" lon="-0.95504">
        <ele>57.130521</ele>
        <time>2022-12-27T12:45:39.714Z</time>
      </trkpt>
      <trkpt lat="44.61699" lon="-0.95496">
        <ele>57.146189</ele>
        <time>2022-12-27T12:45:41.722Z</time>
      </trkpt>
      <trkpt lat="44.61692" lon="-0.95487">
        <ele>57.16235</ele>
        <time>2022-12-27T12:45:43.728Z</time>
      </trkpt>
      <trkpt lat="44.61684" lon="-0.95478">
        <ele>57.178342</ele>
        <time>2022-12-27T12:45:45.719Z</time>
      </trkpt>
      <trkpt lat="44.61676" lon="-0.95469">
        <ele>57.19446</ele>
        <time>2022-12-27T12:45:47.719Z</time>
      </trkpt>
      <trkpt lat="44.61669" lon="-0.95461">
        <ele>57.209905</ele>
        <time>2022-12-27T12:45:49.726Z</time>
      </trkpt>
      <trkpt lat="44.61661" lon="-0.95452">
        <ele>57.150955</ele>
        <time>2022-12-27T12:45:51.725Z</time>
      </trkpt>
      <trkpt lat="44.61654" lon="-0.95444">
        <ele>57.064822</ele>
        <time>2022-12-27T12:45:53.722Z</time>
      </trkpt>
      <trkpt lat="44.61647" lon="-0.95435">
        <ele>56.982175</ele>
        <time>2022-12-27T12:45:55.713Z</time>
      </trkpt>
      <trkpt lat="44.61639" lon="-0.95426">
        <ele>56.894849</ele>
        <time>2022-12-27T12:45:57.699Z</time>
      </trkpt>
      <trkpt lat="44.61632" lon="-0.95417">
        <ele>56.807685</ele>
        <time>2022-12-27T12:45:59.704Z</time>
      </trkpt>
      <trkpt lat="44.61624" lon="-0.95409">
        <ele>56.722711</ele>
        <time>2022-12-27T12:46:01.706Z</time>
      </trkpt>
      <trkpt lat="44.61618" lon="-0.95401">
        <ele>56.640176</ele>
        <time>2022-12-27T12:46:03.700Z</time>
      </trkpt>
      <trkpt lat="44.6161" lon="-0.95393">
        <ele>56.558737</ele>
        <time>2022-12-27T12:46:05.728Z</time>
      </trkpt>
      <trkpt lat="44.61603" lon="-0.95384">
        <ele>56.474587</ele>
        <time>2022-12-27T12:46:07.715Z</time>
      </trkpt>
      <trkpt lat="44.61596" lon="-0.95375">
        <ele>56.385914</ele>
        <time>2022-12-27T12:46:09.721Z</time>
      </trkpt>
      <trkpt lat="44.61588" lon="-0.95366">
        <ele>56.299844</ele>
        <time>2022-12-27T12:46:11.706Z</time>
      </trkpt>
      <trkpt lat="44.61581" lon="-0.95358">
        <ele>56.215282</ele>
        <time>2022-12-27T12:46:13.710Z</time>
      </trkpt>
      <trkpt lat="44.61573" lon="-0.95348">
        <ele>56.123742</ele>
        <time>2022-12-27T12:46:15.708Z</time>
      </trkpt>
      <trkpt lat="44.61565" lon="-0.9534">
        <ele>56.031796</ele>
        <time>2022-12-27T12:46:17.725Z</time>
      </trkpt>
      <trkpt lat="44.61558" lon="-0.95331">
        <ele>55.942576</ele>
        <time>2022-12-27T12:46:19.724Z</time>
      </trkpt>
      <trkpt lat="44.6155" lon="-0.95322">
        <ele>55.854579</ele>
        <time>2022-12-27T12:46:21.715Z</time>
      </trkpt>
      <trkpt lat="44.61542" lon="-0.95313">
        <ele>55.761076</ele>
        <time>2022-12-27T12:46:23.729Z</time>
      </trkpt>
      <trkpt lat="44.61534" lon="-0.95304">
        <ele>55.670611</ele>
        <time>2022-12-27T12:46:25.730Z</time>
      </trkpt>
      <trkpt lat="44.61526" lon="-0.95295">
        <ele>55.608544</ele>
        <time>2022-12-27T12:46:27.725Z</time>
      </trkpt>
      <trkpt lat="44.61518" lon="-0.95286">
        <ele>55.622961</ele>
        <time>2022-12-27T12:46:29.721Z</time>
      </trkpt>
      <trkpt lat="44.61511" lon="-0.95277">
        <ele>55.637553</ele>
        <time>2022-12-27T12:46:31.713Z</time>
      </trkpt>
      <trkpt lat="44.61503" lon="-0.95268">
        <ele>55.651521</ele>
        <time>2022-12-27T12:46:33.720Z</time>
      </trkpt>
      <trkpt lat="44.61495" lon="-0.9526">
        <ele>55.665615</ele>
        <time>2022-12-27T12:46:35.730Z</time>
      </trkpt>
      <trkpt lat="44.61488" lon="-0.9525">
        <ele>55.680193</ele>
        <time>2022-12-27T12:46:37.729Z</time>
      </trkpt>
      <trkpt lat="44.6148" lon="-0.95241">
        <ele>55.695025</ele>
        <time>2022-12-27T12:46:39.705Z</time>
      </trkpt>
      <trkpt lat="44.61472" lon="-0.95231">
        <ele>55.709661</ele>
        <time>2022-12-27T12:46:41.710Z</time>
      </trkpt>
      <trkpt lat="44.61464" lon="-0.95222">
        <ele>55.724123</ele>
        <time>2022-12-27T12:46:43.719Z</time>
      </trkpt>
      <trkpt lat="44.61456" lon="-0.95213">
        <ele>55.738979</ele>
        <time>2022-12-27T12:46:45.724Z</time>
      </trkpt>
      <trkpt lat="44.61448" lon="-0.95204">
        <ele>55.753647</ele>
        <time>2022-12-27T12:46:47.725Z</time>
      </trkpt>
      <trkpt lat="44.6144" lon="-0.95196">
        <ele>55.76744</ele>
        <time>2022-12-27T12:46:49.701Z</time>
      </trkpt>
      <trkpt lat="44.61432" lon="-0.95187">
        <ele>55.781625</ele>
        <time>2022-12-27T12:46:51.709Z</time>
      </trkpt>
      <trkpt lat="44.61425" lon="-0.95178">
        <ele>55.796</ele>
        <time>2022-12-27T12:46:53.728Z</time>
      </trkpt>
      <trkpt lat="44.61417" lon="-0.95169">
        <ele>55.810223</ele>
        <time>2022-12-27T12:46:55.733Z</time>
      </trkpt>
      <trkpt lat="44.61409" lon="-0.9516">
        <ele>55.82425</ele>
        <time>2022-12-27T12:46:57.724Z</time>
      </trkpt>
      <trkpt lat="44.61401" lon="-0.95151">
        <ele>55.839107</ele>
        <time>2022-12-27T12:46:59.729Z</time>
      </trkpt>
      <trkpt lat="44.61393" lon="-0.95142">
        <ele>55.853743</ele>
        <time>2022-12-27T12:47:01.707Z</time>
      </trkpt>
      <trkpt lat="44.61385" lon="-0.95133">
        <ele>55.888949</ele>
        <time>2022-12-27T12:47:03.716Z</time>
      </trkpt>
      <trkpt lat="44.61377" lon="-0.95125">
        <ele>55.934649</ele>
        <time>2022-12-27T12:47:05.704Z</time>
      </trkpt>
      <trkpt lat="44.61371" lon="-0.95116">
        <ele>55.980217</ele>
        <time>2022-12-27T12:47:07.719Z</time>
      </trkpt>
      <trkpt lat="44.61364" lon="-0.95107">
        <ele>56.026756</ele>
        <time>2022-12-27T12:47:09.725Z</time>
      </trkpt>
      <trkpt lat="44.61356" lon="-0.95099">
        <ele>56.074841</ele>
        <time>2022-12-27T12:47:11.702Z</time>
      </trkpt>
      <trkpt lat="44.61348" lon="-0.9509">
        <ele>56.12394</ele>
        <time>2022-12-27T12:47:13.715Z</time>
      </trkpt>
      <trkpt lat="44.61341" lon="-0.95081">
        <ele>56.172896</ele>
        <time>2022-12-27T12:47:15.723Z</time>
      </trkpt>
      <trkpt lat="44.61332" lon="-0.95073">
        <ele>56.222814</ele>
        <time>2022-12-27T12:47:17.719Z</time>
      </trkpt>
      <trkpt lat="44.61325" lon="-0.95065">
        <ele>56.272216</ele>
        <time>2022-12-27T12:47:19.713Z</time>
      </trkpt>
      <trkpt lat="44.61317" lon="-0.95055">
        <ele>56.323508</ele>
        <time>2022-12-27T12:47:21.723Z</time>
      </trkpt>
      <trkpt lat="44.61309" lon="-0.95046">
        <ele>56.37305</ele>
        <time>2022-12-27T12:47:23.716Z</time>
      </trkpt>
      <trkpt lat="44.61302" lon="-0.95036">
        <ele>56.422148</ele>
        <time>2022-12-27T12:47:25.725Z</time>
      </trkpt>
      <trkpt lat="44.61295" lon="-0.95028">
        <ele>56.468595</ele>
        <time>2022-12-27T12:47:27.722Z</time>
      </trkpt>
      <trkpt lat="44.61287" lon="-0.9502">
        <ele>56.514034</ele>
        <time>2022-12-27T12:47:29.716Z</time>
      </trkpt>
      <trkpt lat="44.61281" lon="-0.95011">
        <ele>56.559602</ele>
        <time>2022-12-27T12:47:31.702Z</time>
      </trkpt>
      <trkpt lat="44.61273" lon="-0.95003">
        <ele>56.606654</ele>
        <time>2022-12-27T12:47:33.704Z</time>
      </trkpt>
      <trkpt lat="44.61266" lon="-0.94993">
        <ele>56.6578</ele>
        <time>2022-12-27T12:47:35.724Z</time>
      </trkpt>
      <trkpt lat="44.61258" lon="-0.94984">
        <ele>56.710078</ele>
        <time>2022-12-27T12:47:37.722Z</time>
      </trkpt>
      <trkpt lat="44.6125" lon="-0.94974">
        <ele>56.75778</ele>
        <time>2022-12-27T12:47:39.725Z</time>
      </trkpt>
      <trkpt lat="44.61242" lon="-0.94966">
        <ele>56.788307</ele>
        <time>2022-12-27T12:47:41.707Z</time>
      </trkpt>
      <trkpt lat="44.61233" lon="-0.94957">
        <ele>56.820869</ele>
        <time>2022-12-27T12:47:43.715Z</time>
      </trkpt>
      <trkpt lat="44.61225" lon="-0.94947">
        <ele>56.852094</ele>
        <time>2022-12-27T12:47:45.726Z</time>
      </trkpt>
      <trkpt lat="44.61217" lon="-0.94937">
        <ele>56.883293</ele>
        <time>2022-12-27T12:47:47.726Z</time>
      </trkpt>
      <trkpt lat="44.61209" lon="-0.94928">
        <ele>56.914587</ele>
        <time>2022-12-27T12:47:49.726Z</time>
      </trkpt>
      <trkpt lat="44.61201" lon="-0.94919">
        <ele>56.944825</ele>
        <time>2022-12-27T12:47:51.704Z</time>
      </trkpt>
      <trkpt lat="44.61193" lon="-0.9491">
        <ele>56.974751</ele>
        <time>2022-12-27T12:47:53.718Z</time>
      </trkpt>
      <trkpt lat="44.61186" lon="-0.94902">
        <ele>57.002345</ele>
        <time>2022-12-27T12:47:55.729Z</time>
      </trkpt>
      <trkpt lat="44.61177" lon="-0.94891">
        <ele>57.039004</ele>
        <time>2022-12-27T12:47:58.725Z</time>
      </trkpt>
      <trkpt lat="44.61167" lon="-0.94881">
        <ele>57.075164</ele>
        <time>2022-12-27T12:48:01.701Z</time>
      </trkpt>
      <trkpt lat="44.61158" lon="-0.94869">
        <ele>57.112678</ele>
        <time>2022-12-27T12:48:04.708Z</time>
      </trkpt>
      <trkpt lat="44.61148" lon="-0.94859">
        <ele>57.148446</ele>
        <time>2022-12-27T12:48:07.718Z</time>
      </trkpt>
      <trkpt lat="44.61139" lon="-0.94848">
        <ele>57.183768</ele>
        <time>2022-12-27T12:48:10.716Z</time>
      </trkpt>
      <trkpt lat="44.61129" lon="-0.94837">
        <ele>57.221659</ele>
        <time>2022-12-27T12:48:13.719Z</time>
      </trkpt>
      <trkpt lat="44.61119" lon="-0.94825">
        <ele>57.262421</ele>
        <time>2022-12-27T12:48:16.725Z</time>
      </trkpt>
      <trkpt lat="44.61112" lon="-0.94817">
        <ele>57.289384</ele>
        <time>2022-12-27T12:48:18.720Z</time>
      </trkpt>
      <trkpt lat="44.61104" lon="-0.94809">
        <ele>57.195496</ele>
        <time>2022-12-27T12:48:20.721Z</time>
      </trkpt>
      <trkpt lat="44.61097" lon="-0.94801">
        <ele>57.099903</ele>
        <time>2022-12-27T12:48:22.729Z</time>
      </trkpt>
      <trkpt lat="44.6109" lon="-0.94792">
        <ele>57.001443</ele>
        <time>2022-12-27T12:48:24.717Z</time>
      </trkpt>
      <trkpt lat="44.61082" lon="-0.94783">
        <ele>56.901251</ele>
        <time>2022-12-27T12:48:26.719Z</time>
      </trkpt>
      <trkpt lat="44.61075" lon="-0.94774">
        <ele>56.804049</ele>
        <time>2022-12-27T12:48:28.728Z</time>
      </trkpt>
      <trkpt lat="44.61064" lon="-0.94763">
        <ele>56.665751</ele>
        <time>2022-12-27T12:48:31.705Z</time>
      </trkpt>
      <trkpt lat="44.61057" lon="-0.94754">
        <ele>56.563659</ele>
        <time>2022-12-27T12:48:33.723Z</time>
      </trkpt>
      <trkpt lat="44.61049" lon="-0.94746">
        <ele>56.463836</ele>
        <time>2022-12-27T12:48:35.714Z</time>
      </trkpt>
      <trkpt lat="44.61041" lon="-0.94736">
        <ele>56.356568</ele>
        <time>2022-12-27T12:48:37.725Z</time>
      </trkpt>
      <trkpt lat="44.61033" lon="-0.94727">
        <ele>56.251955</ele>
        <time>2022-12-27T12:48:39.725Z</time>
      </trkpt>
      <trkpt lat="44.61025" lon="-0.94718">
        <ele>56.147451</ele>
        <time>2022-12-27T12:48:41.720Z</time>
      </trkpt>
      <trkpt lat="44.61018" lon="-0.94709">
        <ele>56.045217</ele>
        <time>2022-12-27T12:48:43.728Z</time>
      </trkpt>
      <trkpt lat="44.6101" lon="-0.94702">
        <ele>55.948412</ele>
        <time>2022-12-27T12:48:45.726Z</time>
      </trkpt>
      <trkpt lat="44.61003" lon="-0.94692">
        <ele>55.84726</ele>
        <time>2022-12-27T12:48:47.730Z</time>
      </trkpt>
      <trkpt lat="44.60996" lon="-0.94684">
        <ele>55.753047</ele>
        <time>2022-12-27T12:48:49.714Z</time>
      </trkpt>
      <trkpt lat="44.60988" lon="-0.94675">
        <ele>55.654111</ele>
        <time>2022-12-27T12:48:51.721Z</time>
      </trkpt>
      <trkpt lat="44.60981" lon="-0.94668">
        <ele>55.560261</ele>
        <time>2022-12-27T12:48:53.714Z</time>
      </trkpt>
      <trkpt lat="44.60971" lon="-0.94656">
        <ele>55.44146</ele>
        <time>2022-12-27T12:48:56.729Z</time>
      </trkpt>
      <trkpt lat="44.60961" lon="-0.94646">
        <ele>55.450463</ele>
        <time>2022-12-27T12:48:59.726Z</time>
      </trkpt>
      <trkpt lat="44.60953" lon="-0.94637">
        <ele>55.457491</ele>
        <time>2022-12-27T12:49:01.722Z</time>
      </trkpt>
      <trkpt lat="44.60947" lon="-0.94628">
        <ele>55.464001</ele>
        <time>2022-12-27T12:49:03.728Z</time>
      </trkpt>
      <trkpt lat="44.60939" lon="-0.94619">
        <ele>55.471038</ele>
        <time>2022-12-27T12:49:05.716Z</time>
      </trkpt>
      <trkpt lat="44.6093" lon="-0.9461">
        <ele>55.478448</ele>
        <time>2022-12-27T12:49:07.719Z</time>
      </trkpt>
      <trkpt lat="44.60923" lon="-0.94601">
        <ele>55.485796</ele>
        <time>2022-12-27T12:49:09.717Z</time>
      </trkpt>
      <trkpt lat="44.60915" lon="-0.94592">
        <ele>55.492689</ele>
        <time>2022-12-27T12:49:11.716Z</time>
      </trkpt>
      <trkpt lat="44.60908" lon="-0.94583">
        <ele>55.499451</ele>
        <time>2022-12-27T12:49:13.705Z</time>
      </trkpt>
      <trkpt lat="44.60898" lon="-0.94571">
        <ele>55.509164</ele>
        <time>2022-12-27T12:49:16.712Z</time>
      </trkpt>
      <trkpt lat="44.60891" lon="-0.94562">
        <ele>55.515674</ele>
        <time>2022-12-27T12:49:18.711Z</time>
      </trkpt>
      <trkpt lat="44.60884" lon="-0.94553">
        <ele>55.522307</ele>
        <time>2022-12-27T12:49:20.728Z</time>
      </trkpt>
      <trkpt lat="44.60874" lon="-0.94541">
        <ele>55.531461</ele>
        <time>2022-12-27T12:49:23.725Z</time>
      </trkpt>
      <trkpt lat="44.60865" lon="-0.94532">
        <ele>55.539796</ele>
        <time>2022-12-27T12:49:26.719Z</time>
      </trkpt>
      <trkpt lat="44.60855" lon="-0.9452">
        <ele>55.548598</ele>
        <time>2022-12-27T12:49:29.724Z</time>
      </trkpt>
      <trkpt lat="44.60846" lon="-0.9451">
        <ele>55.556933</ele>
        <time>2022-12-27T12:49:32.731Z</time>
      </trkpt>
      <trkpt lat="44.60838" lon="-0.945">
        <ele>55.564683</ele>
        <time>2022-12-27T12:49:35.728Z</time>
      </trkpt>
      <trkpt lat="44.6083" lon="-0.9449">
        <ele>55.616781</ele>
        <time>2022-12-27T12:49:38.731Z</time>
      </trkpt>
      <trkpt lat="44.60821" lon="-0.94482">
        <ele>55.718128</ele>
        <time>2022-12-27T12:49:42.735Z</time>
      </trkpt>
      <trkpt lat="44.60813" lon="-0.94473">
        <ele>55.814522</ele>
        <time>2022-12-27T12:49:47.725Z</time>
      </trkpt>
      <trkpt lat="44.60806" lon="-0.94463">
        <ele>55.907678</ele>
        <time>2022-12-27T12:49:51.713Z</time>
      </trkpt>
      <trkpt lat="44.60798" lon="-0.94454">
        <ele>55.999259</ele>
        <time>2022-12-27T12:49:54.724Z</time>
      </trkpt>
      <trkpt lat="44.60789" lon="-0.94444">
        <ele>56.108499</ele>
        <time>2022-12-27T12:49:57.731Z</time>
      </trkpt>
      <trkpt lat="44.60779" lon="-0.94432">
        <ele>56.233404</ele>
        <time>2022-12-27T12:50:00.732Z</time>
      </trkpt>
      <trkpt lat="44.60771" lon="-0.94424">
        <ele>56.323782</ele>
        <time>2022-12-27T12:50:02.784Z</time>
      </trkpt>
      <trkpt lat="44.60764" lon="-0.94415">
        <ele>56.411789</ele>
        <time>2022-12-27T12:50:04.733Z</time>
      </trkpt>
      <trkpt lat="44.60756" lon="-0.94407">
        <ele>56.499435</ele>
        <time>2022-12-27T12:50:06.729Z</time>
      </trkpt>
      <trkpt lat="44.60749" lon="-0.94398">
        <ele>56.587114</ele>
        <time>2022-12-27T12:50:08.812Z</time>
      </trkpt>
      <trkpt lat="44.60742" lon="-0.9439">
        <ele>56.671565</ele>
        <time>2022-12-27T12:50:10.731Z</time>
      </trkpt>
      <trkpt lat="44.60732" lon="-0.94379">
        <ele>56.792855</ele>
        <time>2022-12-27T12:50:13.734Z</time>
      </trkpt>
      <trkpt lat="44.60725" lon="-0.9437">
        <ele>56.877818</ele>
        <time>2022-12-27T12:50:15.728Z</time>
      </trkpt>
      <trkpt lat="44.60715" lon="-0.94359">
        <ele>56.997326</ele>
        <time>2022-12-27T12:50:18.731Z</time>
      </trkpt>
      <trkpt lat="44.60705" lon="-0.94348">
        <ele>57.117474</ele>
        <time>2022-12-27T12:50:21.705Z</time>
      </trkpt>
      <trkpt lat="44.60695" lon="-0.94336">
        <ele>57.241962</ele>
        <time>2022-12-27T12:50:24.719Z</time>
      </trkpt>
      <trkpt lat="44.60685" lon="-0.94324">
        <ele>57.410863</ele>
        <time>2022-12-27T12:50:27.733Z</time>
      </trkpt>
      <trkpt lat="44.60676" lon="-0.94314">
        <ele>57.566951</ele>
        <time>2022-12-27T12:50:30.732Z</time>
      </trkpt>
      <trkpt lat="44.60666" lon="-0.94304">
        <ele>57.724325</ele>
        <time>2022-12-27T12:50:33.719Z</time>
      </trkpt>
      <trkpt lat="44.60659" lon="-0.94296">
        <ele>57.847568</ele>
        <time>2022-12-27T12:50:35.728Z</time>
      </trkpt>
      <trkpt lat="44.60649" lon="-0.94284">
        <ele>58.022762</ele>
        <time>2022-12-27T12:50:38.716Z</time>
      </trkpt>
      <trkpt lat="44.6064" lon="-0.94274">
        <ele>58.172135</ele>
        <time>2022-12-27T12:50:40.708Z</time>
      </trkpt>
      <trkpt lat="44.60632" lon="-0.94264">
        <ele>58.313147</ele>
        <time>2022-12-27T12:50:42.736Z</time>
      </trkpt>
      <trkpt lat="44.60624" lon="-0.94254">
        <ele>58.448667</ele>
        <time>2022-12-27T12:50:44.711Z</time>
      </trkpt>
      <trkpt lat="44.60616" lon="-0.94245">
        <ele>58.581431</ele>
        <time>2022-12-27T12:50:46.702Z</time>
      </trkpt>
      <trkpt lat="44.6061" lon="-0.94235">
        <ele>58.707213</ele>
        <time>2022-12-27T12:50:48.734Z</time>
      </trkpt>
      <trkpt lat="44.60601" lon="-0.94223">
        <ele>58.87866</ele>
        <time>2022-12-27T12:50:51.708Z</time>
      </trkpt>
      <trkpt lat="44.60591" lon="-0.94212">
        <ele>59.038355</ele>
        <time>2022-12-27T12:50:54.732Z</time>
      </trkpt>
      <trkpt lat="44.60583" lon="-0.94201">
        <ele>59.190882</ele>
        <time>2022-12-27T12:50:57.735Z</time>
      </trkpt>
      <trkpt lat="44.60574" lon="-0.94191">
        <ele>59.339122</ele>
        <time>2022-12-27T12:51:00.736Z</time>
      </trkpt>
      <trkpt lat="44.60565" lon="-0.94182">
        <ele>59.477764</ele>
        <time>2022-12-27T12:51:03.734Z</time>
      </trkpt>
      <trkpt lat="44.60558" lon="-0.94172">
        <ele>59.606686</ele>
        <time>2022-12-27T12:51:06.728Z</time>
      </trkpt>
      <trkpt lat="44.6055" lon="-0.94164">
        <ele>59.377972</ele>
        <time>2022-12-27T12:51:09.729Z</time>
      </trkpt>
      <trkpt lat="44.60542" lon="-0.94157">
        <ele>59.130335</ele>
        <time>2022-12-27T12:51:14.734Z</time>
      </trkpt>
      <trkpt lat="44.6053" lon="-0.94142">
        <ele>58.758927</ele>
        <time>2022-12-27T12:52:15.737Z</time>
      </trkpt>
      <trkpt lat="44.60522" lon="-0.94133">
        <ele>58.515023</ele>
        <time>2022-12-27T12:52:18.798Z</time>
      </trkpt>
      <trkpt lat="44.60514" lon="-0.94123">
        <ele>58.24525</ele>
        <time>2022-12-27T12:52:21.712Z</time>
      </trkpt>
      <trkpt lat="44.60504" lon="-0.94114">
        <ele>57.962971</ele>
        <time>2022-12-27T12:52:24.712Z</time>
      </trkpt>
      <trkpt lat="44.60495" lon="-0.94103">
        <ele>57.663274</ele>
        <time>2022-12-27T12:52:27.733Z</time>
      </trkpt>
      <trkpt lat="44.60486" lon="-0.94092">
        <ele>57.373968</ele>
        <time>2022-12-27T12:52:30.734Z</time>
      </trkpt>
      <trkpt lat="44.60476" lon="-0.9408">
        <ele>57.060235</ele>
        <time>2022-12-27T12:52:33.733Z</time>
      </trkpt>
      <trkpt lat="44.60467" lon="-0.94073">
        <ele>56.819458</ele>
        <time>2022-12-27T12:52:35.768Z</time>
      </trkpt>
      <trkpt lat="44.6046" lon="-0.94064">
        <ele>56.592208</ele>
        <time>2022-12-27T12:52:37.736Z</time>
      </trkpt>
      <trkpt lat="44.60453" lon="-0.94055">
        <ele>56.366534</ele>
        <time>2022-12-27T12:52:39.735Z</time>
      </trkpt>
      <trkpt lat="44.60446" lon="-0.94046">
        <ele>56.134008</ele>
        <time>2022-12-27T12:52:41.707Z</time>
      </trkpt>
      <trkpt lat="44.60439" lon="-0.94037">
        <ele>55.907392</ele>
        <time>2022-12-27T12:52:43.711Z</time>
      </trkpt>
      <trkpt lat="44.60432" lon="-0.94028">
        <ele>55.67431</ele>
        <time>2022-12-27T12:52:45.727Z</time>
      </trkpt>
      <trkpt lat="44.60425" lon="-0.94018">
        <ele>55.43591</ele>
        <time>2022-12-27T12:52:47.728Z</time>
      </trkpt>
      <trkpt lat="44.60418" lon="-0.94008">
        <ele>55.299497</ele>
        <time>2022-12-27T12:52:49.756Z</time>
      </trkpt>
      <trkpt lat="44.60411" lon="-0.93998">
        <ele>55.449722</ele>
        <time>2022-12-27T12:52:51.723Z</time>
      </trkpt>
      <trkpt lat="44.60404" lon="-0.93989">
        <ele>55.587265</ele>
        <time>2022-12-27T12:52:53.729Z</time>
      </trkpt>
      <trkpt lat="44.60398" lon="-0.9398">
        <ele>55.72747</ele>
        <time>2022-12-27T12:52:55.728Z</time>
      </trkpt>
      <trkpt lat="44.60389" lon="-0.93968">
        <ele>55.904948</ele>
        <time>2022-12-27T12:52:58.716Z</time>
      </trkpt>
      <trkpt lat="44.60384" lon="-0.93956">
        <ele>56.058989</ele>
        <time>2022-12-27T12:53:01.703Z</time>
      </trkpt>
      <trkpt lat="44.60377" lon="-0.93947">
        <ele>56.193664</ele>
        <time>2022-12-27T12:53:03.711Z</time>
      </trkpt>
      <trkpt lat="44.60368" lon="-0.93933">
        <ele>56.390565</ele>
        <time>2022-12-27T12:53:06.709Z</time>
      </trkpt>
      <trkpt lat="44.60359" lon="-0.93919">
        <ele>56.58803</ele>
        <time>2022-12-27T12:53:09.712Z</time>
      </trkpt>
      <trkpt lat="44.60353" lon="-0.93909">
        <ele>56.723757</ele>
        <time>2022-12-27T12:53:11.711Z</time>
      </trkpt>
      <trkpt lat="44.60348" lon="-0.93899">
        <ele>56.859713</ele>
        <time>2022-12-27T12:53:13.727Z</time>
      </trkpt>
      <trkpt lat="44.60342" lon="-0.93889">
        <ele>56.995023</ele>
        <time>2022-12-27T12:53:15.729Z</time>
      </trkpt>
      <trkpt lat="44.60336" lon="-0.93879">
        <ele>57.133737</ele>
        <time>2022-12-27T12:53:17.863Z</time>
      </trkpt>
      <trkpt lat="44.60331" lon="-0.93868">
        <ele>57.268048</ele>
        <time>2022-12-27T12:53:19.718Z</time>
      </trkpt>
      <trkpt lat="44.60326" lon="-0.93858">
        <ele>57.405111</ele>
        <time>2022-12-27T12:53:21.718Z</time>
      </trkpt>
      <trkpt lat="44.60319" lon="-0.93848">
        <ele>57.546156</ele>
        <time>2022-12-27T12:53:23.728Z</time>
      </trkpt>
      <trkpt lat="44.60311" lon="-0.93833">
        <ele>57.739859</ele>
        <time>2022-12-27T12:53:26.737Z</time>
      </trkpt>
      <trkpt lat="44.60306" lon="-0.93823">
        <ele>57.876678</ele>
        <time>2022-12-27T12:53:28.728Z</time>
      </trkpt>
      <trkpt lat="44.60301" lon="-0.93812">
        <ele>57.900384</ele>
        <time>2022-12-27T12:53:30.792Z</time>
      </trkpt>
      <trkpt lat="44.60295" lon="-0.93802">
        <ele>57.854495</ele>
        <time>2022-12-27T12:53:32.727Z</time>
      </trkpt>
      <trkpt lat="44.60288" lon="-0.93787">
        <ele>57.789143</ele>
        <time>2022-12-27T12:53:35.723Z</time>
      </trkpt>
      <trkpt lat="44.60282" lon="-0.93773">
        <ele>57.732104</ele>
        <time>2022-12-27T12:53:38.772Z</time>
      </trkpt>
      <trkpt lat="44.60276" lon="-0.93761">
        <ele>57.679754</ele>
        <time>2022-12-27T12:53:41.714Z</time>
      </trkpt>
      <trkpt lat="44.60272" lon="-0.93749">
        <ele>57.632659</ele>
        <time>2022-12-27T12:53:44.707Z</time>
      </trkpt>
      <trkpt lat="44.60266" lon="-0.93735">
        <ele>57.577143</ele>
        <time>2022-12-27T12:53:48.736Z</time>
      </trkpt>
      <trkpt lat="44.6026" lon="-0.93725">
        <ele>57.528306</ele>
        <time>2022-12-27T12:53:52.731Z</time>
      </trkpt>
      <trkpt lat="44.60258" lon="-0.93711">
        <ele>57.477299</ele>
        <time>2022-12-27T12:53:58.729Z</time>
      </trkpt>
      <trkpt lat="44.60251" lon="-0.93701">
        <ele>57.426248</ele>
        <time>2022-12-27T12:54:04.809Z</time>
      </trkpt>
      <trkpt lat="44.60245" lon="-0.93689">
        <ele>57.374836</ele>
        <time>2022-12-27T12:54:08.731Z</time>
      </trkpt>
      <trkpt lat="44.60244" lon="-0.93677">
        <ele>57.329134</ele>
        <time>2022-12-27T12:54:12.733Z</time>
      </trkpt>
      <trkpt lat="44.60237" lon="-0.93667">
        <ele>57.280394</ele>
        <time>2022-12-27T12:54:16.732Z</time>
      </trkpt>
      <trkpt lat="44.60227" lon="-0.93662">
        <ele>57.227004</ele>
        <time>2022-12-27T12:54:19.736Z</time>
      </trkpt>
      <trkpt lat="44.6022" lon="-0.9365">
        <ele>57.170407</ele>
        <time>2022-12-27T12:54:22.731Z</time>
      </trkpt>
      <trkpt lat="44.60214" lon="-0.93636">
        <ele>57.112044</ele>
        <time>2022-12-27T12:54:25.737Z</time>
      </trkpt>
      <trkpt lat="44.60208" lon="-0.93622">
        <ele>57.052</ele>
        <time>2022-12-27T12:54:28.726Z</time>
      </trkpt>
      <trkpt lat="44.60201" lon="-0.93607">
        <ele>57.044302</ele>
        <time>2022-12-27T12:54:31.706Z</time>
      </trkpt>
      <trkpt lat="44.60195" lon="-0.93592">
        <ele>57.070617</ele>
        <time>2022-12-27T12:54:34.730Z</time>
      </trkpt>
      <trkpt lat="44.60188" lon="-0.93577">
        <ele>57.096406</ele>
        <time>2022-12-27T12:54:37.734Z</time>
      </trkpt>
      <trkpt lat="44.60181" lon="-0.93563">
        <ele>57.122087</ele>
        <time>2022-12-27T12:54:40.732Z</time>
      </trkpt>
      <trkpt lat="44.60175" lon="-0.93548">
        <ele>57.147914</ele>
        <time>2022-12-27T12:54:43.733Z</time>
      </trkpt>
      <trkpt lat="44.60168" lon="-0.93533">
        <ele>57.174843</ele>
        <time>2022-12-27T12:54:46.733Z</time>
      </trkpt>
      <trkpt lat="44.60163" lon="-0.93522">
        <ele>57.193759</ele>
        <time>2022-12-27T12:54:48.729Z</time>
      </trkpt>
      <trkpt lat="44.60158" lon="-0.93511">
        <ele>57.212689</ele>
        <time>2022-12-27T12:54:50.782Z</time>
      </trkpt>
      <trkpt lat="44.60154" lon="-0.935">
        <ele>57.231741</ele>
        <time>2022-12-27T12:54:52.722Z</time>
      </trkpt>
      <trkpt lat="44.60149" lon="-0.93488">
        <ele>57.251152</ele>
        <time>2022-12-27T12:54:54.716Z</time>
      </trkpt>
      <trkpt lat="44.60144" lon="-0.93471">
        <ele>57.278747</ele>
        <time>2022-12-27T12:54:57.730Z</time>
      </trkpt>
      <trkpt lat="44.6014" lon="-0.93454">
        <ele>57.305858</ele>
        <time>2022-12-27T12:55:00.731Z</time>
      </trkpt>
      <trkpt lat="44.60135" lon="-0.93436">
        <ele>57.334716</ele>
        <time>2022-12-27T12:55:03.733Z</time>
      </trkpt>
      <trkpt lat="44.60132" lon="-0.93423">
        <ele>57.35518</ele>
        <time>2022-12-27T12:55:05.735Z</time>
      </trkpt>
      <trkpt lat="44.60127" lon="-0.93411">
        <ele>57.375707</ele>
        <time>2022-12-27T12:55:07.737Z</time>
      </trkpt>
      <trkpt lat="44.60122" lon="-0.93399">
        <ele>57.39571</ele>
        <time>2022-12-27T12:55:09.712Z</time>
      </trkpt>
      <trkpt lat="44.60117" lon="-0.93387">
        <ele>57.340476</ele>
        <time>2022-12-27T12:55:11.713Z</time>
      </trkpt>
      <trkpt lat="44.60112" lon="-0.93375">
        <ele>57.234451</ele>
        <time>2022-12-27T12:55:13.716Z</time>
      </trkpt>
      <trkpt lat="44.60107" lon="-0.93363">
        <ele>57.131499</ele>
        <time>2022-12-27T12:55:15.730Z</time>
      </trkpt>
      <trkpt lat="44.60102" lon="-0.93351">
        <ele>57.024297</ele>
        <time>2022-12-27T12:55:17.731Z</time>
      </trkpt>
      <trkpt lat="44.60096" lon="-0.93339">
        <ele>56.923291</ele>
        <time>2022-12-27T12:55:19.710Z</time>
      </trkpt>
      <trkpt lat="44.60091" lon="-0.93328">
        <ele>56.827658</ele>
        <time>2022-12-27T12:55:21.708Z</time>
      </trkpt>
      <trkpt lat="44.60086" lon="-0.93317">
        <ele>56.730768</ele>
        <time>2022-12-27T12:55:23.713Z</time>
      </trkpt>
      <trkpt lat="44.60082" lon="-0.93306">
        <ele>56.634845</ele>
        <time>2022-12-27T12:55:25.803Z</time>
      </trkpt>
      <trkpt lat="44.60074" lon="-0.9329">
        <ele>56.493413</ele>
        <time>2022-12-27T12:55:28.731Z</time>
      </trkpt>
      <trkpt lat="44.60068" lon="-0.93275">
        <ele>56.362165</ele>
        <time>2022-12-27T12:55:31.744Z</time>
      </trkpt>
      <trkpt lat="44.6006" lon="-0.93259">
        <ele>56.220707</ele>
        <time>2022-12-27T12:55:34.735Z</time>
      </trkpt>
      <trkpt lat="44.60055" lon="-0.93248">
        <ele>56.12521</ele>
        <time>2022-12-27T12:55:36.727Z</time>
      </trkpt>
      <trkpt lat="44.60048" lon="-0.93231">
        <ele>55.975002</ele>
        <time>2022-12-27T12:55:39.730Z</time>
      </trkpt>
      <trkpt lat="44.60044" lon="-0.9322">
        <ele>55.881092</ele>
        <time>2022-12-27T12:55:41.717Z</time>
      </trkpt>
      <trkpt lat="44.60039" lon="-0.93208">
        <ele>55.782438</ele>
        <time>2022-12-27T12:55:43.729Z</time>
      </trkpt>
      <trkpt lat="44.60034" lon="-0.93197">
        <ele>55.684482</ele>
        <time>2022-12-27T12:55:45.709Z</time>
      </trkpt>
      <trkpt lat="44.6003" lon="-0.93185">
        <ele>55.585977</ele>
        <time>2022-12-27T12:55:47.729Z</time>
      </trkpt>
      <trkpt lat="44.60025" lon="-0.93174">
        <ele>55.533657</ele>
        <time>2022-12-27T12:55:49.731Z</time>
      </trkpt>
      <trkpt lat="44.6002" lon="-0.93163">
        <ele>55.542566</ele>
        <time>2022-12-27T12:55:51.708Z</time>
      </trkpt>
      <trkpt lat="44.60012" lon="-0.93149">
        <ele>55.554975</ele>
        <time>2022-12-27T12:55:54.790Z</time>
      </trkpt>
      <trkpt lat="44.60006" lon="-0.93137">
        <ele>55.564609</ele>
        <time>2022-12-27T12:55:56.728Z</time>
      </trkpt>
      <trkpt lat="44.60002" lon="-0.93125">
        <ele>55.573764</ele>
        <time>2022-12-27T12:55:58.733Z</time>
      </trkpt>
      <trkpt lat="44.59995" lon="-0.9311">
        <ele>55.586309</ele>
        <time>2022-12-27T12:56:01.737Z</time>
      </trkpt>
      <trkpt lat="44.59988" lon="-0.93094">
        <ele>55.59842</ele>
        <time>2022-12-27T12:56:04.735Z</time>
      </trkpt>
      <trkpt lat="44.59982" lon="-0.93079">
        <ele>55.610327</ele>
        <time>2022-12-27T12:56:07.732Z</time>
      </trkpt>
      <trkpt lat="44.59975" lon="-0.93063">
        <ele>55.623155</ele>
        <time>2022-12-27T12:56:10.734Z</time>
      </trkpt>
      <trkpt lat="44.59969" lon="-0.93048">
        <ele>55.634754</ele>
        <time>2022-12-27T12:56:13.728Z</time>
      </trkpt>
      <trkpt lat="44.59962" lon="-0.93033">
        <ele>55.647408</ele>
        <time>2022-12-27T12:56:16.728Z</time>
      </trkpt>
      <trkpt lat="44.59956" lon="-0.93017">
        <ele>55.659897</ele>
        <time>2022-12-27T12:56:19.738Z</time>
      </trkpt>
      <trkpt lat="44.59951" lon="-0.93006">
        <ele>55.668611</ele>
        <time>2022-12-27T12:56:21.712Z</time>
      </trkpt>
      <trkpt lat="44.59947" lon="-0.92994">
        <ele>55.677622</ele>
        <time>2022-12-27T12:56:23.733Z</time>
      </trkpt>
      <trkpt lat="44.5994" lon="-0.92978">
        <ele>55.690146</ele>
        <time>2022-12-27T12:56:26.726Z</time>
      </trkpt>
      <trkpt lat="44.59933" lon="-0.92962">
        <ele>55.717854</ele>
        <time>2022-12-27T12:56:29.706Z</time>
      </trkpt>
      <trkpt lat="44.59927" lon="-0.92947">
        <ele>56.033728</ele>
        <time>2022-12-27T12:56:32.731Z</time>
      </trkpt>
      <trkpt lat="44.5992" lon="-0.92931">
        <ele>56.366636</ele>
        <time>2022-12-27T12:56:35.731Z</time>
      </trkpt>
      <trkpt lat="44.59915" lon="-0.9292">
        <ele>56.619352</ele>
        <time>2022-12-27T12:56:37.737Z</time>
      </trkpt>
      <trkpt lat="44.5991" lon="-0.92908">
        <ele>56.860352</ele>
        <time>2022-12-27T12:56:39.733Z</time>
      </trkpt>
      <trkpt lat="44.59903" lon="-0.92891">
        <ele>57.204431</ele>
        <time>2022-12-27T12:56:42.734Z</time>
      </trkpt>
      <trkpt lat="44.59899" lon="-0.9288">
        <ele>57.441698</ele>
        <time>2022-12-27T12:56:44.732Z</time>
      </trkpt>
      <trkpt lat="44.59893" lon="-0.92867">
        <ele>57.704308</ele>
        <time>2022-12-27T12:56:46.734Z</time>
      </trkpt>
      <trkpt lat="44.59888" lon="-0.92855">
        <ele>57.960285</ele>
        <time>2022-12-27T12:56:48.737Z</time>
      </trkpt>
      <trkpt lat="44.59884" lon="-0.92843">
        <ele>58.205281</ele>
        <time>2022-12-27T12:56:50.732Z</time>
      </trkpt>
      <trkpt lat="44.59879" lon="-0.92831">
        <ele>58.457859</ele>
        <time>2022-12-27T12:56:52.730Z</time>
      </trkpt>
      <trkpt lat="44.59874" lon="-0.92819">
        <ele>58.705739</ele>
        <time>2022-12-27T12:56:54.729Z</time>
      </trkpt>
      <trkpt lat="44.59868" lon="-0.92808">
        <ele>58.952518</ele>
        <time>2022-12-27T12:56:56.708Z</time>
      </trkpt>
      <trkpt lat="44.59862" lon="-0.92797">
        <ele>59.208147</ele>
        <time>2022-12-27T12:56:58.716Z</time>
      </trkpt>
      <trkpt lat="44.59856" lon="-0.92784">
        <ele>59.485994</ele>
        <time>2022-12-27T12:57:00.729Z</time>
      </trkpt>
      <trkpt lat="44.59849" lon="-0.92767">
        <ele>59.843554</ele>
        <time>2022-12-27T12:57:03.789Z</time>
      </trkpt>
      <trkpt lat="44.59845" lon="-0.92755">
        <ele>60.08575</ele>
        <time>2022-12-27T12:57:05.735Z</time>
      </trkpt>
      <trkpt lat="44.59838" lon="-0.92742">
        <ele>60.196524</ele>
        <time>2022-12-27T12:57:07.713Z</time>
      </trkpt>
      <trkpt lat="44.59833" lon="-0.92728">
        <ele>60.065126</ele>
        <time>2022-12-27T12:57:09.734Z</time>
      </trkpt>
      <trkpt lat="44.59827" lon="-0.92716">
        <ele>59.932157</ele>
        <time>2022-12-27T12:57:11.708Z</time>
      </trkpt>
      <trkpt lat="44.59818" lon="-0.927">
        <ele>59.756994</ele>
        <time>2022-12-27T12:57:14.754Z</time>
      </trkpt>
      <trkpt lat="44.59812" lon="-0.92687">
        <ele>59.622574</ele>
        <time>2022-12-27T12:57:16.735Z</time>
      </trkpt>
      <trkpt lat="44.59806" lon="-0.92673">
        <ele>59.478008</ele>
        <time>2022-12-27T12:57:18.731Z</time>
      </trkpt>
      <trkpt lat="44.59801" lon="-0.92659">
        <ele>59.341969</ele>
        <time>2022-12-27T12:57:20.734Z</time>
      </trkpt>
      <trkpt lat="44.59795" lon="-0.92646">
        <ele>59.205119</ele>
        <time>2022-12-27T12:57:22.742Z</time>
      </trkpt>
      <trkpt lat="44.59789" lon="-0.92631">
        <ele>59.056116</ele>
        <time>2022-12-27T12:57:24.719Z</time>
      </trkpt>
      <trkpt lat="44.59784" lon="-0.92619">
        <ele>58.926667</ele>
        <time>2022-12-27T12:57:26.735Z</time>
      </trkpt>
      <trkpt lat="44.59778" lon="-0.92606">
        <ele>58.800394</ele>
        <time>2022-12-27T12:57:28.737Z</time>
      </trkpt>
      <trkpt lat="44.59773" lon="-0.92594">
        <ele>58.679373</ele>
        <time>2022-12-27T12:57:30.729Z</time>
      </trkpt>
      <trkpt lat="44.59769" lon="-0.92583">
        <ele>58.563462</ele>
        <time>2022-12-27T12:57:32.735Z</time>
      </trkpt>
      <trkpt lat="44.59763" lon="-0.92569">
        <ele>58.428192</ele>
        <time>2022-12-27T12:57:34.733Z</time>
      </trkpt>
      <trkpt lat="44.59758" lon="-0.92557">
        <ele>58.304675</ele>
        <time>2022-12-27T12:57:36.730Z</time>
      </trkpt>
      <trkpt lat="44.59753" lon="-0.92545">
        <ele>58.175088</ele>
        <time>2022-12-27T12:57:38.734Z</time>
      </trkpt>
      <trkpt lat="44.59747" lon="-0.9253">
        <ele>58.040229</ele>
        <time>2022-12-27T12:57:40.732Z</time>
      </trkpt>
      <trkpt lat="44.59742" lon="-0.92517">
        <ele>58.031611</ele>
        <time>2022-12-27T12:57:42.737Z</time>
      </trkpt>
      <trkpt lat="44.59736" lon="-0.92503">
        <ele>58.022115</ele>
        <time>2022-12-27T12:57:44.726Z</time>
      </trkpt>
      <trkpt lat="44.59731" lon="-0.92488">
        <ele>58.012695</ele>
        <time>2022-12-27T12:57:46.728Z</time>
      </trkpt>
      <trkpt lat="44.59725" lon="-0.92475">
        <ele>58.003258</ele>
        <time>2022-12-27T12:57:48.724Z</time>
      </trkpt>
      <trkpt lat="44.59719" lon="-0.92461">
        <ele>57.994177</ele>
        <time>2022-12-27T12:57:50.726Z</time>
      </trkpt>
      <trkpt lat="44.59714" lon="-0.92447">
        <ele>57.985088</ele>
        <time>2022-12-27T12:57:52.728Z</time>
      </trkpt>
      <trkpt lat="44.59709" lon="-0.92433">
        <ele>57.976293</ele>
        <time>2022-12-27T12:57:54.770Z</time>
      </trkpt>
      <trkpt lat="44.59704" lon="-0.9242">
        <ele>57.967585</ele>
        <time>2022-12-27T12:57:56.729Z</time>
      </trkpt>
      <trkpt lat="44.59697" lon="-0.92406">
        <ele>57.957969</ele>
        <time>2022-12-27T12:57:58.731Z</time>
      </trkpt>
      <trkpt lat="44.59691" lon="-0.92393">
        <ele>57.94863</ele>
        <time>2022-12-27T12:58:00.788Z</time>
      </trkpt>
      <trkpt lat="44.59686" lon="-0.9238">
        <ele>57.939989</ele>
        <time>2022-12-27T12:58:02.729Z</time>
      </trkpt>
      <trkpt lat="44.5968" lon="-0.92369">
        <ele>57.93222</ele>
        <time>2022-12-27T12:58:04.719Z</time>
      </trkpt>
      <trkpt lat="44.59675" lon="-0.92358">
        <ele>57.924497</ele>
        <time>2022-12-27T12:58:06.798Z</time>
      </trkpt>
      <trkpt lat="44.59669" lon="-0.92346">
        <ele>57.916286</ele>
        <time>2022-12-27T12:58:08.734Z</time>
      </trkpt>
      <trkpt lat="44.59666" lon="-0.92333">
        <ele>57.908248</ele>
        <time>2022-12-27T12:58:10.731Z</time>
      </trkpt>
      <trkpt lat="44.5966" lon="-0.9232">
        <ele>57.899325</ele>
        <time>2022-12-27T12:58:12.735Z</time>
      </trkpt>
      <trkpt lat="44.59654" lon="-0.92307">
        <ele>57.838537</ele>
        <time>2022-12-27T12:58:14.734Z</time>
      </trkpt>
      <trkpt lat="44.59648" lon="-0.92294">
        <ele>57.726208</ele>
        <time>2022-12-27T12:58:16.710Z</time>
      </trkpt>
      <trkpt lat="44.59644" lon="-0.92282">
        <ele>57.631005</ele>
        <time>2022-12-27T12:58:18.732Z</time>
      </trkpt>
      <trkpt lat="44.59639" lon="-0.92272">
        <ele>57.539186</ele>
        <time>2022-12-27T12:58:20.732Z</time>
      </trkpt>
      <trkpt lat="44.59633" lon="-0.9226">
        <ele>57.440365</ele>
        <time>2022-12-27T12:58:22.732Z</time>
      </trkpt>
      <trkpt lat="44.59629" lon="-0.92249">
        <ele>57.348395</ele>
        <time>2022-12-27T12:58:24.720Z</time>
      </trkpt>
      <trkpt lat="44.59622" lon="-0.92238">
        <ele>57.246006</ele>
        <time>2022-12-27T12:58:26.723Z</time>
      </trkpt>
      <trkpt lat="44.59618" lon="-0.92226">
        <ele>57.147416</ele>
        <time>2022-12-27T12:58:28.713Z</time>
      </trkpt>
      <trkpt lat="44.59612" lon="-0.92215">
        <ele>57.047464</ele>
        <time>2022-12-27T12:58:30.716Z</time>
      </trkpt>
      <trkpt lat="44.59606" lon="-0.92206">
        <ele>56.957026</ele>
        <time>2022-12-27T12:58:32.731Z</time>
      </trkpt>
      <trkpt lat="44.59599" lon="-0.92193">
        <ele>56.841185</ele>
        <time>2022-12-27T12:58:35.803Z</time>
      </trkpt>
      <trkpt lat="44.59593" lon="-0.92179">
        <ele>56.722367</ele>
        <time>2022-12-27T12:58:37.731Z</time>
      </trkpt>
      <trkpt lat="44.59585" lon="-0.92169">
        <ele>56.615026</ele>
        <time>2022-12-27T12:58:39.729Z</time>
      </trkpt>
      <trkpt lat="44.59579" lon="-0.92158">
        <ele>56.51713</ele>
        <time>2022-12-27T12:58:41.736Z</time>
      </trkpt>
      <trkpt lat="44.59573" lon="-0.92148">
        <ele>56.421218</ele>
        <time>2022-12-27T12:58:43.734Z</time>
      </trkpt>
      <trkpt lat="44.59567" lon="-0.92137">
        <ele>56.321725</ele>
        <time>2022-12-27T12:58:45.733Z</time>
      </trkpt>
      <trkpt lat="44.59558" lon="-0.92124">
        <ele>56.193308</ele>
        <time>2022-12-27T12:58:48.735Z</time>
      </trkpt>
      <trkpt lat="44.59549" lon="-0.9211">
        <ele>56.080918</ele>
        <time>2022-12-27T12:58:51.715Z</time>
      </trkpt>
      <trkpt lat="44.59541" lon="-0.92096">
        <ele>56.160494</ele>
        <time>2022-12-27T12:58:54.714Z</time>
      </trkpt>
      <trkpt lat="44.59533" lon="-0.92082">
        <ele>56.237104</ele>
        <time>2022-12-27T12:58:57.710Z</time>
      </trkpt>
      <trkpt lat="44.59526" lon="-0.92072">
        <ele>56.293337</ele>
        <time>2022-12-27T12:58:59.728Z</time>
      </trkpt>
      <trkpt lat="44.59521" lon="-0.92062">
        <ele>56.348133</ele>
        <time>2022-12-27T12:59:01.709Z</time>
      </trkpt>
      <trkpt lat="44.59513" lon="-0.9205">
        <ele>56.416813</ele>
        <time>2022-12-27T12:59:04.722Z</time>
      </trkpt>
      <trkpt lat="44.59506" lon="-0.92038">
        <ele>56.484606</ele>
        <time>2022-12-27T12:59:07.735Z</time>
      </trkpt>
      <trkpt lat="44.59498" lon="-0.92025">
        <ele>56.558481</ele>
        <time>2022-12-27T12:59:10.730Z</time>
      </trkpt>
      <trkpt lat="44.5949" lon="-0.92012">
        <ele>56.63189</ele>
        <time>2022-12-27T12:59:13.721Z</time>
      </trkpt>
      <trkpt lat="44.59481" lon="-0.91999">
        <ele>56.708207</ele>
        <time>2022-12-27T12:59:16.731Z</time>
      </trkpt>
      <trkpt lat="44.59474" lon="-0.91986">
        <ele>56.780706</ele>
        <time>2022-12-27T12:59:19.722Z</time>
      </trkpt>
      <trkpt lat="44.59468" lon="-0.91977">
        <ele>56.835645</ele>
        <time>2022-12-27T12:59:21.750Z</time>
      </trkpt>
      <trkpt lat="44.59461" lon="-0.91968">
        <ele>56.891438</ele>
        <time>2022-12-27T12:59:23.732Z</time>
      </trkpt>
      <trkpt lat="44.59453" lon="-0.91955">
        <ele>56.966436</ele>
        <time>2022-12-27T12:59:26.727Z</time>
      </trkpt>
      <trkpt lat="44.59444" lon="-0.91943">
        <ele>57.040281</ele>
        <time>2022-12-27T12:59:29.731Z</time>
      </trkpt>
      <trkpt lat="44.59435" lon="-0.91931">
        <ele>57.114632</ele>
        <time>2022-12-27T12:59:32.733Z</time>
      </trkpt>
      <trkpt lat="44.59428" lon="-0.91922">
        <ele>57.193278</ele>
        <time>2022-12-27T12:59:34.733Z</time>
      </trkpt>
      <trkpt lat="44.59418" lon="-0.9191">
        <ele>57.422055</ele>
        <time>2022-12-27T12:59:37.733Z</time>
      </trkpt>
      <trkpt lat="44.59408" lon="-0.91897">
        <ele>57.631599</ele>
        <time>2022-12-27T12:59:40.733Z</time>
      </trkpt>
      <trkpt lat="44.59399" lon="-0.91884">
        <ele>57.851661</ele>
        <time>2022-12-27T12:59:43.734Z</time>
      </trkpt>
      <trkpt lat="44.59391" lon="-0.91873">
        <ele>58.0411</ele>
        <time>2022-12-27T12:59:46.732Z</time>
      </trkpt>
      <trkpt lat="44.59381" lon="-0.91862">
        <ele>58.241097</ele>
        <time>2022-12-27T12:59:49.732Z</time>
      </trkpt>
      <trkpt lat="44.59373" lon="-0.9185">
        <ele>58.441011</ele>
        <time>2022-12-27T12:59:52.753Z</time>
      </trkpt>
      <trkpt lat="44.59364" lon="-0.91838">
        <ele>58.648954</ele>
        <time>2022-12-27T12:59:55.732Z</time>
      </trkpt>
      <trkpt lat="44.59357" lon="-0.9183">
        <ele>58.797867</ele>
        <time>2022-12-27T12:59:57.734Z</time>
      </trkpt>
      <trkpt lat="44.59347" lon="-0.91818">
        <ele>59.017799</ele>
        <time>2022-12-27T13:00:00.734Z</time>
      </trkpt>
      <trkpt lat="44.59337" lon="-0.91806">
        <ele>59.231796</ele>
        <time>2022-12-27T13:00:03.732Z</time>
      </trkpt>
      <trkpt lat="44.59327" lon="-0.91794">
        <ele>59.442659</ele>
        <time>2022-12-27T13:00:06.706Z</time>
      </trkpt>
      <trkpt lat="44.59317" lon="-0.91783">
        <ele>59.654807</ele>
        <time>2022-12-27T13:00:09.732Z</time>
      </trkpt>
      <trkpt lat="44.59308" lon="-0.91772">
        <ele>59.851734</ele>
        <time>2022-12-27T13:00:12.731Z</time>
      </trkpt>
      <trkpt lat="44.59299" lon="-0.91762">
        <ele>60.044179</ele>
        <time>2022-12-27T13:00:15.730Z</time>
      </trkpt>
      <trkpt lat="44.59289" lon="-0.91751">
        <ele>60.171935</ele>
        <time>2022-12-27T13:00:18.731Z</time>
      </trkpt>
      <trkpt lat="44.59279" lon="-0.91739">
        <ele>60.246767</ele>
        <time>2022-12-27T13:00:21.703Z</time>
      </trkpt>
      <trkpt lat="44.59269" lon="-0.91729">
        <ele>60.318343</ele>
        <time>2022-12-27T13:00:24.729Z</time>
      </trkpt>
      <trkpt lat="44.59259" lon="-0.91718">
        <ele>60.393419</ele>
        <time>2022-12-27T13:00:27.730Z</time>
      </trkpt>
      <trkpt lat="44.59248" lon="-0.91708">
        <ele>60.46543</ele>
        <time>2022-12-27T13:00:30.731Z</time>
      </trkpt>
      <trkpt lat="44.59241" lon="-0.91701">
        <ele>60.517643</ele>
        <time>2022-12-27T13:00:32.733Z</time>
      </trkpt>
      <trkpt lat="44.59234" lon="-0.91693">
        <ele>60.569651</ele>
        <time>2022-12-27T13:00:34.731Z</time>
      </trkpt>
      <trkpt lat="44.59224" lon="-0.91683">
        <ele>60.64143</ele>
        <time>2022-12-27T13:00:37.732Z</time>
      </trkpt>
      <trkpt lat="44.59214" lon="-0.91673">
        <ele>60.711549</ele>
        <time>2022-12-27T13:00:40.733Z</time>
      </trkpt>
      <trkpt lat="44.59206" lon="-0.91666">
        <ele>60.764027</ele>
        <time>2022-12-27T13:00:42.730Z</time>
      </trkpt>
      <trkpt lat="44.59195" lon="-0.91657">
        <ele>60.838317</ele>
        <time>2022-12-27T13:00:45.732Z</time>
      </trkpt>
      <trkpt lat="44.59185" lon="-0.91647">
        <ele>60.909159</ele>
        <time>2022-12-27T13:00:48.734Z</time>
      </trkpt>
      <trkpt lat="44.59174" lon="-0.91637">
        <ele>60.983294</ele>
        <time>2022-12-27T13:00:51.712Z</time>
      </trkpt>
      <trkpt lat="44.59165" lon="-0.91628">
        <ele>61.047748</ele>
        <time>2022-12-27T13:00:54.734Z</time>
      </trkpt>
      <trkpt lat="44.59155" lon="-0.91618">
        <ele>61.121883</ele>
        <time>2022-12-27T13:00:57.732Z</time>
      </trkpt>
      <trkpt lat="44.59145" lon="-0.91609">
        <ele>61.221486</ele>
        <time>2022-12-27T13:01:00.748Z</time>
      </trkpt>
      <trkpt lat="44.59135" lon="-0.91599">
        <ele>61.382007</ele>
        <time>2022-12-27T13:01:03.733Z</time>
      </trkpt>
      <trkpt lat="44.59125" lon="-0.91591">
        <ele>61.544008</ele>
        <time>2022-12-27T13:01:06.744Z</time>
      </trkpt>
      <trkpt lat="44.59115" lon="-0.91581">
        <ele>61.712483</ele>
        <time>2022-12-27T13:01:09.733Z</time>
      </trkpt>
      <trkpt lat="44.59105" lon="-0.91571">
        <ele>61.889428</ele>
        <time>2022-12-27T13:01:12.731Z</time>
      </trkpt>
      <trkpt lat="44.59094" lon="-0.91561">
        <ele>62.065235</ele>
        <time>2022-12-27T13:01:15.719Z</time>
      </trkpt>
      <trkpt lat="44.59084" lon="-0.91551">
        <ele>62.238778</ele>
        <time>2022-12-27T13:01:18.724Z</time>
      </trkpt>
      <trkpt lat="44.59074" lon="-0.91541">
        <ele>62.412907</ele>
        <time>2022-12-27T13:01:21.705Z</time>
      </trkpt>
      <trkpt lat="44.59064" lon="-0.9153">
        <ele>62.583744</ele>
        <time>2022-12-27T13:01:24.732Z</time>
      </trkpt>
      <trkpt lat="44.59054" lon="-0.9152">
        <ele>62.757287</ele>
        <time>2022-12-27T13:01:27.732Z</time>
      </trkpt>
      <trkpt lat="44.59043" lon="-0.9151">
        <ele>62.930864</ele>
        <time>2022-12-27T13:01:30.732Z</time>
      </trkpt>
      <trkpt lat="44.59033" lon="-0.91499">
        <ele>63.111245</ele>
        <time>2022-12-27T13:01:33.708Z</time>
      </trkpt>
      <trkpt lat="44.59025" lon="-0.91492">
        <ele>63.237209</ele>
        <time>2022-12-27T13:01:35.736Z</time>
      </trkpt>
      <trkpt lat="44.59018" lon="-0.91485">
        <ele>63.363113</ele>
        <time>2022-12-27T13:01:37.732Z</time>
      </trkpt>
      <trkpt lat="44.5901" lon="-0.91478">
        <ele>63.489621</ele>
        <time>2022-12-27T13:01:39.732Z</time>
      </trkpt>
      <trkpt lat="44.59002" lon="-0.91471">
        <ele>63.619408</ele>
        <time>2022-12-27T13:01:41.709Z</time>
      </trkpt>
      <trkpt lat="44.58994" lon="-0.91465">
        <ele>63.735671</ele>
        <time>2022-12-27T13:01:43.783Z</time>
      </trkpt>
      <trkpt lat="44.58987" lon="-0.91457">
        <ele>63.846557</ele>
        <time>2022-12-27T13:01:45.733Z</time>
      </trkpt>
      <trkpt lat="44.58976" lon="-0.91448">
        <ele>63.999269</ele>
        <time>2022-12-27T13:01:48.732Z</time>
      </trkpt>
      <trkpt lat="44.58967" lon="-0.91439">
        <ele>64.133018</ele>
        <time>2022-12-27T13:01:51.712Z</time>
      </trkpt>
      <trkpt lat="44.58959" lon="-0.9143">
        <ele>64.265775</ele>
        <time>2022-12-27T13:01:54.730Z</time>
      </trkpt>
      <trkpt lat="44.58949" lon="-0.9142">
        <ele>64.415444</ele>
        <time>2022-12-27T13:01:57.728Z</time>
      </trkpt>
      <trkpt lat="44.58939" lon="-0.9141">
        <ele>64.556163</ele>
        <time>2022-12-27T13:02:00.731Z</time>
      </trkpt>
      <trkpt lat="44.5893" lon="-0.91401">
        <ele>64.691424</ele>
        <time>2022-12-27T13:02:03.733Z</time>
      </trkpt>
      <trkpt lat="44.58923" lon="-0.91394">
        <ele>64.801328</ele>
        <time>2022-12-27T13:02:05.732Z</time>
      </trkpt>
      <trkpt lat="44.58912" lon="-0.91383">
        <ele>64.96549</ele>
        <time>2022-12-27T13:02:08.732Z</time>
      </trkpt>
      <trkpt lat="44.58901" lon="-0.91373">
        <ele>65.126098</ele>
        <time>2022-12-27T13:02:11.711Z</time>
      </trkpt>
      <trkpt lat="44.58892" lon="-0.91363">
        <ele>65.264478</ele>
        <time>2022-12-27T13:02:13.732Z</time>
      </trkpt>
      <trkpt lat="44.58884" lon="-0.91357">
        <ele>65.374677</ele>
        <time>2022-12-27T13:02:15.730Z</time>
      </trkpt>
      <trkpt lat="44.58872" lon="-0.91347">
        <ele>65.5411</ele>
        <time>2022-12-27T13:02:18.808Z</time>
      </trkpt>
      <trkpt lat="44.5886" lon="-0.91336">
        <ele>65.71364</ele>
        <time>2022-12-27T13:02:21.713Z</time>
      </trkpt>
      <trkpt lat="44.58852" lon="-0.91327">
        <ele>65.841954</ele>
        <time>2022-12-27T13:02:23.732Z</time>
      </trkpt>
      <trkpt lat="44.58843" lon="-0.9132">
        <ele>65.757113</ele>
        <time>2022-12-27T13:02:25.728Z</time>
      </trkpt>
      <trkpt lat="44.58834" lon="-0.91312">
        <ele>65.662266</ele>
        <time>2022-12-27T13:02:27.747Z</time>
      </trkpt>
      <trkpt lat="44.58827" lon="-0.91304">
        <ele>65.57717</ele>
        <time>2022-12-27T13:02:29.725Z</time>
      </trkpt>
      <trkpt lat="44.58819" lon="-0.91296">
        <ele>65.484596</ele>
        <time>2022-12-27T13:02:31.715Z</time>
      </trkpt>
      <trkpt lat="44.58811" lon="-0.91287">
        <ele>65.394997</ele>
        <time>2022-12-27T13:02:33.731Z</time>
      </trkpt>
      <trkpt lat="44.58803" lon="-0.9128">
        <ele>65.306538</ele>
        <time>2022-12-27T13:02:35.735Z</time>
      </trkpt>
      <trkpt lat="44.58791" lon="-0.91269">
        <ele>65.179898</ele>
        <time>2022-12-27T13:02:38.736Z</time>
      </trkpt>
      <trkpt lat="44.58782" lon="-0.91262">
        <ele>65.088245</ele>
        <time>2022-12-27T13:02:40.734Z</time>
      </trkpt>
      <trkpt lat="44.58774" lon="-0.91254">
        <ele>64.998276</ele>
        <time>2022-12-27T13:02:42.768Z</time>
      </trkpt>
      <trkpt lat="44.58766" lon="-0.91247">
        <ele>64.909972</ele>
        <time>2022-12-27T13:02:44.729Z</time>
      </trkpt>
      <trkpt lat="44.58758" lon="-0.9124">
        <ele>64.822241</ele>
        <time>2022-12-27T13:02:46.734Z</time>
      </trkpt>
      <trkpt lat="44.5875" lon="-0.91232">
        <ele>64.733782</ele>
        <time>2022-12-27T13:02:48.778Z</time>
      </trkpt>
      <trkpt lat="44.58742" lon="-0.91225">
        <ele>64.647928</ele>
        <time>2022-12-27T13:02:50.729Z</time>
      </trkpt>
      <trkpt lat="44.58734" lon="-0.91217">
        <ele>64.560954</ele>
        <time>2022-12-27T13:02:52.730Z</time>
      </trkpt>
      <trkpt lat="44.58726" lon="-0.9121">
        <ele>64.471867</ele>
        <time>2022-12-27T13:02:54.807Z</time>
      </trkpt>
      <trkpt lat="44.58718" lon="-0.91202">
        <ele>64.387476</ele>
        <time>2022-12-27T13:02:56.734Z</time>
      </trkpt>
      <trkpt lat="44.58711" lon="-0.91195">
        <ele>64.303816</ele>
        <time>2022-12-27T13:02:58.733Z</time>
      </trkpt>
      <trkpt lat="44.58703" lon="-0.91188">
        <ele>64.218347</ele>
        <time>2022-12-27T13:03:00.725Z</time>
      </trkpt>
      <trkpt lat="44.58695" lon="-0.9118">
        <ele>64.128761</ele>
        <time>2022-12-27T13:03:02.733Z</time>
      </trkpt>
      <trkpt lat="44.58687" lon="-0.91173">
        <ele>64.03676</ele>
        <time>2022-12-27T13:03:04.732Z</time>
      </trkpt>
      <trkpt lat="44.58678" lon="-0.91165">
        <ele>63.939708</ele>
        <time>2022-12-27T13:03:06.727Z</time>
      </trkpt>
      <trkpt lat="44.5867" lon="-0.91157">
        <ele>63.847345</ele>
        <time>2022-12-27T13:03:08.730Z</time>
      </trkpt>
      <trkpt lat="44.58662" lon="-0.91149">
        <ele>63.751113</ele>
        <time>2022-12-27T13:03:10.732Z</time>
      </trkpt>
      <trkpt lat="44.58654" lon="-0.91141">
        <ele>63.655948</ele>
        <time>2022-12-27T13:03:12.734Z</time>
      </trkpt>
      <trkpt lat="44.58645" lon="-0.91134">
        <ele>63.559889</ele>
        <time>2022-12-27T13:03:14.809Z</time>
      </trkpt>
      <trkpt lat="44.58637" lon="-0.91126">
        <ele>63.467905</ele>
        <time>2022-12-27T13:03:16.736Z</time>
      </trkpt>
      <trkpt lat="44.58629" lon="-0.91118">
        <ele>63.37708</ele>
        <time>2022-12-27T13:03:18.734Z</time>
      </trkpt>
      <trkpt lat="44.58619" lon="-0.91107">
        <ele>63.254559</ele>
        <time>2022-12-27T13:03:21.711Z</time>
      </trkpt>
      <trkpt lat="44.5861" lon="-0.911">
        <ele>63.161838</ele>
        <time>2022-12-27T13:03:23.733Z</time>
      </trkpt>
      <trkpt lat="44.58602" lon="-0.91093">
        <ele>63.068988</ele>
        <time>2022-12-27T13:03:25.785Z</time>
      </trkpt>
      <trkpt lat="44.58595" lon="-0.91085">
        <ele>62.98217</ele>
        <time>2022-12-27T13:03:27.733Z</time>
      </trkpt>
      <trkpt lat="44.58586" lon="-0.91077">
        <ele>62.884603</ele>
        <time>2022-12-27T13:03:29.735Z</time>
      </trkpt>
      <trkpt lat="44.58577" lon="-0.9107">
        <ele>62.791201</ele>
        <time>2022-12-27T13:03:31.746Z</time>
      </trkpt>
      <trkpt lat="44.58569" lon="-0.91062">
        <ele>62.694201</ele>
        <time>2022-12-27T13:03:33.712Z</time>
      </trkpt>
      <trkpt lat="44.58558" lon="-0.91051">
        <ele>62.57208</ele>
        <time>2022-12-27T13:03:36.731Z</time>
      </trkpt>
      <trkpt lat="44.58551" lon="-0.91045">
        <ele>62.512882</ele>
        <time>2022-12-27T13:03:38.717Z</time>
      </trkpt>
      <trkpt lat="44.58543" lon="-0.91036">
        <ele>62.542658</ele>
        <time>2022-12-27T13:03:40.735Z</time>
      </trkpt>
      <trkpt lat="44.58533" lon="-0.91029">
        <ele>62.57487</ele>
        <time>2022-12-27T13:03:42.732Z</time>
      </trkpt>
      <trkpt lat="44.58526" lon="-0.91021">
        <ele>62.603412</ele>
        <time>2022-12-27T13:03:44.734Z</time>
      </trkpt>
      <trkpt lat="44.58518" lon="-0.91014">
        <ele>62.630738</ele>
        <time>2022-12-27T13:03:46.732Z</time>
      </trkpt>
      <trkpt lat="44.5851" lon="-0.91006">
        <ele>62.661371</ele>
        <time>2022-12-27T13:03:48.734Z</time>
      </trkpt>
      <trkpt lat="44.58502" lon="-0.90998">
        <ele>62.689933</ele>
        <time>2022-12-27T13:03:50.734Z</time>
      </trkpt>
      <trkpt lat="44.58494" lon="-0.9099">
        <ele>62.718863</ele>
        <time>2022-12-27T13:03:52.732Z</time>
      </trkpt>
      <trkpt lat="44.58487" lon="-0.90982">
        <ele>62.746548</ele>
        <time>2022-12-27T13:03:54.719Z</time>
      </trkpt>
      <trkpt lat="44.58479" lon="-0.90974">
        <ele>62.775459</ele>
        <time>2022-12-27T13:03:56.733Z</time>
      </trkpt>
      <trkpt lat="44.5847" lon="-0.90967">
        <ele>62.804699</ele>
        <time>2022-12-27T13:03:58.730Z</time>
      </trkpt>
      <trkpt lat="44.58462" lon="-0.9096">
        <ele>62.833538</ele>
        <time>2022-12-27T13:04:00.734Z</time>
      </trkpt>
      <trkpt lat="44.58454" lon="-0.90952">
        <ele>62.863188</ele>
        <time>2022-12-27T13:04:02.733Z</time>
      </trkpt>
      <trkpt lat="44.58445" lon="-0.90944">
        <ele>62.894627</ele>
        <time>2022-12-27T13:04:04.734Z</time>
      </trkpt>
      <trkpt lat="44.58437" lon="-0.90936">
        <ele>62.924277</ele>
        <time>2022-12-27T13:04:06.727Z</time>
      </trkpt>
      <trkpt lat="44.58429" lon="-0.90929">
        <ele>62.953807</ele>
        <time>2022-12-27T13:04:08.709Z</time>
      </trkpt>
      <trkpt lat="44.58421" lon="-0.90921">
        <ele>62.983944</ele>
        <time>2022-12-27T13:04:10.732Z</time>
      </trkpt>
      <trkpt lat="44.58413" lon="-0.90913">
        <ele>63.01143</ele>
        <time>2022-12-27T13:04:12.735Z</time>
      </trkpt>
      <trkpt lat="44.58405" lon="-0.90906">
        <ele>63.039411</ele>
        <time>2022-12-27T13:04:14.735Z</time>
      </trkpt>
      <trkpt lat="44.58397" lon="-0.90895">
        <ele>63.193505</ele>
        <time>2022-12-27T13:04:17.731Z</time>
      </trkpt>
      <trkpt lat="44.58385" lon="-0.90884">
        <ele>63.399608</ele>
        <time>2022-12-27T13:04:20.728Z</time>
      </trkpt>
      <trkpt lat="44.58375" lon="-0.90875">
        <ele>63.565001</ele>
        <time>2022-12-27T13:04:22.733Z</time>
      </trkpt>
      <trkpt lat="44.58366" lon="-0.90867">
        <ele>63.726387</ele>
        <time>2022-12-27T13:04:24.776Z</time>
      </trkpt>
      <trkpt lat="44.58358" lon="-0.90861">
        <ele>63.861667</ele>
        <time>2022-12-27T13:04:26.732Z</time>
      </trkpt>
      <trkpt lat="44.58349" lon="-0.9085">
        <ele>64.040879</ele>
        <time>2022-12-27T13:04:29.731Z</time>
      </trkpt>
      <trkpt lat="44.58339" lon="-0.9084">
        <ele>64.221167</ele>
        <time>2022-12-27T13:04:32.734Z</time>
      </trkpt>
      <trkpt lat="44.58328" lon="-0.90829">
        <ele>64.418239</ele>
        <time>2022-12-27T13:04:35.733Z</time>
      </trkpt>
      <trkpt lat="44.58318" lon="-0.90819">
        <ele>64.598528</ele>
        <time>2022-12-27T13:04:38.734Z</time>
      </trkpt>
      <trkpt lat="44.58309" lon="-0.90809">
        <ele>64.764745</ele>
        <time>2022-12-27T13:04:41.713Z</time>
      </trkpt>
      <trkpt lat="44.583" lon="-0.908">
        <ele>64.922174</ele>
        <time>2022-12-27T13:04:43.733Z</time>
      </trkpt>
      <trkpt lat="44.58292" lon="-0.90794">
        <ele>65.067361</ele>
        <time>2022-12-27T13:04:45.752Z</time>
      </trkpt>
      <trkpt lat="44.58282" lon="-0.90783">
        <ele>65.24765</ele>
        <time>2022-12-27T13:04:50.731Z</time>
      </trkpt>
      <trkpt lat="44.58272" lon="-0.90775">
        <ele>65.421622</ele>
        <time>2022-12-27T13:04:54.787Z</time>
      </trkpt>
      <trkpt lat="44.58262" lon="-0.90766">
        <ele>65.58926</ele>
        <time>2022-12-27T13:04:57.731Z</time>
      </trkpt>
      <trkpt lat="44.58254" lon="-0.90757">
        <ele>65.677836</ele>
        <time>2022-12-27T13:04:59.731Z</time>
      </trkpt>
      <trkpt lat="44.58246" lon="-0.90749">
        <ele>65.656074</ele>
        <time>2022-12-27T13:05:01.711Z</time>
      </trkpt>
      <trkpt lat="44.58238" lon="-0.90742">
        <ele>65.634125</ele>
        <time>2022-12-27T13:05:03.738Z</time>
      </trkpt>
      <trkpt lat="44.5823" lon="-0.90734">
        <ele>65.610581</ele>
        <time>2022-12-27T13:05:05.732Z</time>
      </trkpt>
      <trkpt lat="44.58223" lon="-0.90726">
        <ele>65.589702</ele>
        <time>2022-12-27T13:05:07.737Z</time>
      </trkpt>
      <trkpt lat="44.58214" lon="-0.90717">
        <ele>65.565487</ele>
        <time>2022-12-27T13:05:10.732Z</time>
      </trkpt>
      <trkpt lat="44.58204" lon="-0.90705">
        <ele>65.534914</ele>
        <time>2022-12-27T13:05:13.720Z</time>
      </trkpt>
      <trkpt lat="44.58193" lon="-0.90694">
        <ele>65.504746</ele>
        <time>2022-12-27T13:05:15.731Z</time>
      </trkpt>
      <trkpt lat="44.58182" lon="-0.90685">
        <ele>65.475746</ele>
        <time>2022-12-27T13:05:17.718Z</time>
      </trkpt>
      <trkpt lat="44.58171" lon="-0.90675">
        <ele>65.446118</ele>
        <time>2022-12-27T13:05:19.725Z</time>
      </trkpt>
      <trkpt lat="44.5816" lon="-0.90665">
        <ele>65.4146</ele>
        <time>2022-12-27T13:05:21.706Z</time>
      </trkpt>
      <trkpt lat="44.5815" lon="-0.90656">
        <ele>65.389009</ele>
        <time>2022-12-27T13:05:23.782Z</time>
      </trkpt>
      <trkpt lat="44.58142" lon="-0.90647">
        <ele>65.364817</ele>
        <time>2022-12-27T13:05:25.731Z</time>
      </trkpt>
      <trkpt lat="44.58133" lon="-0.90636">
        <ele>65.337831</ele>
        <time>2022-12-27T13:05:28.734Z</time>
      </trkpt>
      <trkpt lat="44.58123" lon="-0.90627">
        <ele>65.309998</ele>
        <time>2022-12-27T13:05:31.713Z</time>
      </trkpt>
      <trkpt lat="44.58112" lon="-0.90617">
        <ele>65.281277</ele>
        <time>2022-12-27T13:05:33.732Z</time>
      </trkpt>
      <trkpt lat="44.58102" lon="-0.90609">
        <ele>65.006043</ele>
        <time>2022-12-27T13:05:35.734Z</time>
      </trkpt>
      <trkpt lat="44.58092" lon="-0.906">
        <ele>64.658869</ele>
        <time>2022-12-27T13:05:37.730Z</time>
      </trkpt>
      <trkpt lat="44.58083" lon="-0.9059">
        <ele>64.30935</ele>
        <time>2022-12-27T13:05:39.734Z</time>
      </trkpt>
      <trkpt lat="44.58074" lon="-0.90581">
        <ele>63.985356</ele>
        <time>2022-12-27T13:05:41.708Z</time>
      </trkpt>
      <trkpt lat="44.58063" lon="-0.90571">
        <ele>63.606325</ele>
        <time>2022-12-27T13:05:43.732Z</time>
      </trkpt>
      <trkpt lat="44.58053" lon="-0.90562">
        <ele>63.245542</ele>
        <time>2022-12-27T13:05:45.728Z</time>
      </trkpt>
      <trkpt lat="44.58044" lon="-0.90553">
        <ele>62.904524</ele>
        <time>2022-12-27T13:05:47.730Z</time>
      </trkpt>
      <trkpt lat="44.58035" lon="-0.90544">
        <ele>62.590072</ele>
        <time>2022-12-27T13:05:49.728Z</time>
      </trkpt>
      <trkpt lat="44.58027" lon="-0.90535">
        <ele>62.283091</ele>
        <time>2022-12-27T13:05:51.741Z</time>
      </trkpt>
      <trkpt lat="44.58017" lon="-0.90527">
        <ele>61.935211</ele>
        <time>2022-12-27T13:05:53.730Z</time>
      </trkpt>
      <trkpt lat="44.58009" lon="-0.90517">
        <ele>61.632943</ele>
        <time>2022-12-27T13:05:55.732Z</time>
      </trkpt>
      <trkpt lat="44.57999" lon="-0.90508">
        <ele>61.257561</ele>
        <time>2022-12-27T13:05:57.738Z</time>
      </trkpt>
      <trkpt lat="44.57989" lon="-0.90499">
        <ele>60.908217</ele>
        <time>2022-12-27T13:05:59.732Z</time>
      </trkpt>
      <trkpt lat="44.57978" lon="-0.9049">
        <ele>60.539889</ele>
        <time>2022-12-27T13:06:01.711Z</time>
      </trkpt>
      <trkpt lat="44.57967" lon="-0.9048">
        <ele>60.158657</ele>
        <time>2022-12-27T13:06:03.733Z</time>
      </trkpt>
      <trkpt lat="44.57958" lon="-0.90471">
        <ele>59.856894</ele>
        <time>2022-12-27T13:06:05.734Z</time>
      </trkpt>
      <trkpt lat="44.57948" lon="-0.90461">
        <ele>59.644327</ele>
        <time>2022-12-27T13:06:07.736Z</time>
      </trkpt>
      <trkpt lat="44.57938" lon="-0.90452">
        <ele>59.439605</ele>
        <time>2022-12-27T13:06:09.731Z</time>
      </trkpt>
      <trkpt lat="44.57929" lon="-0.90443">
        <ele>59.232029</ele>
        <time>2022-12-27T13:06:11.721Z</time>
      </trkpt>
      <trkpt lat="44.57919" lon="-0.90434">
        <ele>59.022987</ele>
        <time>2022-12-27T13:06:13.717Z</time>
      </trkpt>
      <trkpt lat="44.57909" lon="-0.90424">
        <ele>58.809683</ele>
        <time>2022-12-27T13:06:15.738Z</time>
      </trkpt>
      <trkpt lat="44.57899" lon="-0.90414">
        <ele>58.591346</ele>
        <time>2022-12-27T13:06:17.700Z</time>
      </trkpt>
      <trkpt lat="44.57888" lon="-0.90404">
        <ele>58.370847</ele>
        <time>2022-12-27T13:06:19.733Z</time>
      </trkpt>
      <trkpt lat="44.57879" lon="-0.90395">
        <ele>58.170175</ele>
        <time>2022-12-27T13:06:21.710Z</time>
      </trkpt>
      <trkpt lat="44.57869" lon="-0.90386">
        <ele>57.971249</ele>
        <time>2022-12-27T13:06:23.733Z</time>
      </trkpt>
      <trkpt lat="44.57861" lon="-0.90378">
        <ele>57.790356</ele>
        <time>2022-12-27T13:06:25.729Z</time>
      </trkpt>
      <trkpt lat="44.57853" lon="-0.90369">
        <ele>57.607974</ele>
        <time>2022-12-27T13:06:27.728Z</time>
      </trkpt>
      <trkpt lat="44.57845" lon="-0.9036">
        <ele>57.425476</ele>
        <time>2022-12-27T13:06:29.746Z</time>
      </trkpt>
      <trkpt lat="44.57836" lon="-0.90351">
        <ele>57.240818</ele>
        <time>2022-12-27T13:06:31.716Z</time>
      </trkpt>
      <trkpt lat="44.57828" lon="-0.90342">
        <ele>57.053441</ele>
        <time>2022-12-27T13:06:33.730Z</time>
      </trkpt>
      <trkpt lat="44.57819" lon="-0.90333">
        <ele>56.854422</ele>
        <time>2022-12-27T13:06:35.732Z</time>
      </trkpt>
      <trkpt lat="44.5781" lon="-0.90324">
        <ele>56.755819</ele>
        <time>2022-12-27T13:06:37.708Z</time>
      </trkpt>
      <trkpt lat="44.57801" lon="-0.90314">
        <ele>56.756282</ele>
        <time>2022-12-27T13:06:39.731Z</time>
      </trkpt>
      <trkpt lat="44.57793" lon="-0.90304">
        <ele>56.756731</ele>
        <time>2022-12-27T13:06:41.718Z</time>
      </trkpt>
      <trkpt lat="44.57784" lon="-0.90294">
        <ele>56.757204</ele>
        <time>2022-12-27T13:06:43.728Z</time>
      </trkpt>
      <trkpt lat="44.57776" lon="-0.90285">
        <ele>56.757643</ele>
        <time>2022-12-27T13:06:45.734Z</time>
      </trkpt>
      <trkpt lat="44.57766" lon="-0.90274">
        <ele>56.758175</ele>
        <time>2022-12-27T13:06:47.734Z</time>
      </trkpt>
      <trkpt lat="44.57757" lon="-0.90263">
        <ele>56.75867</ele>
        <time>2022-12-27T13:06:49.731Z</time>
      </trkpt>
      <trkpt lat="44.57747" lon="-0.90253">
        <ele>56.759155</ele>
        <time>2022-12-27T13:06:51.719Z</time>
      </trkpt>
      <trkpt lat="44.57738" lon="-0.90245">
        <ele>56.759629</ele>
        <time>2022-12-27T13:06:53.713Z</time>
      </trkpt>
      <trkpt lat="44.57729" lon="-0.90235">
        <ele>56.760113</ele>
        <time>2022-12-27T13:06:55.729Z</time>
      </trkpt>
      <trkpt lat="44.5772" lon="-0.90224">
        <ele>56.760599</ele>
        <time>2022-12-27T13:06:57.731Z</time>
      </trkpt>
      <trkpt lat="44.57712" lon="-0.90213">
        <ele>56.76107</ele>
        <time>2022-12-27T13:06:59.734Z</time>
      </trkpt>
      <trkpt lat="44.57703" lon="-0.90203">
        <ele>56.76154</ele>
        <time>2022-12-27T13:07:01.713Z</time>
      </trkpt>
      <trkpt lat="44.57693" lon="-0.90194">
        <ele>56.762024</ele>
        <time>2022-12-27T13:07:03.697Z</time>
      </trkpt>
      <trkpt lat="44.57686" lon="-0.90183">
        <ele>56.762457</ele>
        <time>2022-12-27T13:07:05.718Z</time>
      </trkpt>
      <trkpt lat="44.57679" lon="-0.90173">
        <ele>56.762873</ele>
        <time>2022-12-27T13:07:07.731Z</time>
      </trkpt>
      <trkpt lat="44.5767" lon="-0.90164">
        <ele>56.787982</ele>
        <time>2022-12-27T13:07:09.736Z</time>
      </trkpt>
      <trkpt lat="44.57662" lon="-0.90154">
        <ele>56.833996</ele>
        <time>2022-12-27T13:07:11.728Z</time>
      </trkpt>
      <trkpt lat="44.57654" lon="-0.90144">
        <ele>56.879249</ele>
        <time>2022-12-27T13:07:13.726Z</time>
      </trkpt>
      <trkpt lat="44.57646" lon="-0.90133">
        <ele>56.924781</ele>
        <time>2022-12-27T13:07:15.785Z</time>
      </trkpt>
      <trkpt lat="44.57638" lon="-0.90123">
        <ele>56.969606</ele>
        <time>2022-12-27T13:07:17.733Z</time>
      </trkpt>
      <trkpt lat="44.5763" lon="-0.90113">
        <ele>57.011386</ele>
        <time>2022-12-27T13:07:19.731Z</time>
      </trkpt>
      <trkpt lat="44.57623" lon="-0.90105">
        <ele>57.050026</ele>
        <time>2022-12-27T13:07:21.756Z</time>
      </trkpt>
      <trkpt lat="44.57616" lon="-0.90095">
        <ele>57.093423</ele>
        <time>2022-12-27T13:07:23.738Z</time>
      </trkpt>
      <trkpt lat="44.57607" lon="-0.90085">
        <ele>57.138177</ele>
        <time>2022-12-27T13:07:25.735Z</time>
      </trkpt>
      <trkpt lat="44.576" lon="-0.90074">
        <ele>57.181951</ele>
        <time>2022-12-27T13:07:27.751Z</time>
      </trkpt>
      <trkpt lat="44.57593" lon="-0.90064">
        <ele>57.225366</ele>
        <time>2022-12-27T13:07:29.737Z</time>
      </trkpt>
      <trkpt lat="44.57586" lon="-0.90054">
        <ele>57.267354</ele>
        <time>2022-12-27T13:07:31.717Z</time>
      </trkpt>
      <trkpt lat="44.57579" lon="-0.90044">
        <ele>57.30989</ele>
        <time>2022-12-27T13:07:33.785Z</time>
      </trkpt>
      <trkpt lat="44.57571" lon="-0.90034">
        <ele>57.353899</ele>
        <time>2022-12-27T13:07:35.731Z</time>
      </trkpt>
      <trkpt lat="44.57564" lon="-0.90023">
        <ele>57.396077</ele>
        <time>2022-12-27T13:07:37.730Z</time>
      </trkpt>
      <trkpt lat="44.57556" lon="-0.90013">
        <ele>57.442618</ele>
        <time>2022-12-27T13:07:39.792Z</time>
      </trkpt>
      <trkpt lat="44.57549" lon="-0.90002">
        <ele>57.485825</ele>
        <time>2022-12-27T13:07:41.711Z</time>
      </trkpt>
      <trkpt lat="44.57541" lon="-0.89992">
        <ele>57.56752</ele>
        <time>2022-12-27T13:07:43.733Z</time>
      </trkpt>
      <trkpt lat="44.57534" lon="-0.89981">
        <ele>57.716843</ele>
        <time>2022-12-27T13:07:45.787Z</time>
      </trkpt>
      <trkpt lat="44.57526" lon="-0.89971">
        <ele>57.862593</ele>
        <time>2022-12-27T13:07:47.709Z</time>
      </trkpt>
      <trkpt lat="44.5752" lon="-0.8996">
        <ele>58.000482</ele>
        <time>2022-12-27T13:07:49.734Z</time>
      </trkpt>
      <trkpt lat="44.57513" lon="-0.8995">
        <ele>58.139381</ele>
        <time>2022-12-27T13:07:51.704Z</time>
      </trkpt>
      <trkpt lat="44.57506" lon="-0.8994">
        <ele>58.280873</ele>
        <time>2022-12-27T13:07:53.732Z</time>
      </trkpt>
      <trkpt lat="44.57498" lon="-0.89929">
        <ele>58.427993</ele>
        <time>2022-12-27T13:07:55.732Z</time>
      </trkpt>
      <trkpt lat="44.5749" lon="-0.89919">
        <ele>58.573814</ele>
        <time>2022-12-27T13:07:57.734Z</time>
      </trkpt>
      <trkpt lat="44.57483" lon="-0.89908">
        <ele>58.721737</ele>
        <time>2022-12-27T13:07:59.709Z</time>
      </trkpt>
      <trkpt lat="44.57475" lon="-0.89897">
        <ele>58.871902</ele>
        <time>2022-12-27T13:08:01.710Z</time>
      </trkpt>
      <trkpt lat="44.57467" lon="-0.89887">
        <ele>59.02073</ele>
        <time>2022-12-27T13:08:03.733Z</time>
      </trkpt>
      <trkpt lat="44.57461" lon="-0.89877">
        <ele>59.154335</ele>
        <time>2022-12-27T13:08:05.734Z</time>
      </trkpt>
      <trkpt lat="44.57454" lon="-0.89867">
        <ele>59.296111</ele>
        <time>2022-12-27T13:08:07.732Z</time>
      </trkpt>
      <trkpt lat="44.57446" lon="-0.89857">
        <ele>59.436905</ele>
        <time>2022-12-27T13:08:09.730Z</time>
      </trkpt>
      <trkpt lat="44.5744" lon="-0.89847">
        <ele>59.575626</ele>
        <time>2022-12-27T13:08:11.719Z</time>
      </trkpt>
      <trkpt lat="44.57433" lon="-0.89836">
        <ele>59.715445</ele>
        <time>2022-12-27T13:08:13.795Z</time>
      </trkpt>
      <trkpt lat="44.57425" lon="-0.89827">
        <ele>59.854166</ele>
        <time>2022-12-27T13:08:15.712Z</time>
      </trkpt>
      <trkpt lat="44.57419" lon="-0.89817">
        <ele>59.984971</ele>
        <time>2022-12-27T13:08:17.733Z</time>
      </trkpt>
      <trkpt lat="44.57412" lon="-0.89807">
        <ele>59.961133</ele>
        <time>2022-12-27T13:08:19.799Z</time>
      </trkpt>
      <trkpt lat="44.57405" lon="-0.89797">
        <ele>59.91593</ele>
        <time>2022-12-27T13:08:21.722Z</time>
      </trkpt>
      <trkpt lat="44.57398" lon="-0.89786">
        <ele>59.872311</ele>
        <time>2022-12-27T13:08:23.731Z</time>
      </trkpt>
      <trkpt lat="44.57391" lon="-0.89777">
        <ele>59.828978</ele>
        <time>2022-12-27T13:08:25.736Z</time>
      </trkpt>
      <trkpt lat="44.57383" lon="-0.89768">
        <ele>59.785858</ele>
        <time>2022-12-27T13:08:27.730Z</time>
      </trkpt>
      <trkpt lat="44.57377" lon="-0.89757">
        <ele>59.743232</ele>
        <time>2022-12-27T13:08:29.732Z</time>
      </trkpt>
      <trkpt lat="44.5737" lon="-0.89747">
        <ele>59.698426</ele>
        <time>2022-12-27T13:08:31.718Z</time>
      </trkpt>
      <trkpt lat="44.57362" lon="-0.89737">
        <ele>59.652871</ele>
        <time>2022-12-27T13:08:33.732Z</time>
      </trkpt>
      <trkpt lat="44.57355" lon="-0.89727">
        <ele>59.608477</ele>
        <time>2022-12-27T13:08:35.733Z</time>
      </trkpt>
      <trkpt lat="44.57349" lon="-0.89718">
        <ele>59.568239</ele>
        <time>2022-12-27T13:08:37.734Z</time>
      </trkpt>
      <trkpt lat="44.57341" lon="-0.89708">
        <ele>59.523845</ele>
        <time>2022-12-27T13:08:39.733Z</time>
      </trkpt>
      <trkpt lat="44.57332" lon="-0.89695">
        <ele>59.468132</ele>
        <time>2022-12-27T13:08:42.731Z</time>
      </trkpt>
      <trkpt lat="44.57324" lon="-0.89685">
        <ele>59.418378</ele>
        <time>2022-12-27T13:08:44.736Z</time>
      </trkpt>
      <trkpt lat="44.57317" lon="-0.89676">
        <ele>59.375385</ele>
        <time>2022-12-27T13:08:46.736Z</time>
      </trkpt>
      <trkpt lat="44.5731" lon="-0.89665">
        <ele>59.331993</ele>
        <time>2022-12-27T13:08:48.734Z</time>
      </trkpt>
      <trkpt lat="44.573" lon="-0.89655">
        <ele>59.279144</ele>
        <time>2022-12-27T13:08:50.735Z</time>
      </trkpt>
      <trkpt lat="44.57294" lon="-0.89645">
        <ele>59.236703</ele>
        <time>2022-12-27T13:08:52.743Z</time>
      </trkpt>
      <trkpt lat="44.57287" lon="-0.89633">
        <ele>59.289725</ele>
        <time>2022-12-27T13:08:54.722Z</time>
      </trkpt>
      <trkpt lat="44.5728" lon="-0.89623">
        <ele>59.453144</ele>
        <time>2022-12-27T13:08:56.732Z</time>
      </trkpt>
      <trkpt lat="44.57274" lon="-0.89612">
        <ele>59.603156</ele>
        <time>2022-12-27T13:08:58.736Z</time>
      </trkpt>
      <trkpt lat="44.57267" lon="-0.89599">
        <ele>59.776307</ele>
        <time>2022-12-27T13:09:00.716Z</time>
      </trkpt>
      <trkpt lat="44.57261" lon="-0.89589">
        <ele>59.925255</ele>
        <time>2022-12-27T13:09:02.731Z</time>
      </trkpt>
      <trkpt lat="44.57252" lon="-0.89578">
        <ele>60.101303</ele>
        <time>2022-12-27T13:09:04.736Z</time>
      </trkpt>
      <trkpt lat="44.57244" lon="-0.89566">
        <ele>60.283254</ele>
        <time>2022-12-27T13:09:06.725Z</time>
      </trkpt>
      <trkpt lat="44.57235" lon="-0.89556">
        <ele>60.463973</ele>
        <time>2022-12-27T13:09:08.733Z</time>
      </trkpt>
      <trkpt lat="44.57228" lon="-0.89546">
        <ele>60.613746</ele>
        <time>2022-12-27T13:09:10.732Z</time>
      </trkpt>
      <trkpt lat="44.57219" lon="-0.89534">
        <ele>60.800193</ele>
        <time>2022-12-27T13:09:12.727Z</time>
      </trkpt>
      <trkpt lat="44.57212" lon="-0.89524">
        <ele>60.961485</ele>
        <time>2022-12-27T13:09:14.709Z</time>
      </trkpt>
      <trkpt lat="44.57202" lon="-0.89513">
        <ele>61.148578</ele>
        <time>2022-12-27T13:09:16.719Z</time>
      </trkpt>
      <trkpt lat="44.57196" lon="-0.89501">
        <ele>61.311048</ele>
        <time>2022-12-27T13:09:18.717Z</time>
      </trkpt>
      <trkpt lat="44.57189" lon="-0.89492">
        <ele>61.456763</ele>
        <time>2022-12-27T13:09:20.715Z</time>
      </trkpt>
      <trkpt lat="44.57183" lon="-0.89483">
        <ele>61.602478</ele>
        <time>2022-12-27T13:09:22.720Z</time>
      </trkpt>
      <trkpt lat="44.57175" lon="-0.89473">
        <ele>61.759055</ele>
        <time>2022-12-27T13:09:24.731Z</time>
      </trkpt>
      <trkpt lat="44.57167" lon="-0.89462">
        <ele>61.929452</ele>
        <time>2022-12-27T13:09:26.725Z</time>
      </trkpt>
      <trkpt lat="44.57159" lon="-0.8945">
        <ele>61.880188</ele>
        <time>2022-12-27T13:09:29.732Z</time>
      </trkpt>
      <trkpt lat="44.5715" lon="-0.89437">
        <ele>61.72865</ele>
        <time>2022-12-27T13:09:32.734Z</time>
      </trkpt>
      <trkpt lat="44.57142" lon="-0.89425">
        <ele>61.590768</ele>
        <time>2022-12-27T13:09:35.796Z</time>
      </trkpt>
      <trkpt lat="44.57135" lon="-0.89416">
        <ele>61.481683</ele>
        <time>2022-12-27T13:09:37.734Z</time>
      </trkpt>
      <trkpt lat="44.57126" lon="-0.89403">
        <ele>61.327539</ele>
        <time>2022-12-27T13:09:40.751Z</time>
      </trkpt>
      <trkpt lat="44.5712" lon="-0.89393">
        <ele>61.217781</ele>
        <time>2022-12-27T13:09:42.741Z</time>
      </trkpt>
      <trkpt lat="44.57114" lon="-0.89383">
        <ele>61.109572</ele>
        <time>2022-12-27T13:09:44.783Z</time>
      </trkpt>
      <trkpt lat="44.57105" lon="-0.8937">
        <ele>60.962058</ele>
        <time>2022-12-27T13:09:47.733Z</time>
      </trkpt>
      <trkpt lat="44.57097" lon="-0.89355">
        <ele>60.810712</ele>
        <time>2022-12-27T13:09:50.781Z</time>
      </trkpt>
      <trkpt lat="44.57089" lon="-0.89343">
        <ele>60.665405</ele>
        <time>2022-12-27T13:09:53.731Z</time>
      </trkpt>
      <trkpt lat="44.57079" lon="-0.89329">
        <ele>60.507452</ele>
        <time>2022-12-27T13:09:56.788Z</time>
      </trkpt>
      <trkpt lat="44.57072" lon="-0.8932">
        <ele>60.392389</ele>
        <time>2022-12-27T13:09:58.738Z</time>
      </trkpt>
      <trkpt lat="44.57066" lon="-0.8931">
        <ele>60.282289</ele>
        <time>2022-12-27T13:10:00.737Z</time>
      </trkpt>
      <trkpt lat="44.57059" lon="-0.89301">
        <ele>60.175369</ele>
        <time>2022-12-27T13:10:02.792Z</time>
      </trkpt>
      <trkpt lat="44.57053" lon="-0.89291">
        <ele>60.065973</ele>
        <time>2022-12-27T13:10:04.734Z</time>
      </trkpt>
      <trkpt lat="44.57046" lon="-0.89282">
        <ele>59.952816</ele>
        <time>2022-12-27T13:10:06.737Z</time>
      </trkpt>
      <trkpt lat="44.57039" lon="-0.89271">
        <ele>59.931537</ele>
        <time>2022-12-27T13:10:08.783Z</time>
      </trkpt>
      <trkpt lat="44.57031" lon="-0.89261">
        <ele>60.077356</ele>
        <time>2022-12-27T13:10:10.737Z</time>
      </trkpt>
      <trkpt lat="44.57025" lon="-0.89252">
        <ele>60.203725</ele>
        <time>2022-12-27T13:10:12.732Z</time>
      </trkpt>
      <trkpt lat="44.57018" lon="-0.89243">
        <ele>60.326014</ele>
        <time>2022-12-27T13:10:14.736Z</time>
      </trkpt>
      <trkpt lat="44.57009" lon="-0.89229">
        <ele>60.5083</ele>
        <time>2022-12-27T13:10:17.715Z</time>
      </trkpt>
      <trkpt lat="44.57003" lon="-0.8922">
        <ele>60.634557</ele>
        <time>2022-12-27T13:10:19.735Z</time>
      </trkpt>
      <trkpt lat="44.56993" lon="-0.89207">
        <ele>60.808087</ele>
        <time>2022-12-27T13:10:22.725Z</time>
      </trkpt>
      <trkpt lat="44.56985" lon="-0.89195">
        <ele>60.971255</ele>
        <time>2022-12-27T13:10:25.739Z</time>
      </trkpt>
      <trkpt lat="44.56977" lon="-0.89185">
        <ele>61.113445</ele>
        <time>2022-12-27T13:10:27.734Z</time>
      </trkpt>
      <trkpt lat="44.5697" lon="-0.89174">
        <ele>61.256506</ele>
        <time>2022-12-27T13:10:29.735Z</time>
      </trkpt>
      <trkpt lat="44.56964" lon="-0.89164">
        <ele>61.388483</ele>
        <time>2022-12-27T13:10:31.711Z</time>
      </trkpt>
      <trkpt lat="44.56957" lon="-0.89154">
        <ele>61.524133</ele>
        <time>2022-12-27T13:10:33.735Z</time>
      </trkpt>
      <trkpt lat="44.5695" lon="-0.89144">
        <ele>61.661365</ele>
        <time>2022-12-27T13:10:35.735Z</time>
      </trkpt>
      <trkpt lat="44.56941" lon="-0.8913">
        <ele>61.836965</ele>
        <time>2022-12-27T13:10:38.790Z</time>
      </trkpt>
      <trkpt lat="44.56935" lon="-0.89118">
        <ele>61.977818</ele>
        <time>2022-12-27T13:10:41.718Z</time>
      </trkpt>
      <trkpt lat="44.56927" lon="-0.89105">
        <ele>62.143068</ele>
        <time>2022-12-27T13:10:44.785Z</time>
      </trkpt>
      <trkpt lat="44.5692" lon="-0.89095">
        <ele>62.280968</ele>
        <time>2022-12-27T13:10:46.736Z</time>
      </trkpt>
      <trkpt lat="44.56913" lon="-0.89086">
        <ele>62.507053</ele>
        <time>2022-12-27T13:10:48.732Z</time>
      </trkpt>
      <trkpt lat="44.56905" lon="-0.89077">
        <ele>62.802538</ele>
        <time>2022-12-27T13:10:50.735Z</time>
      </trkpt>
      <trkpt lat="44.56896" lon="-0.89066">
        <ele>63.16225</ele>
        <time>2022-12-27T13:10:52.735Z</time>
      </trkpt>
      <trkpt lat="44.56887" lon="-0.89057">
        <ele>63.477267</ele>
        <time>2022-12-27T13:10:55.783Z</time>
      </trkpt>
      <trkpt lat="44.56881" lon="-0.89045">
        <ele>63.775264</ele>
        <time>2022-12-27T13:10:57.733Z</time>
      </trkpt>
      <trkpt lat="44.56873" lon="-0.89034">
        <ele>64.107841</ele>
        <time>2022-12-27T13:11:00.733Z</time>
      </trkpt>
      <trkpt lat="44.56866" lon="-0.89023">
        <ele>64.412853</ele>
        <time>2022-12-27T13:11:03.732Z</time>
      </trkpt>
      <trkpt lat="44.5686" lon="-0.89012">
        <ele>64.711343</ele>
        <time>2022-12-27T13:11:06.722Z</time>
      </trkpt>
      <trkpt lat="44.5685" lon="-0.88998">
        <ele>65.097084</ele>
        <time>2022-12-27T13:11:09.732Z</time>
      </trkpt>
      <trkpt lat="44.56843" lon="-0.88989">
        <ele>65.382198</ele>
        <time>2022-12-27T13:11:11.718Z</time>
      </trkpt>
      <trkpt lat="44.56837" lon="-0.8898">
        <ele>65.643918</ele>
        <time>2022-12-27T13:11:13.737Z</time>
      </trkpt>
      <trkpt lat="44.56828" lon="-0.88968">
        <ele>66.001355</ele>
        <time>2022-12-27T13:11:16.732Z</time>
      </trkpt>
      <trkpt lat="44.5682" lon="-0.88956">
        <ele>66.34095</ele>
        <time>2022-12-27T13:11:19.734Z</time>
      </trkpt>
      <trkpt lat="44.56812" lon="-0.88944">
        <ele>66.689072</ele>
        <time>2022-12-27T13:11:22.733Z</time>
      </trkpt>
      <trkpt lat="44.56803" lon="-0.88932">
        <ele>67.050876</ele>
        <time>2022-12-27T13:11:25.724Z</time>
      </trkpt>
      <trkpt lat="44.56795" lon="-0.88921">
        <ele>67.375688</ele>
        <time>2022-12-27T13:11:28.766Z</time>
      </trkpt>
      <trkpt lat="44.56788" lon="-0.88909">
        <ele>67.385036</ele>
        <time>2022-12-27T13:11:31.716Z</time>
      </trkpt>
      <trkpt lat="44.56781" lon="-0.88899">
        <ele>67.081663</ele>
        <time>2022-12-27T13:11:33.733Z</time>
      </trkpt>
      <trkpt lat="44.56774" lon="-0.88889">
        <ele>66.717028</ele>
        <time>2022-12-27T13:11:35.734Z</time>
      </trkpt>
      <trkpt lat="44.56767" lon="-0.8888">
        <ele>66.409413</ele>
        <time>2022-12-27T13:11:37.738Z</time>
      </trkpt>
      <trkpt lat="44.56759" lon="-0.88867">
        <ele>65.988665</ele>
        <time>2022-12-27T13:11:40.791Z</time>
      </trkpt>
      <trkpt lat="44.56749" lon="-0.88854">
        <ele>65.542733</ele>
        <time>2022-12-27T13:11:43.732Z</time>
      </trkpt>
      <trkpt lat="44.56742" lon="-0.88845">
        <ele>65.235801</ele>
        <time>2022-12-27T13:11:45.733Z</time>
      </trkpt>
      <trkpt lat="44.56736" lon="-0.88836">
        <ele>64.935271</ele>
        <time>2022-12-27T13:11:47.725Z</time>
      </trkpt>
      <trkpt lat="44.56726" lon="-0.88823">
        <ele>64.492555</ele>
        <time>2022-12-27T13:11:50.732Z</time>
      </trkpt>
      <trkpt lat="44.56718" lon="-0.8881">
        <ele>64.062485</ele>
        <time>2022-12-27T13:11:53.712Z</time>
      </trkpt>
      <trkpt lat="44.56711" lon="-0.88801">
        <ele>63.740242</ele>
        <time>2022-12-27T13:11:56.734Z</time>
      </trkpt>
      <trkpt lat="44.56702" lon="-0.8879">
        <ele>63.369994</ele>
        <time>2022-12-27T13:11:59.731Z</time>
      </trkpt>
      <trkpt lat="44.56694" lon="-0.88779">
        <ele>62.99558</ele>
        <time>2022-12-27T13:12:02.732Z</time>
      </trkpt>
      <trkpt lat="44.56688" lon="-0.8877">
        <ele>62.690325</ele>
        <time>2022-12-27T13:12:04.786Z</time>
      </trkpt>
      <trkpt lat="44.56681" lon="-0.88761">
        <ele>62.372905</ele>
        <time>2022-12-27T13:12:06.733Z</time>
      </trkpt>
      <trkpt lat="44.56674" lon="-0.88752">
        <ele>62.061202</ele>
        <time>2022-12-27T13:12:08.732Z</time>
      </trkpt>
      <trkpt lat="44.56668" lon="-0.88743">
        <ele>61.760669</ele>
        <time>2022-12-27T13:12:10.796Z</time>
      </trkpt>
      <trkpt lat="44.56659" lon="-0.88729">
        <ele>61.473768</ele>
        <time>2022-12-27T13:12:13.733Z</time>
      </trkpt>
      <trkpt lat="44.56652" lon="-0.8872">
        <ele>61.380944</ele>
        <time>2022-12-27T13:12:15.730Z</time>
      </trkpt>
      <trkpt lat="44.56643" lon="-0.88706">
        <ele>61.245064</ele>
        <time>2022-12-27T13:12:18.735Z</time>
      </trkpt>
      <trkpt lat="44.56633" lon="-0.88694">
        <ele>61.113802</ele>
        <time>2022-12-27T13:12:21.717Z</time>
      </trkpt>
      <trkpt lat="44.56624" lon="-0.88681">
        <ele>60.985603</ele>
        <time>2022-12-27T13:12:24.733Z</time>
      </trkpt>
      <trkpt lat="44.56615" lon="-0.88668">
        <ele>60.855497</ele>
        <time>2022-12-27T13:12:27.735Z</time>
      </trkpt>
      <trkpt lat="44.56606" lon="-0.88655">
        <ele>60.726401</ele>
        <time>2022-12-27T13:12:30.734Z</time>
      </trkpt>
      <trkpt lat="44.56597" lon="-0.88642">
        <ele>60.597687</ele>
        <time>2022-12-27T13:12:33.733Z</time>
      </trkpt>
      <trkpt lat="44.56588" lon="-0.8863">
        <ele>60.470861</ele>
        <time>2022-12-27T13:12:36.737Z</time>
      </trkpt>
      <trkpt lat="44.56579" lon="-0.88617">
        <ele>60.341958</ele>
        <time>2022-12-27T13:12:39.734Z</time>
      </trkpt>
      <trkpt lat="44.5657" lon="-0.88604">
        <ele>60.212862</ele>
        <time>2022-12-27T13:12:42.731Z</time>
      </trkpt>
      <trkpt lat="44.56561" lon="-0.88591">
        <ele>60.082047</ele>
        <time>2022-12-27T13:12:45.726Z</time>
      </trkpt>
      <trkpt lat="44.56552" lon="-0.88577">
        <ele>59.94919</ele>
        <time>2022-12-27T13:12:48.735Z</time>
      </trkpt>
      <trkpt lat="44.56542" lon="-0.88564">
        <ele>59.814935</ele>
        <time>2022-12-27T13:12:51.711Z</time>
      </trkpt>
      <trkpt lat="44.56536" lon="-0.88555">
        <ele>59.760072</ele>
        <time>2022-12-27T13:12:53.734Z</time>
      </trkpt>
      <trkpt lat="44.56526" lon="-0.88542">
        <ele>59.908132</ele>
        <time>2022-12-27T13:12:56.733Z</time>
      </trkpt>
      <trkpt lat="44.5652" lon="-0.88531">
        <ele>60.013972</ele>
        <time>2022-12-27T13:12:58.790Z</time>
      </trkpt>
      <trkpt lat="44.56514" lon="-0.88522">
        <ele>60.111803</ele>
        <time>2022-12-27T13:13:00.731Z</time>
      </trkpt>
      <trkpt lat="44.56505" lon="-0.88509">
        <ele>60.25101</ele>
        <time>2022-12-27T13:13:03.734Z</time>
      </trkpt>
      <trkpt lat="44.56495" lon="-0.88497">
        <ele>60.391672</ele>
        <time>2022-12-27T13:13:06.731Z</time>
      </trkpt>
      <trkpt lat="44.56489" lon="-0.88486">
        <ele>60.497185</ele>
        <time>2022-12-27T13:13:08.741Z</time>
      </trkpt>
      <trkpt lat="44.56482" lon="-0.88477">
        <ele>60.601013</ele>
        <time>2022-12-27T13:13:10.787Z</time>
      </trkpt>
      <trkpt lat="44.56475" lon="-0.88467">
        <ele>60.708347</ele>
        <time>2022-12-27T13:13:12.726Z</time>
      </trkpt>
      <trkpt lat="44.56468" lon="-0.88457">
        <ele>60.815156</ele>
        <time>2022-12-27T13:13:14.714Z</time>
      </trkpt>
      <trkpt lat="44.56462" lon="-0.88447">
        <ele>60.919754</ele>
        <time>2022-12-27T13:13:16.716Z</time>
      </trkpt>
      <trkpt lat="44.56455" lon="-0.88439">
        <ele>61.01749</ele>
        <time>2022-12-27T13:13:18.733Z</time>
      </trkpt>
      <trkpt lat="44.56448" lon="-0.8843">
        <ele>61.114988</ele>
        <time>2022-12-27T13:13:20.731Z</time>
      </trkpt>
      <trkpt lat="44.5644" lon="-0.88416">
        <ele>61.252603</ele>
        <time>2022-12-27T13:13:23.731Z</time>
      </trkpt>
      <trkpt lat="44.56431" lon="-0.88403">
        <ele>61.393879</ele>
        <time>2022-12-27T13:13:26.725Z</time>
      </trkpt>
      <trkpt lat="44.56424" lon="-0.88394">
        <ele>61.491612</ele>
        <time>2022-12-27T13:13:28.733Z</time>
      </trkpt>
      <trkpt lat="44.56417" lon="-0.88385">
        <ele>61.59595</ele>
        <time>2022-12-27T13:13:30.738Z</time>
      </trkpt>
      <trkpt lat="44.56408" lon="-0.88373">
        <ele>61.670823</ele>
        <time>2022-12-27T13:13:33.736Z</time>
      </trkpt>
      <trkpt lat="44.56399" lon="-0.88359">
        <ele>61.619518</ele>
        <time>2022-12-27T13:13:36.718Z</time>
      </trkpt>
      <trkpt lat="44.56393" lon="-0.88349">
        <ele>61.584627</ele>
        <time>2022-12-27T13:13:38.730Z</time>
      </trkpt>
      <trkpt lat="44.56385" lon="-0.8834">
        <ele>61.545859</ele>
        <time>2022-12-27T13:13:40.733Z</time>
      </trkpt>
      <trkpt lat="44.56379" lon="-0.8833">
        <ele>61.511232</ele>
        <time>2022-12-27T13:13:42.731Z</time>
      </trkpt>
      <trkpt lat="44.56372" lon="-0.88321">
        <ele>61.475828</ele>
        <time>2022-12-27T13:13:44.715Z</time>
      </trkpt>
      <trkpt lat="44.56365" lon="-0.88312">
        <ele>61.438557</ele>
        <time>2022-12-27T13:13:46.719Z</time>
      </trkpt>
      <trkpt lat="44.56358" lon="-0.88302">
        <ele>61.400613</ele>
        <time>2022-12-27T13:13:48.711Z</time>
      </trkpt>
      <trkpt lat="44.56351" lon="-0.88292">
        <ele>61.361888</ele>
        <time>2022-12-27T13:13:50.728Z</time>
      </trkpt>
      <trkpt lat="44.56345" lon="-0.88282">
        <ele>61.324678</ele>
        <time>2022-12-27T13:13:52.784Z</time>
      </trkpt>
      <trkpt lat="44.56337" lon="-0.88272">
        <ele>61.285804</ele>
        <time>2022-12-27T13:13:54.732Z</time>
      </trkpt>
      <trkpt lat="44.5633" lon="-0.88262">
        <ele>61.246946</ele>
        <time>2022-12-27T13:13:56.734Z</time>
      </trkpt>
      <trkpt lat="44.56323" lon="-0.88252">
        <ele>61.208728</ele>
        <time>2022-12-27T13:13:58.729Z</time>
      </trkpt>
      <trkpt lat="44.56317" lon="-0.88242">
        <ele>61.169929</ele>
        <time>2022-12-27T13:14:00.735Z</time>
      </trkpt>
      <trkpt lat="44.5631" lon="-0.88232">
        <ele>61.133647</ele>
        <time>2022-12-27T13:14:02.737Z</time>
      </trkpt>
      <trkpt lat="44.56303" lon="-0.88223">
        <ele>61.096</ele>
        <time>2022-12-27T13:14:04.739Z</time>
      </trkpt>
      <trkpt lat="44.56296" lon="-0.88214">
        <ele>61.061036</ele>
        <time>2022-12-27T13:14:06.736Z</time>
      </trkpt>
      <trkpt lat="44.56288" lon="-0.88201">
        <ele>61.012791</ele>
        <time>2022-12-27T13:14:09.786Z</time>
      </trkpt>
      <trkpt lat="44.56278" lon="-0.88188">
        <ele>61.079493</ele>
        <time>2022-12-27T13:14:12.733Z</time>
      </trkpt>
      <trkpt lat="44.56271" lon="-0.88178">
        <ele>61.17881</ele>
        <time>2022-12-27T13:14:15.783Z</time>
      </trkpt>
      <trkpt lat="44.56264" lon="-0.88168">
        <ele>61.267727</ele>
        <time>2022-12-27T13:14:18.730Z</time>
      </trkpt>
      <trkpt lat="44.56255" lon="-0.88157">
        <ele>61.370794</ele>
        <time>2022-12-27T13:14:21.757Z</time>
      </trkpt>
      <trkpt lat="44.56247" lon="-0.88144">
        <ele>61.482094</ele>
        <time>2022-12-27T13:14:24.732Z</time>
      </trkpt>
      <trkpt lat="44.56238" lon="-0.88131">
        <ele>61.603267</ele>
        <time>2022-12-27T13:14:27.784Z</time>
      </trkpt>
      <trkpt lat="44.56231" lon="-0.88122">
        <ele>61.691531</ele>
        <time>2022-12-27T13:14:29.735Z</time>
      </trkpt>
      <trkpt lat="44.56224" lon="-0.88113">
        <ele>61.77604</ele>
        <time>2022-12-27T13:14:31.717Z</time>
      </trkpt>
      <trkpt lat="44.56217" lon="-0.88103">
        <ele>61.861104</ele>
        <time>2022-12-27T13:14:33.811Z</time>
      </trkpt>
      <trkpt lat="44.5621" lon="-0.88094">
        <ele>61.950468</ele>
        <time>2022-12-27T13:14:35.734Z</time>
      </trkpt>
      <trkpt lat="44.56203" lon="-0.88084">
        <ele>62.037839</ele>
        <time>2022-12-27T13:14:37.735Z</time>
      </trkpt>
      <trkpt lat="44.56196" lon="-0.88074">
        <ele>62.128377</ele>
        <time>2022-12-27T13:14:39.789Z</time>
      </trkpt>
      <trkpt lat="44.56189" lon="-0.88065">
        <ele>62.215166</ele>
        <time>2022-12-27T13:14:41.705Z</time>
      </trkpt>
      <trkpt lat="44.56182" lon="-0.88055">
        <ele>62.305886</ele>
        <time>2022-12-27T13:14:43.734Z</time>
      </trkpt>
      <trkpt lat="44.56175" lon="-0.88045">
        <ele>62.394149</ele>
        <time>2022-12-27T13:14:45.781Z</time>
      </trkpt>
      <trkpt lat="44.56168" lon="-0.88035">
        <ele>62.485149</ele>
        <time>2022-12-27T13:14:47.717Z</time>
      </trkpt>
      <trkpt lat="44.56162" lon="-0.88025">
        <ele>62.57558</ele>
        <time>2022-12-27T13:14:49.732Z</time>
      </trkpt>
      <trkpt lat="44.56155" lon="-0.88015">
        <ele>62.742404</ele>
        <time>2022-12-27T13:14:51.726Z</time>
      </trkpt>
      <trkpt lat="44.56148" lon="-0.88006">
        <ele>63.028</ele>
        <time>2022-12-27T13:14:53.732Z</time>
      </trkpt>
      <trkpt lat="44.56142" lon="-0.87996">
        <ele>63.299278</ele>
        <time>2022-12-27T13:14:55.732Z</time>
      </trkpt>
      <trkpt lat="44.56133" lon="-0.87983">
        <ele>63.688124</ele>
        <time>2022-12-27T13:14:58.738Z</time>
      </trkpt>
      <trkpt lat="44.56126" lon="-0.87974">
        <ele>63.956353</ele>
        <time>2022-12-27T13:15:00.735Z</time>
      </trkpt>
      <trkpt lat="44.5612" lon="-0.87964">
        <ele>64.243472</ele>
        <time>2022-12-27T13:15:02.735Z</time>
      </trkpt>
      <trkpt lat="44.5611" lon="-0.87949">
        <ele>64.658681</ele>
        <time>2022-12-27T13:15:05.735Z</time>
      </trkpt>
      <trkpt lat="44.56101" lon="-0.87935">
        <ele>65.066887</ele>
        <time>2022-12-27T13:15:08.732Z</time>
      </trkpt>
      <trkpt lat="44.56094" lon="-0.87926">
        <ele>65.349464</ele>
        <time>2022-12-27T13:15:10.732Z</time>
      </trkpt>
      <trkpt lat="44.56087" lon="-0.87916">
        <ele>65.64733</ele>
        <time>2022-12-27T13:15:12.733Z</time>
      </trkpt>
      <trkpt lat="44.5608" lon="-0.87906">
        <ele>65.946389</ele>
        <time>2022-12-27T13:15:14.735Z</time>
      </trkpt>
      <trkpt lat="44.56073" lon="-0.87897">
        <ele>66.225161</ele>
        <time>2022-12-27T13:15:16.732Z</time>
      </trkpt>
      <trkpt lat="44.56067" lon="-0.87887">
        <ele>66.509323</ele>
        <time>2022-12-27T13:15:18.712Z</time>
      </trkpt>
      <trkpt lat="44.56061" lon="-0.87876">
        <ele>66.801434</ele>
        <time>2022-12-27T13:15:20.736Z</time>
      </trkpt>
      <trkpt lat="44.56054" lon="-0.87866">
        <ele>67.098687</ele>
        <time>2022-12-27T13:15:22.729Z</time>
      </trkpt>
      <trkpt lat="44.56049" lon="-0.87855">
        <ele>67.365585</ele>
        <time>2022-12-27T13:15:24.733Z</time>
      </trkpt>
      <trkpt lat="44.56041" lon="-0.87841">
        <ele>67.744508</ele>
        <time>2022-12-27T13:15:27.787Z</time>
      </trkpt>
      <trkpt lat="44.56034" lon="-0.87829">
        <ele>67.937583</ele>
        <time>2022-12-27T13:15:30.732Z</time>
      </trkpt>
      <trkpt lat="44.56028" lon="-0.87817">
        <ele>67.864538</ele>
        <time>2022-12-27T13:15:33.764Z</time>
      </trkpt>
      <trkpt lat="44.5602" lon="-0.87801">
        <ele>67.774414</ele>
        <time>2022-12-27T13:15:36.736Z</time>
      </trkpt>
      <trkpt lat="44.56014" lon="-0.87786">
        <ele>67.688324</ele>
        <time>2022-12-27T13:15:39.722Z</time>
      </trkpt>
      <trkpt lat="44.56008" lon="-0.87773">
        <ele>67.613281</ele>
        <time>2022-12-27T13:15:42.734Z</time>
      </trkpt>
      <trkpt lat="44.56002" lon="-0.87761">
        <ele>67.542221</ele>
        <time>2022-12-27T13:15:45.739Z</time>
      </trkpt>
      <trkpt lat="44.55996" lon="-0.87749">
        <ele>67.47267</ele>
        <time>2022-12-27T13:15:48.735Z</time>
      </trkpt>
      <trkpt lat="44.55991" lon="-0.87735">
        <ele>67.394741</ele>
        <time>2022-12-27T13:15:51.719Z</time>
      </trkpt>
      <trkpt lat="44.55984" lon="-0.87719">
        <ele>67.305465</ele>
        <time>2022-12-27T13:15:54.735Z</time>
      </trkpt>
      <trkpt lat="44.5598" lon="-0.87708">
        <ele>67.244396</ele>
        <time>2022-12-27T13:15:56.789Z</time>
      </trkpt>
      <trkpt lat="44.55973" lon="-0.87692">
        <ele>67.150854</ele>
        <time>2022-12-27T13:15:59.732Z</time>
      </trkpt>
      <trkpt lat="44.55968" lon="-0.8768">
        <ele>67.084126</ele>
        <time>2022-12-27T13:16:01.720Z</time>
      </trkpt>
      <trkpt lat="44.55964" lon="-0.87669">
        <ele>67.020132</ele>
        <time>2022-12-27T13:16:03.729Z</time>
      </trkpt>
      <trkpt lat="44.55959" lon="-0.87657">
        <ele>66.955084</ele>
        <time>2022-12-27T13:16:05.718Z</time>
      </trkpt>
      <trkpt lat="44.55953" lon="-0.87641">
        <ele>66.868563</ele>
        <time>2022-12-27T13:16:08.784Z</time>
      </trkpt>
      <trkpt lat="44.55947" lon="-0.87626">
        <ele>66.781064</ele>
        <time>2022-12-27T13:16:11.715Z</time>
      </trkpt>
      <trkpt lat="44.55941" lon="-0.8761">
        <ele>66.808929</ele>
        <time>2022-12-27T13:16:14.805Z</time>
      </trkpt>
      <trkpt lat="44.55936" lon="-0.87598">
        <ele>66.919156</ele>
        <time>2022-12-27T13:16:16.734Z</time>
      </trkpt>
      <trkpt lat="44.55932" lon="-0.87587">
        <ele>67.028541</ele>
        <time>2022-12-27T13:16:18.733Z</time>
      </trkpt>
      <trkpt lat="44.55926" lon="-0.87572">
        <ele>67.176257</ele>
        <time>2022-12-27T13:16:21.717Z</time>
      </trkpt>
      <trkpt lat="44.5592" lon="-0.87556">
        <ele>67.325282</ele>
        <time>2022-12-27T13:16:24.735Z</time>
      </trkpt>
      <trkpt lat="44.55915" lon="-0.87544">
        <ele>67.439922</ele>
        <time>2022-12-27T13:16:26.793Z</time>
      </trkpt>
      <trkpt lat="44.55911" lon="-0.87532">
        <ele>67.551502</ele>
        <time>2022-12-27T13:16:28.735Z</time>
      </trkpt>
      <trkpt lat="44.55905" lon="-0.87517">
        <ele>67.705357</ele>
        <time>2022-12-27T13:16:31.717Z</time>
      </trkpt>
      <trkpt lat="44.55899" lon="-0.87506">
        <ele>67.816598</ele>
        <time>2022-12-27T13:16:33.731Z</time>
      </trkpt>
      <trkpt lat="44.55893" lon="-0.8749">
        <ele>67.974114</ele>
        <time>2022-12-27T13:16:36.735Z</time>
      </trkpt>
      <trkpt lat="44.55885" lon="-0.87475">
        <ele>68.130891</ele>
        <time>2022-12-27T13:16:39.738Z</time>
      </trkpt>
      <trkpt lat="44.5588" lon="-0.87461">
        <ele>68.26086</ele>
        <time>2022-12-27T13:16:41.716Z</time>
      </trkpt>
      <trkpt lat="44.55874" lon="-0.8745">
        <ele>68.376243</ele>
        <time>2022-12-27T13:16:43.733Z</time>
      </trkpt>
      <trkpt lat="44.55869" lon="-0.87438">
        <ele>68.494533</ele>
        <time>2022-12-27T13:16:45.740Z</time>
      </trkpt>
      <trkpt lat="44.55864" lon="-0.87426">
        <ele>68.613638</ele>
        <time>2022-12-27T13:16:47.732Z</time>
      </trkpt>
      <trkpt lat="44.55858" lon="-0.87415">
        <ele>68.731799</ele>
        <time>2022-12-27T13:16:49.786Z</time>
      </trkpt>
      <trkpt lat="44.55854" lon="-0.87403">
        <ele>68.846158</ele>
        <time>2022-12-27T13:16:51.719Z</time>
      </trkpt>
      <trkpt lat="44.55846" lon="-0.87387">
        <ele>68.839473</ele>
        <time>2022-12-27T13:16:54.734Z</time>
      </trkpt>
      <trkpt lat="44.55839" lon="-0.87374">
        <ele>68.801009</ele>
        <time>2022-12-27T13:16:57.738Z</time>
      </trkpt>
      <trkpt lat="44.55832" lon="-0.87362">
        <ele>68.766873</ele>
        <time>2022-12-27T13:17:00.735Z</time>
      </trkpt>
      <trkpt lat="44.55827" lon="-0.87352">
        <ele>68.736108</ele>
        <time>2022-12-27T13:17:03.733Z</time>
      </trkpt>
      <trkpt lat="44.5582" lon="-0.87341">
        <ele>68.702759</ele>
        <time>2022-12-27T13:17:07.731Z</time>
      </trkpt>
      <trkpt lat="44.55818" lon="-0.87327">
        <ele>68.670717</ele>
        <time>2022-12-27T13:17:12.811Z</time>
      </trkpt>
      <trkpt lat="44.55818" lon="-0.87313">
        <ele>68.638948</ele>
        <time>2022-12-27T13:17:16.732Z</time>
      </trkpt>
      <trkpt lat="44.5581" lon="-0.87305">
        <ele>68.60457</ele>
        <time>2022-12-27T13:17:21.714Z</time>
      </trkpt>
      <trkpt lat="44.55801" lon="-0.87297">
        <ele>68.571824</ele>
        <time>2022-12-27T13:17:24.759Z</time>
      </trkpt>
      <trkpt lat="44.55792" lon="-0.87288">
        <ele>68.536431</ele>
        <time>2022-12-27T13:17:27.710Z</time>
      </trkpt>
      <trkpt lat="44.55784" lon="-0.87276">
        <ele>68.498489</ele>
        <time>2022-12-27T13:17:30.741Z</time>
      </trkpt>
      <trkpt lat="44.55775" lon="-0.87264">
        <ele>68.458618</ele>
        <time>2022-12-27T13:17:33.739Z</time>
      </trkpt>
      <trkpt lat="44.55766" lon="-0.87251">
        <ele>68.417941</ele>
        <time>2022-12-27T13:17:36.734Z</time>
      </trkpt>
      <trkpt lat="44.55758" lon="-0.8724">
        <ele>68.380194</ele>
        <time>2022-12-27T13:17:39.735Z</time>
      </trkpt>
      <trkpt lat="44.55749" lon="-0.87229">
        <ele>68.342579</ele>
        <time>2022-12-27T13:17:42.745Z</time>
      </trkpt>
      <trkpt lat="44.55741" lon="-0.87221">
        <ele>68.308319</ele>
        <time>2022-12-27T13:17:45.732Z</time>
      </trkpt>
      <trkpt lat="44.55733" lon="-0.87211">
        <ele>68.223615</ele>
        <time>2022-12-27T13:17:48.731Z</time>
      </trkpt>
      <trkpt lat="44.55725" lon="-0.87202">
        <ele>68.102915</ele>
        <time>2022-12-27T13:17:51.713Z</time>
      </trkpt>
      <trkpt lat="44.55718" lon="-0.87193">
        <ele>67.986577</ele>
        <time>2022-12-27T13:17:54.732Z</time>
      </trkpt>
      <trkpt lat="44.55711" lon="-0.87184">
        <ele>67.876767</ele>
        <time>2022-12-27T13:17:57.735Z</time>
      </trkpt>
      <trkpt lat="44.55702" lon="-0.87174">
        <ele>67.734915</ele>
        <time>2022-12-27T13:18:01.719Z</time>
      </trkpt>
      <trkpt lat="44.55694" lon="-0.87164">
        <ele>67.609042</ele>
        <time>2022-12-27T13:18:04.786Z</time>
      </trkpt>
      <trkpt lat="44.55685" lon="-0.87154">
        <ele>67.470687</ele>
        <time>2022-12-27T13:18:07.734Z</time>
      </trkpt>
      <trkpt lat="44.55676" lon="-0.87143">
        <ele>67.326597</ele>
        <time>2022-12-27T13:18:10.801Z</time>
      </trkpt>
      <trkpt lat="44.55667" lon="-0.87131">
        <ele>67.176967</ele>
        <time>2022-12-27T13:18:13.733Z</time>
      </trkpt>
      <trkpt lat="44.55658" lon="-0.87119">
        <ele>67.027082</ele>
        <time>2022-12-27T13:18:16.790Z</time>
      </trkpt>
      <trkpt lat="44.55648" lon="-0.87108">
        <ele>66.873822</ele>
        <time>2022-12-27T13:18:19.739Z</time>
      </trkpt>
      <trkpt lat="44.55638" lon="-0.87096">
        <ele>66.718723</ele>
        <time>2022-12-27T13:18:22.788Z</time>
      </trkpt>
      <trkpt lat="44.55628" lon="-0.87084">
        <ele>66.560844</ele>
        <time>2022-12-27T13:18:25.734Z</time>
      </trkpt>
      <trkpt lat="44.55622" lon="-0.87076">
        <ele>66.452465</ele>
        <time>2022-12-27T13:18:27.737Z</time>
      </trkpt>
      <trkpt lat="44.55615" lon="-0.87068">
        <ele>66.3439</ele>
        <time>2022-12-27T13:18:29.733Z</time>
      </trkpt>
      <trkpt lat="44.55604" lon="-0.87056">
        <ele>66.184139</ele>
        <time>2022-12-27T13:18:32.735Z</time>
      </trkpt>
      <trkpt lat="44.55594" lon="-0.87044">
        <ele>66.090188</ele>
        <time>2022-12-27T13:18:35.734Z</time>
      </trkpt>
      <trkpt lat="44.55584" lon="-0.87032">
        <ele>66.029153</ele>
        <time>2022-12-27T13:18:38.729Z</time>
      </trkpt>
      <trkpt lat="44.55574" lon="-0.8702">
        <ele>65.971365</ele>
        <time>2022-12-27T13:18:41.718Z</time>
      </trkpt>
      <trkpt lat="44.55565" lon="-0.87009">
        <ele>65.918336</ele>
        <time>2022-12-27T13:18:44.737Z</time>
      </trkpt>
      <trkpt lat="44.55557" lon="-0.86999">
        <ele>65.8679</ele>
        <time>2022-12-27T13:18:47.734Z</time>
      </trkpt>
      <trkpt lat="44.55548" lon="-0.86988">
        <ele>65.813642</ele>
        <time>2022-12-27T13:18:50.732Z</time>
      </trkpt>
      <trkpt lat="44.55538" lon="-0.86976">
        <ele>65.753849</ele>
        <time>2022-12-27T13:18:53.737Z</time>
      </trkpt>
      <trkpt lat="44.55531" lon="-0.86968">
        <ele>65.712558</ele>
        <time>2022-12-27T13:18:55.710Z</time>
      </trkpt>
      <trkpt lat="44.5552" lon="-0.86956">
        <ele>65.65263</ele>
        <time>2022-12-27T13:18:58.733Z</time>
      </trkpt>
      <trkpt lat="44.55511" lon="-0.86944">
        <ele>65.593391</ele>
        <time>2022-12-27T13:19:01.719Z</time>
      </trkpt>
      <trkpt lat="44.55501" lon="-0.86933">
        <ele>65.537131</ele>
        <time>2022-12-27T13:19:04.738Z</time>
      </trkpt>
      <trkpt lat="44.55492" lon="-0.86922">
        <ele>65.482524</ele>
        <time>2022-12-27T13:19:07.732Z</time>
      </trkpt>
      <trkpt lat="44.55483" lon="-0.86912">
        <ele>65.431741</ele>
        <time>2022-12-27T13:19:10.734Z</time>
      </trkpt>
      <trkpt lat="44.55475" lon="-0.86902">
        <ele>65.385525</ele>
        <time>2022-12-27T13:19:13.752Z</time>
      </trkpt>
      <trkpt lat="44.55467" lon="-0.86893">
        <ele>65.33747</ele>
        <time>2022-12-27T13:19:17.719Z</time>
      </trkpt>
      <trkpt lat="44.55459" lon="-0.86884">
        <ele>65.534844</ele>
        <time>2022-12-27T13:19:22.734Z</time>
      </trkpt>
      <trkpt lat="44.55451" lon="-0.86873">
        <ele>65.919135</ele>
        <time>2022-12-27T13:19:26.732Z</time>
      </trkpt>
      <trkpt lat="44.55444" lon="-0.86865">
        <ele>66.245653</ele>
        <time>2022-12-27T13:19:30.717Z</time>
      </trkpt>
      <trkpt lat="44.55436" lon="-0.86857">
        <ele>66.593975</ele>
        <time>2022-12-27T13:19:35.727Z</time>
      </trkpt>
      <trkpt lat="44.55429" lon="-0.86847">
        <ele>66.928055</ele>
        <time>2022-12-27T13:19:54.732Z</time>
      </trkpt>
      <trkpt lat="44.55427" lon="-0.86845">
        <ele>67.028704</ele>
        <time>2022-12-27T13:20:16.832Z</time>
      </trkpt>
      <trkpt lat="44.55421" lon="-0.86835">
        <ele>67.359913</ele>
        <time>2022-12-27T13:39:53.717Z</time>
      </trkpt>
      <trkpt lat="44.55413" lon="-0.86825">
        <ele>67.739881</ele>
        <time>2022-12-27T13:39:58.723Z</time>
      </trkpt>
      <trkpt lat="44.55406" lon="-0.86817">
        <ele>68.061553</ele>
        <time>2022-12-27T13:40:01.726Z</time>
      </trkpt>
      <trkpt lat="44.55398" lon="-0.86809">
        <ele>68.407521</ele>
        <time>2022-12-27T13:40:04.735Z</time>
      </trkpt>
      <trkpt lat="44.55391" lon="-0.86799">
        <ele>68.75807</ele>
        <time>2022-12-27T13:40:07.731Z</time>
      </trkpt>
      <trkpt lat="44.55384" lon="-0.8679">
        <ele>69.11466</ele>
        <time>2022-12-27T13:40:10.739Z</time>
      </trkpt>
      <trkpt lat="44.55375" lon="-0.86779">
        <ele>69.51462</ele>
        <time>2022-12-27T13:40:13.715Z</time>
      </trkpt>
      <trkpt lat="44.55367" lon="-0.86769">
        <ele>69.906884</ele>
        <time>2022-12-27T13:40:16.733Z</time>
      </trkpt>
      <trkpt lat="44.55358" lon="-0.86759">
        <ele>70.300769</ele>
        <time>2022-12-27T13:40:19.739Z</time>
      </trkpt>
      <trkpt lat="44.5535" lon="-0.86749">
        <ele>70.701779</ele>
        <time>2022-12-27T13:40:22.732Z</time>
      </trkpt>
      <trkpt lat="44.55341" lon="-0.8674">
        <ele>71.077536</ele>
        <time>2022-12-27T13:40:25.738Z</time>
      </trkpt>
      <trkpt lat="44.55333" lon="-0.86731">
        <ele>71.470281</ele>
        <time>2022-12-27T13:40:28.737Z</time>
      </trkpt>
      <trkpt lat="44.55325" lon="-0.86721">
        <ele>71.764624</ele>
        <time>2022-12-27T13:40:31.734Z</time>
      </trkpt>
      <trkpt lat="44.55316" lon="-0.8671">
        <ele>71.920467</ele>
        <time>2022-12-27T13:40:34.712Z</time>
      </trkpt>
      <trkpt lat="44.55306" lon="-0.86701">
        <ele>72.082862</ele>
        <time>2022-12-27T13:40:37.737Z</time>
      </trkpt>
      <trkpt lat="44.55297" lon="-0.86692">
        <ele>72.234074</ele>
        <time>2022-12-27T13:40:40.736Z</time>
      </trkpt>
      <trkpt lat="44.55288" lon="-0.86683">
        <ele>72.386384</ele>
        <time>2022-12-27T13:40:43.745Z</time>
      </trkpt>
      <trkpt lat="44.55278" lon="-0.86674">
        <ele>72.54592</ele>
        <time>2022-12-27T13:40:46.738Z</time>
      </trkpt>
      <trkpt lat="44.55268" lon="-0.86664">
        <ele>72.70605</ele>
        <time>2022-12-27T13:40:49.734Z</time>
      </trkpt>
      <trkpt lat="44.55258" lon="-0.86655">
        <ele>72.867918</ele>
        <time>2022-12-27T13:40:52.734Z</time>
      </trkpt>
      <trkpt lat="44.55249" lon="-0.86646">
        <ele>73.026922</ele>
        <time>2022-12-27T13:40:55.718Z</time>
      </trkpt>
      <trkpt lat="44.55239" lon="-0.86636">
        <ele>73.189318</ele>
        <time>2022-12-27T13:40:58.744Z</time>
      </trkpt>
      <trkpt lat="44.55229" lon="-0.86627">
        <ele>73.349978</ele>
        <time>2022-12-27T13:41:01.725Z</time>
      </trkpt>
      <trkpt lat="44.55219" lon="-0.86618">
        <ele>73.508108</ele>
        <time>2022-12-27T13:41:04.736Z</time>
      </trkpt>
      <trkpt lat="44.5521" lon="-0.86609">
        <ele>73.666037</ele>
        <time>2022-12-27T13:41:07.737Z</time>
      </trkpt>
      <trkpt lat="44.552" lon="-0.86601">
        <ele>73.823014</ele>
        <time>2022-12-27T13:41:10.736Z</time>
      </trkpt>
      <trkpt lat="44.5519" lon="-0.86593">
        <ele>73.974368</ele>
        <time>2022-12-27T13:41:13.739Z</time>
      </trkpt>
      <trkpt lat="44.55181" lon="-0.86585">
        <ele>74.123851</ele>
        <time>2022-12-27T13:41:16.745Z</time>
      </trkpt>
      <trkpt lat="44.55172" lon="-0.86577">
        <ele>74.284992</ele>
        <time>2022-12-27T13:41:19.738Z</time>
      </trkpt>
      <trkpt lat="44.55165" lon="-0.86567">
        <ele>74.458096</ele>
        <time>2022-12-27T13:41:23.738Z</time>
      </trkpt>
      <trkpt lat="44.55155" lon="-0.86561">
        <ele>74.627129</ele>
        <time>2022-12-27T13:41:29.725Z</time>
      </trkpt>
      <trkpt lat="44.55145" lon="-0.8656">
        <ele>74.795818</ele>
        <time>2022-12-27T13:41:34.716Z</time>
      </trkpt>
      <trkpt lat="44.55138" lon="-0.86551">
        <ele>74.948796</ele>
        <time>2022-12-27T13:41:37.717Z</time>
      </trkpt>
      <trkpt lat="44.55129" lon="-0.86544">
        <ele>75.12027</ele>
        <time>2022-12-27T13:41:40.735Z</time>
      </trkpt>
      <trkpt lat="44.55119" lon="-0.86536">
        <ele>75.306411</ele>
        <time>2022-12-27T13:41:43.737Z</time>
      </trkpt>
      <trkpt lat="44.55109" lon="-0.86529">
        <ele>75.502271</ele>
        <time>2022-12-27T13:41:46.737Z</time>
      </trkpt>
      <trkpt lat="44.55098" lon="-0.86521">
        <ele>75.705916</ele>
        <time>2022-12-27T13:41:49.737Z</time>
      </trkpt>
      <trkpt lat="44.55087" lon="-0.86513">
        <ele>75.90712</ele>
        <time>2022-12-27T13:41:52.738Z</time>
      </trkpt>
      <trkpt lat="44.55076" lon="-0.86505">
        <ele>76.118414</ele>
        <time>2022-12-27T13:41:55.740Z</time>
      </trkpt>
      <trkpt lat="44.55065" lon="-0.86497">
        <ele>76.329588</ele>
        <time>2022-12-27T13:41:58.733Z</time>
      </trkpt>
      <trkpt lat="44.55053" lon="-0.8649">
        <ele>76.546821</ele>
        <time>2022-12-27T13:42:01.730Z</time>
      </trkpt>
      <trkpt lat="44.5504" lon="-0.86483">
        <ele>76.765541</ele>
        <time>2022-12-27T13:42:04.732Z</time>
      </trkpt>
      <trkpt lat="44.55029" lon="-0.86477">
        <ele>76.972564</ele>
        <time>2022-12-27T13:42:07.724Z</time>
      </trkpt>
      <trkpt lat="44.55017" lon="-0.86471">
        <ele>77.137641</ele>
        <time>2022-12-27T13:42:10.736Z</time>
      </trkpt>
      <trkpt lat="44.55005" lon="-0.86463">
        <ele>77.11699</ele>
        <time>2022-12-27T13:42:13.718Z</time>
      </trkpt>
      <trkpt lat="44.54997" lon="-0.86457">
        <ele>77.102772</ele>
        <time>2022-12-27T13:42:15.736Z</time>
      </trkpt>
      <trkpt lat="44.54988" lon="-0.86452">
        <ele>77.088182</ele>
        <time>2022-12-27T13:42:17.739Z</time>
      </trkpt>
      <trkpt lat="44.54977" lon="-0.86444">
        <ele>77.067249</ele>
        <time>2022-12-27T13:42:20.737Z</time>
      </trkpt>
      <trkpt lat="44.54964" lon="-0.86436">
        <ele>77.046408</ele>
        <time>2022-12-27T13:42:23.737Z</time>
      </trkpt>
      <trkpt lat="44.54953" lon="-0.86428">
        <ele>77.025813</ele>
        <time>2022-12-27T13:42:26.737Z</time>
      </trkpt>
      <trkpt lat="44.54944" lon="-0.86423">
        <ele>77.011605</ele>
        <time>2022-12-27T13:42:28.735Z</time>
      </trkpt>
      <trkpt lat="44.54936" lon="-0.86418">
        <ele>76.997343</ele>
        <time>2022-12-27T13:42:30.738Z</time>
      </trkpt>
      <trkpt lat="44.54924" lon="-0.86411">
        <ele>76.976634</ele>
        <time>2022-12-27T13:42:33.734Z</time>
      </trkpt>
      <trkpt lat="44.54912" lon="-0.86404">
        <ele>76.956227</ele>
        <time>2022-12-27T13:42:36.736Z</time>
      </trkpt>
      <trkpt lat="44.54901" lon="-0.86397">
        <ele>76.937253</ele>
        <time>2022-12-27T13:42:39.738Z</time>
      </trkpt>
      <trkpt lat="44.54891" lon="-0.86391">
        <ele>76.920146</ele>
        <time>2022-12-27T13:42:42.723Z</time>
      </trkpt>
      <trkpt lat="44.54883" lon="-0.86385">
        <ele>76.905212</ele>
        <time>2022-12-27T13:42:45.746Z</time>
      </trkpt>
      <trkpt lat="44.54872" lon="-0.86378">
        <ele>76.887236</ele>
        <time>2022-12-27T13:42:49.742Z</time>
      </trkpt>
      <trkpt lat="44.54865" lon="-0.8637">
        <ele>76.8725</ele>
        <time>2022-12-27T13:42:53.732Z</time>
      </trkpt>
      <trkpt lat="44.54855" lon="-0.86369">
        <ele>76.844844</ele>
        <time>2022-12-27T13:42:58.713Z</time>
      </trkpt>
      <trkpt lat="44.54845" lon="-0.86368">
        <ele>76.69431</ele>
        <time>2022-12-27T13:43:02.717Z</time>
      </trkpt>
      <trkpt lat="44.54837" lon="-0.86359">
        <ele>76.544144</ele>
        <time>2022-12-27T13:43:05.716Z</time>
      </trkpt>
      <trkpt lat="44.54827" lon="-0.86351">
        <ele>76.357006</ele>
        <time>2022-12-27T13:43:09.730Z</time>
      </trkpt>
      <trkpt lat="44.54816" lon="-0.86345">
        <ele>76.179499</ele>
        <time>2022-12-27T13:43:12.734Z</time>
      </trkpt>
      <trkpt lat="44.54804" lon="-0.86338">
        <ele>75.982475</ele>
        <time>2022-12-27T13:43:15.734Z</time>
      </trkpt>
      <trkpt lat="44.54796" lon="-0.86332">
        <ele>75.838975</ele>
        <time>2022-12-27T13:43:17.739Z</time>
      </trkpt>
      <trkpt lat="44.54783" lon="-0.86325">
        <ele>75.630203</ele>
        <time>2022-12-27T13:43:20.738Z</time>
      </trkpt>
      <trkpt lat="44.54774" lon="-0.8632">
        <ele>75.486653</ele>
        <time>2022-12-27T13:43:22.738Z</time>
      </trkpt>
      <trkpt lat="44.54766" lon="-0.86314">
        <ele>75.348689</ele>
        <time>2022-12-27T13:43:24.737Z</time>
      </trkpt>
      <trkpt lat="44.54754" lon="-0.86307">
        <ele>75.141193</ele>
        <time>2022-12-27T13:43:27.737Z</time>
      </trkpt>
      <trkpt lat="44.54744" lon="-0.86302">
        <ele>74.979898</ele>
        <time>2022-12-27T13:43:29.737Z</time>
      </trkpt>
      <trkpt lat="44.54734" lon="-0.86296">
        <ele>74.822247</ele>
        <time>2022-12-27T13:43:31.733Z</time>
      </trkpt>
      <trkpt lat="44.54724" lon="-0.8629">
        <ele>74.656046</ele>
        <time>2022-12-27T13:43:33.735Z</time>
      </trkpt>
      <trkpt lat="44.54715" lon="-0.86285">
        <ele>74.496168</ele>
        <time>2022-12-27T13:43:35.735Z</time>
      </trkpt>
      <trkpt lat="44.54705" lon="-0.86279">
        <ele>74.338823</ele>
        <time>2022-12-27T13:43:37.737Z</time>
      </trkpt>
      <trkpt lat="44.54696" lon="-0.86272">
        <ele>74.173993</ele>
        <time>2022-12-27T13:43:39.736Z</time>
      </trkpt>
      <trkpt lat="44.54686" lon="-0.86266">
        <ele>74.022129</ele>
        <time>2022-12-27T13:43:41.713Z</time>
      </trkpt>
      <trkpt lat="44.54676" lon="-0.8626">
        <ele>73.872315</ele>
        <time>2022-12-27T13:43:43.746Z</time>
      </trkpt>
      <trkpt lat="44.54665" lon="-0.86254">
        <ele>73.708953</ele>
        <time>2022-12-27T13:43:45.739Z</time>
      </trkpt>
      <trkpt lat="44.54655" lon="-0.86248">
        <ele>73.560032</ele>
        <time>2022-12-27T13:43:47.727Z</time>
      </trkpt>
      <trkpt lat="44.54644" lon="-0.86242">
        <ele>73.403844</ele>
        <time>2022-12-27T13:43:49.721Z</time>
      </trkpt>
      <trkpt lat="44.54634" lon="-0.86235">
        <ele>73.249236</ele>
        <time>2022-12-27T13:43:51.722Z</time>
      </trkpt>
      <trkpt lat="44.54624" lon="-0.86229">
        <ele>73.095238</ele>
        <time>2022-12-27T13:43:53.741Z</time>
      </trkpt>
      <trkpt lat="44.54614" lon="-0.86223">
        <ele>72.946008</ele>
        <time>2022-12-27T13:43:55.747Z</time>
      </trkpt>
      <trkpt lat="44.54605" lon="-0.86219">
        <ele>72.820007</ele>
        <time>2022-12-27T13:43:57.746Z</time>
      </trkpt>
      <trkpt lat="44.54595" lon="-0.86212">
        <ele>72.670316</ele>
        <time>2022-12-27T13:43:59.738Z</time>
      </trkpt>
      <trkpt lat="44.54586" lon="-0.86206">
        <ele>72.531044</ele>
        <time>2022-12-27T13:44:01.729Z</time>
      </trkpt>
      <trkpt lat="44.54576" lon="-0.86201">
        <ele>72.386509</ele>
        <time>2022-12-27T13:44:03.736Z</time>
      </trkpt>
      <trkpt lat="44.54566" lon="-0.86195">
        <ele>72.240586</ele>
        <time>2022-12-27T13:44:05.722Z</time>
      </trkpt>
      <trkpt lat="44.54556" lon="-0.86188">
        <ele>72.083076</ele>
        <time>2022-12-27T13:44:07.718Z</time>
      </trkpt>
      <trkpt lat="44.54546" lon="-0.86182">
        <ele>71.928828</ele>
        <time>2022-12-27T13:44:09.726Z</time>
      </trkpt>
      <trkpt lat="44.54536" lon="-0.86177">
        <ele>71.785927</ele>
        <time>2022-12-27T13:44:11.725Z</time>
      </trkpt>
      <trkpt lat="44.54527" lon="-0.86171">
        <ele>71.653277</ele>
        <time>2022-12-27T13:44:13.735Z</time>
      </trkpt>
      <trkpt lat="44.54518" lon="-0.86165">
        <ele>71.593784</ele>
        <time>2022-12-27T13:44:15.713Z</time>
      </trkpt>
      <trkpt lat="44.54508" lon="-0.8616">
        <ele>71.543517</ele>
        <time>2022-12-27T13:44:17.730Z</time>
      </trkpt>
      <trkpt lat="44.54498" lon="-0.86153">
        <ele>71.487787</ele>
        <time>2022-12-27T13:44:19.736Z</time>
      </trkpt>
      <trkpt lat="44.54489" lon="-0.86146">
        <ele>71.436413</ele>
        <time>2022-12-27T13:44:21.716Z</time>
      </trkpt>
      <trkpt lat="44.54479" lon="-0.8614">
        <ele>71.382296</ele>
        <time>2022-12-27T13:44:23.746Z</time>
      </trkpt>
      <trkpt lat="44.54466" lon="-0.86132">
        <ele>71.313815</ele>
        <time>2022-12-27T13:44:26.737Z</time>
      </trkpt>
      <trkpt lat="44.54457" lon="-0.86126">
        <ele>71.265864</ele>
        <time>2022-12-27T13:44:28.734Z</time>
      </trkpt>
      <trkpt lat="44.54446" lon="-0.8612">
        <ele>71.208762</ele>
        <time>2022-12-27T13:44:30.733Z</time>
      </trkpt>
      <trkpt lat="44.54437" lon="-0.86115">
        <ele>71.157692</ele>
        <time>2022-12-27T13:44:32.719Z</time>
      </trkpt>
      <trkpt lat="44.54427" lon="-0.86109">
        <ele>71.104184</ele>
        <time>2022-12-27T13:44:34.737Z</time>
      </trkpt>
      <trkpt lat="44.54417" lon="-0.86102">
        <ele>71.051111</ele>
        <time>2022-12-27T13:44:36.739Z</time>
      </trkpt>
      <trkpt lat="44.54407" lon="-0.86097">
        <ele>71.000721</ele>
        <time>2022-12-27T13:44:38.735Z</time>
      </trkpt>
      <trkpt lat="44.54397" lon="-0.86091">
        <ele>70.946293</ele>
        <time>2022-12-27T13:44:40.741Z</time>
      </trkpt>
      <trkpt lat="44.54388" lon="-0.86085">
        <ele>70.896334</ele>
        <time>2022-12-27T13:44:42.746Z</time>
      </trkpt>
      <trkpt lat="44.5438" lon="-0.86078">
        <ele>70.850599</ele>
        <time>2022-12-27T13:44:44.741Z</time>
      </trkpt>
      <trkpt lat="44.54369" lon="-0.86074">
        <ele>70.797097</ele>
        <time>2022-12-27T13:44:46.747Z</time>
      </trkpt>
      <trkpt lat="44.5436" lon="-0.86069">
        <ele>70.762329</ele>
        <time>2022-12-27T13:44:48.737Z</time>
      </trkpt>
      <trkpt lat="44.5435" lon="-0.86065">
        <ele>70.789484</ele>
        <time>2022-12-27T13:44:50.741Z</time>
      </trkpt>
      <trkpt lat="44.54338" lon="-0.8606">
        <ele>70.822735</ele>
        <time>2022-12-27T13:44:53.738Z</time>
      </trkpt>
      <trkpt lat="44.5433" lon="-0.86055">
        <ele>70.84684</ele>
        <time>2022-12-27T13:44:55.738Z</time>
      </trkpt>
      <trkpt lat="44.54321" lon="-0.86048">
        <ele>70.87343</ele>
        <time>2022-12-27T13:44:57.743Z</time>
      </trkpt>
      <trkpt lat="44.54309" lon="-0.86043">
        <ele>70.907389</ele>
        <time>2022-12-27T13:45:00.735Z</time>
      </trkpt>
      <trkpt lat="44.54297" lon="-0.86036">
        <ele>70.942043</ele>
        <time>2022-12-27T13:45:03.738Z</time>
      </trkpt>
      <trkpt lat="44.54286" lon="-0.86029">
        <ele>70.97402</ele>
        <time>2022-12-27T13:45:05.736Z</time>
      </trkpt>
      <trkpt lat="44.54275" lon="-0.8602">
        <ele>71.007735</ele>
        <time>2022-12-27T13:45:08.734Z</time>
      </trkpt>
      <trkpt lat="44.54266" lon="-0.86012">
        <ele>71.036632</ele>
        <time>2022-12-27T13:45:10.719Z</time>
      </trkpt>
      <trkpt lat="44.54255" lon="-0.86007">
        <ele>71.066209</ele>
        <time>2022-12-27T13:45:13.716Z</time>
      </trkpt>
      <trkpt lat="44.54245" lon="-0.86">
        <ele>71.09762</ele>
        <time>2022-12-27T13:45:16.738Z</time>
      </trkpt>
      <trkpt lat="44.54233" lon="-0.85991">
        <ele>71.132675</ele>
        <time>2022-12-27T13:45:19.734Z</time>
      </trkpt>
      <trkpt lat="44.54221" lon="-0.85983">
        <ele>71.169071</ele>
        <time>2022-12-27T13:45:22.733Z</time>
      </trkpt>
      <trkpt lat="44.54209" lon="-0.85977">
        <ele>71.201422</ele>
        <time>2022-12-27T13:45:25.723Z</time>
      </trkpt>
      <trkpt lat="44.54197" lon="-0.85971">
        <ele>71.234583</ele>
        <time>2022-12-27T13:45:28.737Z</time>
      </trkpt>
      <trkpt lat="44.54186" lon="-0.85964">
        <ele>71.077218</ele>
        <time>2022-12-27T13:45:31.716Z</time>
      </trkpt>
      <trkpt lat="44.54175" lon="-0.85956">
        <ele>70.905706</ele>
        <time>2022-12-27T13:45:34.748Z</time>
      </trkpt>
      <trkpt lat="44.54162" lon="-0.85946">
        <ele>70.716925</ele>
        <time>2022-12-27T13:45:37.737Z</time>
      </trkpt>
      <trkpt lat="44.5415" lon="-0.85937">
        <ele>70.535335</ele>
        <time>2022-12-27T13:45:40.745Z</time>
      </trkpt>
      <trkpt lat="44.54142" lon="-0.8593">
        <ele>70.406819</ele>
        <time>2022-12-27T13:45:42.734Z</time>
      </trkpt>
      <trkpt lat="44.54133" lon="-0.85924">
        <ele>70.279918</ele>
        <time>2022-12-27T13:45:44.741Z</time>
      </trkpt>
      <trkpt lat="44.54124" lon="-0.85917">
        <ele>70.143526</ele>
        <time>2022-12-27T13:45:46.740Z</time>
      </trkpt>
      <trkpt lat="44.54116" lon="-0.8591">
        <ele>70.013852</ele>
        <time>2022-12-27T13:45:48.721Z</time>
      </trkpt>
      <trkpt lat="44.54108" lon="-0.85903">
        <ele>69.889127</ele>
        <time>2022-12-27T13:45:50.741Z</time>
      </trkpt>
      <trkpt lat="44.54099" lon="-0.85897">
        <ele>69.765685</ele>
        <time>2022-12-27T13:45:52.737Z</time>
      </trkpt>
      <trkpt lat="44.54087" lon="-0.85888">
        <ele>69.577465</ele>
        <time>2022-12-27T13:45:55.744Z</time>
      </trkpt>
      <trkpt lat="44.54076" lon="-0.85878">
        <ele>69.401934</ele>
        <time>2022-12-27T13:45:58.737Z</time>
      </trkpt>
      <trkpt lat="44.54067" lon="-0.85871">
        <ele>69.276645</ele>
        <time>2022-12-27T13:46:00.737Z</time>
      </trkpt>
      <trkpt lat="44.54059" lon="-0.85865">
        <ele>69.153669</ele>
        <time>2022-12-27T13:46:02.736Z</time>
      </trkpt>
      <trkpt lat="44.54051" lon="-0.85859">
        <ele>69.033923</ele>
        <time>2022-12-27T13:46:04.733Z</time>
      </trkpt>
      <trkpt lat="44.54043" lon="-0.85852">
        <ele>68.909198</ele>
        <time>2022-12-27T13:46:06.738Z</time>
      </trkpt>
      <trkpt lat="44.54035" lon="-0.85844">
        <ele>68.950217</ele>
        <time>2022-12-27T13:46:08.739Z</time>
      </trkpt>
      <trkpt lat="44.54026" lon="-0.85837">
        <ele>69.11107</ele>
        <time>2022-12-27T13:46:10.735Z</time>
      </trkpt>
      <trkpt lat="44.54019" lon="-0.85829">
        <ele>69.265794</ele>
        <time>2022-12-27T13:46:12.739Z</time>
      </trkpt>
      <trkpt lat="44.54011" lon="-0.85821">
        <ele>69.416557</ele>
        <time>2022-12-27T13:46:14.736Z</time>
      </trkpt>
      <trkpt lat="44.54003" lon="-0.85814">
        <ele>69.567487</ele>
        <time>2022-12-27T13:46:16.737Z</time>
      </trkpt>
      <trkpt lat="44.53995" lon="-0.85806">
        <ele>69.723467</ele>
        <time>2022-12-27T13:46:18.739Z</time>
      </trkpt>
      <trkpt lat="44.53987" lon="-0.85798">
        <ele>69.882117</ele>
        <time>2022-12-27T13:46:20.732Z</time>
      </trkpt>
      <trkpt lat="44.53978" lon="-0.85791">
        <ele>70.038913</ele>
        <time>2022-12-27T13:46:22.721Z</time>
      </trkpt>
      <trkpt lat="44.53971" lon="-0.85784">
        <ele>70.183808</ele>
        <time>2022-12-27T13:46:24.735Z</time>
      </trkpt>
      <trkpt lat="44.53961" lon="-0.85774">
        <ele>70.378947</ele>
        <time>2022-12-27T13:46:27.735Z</time>
      </trkpt>
      <trkpt lat="44.53953" lon="-0.85767">
        <ele>70.522571</ele>
        <time>2022-12-27T13:46:29.732Z</time>
      </trkpt>
      <trkpt lat="44.53945" lon="-0.85758">
        <ele>70.687702</ele>
        <time>2022-12-27T13:46:31.726Z</time>
      </trkpt>
      <trkpt lat="44.53937" lon="-0.8575">
        <ele>70.836554</ele>
        <time>2022-12-27T13:46:33.738Z</time>
      </trkpt>
      <trkpt lat="44.5393" lon="-0.85742">
        <ele>70.988322</ele>
        <time>2022-12-27T13:46:35.736Z</time>
      </trkpt>
      <trkpt lat="44.53923" lon="-0.85733">
        <ele>71.141039</ele>
        <time>2022-12-27T13:46:37.734Z</time>
      </trkpt>
      <trkpt lat="44.53915" lon="-0.85725">
        <ele>71.291388</ele>
        <time>2022-12-27T13:46:39.714Z</time>
      </trkpt>
      <trkpt lat="44.53908" lon="-0.85717">
        <ele>71.444834</ele>
        <time>2022-12-27T13:46:41.727Z</time>
      </trkpt>
      <trkpt lat="44.53899" lon="-0.85708">
        <ele>71.611396</ele>
        <time>2022-12-27T13:46:43.731Z</time>
      </trkpt>
      <trkpt lat="44.53893" lon="-0.85699">
        <ele>71.774629</ele>
        <time>2022-12-27T13:46:45.736Z</time>
      </trkpt>
      <trkpt lat="44.53886" lon="-0.8569">
        <ele>71.964265</ele>
        <time>2022-12-27T13:46:47.735Z</time>
      </trkpt>
      <trkpt lat="44.53879" lon="-0.85681">
        <ele>72.159376</ele>
        <time>2022-12-27T13:46:49.740Z</time>
      </trkpt>
      <trkpt lat="44.53869" lon="-0.85669">
        <ele>72.442413</ele>
        <time>2022-12-27T13:46:52.731Z</time>
      </trkpt>
      <trkpt lat="44.53861" lon="-0.8566">
        <ele>72.647451</ele>
        <time>2022-12-27T13:46:54.727Z</time>
      </trkpt>
      <trkpt lat="44.53854" lon="-0.85651">
        <ele>72.847119</ele>
        <time>2022-12-27T13:46:56.742Z</time>
      </trkpt>
      <trkpt lat="44.53847" lon="-0.85642">
        <ele>73.056464</ele>
        <time>2022-12-27T13:46:58.738Z</time>
      </trkpt>
      <trkpt lat="44.5384" lon="-0.85632">
        <ele>73.260253</ele>
        <time>2022-12-27T13:47:00.708Z</time>
      </trkpt>
      <trkpt lat="44.53833" lon="-0.85623">
        <ele>73.463479</ele>
        <time>2022-12-27T13:47:02.735Z</time>
      </trkpt>
      <trkpt lat="44.53826" lon="-0.85614">
        <ele>73.663383</ele>
        <time>2022-12-27T13:47:04.733Z</time>
      </trkpt>
      <trkpt lat="44.53819" lon="-0.85605">
        <ele>73.854901</ele>
        <time>2022-12-27T13:47:06.739Z</time>
      </trkpt>
      <trkpt lat="44.53809" lon="-0.85593">
        <ele>74.137773</ele>
        <time>2022-12-27T13:47:09.736Z</time>
      </trkpt>
      <trkpt lat="44.53802" lon="-0.85584">
        <ele>74.332885</ele>
        <time>2022-12-27T13:47:11.726Z</time>
      </trkpt>
      <trkpt lat="44.53793" lon="-0.85571">
        <ele>74.607553</ele>
        <time>2022-12-27T13:47:14.739Z</time>
      </trkpt>
      <trkpt lat="44.53784" lon="-0.85557">
        <ele>74.883223</ele>
        <time>2022-12-27T13:47:17.737Z</time>
      </trkpt>
      <trkpt lat="44.53777" lon="-0.85548">
        <ele>75.083354</ele>
        <time>2022-12-27T13:47:19.736Z</time>
      </trkpt>
      <trkpt lat="44.53771" lon="-0.85539">
        <ele>75.279513</ele>
        <time>2022-12-27T13:47:21.724Z</time>
      </trkpt>
      <trkpt lat="44.53763" lon="-0.8553">
        <ele>75.475626</ele>
        <time>2022-12-27T13:47:23.737Z</time>
      </trkpt>
      <trkpt lat="44.53755" lon="-0.85519">
        <ele>75.460111</ele>
        <time>2022-12-27T13:47:26.735Z</time>
      </trkpt>
      <trkpt lat="44.53748" lon="-0.85508">
        <ele>75.427265</ele>
        <time>2022-12-27T13:47:28.736Z</time>
      </trkpt>
      <trkpt lat="44.53742" lon="-0.85497">
        <ele>75.39294</ele>
        <time>2022-12-27T13:47:30.741Z</time>
      </trkpt>
      <trkpt lat="44.53734" lon="-0.85485">
        <ele>75.356329</ele>
        <time>2022-12-27T13:47:32.737Z</time>
      </trkpt>
      <trkpt lat="44.53724" lon="-0.8547">
        <ele>75.307459</ele>
        <time>2022-12-27T13:47:35.746Z</time>
      </trkpt>
      <trkpt lat="44.53717" lon="-0.8546">
        <ele>75.274838</ele>
        <time>2022-12-27T13:47:37.743Z</time>
      </trkpt>
      <trkpt lat="44.5371" lon="-0.8545">
        <ele>75.243119</ele>
        <time>2022-12-27T13:47:39.733Z</time>
      </trkpt>
      <trkpt lat="44.53703" lon="-0.8544">
        <ele>75.211056</ele>
        <time>2022-12-27T13:47:41.716Z</time>
      </trkpt>
      <trkpt lat="44.53697" lon="-0.8543">
        <ele>75.180293</ele>
        <time>2022-12-27T13:47:43.733Z</time>
      </trkpt>
      <trkpt lat="44.5369" lon="-0.8542">
        <ele>75.146383</ele>
        <time>2022-12-27T13:47:45.736Z</time>
      </trkpt>
      <trkpt lat="44.53683" lon="-0.85408">
        <ele>75.110085</ele>
        <time>2022-12-27T13:47:47.739Z</time>
      </trkpt>
      <trkpt lat="44.53676" lon="-0.85397">
        <ele>75.076569</ele>
        <time>2022-12-27T13:47:49.738Z</time>
      </trkpt>
      <trkpt lat="44.53669" lon="-0.85386">
        <ele>75.04338</ele>
        <time>2022-12-27T13:47:51.725Z</time>
      </trkpt>
      <trkpt lat="44.53662" lon="-0.85376">
        <ele>75.010311</ele>
        <time>2022-12-27T13:47:53.726Z</time>
      </trkpt>
      <trkpt lat="44.53652" lon="-0.85361">
        <ele>74.962389</ele>
        <time>2022-12-27T13:47:56.724Z</time>
      </trkpt>
      <trkpt lat="44.53645" lon="-0.85351">
        <ele>74.928704</ele>
        <time>2022-12-27T13:47:58.735Z</time>
      </trkpt>
      <trkpt lat="44.53638" lon="-0.85341">
        <ele>74.81239</ele>
        <time>2022-12-27T13:48:00.738Z</time>
      </trkpt>
      <trkpt lat="44.53631" lon="-0.8533">
        <ele>74.564962</ele>
        <time>2022-12-27T13:48:02.723Z</time>
      </trkpt>
      <trkpt lat="44.53625" lon="-0.8532">
        <ele>74.315609</ele>
        <time>2022-12-27T13:48:04.736Z</time>
      </trkpt>
      <trkpt lat="44.53618" lon="-0.8531">
        <ele>74.076188</ele>
        <time>2022-12-27T13:48:06.738Z</time>
      </trkpt>
      <trkpt lat="44.53612" lon="-0.853">
        <ele>73.849661</ele>
        <time>2022-12-27T13:48:08.734Z</time>
      </trkpt>
      <trkpt lat="44.53605" lon="-0.8529">
        <ele>73.588063</ele>
        <time>2022-12-27T13:48:10.739Z</time>
      </trkpt>
      <trkpt lat="44.53597" lon="-0.85279">
        <ele>73.317531</ele>
        <time>2022-12-27T13:48:12.745Z</time>
      </trkpt>
      <trkpt lat="44.5359" lon="-0.85269">
        <ele>73.071655</ele>
        <time>2022-12-27T13:48:14.750Z</time>
      </trkpt>
      <trkpt lat="44.53583" lon="-0.85259">
        <ele>72.824605</ele>
        <time>2022-12-27T13:48:16.734Z</time>
      </trkpt>
      <trkpt lat="44.53576" lon="-0.85249">
        <ele>72.574546</ele>
        <time>2022-12-27T13:48:18.739Z</time>
      </trkpt>
      <trkpt lat="44.5357" lon="-0.85239">
        <ele>72.34167</ele>
        <time>2022-12-27T13:48:20.737Z</time>
      </trkpt>
      <trkpt lat="44.53562" lon="-0.85227">
        <ele>72.054616</ele>
        <time>2022-12-27T13:48:23.734Z</time>
      </trkpt>
      <trkpt lat="44.53555" lon="-0.85216">
        <ele>71.785742</ele>
        <time>2022-12-27T13:48:26.738Z</time>
      </trkpt>
      <trkpt lat="44.53548" lon="-0.85207">
        <ele>71.55157</ele>
        <time>2022-12-27T13:48:29.737Z</time>
      </trkpt>
      <trkpt lat="44.5354" lon="-0.85196">
        <ele>71.267333</ele>
        <time>2022-12-27T13:48:32.738Z</time>
      </trkpt>
      <trkpt lat="44.53531" lon="-0.85184">
        <ele>70.964602</ele>
        <time>2022-12-27T13:48:35.736Z</time>
      </trkpt>
      <trkpt lat="44.53524" lon="-0.85175">
        <ele>70.7368</ele>
        <time>2022-12-27T13:48:37.734Z</time>
      </trkpt>
      <trkpt lat="44.53516" lon="-0.85163">
        <ele>70.436451</ele>
        <time>2022-12-27T13:48:40.736Z</time>
      </trkpt>
      <trkpt lat="44.53506" lon="-0.85152">
        <ele>70.337725</ele>
        <time>2022-12-27T13:48:43.733Z</time>
      </trkpt>
      <trkpt lat="44.53499" lon="-0.85144">
        <ele>70.268594</ele>
        <time>2022-12-27T13:48:45.737Z</time>
      </trkpt>
      <trkpt lat="44.53492" lon="-0.85135">
        <ele>70.196267</ele>
        <time>2022-12-27T13:48:47.737Z</time>
      </trkpt>
      <trkpt lat="44.53485" lon="-0.85126">
        <ele>70.124668</ele>
        <time>2022-12-27T13:48:49.731Z</time>
      </trkpt>
      <trkpt lat="44.53477" lon="-0.85118">
        <ele>70.053113</ele>
        <time>2022-12-27T13:48:51.725Z</time>
      </trkpt>
      <trkpt lat="44.53471" lon="-0.85109">
        <ele>69.982209</ele>
        <time>2022-12-27T13:48:53.747Z</time>
      </trkpt>
      <trkpt lat="44.53463" lon="-0.851">
        <ele>69.906381</ele>
        <time>2022-12-27T13:48:55.735Z</time>
      </trkpt>
      <trkpt lat="44.53455" lon="-0.85092">
        <ele>69.830464</ele>
        <time>2022-12-27T13:48:57.740Z</time>
      </trkpt>
      <trkpt lat="44.53446" lon="-0.85083">
        <ele>69.743795</ele>
        <time>2022-12-27T13:48:59.732Z</time>
      </trkpt>
      <trkpt lat="44.53438" lon="-0.85073">
        <ele>69.65896</ele>
        <time>2022-12-27T13:49:01.729Z</time>
      </trkpt>
      <trkpt lat="44.53429" lon="-0.85064">
        <ele>69.572292</ele>
        <time>2022-12-27T13:49:03.734Z</time>
      </trkpt>
      <trkpt lat="44.5342" lon="-0.85055">
        <ele>69.487562</ele>
        <time>2022-12-27T13:49:05.740Z</time>
      </trkpt>
      <trkpt lat="44.53411" lon="-0.85045">
        <ele>69.401548</ele>
        <time>2022-12-27T13:49:07.735Z</time>
      </trkpt>
      <trkpt lat="44.53402" lon="-0.85036">
        <ele>69.317098</ele>
        <time>2022-12-27T13:49:09.757Z</time>
      </trkpt>
      <trkpt lat="44.53393" lon="-0.85028">
        <ele>69.23394</ele>
        <time>2022-12-27T13:49:11.722Z</time>
      </trkpt>
      <trkpt lat="44.53384" lon="-0.8502">
        <ele>69.151659</ele>
        <time>2022-12-27T13:49:13.739Z</time>
      </trkpt>
      <trkpt lat="44.53376" lon="-0.85012">
        <ele>69.075433</ele>
        <time>2022-12-27T13:49:15.739Z</time>
      </trkpt>
      <trkpt lat="44.53368" lon="-0.85004">
        <ele>69.06859</ele>
        <time>2022-12-27T13:49:17.740Z</time>
      </trkpt>
      <trkpt lat="44.5336" lon="-0.84997">
        <ele>69.087591</ele>
        <time>2022-12-27T13:49:19.748Z</time>
      </trkpt>
      <trkpt lat="44.53349" lon="-0.84988">
        <ele>69.11542</ele>
        <time>2022-12-27T13:49:22.734Z</time>
      </trkpt>
      <trkpt lat="44.53338" lon="-0.8498">
        <ele>69.141945</ele>
        <time>2022-12-27T13:49:25.737Z</time>
      </trkpt>
      <trkpt lat="44.5333" lon="-0.84973">
        <ele>69.161463</ele>
        <time>2022-12-27T13:49:27.734Z</time>
      </trkpt>
      <trkpt lat="44.5332" lon="-0.84964">
        <ele>69.186729</ele>
        <time>2022-12-27T13:49:30.728Z</time>
      </trkpt>
      <trkpt lat="44.53309" lon="-0.84956">
        <ele>69.211993</ele>
        <time>2022-12-27T13:49:33.736Z</time>
      </trkpt>
      <trkpt lat="44.533" lon="-0.8495">
        <ele>69.233792</ele>
        <time>2022-12-27T13:49:37.720Z</time>
      </trkpt>
      <trkpt lat="44.53291" lon="-0.84943">
        <ele>69.255195</ele>
        <time>2022-12-27T13:49:42.728Z</time>
      </trkpt>
      <trkpt lat="44.53281" lon="-0.84935">
        <ele>69.278834</ele>
        <time>2022-12-27T13:49:48.721Z</time>
      </trkpt>
      <trkpt lat="44.53271" lon="-0.84927">
        <ele>69.303249</ele>
        <time>2022-12-27T13:49:52.747Z</time>
      </trkpt>
      <trkpt lat="44.53262" lon="-0.8492">
        <ele>69.325564</ele>
        <time>2022-12-27T13:49:55.735Z</time>
      </trkpt>
      <trkpt lat="44.53252" lon="-0.84912">
        <ele>69.350604</ele>
        <time>2022-12-27T13:49:58.744Z</time>
      </trkpt>
      <trkpt lat="44.53241" lon="-0.84903">
        <ele>69.376936</ele>
        <time>2022-12-27T13:50:01.729Z</time>
      </trkpt>
      <trkpt lat="44.5323" lon="-0.84894">
        <ele>69.404336</ele>
        <time>2022-12-27T13:50:04.736Z</time>
      </trkpt>
      <trkpt lat="44.53218" lon="-0.84885">
        <ele>69.43251</ele>
        <time>2022-12-27T13:50:07.734Z</time>
      </trkpt>
      <trkpt lat="44.53207" lon="-0.84876">
        <ele>69.662694</ele>
        <time>2022-12-27T13:50:10.726Z</time>
      </trkpt>
      <trkpt lat="44.53196" lon="-0.84867">
        <ele>69.909484</ele>
        <time>2022-12-27T13:50:13.725Z</time>
      </trkpt>
      <trkpt lat="44.53185" lon="-0.84858">
        <ele>70.156274</ele>
        <time>2022-12-27T13:50:16.747Z</time>
      </trkpt>
      <trkpt lat="44.53174" lon="-0.84848">
        <ele>70.406411</ele>
        <time>2022-12-27T13:50:19.735Z</time>
      </trkpt>
      <trkpt lat="44.53163" lon="-0.84839">
        <ele>70.651156</ele>
        <time>2022-12-27T13:50:22.730Z</time>
      </trkpt>
      <trkpt lat="44.53152" lon="-0.8483">
        <ele>70.902643</ele>
        <time>2022-12-27T13:50:25.740Z</time>
      </trkpt>
      <trkpt lat="44.53144" lon="-0.84823">
        <ele>71.07776</ele>
        <time>2022-12-27T13:50:27.715Z</time>
      </trkpt>
      <trkpt lat="44.53136" lon="-0.84817">
        <ele>71.254234</ele>
        <time>2022-12-27T13:50:29.736Z</time>
      </trkpt>
      <trkpt lat="44.53125" lon="-0.84809">
        <ele>71.489604</ele>
        <time>2022-12-27T13:50:32.725Z</time>
      </trkpt>
      <trkpt lat="44.53114" lon="-0.848">
        <ele>71.732005</ele>
        <time>2022-12-27T13:50:35.720Z</time>
      </trkpt>
      <trkpt lat="44.53103" lon="-0.84791">
        <ele>71.981838</ele>
        <time>2022-12-27T13:50:38.731Z</time>
      </trkpt>
      <trkpt lat="44.53092" lon="-0.84782">
        <ele>72.227672</ele>
        <time>2022-12-27T13:50:41.731Z</time>
      </trkpt>
      <trkpt lat="44.53081" lon="-0.84773">
        <ele>72.469125</ele>
        <time>2022-12-27T13:50:44.737Z</time>
      </trkpt>
      <trkpt lat="44.53069" lon="-0.84764">
        <ele>72.717309</ele>
        <time>2022-12-27T13:50:47.729Z</time>
      </trkpt>
      <trkpt lat="44.53058" lon="-0.84755">
        <ele>72.920455</ele>
        <time>2022-12-27T13:50:50.744Z</time>
      </trkpt>
      <trkpt lat="44.53046" lon="-0.84746">
        <ele>73.019685</ele>
        <time>2022-12-27T13:50:53.720Z</time>
      </trkpt>
      <trkpt lat="44.53035" lon="-0.84737">
        <ele>73.117614</ele>
        <time>2022-12-27T13:50:56.722Z</time>
      </trkpt>
      <trkpt lat="44.53023" lon="-0.84728">
        <ele>73.216074</ele>
        <time>2022-12-27T13:50:59.720Z</time>
      </trkpt>
      <trkpt lat="44.53011" lon="-0.84719">
        <ele>73.317126</ele>
        <time>2022-12-27T13:51:02.722Z</time>
      </trkpt>
      <trkpt lat="44.53003" lon="-0.84713">
        <ele>73.384759</ele>
        <time>2022-12-27T13:51:04.739Z</time>
      </trkpt>
      <trkpt lat="44.52992" lon="-0.84705">
        <ele>73.482057</ele>
        <time>2022-12-27T13:51:07.748Z</time>
      </trkpt>
      <trkpt lat="44.52982" lon="-0.84696">
        <ele>73.569184</ele>
        <time>2022-12-27T13:51:10.737Z</time>
      </trkpt>
      <trkpt lat="44.52972" lon="-0.84689">
        <ele>73.649802</ele>
        <time>2022-12-27T13:51:13.739Z</time>
      </trkpt>
      <trkpt lat="44.52962" lon="-0.84681">
        <ele>73.738103</ele>
        <time>2022-12-27T13:51:16.715Z</time>
      </trkpt>
      <trkpt lat="44.52951" lon="-0.84672">
        <ele>73.833559</ele>
        <time>2022-12-27T13:51:19.740Z</time>
      </trkpt>
      <trkpt lat="44.52939" lon="-0.84663">
        <ele>73.931555</ele>
        <time>2022-12-27T13:51:22.724Z</time>
      </trkpt>
      <trkpt lat="44.52929" lon="-0.84654">
        <ele>74.024407</ele>
        <time>2022-12-27T13:51:25.738Z</time>
      </trkpt>
      <trkpt lat="44.52917" lon="-0.84645">
        <ele>74.125986</ele>
        <time>2022-12-27T13:51:28.709Z</time>
      </trkpt>
      <trkpt lat="44.52908" lon="-0.84638">
        <ele>74.197869</ele>
        <time>2022-12-27T13:51:30.714Z</time>
      </trkpt>
      <trkpt lat="44.529" lon="-0.84631">
        <ele>74.222474</ele>
        <time>2022-12-27T13:51:32.760Z</time>
      </trkpt>
      <trkpt lat="44.52892" lon="-0.84625">
        <ele>74.210466</ele>
        <time>2022-12-27T13:51:34.717Z</time>
      </trkpt>
      <trkpt lat="44.52883" lon="-0.84618">
        <ele>74.196993</ele>
        <time>2022-12-27T13:51:36.713Z</time>
      </trkpt>
      <trkpt lat="44.52874" lon="-0.84611">
        <ele>74.184669</ele>
        <time>2022-12-27T13:51:38.738Z</time>
      </trkpt>
      <trkpt lat="44.52866" lon="-0.84605">
        <ele>74.172085</ele>
        <time>2022-12-27T13:51:40.729Z</time>
      </trkpt>
      <trkpt lat="44.52857" lon="-0.84598">
        <ele>74.158973</ele>
        <time>2022-12-27T13:51:42.728Z</time>
      </trkpt>
      <trkpt lat="44.52848" lon="-0.84591">
        <ele>74.145947</ele>
        <time>2022-12-27T13:51:44.714Z</time>
      </trkpt>
      <trkpt lat="44.5284" lon="-0.84585">
        <ele>74.133623</ele>
        <time>2022-12-27T13:51:46.720Z</time>
      </trkpt>
      <trkpt lat="44.52831" lon="-0.84578">
        <ele>74.1206</ele>
        <time>2022-12-27T13:51:48.738Z</time>
      </trkpt>
      <trkpt lat="44.52822" lon="-0.84571">
        <ele>74.107775</ele>
        <time>2022-12-27T13:51:50.723Z</time>
      </trkpt>
      <trkpt lat="44.52814" lon="-0.84564">
        <ele>74.094893</ele>
        <time>2022-12-27T13:51:52.735Z</time>
      </trkpt>
      <trkpt lat="44.52805" lon="-0.84556">
        <ele>74.081375</ele>
        <time>2022-12-27T13:51:54.741Z</time>
      </trkpt>
      <trkpt lat="44.52796" lon="-0.84549">
        <ele>74.068306</ele>
        <time>2022-12-27T13:51:56.719Z</time>
      </trkpt>
      <trkpt lat="44.52786" lon="-0.84541">
        <ele>74.054064</ele>
        <time>2022-12-27T13:51:58.735Z</time>
      </trkpt>
      <trkpt lat="44.52777" lon="-0.84535">
        <ele>74.040108</ele>
        <time>2022-12-27T13:52:00.726Z</time>
      </trkpt>
      <trkpt lat="44.52767" lon="-0.84527">
        <ele>74.025977</ele>
        <time>2022-12-27T13:52:02.743Z</time>
      </trkpt>
      <trkpt lat="44.52758" lon="-0.84519">
        <ele>74.011735</ele>
        <time>2022-12-27T13:52:04.738Z</time>
      </trkpt>
      <trkpt lat="44.52748" lon="-0.84512">
        <ele>73.99736</ele>
        <time>2022-12-27T13:52:06.735Z</time>
      </trkpt>
      <trkpt lat="44.52739" lon="-0.84504">
        <ele>73.937854</ele>
        <time>2022-12-27T13:52:08.739Z</time>
      </trkpt>
      <trkpt lat="44.52729" lon="-0.84497">
        <ele>73.877226</ele>
        <time>2022-12-27T13:52:10.733Z</time>
      </trkpt>
      <trkpt lat="44.5272" lon="-0.8449">
        <ele>73.819521</ele>
        <time>2022-12-27T13:52:12.740Z</time>
      </trkpt>
      <trkpt lat="44.52711" lon="-0.84482">
        <ele>73.758873</ele>
        <time>2022-12-27T13:52:14.739Z</time>
      </trkpt>
      <trkpt lat="44.52702" lon="-0.84475">
        <ele>73.700538</ele>
        <time>2022-12-27T13:52:16.747Z</time>
      </trkpt>
      <trkpt lat="44.52692" lon="-0.84468">
        <ele>73.639127</ele>
        <time>2022-12-27T13:52:18.746Z</time>
      </trkpt>
      <trkpt lat="44.52683" lon="-0.8446">
        <ele>73.5806</ele>
        <time>2022-12-27T13:52:20.733Z</time>
      </trkpt>
      <trkpt lat="44.52674" lon="-0.84453">
        <ele>73.521337</ele>
        <time>2022-12-27T13:52:22.736Z</time>
      </trkpt>
      <trkpt lat="44.52665" lon="-0.84446">
        <ele>73.463814</ele>
        <time>2022-12-27T13:52:24.737Z</time>
      </trkpt>
      <trkpt lat="44.52656" lon="-0.84439">
        <ele>73.407875</ele>
        <time>2022-12-27T13:52:26.721Z</time>
      </trkpt>
      <trkpt lat="44.52648" lon="-0.84433">
        <ele>73.355841</ele>
        <time>2022-12-27T13:52:28.738Z</time>
      </trkpt>
      <trkpt lat="44.5264" lon="-0.84427">
        <ele>73.303807</ele>
        <time>2022-12-27T13:52:30.729Z</time>
      </trkpt>
      <trkpt lat="44.52632" lon="-0.8442">
        <ele>73.250208</ele>
        <time>2022-12-27T13:52:32.737Z</time>
      </trkpt>
      <trkpt lat="44.5262" lon="-0.8441">
        <ele>73.173767</ele>
        <time>2022-12-27T13:52:35.733Z</time>
      </trkpt>
      <trkpt lat="44.52611" lon="-0.84404">
        <ele>73.116739</ele>
        <time>2022-12-27T13:52:37.734Z</time>
      </trkpt>
      <trkpt lat="44.52601" lon="-0.84396">
        <ele>73.056012</ele>
        <time>2022-12-27T13:52:39.740Z</time>
      </trkpt>
      <trkpt lat="44.52593" lon="-0.84389">
        <ele>73.000073</ele>
        <time>2022-12-27T13:52:41.715Z</time>
      </trkpt>
      <trkpt lat="44.52583" lon="-0.84382">
        <ele>73.102454</ele>
        <time>2022-12-27T13:52:43.737Z</time>
      </trkpt>
      <trkpt lat="44.52575" lon="-0.84375">
        <ele>73.224981</ele>
        <time>2022-12-27T13:52:45.740Z</time>
      </trkpt>
      <trkpt lat="44.52567" lon="-0.84369">
        <ele>73.3403</ele>
        <time>2022-12-27T13:52:47.740Z</time>
      </trkpt>
      <trkpt lat="44.52559" lon="-0.84364">
        <ele>73.45373</ele>
        <time>2022-12-27T13:52:49.724Z</time>
      </trkpt>
      <trkpt lat="44.5255" lon="-0.84357">
        <ele>73.578558</ele>
        <time>2022-12-27T13:52:51.725Z</time>
      </trkpt>
      <trkpt lat="44.52541" lon="-0.8435">
        <ele>73.700757</ele>
        <time>2022-12-27T13:52:53.736Z</time>
      </trkpt>
      <trkpt lat="44.52529" lon="-0.8434">
        <ele>73.876452</ele>
        <time>2022-12-27T13:52:56.736Z</time>
      </trkpt>
      <trkpt lat="44.5252" lon="-0.84333">
        <ele>74.004455</ele>
        <time>2022-12-27T13:52:58.735Z</time>
      </trkpt>
      <trkpt lat="44.52512" lon="-0.84326">
        <ele>74.123119</ele>
        <time>2022-12-27T13:53:00.737Z</time>
      </trkpt>
      <trkpt lat="44.52503" lon="-0.8432">
        <ele>74.24867</ele>
        <time>2022-12-27T13:53:02.751Z</time>
      </trkpt>
      <trkpt lat="44.52495" lon="-0.84314">
        <ele>74.36399</ele>
        <time>2022-12-27T13:53:04.740Z</time>
      </trkpt>
      <trkpt lat="44.52486" lon="-0.84307">
        <ele>74.490666</ele>
        <time>2022-12-27T13:53:06.737Z</time>
      </trkpt>
      <trkpt lat="44.52478" lon="-0.84299">
        <ele>74.617853</ele>
        <time>2022-12-27T13:53:08.738Z</time>
      </trkpt>
      <trkpt lat="44.52469" lon="-0.84291">
        <ele>74.744071</ele>
        <time>2022-12-27T13:53:10.735Z</time>
      </trkpt>
      <trkpt lat="44.52461" lon="-0.84284">
        <ele>74.86948</ele>
        <time>2022-12-27T13:53:12.719Z</time>
      </trkpt>
      <trkpt lat="44.52452" lon="-0.84277">
        <ele>74.995515</ele>
        <time>2022-12-27T13:53:14.740Z</time>
      </trkpt>
      <trkpt lat="44.52443" lon="-0.8427">
        <ele>75.126571</ele>
        <time>2022-12-27T13:53:16.735Z</time>
      </trkpt>
      <trkpt lat="44.52434" lon="-0.84263">
        <ele>75.235584</ele>
        <time>2022-12-27T13:53:18.734Z</time>
      </trkpt>
      <trkpt lat="44.52425" lon="-0.84256">
        <ele>75.171223</ele>
        <time>2022-12-27T13:53:20.725Z</time>
      </trkpt>
      <trkpt lat="44.52416" lon="-0.8425">
        <ele>75.109021</ele>
        <time>2022-12-27T13:53:22.738Z</time>
      </trkpt>
      <trkpt lat="44.52407" lon="-0.84243">
        <ele>75.044873</ele>
        <time>2022-12-27T13:53:24.737Z</time>
      </trkpt>
      <trkpt lat="44.52398" lon="-0.84236">
        <ele>74.983142</ele>
        <time>2022-12-27T13:53:26.739Z</time>
      </trkpt>
      <trkpt lat="44.5239" lon="-0.84229">
        <ele>74.918987</ele>
        <time>2022-12-27T13:53:28.735Z</time>
      </trkpt>
      <trkpt lat="44.52381" lon="-0.84222">
        <ele>74.855827</ele>
        <time>2022-12-27T13:53:30.746Z</time>
      </trkpt>
      <trkpt lat="44.52372" lon="-0.84215">
        <ele>74.791578</ele>
        <time>2022-12-27T13:53:32.738Z</time>
      </trkpt>
      <trkpt lat="44.52363" lon="-0.84208">
        <ele>74.728095</ele>
        <time>2022-12-27T13:53:34.744Z</time>
      </trkpt>
      <trkpt lat="44.52354" lon="-0.84201">
        <ele>74.66505</ele>
        <time>2022-12-27T13:53:36.748Z</time>
      </trkpt>
      <trkpt lat="44.52345" lon="-0.84194">
        <ele>74.598351</ele>
        <time>2022-12-27T13:53:38.748Z</time>
      </trkpt>
      <trkpt lat="44.52336" lon="-0.84187">
        <ele>74.532886</ele>
        <time>2022-12-27T13:53:40.739Z</time>
      </trkpt>
      <trkpt lat="44.52327" lon="-0.84181">
        <ele>74.471371</ele>
        <time>2022-12-27T13:53:42.738Z</time>
      </trkpt>
      <trkpt lat="44.52319" lon="-0.84172">
        <ele>74.408122</ele>
        <time>2022-12-27T13:53:44.750Z</time>
      </trkpt>
      <trkpt lat="44.52311" lon="-0.84163">
        <ele>74.342332</ele>
        <time>2022-12-27T13:53:46.725Z</time>
      </trkpt>
      <trkpt lat="44.52302" lon="-0.84155">
        <ele>74.274218</ele>
        <time>2022-12-27T13:53:48.734Z</time>
      </trkpt>
      <trkpt lat="44.52294" lon="-0.84147">
        <ele>74.213334</ele>
        <time>2022-12-27T13:53:50.737Z</time>
      </trkpt>
      <trkpt lat="44.52284" lon="-0.84139">
        <ele>74.14368</ele>
        <time>2022-12-27T13:53:52.740Z</time>
      </trkpt>
      <trkpt lat="44.52276" lon="-0.8413">
        <ele>74.087865</ele>
        <time>2022-12-27T13:53:54.735Z</time>
      </trkpt>
      <trkpt lat="44.52268" lon="-0.8412">
        <ele>74.036899</ele>
        <time>2022-12-27T13:53:56.713Z</time>
      </trkpt>
      <trkpt lat="44.52259" lon="-0.8411">
        <ele>73.982843</ele>
        <time>2022-12-27T13:53:58.741Z</time>
      </trkpt>
      <trkpt lat="44.52251" lon="-0.84101">
        <ele>73.934245</ele>
        <time>2022-12-27T13:54:00.750Z</time>
      </trkpt>
      <trkpt lat="44.52243" lon="-0.84092">
        <ele>73.886147</ele>
        <time>2022-12-27T13:54:02.749Z</time>
      </trkpt>
      <trkpt lat="44.52235" lon="-0.84082">
        <ele>73.8374</ele>
        <time>2022-12-27T13:54:04.746Z</time>
      </trkpt>
      <trkpt lat="44.52228" lon="-0.84073">
        <ele>73.791298</ele>
        <time>2022-12-27T13:54:06.745Z</time>
      </trkpt>
      <trkpt lat="44.52221" lon="-0.84064">
        <ele>73.745774</ele>
        <time>2022-12-27T13:54:08.743Z</time>
      </trkpt>
      <trkpt lat="44.52213" lon="-0.84055">
        <ele>73.698969</ele>
        <time>2022-12-27T13:54:10.738Z</time>
      </trkpt>
      <trkpt lat="44.52206" lon="-0.84045">
        <ele>73.650588</ele>
        <time>2022-12-27T13:54:12.733Z</time>
      </trkpt>
      <trkpt lat="44.52198" lon="-0.84034">
        <ele>73.598531</ele>
        <time>2022-12-27T13:54:14.738Z</time>
      </trkpt>
      <trkpt lat="44.52191" lon="-0.84024">
        <ele>73.553381</ele>
        <time>2022-12-27T13:54:16.725Z</time>
      </trkpt>
      <trkpt lat="44.52182" lon="-0.84011">
        <ele>73.491075</ele>
        <time>2022-12-27T13:54:19.737Z</time>
      </trkpt>
      <trkpt lat="44.52175" lon="-0.84002">
        <ele>73.447727</ele>
        <time>2022-12-27T13:54:21.727Z</time>
      </trkpt>
      <trkpt lat="44.5217" lon="-0.83991">
        <ele>73.402173</ele>
        <time>2022-12-27T13:54:23.737Z</time>
      </trkpt>
      <trkpt lat="44.52162" lon="-0.8398">
        <ele>73.353139</ele>
        <time>2022-12-27T13:54:25.732Z</time>
      </trkpt>
      <trkpt lat="44.52153" lon="-0.83967">
        <ele>73.291595</ele>
        <time>2022-12-27T13:54:28.736Z</time>
      </trkpt>
      <trkpt lat="44.52143" lon="-0.83954">
        <ele>73.156661</ele>
        <time>2022-12-27T13:54:31.723Z</time>
      </trkpt>
      <trkpt lat="44.52135" lon="-0.83942">
        <ele>73.006803</ele>
        <time>2022-12-27T13:54:34.732Z</time>
      </trkpt>
      <trkpt lat="44.52129" lon="-0.83932">
        <ele>72.874798</ele>
        <time>2022-12-27T13:54:37.722Z</time>
      </trkpt>
      <trkpt lat="44.52123" lon="-0.83922">
        <ele>72.754808</ele>
        <time>2022-12-27T13:54:40.735Z</time>
      </trkpt>
      <trkpt lat="44.52116" lon="-0.83911">
        <ele>72.622803</ele>
        <time>2022-12-27T13:54:43.732Z</time>
      </trkpt>
      <trkpt lat="44.52109" lon="-0.839">
        <ele>72.484885</ele>
        <time>2022-12-27T13:54:46.736Z</time>
      </trkpt>
      <trkpt lat="44.521" lon="-0.8389">
        <ele>72.335438</ele>
        <time>2022-12-27T13:54:49.735Z</time>
      </trkpt>
      <trkpt lat="44.52087" lon="-0.83888">
        <ele>72.165284</ele>
        <time>2022-12-27T13:54:52.736Z</time>
      </trkpt>
      <trkpt lat="44.52078" lon="-0.8389">
        <ele>72.042398</ele>
        <time>2022-12-27T13:54:54.733Z</time>
      </trkpt>
      <trkpt lat="44.52068" lon="-0.83894">
        <ele>71.908539</ele>
        <time>2022-12-27T13:54:56.739Z</time>
      </trkpt>
      <trkpt lat="44.52057" lon="-0.83897">
        <ele>71.770081</ele>
        <time>2022-12-27T13:54:58.741Z</time>
      </trkpt>
      <trkpt lat="44.52047" lon="-0.83901">
        <ele>71.630738</ele>
        <time>2022-12-27T13:55:00.739Z</time>
      </trkpt>
      <trkpt lat="44.52037" lon="-0.83905">
        <ele>71.493416</ele>
        <time>2022-12-27T13:55:02.736Z</time>
      </trkpt>
      <trkpt lat="44.52027" lon="-0.83908">
        <ele>71.363743</ele>
        <time>2022-12-27T13:55:04.739Z</time>
      </trkpt>
      <trkpt lat="44.52018" lon="-0.83911">
        <ele>71.240014</ele>
        <time>2022-12-27T13:55:06.735Z</time>
      </trkpt>
      <trkpt lat="44.52007" lon="-0.83913">
        <ele>71.103782</ele>
        <time>2022-12-27T13:55:08.749Z</time>
      </trkpt>
      <trkpt lat="44.51997" lon="-0.83918">
        <ele>70.970106</ele>
        <time>2022-12-27T13:55:10.727Z</time>
      </trkpt>
      <trkpt lat="44.51986" lon="-0.83922">
        <ele>70.733159</ele>
        <time>2022-12-27T13:55:12.736Z</time>
      </trkpt>
      <trkpt lat="44.51976" lon="-0.83926">
        <ele>70.477086</ele>
        <time>2022-12-27T13:55:14.738Z</time>
      </trkpt>
      <trkpt lat="44.51966" lon="-0.8393">
        <ele>70.231347</ele>
        <time>2022-12-27T13:55:16.748Z</time>
      </trkpt>
      <trkpt lat="44.51956" lon="-0.83933">
        <ele>70.008076</ele>
        <time>2022-12-27T13:55:18.731Z</time>
      </trkpt>
      <trkpt lat="44.51947" lon="-0.83936">
        <ele>69.785254</ele>
        <time>2022-12-27T13:55:20.739Z</time>
      </trkpt>
      <trkpt lat="44.51938" lon="-0.83939">
        <ele>69.574459</ele>
        <time>2022-12-27T13:55:22.736Z</time>
      </trkpt>
      <trkpt lat="44.51929" lon="-0.83942">
        <ele>69.346402</ele>
        <time>2022-12-27T13:55:24.736Z</time>
      </trkpt>
      <trkpt lat="44.51919" lon="-0.83946">
        <ele>69.128458</ele>
        <time>2022-12-27T13:55:26.740Z</time>
      </trkpt>
      <trkpt lat="44.5191" lon="-0.8395">
        <ele>68.892573</ele>
        <time>2022-12-27T13:55:28.748Z</time>
      </trkpt>
      <trkpt lat="44.51901" lon="-0.83953">
        <ele>68.682583</ele>
        <time>2022-12-27T13:55:30.735Z</time>
      </trkpt>
      <trkpt lat="44.51888" lon="-0.83958">
        <ele>68.380727</ele>
        <time>2022-12-27T13:55:33.736Z</time>
      </trkpt>
      <trkpt lat="44.51876" lon="-0.83962">
        <ele>68.075914</ele>
        <time>2022-12-27T13:55:36.743Z</time>
      </trkpt>
      <trkpt lat="44.51866" lon="-0.83966">
        <ele>67.842827</ele>
        <time>2022-12-27T13:55:38.736Z</time>
      </trkpt>
      <trkpt lat="44.51853" lon="-0.8397">
        <ele>67.533865</ele>
        <time>2022-12-27T13:55:41.729Z</time>
      </trkpt>
      <trkpt lat="44.51841" lon="-0.83976">
        <ele>67.243852</ele>
        <time>2022-12-27T13:55:44.740Z</time>
      </trkpt>
      <trkpt lat="44.51831" lon="-0.83981">
        <ele>66.984532</ele>
        <time>2022-12-27T13:55:47.746Z</time>
      </trkpt>
      <trkpt lat="44.5182" lon="-0.83985">
        <ele>66.729297</ele>
        <time>2022-12-27T13:55:49.733Z</time>
      </trkpt>
      <trkpt lat="44.5181" lon="-0.83989">
        <ele>66.399292</ele>
        <time>2022-12-27T13:55:51.735Z</time>
      </trkpt>
      <trkpt lat="44.51797" lon="-0.83994">
        <ele>66.015787</ele>
        <time>2022-12-27T13:55:53.737Z</time>
      </trkpt>
      <trkpt lat="44.51785" lon="-0.84">
        <ele>65.622476</ele>
        <time>2022-12-27T13:55:55.733Z</time>
      </trkpt>
      <trkpt lat="44.51773" lon="-0.84005">
        <ele>65.242763</ele>
        <time>2022-12-27T13:55:57.745Z</time>
      </trkpt>
      <trkpt lat="44.5176" lon="-0.84011">
        <ele>64.851869</ele>
        <time>2022-12-27T13:55:59.740Z</time>
      </trkpt>
      <trkpt lat="44.51748" lon="-0.84017">
        <ele>64.480666</ele>
        <time>2022-12-27T13:56:01.718Z</time>
      </trkpt>
      <trkpt lat="44.51737" lon="-0.84022">
        <ele>64.132631</ele>
        <time>2022-12-27T13:56:03.712Z</time>
      </trkpt>
      <trkpt lat="44.51727" lon="-0.84026">
        <ele>63.799762</ele>
        <time>2022-12-27T13:56:05.735Z</time>
      </trkpt>
      <trkpt lat="44.51717" lon="-0.84029">
        <ele>63.507075</ele>
        <time>2022-12-27T13:56:07.736Z</time>
      </trkpt>
      <trkpt lat="44.51707" lon="-0.84033">
        <ele>63.19202</ele>
        <time>2022-12-27T13:56:09.744Z</time>
      </trkpt>
      <trkpt lat="44.51697" lon="-0.84038">
        <ele>62.884184</ele>
        <time>2022-12-27T13:56:11.719Z</time>
      </trkpt>
      <trkpt lat="44.51687" lon="-0.84042">
        <ele>62.569342</ele>
        <time>2022-12-27T13:56:13.744Z</time>
      </trkpt>
      <trkpt lat="44.51677" lon="-0.84047">
        <ele>62.252587</ele>
        <time>2022-12-27T13:56:15.737Z</time>
      </trkpt>
      <trkpt lat="44.51667" lon="-0.84051">
        <ele>61.939071</ele>
        <time>2022-12-27T13:56:17.737Z</time>
      </trkpt>
      <trkpt lat="44.51657" lon="-0.84054">
        <ele>61.63334</ele>
        <time>2022-12-27T13:56:19.734Z</time>
      </trkpt>
      <trkpt lat="44.51647" lon="-0.84057">
        <ele>61.423623</ele>
        <time>2022-12-27T13:56:21.732Z</time>
      </trkpt>
      <trkpt lat="44.51638" lon="-0.84061">
        <ele>61.543191</ele>
        <time>2022-12-27T13:56:23.730Z</time>
      </trkpt>
      <trkpt lat="44.51625" lon="-0.84066">
        <ele>61.704595</ele>
        <time>2022-12-27T13:56:26.748Z</time>
      </trkpt>
      <trkpt lat="44.51616" lon="-0.84069">
        <ele>61.824672</ele>
        <time>2022-12-27T13:56:28.738Z</time>
      </trkpt>
      <trkpt lat="44.51604" lon="-0.84067">
        <ele>61.976373</ele>
        <time>2022-12-27T13:56:31.737Z</time>
      </trkpt>
      <trkpt lat="44.51597" lon="-0.84054">
        <ele>62.120534</ele>
        <time>2022-12-27T13:56:34.735Z</time>
      </trkpt>
      <trkpt lat="44.51594" lon="-0.84039">
        <ele>62.255376</ele>
        <time>2022-12-27T13:56:37.721Z</time>
      </trkpt>
      <trkpt lat="44.51591" lon="-0.84025">
        <ele>62.37939</ele>
        <time>2022-12-27T13:56:41.736Z</time>
      </trkpt>
      <trkpt lat="44.51593" lon="-0.8401">
        <ele>62.515053</ele>
        <time>2022-12-27T13:56:44.731Z</time>
      </trkpt>
      <trkpt lat="44.51599" lon="-0.83999">
        <ele>62.639939</ele>
        <time>2022-12-27T13:56:47.718Z</time>
      </trkpt>
      <trkpt lat="44.51608" lon="-0.83991">
        <ele>62.776701</ele>
        <time>2022-12-27T13:56:51.721Z</time>
      </trkpt>
      <trkpt lat="44.51619" lon="-0.83985">
        <ele>62.914678</ele>
        <time>2022-12-27T13:56:55.724Z</time>
      </trkpt>
      <trkpt lat="44.51629" lon="-0.83981">
        <ele>63.045464</ele>
        <time>2022-12-27T13:56:59.737Z</time>
      </trkpt>
      <trkpt lat="44.51638" lon="-0.83978">
        <ele>63.164996</ele>
        <time>2022-12-27T13:57:02.734Z</time>
      </trkpt>
      <trkpt lat="44.51647" lon="-0.83974">
        <ele>63.283805</ele>
        <time>2022-12-27T13:57:05.722Z</time>
      </trkpt>
      <trkpt lat="44.51656" lon="-0.83971">
        <ele>63.397433</ele>
        <time>2022-12-27T13:57:08.734Z</time>
      </trkpt>
      <trkpt lat="44.51668" lon="-0.83968">
        <ele>63.539876</ele>
        <time>2022-12-27T13:57:12.719Z</time>
      </trkpt>
      <trkpt lat="44.51679" lon="-0.83964">
        <ele>63.830061</ele>
        <time>2022-12-27T13:57:16.738Z</time>
      </trkpt>
      <trkpt lat="44.51687" lon="-0.8396">
        <ele>64.267894</ele>
        <time>2022-12-27T13:57:19.743Z</time>
      </trkpt>
      <trkpt lat="44.51698" lon="-0.83956">
        <ele>64.813225</ele>
        <time>2022-12-27T13:57:23.739Z</time>
      </trkpt>
      <trkpt lat="44.51709" lon="-0.83951">
        <ele>65.359907</ele>
        <time>2022-12-27T13:57:27.727Z</time>
      </trkpt>
      <trkpt lat="44.51719" lon="-0.83948">
        <ele>65.842999</ele>
        <time>2022-12-27T13:57:31.726Z</time>
      </trkpt>
      <trkpt lat="44.51729" lon="-0.83944">
        <ele>66.359602</ele>
        <time>2022-12-27T13:57:35.754Z</time>
      </trkpt>
      <trkpt lat="44.5174" lon="-0.83941">
        <ele>66.915497</ele>
        <time>2022-12-27T13:57:39.725Z</time>
      </trkpt>
      <trkpt lat="44.51752" lon="-0.83936">
        <ele>67.479396</ele>
        <time>2022-12-27T13:57:43.743Z</time>
      </trkpt>
      <trkpt lat="44.51762" lon="-0.83932">
        <ele>67.998969</ele>
        <time>2022-12-27T13:57:47.748Z</time>
      </trkpt>
      <trkpt lat="44.51771" lon="-0.83928">
        <ele>68.467458</ele>
        <time>2022-12-27T13:57:51.726Z</time>
      </trkpt>
      <trkpt lat="44.5178" lon="-0.83924">
        <ele>68.921128</ele>
        <time>2022-12-27T13:57:55.737Z</time>
      </trkpt>
      <trkpt lat="44.51791" lon="-0.83919">
        <ele>69.447197</ele>
        <time>2022-12-27T13:58:00.756Z</time>
      </trkpt>
      <trkpt lat="44.51801" lon="-0.83912">
        <ele>69.978021</ele>
        <time>2022-12-27T13:58:05.748Z</time>
      </trkpt>
      <trkpt lat="44.5181" lon="-0.83905">
        <ele>70.511477</ele>
        <time>2022-12-27T13:58:10.736Z</time>
      </trkpt>
      <trkpt lat="44.51819" lon="-0.83898">
        <ele>70.986954</ele>
        <time>2022-12-27T13:58:15.737Z</time>
      </trkpt>
      <trkpt lat="44.51829" lon="-0.83894">
        <ele>71.490695</ele>
        <time>2022-12-27T13:58:21.727Z</time>
      </trkpt>
      <trkpt lat="44.51839" lon="-0.83889">
        <ele>71.990629</ele>
        <time>2022-12-27T13:58:27.728Z</time>
      </trkpt>
      <trkpt lat="44.51848" lon="-0.83885">
        <ele>72.380092</ele>
        <time>2022-12-27T13:58:32.725Z</time>
      </trkpt>
      <trkpt lat="44.51858" lon="-0.8388">
        <ele>72.628032</ele>
        <time>2022-12-27T13:58:37.726Z</time>
      </trkpt>
      <trkpt lat="44.51867" lon="-0.83876">
        <ele>72.861728</ele>
        <time>2022-12-27T13:58:42.728Z</time>
      </trkpt>
      <trkpt lat="44.51882" lon="-0.83871">
        <ele>73.241272</ele>
        <time>2022-12-27T13:58:45.724Z</time>
      </trkpt>
      <trkpt lat="44.51892" lon="-0.83865">
        <ele>73.503375</ele>
        <time>2022-12-27T13:58:49.743Z</time>
      </trkpt>
      <trkpt lat="44.51903" lon="-0.83862">
        <ele>73.755164</ele>
        <time>2022-12-27T13:58:53.737Z</time>
      </trkpt>
      <trkpt lat="44.51913" lon="-0.83856">
        <ele>74.024305</ele>
        <time>2022-12-27T13:58:57.717Z</time>
      </trkpt>
      <trkpt lat="44.51924" lon="-0.83852">
        <ele>74.30587</ele>
        <time>2022-12-27T13:59:01.733Z</time>
      </trkpt>
      <trkpt lat="44.51934" lon="-0.83848">
        <ele>74.551527</ele>
        <time>2022-12-27T13:59:05.739Z</time>
      </trkpt>
      <trkpt lat="44.51944" lon="-0.83844">
        <ele>74.806063</ele>
        <time>2022-12-27T13:59:09.738Z</time>
      </trkpt>
      <trkpt lat="44.51954" lon="-0.83839">
        <ele>75.062092</ele>
        <time>2022-12-27T13:59:13.733Z</time>
      </trkpt>
      <trkpt lat="44.51965" lon="-0.83835">
        <ele>75.339906</ele>
        <time>2022-12-27T13:59:17.744Z</time>
      </trkpt>
      <trkpt lat="44.51977" lon="-0.83831">
        <ele>75.623401</ele>
        <time>2022-12-27T13:59:20.749Z</time>
      </trkpt>
      <trkpt lat="44.51987" lon="-0.83827">
        <ele>75.890445</ele>
        <time>2022-12-27T13:59:23.746Z</time>
      </trkpt>
      <trkpt lat="44.51999" lon="-0.83824">
        <ele>76.184197</ele>
        <time>2022-12-27T13:59:26.736Z</time>
      </trkpt>
      <trkpt lat="44.52011" lon="-0.83821">
        <ele>76.470155</ele>
        <time>2022-12-27T13:59:29.746Z</time>
      </trkpt>
      <trkpt lat="44.52022" lon="-0.83817">
        <ele>76.61373</ele>
        <time>2022-12-27T13:59:32.747Z</time>
      </trkpt>
      <trkpt lat="44.52033" lon="-0.83815">
        <ele>76.549247</ele>
        <time>2022-12-27T13:59:35.762Z</time>
      </trkpt>
      <trkpt lat="44.52043" lon="-0.83811">
        <ele>76.486151</ele>
        <time>2022-12-27T13:59:38.741Z</time>
      </trkpt>
      <trkpt lat="44.52053" lon="-0.83809">
        <ele>76.425824</ele>
        <time>2022-12-27T13:59:41.720Z</time>
      </trkpt>
      <trkpt lat="44.52058" lon="-0.83795">
        <ele>76.362109</ele>
        <time>2022-12-27T13:59:45.723Z</time>
      </trkpt>
      <trkpt lat="44.52052" lon="-0.83781">
        <ele>76.295579</ele>
        <time>2022-12-27T13:59:48.737Z</time>
      </trkpt>
      <trkpt lat="44.52045" lon="-0.83766">
        <ele>76.221591</ele>
        <time>2022-12-27T13:59:51.731Z</time>
      </trkpt>
      <trkpt lat="44.52038" lon="-0.83752">
        <ele>76.152903</ele>
        <time>2022-12-27T13:59:54.741Z</time>
      </trkpt>
      <trkpt lat="44.52033" lon="-0.83738">
        <ele>76.084644</ele>
        <time>2022-12-27T13:59:57.736Z</time>
      </trkpt>
      <trkpt lat="44.52027" lon="-0.83724">
        <ele>76.016671</ele>
        <time>2022-12-27T14:00:00.744Z</time>
      </trkpt>
      <trkpt lat="44.52021" lon="-0.8371">
        <ele>75.948122</ele>
        <time>2022-12-27T14:00:03.748Z</time>
      </trkpt>
      <trkpt lat="44.52015" lon="-0.83694">
        <ele>75.877135</ele>
        <time>2022-12-27T14:00:06.728Z</time>
      </trkpt>
      <trkpt lat="44.52011" lon="-0.83683">
        <ele>75.823715</ele>
        <time>2022-12-27T14:00:08.749Z</time>
      </trkpt>
      <trkpt lat="44.52005" lon="-0.83667">
        <ele>75.7466</ele>
        <time>2022-12-27T14:00:11.727Z</time>
      </trkpt>
      <trkpt lat="44.52" lon="-0.83651">
        <ele>75.674262</ele>
        <time>2022-12-27T14:00:14.741Z</time>
      </trkpt>
      <trkpt lat="44.51996" lon="-0.83639">
        <ele>75.620512</ele>
        <time>2022-12-27T14:00:16.736Z</time>
      </trkpt>
      <trkpt lat="44.51992" lon="-0.83621">
        <ele>75.626996</ele>
        <time>2022-12-27T14:00:19.740Z</time>
      </trkpt>
      <trkpt lat="44.51987" lon="-0.83604">
        <ele>75.68356</ele>
        <time>2022-12-27T14:00:22.742Z</time>
      </trkpt>
      <trkpt lat="44.51982" lon="-0.83588">
        <ele>75.738114</ele>
        <time>2022-12-27T14:00:25.737Z</time>
      </trkpt>
      <trkpt lat="44.51977" lon="-0.83572">
        <ele>75.79227</ele>
        <time>2022-12-27T14:00:28.748Z</time>
      </trkpt>
      <trkpt lat="44.51971" lon="-0.83557">
        <ele>75.844534</ele>
        <time>2022-12-27T14:00:31.726Z</time>
      </trkpt>
      <trkpt lat="44.51967" lon="-0.83541">
        <ele>75.898591</ele>
        <time>2022-12-27T14:00:34.735Z</time>
      </trkpt>
      <trkpt lat="44.51962" lon="-0.83525">
        <ele>75.95349</ele>
        <time>2022-12-27T14:00:37.735Z</time>
      </trkpt>
      <trkpt lat="44.51957" lon="-0.83508">
        <ele>76.008389</ele>
        <time>2022-12-27T14:00:40.740Z</time>
      </trkpt>
      <trkpt lat="44.51952" lon="-0.83492">
        <ele>76.063572</ele>
        <time>2022-12-27T14:00:43.738Z</time>
      </trkpt>
      <trkpt lat="44.51947" lon="-0.83476">
        <ele>76.118581</ele>
        <time>2022-12-27T14:00:46.734Z</time>
      </trkpt>
      <trkpt lat="44.51942" lon="-0.8346">
        <ele>76.171995</ele>
        <time>2022-12-27T14:00:49.746Z</time>
      </trkpt>
      <trkpt lat="44.51937" lon="-0.83444">
        <ele>76.226436</ele>
        <time>2022-12-27T14:00:52.736Z</time>
      </trkpt>
      <trkpt lat="44.51932" lon="-0.83433">
        <ele>76.26656</ele>
        <time>2022-12-27T14:00:54.740Z</time>
      </trkpt>
      <trkpt lat="44.51927" lon="-0.83416">
        <ele>76.322426</ele>
        <time>2022-12-27T14:00:57.742Z</time>
      </trkpt>
      <trkpt lat="44.51922" lon="-0.834">
        <ele>76.377787</ele>
        <time>2022-12-27T14:01:00.743Z</time>
      </trkpt>
      <trkpt lat="44.51917" lon="-0.83384">
        <ele>76.467893</ele>
        <time>2022-12-27T14:01:03.737Z</time>
      </trkpt>
      <trkpt lat="44.51914" lon="-0.83371">
        <ele>76.535535</ele>
        <time>2022-12-27T14:01:05.748Z</time>
      </trkpt>
      <trkpt lat="44.51908" lon="-0.83354">
        <ele>76.627405</ele>
        <time>2022-12-27T14:01:08.738Z</time>
      </trkpt>
      <trkpt lat="44.51903" lon="-0.83338">
        <ele>76.714221</ele>
        <time>2022-12-27T14:01:11.728Z</time>
      </trkpt>
      <trkpt lat="44.51898" lon="-0.83323">
        <ele>76.798755</ele>
        <time>2022-12-27T14:01:14.736Z</time>
      </trkpt>
      <trkpt lat="44.51893" lon="-0.83306">
        <ele>76.886483</ele>
        <time>2022-12-27T14:01:17.738Z</time>
      </trkpt>
      <trkpt lat="44.51888" lon="-0.83291">
        <ele>76.973416</ele>
        <time>2022-12-27T14:01:20.738Z</time>
      </trkpt>
      <trkpt lat="44.51883" lon="-0.83275">
        <ele>77.059224</ele>
        <time>2022-12-27T14:01:23.738Z</time>
      </trkpt>
      <trkpt lat="44.51879" lon="-0.83263">
        <ele>77.123741</ele>
        <time>2022-12-27T14:01:25.738Z</time>
      </trkpt>
      <trkpt lat="44.51876" lon="-0.83251">
        <ele>77.187196</ele>
        <time>2022-12-27T14:01:27.727Z</time>
      </trkpt>
      <trkpt lat="44.51872" lon="-0.83238">
        <ele>77.253473</ele>
        <time>2022-12-27T14:01:29.734Z</time>
      </trkpt>
      <trkpt lat="44.51869" lon="-0.83226">
        <ele>77.32047</ele>
        <time>2022-12-27T14:01:31.717Z</time>
      </trkpt>
      <trkpt lat="44.51865" lon="-0.83213">
        <ele>77.388852</ele>
        <time>2022-12-27T14:01:33.720Z</time>
      </trkpt>
      <trkpt lat="44.51861" lon="-0.832">
        <ele>77.459776</ele>
        <time>2022-12-27T14:01:35.736Z</time>
      </trkpt>
      <trkpt lat="44.51857" lon="-0.83187">
        <ele>77.530325</ele>
        <time>2022-12-27T14:01:37.742Z</time>
      </trkpt>
      <trkpt lat="44.51852" lon="-0.83175">
        <ele>77.599298</ele>
        <time>2022-12-27T14:01:39.747Z</time>
      </trkpt>
      <trkpt lat="44.51848" lon="-0.83162">
        <ele>77.518863</ele>
        <time>2022-12-27T14:01:41.730Z</time>
      </trkpt>
      <trkpt lat="44.51845" lon="-0.83149">
        <ele>77.337358</ele>
        <time>2022-12-27T14:01:43.739Z</time>
      </trkpt>
      <trkpt lat="44.51841" lon="-0.83136">
        <ele>77.161736</ele>
        <time>2022-12-27T14:01:45.728Z</time>
      </trkpt>
      <trkpt lat="44.51838" lon="-0.83123">
        <ele>76.984399</ele>
        <time>2022-12-27T14:01:47.730Z</time>
      </trkpt>
      <trkpt lat="44.51834" lon="-0.8311">
        <ele>76.801602</ele>
        <time>2022-12-27T14:01:49.727Z</time>
      </trkpt>
      <trkpt lat="44.5183" lon="-0.83097">
        <ele>76.614856</ele>
        <time>2022-12-27T14:01:51.731Z</time>
      </trkpt>
      <trkpt lat="44.51826" lon="-0.83084">
        <ele>76.438274</ele>
        <time>2022-12-27T14:01:53.741Z</time>
      </trkpt>
      <trkpt lat="44.51821" lon="-0.83073">
        <ele>76.265511</ele>
        <time>2022-12-27T14:01:55.737Z</time>
      </trkpt>
      <trkpt lat="44.51817" lon="-0.83057">
        <ele>76.044868</ele>
        <time>2022-12-27T14:01:58.746Z</time>
      </trkpt>
      <trkpt lat="44.51812" lon="-0.83041">
        <ele>75.822808</ele>
        <time>2022-12-27T14:02:01.711Z</time>
      </trkpt>
      <trkpt lat="44.51807" lon="-0.83024">
        <ele>75.587218</ele>
        <time>2022-12-27T14:02:04.737Z</time>
      </trkpt>
      <trkpt lat="44.51802" lon="-0.83012">
        <ele>75.413393</ele>
        <time>2022-12-27T14:02:06.746Z</time>
      </trkpt>
      <trkpt lat="44.51799" lon="-0.83">
        <ele>75.24084</ele>
        <time>2022-12-27T14:02:08.739Z</time>
      </trkpt>
      <trkpt lat="44.51795" lon="-0.82986">
        <ele>75.05599</ele>
        <time>2022-12-27T14:02:10.735Z</time>
      </trkpt>
      <trkpt lat="44.51791" lon="-0.82974">
        <ele>74.880593</ele>
        <time>2022-12-27T14:02:12.733Z</time>
      </trkpt>
      <trkpt lat="44.51786" lon="-0.82961">
        <ele>74.693846</ele>
        <time>2022-12-27T14:02:14.737Z</time>
      </trkpt>
      <trkpt lat="44.51782" lon="-0.82949">
        <ele>74.521185</ele>
        <time>2022-12-27T14:02:16.742Z</time>
      </trkpt>
      <trkpt lat="44.51778" lon="-0.82936">
        <ele>74.367061</ele>
        <time>2022-12-27T14:02:18.725Z</time>
      </trkpt>
      <trkpt lat="44.51774" lon="-0.82922">
        <ele>74.324666</ele>
        <time>2022-12-27T14:02:20.738Z</time>
      </trkpt>
      <trkpt lat="44.5177" lon="-0.8291">
        <ele>74.285531</ele>
        <time>2022-12-27T14:02:22.723Z</time>
      </trkpt>
      <trkpt lat="44.51765" lon="-0.82892">
        <ele>74.229835</ele>
        <time>2022-12-27T14:02:25.727Z</time>
      </trkpt>
      <trkpt lat="44.51762" lon="-0.8288">
        <ele>74.193128</ele>
        <time>2022-12-27T14:02:27.741Z</time>
      </trkpt>
      <trkpt lat="44.51758" lon="-0.82868">
        <ele>74.15407</ele>
        <time>2022-12-27T14:02:29.716Z</time>
      </trkpt>
      <trkpt lat="44.51754" lon="-0.82856">
        <ele>74.115979</ele>
        <time>2022-12-27T14:02:31.736Z</time>
      </trkpt>
      <trkpt lat="44.51749" lon="-0.82838">
        <ele>74.062209</ele>
        <time>2022-12-27T14:02:34.740Z</time>
      </trkpt>
      <trkpt lat="44.51746" lon="-0.82823">
        <ele>74.016298</ele>
        <time>2022-12-27T14:02:36.735Z</time>
      </trkpt>
      <trkpt lat="44.51742" lon="-0.82811">
        <ele>73.97942</ele>
        <time>2022-12-27T14:02:38.736Z</time>
      </trkpt>
      <trkpt lat="44.51737" lon="-0.82799">
        <ele>73.938654</ele>
        <time>2022-12-27T14:02:40.740Z</time>
      </trkpt>
      <trkpt lat="44.51733" lon="-0.82787">
        <ele>73.901217</ele>
        <time>2022-12-27T14:02:42.748Z</time>
      </trkpt>
      <trkpt lat="44.51727" lon="-0.82769">
        <ele>73.843735</ele>
        <time>2022-12-27T14:02:45.736Z</time>
      </trkpt>
      <trkpt lat="44.51724" lon="-0.82757">
        <ele>73.806209</ele>
        <time>2022-12-27T14:02:47.739Z</time>
      </trkpt>
      <trkpt lat="44.51718" lon="-0.82738">
        <ele>73.746815</ele>
        <time>2022-12-27T14:02:50.732Z</time>
      </trkpt>
      <trkpt lat="44.51711" lon="-0.82719">
        <ele>73.685757</ele>
        <time>2022-12-27T14:02:53.737Z</time>
      </trkpt>
      <trkpt lat="44.51706" lon="-0.82705">
        <ele>73.651645</ele>
        <time>2022-12-27T14:02:55.717Z</time>
      </trkpt>
      <trkpt lat="44.51702" lon="-0.82693">
        <ele>73.658129</ele>
        <time>2022-12-27T14:02:57.742Z</time>
      </trkpt>
      <trkpt lat="44.51698" lon="-0.82681">
        <ele>73.664904</ele>
        <time>2022-12-27T14:02:59.746Z</time>
      </trkpt>
      <trkpt lat="44.51695" lon="-0.82669">
        <ele>73.671309</ele>
        <time>2022-12-27T14:03:01.730Z</time>
      </trkpt>
      <trkpt lat="44.5169" lon="-0.82651">
        <ele>73.680654</ele>
        <time>2022-12-27T14:03:04.734Z</time>
      </trkpt>
      <trkpt lat="44.51685" lon="-0.82639">
        <ele>73.687193</ele>
        <time>2022-12-27T14:03:06.743Z</time>
      </trkpt>
      <trkpt lat="44.51682" lon="-0.82628">
        <ele>73.693451</ele>
        <time>2022-12-27T14:03:08.752Z</time>
      </trkpt>
      <trkpt lat="44.51678" lon="-0.82613">
        <ele>73.701197</ele>
        <time>2022-12-27T14:03:11.725Z</time>
      </trkpt>
      <trkpt lat="44.51674" lon="-0.82599">
        <ele>73.708344</ele>
        <time>2022-12-27T14:03:14.738Z</time>
      </trkpt>
      <trkpt lat="44.5167" lon="-0.82585">
        <ele>73.716105</ele>
        <time>2022-12-27T14:03:17.744Z</time>
      </trkpt>
      <trkpt lat="44.51665" lon="-0.8257">
        <ele>73.724437</ele>
        <time>2022-12-27T14:03:20.744Z</time>
      </trkpt>
      <trkpt lat="44.5166" lon="-0.82555">
        <ele>73.732221</ele>
        <time>2022-12-27T14:03:23.742Z</time>
      </trkpt>
      <trkpt lat="44.51656" lon="-0.82543">
        <ele>73.738699</ele>
        <time>2022-12-27T14:03:26.743Z</time>
      </trkpt>
      <trkpt lat="44.51651" lon="-0.8253">
        <ele>73.746126</ele>
        <time>2022-12-27T14:03:30.748Z</time>
      </trkpt>
      <trkpt lat="44.51647" lon="-0.82518">
        <ele>73.752537</ele>
        <time>2022-12-27T14:03:35.734Z</time>
      </trkpt>
      <trkpt lat="44.51643" lon="-0.82504">
        <ele>73.760098</ele>
        <time>2022-12-27T14:03:40.718Z</time>
      </trkpt>
      <trkpt lat="44.51639" lon="-0.82489">
        <ele>73.767911</ele>
        <time>2022-12-27T14:03:44.721Z</time>
      </trkpt>
      <trkpt lat="44.51635" lon="-0.82477">
        <ele>73.780044</ele>
        <time>2022-12-27T14:03:47.737Z</time>
      </trkpt>
      <trkpt lat="44.5163" lon="-0.82462">
        <ele>73.970681</ele>
        <time>2022-12-27T14:03:51.727Z</time>
      </trkpt>
      <trkpt lat="44.51627" lon="-0.8245">
        <ele>74.123104</ele>
        <time>2022-12-27T14:03:56.725Z</time>
      </trkpt>
      <trkpt lat="44.51623" lon="-0.82439">
        <ele>74.274474</ele>
        <time>2022-12-27T14:04:01.716Z</time>
      </trkpt>
      <trkpt lat="44.5162" lon="-0.82424">
        <ele>74.455023</ele>
        <time>2022-12-27T14:04:08.715Z</time>
      </trkpt>
      <trkpt lat="44.51615" lon="-0.82413">
        <ele>74.609592</ele>
        <time>2022-12-27T14:04:12.748Z</time>
      </trkpt>
      <trkpt lat="44.51611" lon="-0.82401">
        <ele>74.768162</ele>
        <time>2022-12-27T14:04:15.738Z</time>
      </trkpt>
      <trkpt lat="44.51607" lon="-0.82388">
        <ele>74.940546</ele>
        <time>2022-12-27T14:04:18.737Z</time>
      </trkpt>
      <trkpt lat="44.51603" lon="-0.82374">
        <ele>75.123503</ele>
        <time>2022-12-27T14:04:21.725Z</time>
      </trkpt>
      <trkpt lat="44.51598" lon="-0.82359">
        <ele>75.307743</ele>
        <time>2022-12-27T14:04:24.734Z</time>
      </trkpt>
      <trkpt lat="44.51594" lon="-0.82344">
        <ele>75.507365</ele>
        <time>2022-12-27T14:04:27.742Z</time>
      </trkpt>
      <trkpt lat="44.51589" lon="-0.82329">
        <ele>75.709176</ele>
        <time>2022-12-27T14:04:30.723Z</time>
      </trkpt>
      <trkpt lat="44.51584" lon="-0.82314">
        <ele>75.899127</ele>
        <time>2022-12-27T14:04:33.745Z</time>
      </trkpt>
      <trkpt lat="44.5158" lon="-0.82299">
        <ele>76.09775</ele>
        <time>2022-12-27T14:04:36.741Z</time>
      </trkpt>
      <trkpt lat="44.51575" lon="-0.82284">
        <ele>76.288667</ele>
        <time>2022-12-27T14:04:39.734Z</time>
      </trkpt>
      <trkpt lat="44.51571" lon="-0.8227">
        <ele>76.474929</ele>
        <time>2022-12-27T14:04:42.736Z</time>
      </trkpt>
      <trkpt lat="44.51566" lon="-0.82256">
        <ele>76.66027</ele>
        <time>2022-12-27T14:04:45.739Z</time>
      </trkpt>
      <trkpt lat="44.51562" lon="-0.82241">
        <ele>76.878772</ele>
        <time>2022-12-27T14:04:48.739Z</time>
      </trkpt>
      <trkpt lat="44.51557" lon="-0.82227">
        <ele>77.157516</ele>
        <time>2022-12-27T14:04:51.718Z</time>
      </trkpt>
      <trkpt lat="44.51553" lon="-0.82213">
        <ele>77.439932</ele>
        <time>2022-12-27T14:04:54.745Z</time>
      </trkpt>
      <trkpt lat="44.51549" lon="-0.82198">
        <ele>77.732783</ele>
        <time>2022-12-27T14:04:57.737Z</time>
      </trkpt>
      <trkpt lat="44.51544" lon="-0.82183">
        <ele>78.026552</ele>
        <time>2022-12-27T14:05:00.746Z</time>
      </trkpt>
      <trkpt lat="44.51539" lon="-0.82169">
        <ele>78.310605</ele>
        <time>2022-12-27T14:05:03.745Z</time>
      </trkpt>
      <trkpt lat="44.51534" lon="-0.82154">
        <ele>78.597352</ele>
        <time>2022-12-27T14:05:06.739Z</time>
      </trkpt>
      <trkpt lat="44.5153" lon="-0.8214">
        <ele>78.878458</ele>
        <time>2022-12-27T14:05:09.736Z</time>
      </trkpt>
      <trkpt lat="44.51525" lon="-0.82126">
        <ele>79.167847</ele>
        <time>2022-12-27T14:05:12.740Z</time>
      </trkpt>
      <trkpt lat="44.5152" lon="-0.82111">
        <ele>79.456247</ele>
        <time>2022-12-27T14:05:15.735Z</time>
      </trkpt>
      <trkpt lat="44.51516" lon="-0.82096">
        <ele>79.747328</ele>
        <time>2022-12-27T14:05:18.738Z</time>
      </trkpt>
      <trkpt lat="44.51511" lon="-0.82082">
        <ele>80.032426</ele>
        <time>2022-12-27T14:05:21.729Z</time>
      </trkpt>
      <trkpt lat="44.51507" lon="-0.82067">
        <ele>80.319208</ele>
        <time>2022-12-27T14:05:24.742Z</time>
      </trkpt>
      <trkpt lat="44.51503" lon="-0.82052">
        <ele>80.605339</ele>
        <time>2022-12-27T14:05:27.735Z</time>
      </trkpt>
      <trkpt lat="44.51498" lon="-0.82038">
        <ele>80.896533</ele>
        <time>2022-12-27T14:05:30.737Z</time>
      </trkpt>
      <trkpt lat="44.51493" lon="-0.82023">
        <ele>81.183919</ele>
        <time>2022-12-27T14:05:33.748Z</time>
      </trkpt>
      <trkpt lat="44.51489" lon="-0.8201">
        <ele>81.378793</ele>
        <time>2022-12-27T14:05:36.744Z</time>
      </trkpt>
      <trkpt lat="44.51484" lon="-0.81996">
        <ele>81.463488</ele>
        <time>2022-12-27T14:05:39.745Z</time>
      </trkpt>
      <trkpt lat="44.5148" lon="-0.81982">
        <ele>81.548869</ele>
        <time>2022-12-27T14:05:42.741Z</time>
      </trkpt>
      <trkpt lat="44.51475" lon="-0.81967">
        <ele>81.63981</ele>
        <time>2022-12-27T14:05:45.716Z</time>
      </trkpt>
      <trkpt lat="44.51471" lon="-0.81952">
        <ele>81.730463</ele>
        <time>2022-12-27T14:05:48.746Z</time>
      </trkpt>
      <trkpt lat="44.51466" lon="-0.81935">
        <ele>81.83168</ele>
        <time>2022-12-27T14:05:51.729Z</time>
      </trkpt>
      <trkpt lat="44.51462" lon="-0.8192">
        <ele>81.922333</ele>
        <time>2022-12-27T14:05:54.743Z</time>
      </trkpt>
      <trkpt lat="44.51457" lon="-0.81905">
        <ele>82.017994</ele>
        <time>2022-12-27T14:05:57.745Z</time>
      </trkpt>
      <trkpt lat="44.51452" lon="-0.8189">
        <ele>82.109529</ele>
        <time>2022-12-27T14:06:00.722Z</time>
      </trkpt>
      <trkpt lat="44.51448" lon="-0.81875">
        <ele>82.198182</ele>
        <time>2022-12-27T14:06:03.726Z</time>
      </trkpt>
      <trkpt lat="44.51443" lon="-0.8186">
        <ele>82.291672</ele>
        <time>2022-12-27T14:06:06.731Z</time>
      </trkpt>
      <trkpt lat="44.51438" lon="-0.81844">
        <ele>82.385574</ele>
        <time>2022-12-27T14:06:09.736Z</time>
      </trkpt>
      <trkpt lat="44.51434" lon="-0.81828">
        <ele>82.483395</ele>
        <time>2022-12-27T14:06:12.736Z</time>
      </trkpt>
      <trkpt lat="44.51429" lon="-0.81811">
        <ele>82.586343</ele>
        <time>2022-12-27T14:06:15.736Z</time>
      </trkpt>
      <trkpt lat="44.51423" lon="-0.81795">
        <ele>82.686414</ele>
        <time>2022-12-27T14:06:18.738Z</time>
      </trkpt>
      <trkpt lat="44.51418" lon="-0.81779">
        <ele>82.7633</ele>
        <time>2022-12-27T14:06:21.724Z</time>
      </trkpt>
      <trkpt lat="44.51413" lon="-0.81762">
        <ele>82.790118</ele>
        <time>2022-12-27T14:06:24.738Z</time>
      </trkpt>
      <trkpt lat="44.51408" lon="-0.81746">
        <ele>82.818031</ele>
        <time>2022-12-27T14:06:27.737Z</time>
      </trkpt>
      <trkpt lat="44.51404" lon="-0.81734">
        <ele>82.837263</ele>
        <time>2022-12-27T14:06:29.745Z</time>
      </trkpt>
      <trkpt lat="44.51398" lon="-0.81718">
        <ele>82.864991</ele>
        <time>2022-12-27T14:06:32.734Z</time>
      </trkpt>
      <trkpt lat="44.51393" lon="-0.81701">
        <ele>82.89292</ele>
        <time>2022-12-27T14:06:35.722Z</time>
      </trkpt>
      <trkpt lat="44.51388" lon="-0.81684">
        <ele>82.920068</ele>
        <time>2022-12-27T14:06:38.733Z</time>
      </trkpt>
      <trkpt lat="44.51383" lon="-0.81668">
        <ele>82.946747</ele>
        <time>2022-12-27T14:06:41.727Z</time>
      </trkpt>
      <trkpt lat="44.51378" lon="-0.81652">
        <ele>82.974174</ele>
        <time>2022-12-27T14:06:44.735Z</time>
      </trkpt>
      <trkpt lat="44.51373" lon="-0.81635">
        <ele>83.002362</ele>
        <time>2022-12-27T14:06:47.748Z</time>
      </trkpt>
      <trkpt lat="44.51369" lon="-0.81623">
        <ele>83.021755</ele>
        <time>2022-12-27T14:06:49.736Z</time>
      </trkpt>
      <trkpt lat="44.51365" lon="-0.81611">
        <ele>83.04158</ele>
        <time>2022-12-27T14:06:51.726Z</time>
      </trkpt>
      <trkpt lat="44.51361" lon="-0.81599">
        <ele>83.062006</ele>
        <time>2022-12-27T14:06:53.732Z</time>
      </trkpt>
      <trkpt lat="44.51355" lon="-0.81582">
        <ele>83.090652</ele>
        <time>2022-12-27T14:06:56.749Z</time>
      </trkpt>
      <trkpt lat="44.51352" lon="-0.81569">
        <ele>83.111312</ele>
        <time>2022-12-27T14:06:58.725Z</time>
      </trkpt>
      <trkpt lat="44.51348" lon="-0.81557">
        <ele>83.131374</ele>
        <time>2022-12-27T14:07:00.735Z</time>
      </trkpt>
      <trkpt lat="44.51344" lon="-0.81545">
        <ele>83.157771</ele>
        <time>2022-12-27T14:07:02.738Z</time>
      </trkpt>
      <trkpt lat="44.5134" lon="-0.8153">
        <ele>83.196176</ele>
        <time>2022-12-27T14:07:05.741Z</time>
      </trkpt>
      <trkpt lat="44.51334" lon="-0.81514">
        <ele>83.237296</ele>
        <time>2022-12-27T14:07:08.744Z</time>
      </trkpt>
      <trkpt lat="44.5133" lon="-0.81498">
        <ele>83.27857</ele>
        <time>2022-12-27T14:07:11.728Z</time>
      </trkpt>
      <trkpt lat="44.51325" lon="-0.81481">
        <ele>83.320276</ele>
        <time>2022-12-27T14:07:14.737Z</time>
      </trkpt>
      <trkpt lat="44.51321" lon="-0.81465">
        <ele>83.359882</ele>
        <time>2022-12-27T14:07:17.734Z</time>
      </trkpt>
      <trkpt lat="44.51316" lon="-0.8145">
        <ele>83.3971</ele>
        <time>2022-12-27T14:07:20.738Z</time>
      </trkpt>
      <trkpt lat="44.51312" lon="-0.81435">
        <ele>83.434948</ele>
        <time>2022-12-27T14:07:23.734Z</time>
      </trkpt>
      <trkpt lat="44.51307" lon="-0.8142">
        <ele>83.473564</ele>
        <time>2022-12-27T14:07:26.735Z</time>
      </trkpt>
      <trkpt lat="44.51302" lon="-0.81404">
        <ele>83.514056</ele>
        <time>2022-12-27T14:07:29.751Z</time>
      </trkpt>
      <trkpt lat="44.51297" lon="-0.81389">
        <ele>83.553364</ele>
        <time>2022-12-27T14:07:32.726Z</time>
      </trkpt>
      <trkpt lat="44.51292" lon="-0.81373">
        <ele>83.593347</ele>
        <time>2022-12-27T14:07:35.737Z</time>
      </trkpt>
      <trkpt lat="44.51287" lon="-0.81356">
        <ele>83.634993</ele>
        <time>2022-12-27T14:07:38.747Z</time>
      </trkpt>
      <trkpt lat="44.51282" lon="-0.8134">
        <ele>83.67639</ele>
        <time>2022-12-27T14:07:41.733Z</time>
      </trkpt>
      <trkpt lat="44.51276" lon="-0.81324">
        <ele>83.717523</ele>
        <time>2022-12-27T14:07:44.742Z</time>
      </trkpt>
      <trkpt lat="44.51271" lon="-0.81308">
        <ele>83.701966</ele>
        <time>2022-12-27T14:07:47.727Z</time>
      </trkpt>
      <trkpt lat="44.51267" lon="-0.81293">
        <ele>83.678143</ele>
        <time>2022-12-27T14:07:50.745Z</time>
      </trkpt>
      <trkpt lat="44.51262" lon="-0.81277">
        <ele>83.651352</ele>
        <time>2022-12-27T14:07:53.745Z</time>
      </trkpt>
      <trkpt lat="44.51258" lon="-0.81263">
        <ele>83.628791</ele>
        <time>2022-12-27T14:07:56.727Z</time>
      </trkpt>
      <trkpt lat="44.51254" lon="-0.81249">
        <ele>83.606309</ele>
        <time>2022-12-27T14:07:59.737Z</time>
      </trkpt>
      <trkpt lat="44.51249" lon="-0.81235">
        <ele>83.583531</ele>
        <time>2022-12-27T14:08:02.733Z</time>
      </trkpt>
      <trkpt lat="44.51244" lon="-0.8122">
        <ele>83.558356</ele>
        <time>2022-12-27T14:08:05.745Z</time>
      </trkpt>
      <trkpt lat="44.51239" lon="-0.81204">
        <ele>83.532775</ele>
        <time>2022-12-27T14:08:08.744Z</time>
      </trkpt>
      <trkpt lat="44.51233" lon="-0.81188">
        <ele>83.506321</ele>
        <time>2022-12-27T14:08:11.727Z</time>
      </trkpt>
      <trkpt lat="44.51227" lon="-0.81172">
        <ele>83.479844</ele>
        <time>2022-12-27T14:08:14.741Z</time>
      </trkpt>
      <trkpt lat="44.51222" lon="-0.81157">
        <ele>83.454127</ele>
        <time>2022-12-27T14:08:17.740Z</time>
      </trkpt>
      <trkpt lat="44.51218" lon="-0.8114">
        <ele>83.427839</ele>
        <time>2022-12-27T14:08:20.735Z</time>
      </trkpt>
      <trkpt lat="44.51213" lon="-0.81124">
        <ele>83.401413</ele>
        <time>2022-12-27T14:08:23.739Z</time>
      </trkpt>
      <trkpt lat="44.51208" lon="-0.81108">
        <ele>83.376249</ele>
        <time>2022-12-27T14:08:26.747Z</time>
      </trkpt>
      <trkpt lat="44.51203" lon="-0.81093">
        <ele>83.350667</ele>
        <time>2022-12-27T14:08:29.720Z</time>
      </trkpt>
      <trkpt lat="44.51198" lon="-0.81079">
        <ele>83.391165</ele>
        <time>2022-12-27T14:08:32.738Z</time>
      </trkpt>
      <trkpt lat="44.51195" lon="-0.81067">
        <ele>83.43396</ele>
        <time>2022-12-27T14:08:35.737Z</time>
      </trkpt>
      <trkpt lat="44.51191" lon="-0.81055">
        <ele>83.478008</ele>
        <time>2022-12-27T14:08:38.742Z</time>
      </trkpt>
      <trkpt lat="44.51187" lon="-0.81041">
        <ele>83.52762</ele>
        <time>2022-12-27T14:08:41.726Z</time>
      </trkpt>
      <trkpt lat="44.51183" lon="-0.81025">
        <ele>83.582996</ele>
        <time>2022-12-27T14:08:44.737Z</time>
      </trkpt>
      <trkpt lat="44.51178" lon="-0.8101">
        <ele>83.637646</ele>
        <time>2022-12-27T14:08:47.738Z</time>
      </trkpt>
      <trkpt lat="44.51173" lon="-0.80993">
        <ele>83.6958</ele>
        <time>2022-12-27T14:08:50.749Z</time>
      </trkpt>
      <trkpt lat="44.51168" lon="-0.80977">
        <ele>83.755152</ele>
        <time>2022-12-27T14:08:53.743Z</time>
      </trkpt>
      <trkpt lat="44.51164" lon="-0.80965">
        <ele>83.796954</ele>
        <time>2022-12-27T14:08:55.739Z</time>
      </trkpt>
      <trkpt lat="44.5116" lon="-0.80954">
        <ele>83.838927</ele>
        <time>2022-12-27T14:08:57.743Z</time>
      </trkpt>
      <trkpt lat="44.51155" lon="-0.80939">
        <ele>83.892562</ele>
        <time>2022-12-27T14:09:00.745Z</time>
      </trkpt>
      <trkpt lat="44.51152" lon="-0.80926">
        <ele>83.939375</ele>
        <time>2022-12-27T14:09:03.737Z</time>
      </trkpt>
      <trkpt lat="44.51147" lon="-0.80911">
        <ele>83.992012</ele>
        <time>2022-12-27T14:09:06.736Z</time>
      </trkpt>
      <trkpt lat="44.51141" lon="-0.80896">
        <ele>84.048136</ele>
        <time>2022-12-27T14:09:09.735Z</time>
      </trkpt>
      <trkpt lat="44.51136" lon="-0.80881">
        <ele>84.104636</ele>
        <time>2022-12-27T14:09:12.745Z</time>
      </trkpt>
      <trkpt lat="44.51129" lon="-0.80865">
        <ele>84.164593</ele>
        <time>2022-12-27T14:09:15.724Z</time>
      </trkpt>
      <trkpt lat="44.51121" lon="-0.80846">
        <ele>84.286797</ele>
        <time>2022-12-27T14:09:18.736Z</time>
      </trkpt>
      <trkpt lat="44.51115" lon="-0.80831">
        <ele>84.382852</ele>
        <time>2022-12-27T14:09:21.728Z</time>
      </trkpt>
      <trkpt lat="44.51109" lon="-0.80819">
        <ele>84.464235</ele>
        <time>2022-12-27T14:09:23.739Z</time>
      </trkpt>
      <trkpt lat="44.51105" lon="-0.80808">
        <ele>84.539818</ele>
        <time>2022-12-27T14:09:25.747Z</time>
      </trkpt>
      <trkpt lat="44.51098" lon="-0.80794">
        <ele>84.638837</ele>
        <time>2022-12-27T14:09:28.743Z</time>
      </trkpt>
      <trkpt lat="44.5109" lon="-0.80777">
        <ele>84.752708</ele>
        <time>2022-12-27T14:09:31.725Z</time>
      </trkpt>
      <trkpt lat="44.51083" lon="-0.80763">
        <ele>84.852958</ele>
        <time>2022-12-27T14:09:34.732Z</time>
      </trkpt>
      <trkpt lat="44.51075" lon="-0.80749">
        <ele>84.958849</ele>
        <time>2022-12-27T14:09:37.737Z</time>
      </trkpt>
      <trkpt lat="44.51067" lon="-0.80735">
        <ele>85.061956</ele>
        <time>2022-12-27T14:09:40.742Z</time>
      </trkpt>
      <trkpt lat="44.5106" lon="-0.80722">
        <ele>85.159471</ele>
        <time>2022-12-27T14:09:42.725Z</time>
      </trkpt>
      <trkpt lat="44.51054" lon="-0.80711">
        <ele>85.234848</ele>
        <time>2022-12-27T14:09:44.750Z</time>
      </trkpt>
      <trkpt lat="44.51048" lon="-0.80701">
        <ele>85.312378</ele>
        <time>2022-12-27T14:09:46.737Z</time>
      </trkpt>
      <trkpt lat="44.5104" lon="-0.8069">
        <ele>85.401191</ele>
        <time>2022-12-27T14:09:48.720Z</time>
      </trkpt>
      <trkpt lat="44.51031" lon="-0.8068">
        <ele>85.494435</ele>
        <time>2022-12-27T14:09:50.726Z</time>
      </trkpt>
      <trkpt lat="44.51023" lon="-0.8067">
        <ele>85.58007</ele>
        <time>2022-12-27T14:09:52.720Z</time>
      </trkpt>
      <trkpt lat="44.51016" lon="-0.8066">
        <ele>85.569685</ele>
        <time>2022-12-27T14:09:54.742Z</time>
      </trkpt>
      <trkpt lat="44.51009" lon="-0.8065">
        <ele>85.390639</ele>
        <time>2022-12-27T14:09:56.727Z</time>
      </trkpt>
      <trkpt lat="44.51001" lon="-0.80641">
        <ele>85.226589</ele>
        <time>2022-12-27T14:09:58.734Z</time>
      </trkpt>
      <trkpt lat="44.50995" lon="-0.80631">
        <ele>85.064411</ele>
        <time>2022-12-27T14:10:00.735Z</time>
      </trkpt>
      <trkpt lat="44.50989" lon="-0.80621">
        <ele>84.893452</ele>
        <time>2022-12-27T14:10:03.738Z</time>
      </trkpt>
      <trkpt lat="44.50981" lon="-0.80611">
        <ele>84.715666</ele>
        <time>2022-12-27T14:10:05.724Z</time>
      </trkpt>
      <trkpt lat="44.50972" lon="-0.80602">
        <ele>84.517085</ele>
        <time>2022-12-27T14:10:07.745Z</time>
      </trkpt>
      <trkpt lat="44.50964" lon="-0.80591">
        <ele>84.333406</ele>
        <time>2022-12-27T14:10:09.735Z</time>
      </trkpt>
      <trkpt lat="44.50957" lon="-0.80584">
        <ele>84.177929</ele>
        <time>2022-12-27T14:10:11.727Z</time>
      </trkpt>
      <trkpt lat="44.50949" lon="-0.80576">
        <ele>84.006921</ele>
        <time>2022-12-27T14:10:13.746Z</time>
      </trkpt>
      <trkpt lat="44.50941" lon="-0.80568">
        <ele>83.84564</ele>
        <time>2022-12-27T14:10:15.741Z</time>
      </trkpt>
      <trkpt lat="44.50935" lon="-0.80559">
        <ele>83.68969</ele>
        <time>2022-12-27T14:10:17.732Z</time>
      </trkpt>
      <trkpt lat="44.50927" lon="-0.80551">
        <ele>83.518563</ele>
        <time>2022-12-27T14:10:19.720Z</time>
      </trkpt>
      <trkpt lat="44.50915" lon="-0.8054">
        <ele>83.275883</ele>
        <time>2022-12-27T14:10:22.733Z</time>
      </trkpt>
      <trkpt lat="44.50904" lon="-0.80531">
        <ele>83.064744</ele>
        <time>2022-12-27T14:10:25.734Z</time>
      </trkpt>
      <trkpt lat="44.50894" lon="-0.80521">
        <ele>82.840028</ele>
        <time>2022-12-27T14:10:28.717Z</time>
      </trkpt>
      <trkpt lat="44.50884" lon="-0.80513">
        <ele>82.6479</ele>
        <time>2022-12-27T14:10:31.718Z</time>
      </trkpt>
      <trkpt lat="44.50875" lon="-0.80506">
        <ele>82.529007</ele>
        <time>2022-12-27T14:10:34.736Z</time>
      </trkpt>
      <trkpt lat="44.50867" lon="-0.80499">
        <ele>82.531846</ele>
        <time>2022-12-27T14:10:37.735Z</time>
      </trkpt>
      <trkpt lat="44.50857" lon="-0.80492">
        <ele>82.534949</ele>
        <time>2022-12-27T14:10:40.737Z</time>
      </trkpt>
      <trkpt lat="44.50847" lon="-0.80485">
        <ele>82.538249</ele>
        <time>2022-12-27T14:10:43.735Z</time>
      </trkpt>
      <trkpt lat="44.50837" lon="-0.80477">
        <ele>82.54144</ele>
        <time>2022-12-27T14:10:47.728Z</time>
      </trkpt>
      <trkpt lat="44.50826" lon="-0.80468">
        <ele>82.544865</ele>
        <time>2022-12-27T14:10:51.720Z</time>
      </trkpt>
      <trkpt lat="44.50816" lon="-0.80462">
        <ele>82.548216</ele>
        <time>2022-12-27T14:10:55.733Z</time>
      </trkpt>
      <trkpt lat="44.50808" lon="-0.80456">
        <ele>82.550813</ele>
        <time>2022-12-27T14:10:58.738Z</time>
      </trkpt>
      <trkpt lat="44.50799" lon="-0.8045">
        <ele>82.55364</ele>
        <time>2022-12-27T14:11:01.723Z</time>
      </trkpt>
      <trkpt lat="44.50789" lon="-0.80443">
        <ele>82.556768</ele>
        <time>2022-12-27T14:11:04.735Z</time>
      </trkpt>
      <trkpt lat="44.50778" lon="-0.80436">
        <ele>82.560187</ele>
        <time>2022-12-27T14:11:07.735Z</time>
      </trkpt>
      <trkpt lat="44.50767" lon="-0.80429">
        <ele>82.563701</ele>
        <time>2022-12-27T14:11:10.736Z</time>
      </trkpt>
      <trkpt lat="44.50756" lon="-0.80421">
        <ele>82.567032</ele>
        <time>2022-12-27T14:11:13.728Z</time>
      </trkpt>
      <trkpt lat="44.50747" lon="-0.80414">
        <ele>82.570168</ele>
        <time>2022-12-27T14:11:16.735Z</time>
      </trkpt>
      <trkpt lat="44.50735" lon="-0.80408">
        <ele>82.573531</ele>
        <time>2022-12-27T14:11:19.723Z</time>
      </trkpt>
      <trkpt lat="44.50726" lon="-0.80402">
        <ele>82.576641</ele>
        <time>2022-12-27T14:11:22.728Z</time>
      </trkpt>
      <trkpt lat="44.50716" lon="-0.80393">
        <ele>82.612267</ele>
        <time>2022-12-27T14:11:25.738Z</time>
      </trkpt>
      <trkpt lat="44.50708" lon="-0.80389">
        <ele>82.775672</ele>
        <time>2022-12-27T14:11:28.732Z</time>
      </trkpt>
      <trkpt lat="44.50695" lon="-0.80381">
        <ele>83.01541</ele>
        <time>2022-12-27T14:11:31.718Z</time>
      </trkpt>
      <trkpt lat="44.50684" lon="-0.80373">
        <ele>83.246114</ele>
        <time>2022-12-27T14:11:34.744Z</time>
      </trkpt>
      <trkpt lat="44.50674" lon="-0.80367">
        <ele>83.439715</ele>
        <time>2022-12-27T14:11:37.721Z</time>
      </trkpt>
      <trkpt lat="44.50663" lon="-0.8036">
        <ele>83.650486</ele>
        <time>2022-12-27T14:11:41.731Z</time>
      </trkpt>
      <trkpt lat="44.50654" lon="-0.80351">
        <ele>83.846801</ele>
        <time>2022-12-27T14:11:45.744Z</time>
      </trkpt>
      <trkpt lat="44.50644" lon="-0.80343">
        <ele>84.047241</ele>
        <time>2022-12-27T14:11:48.747Z</time>
      </trkpt>
      <trkpt lat="44.50636" lon="-0.80336">
        <ele>84.225775</ele>
        <time>2022-12-27T14:11:51.728Z</time>
      </trkpt>
      <trkpt lat="44.50628" lon="-0.80329">
        <ele>84.385014</ele>
        <time>2022-12-27T14:11:54.736Z</time>
      </trkpt>
      <trkpt lat="44.5062" lon="-0.80322">
        <ele>84.558547</ele>
        <time>2022-12-27T14:11:58.740Z</time>
      </trkpt>
      <trkpt lat="44.5061" lon="-0.80314">
        <ele>84.759298</ele>
        <time>2022-12-27T14:12:02.736Z</time>
      </trkpt>
      <trkpt lat="44.50601" lon="-0.80305">
        <ele>84.951973</ele>
        <time>2022-12-27T14:12:06.743Z</time>
      </trkpt>
      <trkpt lat="44.50582" lon="-0.80287">
        <ele>85.367208</ele>
        <time>2022-12-27T14:14:10.751Z</time>
      </trkpt>
      <trkpt lat="44.50575" lon="-0.80278">
        <ele>85.527837</ele>
        <time>2022-12-27T14:14:13.724Z</time>
      </trkpt>
      <trkpt lat="44.50567" lon="-0.8027">
        <ele>85.70526</ele>
        <time>2022-12-27T14:14:16.742Z</time>
      </trkpt>
      <trkpt lat="44.50559" lon="-0.80261">
        <ele>85.695248</ele>
        <time>2022-12-27T14:14:19.729Z</time>
      </trkpt>
      <trkpt lat="44.50552" lon="-0.80253">
        <ele>85.569604</ele>
        <time>2022-12-27T14:14:22.748Z</time>
      </trkpt>
      <trkpt lat="44.50544" lon="-0.80244">
        <ele>85.424861</ele>
        <time>2022-12-27T14:14:25.730Z</time>
      </trkpt>
      <trkpt lat="44.50534" lon="-0.80233">
        <ele>85.260232</ele>
        <time>2022-12-27T14:14:28.733Z</time>
      </trkpt>
      <trkpt lat="44.50525" lon="-0.80221">
        <ele>85.088762</ele>
        <time>2022-12-27T14:14:31.761Z</time>
      </trkpt>
      <trkpt lat="44.50515" lon="-0.80211">
        <ele>84.925899</ele>
        <time>2022-12-27T14:14:34.736Z</time>
      </trkpt>
      <trkpt lat="44.50505" lon="-0.802">
        <ele>84.75859</ele>
        <time>2022-12-27T14:14:37.739Z</time>
      </trkpt>
      <trkpt lat="44.50497" lon="-0.8019">
        <ele>84.615394</ele>
        <time>2022-12-27T14:14:40.739Z</time>
      </trkpt>
      <trkpt lat="44.50489" lon="-0.80178">
        <ele>84.454108</ele>
        <time>2022-12-27T14:14:45.738Z</time>
      </trkpt>
      <trkpt lat="44.50481" lon="-0.80167">
        <ele>84.30077</ele>
        <time>2022-12-27T14:14:49.731Z</time>
      </trkpt>
      <trkpt lat="44.50473" lon="-0.80156">
        <ele>84.155853</ele>
        <time>2022-12-27T14:14:53.734Z</time>
      </trkpt>
      <trkpt lat="44.50466" lon="-0.80146">
        <ele>84.021146</ele>
        <time>2022-12-27T14:15:09.724Z</time>
      </trkpt>
      <trkpt lat="44.50459" lon="-0.80137">
        <ele>83.886429</ele>
        <time>2022-12-27T14:15:14.723Z</time>
      </trkpt>
      <trkpt lat="44.50451" lon="-0.80126">
        <ele>83.734039</ele>
        <time>2022-12-27T14:15:18.727Z</time>
      </trkpt>
      <trkpt lat="44.50444" lon="-0.80117">
        <ele>83.609796</ele>
        <time>2022-12-27T14:15:21.723Z</time>
      </trkpt>
      <trkpt lat="44.50438" lon="-0.80105">
        <ele>83.469381</ele>
        <time>2022-12-27T14:15:24.749Z</time>
      </trkpt>
      <trkpt lat="44.5043" lon="-0.80093">
        <ele>83.464079</ele>
        <time>2022-12-27T14:15:27.723Z</time>
      </trkpt>
      <trkpt lat="44.50423" lon="-0.80081">
        <ele>83.880177</ele>
        <time>2022-12-27T14:15:30.748Z</time>
      </trkpt>
      <trkpt lat="44.50414" lon="-0.80067">
        <ele>84.397817</ele>
        <time>2022-12-27T14:15:33.724Z</time>
      </trkpt>
      <trkpt lat="44.50408" lon="-0.80057">
        <ele>84.747614</ele>
        <time>2022-12-27T14:15:35.724Z</time>
      </trkpt>
      <trkpt lat="44.50402" lon="-0.80042">
        <ele>85.231862</ele>
        <time>2022-12-27T14:15:38.745Z</time>
      </trkpt>
      <trkpt lat="44.50396" lon="-0.80031">
        <ele>85.575099</ele>
        <time>2022-12-27T14:15:40.739Z</time>
      </trkpt>
      <trkpt lat="44.50389" lon="-0.80017">
        <ele>86.073206</ele>
        <time>2022-12-27T14:15:43.735Z</time>
      </trkpt>
      <trkpt lat="44.50381" lon="-0.80001">
        <ele>86.573633</ele>
        <time>2022-12-27T14:15:46.717Z</time>
      </trkpt>
      <trkpt lat="44.50374" lon="-0.79986">
        <ele>87.076441</ele>
        <time>2022-12-27T14:15:49.749Z</time>
      </trkpt>
      <trkpt lat="44.50367" lon="-0.79971">
        <ele>87.570719</ele>
        <time>2022-12-27T14:15:52.747Z</time>
      </trkpt>
      <trkpt lat="44.5036" lon="-0.79955">
        <ele>88.056932</ele>
        <time>2022-12-27T14:15:55.732Z</time>
      </trkpt>
      <trkpt lat="44.50355" lon="-0.79943">
        <ele>88.45432</ele>
        <time>2022-12-27T14:15:58.753Z</time>
      </trkpt>
      <trkpt lat="44.5035" lon="-0.7993">
        <ele>88.868594</ele>
        <time>2022-12-27T14:16:01.720Z</time>
      </trkpt>
      <trkpt lat="44.50344" lon="-0.79915">
        <ele>89.317394</ele>
        <time>2022-12-27T14:16:04.748Z</time>
      </trkpt>
      <trkpt lat="44.50337" lon="-0.79901">
        <ele>89.787704</ele>
        <time>2022-12-27T14:16:07.738Z</time>
      </trkpt>
      <trkpt lat="44.50332" lon="-0.79885">
        <ele>90.207096</ele>
        <time>2022-12-27T14:16:10.742Z</time>
      </trkpt>
      <trkpt lat="44.50326" lon="-0.79871">
        <ele>90.211368</ele>
        <time>2022-12-27T14:16:13.737Z</time>
      </trkpt>
      <trkpt lat="44.50321" lon="-0.79854">
        <ele>90.216255</ele>
        <time>2022-12-27T14:16:16.748Z</time>
      </trkpt>
      <trkpt lat="44.50316" lon="-0.79839">
        <ele>90.220774</ele>
        <time>2022-12-27T14:16:19.723Z</time>
      </trkpt>
      <trkpt lat="44.50311" lon="-0.79824">
        <ele>90.225062</ele>
        <time>2022-12-27T14:16:22.736Z</time>
      </trkpt>
      <trkpt lat="44.50306" lon="-0.79809">
        <ele>90.229349</ele>
        <time>2022-12-27T14:16:25.741Z</time>
      </trkpt>
      <trkpt lat="44.50302" lon="-0.79794">
        <ele>90.233715</ele>
        <time>2022-12-27T14:16:28.737Z</time>
      </trkpt>
      <trkpt lat="44.50297" lon="-0.79778">
        <ele>90.238329</ele>
        <time>2022-12-27T14:16:31.720Z</time>
      </trkpt>
      <trkpt lat="44.50293" lon="-0.79762">
        <ele>90.242973</ele>
        <time>2022-12-27T14:16:34.714Z</time>
      </trkpt>
      <trkpt lat="44.50289" lon="-0.79746">
        <ele>90.247417</ele>
        <time>2022-12-27T14:16:37.744Z</time>
      </trkpt>
      <trkpt lat="44.50285" lon="-0.7973">
        <ele>90.251929</ele>
        <time>2022-12-27T14:16:40.732Z</time>
      </trkpt>
      <trkpt lat="44.50281" lon="-0.79713">
        <ele>90.256517</ele>
        <time>2022-12-27T14:16:43.739Z</time>
      </trkpt>
      <trkpt lat="44.50278" lon="-0.79697">
        <ele>90.261124</ele>
        <time>2022-12-27T14:16:46.741Z</time>
      </trkpt>
      <trkpt lat="44.50274" lon="-0.7968">
        <ele>90.265764</ele>
        <time>2022-12-27T14:16:49.739Z</time>
      </trkpt>
      <trkpt lat="44.5027" lon="-0.79664">
        <ele>90.270402</ele>
        <time>2022-12-27T14:16:52.738Z</time>
      </trkpt>
      <trkpt lat="44.50266" lon="-0.79647">
        <ele>90.29953</ele>
        <time>2022-12-27T14:16:55.738Z</time>
      </trkpt>
      <trkpt lat="44.50262" lon="-0.79632">
        <ele>90.377636</ele>
        <time>2022-12-27T14:16:58.737Z</time>
      </trkpt>
      <trkpt lat="44.50257" lon="-0.79616">
        <ele>90.462351</ele>
        <time>2022-12-27T14:17:01.722Z</time>
      </trkpt>
      <trkpt lat="44.50253" lon="-0.79599">
        <ele>90.54689</ele>
        <time>2022-12-27T14:17:04.749Z</time>
      </trkpt>
      <trkpt lat="44.50249" lon="-0.79582">
        <ele>90.633804</ele>
        <time>2022-12-27T14:17:07.736Z</time>
      </trkpt>
      <trkpt lat="44.50244" lon="-0.79564">
        <ele>90.723915</ele>
        <time>2022-12-27T14:17:10.743Z</time>
      </trkpt>
      <trkpt lat="44.5024" lon="-0.79547">
        <ele>90.809833</ele>
        <time>2022-12-27T14:17:13.720Z</time>
      </trkpt>
      <trkpt lat="44.50236" lon="-0.7953">
        <ele>90.895395</ele>
        <time>2022-12-27T14:17:16.739Z</time>
      </trkpt>
      <trkpt lat="44.50233" lon="-0.79513">
        <ele>90.979871</ele>
        <time>2022-12-27T14:17:19.736Z</time>
      </trkpt>
      <trkpt lat="44.50229" lon="-0.79498">
        <ele>91.057073</ele>
        <time>2022-12-27T14:17:22.735Z</time>
      </trkpt>
      <trkpt lat="44.50225" lon="-0.79482">
        <ele>91.137237</ele>
        <time>2022-12-27T14:17:25.737Z</time>
      </trkpt>
      <trkpt lat="44.50221" lon="-0.79465">
        <ele>91.223495</ele>
        <time>2022-12-27T14:17:28.714Z</time>
      </trkpt>
      <trkpt lat="44.50217" lon="-0.79449">
        <ele>91.305941</ele>
        <time>2022-12-27T14:17:31.740Z</time>
      </trkpt>
      <trkpt lat="44.50213" lon="-0.79433">
        <ele>91.384498</ele>
        <time>2022-12-27T14:17:34.749Z</time>
      </trkpt>
      <trkpt lat="44.50209" lon="-0.79418">
        <ele>91.463287</ele>
        <time>2022-12-27T14:17:37.740Z</time>
      </trkpt>
      <trkpt lat="44.50205" lon="-0.79401">
        <ele>91.607165</ele>
        <time>2022-12-27T14:17:40.738Z</time>
      </trkpt>
      <trkpt lat="44.50201" lon="-0.79384">
        <ele>91.777352</ele>
        <time>2022-12-27T14:17:43.738Z</time>
      </trkpt>
      <trkpt lat="44.50196" lon="-0.79367">
        <ele>91.947083</ele>
        <time>2022-12-27T14:17:46.749Z</time>
      </trkpt>
      <trkpt lat="44.50193" lon="-0.79351">
        <ele>92.096896</ele>
        <time>2022-12-27T14:17:49.725Z</time>
      </trkpt>
      <trkpt lat="44.50189" lon="-0.79334">
        <ele>92.258864</ele>
        <time>2022-12-27T14:17:52.742Z</time>
      </trkpt>
      <trkpt lat="44.50185" lon="-0.79318">
        <ele>92.419912</ele>
        <time>2022-12-27T14:17:55.724Z</time>
      </trkpt>
      <trkpt lat="44.50181" lon="-0.79301">
        <ele>92.580541</ele>
        <time>2022-12-27T14:17:58.749Z</time>
      </trkpt>
      <trkpt lat="44.50177" lon="-0.79284">
        <ele>92.750314</ele>
        <time>2022-12-27T14:18:01.722Z</time>
      </trkpt>
      <trkpt lat="44.50173" lon="-0.79267">
        <ele>92.915401</ele>
        <time>2022-12-27T14:18:04.743Z</time>
      </trkpt>
      <trkpt lat="44.50168" lon="-0.7925">
        <ele>93.083401</ele>
        <time>2022-12-27T14:18:07.725Z</time>
      </trkpt>
      <trkpt lat="44.50164" lon="-0.79233">
        <ele>93.24445</ele>
        <time>2022-12-27T14:18:10.748Z</time>
      </trkpt>
      <trkpt lat="44.5016" lon="-0.79216">
        <ele>93.409927</ele>
        <time>2022-12-27T14:18:13.747Z</time>
      </trkpt>
      <trkpt lat="44.50156" lon="-0.792">
        <ele>93.570977</ele>
        <time>2022-12-27T14:18:16.745Z</time>
      </trkpt>
      <trkpt lat="44.50152" lon="-0.79183">
        <ele>93.731194</ele>
        <time>2022-12-27T14:18:19.744Z</time>
      </trkpt>
      <trkpt lat="44.50149" lon="-0.79169">
        <ele>93.845184</ele>
        <time>2022-12-27T14:18:22.738Z</time>
      </trkpt>
      <trkpt lat="44.50145" lon="-0.79154">
        <ele>93.930717</ele>
        <time>2022-12-27T14:18:25.747Z</time>
      </trkpt>
      <trkpt lat="44.50141" lon="-0.79139">
        <ele>94.017021</ele>
        <time>2022-12-27T14:18:28.750Z</time>
      </trkpt>
      <trkpt lat="44.50137" lon="-0.79123">
        <ele>94.108709</ele>
        <time>2022-12-27T14:18:31.722Z</time>
      </trkpt>
      <trkpt lat="44.50133" lon="-0.79107">
        <ele>94.204258</ele>
        <time>2022-12-27T14:18:34.746Z</time>
      </trkpt>
      <trkpt lat="44.50129" lon="-0.7909">
        <ele>94.298603</ele>
        <time>2022-12-27T14:18:37.745Z</time>
      </trkpt>
      <trkpt lat="44.50125" lon="-0.79074">
        <ele>94.390032</ele>
        <time>2022-12-27T14:18:40.749Z</time>
      </trkpt>
      <trkpt lat="44.50121" lon="-0.79059">
        <ele>94.477358</ele>
        <time>2022-12-27T14:18:43.749Z</time>
      </trkpt>
      <trkpt lat="44.50117" lon="-0.79045">
        <ele>94.561869</ele>
        <time>2022-12-27T14:18:46.729Z</time>
      </trkpt>
      <trkpt lat="44.50114" lon="-0.79031">
        <ele>94.64126</ele>
        <time>2022-12-27T14:18:49.738Z</time>
      </trkpt>
      <trkpt lat="44.50111" lon="-0.79019">
        <ele>94.710432</ele>
        <time>2022-12-27T14:18:52.736Z</time>
      </trkpt>
      <trkpt lat="44.50107" lon="-0.79005">
        <ele>94.788566</ele>
        <time>2022-12-27T14:18:56.743Z</time>
      </trkpt>
      <trkpt lat="44.50104" lon="-0.78992">
        <ele>94.866194</ele>
        <time>2022-12-27T14:19:01.725Z</time>
      </trkpt>
      <trkpt lat="44.50101" lon="-0.78979">
        <ele>94.94061</ele>
        <time>2022-12-27T14:19:06.748Z</time>
      </trkpt>
      <trkpt lat="44.501" lon="-0.78963">
        <ele>95.027926</ele>
        <time>2022-12-27T14:19:11.737Z</time>
      </trkpt>
      <trkpt lat="44.50097" lon="-0.78948">
        <ele>95.110467</ele>
        <time>2022-12-27T14:19:14.742Z</time>
      </trkpt>
      <trkpt lat="44.50093" lon="-0.78934">
        <ele>95.185426</ele>
        <time>2022-12-27T14:19:17.717Z</time>
      </trkpt>
      <trkpt lat="44.5009" lon="-0.78922">
        <ele>95.218616</ele>
        <time>2022-12-27T14:19:20.749Z</time>
      </trkpt>
      <trkpt lat="44.50085" lon="-0.78907">
        <ele>95.260335</ele>
        <time>2022-12-27T14:19:24.744Z</time>
      </trkpt>
      <trkpt lat="44.50083" lon="-0.78894">
        <ele>95.294065</ele>
        <time>2022-12-27T14:19:27.750Z</time>
      </trkpt>
      <trkpt lat="44.5008" lon="-0.7888">
        <ele>95.331025</ele>
        <time>2022-12-27T14:19:30.748Z</time>
      </trkpt>
      <trkpt lat="44.50075" lon="-0.78865">
        <ele>95.373589</ele>
        <time>2022-12-27T14:19:33.727Z</time>
      </trkpt>
      <trkpt lat="44.50071" lon="-0.78851">
        <ele>95.413265</ele>
        <time>2022-12-27T14:19:36.745Z</time>
      </trkpt>
      <trkpt lat="44.50067" lon="-0.78836">
        <ele>95.452595</ele>
        <time>2022-12-27T14:19:39.733Z</time>
      </trkpt>
      <trkpt lat="44.50065" lon="-0.78821">
        <ele>95.492166</ele>
        <time>2022-12-27T14:19:42.743Z</time>
      </trkpt>
      <trkpt lat="44.50061" lon="-0.78805">
        <ele>95.53474</ele>
        <time>2022-12-27T14:19:45.744Z</time>
      </trkpt>
      <trkpt lat="44.50057" lon="-0.78789">
        <ele>95.579215</ele>
        <time>2022-12-27T14:19:48.744Z</time>
      </trkpt>
      <trkpt lat="44.50053" lon="-0.78772">
        <ele>95.624547</ele>
        <time>2022-12-27T14:19:51.746Z</time>
      </trkpt>
      <trkpt lat="44.50048" lon="-0.78755">
        <ele>95.671316</ele>
        <time>2022-12-27T14:19:54.748Z</time>
      </trkpt>
      <trkpt lat="44.50044" lon="-0.78738">
        <ele>95.716637</ele>
        <time>2022-12-27T14:19:57.745Z</time>
      </trkpt>
      <trkpt lat="44.5004" lon="-0.7872">
        <ele>95.764861</ele>
        <time>2022-12-27T14:20:00.743Z</time>
      </trkpt>
      <trkpt lat="44.50037" lon="-0.78708">
        <ele>95.797357</ele>
        <time>2022-12-27T14:20:02.728Z</time>
      </trkpt>
      <trkpt lat="44.50032" lon="-0.7869">
        <ele>95.857258</ele>
        <time>2022-12-27T14:20:05.746Z</time>
      </trkpt>
      <trkpt lat="44.50029" lon="-0.78678">
        <ele>95.908214</ele>
        <time>2022-12-27T14:20:07.729Z</time>
      </trkpt>
      <trkpt lat="44.50026" lon="-0.78666">
        <ele>95.957889</ele>
        <time>2022-12-27T14:20:09.738Z</time>
      </trkpt>
      <trkpt lat="44.50023" lon="-0.78653">
        <ele>96.009582</ele>
        <time>2022-12-27T14:20:11.730Z</time>
      </trkpt>
      <trkpt lat="44.50019" lon="-0.78636">
        <ele>96.079408</ele>
        <time>2022-12-27T14:20:14.747Z</time>
      </trkpt>
      <trkpt lat="44.50015" lon="-0.7862">
        <ele>96.146868</ele>
        <time>2022-12-27T14:20:17.746Z</time>
      </trkpt>
      <trkpt lat="44.50011" lon="-0.78606">
        <ele>96.205934</ele>
        <time>2022-12-27T14:20:20.730Z</time>
      </trkpt>
      <trkpt lat="44.50008" lon="-0.78591">
        <ele>96.264794</ele>
        <time>2022-12-27T14:20:23.750Z</time>
      </trkpt>
      <trkpt lat="44.50003" lon="-0.78577">
        <ele>96.326221</ele>
        <time>2022-12-27T14:20:26.728Z</time>
      </trkpt>
      <trkpt lat="44.5" lon="-0.78564">
        <ele>96.380105</ele>
        <time>2022-12-27T14:20:30.721Z</time>
      </trkpt>
      <trkpt lat="44.49996" lon="-0.7855">
        <ele>96.436945</ele>
        <time>2022-12-27T14:20:35.720Z</time>
      </trkpt>
      <trkpt lat="44.49993" lon="-0.78533">
        <ele>96.505607</ele>
        <time>2022-12-27T14:20:39.745Z</time>
      </trkpt>
      <trkpt lat="44.49989" lon="-0.78517">
        <ele>96.573418</ele>
        <time>2022-12-27T14:20:42.748Z</time>
      </trkpt>
      <trkpt lat="44.49985" lon="-0.78501">
        <ele>96.641241</ele>
        <time>2022-12-27T14:20:45.742Z</time>
      </trkpt>
      <trkpt lat="44.4998" lon="-0.78483">
        <ele>96.712903</ele>
        <time>2022-12-27T14:20:48.735Z</time>
      </trkpt>
      <trkpt lat="44.49977" lon="-0.78466">
        <ele>96.781237</ele>
        <time>2022-12-27T14:20:51.718Z</time>
      </trkpt>
      <trkpt lat="44.49973" lon="-0.78449">
        <ele>96.879133</ele>
        <time>2022-12-27T14:20:54.748Z</time>
      </trkpt>
      <trkpt lat="44.49969" lon="-0.78432">
        <ele>96.984227</ele>
        <time>2022-12-27T14:20:57.740Z</time>
      </trkpt>
      <trkpt lat="44.49966" lon="-0.78419">
        <ele>97.062769</ele>
        <time>2022-12-27T14:20:59.742Z</time>
      </trkpt>
      <trkpt lat="44.49962" lon="-0.78407">
        <ele>97.138573</ele>
        <time>2022-12-27T14:21:01.726Z</time>
      </trkpt>
      <trkpt lat="44.49959" lon="-0.78391">
        <ele>97.236204</ele>
        <time>2022-12-27T14:21:04.736Z</time>
      </trkpt>
      <trkpt lat="44.49955" lon="-0.78375">
        <ele>97.338065</ele>
        <time>2022-12-27T14:21:07.724Z</time>
      </trkpt>
      <trkpt lat="44.49951" lon="-0.78358">
        <ele>97.443959</ele>
        <time>2022-12-27T14:21:10.739Z</time>
      </trkpt>
      <trkpt lat="44.49946" lon="-0.78341">
        <ele>97.549299</ele>
        <time>2022-12-27T14:21:13.726Z</time>
      </trkpt>
      <trkpt lat="44.49943" lon="-0.78329">
        <ele>97.625187</ele>
        <time>2022-12-27T14:21:15.740Z</time>
      </trkpt>
      <trkpt lat="44.49939" lon="-0.78317">
        <ele>97.701843</ele>
        <time>2022-12-27T14:21:17.759Z</time>
      </trkpt>
      <trkpt lat="44.49936" lon="-0.78304">
        <ele>97.782316</ele>
        <time>2022-12-27T14:21:19.745Z</time>
      </trkpt>
      <trkpt lat="44.49933" lon="-0.78286">
        <ele>97.892981</ele>
        <time>2022-12-27T14:21:22.749Z</time>
      </trkpt>
      <trkpt lat="44.49929" lon="-0.78274">
        <ele>97.967582</ele>
        <time>2022-12-27T14:21:24.739Z</time>
      </trkpt>
      <trkpt lat="44.49926" lon="-0.78261">
        <ele>98.046682</ele>
        <time>2022-12-27T14:21:26.732Z</time>
      </trkpt>
      <trkpt lat="44.49924" lon="-0.78248">
        <ele>98.124595</ele>
        <time>2022-12-27T14:21:28.735Z</time>
      </trkpt>
      <trkpt lat="44.4992" lon="-0.78236">
        <ele>98.202341</ele>
        <time>2022-12-27T14:21:30.742Z</time>
      </trkpt>
      <trkpt lat="44.49918" lon="-0.78224">
        <ele>98.277928</ele>
        <time>2022-12-27T14:21:32.761Z</time>
      </trkpt>
      <trkpt lat="44.49914" lon="-0.78211">
        <ele>98.26506</ele>
        <time>2022-12-27T14:21:34.752Z</time>
      </trkpt>
      <trkpt lat="44.49911" lon="-0.78198">
        <ele>98.246067</ele>
        <time>2022-12-27T14:21:36.736Z</time>
      </trkpt>
      <trkpt lat="44.49908" lon="-0.78186">
        <ele>98.227619</ele>
        <time>2022-12-27T14:21:38.740Z</time>
      </trkpt>
      <trkpt lat="44.49903" lon="-0.78168">
        <ele>98.199289</ele>
        <time>2022-12-27T14:21:41.727Z</time>
      </trkpt>
      <trkpt lat="44.49899" lon="-0.78156">
        <ele>98.180131</ele>
        <time>2022-12-27T14:21:43.720Z</time>
      </trkpt>
      <trkpt lat="44.49897" lon="-0.78143">
        <ele>98.161139</ele>
        <time>2022-12-27T14:21:45.741Z</time>
      </trkpt>
      <trkpt lat="44.49893" lon="-0.7813">
        <ele>98.141618</ele>
        <time>2022-12-27T14:21:47.721Z</time>
      </trkpt>
      <trkpt lat="44.4989" lon="-0.78118">
        <ele>98.122776</ele>
        <time>2022-12-27T14:21:49.746Z</time>
      </trkpt>
      <trkpt lat="44.49888" lon="-0.78105">
        <ele>98.104155</ele>
        <time>2022-12-27T14:21:51.728Z</time>
      </trkpt>
      <trkpt lat="44.49884" lon="-0.78093">
        <ele>98.085364</ele>
        <time>2022-12-27T14:21:53.746Z</time>
      </trkpt>
      <trkpt lat="44.49882" lon="-0.78081">
        <ele>98.066417</ele>
        <time>2022-12-27T14:21:55.738Z</time>
      </trkpt>
      <trkpt lat="44.49879" lon="-0.78067">
        <ele>98.046423</ele>
        <time>2022-12-27T14:21:57.745Z</time>
      </trkpt>
      <trkpt lat="44.49876" lon="-0.78055">
        <ele>98.027431</ele>
        <time>2022-12-27T14:21:59.751Z</time>
      </trkpt>
      <trkpt lat="44.49873" lon="-0.78043">
        <ele>98.009124</ele>
        <time>2022-12-27T14:22:01.733Z</time>
      </trkpt>
      <trkpt lat="44.4987" lon="-0.78031">
        <ele>97.990257</ele>
        <time>2022-12-27T14:22:03.754Z</time>
      </trkpt>
      <trkpt lat="44.49867" lon="-0.78019">
        <ele>97.972025</ele>
        <time>2022-12-27T14:22:05.747Z</time>
      </trkpt>
      <trkpt lat="44.49863" lon="-0.78006">
        <ele>97.952913</ele>
        <time>2022-12-27T14:22:07.747Z</time>
      </trkpt>
      <trkpt lat="44.49861" lon="-0.77993">
        <ele>97.933151</ele>
        <time>2022-12-27T14:22:09.740Z</time>
      </trkpt>
      <trkpt lat="44.49857" lon="-0.7798">
        <ele>97.912326</ele>
        <time>2022-12-27T14:22:11.730Z</time>
      </trkpt>
      <trkpt lat="44.49854" lon="-0.77966">
        <ele>97.890693</ele>
        <time>2022-12-27T14:22:13.730Z</time>
      </trkpt>
      <trkpt lat="44.4985" lon="-0.77951">
        <ele>97.867298</ele>
        <time>2022-12-27T14:22:15.722Z</time>
      </trkpt>
      <trkpt lat="44.49848" lon="-0.77937">
        <ele>97.845127</ele>
        <time>2022-12-27T14:22:17.718Z</time>
      </trkpt>
      <trkpt lat="44.49844" lon="-0.77923">
        <ele>97.822851</ele>
        <time>2022-12-27T14:22:19.720Z</time>
      </trkpt>
      <trkpt lat="44.4984" lon="-0.77909">
        <ele>97.800578</ele>
        <time>2022-12-27T14:22:21.726Z</time>
      </trkpt>
      <trkpt lat="44.49836" lon="-0.77894">
        <ele>97.777114</ele>
        <time>2022-12-27T14:22:23.748Z</time>
      </trkpt>
      <trkpt lat="44.49833" lon="-0.7788">
        <ele>97.755802</ele>
        <time>2022-12-27T14:22:25.724Z</time>
      </trkpt>
      <trkpt lat="44.4983" lon="-0.77867">
        <ele>97.73452</ele>
        <time>2022-12-27T14:22:27.740Z</time>
      </trkpt>
      <trkpt lat="44.49827" lon="-0.77854">
        <ele>97.714816</ele>
        <time>2022-12-27T14:22:29.743Z</time>
      </trkpt>
      <trkpt lat="44.49823" lon="-0.77837">
        <ele>97.688042</ele>
        <time>2022-12-27T14:22:32.749Z</time>
      </trkpt>
      <trkpt lat="44.4982" lon="-0.77825">
        <ele>97.669278</ele>
        <time>2022-12-27T14:22:34.752Z</time>
      </trkpt>
      <trkpt lat="44.49817" lon="-0.77809">
        <ele>97.644258</ele>
        <time>2022-12-27T14:22:37.721Z</time>
      </trkpt>
      <trkpt lat="44.49812" lon="-0.77796">
        <ele>97.622887</ele>
        <time>2022-12-27T14:22:40.745Z</time>
      </trkpt>
      <trkpt lat="44.49808" lon="-0.77783">
        <ele>97.600838</ele>
        <time>2022-12-27T14:22:44.721Z</time>
      </trkpt>
      <trkpt lat="44.49805" lon="-0.77769">
        <ele>97.579555</ele>
        <time>2022-12-27T14:22:50.726Z</time>
      </trkpt>
      <trkpt lat="44.49801" lon="-0.77755">
        <ele>97.557282</ele>
        <time>2022-12-27T14:22:54.750Z</time>
      </trkpt>
      <trkpt lat="44.49798" lon="-0.77741">
        <ele>97.548741</ele>
        <time>2022-12-27T14:22:57.744Z</time>
      </trkpt>
      <trkpt lat="44.49795" lon="-0.77726">
        <ele>97.560904</ele>
        <time>2022-12-27T14:23:00.740Z</time>
      </trkpt>
      <trkpt lat="44.49791" lon="-0.77709">
        <ele>97.574226</ele>
        <time>2022-12-27T14:23:03.747Z</time>
      </trkpt>
      <trkpt lat="44.49789" lon="-0.77696">
        <ele>97.583789</ele>
        <time>2022-12-27T14:23:05.745Z</time>
      </trkpt>
      <trkpt lat="44.49786" lon="-0.77684">
        <ele>97.593562</ele>
        <time>2022-12-27T14:23:07.738Z</time>
      </trkpt>
      <trkpt lat="44.49782" lon="-0.77671">
        <ele>97.603827</ele>
        <time>2022-12-27T14:23:09.724Z</time>
      </trkpt>
      <trkpt lat="44.49779" lon="-0.77658">
        <ele>97.613916</ele>
        <time>2022-12-27T14:23:11.727Z</time>
      </trkpt>
      <trkpt lat="44.49775" lon="-0.77646">
        <ele>97.624237</ele>
        <time>2022-12-27T14:23:13.724Z</time>
      </trkpt>
      <trkpt lat="44.49771" lon="-0.77633">
        <ele>97.634684</ele>
        <time>2022-12-27T14:23:15.749Z</time>
      </trkpt>
      <trkpt lat="44.49768" lon="-0.7762">
        <ele>97.645005</ele>
        <time>2022-12-27T14:23:17.723Z</time>
      </trkpt>
      <trkpt lat="44.49764" lon="-0.77608">
        <ele>97.655106</ele>
        <time>2022-12-27T14:23:19.735Z</time>
      </trkpt>
      <trkpt lat="44.4976" lon="-0.77595">
        <ele>97.665105</ele>
        <time>2022-12-27T14:23:21.726Z</time>
      </trkpt>
      <trkpt lat="44.49755" lon="-0.77583">
        <ele>97.675804</ele>
        <time>2022-12-27T14:23:23.740Z</time>
      </trkpt>
      <trkpt lat="44.4975" lon="-0.77569">
        <ele>97.687092</ele>
        <time>2022-12-27T14:23:25.728Z</time>
      </trkpt>
      <trkpt lat="44.49746" lon="-0.77557">
        <ele>97.697429</ele>
        <time>2022-12-27T14:23:27.720Z</time>
      </trkpt>
      <trkpt lat="44.49741" lon="-0.77544">
        <ele>97.708329</ele>
        <time>2022-12-27T14:23:29.742Z</time>
      </trkpt>
      <trkpt lat="44.49737" lon="-0.7753">
        <ele>97.719182</ele>
        <time>2022-12-27T14:23:31.725Z</time>
      </trkpt>
      <trkpt lat="44.49732" lon="-0.77518">
        <ele>97.730036</ele>
        <time>2022-12-27T14:23:33.724Z</time>
      </trkpt>
      <trkpt lat="44.49727" lon="-0.77506">
        <ele>97.742895</ele>
        <time>2022-12-27T14:23:35.727Z</time>
      </trkpt>
      <trkpt lat="44.49721" lon="-0.77491">
        <ele>97.762517</ele>
        <time>2022-12-27T14:23:38.743Z</time>
      </trkpt>
      <trkpt lat="44.49716" lon="-0.77479">
        <ele>97.777227</ele>
        <time>2022-12-27T14:23:40.738Z</time>
      </trkpt>
      <trkpt lat="44.49712" lon="-0.77467">
        <ele>97.791392</ele>
        <time>2022-12-27T14:23:42.745Z</time>
      </trkpt>
      <trkpt lat="44.49706" lon="-0.77456">
        <ele>97.806504</ele>
        <time>2022-12-27T14:23:44.746Z</time>
      </trkpt>
      <trkpt lat="44.49701" lon="-0.77445">
        <ele>97.820523</ele>
        <time>2022-12-27T14:23:46.727Z</time>
      </trkpt>
      <trkpt lat="44.49695" lon="-0.77434">
        <ele>97.835254</ele>
        <time>2022-12-27T14:23:48.739Z</time>
      </trkpt>
      <trkpt lat="44.49689" lon="-0.77423">
        <ele>97.850422</ele>
        <time>2022-12-27T14:23:50.744Z</time>
      </trkpt>
      <trkpt lat="44.49684" lon="-0.77412">
        <ele>97.865322</ele>
        <time>2022-12-27T14:23:52.735Z</time>
      </trkpt>
      <trkpt lat="44.49678" lon="-0.774">
        <ele>97.88049</ele>
        <time>2022-12-27T14:23:54.740Z</time>
      </trkpt>
      <trkpt lat="44.49672" lon="-0.77389">
        <ele>97.895763</ele>
        <time>2022-12-27T14:23:56.735Z</time>
      </trkpt>
      <trkpt lat="44.49667" lon="-0.77377">
        <ele>97.910853</ele>
        <time>2022-12-27T14:23:58.750Z</time>
      </trkpt>
      <trkpt lat="44.49661" lon="-0.77366">
        <ele>97.925312</ele>
        <time>2022-12-27T14:24:00.738Z</time>
      </trkpt>
      <trkpt lat="44.49656" lon="-0.77354">
        <ele>97.940563</ele>
        <time>2022-12-27T14:24:02.737Z</time>
      </trkpt>
      <trkpt lat="44.4965" lon="-0.77343">
        <ele>97.956168</ele>
        <time>2022-12-27T14:24:04.737Z</time>
      </trkpt>
      <trkpt lat="44.49644" lon="-0.77332">
        <ele>97.970628</ele>
        <time>2022-12-27T14:24:06.751Z</time>
      </trkpt>
      <trkpt lat="44.49638" lon="-0.77321">
        <ele>97.985197</ele>
        <time>2022-12-27T14:24:08.721Z</time>
      </trkpt>
      <trkpt lat="44.49633" lon="-0.77311">
        <ele>97.9994</ele>
        <time>2022-12-27T14:24:10.748Z</time>
      </trkpt>
      <trkpt lat="44.49627" lon="-0.773">
        <ele>98.057904</ele>
        <time>2022-12-27T14:24:12.750Z</time>
      </trkpt>
      <trkpt lat="44.49622" lon="-0.77289">
        <ele>98.149134</ele>
        <time>2022-12-27T14:24:14.743Z</time>
      </trkpt>
      <trkpt lat="44.49616" lon="-0.77279">
        <ele>98.239774</ele>
        <time>2022-12-27T14:24:16.746Z</time>
      </trkpt>
      <trkpt lat="44.49609" lon="-0.77264">
        <ele>98.371725</ele>
        <time>2022-12-27T14:24:19.736Z</time>
      </trkpt>
      <trkpt lat="44.49601" lon="-0.77248">
        <ele>98.503665</ele>
        <time>2022-12-27T14:24:22.750Z</time>
      </trkpt>
      <trkpt lat="44.49593" lon="-0.77233">
        <ele>98.637325</ele>
        <time>2022-12-27T14:24:25.739Z</time>
      </trkpt>
      <trkpt lat="44.49585" lon="-0.77219">
        <ele>98.764171</ele>
        <time>2022-12-27T14:24:28.747Z</time>
      </trkpt>
      <trkpt lat="44.4958" lon="-0.77208">
        <ele>98.853662</ele>
        <time>2022-12-27T14:24:30.756Z</time>
      </trkpt>
      <trkpt lat="44.49575" lon="-0.77198">
        <ele>98.944299</ele>
        <time>2022-12-27T14:24:32.726Z</time>
      </trkpt>
      <trkpt lat="44.49567" lon="-0.77182">
        <ele>99.078028</ele>
        <time>2022-12-27T14:24:35.719Z</time>
      </trkpt>
      <trkpt lat="44.49562" lon="-0.77171">
        <ele>99.172163</ele>
        <time>2022-12-27T14:24:37.741Z</time>
      </trkpt>
      <trkpt lat="44.49557" lon="-0.77161">
        <ele>99.261229</ele>
        <time>2022-12-27T14:24:39.745Z</time>
      </trkpt>
      <trkpt lat="44.49551" lon="-0.7715">
        <ele>99.35302</ele>
        <time>2022-12-27T14:24:41.730Z</time>
      </trkpt>
      <trkpt lat="44.49546" lon="-0.77139">
        <ele>99.446531</ele>
        <time>2022-12-27T14:24:43.726Z</time>
      </trkpt>
      <trkpt lat="44.4954" lon="-0.77128">
        <ele>99.544495</ele>
        <time>2022-12-27T14:24:45.739Z</time>
      </trkpt>
      <trkpt lat="44.49534" lon="-0.77117">
        <ele>99.641448</ele>
        <time>2022-12-27T14:24:47.746Z</time>
      </trkpt>
      <trkpt lat="44.49529" lon="-0.77106">
        <ele>99.736155</ele>
        <time>2022-12-27T14:24:49.737Z</time>
      </trkpt>
      <trkpt lat="44.49521" lon="-0.77091">
        <ele>99.776337</ele>
        <time>2022-12-27T14:24:52.723Z</time>
      </trkpt>
      <trkpt lat="44.49514" lon="-0.77077">
        <ele>99.767107</ele>
        <time>2022-12-27T14:24:55.747Z</time>
      </trkpt>
      <trkpt lat="44.49507" lon="-0.77062">
        <ele>99.757614</ele>
        <time>2022-12-27T14:24:58.748Z</time>
      </trkpt>
      <trkpt lat="44.49502" lon="-0.77052">
        <ele>99.750735</ele>
        <time>2022-12-27T14:25:00.747Z</time>
      </trkpt>
      <trkpt lat="44.49496" lon="-0.77041">
        <ele>99.743638</ele>
        <time>2022-12-27T14:25:02.727Z</time>
      </trkpt>
      <trkpt lat="44.49491" lon="-0.7703">
        <ele>99.736584</ele>
        <time>2022-12-27T14:25:04.740Z</time>
      </trkpt>
      <trkpt lat="44.49485" lon="-0.7702">
        <ele>99.72953</ele>
        <time>2022-12-27T14:25:06.752Z</time>
      </trkpt>
      <trkpt lat="44.4948" lon="-0.77008">
        <ele>99.722122</ele>
        <time>2022-12-27T14:25:08.744Z</time>
      </trkpt>
      <trkpt lat="44.49474" lon="-0.76997">
        <ele>99.714676</ele>
        <time>2022-12-27T14:25:10.748Z</time>
      </trkpt>
      <trkpt lat="44.49468" lon="-0.76985">
        <ele>99.706883</ele>
        <time>2022-12-27T14:25:12.719Z</time>
      </trkpt>
      <trkpt lat="44.49462" lon="-0.76973">
        <ele>99.699176</ele>
        <time>2022-12-27T14:25:14.721Z</time>
      </trkpt>
      <trkpt lat="44.49456" lon="-0.76962">
        <ele>99.691514</ele>
        <time>2022-12-27T14:25:16.725Z</time>
      </trkpt>
      <trkpt lat="44.49449" lon="-0.76949">
        <ele>99.68337</ele>
        <time>2022-12-27T14:25:18.743Z</time>
      </trkpt>
      <trkpt lat="44.49443" lon="-0.76938">
        <ele>99.675792</ele>
        <time>2022-12-27T14:25:20.751Z</time>
      </trkpt>
      <trkpt lat="44.49437" lon="-0.76926">
        <ele>99.667997</ele>
        <time>2022-12-27T14:25:22.729Z</time>
      </trkpt>
      <trkpt lat="44.49432" lon="-0.76915">
        <ele>99.660725</ele>
        <time>2022-12-27T14:25:24.749Z</time>
      </trkpt>
      <trkpt lat="44.49425" lon="-0.76903">
        <ele>99.652409</ele>
        <time>2022-12-27T14:25:26.750Z</time>
      </trkpt>
      <trkpt lat="44.4942" lon="-0.76891">
        <ele>99.644753</ele>
        <time>2022-12-27T14:25:28.730Z</time>
      </trkpt>
      <trkpt lat="44.49414" lon="-0.7688">
        <ele>99.636125</ele>
        <time>2022-12-27T14:25:30.738Z</time>
      </trkpt>
      <trkpt lat="44.49408" lon="-0.76869">
        <ele>99.627693</ele>
        <time>2022-12-27T14:25:32.746Z</time>
      </trkpt>
      <trkpt lat="44.49402" lon="-0.76859">
        <ele>99.619915</ele>
        <time>2022-12-27T14:25:34.750Z</time>
      </trkpt>
      <trkpt lat="44.49395" lon="-0.76845">
        <ele>99.60923</ele>
        <time>2022-12-27T14:25:37.726Z</time>
      </trkpt>
      <trkpt lat="44.49389" lon="-0.76831">
        <ele>99.598992</ele>
        <time>2022-12-27T14:25:40.737Z</time>
      </trkpt>
      <trkpt lat="44.49383" lon="-0.76818">
        <ele>99.58951</ele>
        <time>2022-12-27T14:25:43.750Z</time>
      </trkpt>
      <trkpt lat="44.49376" lon="-0.76806">
        <ele>99.580133</ele>
        <time>2022-12-27T14:25:47.723Z</time>
      </trkpt>
      <trkpt lat="44.49368" lon="-0.76787">
        <ele>99.566259</ele>
        <time>2022-12-27T14:26:19.736Z</time>
      </trkpt>
      <trkpt lat="44.49362" lon="-0.76775">
        <ele>99.557432</ele>
        <time>2022-12-27T14:26:22.750Z</time>
      </trkpt>
      <trkpt lat="44.49355" lon="-0.76762">
        <ele>99.547245</ele>
        <time>2022-12-27T14:26:25.726Z</time>
      </trkpt>
      <trkpt lat="44.49348" lon="-0.76747">
        <ele>99.53646</ele>
        <time>2022-12-27T14:26:28.729Z</time>
      </trkpt>
      <trkpt lat="44.4934" lon="-0.76732">
        <ele>99.524926</ele>
        <time>2022-12-27T14:26:31.715Z</time>
      </trkpt>
      <trkpt lat="44.49332" lon="-0.76717">
        <ele>99.513438</ele>
        <time>2022-12-27T14:26:34.721Z</time>
      </trkpt>
      <trkpt lat="44.49326" lon="-0.76706">
        <ele>99.504812</ele>
        <time>2022-12-27T14:26:36.746Z</time>
      </trkpt>
      <trkpt lat="44.49321" lon="-0.76695">
        <ele>99.496537</ele>
        <time>2022-12-27T14:26:38.727Z</time>
      </trkpt>
      <trkpt lat="44.49314" lon="-0.76684">
        <ele>99.557046</ele>
        <time>2022-12-27T14:26:40.749Z</time>
      </trkpt>
      <trkpt lat="44.49309" lon="-0.76673">
        <ele>99.674678</ele>
        <time>2022-12-27T14:26:42.727Z</time>
      </trkpt>
      <trkpt lat="44.49303" lon="-0.76663">
        <ele>99.795995</ele>
        <time>2022-12-27T14:26:44.730Z</time>
      </trkpt>
      <trkpt lat="44.49297" lon="-0.76651">
        <ele>99.924644</ele>
        <time>2022-12-27T14:26:46.724Z</time>
      </trkpt>
      <trkpt lat="44.49291" lon="-0.76639">
        <ele>100.061381</ele>
        <time>2022-12-27T14:26:48.740Z</time>
      </trkpt>
      <trkpt lat="44.49285" lon="-0.76627">
        <ele>100.191518</ele>
        <time>2022-12-27T14:26:50.747Z</time>
      </trkpt>
      <trkpt lat="44.49278" lon="-0.76615">
        <ele>100.3285</ele>
        <time>2022-12-27T14:26:52.738Z</time>
      </trkpt>
      <trkpt lat="44.49273" lon="-0.76604">
        <ele>100.450013</ele>
        <time>2022-12-27T14:26:54.743Z</time>
      </trkpt>
      <trkpt lat="44.49267" lon="-0.76592">
        <ele>100.580135</ele>
        <time>2022-12-27T14:26:56.745Z</time>
      </trkpt>
      <trkpt lat="44.49261" lon="-0.7658">
        <ele>100.720549</ele>
        <time>2022-12-27T14:26:58.741Z</time>
      </trkpt>
      <trkpt lat="44.49255" lon="-0.76568">
        <ele>100.849236</ele>
        <time>2022-12-27T14:27:00.740Z</time>
      </trkpt>
      <trkpt lat="44.49248" lon="-0.76555">
        <ele>100.993395</ele>
        <time>2022-12-27T14:27:02.744Z</time>
      </trkpt>
      <trkpt lat="44.49242" lon="-0.76544">
        <ele>101.120593</ele>
        <time>2022-12-27T14:27:04.733Z</time>
      </trkpt>
      <trkpt lat="44.49236" lon="-0.76532">
        <ele>101.255221</ele>
        <time>2022-12-27T14:27:06.747Z</time>
      </trkpt>
      <trkpt lat="44.4923" lon="-0.7652">
        <ele>101.383872</ele>
        <time>2022-12-27T14:27:08.745Z</time>
      </trkpt>
      <trkpt lat="44.49224" lon="-0.76509">
        <ele>101.511856</ele>
        <time>2022-12-27T14:27:10.749Z</time>
      </trkpt>
      <trkpt lat="44.49218" lon="-0.76497">
        <ele>101.639037</ele>
        <time>2022-12-27T14:27:12.745Z</time>
      </trkpt>
      <trkpt lat="44.49211" lon="-0.76482">
        <ele>101.802797</ele>
        <time>2022-12-27T14:27:15.750Z</time>
      </trkpt>
      <trkpt lat="44.49203" lon="-0.76468">
        <ele>101.944731</ele>
        <time>2022-12-27T14:27:18.735Z</time>
      </trkpt>
      <trkpt lat="44.49197" lon="-0.76456">
        <ele>102.068514</ele>
        <time>2022-12-27T14:27:21.721Z</time>
      </trkpt>
      <trkpt lat="44.49189" lon="-0.76443">
        <ele>102.21184</ele>
        <time>2022-12-27T14:27:25.747Z</time>
      </trkpt>
      <trkpt lat="44.49184" lon="-0.7643">
        <ele>102.330235</ele>
        <time>2022-12-27T14:27:28.743Z</time>
      </trkpt>
      <trkpt lat="44.49177" lon="-0.76416">
        <ele>102.471474</ele>
        <time>2022-12-27T14:27:31.728Z</time>
      </trkpt>
      <trkpt lat="44.4917" lon="-0.76401">
        <ele>102.621455</ele>
        <time>2022-12-27T14:27:34.740Z</time>
      </trkpt>
      <trkpt lat="44.49162" lon="-0.76387">
        <ele>102.770133</ele>
        <time>2022-12-27T14:27:37.741Z</time>
      </trkpt>
      <trkpt lat="44.49157" lon="-0.76377">
        <ele>102.876426</ele>
        <time>2022-12-27T14:27:39.740Z</time>
      </trkpt>
      <trkpt lat="44.49151" lon="-0.76366">
        <ele>102.984045</ele>
        <time>2022-12-27T14:27:41.726Z</time>
      </trkpt>
      <trkpt lat="44.49146" lon="-0.76355">
        <ele>103.096379</ele>
        <time>2022-12-27T14:27:43.747Z</time>
      </trkpt>
      <trkpt lat="44.49138" lon="-0.76339">
        <ele>103.2531</ele>
        <time>2022-12-27T14:27:46.739Z</time>
      </trkpt>
      <trkpt lat="44.49133" lon="-0.76328">
        <ele>103.359631</ele>
        <time>2022-12-27T14:27:48.723Z</time>
      </trkpt>
      <trkpt lat="44.49127" lon="-0.76318">
        <ele>103.472146</ele>
        <time>2022-12-27T14:27:50.749Z</time>
      </trkpt>
      <trkpt lat="44.49122" lon="-0.76307">
        <ele>103.578916</ele>
        <time>2022-12-27T14:27:52.743Z</time>
      </trkpt>
      <trkpt lat="44.49115" lon="-0.76291">
        <ele>103.73513</ele>
        <time>2022-12-27T14:27:55.750Z</time>
      </trkpt>
      <trkpt lat="44.49109" lon="-0.76279">
        <ele>103.851397</ele>
        <time>2022-12-27T14:27:57.742Z</time>
      </trkpt>
      <trkpt lat="44.49104" lon="-0.76268">
        <ele>103.825543</ele>
        <time>2022-12-27T14:27:59.793Z</time>
      </trkpt>
      <trkpt lat="44.49096" lon="-0.76255">
        <ele>103.793116</ele>
        <time>2022-12-27T14:28:01.724Z</time>
      </trkpt>
      <trkpt lat="44.49091" lon="-0.76245">
        <ele>103.767726</ele>
        <time>2022-12-27T14:28:03.740Z</time>
      </trkpt>
      <trkpt lat="44.49084" lon="-0.76232">
        <ele>103.737203</ele>
        <time>2022-12-27T14:28:05.751Z</time>
      </trkpt>
      <trkpt lat="44.49079" lon="-0.76222">
        <ele>103.712272</ele>
        <time>2022-12-27T14:28:07.718Z</time>
      </trkpt>
      <trkpt lat="44.49073" lon="-0.7621">
        <ele>103.685153</ele>
        <time>2022-12-27T14:28:09.749Z</time>
      </trkpt>
      <trkpt lat="44.49068" lon="-0.76198">
        <ele>103.656545</ele>
        <time>2022-12-27T14:28:11.728Z</time>
      </trkpt>
      <trkpt lat="44.49063" lon="-0.76187">
        <ele>103.631819</ele>
        <time>2022-12-27T14:28:13.739Z</time>
      </trkpt>
      <trkpt lat="44.49057" lon="-0.76176">
        <ele>103.602948</ele>
        <time>2022-12-27T14:28:15.751Z</time>
      </trkpt>
      <trkpt lat="44.49052" lon="-0.76164">
        <ele>103.576251</ele>
        <time>2022-12-27T14:28:17.748Z</time>
      </trkpt>
      <trkpt lat="44.49045" lon="-0.76152">
        <ele>103.54624</ele>
        <time>2022-12-27T14:28:19.726Z</time>
      </trkpt>
      <trkpt lat="44.49038" lon="-0.76141">
        <ele>103.517425</ele>
        <time>2022-12-27T14:28:21.725Z</time>
      </trkpt>
      <trkpt lat="44.49032" lon="-0.76126">
        <ele>103.483373</ele>
        <time>2022-12-27T14:28:24.749Z</time>
      </trkpt>
      <trkpt lat="44.49024" lon="-0.76111">
        <ele>103.44732</ele>
        <time>2022-12-27T14:28:27.752Z</time>
      </trkpt>
      <trkpt lat="44.49017" lon="-0.76097">
        <ele>103.412867</ele>
        <time>2022-12-27T14:28:30.739Z</time>
      </trkpt>
      <trkpt lat="44.49008" lon="-0.76081">
        <ele>103.372792</ele>
        <time>2022-12-27T14:28:33.747Z</time>
      </trkpt>
      <trkpt lat="44.49002" lon="-0.7607">
        <ele>103.332484</ele>
        <time>2022-12-27T14:28:35.718Z</time>
      </trkpt>
      <trkpt lat="44.48996" lon="-0.76059">
        <ele>103.274672</ele>
        <time>2022-12-27T14:28:37.740Z</time>
      </trkpt>
      <trkpt lat="44.48991" lon="-0.76048">
        <ele>103.215451</ele>
        <time>2022-12-27T14:28:39.737Z</time>
      </trkpt>
      <trkpt lat="44.48985" lon="-0.76037">
        <ele>103.156571</ele>
        <time>2022-12-27T14:28:41.728Z</time>
      </trkpt>
      <trkpt lat="44.4898" lon="-0.76026">
        <ele>103.100534</ele>
        <time>2022-12-27T14:28:43.741Z</time>
      </trkpt>
      <trkpt lat="44.48974" lon="-0.76015">
        <ele>103.041955</ele>
        <time>2022-12-27T14:28:45.743Z</time>
      </trkpt>
      <trkpt lat="44.48967" lon="-0.76001">
        <ele>102.967239</ele>
        <time>2022-12-27T14:28:48.726Z</time>
      </trkpt>
      <trkpt lat="44.48959" lon="-0.75989">
        <ele>102.895085</ele>
        <time>2022-12-27T14:28:51.726Z</time>
      </trkpt>
      <trkpt lat="44.48953" lon="-0.75978">
        <ele>102.836229</ele>
        <time>2022-12-27T14:28:53.737Z</time>
      </trkpt>
      <trkpt lat="44.48948" lon="-0.75967">
        <ele>102.780519</ele>
        <time>2022-12-27T14:28:55.745Z</time>
      </trkpt>
      <trkpt lat="44.48942" lon="-0.75956">
        <ele>102.720954</ele>
        <time>2022-12-27T14:28:57.745Z</time>
      </trkpt>
      <trkpt lat="44.48937" lon="-0.75945">
        <ele>102.664545</ele>
        <time>2022-12-27T14:28:59.749Z</time>
      </trkpt>
      <trkpt lat="44.48931" lon="-0.75935">
        <ele>102.607442</ele>
        <time>2022-12-27T14:29:01.721Z</time>
      </trkpt>
      <trkpt lat="44.48926" lon="-0.75924">
        <ele>102.549258</ele>
        <time>2022-12-27T14:29:03.745Z</time>
      </trkpt>
      <trkpt lat="44.4892" lon="-0.75913">
        <ele>102.492164</ele>
        <time>2022-12-27T14:29:05.755Z</time>
      </trkpt>
      <trkpt lat="44.48915" lon="-0.75903">
        <ele>102.43565</ele>
        <time>2022-12-27T14:29:07.744Z</time>
      </trkpt>
      <trkpt lat="44.48909" lon="-0.75892">
        <ele>102.377128</ele>
        <time>2022-12-27T14:29:09.747Z</time>
      </trkpt>
      <trkpt lat="44.48904" lon="-0.75881">
        <ele>102.319327</ele>
        <time>2022-12-27T14:29:11.739Z</time>
      </trkpt>
      <trkpt lat="44.48898" lon="-0.75869">
        <ele>102.261619</ele>
        <time>2022-12-27T14:29:13.748Z</time>
      </trkpt>
      <trkpt lat="44.48892" lon="-0.75858">
        <ele>102.216788</ele>
        <time>2022-12-27T14:29:15.745Z</time>
      </trkpt>
      <trkpt lat="44.48886" lon="-0.75847">
        <ele>102.172444</ele>
        <time>2022-12-27T14:29:17.729Z</time>
      </trkpt>
      <trkpt lat="44.4888" lon="-0.75835">
        <ele>102.125533</ele>
        <time>2022-12-27T14:29:19.750Z</time>
      </trkpt>
      <trkpt lat="44.48874" lon="-0.75823">
        <ele>102.080161</ele>
        <time>2022-12-27T14:29:21.732Z</time>
      </trkpt>
      <trkpt lat="44.48868" lon="-0.75812">
        <ele>102.034805</ele>
        <time>2022-12-27T14:29:23.747Z</time>
      </trkpt>
      <trkpt lat="44.48863" lon="-0.75801">
        <ele>101.992515</ele>
        <time>2022-12-27T14:29:25.738Z</time>
      </trkpt>
      <trkpt lat="44.48857" lon="-0.75789">
        <ele>101.946912</ele>
        <time>2022-12-27T14:29:27.743Z</time>
      </trkpt>
      <trkpt lat="44.48851" lon="-0.75779">
        <ele>101.904869</ele>
        <time>2022-12-27T14:29:29.746Z</time>
      </trkpt>
      <trkpt lat="44.48845" lon="-0.75767">
        <ele>101.858991</ele>
        <time>2022-12-27T14:29:31.722Z</time>
      </trkpt>
      <trkpt lat="44.48838" lon="-0.75756">
        <ele>101.813566</ele>
        <time>2022-12-27T14:29:33.746Z</time>
      </trkpt>
      <trkpt lat="44.48833" lon="-0.75745">
        <ele>101.76948</ele>
        <time>2022-12-27T14:29:35.750Z</time>
      </trkpt>
      <trkpt lat="44.48828" lon="-0.75734">
        <ele>101.726718</ele>
        <time>2022-12-27T14:29:37.736Z</time>
      </trkpt>
      <trkpt lat="44.48822" lon="-0.75723">
        <ele>101.683947</ele>
        <time>2022-12-27T14:29:39.718Z</time>
      </trkpt>
      <trkpt lat="44.48815" lon="-0.75708">
        <ele>101.626931</ele>
        <time>2022-12-27T14:29:42.726Z</time>
      </trkpt>
      <trkpt lat="44.48808" lon="-0.75694">
        <ele>101.570956</ele>
        <time>2022-12-27T14:29:45.739Z</time>
      </trkpt>
      <trkpt lat="44.488" lon="-0.75679">
        <ele>101.514208</ele>
        <time>2022-12-27T14:29:48.748Z</time>
      </trkpt>
      <trkpt lat="44.48793" lon="-0.75663">
        <ele>101.454134</ele>
        <time>2022-12-27T14:29:51.720Z</time>
      </trkpt>
      <trkpt lat="44.48787" lon="-0.75653">
        <ele>101.41253</ele>
        <time>2022-12-27T14:29:53.737Z</time>
      </trkpt>
      <trkpt lat="44.48782" lon="-0.75642">
        <ele>101.370377</ele>
        <time>2022-12-27T14:29:55.727Z</time>
      </trkpt>
      <trkpt lat="44.48777" lon="-0.75632">
        <ele>101.329043</ele>
        <time>2022-12-27T14:29:57.737Z</time>
      </trkpt>
      <trkpt lat="44.48772" lon="-0.75621">
        <ele>101.286371</ele>
        <time>2022-12-27T14:29:59.744Z</time>
      </trkpt>
      <trkpt lat="44.48765" lon="-0.7561">
        <ele>101.24208</ele>
        <time>2022-12-27T14:30:01.722Z</time>
      </trkpt>
      <trkpt lat="44.4876" lon="-0.756">
        <ele>101.199695</ele>
        <time>2022-12-27T14:30:03.741Z</time>
      </trkpt>
      <trkpt lat="44.48754" lon="-0.75588">
        <ele>101.155459</ele>
        <time>2022-12-27T14:30:05.724Z</time>
      </trkpt>
      <trkpt lat="44.48748" lon="-0.75576">
        <ele>101.108336</ele>
        <time>2022-12-27T14:30:07.727Z</time>
      </trkpt>
      <trkpt lat="44.48743" lon="-0.75565">
        <ele>101.063057</ele>
        <time>2022-12-27T14:30:09.736Z</time>
      </trkpt>
      <trkpt lat="44.48737" lon="-0.75554">
        <ele>101.018564</ele>
        <time>2022-12-27T14:30:11.724Z</time>
      </trkpt>
      <trkpt lat="44.48731" lon="-0.75542">
        <ele>100.971959</ele>
        <time>2022-12-27T14:30:13.726Z</time>
      </trkpt>
      <trkpt lat="44.48725" lon="-0.75531">
        <ele>100.927994</ele>
        <time>2022-12-27T14:30:15.738Z</time>
      </trkpt>
      <trkpt lat="44.4872" lon="-0.7552">
        <ele>100.885338</ele>
        <time>2022-12-27T14:30:17.739Z</time>
      </trkpt>
      <trkpt lat="44.48714" lon="-0.75509">
        <ele>100.840316</ele>
        <time>2022-12-27T14:30:19.739Z</time>
      </trkpt>
      <trkpt lat="44.48708" lon="-0.75498">
        <ele>100.794764</ele>
        <time>2022-12-27T14:30:21.732Z</time>
      </trkpt>
      <trkpt lat="44.48702" lon="-0.75486">
        <ele>100.748681</ele>
        <time>2022-12-27T14:30:23.733Z</time>
      </trkpt>
      <trkpt lat="44.48697" lon="-0.75474">
        <ele>100.702851</ele>
        <time>2022-12-27T14:30:25.736Z</time>
      </trkpt>
      <trkpt lat="44.48691" lon="-0.75462">
        <ele>100.656513</ele>
        <time>2022-12-27T14:30:27.741Z</time>
      </trkpt>
      <trkpt lat="44.48685" lon="-0.7545">
        <ele>100.659606</ele>
        <time>2022-12-27T14:30:29.743Z</time>
      </trkpt>
      <trkpt lat="44.48679" lon="-0.75438">
        <ele>100.671672</ele>
        <time>2022-12-27T14:30:31.737Z</time>
      </trkpt>
      <trkpt lat="44.48673" lon="-0.75427">
        <ele>100.683536</ele>
        <time>2022-12-27T14:30:33.748Z</time>
      </trkpt>
      <trkpt lat="44.48667" lon="-0.75415">
        <ele>100.695398</ele>
        <time>2022-12-27T14:30:35.745Z</time>
      </trkpt>
      <trkpt lat="44.48661" lon="-0.75403">
        <ele>100.707462</ele>
        <time>2022-12-27T14:30:37.741Z</time>
      </trkpt>
      <trkpt lat="44.48655" lon="-0.75392">
        <ele>100.719199</ele>
        <time>2022-12-27T14:30:39.740Z</time>
      </trkpt>
      <trkpt lat="44.48649" lon="-0.75381">
        <ele>100.730654</ele>
        <time>2022-12-27T14:30:41.721Z</time>
      </trkpt>
      <trkpt lat="44.48643" lon="-0.75369">
        <ele>100.74265</ele>
        <time>2022-12-27T14:30:43.748Z</time>
      </trkpt>
      <trkpt lat="44.48637" lon="-0.75358">
        <ele>100.754309</ele>
        <time>2022-12-27T14:30:45.724Z</time>
      </trkpt>
      <trkpt lat="44.48632" lon="-0.75346">
        <ele>100.765836</ele>
        <time>2022-12-27T14:30:47.745Z</time>
      </trkpt>
      <trkpt lat="44.48626" lon="-0.75335">
        <ele>100.777631</ele>
        <time>2022-12-27T14:30:49.749Z</time>
      </trkpt>
      <trkpt lat="44.4862" lon="-0.75324">
        <ele>100.789226</ele>
        <time>2022-12-27T14:30:51.731Z</time>
      </trkpt>
      <trkpt lat="44.48614" lon="-0.75312">
        <ele>100.801157</ele>
        <time>2022-12-27T14:30:53.744Z</time>
      </trkpt>
      <trkpt lat="44.48608" lon="-0.75301">
        <ele>100.812679</ele>
        <time>2022-12-27T14:30:55.739Z</time>
      </trkpt>
      <trkpt lat="44.48602" lon="-0.7529">
        <ele>100.824066</ele>
        <time>2022-12-27T14:30:57.748Z</time>
      </trkpt>
      <trkpt lat="44.48596" lon="-0.75279">
        <ele>100.835194</ele>
        <time>2022-12-27T14:30:59.742Z</time>
      </trkpt>
      <trkpt lat="44.48591" lon="-0.75268">
        <ele>100.846187</ele>
        <time>2022-12-27T14:31:01.730Z</time>
      </trkpt>
      <trkpt lat="44.48586" lon="-0.75257">
        <ele>100.857642</ele>
        <time>2022-12-27T14:31:03.741Z</time>
      </trkpt>
      <trkpt lat="44.4858" lon="-0.75247">
        <ele>100.821212</ele>
        <time>2022-12-27T14:31:05.745Z</time>
      </trkpt>
      <trkpt lat="44.48574" lon="-0.75235">
        <ele>100.774954</ele>
        <time>2022-12-27T14:31:07.741Z</time>
      </trkpt>
      <trkpt lat="44.48568" lon="-0.75223">
        <ele>100.728163</ele>
        <time>2022-12-27T14:31:09.749Z</time>
      </trkpt>
      <trkpt lat="44.48562" lon="-0.75212">
        <ele>100.683413</ele>
        <time>2022-12-27T14:31:11.729Z</time>
      </trkpt>
      <trkpt lat="44.48556" lon="-0.752">
        <ele>100.638199</ele>
        <time>2022-12-27T14:31:13.746Z</time>
      </trkpt>
      <trkpt lat="44.48551" lon="-0.75189">
        <ele>100.59536</ele>
        <time>2022-12-27T14:31:15.741Z</time>
      </trkpt>
      <trkpt lat="44.48544" lon="-0.75175">
        <ele>100.53833</ele>
        <time>2022-12-27T14:31:18.762Z</time>
      </trkpt>
      <trkpt lat="44.48537" lon="-0.75162">
        <ele>100.483902</ele>
        <time>2022-12-27T14:31:21.722Z</time>
      </trkpt>
      <trkpt lat="44.4853" lon="-0.75149">
        <ele>100.434201</ele>
        <time>2022-12-27T14:31:24.729Z</time>
      </trkpt>
      <trkpt lat="44.48523" lon="-0.75136">
        <ele>100.381365</ele>
        <time>2022-12-27T14:31:27.754Z</time>
      </trkpt>
      <trkpt lat="44.48515" lon="-0.75122">
        <ele>100.322999</ele>
        <time>2022-12-27T14:31:30.747Z</time>
      </trkpt>
      <trkpt lat="44.48508" lon="-0.75106">
        <ele>100.262204</ele>
        <time>2022-12-27T14:31:33.748Z</time>
      </trkpt>
      <trkpt lat="44.48502" lon="-0.75095">
        <ele>100.2191</ele>
        <time>2022-12-27T14:31:35.742Z</time>
      </trkpt>
      <trkpt lat="44.48497" lon="-0.75085">
        <ele>100.177037</ele>
        <time>2022-12-27T14:31:37.747Z</time>
      </trkpt>
      <trkpt lat="44.48491" lon="-0.75074">
        <ele>100.13341</ele>
        <time>2022-12-27T14:31:39.750Z</time>
      </trkpt>
      <trkpt lat="44.48485" lon="-0.75062">
        <ele>100.08847</ele>
        <time>2022-12-27T14:31:41.725Z</time>
      </trkpt>
      <trkpt lat="44.4848" lon="-0.75051">
        <ele>100.045721</ele>
        <time>2022-12-27T14:31:43.750Z</time>
      </trkpt>
      <trkpt lat="44.48474" lon="-0.75039">
        <ele>100.064133</ele>
        <time>2022-12-27T14:31:45.750Z</time>
      </trkpt>
      <trkpt lat="44.48468" lon="-0.75027">
        <ele>100.083275</ele>
        <time>2022-12-27T14:31:47.735Z</time>
      </trkpt>
      <trkpt lat="44.48462" lon="-0.75015">
        <ele>100.102213</ele>
        <time>2022-12-27T14:31:49.737Z</time>
      </trkpt>
      <trkpt lat="44.48456" lon="-0.75003">
        <ele>100.121048</ele>
        <time>2022-12-27T14:31:51.739Z</time>
      </trkpt>
      <trkpt lat="44.4845" lon="-0.74991">
        <ele>100.139982</ele>
        <time>2022-12-27T14:31:53.745Z</time>
      </trkpt>
      <trkpt lat="44.48443" lon="-0.74978">
        <ele>100.160171</ele>
        <time>2022-12-27T14:31:55.745Z</time>
      </trkpt>
      <trkpt lat="44.48437" lon="-0.74966">
        <ele>100.179526</ele>
        <time>2022-12-27T14:31:57.749Z</time>
      </trkpt>
      <trkpt lat="44.48431" lon="-0.74954">
        <ele>100.198047</ele>
        <time>2022-12-27T14:31:59.725Z</time>
      </trkpt>
      <trkpt lat="44.48425" lon="-0.74942">
        <ele>100.217305</ele>
        <time>2022-12-27T14:32:01.739Z</time>
      </trkpt>
      <trkpt lat="44.48419" lon="-0.7493">
        <ele>100.236448</ele>
        <time>2022-12-27T14:32:03.736Z</time>
      </trkpt>
      <trkpt lat="44.48412" lon="-0.74917">
        <ele>100.25623</ele>
        <time>2022-12-27T14:32:05.749Z</time>
      </trkpt>
      <trkpt lat="44.48406" lon="-0.74906">
        <ele>100.274749</ele>
        <time>2022-12-27T14:32:07.733Z</time>
      </trkpt>
      <trkpt lat="44.484" lon="-0.74893">
        <ele>100.294208</ele>
        <time>2022-12-27T14:32:09.741Z</time>
      </trkpt>
      <trkpt lat="44.48394" lon="-0.7488">
        <ele>100.314088</ele>
        <time>2022-12-27T14:32:11.726Z</time>
      </trkpt>
      <trkpt lat="44.48388" lon="-0.74868">
        <ele>100.332916</ele>
        <time>2022-12-27T14:32:13.746Z</time>
      </trkpt>
      <trkpt lat="44.48382" lon="-0.74856">
        <ele>100.351747</ele>
        <time>2022-12-27T14:32:15.752Z</time>
      </trkpt>
      <trkpt lat="44.48375" lon="-0.74844">
        <ele>100.372386</ele>
        <time>2022-12-27T14:32:17.753Z</time>
      </trkpt>
      <trkpt lat="44.48369" lon="-0.74832">
        <ele>100.401635</ele>
        <time>2022-12-27T14:32:19.750Z</time>
      </trkpt>
      <trkpt lat="44.48363" lon="-0.74822">
        <ele>100.428152</ele>
        <time>2022-12-27T14:32:21.723Z</time>
      </trkpt>
      <trkpt lat="44.48358" lon="-0.74811">
        <ele>100.453362</ele>
        <time>2022-12-27T14:32:23.737Z</time>
      </trkpt>
      <trkpt lat="44.48353" lon="-0.74801">
        <ele>100.478426</ele>
        <time>2022-12-27T14:32:25.739Z</time>
      </trkpt>
      <trkpt lat="44.48347" lon="-0.74791">
        <ele>100.504284</ele>
        <time>2022-12-27T14:32:27.738Z</time>
      </trkpt>
      <trkpt lat="44.48342" lon="-0.7478">
        <ele>100.530142</ele>
        <time>2022-12-27T14:32:29.735Z</time>
      </trkpt>
      <trkpt lat="44.48336" lon="-0.7477">
        <ele>100.555681</ele>
        <time>2022-12-27T14:32:31.723Z</time>
      </trkpt>
      <trkpt lat="44.48331" lon="-0.74758">
        <ele>100.583176</ele>
        <time>2022-12-27T14:32:33.745Z</time>
      </trkpt>
      <trkpt lat="44.48325" lon="-0.74746">
        <ele>100.612587</ele>
        <time>2022-12-27T14:32:35.746Z</time>
      </trkpt>
      <trkpt lat="44.48319" lon="-0.74735">
        <ele>100.640867</ele>
        <time>2022-12-27T14:32:37.744Z</time>
      </trkpt>
      <trkpt lat="44.48313" lon="-0.74723">
        <ele>100.669798</ele>
        <time>2022-12-27T14:32:39.727Z</time>
      </trkpt>
      <trkpt lat="44.48306" lon="-0.74712">
        <ele>100.69811</ele>
        <time>2022-12-27T14:32:41.723Z</time>
      </trkpt>
      <trkpt lat="44.48301" lon="-0.747">
        <ele>100.726078</ele>
        <time>2022-12-27T14:32:43.737Z</time>
      </trkpt>
      <trkpt lat="44.48295" lon="-0.74688">
        <ele>100.755181</ele>
        <time>2022-12-27T14:32:45.739Z</time>
      </trkpt>
      <trkpt lat="44.48289" lon="-0.74676">
        <ele>100.784268</ele>
        <time>2022-12-27T14:32:47.744Z</time>
      </trkpt>
      <trkpt lat="44.48283" lon="-0.74664">
        <ele>100.813691</ele>
        <time>2022-12-27T14:32:49.746Z</time>
      </trkpt>
      <trkpt lat="44.48276" lon="-0.74652">
        <ele>100.843248</ele>
        <time>2022-12-27T14:32:51.728Z</time>
      </trkpt>
      <trkpt lat="44.4827" lon="-0.74641">
        <ele>100.866084</ele>
        <time>2022-12-27T14:32:53.746Z</time>
      </trkpt>
      <trkpt lat="44.48264" lon="-0.74628">
        <ele>100.815143</ele>
        <time>2022-12-27T14:32:55.743Z</time>
      </trkpt>
      <trkpt lat="44.48258" lon="-0.74616">
        <ele>100.765505</ele>
        <time>2022-12-27T14:32:57.741Z</time>
      </trkpt>
      <trkpt lat="44.48252" lon="-0.74604">
        <ele>100.718304</ele>
        <time>2022-12-27T14:32:59.743Z</time>
      </trkpt>
      <trkpt lat="44.48246" lon="-0.74592">
        <ele>100.670602</ele>
        <time>2022-12-27T14:33:01.738Z</time>
      </trkpt>
      <trkpt lat="44.4824" lon="-0.7458">
        <ele>100.623704</ele>
        <time>2022-12-27T14:33:03.725Z</time>
      </trkpt>
      <trkpt lat="44.48234" lon="-0.74569">
        <ele>100.576808</ele>
        <time>2022-12-27T14:33:05.744Z</time>
      </trkpt>
      <trkpt lat="44.48228" lon="-0.74557">
        <ele>100.52884</ele>
        <time>2022-12-27T14:33:07.742Z</time>
      </trkpt>
      <trkpt lat="44.48222" lon="-0.74545">
        <ele>100.480872</ele>
        <time>2022-12-27T14:33:09.748Z</time>
      </trkpt>
      <trkpt lat="44.48216" lon="-0.74533">
        <ele>100.431553</ele>
        <time>2022-12-27T14:33:11.722Z</time>
      </trkpt>
      <trkpt lat="44.48209" lon="-0.74521">
        <ele>100.381977</ele>
        <time>2022-12-27T14:33:13.749Z</time>
      </trkpt>
      <trkpt lat="44.48204" lon="-0.74509">
        <ele>100.333718</ele>
        <time>2022-12-27T14:33:15.744Z</time>
      </trkpt>
      <trkpt lat="44.48198" lon="-0.74497">
        <ele>100.287358</ele>
        <time>2022-12-27T14:33:17.740Z</time>
      </trkpt>
      <trkpt lat="44.48192" lon="-0.74487">
        <ele>100.244448</ele>
        <time>2022-12-27T14:33:19.745Z</time>
      </trkpt>
      <trkpt lat="44.48186" lon="-0.74477">
        <ele>100.202081</ele>
        <time>2022-12-27T14:33:21.725Z</time>
      </trkpt>
      <trkpt lat="44.48181" lon="-0.74466">
        <ele>100.159201</ele>
        <time>2022-12-27T14:33:23.740Z</time>
      </trkpt>
      <trkpt lat="44.48176" lon="-0.74455">
        <ele>100.114449</ele>
        <time>2022-12-27T14:33:25.725Z</time>
      </trkpt>
      <trkpt lat="44.4817" lon="-0.74444">
        <ele>100.068344</ele>
        <time>2022-12-27T14:33:27.747Z</time>
      </trkpt>
      <trkpt lat="44.48164" lon="-0.74432">
        <ele>100.044244</ele>
        <time>2022-12-27T14:33:29.720Z</time>
      </trkpt>
      <trkpt lat="44.48158" lon="-0.7442">
        <ele>100.056334</ele>
        <time>2022-12-27T14:33:31.724Z</time>
      </trkpt>
      <trkpt lat="44.48152" lon="-0.74408">
        <ele>100.0691</ele>
        <time>2022-12-27T14:33:33.737Z</time>
      </trkpt>
      <trkpt lat="44.48145" lon="-0.74396">
        <ele>100.081674</ele>
        <time>2022-12-27T14:33:35.745Z</time>
      </trkpt>
      <trkpt lat="44.48139" lon="-0.74384">
        <ele>100.093965</ele>
        <time>2022-12-27T14:33:37.745Z</time>
      </trkpt>
      <trkpt lat="44.48132" lon="-0.74371">
        <ele>100.107141</ele>
        <time>2022-12-27T14:33:39.721Z</time>
      </trkpt>
      <trkpt lat="44.48126" lon="-0.74358">
        <ele>100.120317</ele>
        <time>2022-12-27T14:33:41.721Z</time>
      </trkpt>
      <trkpt lat="44.48119" lon="-0.74346">
        <ele>100.133361</ele>
        <time>2022-12-27T14:33:43.738Z</time>
      </trkpt>
      <trkpt lat="44.48113" lon="-0.74334">
        <ele>100.146128</ele>
        <time>2022-12-27T14:33:45.750Z</time>
      </trkpt>
      <trkpt lat="44.48106" lon="-0.74321">
        <ele>100.159235</ele>
        <time>2022-12-27T14:33:47.746Z</time>
      </trkpt>
      <trkpt lat="44.48101" lon="-0.74309">
        <ele>100.171665</ele>
        <time>2022-12-27T14:33:49.750Z</time>
      </trkpt>
      <trkpt lat="44.48094" lon="-0.74296">
        <ele>100.184434</ele>
        <time>2022-12-27T14:33:51.747Z</time>
      </trkpt>
      <trkpt lat="44.48087" lon="-0.74283">
        <ele>100.197952</ele>
        <time>2022-12-27T14:33:53.721Z</time>
      </trkpt>
      <trkpt lat="44.48081" lon="-0.74271">
        <ele>100.211061</ele>
        <time>2022-12-27T14:33:55.749Z</time>
      </trkpt>
      <trkpt lat="44.48075" lon="-0.74258">
        <ele>100.22349</ele>
        <time>2022-12-27T14:33:57.728Z</time>
      </trkpt>
      <trkpt lat="44.48069" lon="-0.74247">
        <ele>100.234893</ele>
        <time>2022-12-27T14:33:59.726Z</time>
      </trkpt>
      <trkpt lat="44.48063" lon="-0.74236">
        <ele>100.246518</ele>
        <time>2022-12-27T14:34:01.723Z</time>
      </trkpt>
      <trkpt lat="44.48058" lon="-0.74226">
        <ele>100.271273</ele>
        <time>2022-12-27T14:34:03.734Z</time>
      </trkpt>
      <trkpt lat="44.48051" lon="-0.74213">
        <ele>100.314651</ele>
        <time>2022-12-27T14:34:06.746Z</time>
      </trkpt>
      <trkpt lat="44.48045" lon="-0.74199">
        <ele>100.357596</ele>
        <time>2022-12-27T14:34:10.753Z</time>
      </trkpt>
      <trkpt lat="44.4804" lon="-0.74189">
        <ele>100.393276</ele>
        <time>2022-12-27T14:34:13.737Z</time>
      </trkpt>
      <trkpt lat="44.48033" lon="-0.74176">
        <ele>100.436216</ele>
        <time>2022-12-27T14:34:16.739Z</time>
      </trkpt>
      <trkpt lat="44.48026" lon="-0.74162">
        <ele>100.482497</ele>
        <time>2022-12-27T14:34:19.752Z</time>
      </trkpt>
      <trkpt lat="44.48018" lon="-0.74148">
        <ele>100.530504</ele>
        <time>2022-12-27T14:34:22.743Z</time>
      </trkpt>
      <trkpt lat="44.48013" lon="-0.74137">
        <ele>100.567277</ele>
        <time>2022-12-27T14:34:24.746Z</time>
      </trkpt>
      <trkpt lat="44.48007" lon="-0.74126">
        <ele>100.604493</ele>
        <time>2022-12-27T14:34:26.733Z</time>
      </trkpt>
      <trkpt lat="44.47999" lon="-0.7411">
        <ele>100.656238</ele>
        <time>2022-12-27T14:34:29.747Z</time>
      </trkpt>
      <trkpt lat="44.47993" lon="-0.74099">
        <ele>100.694122</ele>
        <time>2022-12-27T14:34:31.722Z</time>
      </trkpt>
      <trkpt lat="44.47988" lon="-0.74087">
        <ele>100.731012</ele>
        <time>2022-12-27T14:34:33.736Z</time>
      </trkpt>
      <trkpt lat="44.47982" lon="-0.74076">
        <ele>100.766904</ele>
        <time>2022-12-27T14:34:35.736Z</time>
      </trkpt>
      <trkpt lat="44.47977" lon="-0.74066">
        <ele>100.802422</ele>
        <time>2022-12-27T14:34:40.746Z</time>
      </trkpt>
      <trkpt lat="44.47971" lon="-0.74054">
        <ele>100.842725</ele>
        <time>2022-12-27T14:34:58.730Z</time>
      </trkpt>
      <trkpt lat="44.47965" lon="-0.74042">
        <ele>100.881919</ele>
        <time>2022-12-27T14:35:02.731Z</time>
      </trkpt>
      <trkpt lat="44.47958" lon="-0.74032">
        <ele>100.919821</ele>
        <time>2022-12-27T14:35:05.750Z</time>
      </trkpt>
      <trkpt lat="44.47952" lon="-0.74018">
        <ele>100.993192</ele>
        <time>2022-12-27T14:35:08.751Z</time>
      </trkpt>
      <trkpt lat="44.47945" lon="-0.74004">
        <ele>101.086753</ele>
        <time>2022-12-27T14:35:11.722Z</time>
      </trkpt>
      <trkpt lat="44.47938" lon="-0.7399">
        <ele>101.183434</ele>
        <time>2022-12-27T14:35:14.745Z</time>
      </trkpt>
      <trkpt lat="44.47932" lon="-0.73977">
        <ele>101.275142</ele>
        <time>2022-12-27T14:35:17.743Z</time>
      </trkpt>
      <trkpt lat="44.47923" lon="-0.73962">
        <ele>101.381947</ele>
        <time>2022-12-27T14:35:20.746Z</time>
      </trkpt>
      <trkpt lat="44.47917" lon="-0.73947">
        <ele>101.477083</ele>
        <time>2022-12-27T14:35:23.740Z</time>
      </trkpt>
      <trkpt lat="44.4791" lon="-0.73936">
        <ele>101.556604</ele>
        <time>2022-12-27T14:35:25.739Z</time>
      </trkpt>
      <trkpt lat="44.47905" lon="-0.73925">
        <ele>101.626967</ele>
        <time>2022-12-27T14:35:27.745Z</time>
      </trkpt>
      <trkpt lat="44.47899" lon="-0.73914">
        <ele>101.704647</ele>
        <time>2022-12-27T14:35:29.742Z</time>
      </trkpt>
      <trkpt lat="44.47894" lon="-0.73903">
        <ele>101.781921</ele>
        <time>2022-12-27T14:35:31.727Z</time>
      </trkpt>
      <trkpt lat="44.47888" lon="-0.73891">
        <ele>101.858653</ele>
        <time>2022-12-27T14:35:33.745Z</time>
      </trkpt>
      <trkpt lat="44.47882" lon="-0.73879">
        <ele>101.942623</ele>
        <time>2022-12-27T14:35:35.738Z</time>
      </trkpt>
      <trkpt lat="44.47877" lon="-0.73867">
        <ele>102.021463</ele>
        <time>2022-12-27T14:35:37.727Z</time>
      </trkpt>
      <trkpt lat="44.47872" lon="-0.73856">
        <ele>102.094558</ele>
        <time>2022-12-27T14:35:39.722Z</time>
      </trkpt>
      <trkpt lat="44.47865" lon="-0.73845">
        <ele>102.174906</ele>
        <time>2022-12-27T14:35:41.733Z</time>
      </trkpt>
      <trkpt lat="44.47859" lon="-0.73834">
        <ele>102.252586</ele>
        <time>2022-12-27T14:35:43.741Z</time>
      </trkpt>
      <trkpt lat="44.47853" lon="-0.73821">
        <ele>102.334764</ele>
        <time>2022-12-27T14:35:45.750Z</time>
      </trkpt>
      <trkpt lat="44.47848" lon="-0.7381">
        <ele>102.25633</ele>
        <time>2022-12-27T14:35:47.742Z</time>
      </trkpt>
      <trkpt lat="44.47841" lon="-0.73797">
        <ele>102.163699</ele>
        <time>2022-12-27T14:35:49.727Z</time>
      </trkpt>
      <trkpt lat="44.47836" lon="-0.73785">
        <ele>102.071905</ele>
        <time>2022-12-27T14:35:51.722Z</time>
      </trkpt>
      <trkpt lat="44.4783" lon="-0.73772">
        <ele>101.978223</ele>
        <time>2022-12-27T14:35:53.742Z</time>
      </trkpt>
      <trkpt lat="44.47825" lon="-0.73759">
        <ele>101.889314</ele>
        <time>2022-12-27T14:35:55.740Z</time>
      </trkpt>
      <trkpt lat="44.47819" lon="-0.73746">
        <ele>101.798224</ele>
        <time>2022-12-27T14:35:57.744Z</time>
      </trkpt>
      <trkpt lat="44.47814" lon="-0.73733">
        <ele>101.706277</ele>
        <time>2022-12-27T14:35:59.738Z</time>
      </trkpt>
      <trkpt lat="44.47809" lon="-0.7372">
        <ele>101.615287</ele>
        <time>2022-12-27T14:36:01.728Z</time>
      </trkpt>
      <trkpt lat="44.47803" lon="-0.73708">
        <ele>101.526907</ele>
        <time>2022-12-27T14:36:03.742Z</time>
      </trkpt>
      <trkpt lat="44.47798" lon="-0.73694">
        <ele>101.43243</ele>
        <time>2022-12-27T14:36:05.750Z</time>
      </trkpt>
      <trkpt lat="44.47794" lon="-0.73681">
        <ele>101.34406</ele>
        <time>2022-12-27T14:36:07.728Z</time>
      </trkpt>
      <trkpt lat="44.47789" lon="-0.73668">
        <ele>101.255939</ele>
        <time>2022-12-27T14:36:09.722Z</time>
      </trkpt>
      <trkpt lat="44.47785" lon="-0.73654">
        <ele>101.164995</ele>
        <time>2022-12-27T14:36:11.721Z</time>
      </trkpt>
      <trkpt lat="44.4778" lon="-0.7364">
        <ele>101.072513</ele>
        <time>2022-12-27T14:36:13.746Z</time>
      </trkpt>
      <trkpt lat="44.47776" lon="-0.73627">
        <ele>100.985139</ele>
        <time>2022-12-27T14:36:15.721Z</time>
      </trkpt>
      <trkpt lat="44.47772" lon="-0.73614">
        <ele>100.899066</ele>
        <time>2022-12-27T14:36:17.748Z</time>
      </trkpt>
      <trkpt lat="44.47768" lon="-0.73601">
        <ele>100.808446</ele>
        <time>2022-12-27T14:36:19.739Z</time>
      </trkpt>
      <trkpt lat="44.47764" lon="-0.73588">
        <ele>100.786285</ele>
        <time>2022-12-27T14:36:21.748Z</time>
      </trkpt>
      <trkpt lat="44.4776" lon="-0.73574">
        <ele>100.766064</ele>
        <time>2022-12-27T14:36:23.738Z</time>
      </trkpt>
      <trkpt lat="44.47756" lon="-0.7356">
        <ele>100.745686</ele>
        <time>2022-12-27T14:36:25.735Z</time>
      </trkpt>
      <trkpt lat="44.47752" lon="-0.73547">
        <ele>100.725977</ele>
        <time>2022-12-27T14:36:27.720Z</time>
      </trkpt>
      <trkpt lat="44.47749" lon="-0.73533">
        <ele>100.706081</ele>
        <time>2022-12-27T14:36:29.743Z</time>
      </trkpt>
      <trkpt lat="44.47746" lon="-0.7352">
        <ele>100.686889</ele>
        <time>2022-12-27T14:36:31.726Z</time>
      </trkpt>
      <trkpt lat="44.47743" lon="-0.73507">
        <ele>100.669082</ele>
        <time>2022-12-27T14:36:33.743Z</time>
      </trkpt>
      <trkpt lat="44.4774" lon="-0.73495">
        <ele>100.650801</ele>
        <time>2022-12-27T14:36:35.736Z</time>
      </trkpt>
      <trkpt lat="44.47737" lon="-0.73481">
        <ele>100.631385</ele>
        <time>2022-12-27T14:36:37.750Z</time>
      </trkpt>
      <trkpt lat="44.47734" lon="-0.73468">
        <ele>100.612974</ele>
        <time>2022-12-27T14:36:39.749Z</time>
      </trkpt>
      <trkpt lat="44.47732" lon="-0.73455">
        <ele>100.594021</ele>
        <time>2022-12-27T14:36:41.746Z</time>
      </trkpt>
      <trkpt lat="44.47729" lon="-0.73441">
        <ele>100.574492</ele>
        <time>2022-12-27T14:36:43.743Z</time>
      </trkpt>
      <trkpt lat="44.47726" lon="-0.73428">
        <ele>100.554979</ele>
        <time>2022-12-27T14:36:45.730Z</time>
      </trkpt>
      <trkpt lat="44.47724" lon="-0.73415">
        <ele>100.536671</ele>
        <time>2022-12-27T14:36:47.730Z</time>
      </trkpt>
      <trkpt lat="44.47722" lon="-0.73402">
        <ele>100.519006</ele>
        <time>2022-12-27T14:36:49.746Z</time>
      </trkpt>
      <trkpt lat="44.4772" lon="-0.73389">
        <ele>100.500899</ele>
        <time>2022-12-27T14:36:51.747Z</time>
      </trkpt>
      <trkpt lat="44.47718" lon="-0.73376">
        <ele>100.48212</ele>
        <time>2022-12-27T14:36:53.749Z</time>
      </trkpt>
      <trkpt lat="44.47716" lon="-0.73363">
        <ele>100.464187</ele>
        <time>2022-12-27T14:36:55.747Z</time>
      </trkpt>
      <trkpt lat="44.47714" lon="-0.73347">
        <ele>100.692748</ele>
        <time>2022-12-27T14:36:58.747Z</time>
      </trkpt>
      <trkpt lat="44.47711" lon="-0.73332">
        <ele>100.972646</ele>
        <time>2022-12-27T14:37:01.731Z</time>
      </trkpt>
      <trkpt lat="44.4771" lon="-0.73318">
        <ele>101.221154</ele>
        <time>2022-12-27T14:37:04.764Z</time>
      </trkpt>
      <trkpt lat="44.47708" lon="-0.73305">
        <ele>101.461277</ele>
        <time>2022-12-27T14:37:07.747Z</time>
      </trkpt>
      <trkpt lat="44.47707" lon="-0.73292">
        <ele>101.705371</ele>
        <time>2022-12-27T14:37:10.741Z</time>
      </trkpt>
      <trkpt lat="44.47706" lon="-0.73278">
        <ele>101.95419</ele>
        <time>2022-12-27T14:37:13.750Z</time>
      </trkpt>
      <trkpt lat="44.47705" lon="-0.73262">
        <ele>102.239541</ele>
        <time>2022-12-27T14:37:16.749Z</time>
      </trkpt>
      <trkpt lat="44.47704" lon="-0.73245">
        <ele>102.553657</ele>
        <time>2022-12-27T14:37:19.749Z</time>
      </trkpt>
      <trkpt lat="44.47703" lon="-0.73227">
        <ele>102.879823</ele>
        <time>2022-12-27T14:37:22.750Z</time>
      </trkpt>
      <trkpt lat="44.47702" lon="-0.73209">
        <ele>103.215804</ele>
        <time>2022-12-27T14:37:25.737Z</time>
      </trkpt>
      <trkpt lat="44.47701" lon="-0.73196">
        <ele>103.447426</ele>
        <time>2022-12-27T14:37:27.750Z</time>
      </trkpt>
      <trkpt lat="44.477" lon="-0.73178">
        <ele>103.781066</ele>
        <time>2022-12-27T14:37:30.749Z</time>
      </trkpt>
      <trkpt lat="44.47701" lon="-0.7316">
        <ele>104.092876</ele>
        <time>2022-12-27T14:37:33.726Z</time>
      </trkpt>
      <trkpt lat="44.477" lon="-0.73143">
        <ele>104.410937</ele>
        <time>2022-12-27T14:37:36.743Z</time>
      </trkpt>
      <trkpt lat="44.47699" lon="-0.73125">
        <ele>104.740034</ele>
        <time>2022-12-27T14:37:39.732Z</time>
      </trkpt>
      <trkpt lat="44.47698" lon="-0.73108">
        <ele>105.044924</ele>
        <time>2022-12-27T14:37:42.743Z</time>
      </trkpt>
      <trkpt lat="44.47697" lon="-0.73094">
        <ele>105.246797</ele>
        <time>2022-12-27T14:37:44.746Z</time>
      </trkpt>
      <trkpt lat="44.47698" lon="-0.73075">
        <ele>105.531074</ele>
        <time>2022-12-27T14:37:47.751Z</time>
      </trkpt>
      <trkpt lat="44.47698" lon="-0.73056">
        <ele>105.81395</ele>
        <time>2022-12-27T14:37:50.746Z</time>
      </trkpt>
      <trkpt lat="44.47701" lon="-0.73039">
        <ele>106.081924</ele>
        <time>2022-12-27T14:37:53.746Z</time>
      </trkpt>
      <trkpt lat="44.47701" lon="-0.73025">
        <ele>106.276768</ele>
        <time>2022-12-27T14:37:55.743Z</time>
      </trkpt>
      <trkpt lat="44.477" lon="-0.73012">
        <ele>106.476173</ele>
        <time>2022-12-27T14:37:57.746Z</time>
      </trkpt>
      <trkpt lat="44.47703" lon="-0.72994">
        <ele>106.748532</ele>
        <time>2022-12-27T14:38:00.753Z</time>
      </trkpt>
      <trkpt lat="44.47704" lon="-0.72981">
        <ele>106.937889</ele>
        <time>2022-12-27T14:38:02.752Z</time>
      </trkpt>
      <trkpt lat="44.47706" lon="-0.72965">
        <ele>107.180956</ele>
        <time>2022-12-27T14:38:05.749Z</time>
      </trkpt>
      <trkpt lat="44.47709" lon="-0.7295">
        <ele>107.411514</ele>
        <time>2022-12-27T14:38:08.751Z</time>
      </trkpt>
      <trkpt lat="44.47711" lon="-0.72934">
        <ele>107.66522</ele>
        <time>2022-12-27T14:38:11.728Z</time>
      </trkpt>
      <trkpt lat="44.47711" lon="-0.72917">
        <ele>107.913644</ele>
        <time>2022-12-27T14:38:14.750Z</time>
      </trkpt>
      <trkpt lat="44.47712" lon="-0.72899">
        <ele>108.178599</ele>
        <time>2022-12-27T14:38:17.751Z</time>
      </trkpt>
      <trkpt lat="44.47711" lon="-0.72886">
        <ele>108.369027</ele>
        <time>2022-12-27T14:38:19.752Z</time>
      </trkpt>
      <trkpt lat="44.47712" lon="-0.72869">
        <ele>108.627183</ele>
        <time>2022-12-27T14:38:22.742Z</time>
      </trkpt>
      <trkpt lat="44.47715" lon="-0.72851">
        <ele>108.672906</ele>
        <time>2022-12-27T14:38:25.743Z</time>
      </trkpt>
      <trkpt lat="44.47717" lon="-0.72838">
        <ele>108.517135</ele>
        <time>2022-12-27T14:38:27.723Z</time>
      </trkpt>
      <trkpt lat="44.4772" lon="-0.72821">
        <ele>108.294298</ele>
        <time>2022-12-27T14:38:30.722Z</time>
      </trkpt>
      <trkpt lat="44.47722" lon="-0.72808">
        <ele>108.133854</ele>
        <time>2022-12-27T14:38:32.748Z</time>
      </trkpt>
      <trkpt lat="44.47724" lon="-0.72791">
        <ele>107.917417</ele>
        <time>2022-12-27T14:38:35.721Z</time>
      </trkpt>
      <trkpt lat="44.47728" lon="-0.72776">
        <ele>107.719206</ele>
        <time>2022-12-27T14:38:38.740Z</time>
      </trkpt>
      <trkpt lat="44.47731" lon="-0.7276">
        <ele>107.522169</ele>
        <time>2022-12-27T14:38:41.743Z</time>
      </trkpt>
      <trkpt lat="44.47735" lon="-0.72747">
        <ele>107.343637</ele>
        <time>2022-12-27T14:38:44.750Z</time>
      </trkpt>
      <trkpt lat="44.47739" lon="-0.72731">
        <ele>107.140722</ele>
        <time>2022-12-27T14:38:48.753Z</time>
      </trkpt>
      <trkpt lat="44.47742" lon="-0.72717">
        <ele>106.956487</ele>
        <time>2022-12-27T14:38:52.748Z</time>
      </trkpt>
      <trkpt lat="44.47745" lon="-0.72702">
        <ele>106.764056</ele>
        <time>2022-12-27T14:38:56.751Z</time>
      </trkpt>
      <trkpt lat="44.47748" lon="-0.7269">
        <ele>106.602546</ele>
        <time>2022-12-27T14:38:59.747Z</time>
      </trkpt>
      <trkpt lat="44.4775" lon="-0.72676">
        <ele>106.424492</ele>
        <time>2022-12-27T14:39:02.747Z</time>
      </trkpt>
      <trkpt lat="44.47754" lon="-0.72659">
        <ele>106.214119</ele>
        <time>2022-12-27T14:39:05.747Z</time>
      </trkpt>
      <trkpt lat="44.47757" lon="-0.72643">
        <ele>106.008398</ele>
        <time>2022-12-27T14:39:08.750Z</time>
      </trkpt>
      <trkpt lat="44.47761" lon="-0.72627">
        <ele>105.793183</ele>
        <time>2022-12-27T14:39:11.751Z</time>
      </trkpt>
      <trkpt lat="44.47763" lon="-0.7261">
        <ele>105.740723</ele>
        <time>2022-12-27T14:39:14.754Z</time>
      </trkpt>
      <trkpt lat="44.47768" lon="-0.72594">
        <ele>105.914337</ele>
        <time>2022-12-27T14:39:17.720Z</time>
      </trkpt>
      <trkpt lat="44.47772" lon="-0.72577">
        <ele>106.090222</ele>
        <time>2022-12-27T14:39:20.750Z</time>
      </trkpt>
      <trkpt lat="44.47776" lon="-0.72561">
        <ele>106.267975</ele>
        <time>2022-12-27T14:39:23.752Z</time>
      </trkpt>
      <trkpt lat="44.47779" lon="-0.72544">
        <ele>106.437695</ele>
        <time>2022-12-27T14:39:26.751Z</time>
      </trkpt>
      <trkpt lat="44.47782" lon="-0.72528">
        <ele>106.610118</ele>
        <time>2022-12-27T14:39:29.742Z</time>
      </trkpt>
      <trkpt lat="44.47786" lon="-0.72511">
        <ele>106.787489</ele>
        <time>2022-12-27T14:39:32.744Z</time>
      </trkpt>
      <trkpt lat="44.47789" lon="-0.72495">
        <ele>106.964586</ele>
        <time>2022-12-27T14:39:35.721Z</time>
      </trkpt>
      <trkpt lat="44.47793" lon="-0.72478">
        <ele>107.139179</ele>
        <time>2022-12-27T14:39:38.748Z</time>
      </trkpt>
      <trkpt lat="44.47796" lon="-0.72461">
        <ele>107.312811</ele>
        <time>2022-12-27T14:39:41.724Z</time>
      </trkpt>
      <trkpt lat="44.47799" lon="-0.72445">
        <ele>107.485234</ele>
        <time>2022-12-27T14:39:44.741Z</time>
      </trkpt>
      <trkpt lat="44.47802" lon="-0.72429">
        <ele>107.655222</ele>
        <time>2022-12-27T14:39:47.722Z</time>
      </trkpt>
      <trkpt lat="44.47805" lon="-0.72412">
        <ele>107.825918</ele>
        <time>2022-12-27T14:39:50.722Z</time>
      </trkpt>
      <trkpt lat="44.47809" lon="-0.72396">
        <ele>108.000102</ele>
        <time>2022-12-27T14:39:53.727Z</time>
      </trkpt>
      <trkpt lat="44.47811" lon="-0.72379">
        <ele>108.170786</ele>
        <time>2022-12-27T14:39:56.744Z</time>
      </trkpt>
      <trkpt lat="44.47815" lon="-0.72364">
        <ele>108.287181</ele>
        <time>2022-12-27T14:39:59.730Z</time>
      </trkpt>
      <trkpt lat="44.4782" lon="-0.72342">
        <ele>108.418598</ele>
        <time>2022-12-27T14:40:03.749Z</time>
      </trkpt>
      <trkpt lat="44.47823" lon="-0.72326">
        <ele>108.514763</ele>
        <time>2022-12-27T14:40:06.733Z</time>
      </trkpt>
      <trkpt lat="44.47827" lon="-0.72309">
        <ele>108.614152</ele>
        <time>2022-12-27T14:40:09.731Z</time>
      </trkpt>
      <trkpt lat="44.4783" lon="-0.72292">
        <ele>108.71598</ele>
        <time>2022-12-27T14:40:12.743Z</time>
      </trkpt>
      <trkpt lat="44.47834" lon="-0.72276">
        <ele>108.815798</ele>
        <time>2022-12-27T14:40:15.735Z</time>
      </trkpt>
      <trkpt lat="44.47837" lon="-0.72259">
        <ele>108.914726</ele>
        <time>2022-12-27T14:40:18.726Z</time>
      </trkpt>
      <trkpt lat="44.4784" lon="-0.72243">
        <ele>109.013219</ele>
        <time>2022-12-27T14:40:21.718Z</time>
      </trkpt>
      <trkpt lat="44.47843" lon="-0.72228">
        <ele>109.100645</ele>
        <time>2022-12-27T14:40:24.731Z</time>
      </trkpt>
      <trkpt lat="44.47846" lon="-0.72214">
        <ele>109.182093</ele>
        <time>2022-12-27T14:40:27.722Z</time>
      </trkpt>
      <trkpt lat="44.47849" lon="-0.72201">
        <ele>109.260247</ele>
        <time>2022-12-27T14:40:30.756Z</time>
      </trkpt>
      <trkpt lat="44.47852" lon="-0.72187">
        <ele>109.347211</ele>
        <time>2022-12-27T14:40:33.740Z</time>
      </trkpt>
      <trkpt lat="44.47856" lon="-0.72171">
        <ele>109.442156</ele>
        <time>2022-12-27T14:40:36.719Z</time>
      </trkpt>
      <trkpt lat="44.47859" lon="-0.72156">
        <ele>109.535329</ele>
        <time>2022-12-27T14:40:39.751Z</time>
      </trkpt>
      <trkpt lat="44.47862" lon="-0.7214">
        <ele>109.629475</ele>
        <time>2022-12-27T14:40:42.751Z</time>
      </trkpt>
      <trkpt lat="44.47865" lon="-0.72124">
        <ele>109.715614</ele>
        <time>2022-12-27T14:40:45.749Z</time>
      </trkpt>
      <trkpt lat="44.47869" lon="-0.72107">
        <ele>109.79536</ele>
        <time>2022-12-27T14:40:48.750Z</time>
      </trkpt>
      <trkpt lat="44.47872" lon="-0.7209">
        <ele>109.87741</ele>
        <time>2022-12-27T14:40:51.728Z</time>
      </trkpt>
      <trkpt lat="44.47876" lon="-0.72074">
        <ele>109.95459</ele>
        <time>2022-12-27T14:40:54.738Z</time>
      </trkpt>
      <trkpt lat="44.4788" lon="-0.72057">
        <ele>110.035067</ele>
        <time>2022-12-27T14:40:57.730Z</time>
      </trkpt>
      <trkpt lat="44.47883" lon="-0.7204">
        <ele>110.112922</ele>
        <time>2022-12-27T14:41:00.743Z</time>
      </trkpt>
      <trkpt lat="44.47886" lon="-0.72023">
        <ele>110.195515</ele>
        <time>2022-12-27T14:41:03.750Z</time>
      </trkpt>
      <trkpt lat="44.47889" lon="-0.72005">
        <ele>110.27899</ele>
        <time>2022-12-27T14:41:06.753Z</time>
      </trkpt>
      <trkpt lat="44.47893" lon="-0.71987">
        <ele>110.362971</ele>
        <time>2022-12-27T14:41:09.752Z</time>
      </trkpt>
      <trkpt lat="44.47897" lon="-0.71969">
        <ele>110.448539</ele>
        <time>2022-12-27T14:41:12.750Z</time>
      </trkpt>
      <trkpt lat="44.479" lon="-0.71951">
        <ele>110.533398</ele>
        <time>2022-12-27T14:41:15.751Z</time>
      </trkpt>
      <trkpt lat="44.47903" lon="-0.71939">
        <ele>110.591316</ele>
        <time>2022-12-27T14:41:17.748Z</time>
      </trkpt>
      <trkpt lat="44.47905" lon="-0.71927">
        <ele>110.649176</ele>
        <time>2022-12-27T14:41:19.749Z</time>
      </trkpt>
      <trkpt lat="44.47907" lon="-0.71914">
        <ele>110.70929</ele>
        <time>2022-12-27T14:41:21.726Z</time>
      </trkpt>
      <trkpt lat="44.4791" lon="-0.71902">
        <ele>110.769404</ele>
        <time>2022-12-27T14:41:23.731Z</time>
      </trkpt>
      <trkpt lat="44.47912" lon="-0.71889">
        <ele>110.826173</ele>
        <time>2022-12-27T14:41:25.732Z</time>
      </trkpt>
      <trkpt lat="44.47915" lon="-0.71876">
        <ele>110.875676</ele>
        <time>2022-12-27T14:41:27.749Z</time>
      </trkpt>
      <trkpt lat="44.47918" lon="-0.71864">
        <ele>110.92157</ele>
        <time>2022-12-27T14:41:29.739Z</time>
      </trkpt>
      <trkpt lat="44.4792" lon="-0.7185">
        <ele>110.970807</ele>
        <time>2022-12-27T14:41:31.730Z</time>
      </trkpt>
      <trkpt lat="44.47924" lon="-0.71833">
        <ele>111.032886</ele>
        <time>2022-12-27T14:41:34.748Z</time>
      </trkpt>
      <trkpt lat="44.47927" lon="-0.71818">
        <ele>111.089122</ele>
        <time>2022-12-27T14:41:37.750Z</time>
      </trkpt>
      <trkpt lat="44.4793" lon="-0.71804">
        <ele>111.141553</ele>
        <time>2022-12-27T14:41:40.749Z</time>
      </trkpt>
      <trkpt lat="44.47933" lon="-0.71788">
        <ele>111.197665</ele>
        <time>2022-12-27T14:41:43.750Z</time>
      </trkpt>
      <trkpt lat="44.47936" lon="-0.71772">
        <ele>111.255595</ele>
        <time>2022-12-27T14:41:46.749Z</time>
      </trkpt>
      <trkpt lat="44.4794" lon="-0.71756">
        <ele>111.315696</ele>
        <time>2022-12-27T14:41:49.751Z</time>
      </trkpt>
      <trkpt lat="44.47943" lon="-0.7174">
        <ele>111.376067</ele>
        <time>2022-12-27T14:41:52.750Z</time>
      </trkpt>
      <trkpt lat="44.47946" lon="-0.71723">
        <ele>111.43492</ele>
        <time>2022-12-27T14:41:55.749Z</time>
      </trkpt>
      <trkpt lat="44.47949" lon="-0.71707">
        <ele>111.495973</ele>
        <time>2022-12-27T14:41:58.747Z</time>
      </trkpt>
      <trkpt lat="44.47953" lon="-0.7169">
        <ele>111.558873</ele>
        <time>2022-12-27T14:42:01.733Z</time>
      </trkpt>
      <trkpt lat="44.47956" lon="-0.71672">
        <ele>111.621852</ele>
        <time>2022-12-27T14:42:04.749Z</time>
      </trkpt>
      <trkpt lat="44.4796" lon="-0.71656">
        <ele>111.682062</ele>
        <time>2022-12-27T14:42:07.749Z</time>
      </trkpt>
      <trkpt lat="44.47964" lon="-0.7164">
        <ele>111.711528</ele>
        <time>2022-12-27T14:42:10.720Z</time>
      </trkpt>
      <trkpt lat="44.47967" lon="-0.71623">
        <ele>111.71181</ele>
        <time>2022-12-27T14:42:13.724Z</time>
      </trkpt>
      <trkpt lat="44.47971" lon="-0.71605">
        <ele>111.712093</ele>
        <time>2022-12-27T14:42:16.753Z</time>
      </trkpt>
      <trkpt lat="44.47973" lon="-0.71592">
        <ele>111.712289</ele>
        <time>2022-12-27T14:42:18.753Z</time>
      </trkpt>
      <trkpt lat="44.47977" lon="-0.71575">
        <ele>111.712574</ele>
        <time>2022-12-27T14:42:21.728Z</time>
      </trkpt>
      <trkpt lat="44.4798" lon="-0.71562">
        <ele>111.712775</ele>
        <time>2022-12-27T14:42:23.748Z</time>
      </trkpt>
      <trkpt lat="44.47982" lon="-0.7155">
        <ele>111.712969</ele>
        <time>2022-12-27T14:42:25.745Z</time>
      </trkpt>
      <trkpt lat="44.47987" lon="-0.71533">
        <ele>111.713255</ele>
        <time>2022-12-27T14:42:28.748Z</time>
      </trkpt>
      <trkpt lat="44.4799" lon="-0.71514">
        <ele>111.713551</ele>
        <time>2022-12-27T14:42:31.745Z</time>
      </trkpt>
      <trkpt lat="44.47992" lon="-0.71501">
        <ele>111.713759</ele>
        <time>2022-12-27T14:42:33.732Z</time>
      </trkpt>
      <trkpt lat="44.47996" lon="-0.71483">
        <ele>111.714042</ele>
        <time>2022-12-27T14:42:36.727Z</time>
      </trkpt>
      <trkpt lat="44.47999" lon="-0.71465">
        <ele>111.714323</ele>
        <time>2022-12-27T14:42:39.742Z</time>
      </trkpt>
      <trkpt lat="44.48003" lon="-0.71448">
        <ele>111.714607</ele>
        <time>2022-12-27T14:42:42.750Z</time>
      </trkpt>
      <trkpt lat="44.48006" lon="-0.71435">
        <ele>111.714818</ele>
        <time>2022-12-27T14:42:44.749Z</time>
      </trkpt>
      <trkpt lat="44.48009" lon="-0.71422">
        <ele>111.715017</ele>
        <time>2022-12-27T14:42:46.751Z</time>
      </trkpt>
      <trkpt lat="44.48011" lon="-0.7141">
        <ele>111.715219</ele>
        <time>2022-12-27T14:42:48.746Z</time>
      </trkpt>
      <trkpt lat="44.48014" lon="-0.71393">
        <ele>111.622897</ele>
        <time>2022-12-27T14:42:51.726Z</time>
      </trkpt>
      <trkpt lat="44.48017" lon="-0.71377">
        <ele>111.515478</ele>
        <time>2022-12-27T14:42:54.751Z</time>
      </trkpt>
      <trkpt lat="44.48021" lon="-0.71361">
        <ele>111.40122</ele>
        <time>2022-12-27T14:42:57.733Z</time>
      </trkpt>
      <trkpt lat="44.48024" lon="-0.71343">
        <ele>111.280898</ele>
        <time>2022-12-27T14:43:00.728Z</time>
      </trkpt>
      <trkpt lat="44.48027" lon="-0.71331">
        <ele>111.195874</ele>
        <time>2022-12-27T14:43:02.750Z</time>
      </trkpt>
      <trkpt lat="44.48029" lon="-0.71318">
        <ele>111.112283</ele>
        <time>2022-12-27T14:43:04.746Z</time>
      </trkpt>
      <trkpt lat="44.48033" lon="-0.713">
        <ele>110.989175</ele>
        <time>2022-12-27T14:43:07.747Z</time>
      </trkpt>
      <trkpt lat="44.48036" lon="-0.71288">
        <ele>110.904694</ele>
        <time>2022-12-27T14:43:09.746Z</time>
      </trkpt>
      <trkpt lat="44.48039" lon="-0.71276">
        <ele>110.820634</ele>
        <time>2022-12-27T14:43:11.724Z</time>
      </trkpt>
      <trkpt lat="44.48041" lon="-0.71264">
        <ele>110.735886</ele>
        <time>2022-12-27T14:43:13.730Z</time>
      </trkpt>
      <trkpt lat="44.48045" lon="-0.71246">
        <ele>110.612899</ele>
        <time>2022-12-27T14:43:16.739Z</time>
      </trkpt>
      <trkpt lat="44.48048" lon="-0.71233">
        <ele>110.522719</ele>
        <time>2022-12-27T14:43:18.747Z</time>
      </trkpt>
      <trkpt lat="44.4805" lon="-0.7122">
        <ele>110.435182</ele>
        <time>2022-12-27T14:43:20.743Z</time>
      </trkpt>
      <trkpt lat="44.48053" lon="-0.71208">
        <ele>110.351063</ele>
        <time>2022-12-27T14:43:22.752Z</time>
      </trkpt>
      <trkpt lat="44.48055" lon="-0.71195">
        <ele>110.262562</ele>
        <time>2022-12-27T14:43:24.755Z</time>
      </trkpt>
      <trkpt lat="44.48058" lon="-0.71182">
        <ele>110.176554</ele>
        <time>2022-12-27T14:43:26.744Z</time>
      </trkpt>
      <trkpt lat="44.48062" lon="-0.71164">
        <ele>110.054116</ele>
        <time>2022-12-27T14:43:29.751Z</time>
      </trkpt>
      <trkpt lat="44.48064" lon="-0.71151">
        <ele>110.021183</ele>
        <time>2022-12-27T14:43:31.728Z</time>
      </trkpt>
      <trkpt lat="44.48066" lon="-0.71139">
        <ele>109.989672</ele>
        <time>2022-12-27T14:43:33.747Z</time>
      </trkpt>
      <trkpt lat="44.48069" lon="-0.71126">
        <ele>109.956838</ele>
        <time>2022-12-27T14:43:35.752Z</time>
      </trkpt>
      <trkpt lat="44.48074" lon="-0.71108">
        <ele>109.909368</ele>
        <time>2022-12-27T14:43:38.750Z</time>
      </trkpt>
      <trkpt lat="44.48078" lon="-0.7109">
        <ele>109.86352</ele>
        <time>2022-12-27T14:43:41.752Z</time>
      </trkpt>
      <trkpt lat="44.48081" lon="-0.71078">
        <ele>109.83256</ele>
        <time>2022-12-27T14:43:43.749Z</time>
      </trkpt>
      <trkpt lat="44.48084" lon="-0.7106">
        <ele>109.786506</ele>
        <time>2022-12-27T14:43:46.748Z</time>
      </trkpt>
      <trkpt lat="44.48087" lon="-0.71047">
        <ele>109.753671</ele>
        <time>2022-12-27T14:43:48.733Z</time>
      </trkpt>
      <trkpt lat="44.4809" lon="-0.71034">
        <ele>109.721875</ele>
        <time>2022-12-27T14:43:50.748Z</time>
      </trkpt>
      <trkpt lat="44.48091" lon="-0.71021">
        <ele>109.687951</ele>
        <time>2022-12-27T14:43:52.732Z</time>
      </trkpt>
      <trkpt lat="44.48094" lon="-0.71008">
        <ele>109.655819</ele>
        <time>2022-12-27T14:43:54.753Z</time>
      </trkpt>
      <trkpt lat="44.48096" lon="-0.70996">
        <ele>109.623447</ele>
        <time>2022-12-27T14:43:56.728Z</time>
      </trkpt>
      <trkpt lat="44.48099" lon="-0.70982">
        <ele>109.589563</ele>
        <time>2022-12-27T14:43:58.752Z</time>
      </trkpt>
      <trkpt lat="44.48103" lon="-0.70964">
        <ele>109.543092</ele>
        <time>2022-12-27T14:44:01.749Z</time>
      </trkpt>
      <trkpt lat="44.48105" lon="-0.70952">
        <ele>109.512152</ele>
        <time>2022-12-27T14:44:03.739Z</time>
      </trkpt>
      <trkpt lat="44.48109" lon="-0.70934">
        <ele>109.467188</ele>
        <time>2022-12-27T14:44:06.756Z</time>
      </trkpt>
      <trkpt lat="44.48112" lon="-0.70919">
        <ele>109.46618</ele>
        <time>2022-12-27T14:44:09.730Z</time>
      </trkpt>
      <trkpt lat="44.48116" lon="-0.70902">
        <ele>109.633761</ele>
        <time>2022-12-27T14:44:12.765Z</time>
      </trkpt>
      <trkpt lat="44.48118" lon="-0.7089">
        <ele>109.750758</ele>
        <time>2022-12-27T14:44:14.749Z</time>
      </trkpt>
      <trkpt lat="44.48122" lon="-0.70871">
        <ele>109.926492</ele>
        <time>2022-12-27T14:44:17.746Z</time>
      </trkpt>
      <trkpt lat="44.48125" lon="-0.70854">
        <ele>110.094606</ele>
        <time>2022-12-27T14:44:20.742Z</time>
      </trkpt>
      <trkpt lat="44.48129" lon="-0.70836">
        <ele>110.265561</ele>
        <time>2022-12-27T14:44:23.755Z</time>
      </trkpt>
      <trkpt lat="44.48132" lon="-0.70823">
        <ele>110.385732</ele>
        <time>2022-12-27T14:44:25.750Z</time>
      </trkpt>
      <trkpt lat="44.48137" lon="-0.70806">
        <ele>110.556996</ele>
        <time>2022-12-27T14:44:28.752Z</time>
      </trkpt>
      <trkpt lat="44.48139" lon="-0.70794">
        <ele>110.675916</ele>
        <time>2022-12-27T14:44:30.735Z</time>
      </trkpt>
      <trkpt lat="44.48143" lon="-0.70775">
        <ele>110.850928</ele>
        <time>2022-12-27T14:44:33.747Z</time>
      </trkpt>
      <trkpt lat="44.48146" lon="-0.70762">
        <ele>110.978161</ele>
        <time>2022-12-27T14:44:35.725Z</time>
      </trkpt>
      <trkpt lat="44.48148" lon="-0.7075">
        <ele>111.096657</ele>
        <time>2022-12-27T14:44:37.740Z</time>
      </trkpt>
      <trkpt lat="44.4815" lon="-0.70737">
        <ele>111.212763</ele>
        <time>2022-12-27T14:44:39.746Z</time>
      </trkpt>
      <trkpt lat="44.48154" lon="-0.7072">
        <ele>111.384395</ele>
        <time>2022-12-27T14:44:42.740Z</time>
      </trkpt>
      <trkpt lat="44.48157" lon="-0.70707">
        <ele>111.503501</ele>
        <time>2022-12-27T14:44:44.743Z</time>
      </trkpt>
      <trkpt lat="44.48159" lon="-0.70695">
        <ele>111.620197</ele>
        <time>2022-12-27T14:44:46.728Z</time>
      </trkpt>
      <trkpt lat="44.48162" lon="-0.70678">
        <ele>111.782153</ele>
        <time>2022-12-27T14:44:49.747Z</time>
      </trkpt>
      <trkpt lat="44.48165" lon="-0.70661">
        <ele>111.951137</ele>
        <time>2022-12-27T14:44:52.749Z</time>
      </trkpt>
      <trkpt lat="44.48169" lon="-0.70644">
        <ele>112.120387</ele>
        <time>2022-12-27T14:44:55.745Z</time>
      </trkpt>
      <trkpt lat="44.48173" lon="-0.70626">
        <ele>112.298302</ele>
        <time>2022-12-27T14:44:58.748Z</time>
      </trkpt>
      <trkpt lat="44.48175" lon="-0.70608">
        <ele>112.474154</ele>
        <time>2022-12-27T14:45:01.738Z</time>
      </trkpt>
      <trkpt lat="44.48178" lon="-0.70596">
        <ele>112.596772</ele>
        <time>2022-12-27T14:45:03.740Z</time>
      </trkpt>
      <trkpt lat="44.4818" lon="-0.70584">
        <ele>112.719501</ele>
        <time>2022-12-27T14:45:05.749Z</time>
      </trkpt>
      <trkpt lat="44.48183" lon="-0.70566">
        <ele>112.894416</ele>
        <time>2022-12-27T14:45:08.752Z</time>
      </trkpt>
      <trkpt lat="44.48187" lon="-0.70549">
        <ele>113.061712</ele>
        <time>2022-12-27T14:45:11.729Z</time>
      </trkpt>
      <trkpt lat="44.4819" lon="-0.70532">
        <ele>113.234499</ele>
        <time>2022-12-27T14:45:14.746Z</time>
      </trkpt>
      <trkpt lat="44.48193" lon="-0.70514">
        <ele>113.41375</ele>
        <time>2022-12-27T14:45:17.743Z</time>
      </trkpt>
      <trkpt lat="44.48196" lon="-0.70501">
        <ele>113.537918</ele>
        <time>2022-12-27T14:45:19.748Z</time>
      </trkpt>
      <trkpt lat="44.48198" lon="-0.70483">
        <ele>113.719682</ele>
        <time>2022-12-27T14:45:22.728Z</time>
      </trkpt>
      <trkpt lat="44.48202" lon="-0.7047">
        <ele>113.845768</ele>
        <time>2022-12-27T14:45:24.752Z</time>
      </trkpt>
      <trkpt lat="44.48205" lon="-0.70454">
        <ele>114.01263</ele>
        <time>2022-12-27T14:45:27.743Z</time>
      </trkpt>
      <trkpt lat="44.48209" lon="-0.70437">
        <ele>114.178851</ele>
        <time>2022-12-27T14:45:30.753Z</time>
      </trkpt>
      <trkpt lat="44.48213" lon="-0.7042">
        <ele>114.270282</ele>
        <time>2022-12-27T14:45:33.754Z</time>
      </trkpt>
      <trkpt lat="44.48217" lon="-0.70402">
        <ele>114.364969</ele>
        <time>2022-12-27T14:45:36.752Z</time>
      </trkpt>
      <trkpt lat="44.48221" lon="-0.70384">
        <ele>114.457375</ele>
        <time>2022-12-27T14:45:39.749Z</time>
      </trkpt>
      <trkpt lat="44.48224" lon="-0.70369">
        <ele>114.539991</ele>
        <time>2022-12-27T14:45:42.726Z</time>
      </trkpt>
      <trkpt lat="44.48227" lon="-0.70353">
        <ele>114.620302</ele>
        <time>2022-12-27T14:45:45.755Z</time>
      </trkpt>
      <trkpt lat="44.4823" lon="-0.70337">
        <ele>114.703436</ele>
        <time>2022-12-27T14:45:48.750Z</time>
      </trkpt>
      <trkpt lat="44.48232" lon="-0.70321">
        <ele>114.790331</ele>
        <time>2022-12-27T14:45:51.730Z</time>
      </trkpt>
      <trkpt lat="44.48236" lon="-0.70304">
        <ele>114.880863</ele>
        <time>2022-12-27T14:45:54.751Z</time>
      </trkpt>
      <trkpt lat="44.4824" lon="-0.70288">
        <ele>114.964282</ele>
        <time>2022-12-27T14:45:57.749Z</time>
      </trkpt>
      <trkpt lat="44.48243" lon="-0.70271">
        <ele>115.053127</ele>
        <time>2022-12-27T14:46:00.741Z</time>
      </trkpt>
      <trkpt lat="44.48245" lon="-0.70254">
        <ele>115.137711</ele>
        <time>2022-12-27T14:46:03.753Z</time>
      </trkpt>
      <trkpt lat="44.48249" lon="-0.70237">
        <ele>115.229126</ele>
        <time>2022-12-27T14:46:06.731Z</time>
      </trkpt>
      <trkpt lat="44.48252" lon="-0.7022">
        <ele>115.315595</ele>
        <time>2022-12-27T14:46:09.727Z</time>
      </trkpt>
      <trkpt lat="44.48256" lon="-0.70204">
        <ele>115.401794</ele>
        <time>2022-12-27T14:46:12.748Z</time>
      </trkpt>
      <trkpt lat="44.4826" lon="-0.70188">
        <ele>115.492079</ele>
        <time>2022-12-27T14:46:15.750Z</time>
      </trkpt>
      <trkpt lat="44.48264" lon="-0.70171">
        <ele>115.582169</ele>
        <time>2022-12-27T14:46:18.748Z</time>
      </trkpt>
      <trkpt lat="44.48267" lon="-0.70154">
        <ele>115.675972</ele>
        <time>2022-12-27T14:46:21.731Z</time>
      </trkpt>
      <trkpt lat="44.4827" lon="-0.70137">
        <ele>115.768394</ele>
        <time>2022-12-27T14:46:24.726Z</time>
      </trkpt>
      <trkpt lat="44.48273" lon="-0.70121">
        <ele>115.856605</ele>
        <time>2022-12-27T14:46:27.727Z</time>
      </trkpt>
      <trkpt lat="44.48277" lon="-0.70104">
        <ele>115.946306</ele>
        <time>2022-12-27T14:46:30.750Z</time>
      </trkpt>
      <trkpt lat="44.4828" lon="-0.70089">
        <ele>116.031289</ele>
        <time>2022-12-27T14:46:33.748Z</time>
      </trkpt>
      <trkpt lat="44.48284" lon="-0.70073">
        <ele>116.117908</ele>
        <time>2022-12-27T14:46:36.727Z</time>
      </trkpt>
      <trkpt lat="44.48286" lon="-0.70058">
        <ele>116.197281</ele>
        <time>2022-12-27T14:46:39.754Z</time>
      </trkpt>
      <trkpt lat="44.4829" lon="-0.70043">
        <ele>116.282669</ele>
        <time>2022-12-27T14:46:42.748Z</time>
      </trkpt>
      <trkpt lat="44.48294" lon="-0.70026">
        <ele>116.375215</ele>
        <time>2022-12-27T14:46:45.749Z</time>
      </trkpt>
      <trkpt lat="44.48297" lon="-0.70012">
        <ele>116.454328</ele>
        <time>2022-12-27T14:46:48.752Z</time>
      </trkpt>
      <trkpt lat="44.48301" lon="-0.69998">
        <ele>116.5338</ele>
        <time>2022-12-27T14:46:51.738Z</time>
      </trkpt>
      <trkpt lat="44.48304" lon="-0.69981">
        <ele>116.624041</ele>
        <time>2022-12-27T14:46:55.751Z</time>
      </trkpt>
      <trkpt lat="44.48307" lon="-0.69967">
        <ele>116.698215</ele>
        <time>2022-12-27T14:46:58.745Z</time>
      </trkpt>
      <trkpt lat="44.4831" lon="-0.69953">
        <ele>116.781761</ele>
        <time>2022-12-27T14:47:01.753Z</time>
      </trkpt>
      <trkpt lat="44.48313" lon="-0.69938">
        <ele>116.933748</ele>
        <time>2022-12-27T14:47:04.750Z</time>
      </trkpt>
      <trkpt lat="44.48316" lon="-0.69922">
        <ele>117.098241</ele>
        <time>2022-12-27T14:47:07.752Z</time>
      </trkpt>
      <trkpt lat="44.48319" lon="-0.69906">
        <ele>117.26049</ele>
        <time>2022-12-27T14:47:10.759Z</time>
      </trkpt>
      <trkpt lat="44.48323" lon="-0.69891">
        <ele>117.424221</ele>
        <time>2022-12-27T14:47:13.755Z</time>
      </trkpt>
      <trkpt lat="44.48326" lon="-0.69874">
        <ele>117.592301</ele>
        <time>2022-12-27T14:47:16.748Z</time>
      </trkpt>
      <trkpt lat="44.48329" lon="-0.69859">
        <ele>117.74655</ele>
        <time>2022-12-27T14:47:19.749Z</time>
      </trkpt>
      <trkpt lat="44.48332" lon="-0.69846">
        <ele>117.882788</ele>
        <time>2022-12-27T14:47:22.749Z</time>
      </trkpt>
      <trkpt lat="44.48335" lon="-0.69831">
        <ele>118.033473</ele>
        <time>2022-12-27T14:47:25.743Z</time>
      </trkpt>
      <trkpt lat="44.48338" lon="-0.69816">
        <ele>118.19169</ele>
        <time>2022-12-27T14:47:28.755Z</time>
      </trkpt>
      <trkpt lat="44.48341" lon="-0.69799">
        <ele>118.359994</ele>
        <time>2022-12-27T14:47:31.727Z</time>
      </trkpt>
      <trkpt lat="44.48344" lon="-0.69783">
        <ele>118.527125</ele>
        <time>2022-12-27T14:47:34.752Z</time>
      </trkpt>
      <trkpt lat="44.48347" lon="-0.69766">
        <ele>118.696663</ele>
        <time>2022-12-27T14:47:37.753Z</time>
      </trkpt>
      <trkpt lat="44.4835" lon="-0.69749">
        <ele>118.866876</ele>
        <time>2022-12-27T14:47:40.751Z</time>
      </trkpt>
      <trkpt lat="44.48354" lon="-0.69732">
        <ele>119.041977</ele>
        <time>2022-12-27T14:47:43.751Z</time>
      </trkpt>
      <trkpt lat="44.48357" lon="-0.69715">
        <ele>119.221629</ele>
        <time>2022-12-27T14:47:46.755Z</time>
      </trkpt>
      <trkpt lat="44.4836" lon="-0.69697">
        <ele>119.379974</ele>
        <time>2022-12-27T14:47:49.753Z</time>
      </trkpt>
      <trkpt lat="44.48365" lon="-0.6968">
        <ele>119.534667</ele>
        <time>2022-12-27T14:47:52.756Z</time>
      </trkpt>
      <trkpt lat="44.48368" lon="-0.69663">
        <ele>119.68797</ele>
        <time>2022-12-27T14:47:55.753Z</time>
      </trkpt>
      <trkpt lat="44.48371" lon="-0.69645">
        <ele>119.844563</ele>
        <time>2022-12-27T14:47:58.753Z</time>
      </trkpt>
      <trkpt lat="44.48374" lon="-0.69628">
        <ele>119.994887</ele>
        <time>2022-12-27T14:48:01.734Z</time>
      </trkpt>
      <trkpt lat="44.48378" lon="-0.69611">
        <ele>120.140961</ele>
        <time>2022-12-27T14:48:04.748Z</time>
      </trkpt>
      <trkpt lat="44.48381" lon="-0.69594">
        <ele>120.292738</ele>
        <time>2022-12-27T14:48:07.725Z</time>
      </trkpt>
      <trkpt lat="44.48384" lon="-0.69579">
        <ele>120.424116</ele>
        <time>2022-12-27T14:48:10.750Z</time>
      </trkpt>
      <trkpt lat="44.48387" lon="-0.69566">
        <ele>120.542603</ele>
        <time>2022-12-27T14:48:13.749Z</time>
      </trkpt>
      <trkpt lat="44.4839" lon="-0.69552">
        <ele>120.666311</ele>
        <time>2022-12-27T14:48:16.762Z</time>
      </trkpt>
      <trkpt lat="44.48393" lon="-0.69536">
        <ele>120.801278</ele>
        <time>2022-12-27T14:48:19.754Z</time>
      </trkpt>
      <trkpt lat="44.48396" lon="-0.69521">
        <ele>120.936576</ele>
        <time>2022-12-27T14:48:22.750Z</time>
      </trkpt>
      <trkpt lat="44.48399" lon="-0.69506">
        <ele>121.072041</ele>
        <time>2022-12-27T14:48:25.751Z</time>
      </trkpt>
      <trkpt lat="44.48403" lon="-0.69491">
        <ele>121.202003</ele>
        <time>2022-12-27T14:48:28.754Z</time>
      </trkpt>
      <trkpt lat="44.48406" lon="-0.69477">
        <ele>121.323966</ele>
        <time>2022-12-27T14:48:31.733Z</time>
      </trkpt>
      <trkpt lat="44.48408" lon="-0.69462">
        <ele>121.402323</ele>
        <time>2022-12-27T14:48:34.755Z</time>
      </trkpt>
      <trkpt lat="44.48411" lon="-0.69446">
        <ele>121.415001</ele>
        <time>2022-12-27T14:48:37.750Z</time>
      </trkpt>
      <trkpt lat="44.48414" lon="-0.69431">
        <ele>121.427384</ele>
        <time>2022-12-27T14:48:40.755Z</time>
      </trkpt>
      <trkpt lat="44.48418" lon="-0.69414">
        <ele>121.440889</ele>
        <time>2022-12-27T14:48:43.725Z</time>
      </trkpt>
      <trkpt lat="44.48421" lon="-0.69396">
        <ele>121.455043</ele>
        <time>2022-12-27T14:48:46.751Z</time>
      </trkpt>
      <trkpt lat="44.48425" lon="-0.6938">
        <ele>121.468091</ele>
        <time>2022-12-27T14:48:49.740Z</time>
      </trkpt>
      <trkpt lat="44.48428" lon="-0.69365">
        <ele>121.480023</ele>
        <time>2022-12-27T14:48:52.752Z</time>
      </trkpt>
      <trkpt lat="44.48431" lon="-0.69349">
        <ele>121.492793</ele>
        <time>2022-12-27T14:48:55.751Z</time>
      </trkpt>
      <trkpt lat="44.48434" lon="-0.69332">
        <ele>121.506003</ele>
        <time>2022-12-27T14:48:58.751Z</time>
      </trkpt>
      <trkpt lat="44.48439" lon="-0.69315">
        <ele>121.519629</ele>
        <time>2022-12-27T14:49:01.749Z</time>
      </trkpt>
      <trkpt lat="44.48442" lon="-0.69298">
        <ele>121.533392</ele>
        <time>2022-12-27T14:49:04.749Z</time>
      </trkpt>
      <trkpt lat="44.48445" lon="-0.69281">
        <ele>121.547163</ele>
        <time>2022-12-27T14:49:07.763Z</time>
      </trkpt>
      <trkpt lat="44.48449" lon="-0.69263">
        <ele>121.561184</ele>
        <time>2022-12-27T14:49:10.752Z</time>
      </trkpt>
      <trkpt lat="44.48452" lon="-0.69246">
        <ele>121.575029</ele>
        <time>2022-12-27T14:49:13.751Z</time>
      </trkpt>
      <trkpt lat="44.48456" lon="-0.6923">
        <ele>121.588083</ele>
        <time>2022-12-27T14:49:16.754Z</time>
      </trkpt>
      <trkpt lat="44.48459" lon="-0.69213">
        <ele>121.655159</ele>
        <time>2022-12-27T14:49:19.750Z</time>
      </trkpt>
      <trkpt lat="44.48463" lon="-0.69195">
        <ele>121.738656</ele>
        <time>2022-12-27T14:49:22.751Z</time>
      </trkpt>
      <trkpt lat="44.48466" lon="-0.69183">
        <ele>121.796528</ele>
        <time>2022-12-27T14:49:24.752Z</time>
      </trkpt>
      <trkpt lat="44.48468" lon="-0.6917">
        <ele>121.856654</ele>
        <time>2022-12-27T14:49:26.750Z</time>
      </trkpt>
      <trkpt lat="44.48471" lon="-0.69157">
        <ele>121.919739</ele>
        <time>2022-12-27T14:49:28.749Z</time>
      </trkpt>
      <trkpt lat="44.48474" lon="-0.69144">
        <ele>121.981017</ele>
        <time>2022-12-27T14:49:30.729Z</time>
      </trkpt>
      <trkpt lat="44.48477" lon="-0.69131">
        <ele>122.042489</ele>
        <time>2022-12-27T14:49:32.733Z</time>
      </trkpt>
      <trkpt lat="44.48479" lon="-0.69118">
        <ele>122.104365</ele>
        <time>2022-12-27T14:49:34.742Z</time>
      </trkpt>
      <trkpt lat="44.48482" lon="-0.69105">
        <ele>122.165273</ele>
        <time>2022-12-27T14:49:36.752Z</time>
      </trkpt>
      <trkpt lat="44.48486" lon="-0.69086">
        <ele>122.252152</ele>
        <time>2022-12-27T14:49:39.735Z</time>
      </trkpt>
      <trkpt lat="44.48488" lon="-0.69074">
        <ele>122.312625</ele>
        <time>2022-12-27T14:49:41.723Z</time>
      </trkpt>
      <trkpt lat="44.48491" lon="-0.6906">
        <ele>122.375816</ele>
        <time>2022-12-27T14:49:43.753Z</time>
      </trkpt>
      <trkpt lat="44.48493" lon="-0.69047">
        <ele>122.43797</ele>
        <time>2022-12-27T14:49:45.750Z</time>
      </trkpt>
      <trkpt lat="44.48496" lon="-0.69033">
        <ele>122.50228</ele>
        <time>2022-12-27T14:49:47.733Z</time>
      </trkpt>
      <trkpt lat="44.48499" lon="-0.6902">
        <ele>122.563126</ele>
        <time>2022-12-27T14:49:49.748Z</time>
      </trkpt>
      <trkpt lat="44.48501" lon="-0.69007">
        <ele>122.624688</ele>
        <time>2022-12-27T14:49:51.731Z</time>
      </trkpt>
      <trkpt lat="44.48503" lon="-0.68994">
        <ele>122.685697</ele>
        <time>2022-12-27T14:49:53.754Z</time>
      </trkpt>
      <trkpt lat="44.48507" lon="-0.68976">
        <ele>122.807385</ele>
        <time>2022-12-27T14:49:56.750Z</time>
      </trkpt>
      <trkpt lat="44.4851" lon="-0.68964">
        <ele>122.915452</ele>
        <time>2022-12-27T14:49:58.755Z</time>
      </trkpt>
      <trkpt lat="44.48512" lon="-0.6895">
        <ele>123.033811</ele>
        <time>2022-12-27T14:50:00.725Z</time>
      </trkpt>
      <trkpt lat="44.48514" lon="-0.68937">
        <ele>123.152915</ele>
        <time>2022-12-27T14:50:02.756Z</time>
      </trkpt>
      <trkpt lat="44.48517" lon="-0.68923">
        <ele>123.272549</ele>
        <time>2022-12-27T14:50:04.753Z</time>
      </trkpt>
      <trkpt lat="44.48519" lon="-0.68909">
        <ele>123.393581</ele>
        <time>2022-12-27T14:50:06.801Z</time>
      </trkpt>
      <trkpt lat="44.48521" lon="-0.68896">
        <ele>123.513498</ele>
        <time>2022-12-27T14:50:08.753Z</time>
      </trkpt>
      <trkpt lat="44.48524" lon="-0.68883">
        <ele>123.629264</ele>
        <time>2022-12-27T14:50:10.742Z</time>
      </trkpt>
      <trkpt lat="44.48526" lon="-0.68869">
        <ele>123.753715</ele>
        <time>2022-12-27T14:50:12.751Z</time>
      </trkpt>
      <trkpt lat="44.48529" lon="-0.68855">
        <ele>123.873229</ele>
        <time>2022-12-27T14:50:14.753Z</time>
      </trkpt>
      <trkpt lat="44.48533" lon="-0.68841">
        <ele>124.003468</ele>
        <time>2022-12-27T14:50:16.752Z</time>
      </trkpt>
      <trkpt lat="44.48536" lon="-0.68827">
        <ele>124.132564</ele>
        <time>2022-12-27T14:50:18.756Z</time>
      </trkpt>
      <trkpt lat="44.48539" lon="-0.68812">
        <ele>124.26108</ele>
        <time>2022-12-27T14:50:20.745Z</time>
      </trkpt>
      <trkpt lat="44.48542" lon="-0.68798">
        <ele>124.387653</ele>
        <time>2022-12-27T14:50:22.751Z</time>
      </trkpt>
      <trkpt lat="44.48545" lon="-0.68784">
        <ele>124.511785</ele>
        <time>2022-12-27T14:50:24.742Z</time>
      </trkpt>
      <trkpt lat="44.48549" lon="-0.6877">
        <ele>124.637559</ele>
        <time>2022-12-27T14:50:26.749Z</time>
      </trkpt>
      <trkpt lat="44.48552" lon="-0.68755">
        <ele>124.769464</ele>
        <time>2022-12-27T14:50:28.753Z</time>
      </trkpt>
      <trkpt lat="44.48555" lon="-0.68742">
        <ele>124.888646</ele>
        <time>2022-12-27T14:50:30.753Z</time>
      </trkpt>
      <trkpt lat="44.48557" lon="-0.68729">
        <ele>124.874925</ele>
        <time>2022-12-27T14:50:32.748Z</time>
      </trkpt>
      <trkpt lat="44.48561" lon="-0.68717">
        <ele>124.859601</ele>
        <time>2022-12-27T14:50:34.723Z</time>
      </trkpt>
      <trkpt lat="44.48565" lon="-0.68699">
        <ele>124.837345</ele>
        <time>2022-12-27T14:50:37.749Z</time>
      </trkpt>
      <trkpt lat="44.48568" lon="-0.68686">
        <ele>124.82141</ele>
        <time>2022-12-27T14:50:39.751Z</time>
      </trkpt>
      <trkpt lat="44.48569" lon="-0.68672">
        <ele>124.80554</ele>
        <time>2022-12-27T14:50:41.731Z</time>
      </trkpt>
      <trkpt lat="44.48572" lon="-0.68659">
        <ele>124.78896</ele>
        <time>2022-12-27T14:50:43.736Z</time>
      </trkpt>
      <trkpt lat="44.48575" lon="-0.68645">
        <ele>124.771693</ele>
        <time>2022-12-27T14:50:45.733Z</time>
      </trkpt>
      <trkpt lat="44.48578" lon="-0.68631">
        <ele>124.754475</ele>
        <time>2022-12-27T14:50:47.752Z</time>
      </trkpt>
      <trkpt lat="44.48581" lon="-0.68616">
        <ele>124.736855</ele>
        <time>2022-12-27T14:50:49.749Z</time>
      </trkpt>
      <trkpt lat="44.48583" lon="-0.68602">
        <ele>124.719709</ele>
        <time>2022-12-27T14:50:51.751Z</time>
      </trkpt>
      <trkpt lat="44.48587" lon="-0.68588">
        <ele>124.702042</ele>
        <time>2022-12-27T14:50:53.753Z</time>
      </trkpt>
      <trkpt lat="44.48589" lon="-0.68573">
        <ele>124.684674</ele>
        <time>2022-12-27T14:50:55.753Z</time>
      </trkpt>
      <trkpt lat="44.48592" lon="-0.68559">
        <ele>124.66771</ele>
        <time>2022-12-27T14:50:57.730Z</time>
      </trkpt>
      <trkpt lat="44.48595" lon="-0.68546">
        <ele>124.651338</ele>
        <time>2022-12-27T14:50:59.748Z</time>
      </trkpt>
      <trkpt lat="44.48598" lon="-0.68533">
        <ele>124.635411</ele>
        <time>2022-12-27T14:51:01.733Z</time>
      </trkpt>
      <trkpt lat="44.486" lon="-0.68521">
        <ele>124.620135</ele>
        <time>2022-12-27T14:51:03.740Z</time>
      </trkpt>
      <trkpt lat="44.48603" lon="-0.68503">
        <ele>124.598956</ele>
        <time>2022-12-27T14:51:06.732Z</time>
      </trkpt>
      <trkpt lat="44.48607" lon="-0.68485">
        <ele>124.554074</ele>
        <time>2022-12-27T14:51:09.723Z</time>
      </trkpt>
      <trkpt lat="44.4861" lon="-0.68472">
        <ele>124.516929</ele>
        <time>2022-12-27T14:51:11.726Z</time>
      </trkpt>
      <trkpt lat="44.48612" lon="-0.68459">
        <ele>124.479658</ele>
        <time>2022-12-27T14:51:13.719Z</time>
      </trkpt>
      <trkpt lat="44.48615" lon="-0.68446">
        <ele>124.442326</ele>
        <time>2022-12-27T14:51:15.725Z</time>
      </trkpt>
      <trkpt lat="44.48617" lon="-0.68433">
        <ele>124.40542</ele>
        <time>2022-12-27T14:51:17.730Z</time>
      </trkpt>
      <trkpt lat="44.48621" lon="-0.68418">
        <ele>124.364223</ele>
        <time>2022-12-27T14:51:19.726Z</time>
      </trkpt>
      <trkpt lat="44.48623" lon="-0.68404">
        <ele>124.32502</ele>
        <time>2022-12-27T14:51:21.746Z</time>
      </trkpt>
      <trkpt lat="44.48626" lon="-0.6839">
        <ele>124.283782</ele>
        <time>2022-12-27T14:51:23.752Z</time>
      </trkpt>
      <trkpt lat="44.48629" lon="-0.68375">
        <ele>124.242675</ele>
        <time>2022-12-27T14:51:25.732Z</time>
      </trkpt>
      <trkpt lat="44.48632" lon="-0.68361">
        <ele>124.203887</ele>
        <time>2022-12-27T14:51:27.737Z</time>
      </trkpt>
      <trkpt lat="44.48635" lon="-0.68347">
        <ele>124.164319</ele>
        <time>2022-12-27T14:51:29.749Z</time>
      </trkpt>
      <trkpt lat="44.48638" lon="-0.68335">
        <ele>124.128143</ele>
        <time>2022-12-27T14:51:31.731Z</time>
      </trkpt>
      <trkpt lat="44.48641" lon="-0.68322">
        <ele>124.092694</ele>
        <time>2022-12-27T14:51:33.753Z</time>
      </trkpt>
      <trkpt lat="44.48645" lon="-0.68305">
        <ele>124.042784</ele>
        <time>2022-12-27T14:51:36.728Z</time>
      </trkpt>
      <trkpt lat="44.48648" lon="-0.68286">
        <ele>123.991644</ele>
        <time>2022-12-27T14:51:39.737Z</time>
      </trkpt>
      <trkpt lat="44.4865" lon="-0.68274">
        <ele>123.956195</ele>
        <time>2022-12-27T14:51:41.724Z</time>
      </trkpt>
      <trkpt lat="44.48653" lon="-0.68262">
        <ele>123.92117</ele>
        <time>2022-12-27T14:51:43.752Z</time>
      </trkpt>
      <trkpt lat="44.48656" lon="-0.68249">
        <ele>123.889638</ele>
        <time>2022-12-27T14:51:45.733Z</time>
      </trkpt>
      <trkpt lat="44.48659" lon="-0.68236">
        <ele>123.860347</ele>
        <time>2022-12-27T14:51:47.740Z</time>
      </trkpt>
      <trkpt lat="44.48662" lon="-0.68222">
        <ele>123.829316</ele>
        <time>2022-12-27T14:51:49.748Z</time>
      </trkpt>
      <trkpt lat="44.48664" lon="-0.68208">
        <ele>123.798395</ele>
        <time>2022-12-27T14:51:51.730Z</time>
      </trkpt>
      <trkpt lat="44.48667" lon="-0.68194">
        <ele>123.767945</ele>
        <time>2022-12-27T14:51:53.748Z</time>
      </trkpt>
      <trkpt lat="44.48669" lon="-0.68181">
        <ele>123.737935</ele>
        <time>2022-12-27T14:51:55.752Z</time>
      </trkpt>
      <trkpt lat="44.48672" lon="-0.68166">
        <ele>123.70483</ele>
        <time>2022-12-27T14:51:57.742Z</time>
      </trkpt>
      <trkpt lat="44.48675" lon="-0.68152">
        <ele>123.674611</ele>
        <time>2022-12-27T14:51:59.756Z</time>
      </trkpt>
      <trkpt lat="44.48677" lon="-0.68138">
        <ele>123.643746</ele>
        <time>2022-12-27T14:52:01.736Z</time>
      </trkpt>
      <trkpt lat="44.4868" lon="-0.68125">
        <ele>123.614209</ele>
        <time>2022-12-27T14:52:03.751Z</time>
      </trkpt>
      <trkpt lat="44.48684" lon="-0.68108">
        <ele>123.57528</ele>
        <time>2022-12-27T14:52:06.731Z</time>
      </trkpt>
      <trkpt lat="44.48686" lon="-0.68096">
        <ele>123.547486</ele>
        <time>2022-12-27T14:52:08.752Z</time>
      </trkpt>
      <trkpt lat="44.48688" lon="-0.68083">
        <ele>123.520192</ele>
        <time>2022-12-27T14:52:10.751Z</time>
      </trkpt>
      <trkpt lat="44.4869" lon="-0.6807">
        <ele>123.491862</ele>
        <time>2022-12-27T14:52:12.758Z</time>
      </trkpt>
      <trkpt lat="44.48693" lon="-0.68057">
        <ele>123.462092</ele>
        <time>2022-12-27T14:52:14.756Z</time>
      </trkpt>
      <trkpt lat="44.48696" lon="-0.68044">
        <ele>123.431434</ele>
        <time>2022-12-27T14:52:16.754Z</time>
      </trkpt>
      <trkpt lat="44.487" lon="-0.6803">
        <ele>123.399434</ele>
        <time>2022-12-27T14:52:18.753Z</time>
      </trkpt>
      <trkpt lat="44.48702" lon="-0.68016">
        <ele>123.368091</ele>
        <time>2022-12-27T14:52:20.731Z</time>
      </trkpt>
      <trkpt lat="44.48705" lon="-0.68001">
        <ele>123.341757</ele>
        <time>2022-12-27T14:52:22.755Z</time>
      </trkpt>
      <trkpt lat="44.48708" lon="-0.67987">
        <ele>123.316763</ele>
        <time>2022-12-27T14:52:24.753Z</time>
      </trkpt>
      <trkpt lat="44.48711" lon="-0.67973">
        <ele>123.291341</ele>
        <time>2022-12-27T14:52:26.745Z</time>
      </trkpt>
      <trkpt lat="44.48714" lon="-0.67961">
        <ele>123.269191</ele>
        <time>2022-12-27T14:52:28.737Z</time>
      </trkpt>
      <trkpt lat="44.48717" lon="-0.67943">
        <ele>123.237784</ele>
        <time>2022-12-27T14:52:31.736Z</time>
      </trkpt>
      <trkpt lat="44.48721" lon="-0.67925">
        <ele>123.205484</ele>
        <time>2022-12-27T14:52:34.750Z</time>
      </trkpt>
      <trkpt lat="44.48723" lon="-0.67912">
        <ele>123.182505</ele>
        <time>2022-12-27T14:52:36.750Z</time>
      </trkpt>
      <trkpt lat="44.48726" lon="-0.67899">
        <ele>123.159628</ele>
        <time>2022-12-27T14:52:38.735Z</time>
      </trkpt>
      <trkpt lat="44.48729" lon="-0.67886">
        <ele>123.135923</ele>
        <time>2022-12-27T14:52:40.759Z</time>
      </trkpt>
      <trkpt lat="44.48731" lon="-0.67873">
        <ele>123.111756</ele>
        <time>2022-12-27T14:52:42.750Z</time>
      </trkpt>
      <trkpt lat="44.48734" lon="-0.67859">
        <ele>123.087387</ele>
        <time>2022-12-27T14:52:44.755Z</time>
      </trkpt>
      <trkpt lat="44.48737" lon="-0.67845">
        <ele>123.063286</ele>
        <time>2022-12-27T14:52:46.753Z</time>
      </trkpt>
      <trkpt lat="44.48739" lon="-0.67831">
        <ele>123.038644</ele>
        <time>2022-12-27T14:52:48.748Z</time>
      </trkpt>
      <trkpt lat="44.48742" lon="-0.67817">
        <ele>123.01368</ele>
        <time>2022-12-27T14:52:50.752Z</time>
      </trkpt>
      <trkpt lat="44.48745" lon="-0.67803">
        <ele>122.988621</ele>
        <time>2022-12-27T14:52:52.745Z</time>
      </trkpt>
      <trkpt lat="44.48748" lon="-0.6779">
        <ele>122.963514</ele>
        <time>2022-12-27T14:52:54.750Z</time>
      </trkpt>
      <trkpt lat="44.48751" lon="-0.67775">
        <ele>122.937658</ele>
        <time>2022-12-27T14:52:56.753Z</time>
      </trkpt>
      <trkpt lat="44.48754" lon="-0.67761">
        <ele>122.969019</ele>
        <time>2022-12-27T14:52:58.748Z</time>
      </trkpt>
      <trkpt lat="44.48757" lon="-0.67747">
        <ele>123.01617</ele>
        <time>2022-12-27T14:53:00.739Z</time>
      </trkpt>
      <trkpt lat="44.48759" lon="-0.67733">
        <ele>123.060638</ele>
        <time>2022-12-27T14:53:02.736Z</time>
      </trkpt>
      <trkpt lat="44.48762" lon="-0.67719">
        <ele>123.104875</ele>
        <time>2022-12-27T14:53:04.753Z</time>
      </trkpt>
      <trkpt lat="44.48765" lon="-0.67704">
        <ele>123.150822</ele>
        <time>2022-12-27T14:53:06.755Z</time>
      </trkpt>
      <trkpt lat="44.48767" lon="-0.67691">
        <ele>123.192739</ele>
        <time>2022-12-27T14:53:08.754Z</time>
      </trkpt>
      <trkpt lat="44.4877" lon="-0.67679">
        <ele>123.232463</ele>
        <time>2022-12-27T14:53:10.746Z</time>
      </trkpt>
      <trkpt lat="44.48773" lon="-0.67667">
        <ele>123.272833</ele>
        <time>2022-12-27T14:53:12.754Z</time>
      </trkpt>
      <trkpt lat="44.48775" lon="-0.67654">
        <ele>123.313685</ele>
        <time>2022-12-27T14:53:14.757Z</time>
      </trkpt>
      <trkpt lat="44.48778" lon="-0.6764">
        <ele>123.357147</ele>
        <time>2022-12-27T14:53:16.755Z</time>
      </trkpt>
      <trkpt lat="44.48781" lon="-0.67627">
        <ele>123.400613</ele>
        <time>2022-12-27T14:53:18.741Z</time>
      </trkpt>
      <trkpt lat="44.48783" lon="-0.67613">
        <ele>123.445461</ele>
        <time>2022-12-27T14:53:20.748Z</time>
      </trkpt>
      <trkpt lat="44.48786" lon="-0.67599">
        <ele>123.491054</ele>
        <time>2022-12-27T14:53:22.741Z</time>
      </trkpt>
      <trkpt lat="44.48789" lon="-0.67584">
        <ele>123.536529</ele>
        <time>2022-12-27T14:53:24.749Z</time>
      </trkpt>
      <trkpt lat="44.48792" lon="-0.6757">
        <ele>123.583428</ele>
        <time>2022-12-27T14:53:26.732Z</time>
      </trkpt>
      <trkpt lat="44.48796" lon="-0.67555">
        <ele>123.632437</ele>
        <time>2022-12-27T14:53:28.753Z</time>
      </trkpt>
      <trkpt lat="44.48799" lon="-0.6754">
        <ele>123.679336</ele>
        <time>2022-12-27T14:53:30.753Z</time>
      </trkpt>
      <trkpt lat="44.48802" lon="-0.67526">
        <ele>123.705691</ele>
        <time>2022-12-27T14:53:32.752Z</time>
      </trkpt>
      <trkpt lat="44.48805" lon="-0.67511">
        <ele>123.6881</ele>
        <time>2022-12-27T14:53:34.726Z</time>
      </trkpt>
      <trkpt lat="44.48807" lon="-0.67498">
        <ele>123.671125</ele>
        <time>2022-12-27T14:53:36.728Z</time>
      </trkpt>
      <trkpt lat="44.4881" lon="-0.67485">
        <ele>123.655345</ele>
        <time>2022-12-27T14:53:38.757Z</time>
      </trkpt>
      <trkpt lat="44.48813" lon="-0.67473">
        <ele>123.639983</ele>
        <time>2022-12-27T14:53:40.751Z</time>
      </trkpt>
      <trkpt lat="44.48815" lon="-0.67455">
        <ele>123.618938</ele>
        <time>2022-12-27T14:53:43.739Z</time>
      </trkpt>
      <trkpt lat="44.48819" lon="-0.67437">
        <ele>123.596604</ele>
        <time>2022-12-27T14:53:46.762Z</time>
      </trkpt>
      <trkpt lat="44.48822" lon="-0.67425">
        <ele>123.581046</ele>
        <time>2022-12-27T14:53:48.755Z</time>
      </trkpt>
      <trkpt lat="44.48824" lon="-0.67412">
        <ele>123.565224</ele>
        <time>2022-12-27T14:53:50.753Z</time>
      </trkpt>
      <trkpt lat="44.48827" lon="-0.67399">
        <ele>123.548691</ele>
        <time>2022-12-27T14:53:52.751Z</time>
      </trkpt>
      <trkpt lat="44.4883" lon="-0.67386">
        <ele>123.532287</ele>
        <time>2022-12-27T14:53:54.748Z</time>
      </trkpt>
      <trkpt lat="44.48833" lon="-0.67372">
        <ele>123.515342</ele>
        <time>2022-12-27T14:53:56.750Z</time>
      </trkpt>
      <trkpt lat="44.48835" lon="-0.67358">
        <ele>123.497748</ele>
        <time>2022-12-27T14:53:58.752Z</time>
      </trkpt>
      <trkpt lat="44.48838" lon="-0.67343">
        <ele>123.48019</ele>
        <time>2022-12-27T14:54:00.751Z</time>
      </trkpt>
      <trkpt lat="44.4884" lon="-0.67329">
        <ele>123.462596</ele>
        <time>2022-12-27T14:54:02.729Z</time>
      </trkpt>
      <trkpt lat="44.48843" lon="-0.67315">
        <ele>123.444729</ele>
        <time>2022-12-27T14:54:04.753Z</time>
      </trkpt>
      <trkpt lat="44.48847" lon="-0.67301">
        <ele>123.426871</ele>
        <time>2022-12-27T14:54:06.754Z</time>
      </trkpt>
      <trkpt lat="44.4885" lon="-0.67287">
        <ele>123.408191</ele>
        <time>2022-12-27T14:54:08.730Z</time>
      </trkpt>
      <trkpt lat="44.48852" lon="-0.67273">
        <ele>123.366254</ele>
        <time>2022-12-27T14:54:10.753Z</time>
      </trkpt>
      <trkpt lat="44.48855" lon="-0.67259">
        <ele>123.323373</ele>
        <time>2022-12-27T14:54:12.749Z</time>
      </trkpt>
      <trkpt lat="44.48858" lon="-0.67245">
        <ele>123.281432</ele>
        <time>2022-12-27T14:54:14.750Z</time>
      </trkpt>
      <trkpt lat="44.48861" lon="-0.67231">
        <ele>123.239092</ele>
        <time>2022-12-27T14:54:16.757Z</time>
      </trkpt>
      <trkpt lat="44.48864" lon="-0.67217">
        <ele>123.196412</ele>
        <time>2022-12-27T14:54:18.747Z</time>
      </trkpt>
      <trkpt lat="44.48867" lon="-0.67202">
        <ele>123.153243</ele>
        <time>2022-12-27T14:54:20.750Z</time>
      </trkpt>
      <trkpt lat="44.4887" lon="-0.67189">
        <ele>123.111867</ele>
        <time>2022-12-27T14:54:22.751Z</time>
      </trkpt>
      <trkpt lat="44.48872" lon="-0.67174">
        <ele>123.068905</ele>
        <time>2022-12-27T14:54:24.753Z</time>
      </trkpt>
      <trkpt lat="44.48875" lon="-0.6716">
        <ele>123.025918</ele>
        <time>2022-12-27T14:54:26.753Z</time>
      </trkpt>
      <trkpt lat="44.48878" lon="-0.67146">
        <ele>122.984652</ele>
        <time>2022-12-27T14:54:28.741Z</time>
      </trkpt>
      <trkpt lat="44.4888" lon="-0.67132">
        <ele>122.942996</ele>
        <time>2022-12-27T14:54:30.746Z</time>
      </trkpt>
      <trkpt lat="44.48883" lon="-0.67119">
        <ele>122.90256</ele>
        <time>2022-12-27T14:54:32.750Z</time>
      </trkpt>
      <trkpt lat="44.48886" lon="-0.67106">
        <ele>122.8624</ele>
        <time>2022-12-27T14:54:34.754Z</time>
      </trkpt>
      <trkpt lat="44.4889" lon="-0.67088">
        <ele>122.809881</ele>
        <time>2022-12-27T14:54:37.747Z</time>
      </trkpt>
      <trkpt lat="44.48893" lon="-0.67071">
        <ele>122.758173</ele>
        <time>2022-12-27T14:54:40.752Z</time>
      </trkpt>
      <trkpt lat="44.48896" lon="-0.67059">
        <ele>122.720985</ele>
        <time>2022-12-27T14:54:42.753Z</time>
      </trkpt>
      <trkpt lat="44.48898" lon="-0.67047">
        <ele>122.683797</ele>
        <time>2022-12-27T14:54:44.746Z</time>
      </trkpt>
      <trkpt lat="44.48901" lon="-0.67034">
        <ele>122.665528</ele>
        <time>2022-12-27T14:54:46.744Z</time>
      </trkpt>
      <trkpt lat="44.48903" lon="-0.6702">
        <ele>122.648466</ele>
        <time>2022-12-27T14:54:48.747Z</time>
      </trkpt>
      <trkpt lat="44.48906" lon="-0.67006">
        <ele>122.631009</ele>
        <time>2022-12-27T14:54:50.747Z</time>
      </trkpt>
      <trkpt lat="44.48909" lon="-0.66993">
        <ele>122.613881</ele>
        <time>2022-12-27T14:54:52.748Z</time>
      </trkpt>
      <trkpt lat="44.48912" lon="-0.66979">
        <ele>122.596188</ele>
        <time>2022-12-27T14:54:54.751Z</time>
      </trkpt>
      <trkpt lat="44.48915" lon="-0.66965">
        <ele>122.578506</ele>
        <time>2022-12-27T14:54:56.730Z</time>
      </trkpt>
      <trkpt lat="44.48918" lon="-0.6695">
        <ele>122.559871</ele>
        <time>2022-12-27T14:54:58.751Z</time>
      </trkpt>
      <trkpt lat="44.4892" lon="-0.66935">
        <ele>122.540999</ele>
        <time>2022-12-27T14:55:00.741Z</time>
      </trkpt>
      <trkpt lat="44.48923" lon="-0.6692">
        <ele>122.522144</ele>
        <time>2022-12-27T14:55:02.752Z</time>
      </trkpt>
      <trkpt lat="44.48927" lon="-0.66906">
        <ele>122.504567</ele>
        <time>2022-12-27T14:55:04.758Z</time>
      </trkpt>
      <trkpt lat="44.48929" lon="-0.66894">
        <ele>122.488235</ele>
        <time>2022-12-27T14:55:06.755Z</time>
      </trkpt>
      <trkpt lat="44.48932" lon="-0.66881">
        <ele>122.472391</ele>
        <time>2022-12-27T14:55:08.752Z</time>
      </trkpt>
      <trkpt lat="44.48935" lon="-0.66862">
        <ele>122.449022</ele>
        <time>2022-12-27T14:55:11.753Z</time>
      </trkpt>
      <trkpt lat="44.48938" lon="-0.6685">
        <ele>122.433053</ele>
        <time>2022-12-27T14:55:13.754Z</time>
      </trkpt>
      <trkpt lat="44.48941" lon="-0.66836">
        <ele>122.41602</ele>
        <time>2022-12-27T14:55:15.725Z</time>
      </trkpt>
      <trkpt lat="44.48944" lon="-0.66823">
        <ele>122.399022</ele>
        <time>2022-12-27T14:55:17.731Z</time>
      </trkpt>
      <trkpt lat="44.48947" lon="-0.6681">
        <ele>122.38234</ele>
        <time>2022-12-27T14:55:19.750Z</time>
      </trkpt>
      <trkpt lat="44.48949" lon="-0.66797">
        <ele>122.390054</ele>
        <time>2022-12-27T14:55:21.751Z</time>
      </trkpt>
      <trkpt lat="44.48952" lon="-0.66783">
        <ele>122.426361</ele>
        <time>2022-12-27T14:55:23.750Z</time>
      </trkpt>
      <trkpt lat="44.48955" lon="-0.66769">
        <ele>122.46307</ele>
        <time>2022-12-27T14:55:25.740Z</time>
      </trkpt>
      <trkpt lat="44.48958" lon="-0.66754">
        <ele>122.502129</ele>
        <time>2022-12-27T14:55:27.732Z</time>
      </trkpt>
      <trkpt lat="44.48961" lon="-0.6674">
        <ele>122.54002</ele>
        <time>2022-12-27T14:55:29.747Z</time>
      </trkpt>
      <trkpt lat="44.48964" lon="-0.66725">
        <ele>122.580057</ele>
        <time>2022-12-27T14:55:31.748Z</time>
      </trkpt>
      <trkpt lat="44.48967" lon="-0.6671">
        <ele>122.62015</ele>
        <time>2022-12-27T14:55:33.748Z</time>
      </trkpt>
      <trkpt lat="44.4897" lon="-0.66695">
        <ele>122.658092</ele>
        <time>2022-12-27T14:55:35.755Z</time>
      </trkpt>
      <trkpt lat="44.48973" lon="-0.66681">
        <ele>122.696048</ele>
        <time>2022-12-27T14:55:37.757Z</time>
      </trkpt>
      <trkpt lat="44.48976" lon="-0.66665">
        <ele>122.73682</ele>
        <time>2022-12-27T14:55:39.749Z</time>
      </trkpt>
      <trkpt lat="44.48979" lon="-0.66651">
        <ele>122.775109</ele>
        <time>2022-12-27T14:55:41.751Z</time>
      </trkpt>
      <trkpt lat="44.48982" lon="-0.66637">
        <ele>122.812219</ele>
        <time>2022-12-27T14:55:43.735Z</time>
      </trkpt>
      <trkpt lat="44.48985" lon="-0.66622">
        <ele>122.8511</ele>
        <time>2022-12-27T14:55:45.730Z</time>
      </trkpt>
      <trkpt lat="44.48988" lon="-0.66608">
        <ele>122.888453</ele>
        <time>2022-12-27T14:55:47.757Z</time>
      </trkpt>
      <trkpt lat="44.48992" lon="-0.66594">
        <ele>122.927442</ele>
        <time>2022-12-27T14:55:49.733Z</time>
      </trkpt>
      <trkpt lat="44.48995" lon="-0.66579">
        <ele>122.964796</ele>
        <time>2022-12-27T14:55:51.739Z</time>
      </trkpt>
      <trkpt lat="44.48997" lon="-0.66565">
        <ele>123.003079</ele>
        <time>2022-12-27T14:55:53.754Z</time>
      </trkpt>
      <trkpt lat="44.49" lon="-0.6655">
        <ele>123.025263</ele>
        <time>2022-12-27T14:55:55.752Z</time>
      </trkpt>
      <trkpt lat="44.49002" lon="-0.66535">
        <ele>123.040216</ele>
        <time>2022-12-27T14:55:57.750Z</time>
      </trkpt>
      <trkpt lat="44.49005" lon="-0.66521">
        <ele>123.055335</ele>
        <time>2022-12-27T14:55:59.734Z</time>
      </trkpt>
      <trkpt lat="44.49008" lon="-0.66508">
        <ele>123.069074</ele>
        <time>2022-12-27T14:56:01.748Z</time>
      </trkpt>
      <trkpt lat="44.49011" lon="-0.66496">
        <ele>123.082093</ele>
        <time>2022-12-27T14:56:03.742Z</time>
      </trkpt>
      <trkpt lat="44.49014" lon="-0.66484">
        <ele>123.095003</ele>
        <time>2022-12-27T14:56:05.759Z</time>
      </trkpt>
      <trkpt lat="44.49017" lon="-0.66466">
        <ele>123.114112</ele>
        <time>2022-12-27T14:56:08.755Z</time>
      </trkpt>
      <trkpt lat="44.49021" lon="-0.66448">
        <ele>123.132985</ele>
        <time>2022-12-27T14:56:11.751Z</time>
      </trkpt>
      <trkpt lat="44.49023" lon="-0.66435">
        <ele>123.146681</ele>
        <time>2022-12-27T14:56:13.750Z</time>
      </trkpt>
      <trkpt lat="44.49026" lon="-0.66422">
        <ele>123.160416</ele>
        <time>2022-12-27T14:56:15.733Z</time>
      </trkpt>
      <trkpt lat="44.49028" lon="-0.66409">
        <ele>123.174561</ele>
        <time>2022-12-27T14:56:17.749Z</time>
      </trkpt>
      <trkpt lat="44.49031" lon="-0.66396">
        <ele>123.188432</ele>
        <time>2022-12-27T14:56:19.753Z</time>
      </trkpt>
      <trkpt lat="44.49034" lon="-0.66382">
        <ele>123.203226</ele>
        <time>2022-12-27T14:56:21.752Z</time>
      </trkpt>
      <trkpt lat="44.49036" lon="-0.66368">
        <ele>123.21785</ele>
        <time>2022-12-27T14:56:23.745Z</time>
      </trkpt>
      <trkpt lat="44.49039" lon="-0.66354">
        <ele>123.232387</ele>
        <time>2022-12-27T14:56:25.750Z</time>
      </trkpt>
      <trkpt lat="44.49042" lon="-0.66341">
        <ele>123.246705</ele>
        <time>2022-12-27T14:56:27.756Z</time>
      </trkpt>
      <trkpt lat="44.49045" lon="-0.66326">
        <ele>123.262288</ele>
        <time>2022-12-27T14:56:29.750Z</time>
      </trkpt>
      <trkpt lat="44.49048" lon="-0.66312">
        <ele>123.24816</ele>
        <time>2022-12-27T14:56:31.731Z</time>
      </trkpt>
      <trkpt lat="44.49051" lon="-0.66298">
        <ele>123.198392</ele>
        <time>2022-12-27T14:56:33.750Z</time>
      </trkpt>
      <trkpt lat="44.49052" lon="-0.66286">
        <ele>123.153276</ele>
        <time>2022-12-27T14:56:35.750Z</time>
      </trkpt>
      <trkpt lat="44.49054" lon="-0.66274">
        <ele>123.108744</ele>
        <time>2022-12-27T14:56:37.752Z</time>
      </trkpt>
      <trkpt lat="44.49057" lon="-0.66261">
        <ele>123.06339</ele>
        <time>2022-12-27T14:56:39.756Z</time>
      </trkpt>
      <trkpt lat="44.4906" lon="-0.66249">
        <ele>123.018666</ele>
        <time>2022-12-27T14:56:41.751Z</time>
      </trkpt>
      <trkpt lat="44.49062" lon="-0.66236">
        <ele>122.970357</ele>
        <time>2022-12-27T14:56:43.749Z</time>
      </trkpt>
      <trkpt lat="44.49065" lon="-0.66223">
        <ele>122.923717</ele>
        <time>2022-12-27T14:56:45.754Z</time>
      </trkpt>
      <trkpt lat="44.49067" lon="-0.66209">
        <ele>122.873071</ele>
        <time>2022-12-27T14:56:47.759Z</time>
      </trkpt>
      <trkpt lat="44.4907" lon="-0.66195">
        <ele>122.82147</ele>
        <time>2022-12-27T14:56:49.752Z</time>
      </trkpt>
      <trkpt lat="44.49074" lon="-0.66181">
        <ele>122.769088</ele>
        <time>2022-12-27T14:56:51.733Z</time>
      </trkpt>
      <trkpt lat="44.49077" lon="-0.66167">
        <ele>122.717487</ele>
        <time>2022-12-27T14:56:53.751Z</time>
      </trkpt>
      <trkpt lat="44.49079" lon="-0.66153">
        <ele>122.664255</ele>
        <time>2022-12-27T14:56:55.759Z</time>
      </trkpt>
      <trkpt lat="44.49082" lon="-0.66139">
        <ele>122.61353</ele>
        <time>2022-12-27T14:56:57.752Z</time>
      </trkpt>
      <trkpt lat="44.49085" lon="-0.66124">
        <ele>122.560844</ele>
        <time>2022-12-27T14:56:59.755Z</time>
      </trkpt>
      <trkpt lat="44.49087" lon="-0.6611">
        <ele>122.509179</ele>
        <time>2022-12-27T14:57:01.754Z</time>
      </trkpt>
      <trkpt lat="44.4909" lon="-0.66096">
        <ele>122.45704</ele>
        <time>2022-12-27T14:57:03.754Z</time>
      </trkpt>
      <trkpt lat="44.49093" lon="-0.66082">
        <ele>122.404013</ele>
        <time>2022-12-27T14:57:05.752Z</time>
      </trkpt>
      <trkpt lat="44.49096" lon="-0.66066">
        <ele>122.327642</ele>
        <time>2022-12-27T14:57:07.738Z</time>
      </trkpt>
      <trkpt lat="44.49099" lon="-0.66051">
        <ele>122.241873</ele>
        <time>2022-12-27T14:57:09.753Z</time>
      </trkpt>
      <trkpt lat="44.49103" lon="-0.66038">
        <ele>122.163584</ele>
        <time>2022-12-27T14:57:11.731Z</time>
      </trkpt>
      <trkpt lat="44.49106" lon="-0.66025">
        <ele>122.088197</ele>
        <time>2022-12-27T14:57:13.750Z</time>
      </trkpt>
      <trkpt lat="44.49107" lon="-0.66013">
        <ele>122.017546</ele>
        <time>2022-12-27T14:57:15.734Z</time>
      </trkpt>
      <trkpt lat="44.49111" lon="-0.65996">
        <ele>121.917787</ele>
        <time>2022-12-27T14:57:18.754Z</time>
      </trkpt>
      <trkpt lat="44.49114" lon="-0.65984">
        <ele>121.844782</ele>
        <time>2022-12-27T14:57:20.757Z</time>
      </trkpt>
      <trkpt lat="44.49117" lon="-0.6597">
        <ele>121.764378</ele>
        <time>2022-12-27T14:57:22.749Z</time>
      </trkpt>
      <trkpt lat="44.49119" lon="-0.65956">
        <ele>121.684312</ele>
        <time>2022-12-27T14:57:24.752Z</time>
      </trkpt>
      <trkpt lat="44.49122" lon="-0.65943">
        <ele>121.607794</ele>
        <time>2022-12-27T14:57:26.757Z</time>
      </trkpt>
      <trkpt lat="44.49125" lon="-0.65929">
        <ele>121.527932</ele>
        <time>2022-12-27T14:57:28.755Z</time>
      </trkpt>
      <trkpt lat="44.49127" lon="-0.65916">
        <ele>121.450231</ele>
        <time>2022-12-27T14:57:30.754Z</time>
      </trkpt>
      <trkpt lat="44.4913" lon="-0.65902">
        <ele>121.37295</ele>
        <time>2022-12-27T14:57:32.753Z</time>
      </trkpt>
      <trkpt lat="44.49133" lon="-0.65889">
        <ele>121.295435</ele>
        <time>2022-12-27T14:57:34.731Z</time>
      </trkpt>
      <trkpt lat="44.49136" lon="-0.65875">
        <ele>121.214289</ele>
        <time>2022-12-27T14:57:36.764Z</time>
      </trkpt>
      <trkpt lat="44.49139" lon="-0.65861">
        <ele>121.132261</ele>
        <time>2022-12-27T14:57:38.752Z</time>
      </trkpt>
      <trkpt lat="44.49141" lon="-0.65847">
        <ele>121.051316</ele>
        <time>2022-12-27T14:57:40.750Z</time>
      </trkpt>
      <trkpt lat="44.49144" lon="-0.65833">
        <ele>120.969994</ele>
        <time>2022-12-27T14:57:42.744Z</time>
      </trkpt>
      <trkpt lat="44.49147" lon="-0.65819">
        <ele>120.985562</ele>
        <time>2022-12-27T14:57:44.751Z</time>
      </trkpt>
      <trkpt lat="44.4915" lon="-0.65805">
        <ele>121.00123</ele>
        <time>2022-12-27T14:57:46.752Z</time>
      </trkpt>
      <trkpt lat="44.49154" lon="-0.6579">
        <ele>121.017501</ele>
        <time>2022-12-27T14:57:48.751Z</time>
      </trkpt>
      <trkpt lat="44.49157" lon="-0.65776">
        <ele>121.033308</ele>
        <time>2022-12-27T14:57:50.752Z</time>
      </trkpt>
      <trkpt lat="44.4916" lon="-0.65763">
        <ele>121.047898</ele>
        <time>2022-12-27T14:57:52.735Z</time>
      </trkpt>
      <trkpt lat="44.49162" lon="-0.65749">
        <ele>121.062095</ele>
        <time>2022-12-27T14:57:54.755Z</time>
      </trkpt>
      <trkpt lat="44.49166" lon="-0.65732">
        <ele>121.081123</ele>
        <time>2022-12-27T14:57:57.730Z</time>
      </trkpt>
      <trkpt lat="44.4917" lon="-0.65714">
        <ele>121.100714</ele>
        <time>2022-12-27T14:58:00.745Z</time>
      </trkpt>
      <trkpt lat="44.49172" lon="-0.65701">
        <ele>121.114567</ele>
        <time>2022-12-27T14:58:02.751Z</time>
      </trkpt>
      <trkpt lat="44.49175" lon="-0.65689">
        <ele>121.128936</ele>
        <time>2022-12-27T14:58:04.751Z</time>
      </trkpt>
      <trkpt lat="44.49178" lon="-0.65675">
        <ele>121.143712</ele>
        <time>2022-12-27T14:58:06.754Z</time>
      </trkpt>
      <trkpt lat="44.4918" lon="-0.65662">
        <ele>121.157799</ele>
        <time>2022-12-27T14:58:08.756Z</time>
      </trkpt>
      <trkpt lat="44.49184" lon="-0.65649">
        <ele>121.171921</ele>
        <time>2022-12-27T14:58:10.744Z</time>
      </trkpt>
      <trkpt lat="44.49186" lon="-0.65636">
        <ele>121.18704</ele>
        <time>2022-12-27T14:58:12.749Z</time>
      </trkpt>
      <trkpt lat="44.49189" lon="-0.65622">
        <ele>121.201307</ele>
        <time>2022-12-27T14:58:14.752Z</time>
      </trkpt>
      <trkpt lat="44.49191" lon="-0.65609">
        <ele>121.216185</ele>
        <time>2022-12-27T14:58:16.760Z</time>
      </trkpt>
      <trkpt lat="44.49193" lon="-0.65596">
        <ele>121.23038</ele>
        <time>2022-12-27T14:58:18.753Z</time>
      </trkpt>
      <trkpt lat="44.49196" lon="-0.65583">
        <ele>121.20278</ele>
        <time>2022-12-27T14:58:20.761Z</time>
      </trkpt>
      <trkpt lat="44.492" lon="-0.65566">
        <ele>121.135583</ele>
        <time>2022-12-27T14:58:23.747Z</time>
      </trkpt>
      <trkpt lat="44.49203" lon="-0.65548">
        <ele>121.068259</ele>
        <time>2022-12-27T14:58:26.743Z</time>
      </trkpt>
      <trkpt lat="44.49206" lon="-0.65533">
        <ele>121.008398</ele>
        <time>2022-12-27T14:58:29.737Z</time>
      </trkpt>
      <trkpt lat="44.4921" lon="-0.65518">
        <ele>120.950442</ele>
        <time>2022-12-27T14:58:32.757Z</time>
      </trkpt>
      <trkpt lat="44.49213" lon="-0.65502">
        <ele>120.887695</ele>
        <time>2022-12-27T14:58:35.731Z</time>
      </trkpt>
      <trkpt lat="44.49217" lon="-0.65486">
        <ele>120.821817</ele>
        <time>2022-12-27T14:58:38.754Z</time>
      </trkpt>
      <trkpt lat="44.4922" lon="-0.65468">
        <ele>120.752468</ele>
        <time>2022-12-27T14:58:41.732Z</time>
      </trkpt>
      <trkpt lat="44.49222" lon="-0.65455">
        <ele>120.704822</ele>
        <time>2022-12-27T14:58:43.753Z</time>
      </trkpt>
      <trkpt lat="44.49225" lon="-0.65442">
        <ele>120.653874</ele>
        <time>2022-12-27T14:58:45.753Z</time>
      </trkpt>
      <trkpt lat="44.49227" lon="-0.65429">
        <ele>120.604232</ele>
        <time>2022-12-27T14:58:47.751Z</time>
      </trkpt>
      <trkpt lat="44.4923" lon="-0.65417">
        <ele>120.552636</ele>
        <time>2022-12-27T14:58:49.730Z</time>
      </trkpt>
      <trkpt lat="44.49233" lon="-0.65403">
        <ele>120.498226</ele>
        <time>2022-12-27T14:58:51.738Z</time>
      </trkpt>
      <trkpt lat="44.49236" lon="-0.65388">
        <ele>120.441075</ele>
        <time>2022-12-27T14:58:53.734Z</time>
      </trkpt>
      <trkpt lat="44.49239" lon="-0.65374">
        <ele>120.386795</ele>
        <time>2022-12-27T14:58:55.750Z</time>
      </trkpt>
      <trkpt lat="44.49242" lon="-0.6536">
        <ele>120.330798</ele>
        <time>2022-12-27T14:58:57.760Z</time>
      </trkpt>
      <trkpt lat="44.49246" lon="-0.65345">
        <ele>120.28349</ele>
        <time>2022-12-27T14:58:59.733Z</time>
      </trkpt>
      <trkpt lat="44.49249" lon="-0.65331">
        <ele>120.263054</ele>
        <time>2022-12-27T14:59:01.751Z</time>
      </trkpt>
      <trkpt lat="44.49252" lon="-0.65316">
        <ele>120.242699</ele>
        <time>2022-12-27T14:59:03.752Z</time>
      </trkpt>
      <trkpt lat="44.49256" lon="-0.65303">
        <ele>120.223543</ele>
        <time>2022-12-27T14:59:05.755Z</time>
      </trkpt>
      <trkpt lat="44.49259" lon="-0.65289">
        <ele>120.204057</ele>
        <time>2022-12-27T14:59:07.733Z</time>
      </trkpt>
      <trkpt lat="44.49261" lon="-0.65275">
        <ele>120.184747</ele>
        <time>2022-12-27T14:59:09.762Z</time>
      </trkpt>
      <trkpt lat="44.49263" lon="-0.6526">
        <ele>120.16479</ele>
        <time>2022-12-27T14:59:11.731Z</time>
      </trkpt>
      <trkpt lat="44.49266" lon="-0.65246">
        <ele>120.144786</ele>
        <time>2022-12-27T14:59:13.756Z</time>
      </trkpt>
      <trkpt lat="44.49269" lon="-0.65233">
        <ele>120.126561</ele>
        <time>2022-12-27T14:59:15.749Z</time>
      </trkpt>
      <trkpt lat="44.49272" lon="-0.65215">
        <ele>120.101824</ele>
        <time>2022-12-27T14:59:18.750Z</time>
      </trkpt>
      <trkpt lat="44.49274" lon="-0.65202">
        <ele>120.083859</ele>
        <time>2022-12-27T14:59:20.754Z</time>
      </trkpt>
      <trkpt lat="44.49277" lon="-0.65188">
        <ele>120.065503</ele>
        <time>2022-12-27T14:59:22.753Z</time>
      </trkpt>
      <trkpt lat="44.49279" lon="-0.65175">
        <ele>120.046885</ele>
        <time>2022-12-27T14:59:24.751Z</time>
      </trkpt>
      <trkpt lat="44.49282" lon="-0.6516">
        <ele>120.026941</ele>
        <time>2022-12-27T14:59:26.754Z</time>
      </trkpt>
      <trkpt lat="44.49284" lon="-0.65147">
        <ele>120.008021</ele>
        <time>2022-12-27T14:59:28.756Z</time>
      </trkpt>
      <trkpt lat="44.49286" lon="-0.65133">
        <ele>119.98945</ele>
        <time>2022-12-27T14:59:30.751Z</time>
      </trkpt>
      <trkpt lat="44.49289" lon="-0.65119">
        <ele>119.969816</ele>
        <time>2022-12-27T14:59:32.751Z</time>
      </trkpt>
      <trkpt lat="44.49291" lon="-0.65106">
        <ele>119.952033</ele>
        <time>2022-12-27T14:59:34.751Z</time>
      </trkpt>
      <trkpt lat="44.49293" lon="-0.65092">
        <ele>120.034613</ele>
        <time>2022-12-27T14:59:36.753Z</time>
      </trkpt>
      <trkpt lat="44.49295" lon="-0.65078">
        <ele>120.116531</ele>
        <time>2022-12-27T14:59:38.757Z</time>
      </trkpt>
      <trkpt lat="44.49296" lon="-0.65064">
        <ele>120.198351</ele>
        <time>2022-12-27T14:59:40.754Z</time>
      </trkpt>
      <trkpt lat="44.49298" lon="-0.6505">
        <ele>120.283447</ele>
        <time>2022-12-27T14:59:42.754Z</time>
      </trkpt>
      <trkpt lat="44.49301" lon="-0.65037">
        <ele>120.364176</ele>
        <time>2022-12-27T14:59:44.754Z</time>
      </trkpt>
      <trkpt lat="44.49303" lon="-0.65022">
        <ele>120.449823</ele>
        <time>2022-12-27T14:59:46.755Z</time>
      </trkpt>
      <trkpt lat="44.49303" lon="-0.65009">
        <ele>120.527691</ele>
        <time>2022-12-27T14:59:48.751Z</time>
      </trkpt>
      <trkpt lat="44.49304" lon="-0.64996">
        <ele>120.605485</ele>
        <time>2022-12-27T14:59:50.757Z</time>
      </trkpt>
      <trkpt lat="44.49306" lon="-0.64977">
        <ele>120.712849</ele>
        <time>2022-12-27T14:59:53.736Z</time>
      </trkpt>
      <trkpt lat="44.49307" lon="-0.6496">
        <ele>120.813501</ele>
        <time>2022-12-27T14:59:56.748Z</time>
      </trkpt>
      <trkpt lat="44.49307" lon="-0.64941">
        <ele>120.923105</ele>
        <time>2022-12-27T14:59:59.744Z</time>
      </trkpt>
      <trkpt lat="44.49307" lon="-0.64928">
        <ele>121.001794</ele>
        <time>2022-12-27T15:00:01.747Z</time>
      </trkpt>
      <trkpt lat="44.49308" lon="-0.64915">
        <ele>121.078305</ele>
        <time>2022-12-27T15:00:03.750Z</time>
      </trkpt>
      <trkpt lat="44.49308" lon="-0.64901">
        <ele>121.155824</ele>
        <time>2022-12-27T15:00:05.757Z</time>
      </trkpt>
      <trkpt lat="44.49308" lon="-0.64888">
        <ele>121.236262</ele>
        <time>2022-12-27T15:00:07.754Z</time>
      </trkpt>
      <trkpt lat="44.49307" lon="-0.64873">
        <ele>121.320228</ele>
        <time>2022-12-27T15:00:09.756Z</time>
      </trkpt>
      <trkpt lat="44.49307" lon="-0.64859">
        <ele>121.401844</ele>
        <time>2022-12-27T15:00:11.755Z</time>
      </trkpt>
      <trkpt lat="44.49307" lon="-0.64845">
        <ele>121.428534</ele>
        <time>2022-12-27T15:00:13.753Z</time>
      </trkpt>
      <trkpt lat="44.49307" lon="-0.6483">
        <ele>121.43764</ele>
        <time>2022-12-27T15:00:15.755Z</time>
      </trkpt>
      <trkpt lat="44.49306" lon="-0.64817">
        <ele>121.445922</ele>
        <time>2022-12-27T15:00:17.761Z</time>
      </trkpt>
      <trkpt lat="44.49305" lon="-0.64804">
        <ele>121.45411</ele>
        <time>2022-12-27T15:00:19.734Z</time>
      </trkpt>
      <trkpt lat="44.49305" lon="-0.64792">
        <ele>121.462151</ele>
        <time>2022-12-27T15:00:21.755Z</time>
      </trkpt>
      <trkpt lat="44.49302" lon="-0.64774">
        <ele>121.473246</ele>
        <time>2022-12-27T15:00:24.736Z</time>
      </trkpt>
      <trkpt lat="44.49301" lon="-0.64757">
        <ele>121.484298</ele>
        <time>2022-12-27T15:00:27.753Z</time>
      </trkpt>
      <trkpt lat="44.493" lon="-0.64741">
        <ele>121.494501</ele>
        <time>2022-12-27T15:00:30.747Z</time>
      </trkpt>
      <trkpt lat="44.49299" lon="-0.64725">
        <ele>121.504585</ele>
        <time>2022-12-27T15:00:33.753Z</time>
      </trkpt>
      <trkpt lat="44.49297" lon="-0.64709">
        <ele>121.514925</ele>
        <time>2022-12-27T15:00:36.755Z</time>
      </trkpt>
      <trkpt lat="44.49295" lon="-0.64692">
        <ele>121.525854</ele>
        <time>2022-12-27T15:00:39.754Z</time>
      </trkpt>
      <trkpt lat="44.49293" lon="-0.64675">
        <ele>121.536659</ele>
        <time>2022-12-27T15:00:42.761Z</time>
      </trkpt>
      <trkpt lat="44.49289" lon="-0.64662">
        <ele>121.545443</ele>
        <time>2022-12-27T15:00:44.753Z</time>
      </trkpt>
      <trkpt lat="44.49287" lon="-0.64643">
        <ele>121.557737</ele>
        <time>2022-12-27T15:00:47.756Z</time>
      </trkpt>
      <trkpt lat="44.49285" lon="-0.6463">
        <ele>121.566205</ele>
        <time>2022-12-27T15:00:49.755Z</time>
      </trkpt>
      <trkpt lat="44.49282" lon="-0.64616">
        <ele>121.575146</ele>
        <time>2022-12-27T15:00:51.736Z</time>
      </trkpt>
      <trkpt lat="44.4928" lon="-0.64603">
        <ele>121.581299</ele>
        <time>2022-12-27T15:00:53.754Z</time>
      </trkpt>
      <trkpt lat="44.49277" lon="-0.64589">
        <ele>121.582404</ele>
        <time>2022-12-27T15:00:55.732Z</time>
      </trkpt>
      <trkpt lat="44.49274" lon="-0.64571">
        <ele>121.583837</ele>
        <time>2022-12-27T15:00:58.749Z</time>
      </trkpt>
      <trkpt lat="44.49271" lon="-0.64558">
        <ele>121.584888</ele>
        <time>2022-12-27T15:01:00.754Z</time>
      </trkpt>
      <trkpt lat="44.49267" lon="-0.64541">
        <ele>121.586264</ele>
        <time>2022-12-27T15:01:03.751Z</time>
      </trkpt>
      <trkpt lat="44.49262" lon="-0.64526">
        <ele>121.587565</ele>
        <time>2022-12-27T15:01:06.741Z</time>
      </trkpt>
      <trkpt lat="44.49258" lon="-0.64512">
        <ele>121.588703</ele>
        <time>2022-12-27T15:01:09.752Z</time>
      </trkpt>
      <trkpt lat="44.49254" lon="-0.64498">
        <ele>121.589837</ele>
        <time>2022-12-27T15:01:12.757Z</time>
      </trkpt>
      <trkpt lat="44.4925" lon="-0.64483">
        <ele>121.591069</ele>
        <time>2022-12-27T15:01:15.747Z</time>
      </trkpt>
      <trkpt lat="44.49246" lon="-0.64469">
        <ele>121.592259</ele>
        <time>2022-12-27T15:01:18.750Z</time>
      </trkpt>
      <trkpt lat="44.49241" lon="-0.64455">
        <ele>121.593421</ele>
        <time>2022-12-27T15:01:21.734Z</time>
      </trkpt>
      <trkpt lat="44.49238" lon="-0.64442">
        <ele>121.594547</ele>
        <time>2022-12-27T15:01:24.750Z</time>
      </trkpt>
      <trkpt lat="44.49234" lon="-0.64429">
        <ele>121.595589</ele>
        <time>2022-12-27T15:01:27.752Z</time>
      </trkpt>
      <trkpt lat="44.49229" lon="-0.64416">
        <ele>121.596697</ele>
        <time>2022-12-27T15:01:30.755Z</time>
      </trkpt>
      <trkpt lat="44.49225" lon="-0.64402">
        <ele>121.5979</ele>
        <time>2022-12-27T15:01:33.751Z</time>
      </trkpt>
      <trkpt lat="44.49222" lon="-0.64388">
        <ele>121.599048</ele>
        <time>2022-12-27T15:01:36.756Z</time>
      </trkpt>
      <trkpt lat="44.49218" lon="-0.64373">
        <ele>121.600221</ele>
        <time>2022-12-27T15:01:39.756Z</time>
      </trkpt>
      <trkpt lat="44.49213" lon="-0.64358">
        <ele>121.539305</ele>
        <time>2022-12-27T15:01:42.757Z</time>
      </trkpt>
      <trkpt lat="44.49209" lon="-0.64342">
        <ele>121.466991</ele>
        <time>2022-12-27T15:01:45.758Z</time>
      </trkpt>
      <trkpt lat="44.49204" lon="-0.64326">
        <ele>121.392785</ele>
        <time>2022-12-27T15:01:48.753Z</time>
      </trkpt>
      <trkpt lat="44.492" lon="-0.64309">
        <ele>121.316375</ele>
        <time>2022-12-27T15:01:51.744Z</time>
      </trkpt>
      <trkpt lat="44.49195" lon="-0.64292">
        <ele>121.242677</ele>
        <time>2022-12-27T15:01:54.755Z</time>
      </trkpt>
      <trkpt lat="44.49191" lon="-0.6428">
        <ele>121.185121</ele>
        <time>2022-12-27T15:01:56.754Z</time>
      </trkpt>
      <trkpt lat="44.49188" lon="-0.64267">
        <ele>121.130771</ele>
        <time>2022-12-27T15:01:58.753Z</time>
      </trkpt>
      <trkpt lat="44.49184" lon="-0.64256">
        <ele>121.078013</ele>
        <time>2022-12-27T15:02:00.752Z</time>
      </trkpt>
      <trkpt lat="44.49181" lon="-0.64243">
        <ele>121.021713</ele>
        <time>2022-12-27T15:02:02.753Z</time>
      </trkpt>
      <trkpt lat="44.49178" lon="-0.64231">
        <ele>120.967751</ele>
        <time>2022-12-27T15:02:04.753Z</time>
      </trkpt>
      <trkpt lat="44.49173" lon="-0.64214">
        <ele>120.892155</ele>
        <time>2022-12-27T15:02:07.734Z</time>
      </trkpt>
      <trkpt lat="44.49168" lon="-0.64197">
        <ele>120.812764</ele>
        <time>2022-12-27T15:02:10.754Z</time>
      </trkpt>
      <trkpt lat="44.49164" lon="-0.64185">
        <ele>120.75813</ele>
        <time>2022-12-27T15:02:12.753Z</time>
      </trkpt>
      <trkpt lat="44.4916" lon="-0.64172">
        <ele>120.702009</ele>
        <time>2022-12-27T15:02:14.752Z</time>
      </trkpt>
      <trkpt lat="44.49156" lon="-0.6416">
        <ele>120.647374</ele>
        <time>2022-12-27T15:02:16.756Z</time>
      </trkpt>
      <trkpt lat="44.49151" lon="-0.64144">
        <ele>120.571986</ele>
        <time>2022-12-27T15:02:19.755Z</time>
      </trkpt>
      <trkpt lat="44.49146" lon="-0.64128">
        <ele>120.570355</ele>
        <time>2022-12-27T15:02:22.752Z</time>
      </trkpt>
      <trkpt lat="44.49143" lon="-0.64114">
        <ele>120.604091</ele>
        <time>2022-12-27T15:02:25.755Z</time>
      </trkpt>
      <trkpt lat="44.49139" lon="-0.64101">
        <ele>120.635121</ele>
        <time>2022-12-27T15:02:28.754Z</time>
      </trkpt>
      <trkpt lat="44.49135" lon="-0.64089">
        <ele>120.662918</ele>
        <time>2022-12-27T15:02:31.753Z</time>
      </trkpt>
      <trkpt lat="44.49131" lon="-0.64074">
        <ele>120.698097</ele>
        <time>2022-12-27T15:02:35.759Z</time>
      </trkpt>
      <trkpt lat="44.49126" lon="-0.64052">
        <ele>120.749012</ele>
        <time>2022-12-27T15:05:41.730Z</time>
      </trkpt>
      <trkpt lat="44.49122" lon="-0.64038">
        <ele>120.781619</ele>
        <time>2022-12-27T15:05:46.751Z</time>
      </trkpt>
      <trkpt lat="44.49117" lon="-0.64023">
        <ele>120.817063</ele>
        <time>2022-12-27T15:05:50.749Z</time>
      </trkpt>
      <trkpt lat="44.49113" lon="-0.64011">
        <ele>120.846926</ele>
        <time>2022-12-27T15:05:53.747Z</time>
      </trkpt>
      <trkpt lat="44.4911" lon="-0.63998">
        <ele>120.87552</ele>
        <time>2022-12-27T15:05:56.749Z</time>
      </trkpt>
      <trkpt lat="44.49106" lon="-0.63985">
        <ele>120.90655</ele>
        <time>2022-12-27T15:06:00.750Z</time>
      </trkpt>
      <trkpt lat="44.49101" lon="-0.63974">
        <ele>120.936112</ele>
        <time>2022-12-27T15:06:05.729Z</time>
      </trkpt>
      <trkpt lat="44.49097" lon="-0.63961">
        <ele>120.966419</ele>
        <time>2022-12-27T15:06:11.727Z</time>
      </trkpt>
      <trkpt lat="44.49094" lon="-0.63947">
        <ele>120.999294</ele>
        <time>2022-12-27T15:06:15.747Z</time>
      </trkpt>
      <trkpt lat="44.49091" lon="-0.63934">
        <ele>121.028292</ele>
        <time>2022-12-27T15:06:18.746Z</time>
      </trkpt>
      <trkpt lat="44.49086" lon="-0.63921">
        <ele>121.060304</ele>
        <time>2022-12-27T15:06:21.749Z</time>
      </trkpt>
      <trkpt lat="44.49082" lon="-0.63907">
        <ele>121.093902</ele>
        <time>2022-12-27T15:06:24.747Z</time>
      </trkpt>
      <trkpt lat="44.49078" lon="-0.63892">
        <ele>120.920219</ele>
        <time>2022-12-27T15:06:27.750Z</time>
      </trkpt>
      <trkpt lat="44.49074" lon="-0.63877">
        <ele>120.720133</ele>
        <time>2022-12-27T15:06:30.725Z</time>
      </trkpt>
      <trkpt lat="44.4907" lon="-0.6386">
        <ele>120.505088</ele>
        <time>2022-12-27T15:06:33.749Z</time>
      </trkpt>
      <trkpt lat="44.49064" lon="-0.63843">
        <ele>120.275676</ele>
        <time>2022-12-27T15:06:36.744Z</time>
      </trkpt>
      <trkpt lat="44.49061" lon="-0.63831">
        <ele>120.119183</ele>
        <time>2022-12-27T15:06:38.739Z</time>
      </trkpt>
      <trkpt lat="44.49056" lon="-0.63814">
        <ele>119.895828</ele>
        <time>2022-12-27T15:06:41.746Z</time>
      </trkpt>
      <trkpt lat="44.49051" lon="-0.63797">
        <ele>119.668592</ele>
        <time>2022-12-27T15:06:44.744Z</time>
      </trkpt>
      <trkpt lat="44.49045" lon="-0.63779">
        <ele>119.438061</ele>
        <time>2022-12-27T15:06:47.747Z</time>
      </trkpt>
      <trkpt lat="44.49041" lon="-0.63762">
        <ele>119.215553</ele>
        <time>2022-12-27T15:06:50.740Z</time>
      </trkpt>
      <trkpt lat="44.49036" lon="-0.63745">
        <ele>118.993487</ele>
        <time>2022-12-27T15:06:53.729Z</time>
      </trkpt>
      <trkpt lat="44.49033" lon="-0.63734">
        <ele>118.839053</ele>
        <time>2022-12-27T15:06:55.739Z</time>
      </trkpt>
      <trkpt lat="44.49029" lon="-0.63721">
        <ele>118.674596</ele>
        <time>2022-12-27T15:06:57.749Z</time>
      </trkpt>
      <trkpt lat="44.49026" lon="-0.63708">
        <ele>118.507247</ele>
        <time>2022-12-27T15:06:59.741Z</time>
      </trkpt>
      <trkpt lat="44.49022" lon="-0.63697">
        <ele>118.351885</ele>
        <time>2022-12-27T15:07:01.745Z</time>
      </trkpt>
      <trkpt lat="44.49018" lon="-0.63684">
        <ele>118.184209</ele>
        <time>2022-12-27T15:07:03.752Z</time>
      </trkpt>
      <trkpt lat="44.49014" lon="-0.63666">
        <ele>118.016632</ele>
        <time>2022-12-27T15:07:06.748Z</time>
      </trkpt>
      <trkpt lat="44.4901" lon="-0.63654">
        <ele>118.010997</ele>
        <time>2022-12-27T15:07:08.733Z</time>
      </trkpt>
      <trkpt lat="44.49007" lon="-0.63642">
        <ele>118.005169</ele>
        <time>2022-12-27T15:07:10.733Z</time>
      </trkpt>
      <trkpt lat="44.49003" lon="-0.6363">
        <ele>117.999412</ele>
        <time>2022-12-27T15:07:12.748Z</time>
      </trkpt>
      <trkpt lat="44.48997" lon="-0.63613">
        <ele>117.991074</ele>
        <time>2022-12-27T15:07:15.745Z</time>
      </trkpt>
      <trkpt lat="44.48993" lon="-0.63596">
        <ele>117.982937</ele>
        <time>2022-12-27T15:07:18.750Z</time>
      </trkpt>
      <trkpt lat="44.48989" lon="-0.63583">
        <ele>117.977138</ele>
        <time>2022-12-27T15:07:20.752Z</time>
      </trkpt>
      <trkpt lat="44.48986" lon="-0.63571">
        <ele>117.971339</ele>
        <time>2022-12-27T15:07:22.748Z</time>
      </trkpt>
      <trkpt lat="44.48982" lon="-0.63559">
        <ele>117.965697</ele>
        <time>2022-12-27T15:07:24.753Z</time>
      </trkpt>
      <trkpt lat="44.48979" lon="-0.63545">
        <ele>117.95901</ele>
        <time>2022-12-27T15:07:27.746Z</time>
      </trkpt>
      <trkpt lat="44.48974" lon="-0.6353">
        <ele>117.951597</ele>
        <time>2022-12-27T15:07:30.749Z</time>
      </trkpt>
      <trkpt lat="44.48969" lon="-0.63514">
        <ele>117.944013</ele>
        <time>2022-12-27T15:07:33.726Z</time>
      </trkpt>
      <trkpt lat="44.48964" lon="-0.63497">
        <ele>117.936017</ele>
        <time>2022-12-27T15:07:36.752Z</time>
      </trkpt>
      <trkpt lat="44.48959" lon="-0.63481">
        <ele>117.928288</ele>
        <time>2022-12-27T15:07:39.747Z</time>
      </trkpt>
      <trkpt lat="44.48954" lon="-0.63464">
        <ele>117.920237</ele>
        <time>2022-12-27T15:07:42.751Z</time>
      </trkpt>
      <trkpt lat="44.4895" lon="-0.63447">
        <ele>117.912411</ele>
        <time>2022-12-27T15:07:45.748Z</time>
      </trkpt>
      <trkpt lat="44.48945" lon="-0.63432">
        <ele>118.00336</ele>
        <time>2022-12-27T15:07:48.751Z</time>
      </trkpt>
      <trkpt lat="44.48943" lon="-0.6342">
        <ele>118.200114</ele>
        <time>2022-12-27T15:07:51.730Z</time>
      </trkpt>
      <trkpt lat="44.48937" lon="-0.63405">
        <ele>118.444427</ele>
        <time>2022-12-27T15:07:55.750Z</time>
      </trkpt>
      <trkpt lat="44.48933" lon="-0.63392">
        <ele>118.656253</ele>
        <time>2022-12-27T15:07:58.753Z</time>
      </trkpt>
      <trkpt lat="44.4893" lon="-0.63378">
        <ele>118.889903</ele>
        <time>2022-12-27T15:08:01.730Z</time>
      </trkpt>
      <trkpt lat="44.48925" lon="-0.63363">
        <ele>119.129455</ele>
        <time>2022-12-27T15:08:04.745Z</time>
      </trkpt>
      <trkpt lat="44.48921" lon="-0.63348">
        <ele>119.373009</ele>
        <time>2022-12-27T15:08:07.752Z</time>
      </trkpt>
      <trkpt lat="44.48917" lon="-0.63333">
        <ele>119.612395</ele>
        <time>2022-12-27T15:08:10.749Z</time>
      </trkpt>
      <trkpt lat="44.48913" lon="-0.63319">
        <ele>119.841389</ele>
        <time>2022-12-27T15:08:13.741Z</time>
      </trkpt>
      <trkpt lat="44.48909" lon="-0.63303">
        <ele>120.102753</ele>
        <time>2022-12-27T15:08:16.753Z</time>
      </trkpt>
      <trkpt lat="44.48904" lon="-0.63287">
        <ele>120.356468</ele>
        <time>2022-12-27T15:08:19.749Z</time>
      </trkpt>
      <trkpt lat="44.48899" lon="-0.63272">
        <ele>120.609861</ele>
        <time>2022-12-27T15:08:22.747Z</time>
      </trkpt>
      <trkpt lat="44.48894" lon="-0.63257">
        <ele>120.860866</ele>
        <time>2022-12-27T15:08:25.750Z</time>
      </trkpt>
      <trkpt lat="44.4889" lon="-0.63241">
        <ele>121.116496</ele>
        <time>2022-12-27T15:08:28.751Z</time>
      </trkpt>
      <trkpt lat="44.48886" lon="-0.63225">
        <ele>121.37301</ele>
        <time>2022-12-27T15:08:31.725Z</time>
      </trkpt>
      <trkpt lat="44.48881" lon="-0.6321">
        <ele>121.612814</ele>
        <time>2022-12-27T15:08:34.745Z</time>
      </trkpt>
      <trkpt lat="44.48877" lon="-0.63195">
        <ele>121.693936</ele>
        <time>2022-12-27T15:08:37.744Z</time>
      </trkpt>
      <trkpt lat="44.48872" lon="-0.6318">
        <ele>121.667777</ele>
        <time>2022-12-27T15:08:40.753Z</time>
      </trkpt>
      <trkpt lat="44.48867" lon="-0.63164">
        <ele>121.641904</ele>
        <time>2022-12-27T15:08:43.743Z</time>
      </trkpt>
      <trkpt lat="44.48863" lon="-0.63149">
        <ele>121.615832</ele>
        <time>2022-12-27T15:08:46.732Z</time>
      </trkpt>
      <trkpt lat="44.48858" lon="-0.63134">
        <ele>121.589701</ele>
        <time>2022-12-27T15:08:49.734Z</time>
      </trkpt>
      <trkpt lat="44.48854" lon="-0.63118">
        <ele>121.56359</ele>
        <time>2022-12-27T15:08:52.745Z</time>
      </trkpt>
      <trkpt lat="44.48849" lon="-0.63102">
        <ele>121.53682</ele>
        <time>2022-12-27T15:08:55.746Z</time>
      </trkpt>
      <trkpt lat="44.48845" lon="-0.63086">
        <ele>121.510353</ele>
        <time>2022-12-27T15:08:58.751Z</time>
      </trkpt>
      <trkpt lat="44.4884" lon="-0.6307">
        <ele>121.483357</ele>
        <time>2022-12-27T15:09:01.726Z</time>
      </trkpt>
      <trkpt lat="44.48836" lon="-0.63054">
        <ele>121.456957</ele>
        <time>2022-12-27T15:09:04.752Z</time>
      </trkpt>
      <trkpt lat="44.48831" lon="-0.63038">
        <ele>121.429406</ele>
        <time>2022-12-27T15:09:07.751Z</time>
      </trkpt>
      <trkpt lat="44.48828" lon="-0.63026">
        <ele>121.409172</ele>
        <time>2022-12-27T15:09:09.753Z</time>
      </trkpt>
      <trkpt lat="44.48824" lon="-0.63014">
        <ele>121.388909</ele>
        <time>2022-12-27T15:09:11.754Z</time>
      </trkpt>
      <trkpt lat="44.4882" lon="-0.63002">
        <ele>121.368989</ele>
        <time>2022-12-27T15:09:13.725Z</time>
      </trkpt>
      <trkpt lat="44.48815" lon="-0.62986">
        <ele>121.340856</ele>
        <time>2022-12-27T15:09:16.730Z</time>
      </trkpt>
      <trkpt lat="44.48811" lon="-0.62968">
        <ele>121.30448</ele>
        <time>2022-12-27T15:09:19.748Z</time>
      </trkpt>
      <trkpt lat="44.48806" lon="-0.62951">
        <ele>121.237403</ele>
        <time>2022-12-27T15:09:22.751Z</time>
      </trkpt>
      <trkpt lat="44.48802" lon="-0.62934">
        <ele>121.172402</ele>
        <time>2022-12-27T15:09:25.744Z</time>
      </trkpt>
      <trkpt lat="44.48797" lon="-0.6292">
        <ele>121.114725</ele>
        <time>2022-12-27T15:09:28.747Z</time>
      </trkpt>
      <trkpt lat="44.48793" lon="-0.62905">
        <ele>121.056683</ele>
        <time>2022-12-27T15:09:31.754Z</time>
      </trkpt>
      <trkpt lat="44.48788" lon="-0.62889">
        <ele>120.99237</ele>
        <time>2022-12-27T15:09:34.750Z</time>
      </trkpt>
      <trkpt lat="44.48785" lon="-0.62877">
        <ele>120.945848</ele>
        <time>2022-12-27T15:09:36.740Z</time>
      </trkpt>
      <trkpt lat="44.4878" lon="-0.6286">
        <ele>120.876064</ele>
        <time>2022-12-27T15:09:39.730Z</time>
      </trkpt>
      <trkpt lat="44.48775" lon="-0.62843">
        <ele>120.808819</ele>
        <time>2022-12-27T15:09:42.752Z</time>
      </trkpt>
      <trkpt lat="44.48771" lon="-0.62826">
        <ele>120.745895</ele>
        <time>2022-12-27T15:09:45.740Z</time>
      </trkpt>
      <trkpt lat="44.48767" lon="-0.62812">
        <ele>120.687983</ele>
        <time>2022-12-27T15:09:48.748Z</time>
      </trkpt>
      <trkpt lat="44.48763" lon="-0.62799">
        <ele>120.635475</ele>
        <time>2022-12-27T15:09:51.726Z</time>
      </trkpt>
      <trkpt lat="44.48759" lon="-0.62786">
        <ele>120.586068</ele>
        <time>2022-12-27T15:09:54.729Z</time>
      </trkpt>
      <trkpt lat="44.48755" lon="-0.62774">
        <ele>120.536784</ele>
        <time>2022-12-27T15:09:57.735Z</time>
      </trkpt>
      <trkpt lat="44.48751" lon="-0.62757">
        <ele>120.469192</ele>
        <time>2022-12-27T15:10:00.735Z</time>
      </trkpt>
      <trkpt lat="44.48746" lon="-0.62741">
        <ele>120.405908</ele>
        <time>2022-12-27T15:10:03.752Z</time>
      </trkpt>
      <trkpt lat="44.48743" lon="-0.62729">
        <ele>120.390337</ele>
        <time>2022-12-27T15:10:05.734Z</time>
      </trkpt>
      <trkpt lat="44.4874" lon="-0.62716">
        <ele>120.388081</ele>
        <time>2022-12-27T15:10:07.749Z</time>
      </trkpt>
      <trkpt lat="44.48737" lon="-0.62704">
        <ele>120.385859</ele>
        <time>2022-12-27T15:10:09.751Z</time>
      </trkpt>
      <trkpt lat="44.48734" lon="-0.62691">
        <ele>120.383717</ele>
        <time>2022-12-27T15:10:11.729Z</time>
      </trkpt>
      <trkpt lat="44.48731" lon="-0.62679">
        <ele>120.381549</ele>
        <time>2022-12-27T15:10:13.748Z</time>
      </trkpt>
      <trkpt lat="44.48726" lon="-0.62662">
        <ele>120.378435</ele>
        <time>2022-12-27T15:10:16.733Z</time>
      </trkpt>
      <trkpt lat="44.4872" lon="-0.62643">
        <ele>120.3751</ele>
        <time>2022-12-27T15:10:19.743Z</time>
      </trkpt>
      <trkpt lat="44.48717" lon="-0.6263">
        <ele>120.372779</ele>
        <time>2022-12-27T15:10:21.727Z</time>
      </trkpt>
      <trkpt lat="44.48713" lon="-0.62618">
        <ele>120.370551</ele>
        <time>2022-12-27T15:10:23.751Z</time>
      </trkpt>
      <trkpt lat="44.48709" lon="-0.62605">
        <ele>120.368242</ele>
        <time>2022-12-27T15:10:25.749Z</time>
      </trkpt>
      <trkpt lat="44.48705" lon="-0.62592">
        <ele>120.365854</ele>
        <time>2022-12-27T15:10:27.730Z</time>
      </trkpt>
      <trkpt lat="44.48701" lon="-0.62579">
        <ele>120.363448</ele>
        <time>2022-12-27T15:10:29.747Z</time>
      </trkpt>
      <trkpt lat="44.48697" lon="-0.62567">
        <ele>120.36128</ele>
        <time>2022-12-27T15:10:31.757Z</time>
      </trkpt>
      <trkpt lat="44.48693" lon="-0.62555">
        <ele>120.359001</ele>
        <time>2022-12-27T15:10:33.752Z</time>
      </trkpt>
      <trkpt lat="44.48689" lon="-0.62543">
        <ele>120.356763</ele>
        <time>2022-12-27T15:10:35.729Z</time>
      </trkpt>
      <trkpt lat="44.48685" lon="-0.62531">
        <ele>120.354595</ele>
        <time>2022-12-27T15:10:37.738Z</time>
      </trkpt>
      <trkpt lat="44.4868" lon="-0.62518">
        <ele>120.352201</ele>
        <time>2022-12-27T15:10:39.750Z</time>
      </trkpt>
      <trkpt lat="44.48676" lon="-0.62505">
        <ele>120.349785</ele>
        <time>2022-12-27T15:10:41.730Z</time>
      </trkpt>
      <trkpt lat="44.48672" lon="-0.62492">
        <ele>120.418045</ele>
        <time>2022-12-27T15:10:43.725Z</time>
      </trkpt>
      <trkpt lat="44.48667" lon="-0.62479">
        <ele>120.485257</ele>
        <time>2022-12-27T15:10:45.740Z</time>
      </trkpt>
      <trkpt lat="44.48662" lon="-0.62467">
        <ele>120.55382</ele>
        <time>2022-12-27T15:10:47.751Z</time>
      </trkpt>
      <trkpt lat="44.48657" lon="-0.62455">
        <ele>120.617257</ele>
        <time>2022-12-27T15:10:49.748Z</time>
      </trkpt>
      <trkpt lat="44.48653" lon="-0.62443">
        <ele>120.678732</ele>
        <time>2022-12-27T15:10:51.727Z</time>
      </trkpt>
      <trkpt lat="44.48649" lon="-0.62431">
        <ele>120.741199</ele>
        <time>2022-12-27T15:10:53.748Z</time>
      </trkpt>
      <trkpt lat="44.48645" lon="-0.6242">
        <ele>120.801284</ele>
        <time>2022-12-27T15:10:55.749Z</time>
      </trkpt>
      <trkpt lat="44.4864" lon="-0.62408">
        <ele>120.866707</ele>
        <time>2022-12-27T15:10:57.727Z</time>
      </trkpt>
      <trkpt lat="44.48635" lon="-0.62397">
        <ele>120.930659</ele>
        <time>2022-12-27T15:10:59.751Z</time>
      </trkpt>
      <trkpt lat="44.48629" lon="-0.6238">
        <ele>121.018595</ele>
        <time>2022-12-27T15:11:02.728Z</time>
      </trkpt>
      <trkpt lat="44.48625" lon="-0.62369">
        <ele>121.079222</ele>
        <time>2022-12-27T15:11:04.751Z</time>
      </trkpt>
      <trkpt lat="44.4862" lon="-0.62358">
        <ele>121.141416</ele>
        <time>2022-12-27T15:11:06.751Z</time>
      </trkpt>
      <trkpt lat="44.48616" lon="-0.62346">
        <ele>121.205184</ele>
        <time>2022-12-27T15:11:08.750Z</time>
      </trkpt>
      <trkpt lat="44.48612" lon="-0.62334">
        <ele>121.268082</ele>
        <time>2022-12-27T15:11:10.748Z</time>
      </trkpt>
      <trkpt lat="44.48607" lon="-0.62323">
        <ele>121.328103</ele>
        <time>2022-12-27T15:11:12.748Z</time>
      </trkpt>
      <trkpt lat="44.48602" lon="-0.62312">
        <ele>121.389653</ele>
        <time>2022-12-27T15:11:14.733Z</time>
      </trkpt>
      <trkpt lat="44.48598" lon="-0.62301">
        <ele>121.450611</ele>
        <time>2022-12-27T15:11:16.751Z</time>
      </trkpt>
      <trkpt lat="44.48591" lon="-0.62284">
        <ele>121.541024</ele>
        <time>2022-12-27T15:11:19.750Z</time>
      </trkpt>
      <trkpt lat="44.48586" lon="-0.62273">
        <ele>121.615179</ele>
        <time>2022-12-27T15:11:21.727Z</time>
      </trkpt>
      <trkpt lat="44.48581" lon="-0.62262">
        <ele>121.68628</ele>
        <time>2022-12-27T15:11:23.743Z</time>
      </trkpt>
      <trkpt lat="44.48574" lon="-0.62246">
        <ele>121.786812</ele>
        <time>2022-12-27T15:11:26.750Z</time>
      </trkpt>
      <trkpt lat="44.48568" lon="-0.62232">
        <ele>121.883756</ele>
        <time>2022-12-27T15:11:29.750Z</time>
      </trkpt>
      <trkpt lat="44.48561" lon="-0.62217">
        <ele>121.981052</ele>
        <time>2022-12-27T15:11:32.749Z</time>
      </trkpt>
      <trkpt lat="44.48554" lon="-0.62201">
        <ele>122.084185</ele>
        <time>2022-12-27T15:11:35.750Z</time>
      </trkpt>
      <trkpt lat="44.48547" lon="-0.62186">
        <ele>122.185925</ele>
        <time>2022-12-27T15:11:38.751Z</time>
      </trkpt>
      <trkpt lat="44.48539" lon="-0.6217">
        <ele>122.291701</ele>
        <time>2022-12-27T15:11:41.748Z</time>
      </trkpt>
      <trkpt lat="44.48534" lon="-0.62159">
        <ele>122.362278</ele>
        <time>2022-12-27T15:11:43.748Z</time>
      </trkpt>
      <trkpt lat="44.48529" lon="-0.62149">
        <ele>122.432783</ele>
        <time>2022-12-27T15:11:45.751Z</time>
      </trkpt>
      <trkpt lat="44.48521" lon="-0.62134">
        <ele>122.536276</ele>
        <time>2022-12-27T15:11:48.733Z</time>
      </trkpt>
      <trkpt lat="44.48515" lon="-0.62123">
        <ele>122.611294</ele>
        <time>2022-12-27T15:11:50.751Z</time>
      </trkpt>
      <trkpt lat="44.4851" lon="-0.62112">
        <ele>122.685412</ele>
        <time>2022-12-27T15:11:52.750Z</time>
      </trkpt>
      <trkpt lat="44.48505" lon="-0.62101">
        <ele>122.757718</ele>
        <time>2022-12-27T15:11:54.753Z</time>
      </trkpt>
      <trkpt lat="44.48499" lon="-0.62091">
        <ele>122.829567</ele>
        <time>2022-12-27T15:11:56.751Z</time>
      </trkpt>
      <trkpt lat="44.48494" lon="-0.62081">
        <ele>122.900617</ele>
        <time>2022-12-27T15:11:58.751Z</time>
      </trkpt>
      <trkpt lat="44.48488" lon="-0.6207">
        <ele>122.93724</ele>
        <time>2022-12-27T15:12:00.728Z</time>
      </trkpt>
      <trkpt lat="44.48479" lon="-0.62055">
        <ele>122.904053</ele>
        <time>2022-12-27T15:12:03.726Z</time>
      </trkpt>
      <trkpt lat="44.48474" lon="-0.62045">
        <ele>122.881031</ele>
        <time>2022-12-27T15:12:05.730Z</time>
      </trkpt>
      <trkpt lat="44.48468" lon="-0.62033">
        <ele>122.856586</ele>
        <time>2022-12-27T15:12:07.749Z</time>
      </trkpt>
      <trkpt lat="44.48462" lon="-0.62023">
        <ele>122.833278</ele>
        <time>2022-12-27T15:12:09.725Z</time>
      </trkpt>
      <trkpt lat="44.48456" lon="-0.62013">
        <ele>122.810893</ele>
        <time>2022-12-27T15:12:11.729Z</time>
      </trkpt>
      <trkpt lat="44.48448" lon="-0.61999">
        <ele>122.779541</ele>
        <time>2022-12-27T15:12:14.750Z</time>
      </trkpt>
      <trkpt lat="44.48442" lon="-0.61989">
        <ele>122.757177</ele>
        <time>2022-12-27T15:12:16.751Z</time>
      </trkpt>
      <trkpt lat="44.48434" lon="-0.61976">
        <ele>122.727631</ele>
        <time>2022-12-27T15:12:19.746Z</time>
      </trkpt>
      <trkpt lat="44.48427" lon="-0.61962">
        <ele>122.696345</ele>
        <time>2022-12-27T15:12:22.754Z</time>
      </trkpt>
      <trkpt lat="44.48418" lon="-0.61948">
        <ele>122.663828</ele>
        <time>2022-12-27T15:12:25.751Z</time>
      </trkpt>
      <trkpt lat="44.48412" lon="-0.61939">
        <ele>122.641608</ele>
        <time>2022-12-27T15:12:27.734Z</time>
      </trkpt>
      <trkpt lat="44.48405" lon="-0.61928">
        <ele>122.617602</ele>
        <time>2022-12-27T15:12:29.747Z</time>
      </trkpt>
      <trkpt lat="44.48396" lon="-0.61915">
        <ele>122.585474</ele>
        <time>2022-12-27T15:12:32.752Z</time>
      </trkpt>
      <trkpt lat="44.4839" lon="-0.61905">
        <ele>122.562239</ele>
        <time>2022-12-27T15:12:34.751Z</time>
      </trkpt>
      <trkpt lat="44.48381" lon="-0.61891">
        <ele>122.529899</ele>
        <time>2022-12-27T15:12:37.744Z</time>
      </trkpt>
      <trkpt lat="44.48375" lon="-0.61881">
        <ele>122.505907</ele>
        <time>2022-12-27T15:12:39.746Z</time>
      </trkpt>
      <trkpt lat="44.48365" lon="-0.61869">
        <ele>122.409414</ele>
        <time>2022-12-27T15:12:42.747Z</time>
      </trkpt>
      <trkpt lat="44.48356" lon="-0.61855">
        <ele>122.306561</ele>
        <time>2022-12-27T15:12:45.752Z</time>
      </trkpt>
      <trkpt lat="44.48346" lon="-0.61842">
        <ele>122.203016</ele>
        <time>2022-12-27T15:12:48.730Z</time>
      </trkpt>
      <trkpt lat="44.4834" lon="-0.61832">
        <ele>122.13128</ele>
        <time>2022-12-27T15:12:50.754Z</time>
      </trkpt>
      <trkpt lat="44.48331" lon="-0.61818">
        <ele>122.026711</ele>
        <time>2022-12-27T15:12:53.751Z</time>
      </trkpt>
      <trkpt lat="44.48324" lon="-0.61808">
        <ele>121.952331</ele>
        <time>2022-12-27T15:12:55.749Z</time>
      </trkpt>
      <trkpt lat="44.48317" lon="-0.61798">
        <ele>121.875726</ele>
        <time>2022-12-27T15:12:57.751Z</time>
      </trkpt>
      <trkpt lat="44.48311" lon="-0.61788">
        <ele>121.803778</ele>
        <time>2022-12-27T15:12:59.750Z</time>
      </trkpt>
      <trkpt lat="44.48304" lon="-0.61779">
        <ele>121.731462</ele>
        <time>2022-12-27T15:13:01.726Z</time>
      </trkpt>
      <trkpt lat="44.48297" lon="-0.61769">
        <ele>121.654641</ele>
        <time>2022-12-27T15:13:03.751Z</time>
      </trkpt>
      <trkpt lat="44.48287" lon="-0.61756">
        <ele>121.551005</ele>
        <time>2022-12-27T15:13:06.749Z</time>
      </trkpt>
      <trkpt lat="44.4828" lon="-0.61748">
        <ele>121.480527</ele>
        <time>2022-12-27T15:13:08.749Z</time>
      </trkpt>
      <trkpt lat="44.48271" lon="-0.61734">
        <ele>121.378071</ele>
        <time>2022-12-27T15:13:11.731Z</time>
      </trkpt>
      <trkpt lat="44.48264" lon="-0.61725">
        <ele>121.305381</ele>
        <time>2022-12-27T15:13:13.750Z</time>
      </trkpt>
      <trkpt lat="44.48257" lon="-0.61714">
        <ele>121.229074</ele>
        <time>2022-12-27T15:13:15.735Z</time>
      </trkpt>
      <trkpt lat="44.4825" lon="-0.61705">
        <ele>121.152295</ele>
        <time>2022-12-27T15:13:17.733Z</time>
      </trkpt>
      <trkpt lat="44.48243" lon="-0.61696">
        <ele>121.211991</ele>
        <time>2022-12-27T15:13:19.749Z</time>
      </trkpt>
      <trkpt lat="44.48236" lon="-0.61687">
        <ele>121.322016</ele>
        <time>2022-12-27T15:13:21.746Z</time>
      </trkpt>
      <trkpt lat="44.4823" lon="-0.61677">
        <ele>121.433455</ele>
        <time>2022-12-27T15:13:23.749Z</time>
      </trkpt>
      <trkpt lat="44.48223" lon="-0.61668">
        <ele>121.54549</ele>
        <time>2022-12-27T15:13:25.734Z</time>
      </trkpt>
      <trkpt lat="44.48216" lon="-0.61659">
        <ele>121.654332</ele>
        <time>2022-12-27T15:13:27.732Z</time>
      </trkpt>
      <trkpt lat="44.48209" lon="-0.6165">
        <ele>121.761747</ele>
        <time>2022-12-27T15:13:29.749Z</time>
      </trkpt>
      <trkpt lat="44.48203" lon="-0.61642">
        <ele>121.869162</ele>
        <time>2022-12-27T15:13:31.730Z</time>
      </trkpt>
      <trkpt lat="44.48193" lon="-0.61629">
        <ele>122.023575</ele>
        <time>2022-12-27T15:13:34.753Z</time>
      </trkpt>
      <trkpt lat="44.48184" lon="-0.61615">
        <ele>122.183774</ele>
        <time>2022-12-27T15:13:37.746Z</time>
      </trkpt>
      <trkpt lat="44.48174" lon="-0.61603">
        <ele>122.33329</ele>
        <time>2022-12-27T15:13:40.751Z</time>
      </trkpt>
      <trkpt lat="44.48165" lon="-0.6159">
        <ele>122.481695</ele>
        <time>2022-12-27T15:13:43.752Z</time>
      </trkpt>
      <trkpt lat="44.48156" lon="-0.61577">
        <ele>122.63436</ele>
        <time>2022-12-27T15:13:46.740Z</time>
      </trkpt>
      <trkpt lat="44.48146" lon="-0.61565">
        <ele>122.786187</ele>
        <time>2022-12-27T15:13:49.731Z</time>
      </trkpt>
      <trkpt lat="44.48138" lon="-0.61553">
        <ele>122.93009</ele>
        <time>2022-12-27T15:13:52.748Z</time>
      </trkpt>
      <trkpt lat="44.48129" lon="-0.6154">
        <ele>123.082256</ele>
        <time>2022-12-27T15:13:55.749Z</time>
      </trkpt>
      <trkpt lat="44.4812" lon="-0.61527">
        <ele>123.230411</ele>
        <time>2022-12-27T15:13:58.749Z</time>
      </trkpt>
      <trkpt lat="44.4811" lon="-0.61514">
        <ele>123.472866</ele>
        <time>2022-12-27T15:14:01.727Z</time>
      </trkpt>
      <trkpt lat="44.48101" lon="-0.61501">
        <ele>123.719757</ele>
        <time>2022-12-27T15:14:04.750Z</time>
      </trkpt>
      <trkpt lat="44.48092" lon="-0.61489">
        <ele>123.95187</ele>
        <time>2022-12-27T15:14:07.748Z</time>
      </trkpt>
      <trkpt lat="44.48084" lon="-0.61478">
        <ele>124.156148</ele>
        <time>2022-12-27T15:14:10.750Z</time>
      </trkpt>
      <trkpt lat="44.48077" lon="-0.61468">
        <ele>124.347064</ele>
        <time>2022-12-27T15:14:13.749Z</time>
      </trkpt>
      <trkpt lat="44.48069" lon="-0.61458">
        <ele>124.553079</ele>
        <time>2022-12-27T15:14:16.729Z</time>
      </trkpt>
      <trkpt lat="44.48061" lon="-0.61446">
        <ele>124.762808</ele>
        <time>2022-12-27T15:14:19.745Z</time>
      </trkpt>
      <trkpt lat="44.48053" lon="-0.61436">
        <ele>124.977235</ele>
        <time>2022-12-27T15:14:22.749Z</time>
      </trkpt>
      <trkpt lat="44.48045" lon="-0.61425">
        <ele>125.191946</ele>
        <time>2022-12-27T15:14:25.749Z</time>
      </trkpt>
      <trkpt lat="44.48035" lon="-0.61412">
        <ele>125.428093</ele>
        <time>2022-12-27T15:14:28.750Z</time>
      </trkpt>
      <trkpt lat="44.48026" lon="-0.614">
        <ele>125.67213</ele>
        <time>2022-12-27T15:14:31.728Z</time>
      </trkpt>
      <trkpt lat="44.48016" lon="-0.61387">
        <ele>125.927477</ele>
        <time>2022-12-27T15:14:34.749Z</time>
      </trkpt>
      <trkpt lat="44.4801" lon="-0.61378">
        <ele>126.099761</ele>
        <time>2022-12-27T15:14:36.748Z</time>
      </trkpt>
      <trkpt lat="44.48003" lon="-0.61368">
        <ele>126.275264</ele>
        <time>2022-12-27T15:14:38.750Z</time>
      </trkpt>
      <trkpt lat="44.47996" lon="-0.61359">
        <ele>126.460801</ele>
        <time>2022-12-27T15:14:40.740Z</time>
      </trkpt>
      <trkpt lat="44.4799" lon="-0.61349">
        <ele>126.614052</ele>
        <time>2022-12-27T15:14:42.754Z</time>
      </trkpt>
      <trkpt lat="44.47983" lon="-0.6134">
        <ele>126.64712</ele>
        <time>2022-12-27T15:14:44.759Z</time>
      </trkpt>
      <trkpt lat="44.47976" lon="-0.61331">
        <ele>126.680282</ele>
        <time>2022-12-27T15:14:46.729Z</time>
      </trkpt>
      <trkpt lat="44.4797" lon="-0.61321">
        <ele>126.714406</ele>
        <time>2022-12-27T15:14:48.750Z</time>
      </trkpt>
      <trkpt lat="44.47963" lon="-0.61312">
        <ele>126.74756</ele>
        <time>2022-12-27T15:14:50.750Z</time>
      </trkpt>
      <trkpt lat="44.47956" lon="-0.61303">
        <ele>126.781747</ele>
        <time>2022-12-27T15:14:52.749Z</time>
      </trkpt>
      <trkpt lat="44.47949" lon="-0.61294">
        <ele>126.814129</ele>
        <time>2022-12-27T15:14:54.752Z</time>
      </trkpt>
      <trkpt lat="44.47942" lon="-0.61285">
        <ele>126.847646</ele>
        <time>2022-12-27T15:14:56.756Z</time>
      </trkpt>
      <trkpt lat="44.47933" lon="-0.61272">
        <ele>126.895018</ele>
        <time>2022-12-27T15:14:59.734Z</time>
      </trkpt>
      <trkpt lat="44.47923" lon="-0.61258">
        <ele>126.944562</ele>
        <time>2022-12-27T15:15:02.749Z</time>
      </trkpt>
      <trkpt lat="44.47916" lon="-0.61248">
        <ele>126.978664</ele>
        <time>2022-12-27T15:15:04.750Z</time>
      </trkpt>
      <trkpt lat="44.47909" lon="-0.6124">
        <ele>127.011409</ele>
        <time>2022-12-27T15:15:06.752Z</time>
      </trkpt>
      <trkpt lat="44.47902" lon="-0.61231">
        <ele>127.045255</ele>
        <time>2022-12-27T15:15:08.745Z</time>
      </trkpt>
      <trkpt lat="44.47895" lon="-0.61222">
        <ele>127.078322</ele>
        <time>2022-12-27T15:15:10.751Z</time>
      </trkpt>
      <trkpt lat="44.47889" lon="-0.61212">
        <ele>127.111591</ele>
        <time>2022-12-27T15:15:12.747Z</time>
      </trkpt>
      <trkpt lat="44.47879" lon="-0.61199">
        <ele>127.157353</ele>
        <time>2022-12-27T15:15:15.752Z</time>
      </trkpt>
      <trkpt lat="44.4787" lon="-0.61186">
        <ele>127.203902</ele>
        <time>2022-12-27T15:15:18.749Z</time>
      </trkpt>
      <trkpt lat="44.4786" lon="-0.61173">
        <ele>127.253166</ele>
        <time>2022-12-27T15:15:21.730Z</time>
      </trkpt>
      <trkpt lat="44.47851" lon="-0.6116">
        <ele>127.310297</ele>
        <time>2022-12-27T15:15:24.747Z</time>
      </trkpt>
      <trkpt lat="44.47845" lon="-0.61151">
        <ele>127.348876</ele>
        <time>2022-12-27T15:15:26.749Z</time>
      </trkpt>
      <trkpt lat="44.47838" lon="-0.61142">
        <ele>127.389805</ele>
        <time>2022-12-27T15:15:28.747Z</time>
      </trkpt>
      <trkpt lat="44.47831" lon="-0.61132">
        <ele>127.429951</ele>
        <time>2022-12-27T15:15:30.747Z</time>
      </trkpt>
      <trkpt lat="44.47824" lon="-0.61124">
        <ele>127.470006</ele>
        <time>2022-12-27T15:15:32.742Z</time>
      </trkpt>
      <trkpt lat="44.47817" lon="-0.61115">
        <ele>127.511509</ele>
        <time>2022-12-27T15:15:34.761Z</time>
      </trkpt>
      <trkpt lat="44.4781" lon="-0.61106">
        <ele>127.550512</ele>
        <time>2022-12-27T15:15:36.753Z</time>
      </trkpt>
      <trkpt lat="44.47804" lon="-0.61097">
        <ele>127.589922</ele>
        <time>2022-12-27T15:15:38.755Z</time>
      </trkpt>
      <trkpt lat="44.47797" lon="-0.61088">
        <ele>127.630282</ele>
        <time>2022-12-27T15:15:40.747Z</time>
      </trkpt>
      <trkpt lat="44.4779" lon="-0.61079">
        <ele>127.671074</ele>
        <time>2022-12-27T15:15:42.750Z</time>
      </trkpt>
      <trkpt lat="44.47784" lon="-0.6107">
        <ele>127.710281</ele>
        <time>2022-12-27T15:15:44.750Z</time>
      </trkpt>
      <trkpt lat="44.47777" lon="-0.61062">
        <ele>127.748759</ele>
        <time>2022-12-27T15:15:46.754Z</time>
      </trkpt>
      <trkpt lat="44.4777" lon="-0.61053">
        <ele>127.791527</ele>
        <time>2022-12-27T15:15:48.754Z</time>
      </trkpt>
      <trkpt lat="44.47763" lon="-0.61043">
        <ele>127.832625</ele>
        <time>2022-12-27T15:15:50.750Z</time>
      </trkpt>
      <trkpt lat="44.47756" lon="-0.61034">
        <ele>127.87287</ele>
        <time>2022-12-27T15:15:52.753Z</time>
      </trkpt>
      <trkpt lat="44.47749" lon="-0.61024">
        <ele>127.91521</ele>
        <time>2022-12-27T15:15:54.746Z</time>
      </trkpt>
      <trkpt lat="44.47743" lon="-0.61015">
        <ele>127.954139</ele>
        <time>2022-12-27T15:15:56.750Z</time>
      </trkpt>
      <trkpt lat="44.47734" lon="-0.61002">
        <ele>128.008573</ele>
        <time>2022-12-27T15:15:59.746Z</time>
      </trkpt>
      <trkpt lat="44.47725" lon="-0.6099">
        <ele>128.032782</ele>
        <time>2022-12-27T15:16:02.753Z</time>
      </trkpt>
      <trkpt lat="44.47716" lon="-0.60978">
        <ele>128.049888</ele>
        <time>2022-12-27T15:16:05.751Z</time>
      </trkpt>
      <trkpt lat="44.47707" lon="-0.60965">
        <ele>128.067456</ele>
        <time>2022-12-27T15:16:08.752Z</time>
      </trkpt>
      <trkpt lat="44.47698" lon="-0.60953">
        <ele>128.084362</ele>
        <time>2022-12-27T15:16:11.751Z</time>
      </trkpt>
      <trkpt lat="44.47689" lon="-0.60942">
        <ele>128.100712</ele>
        <time>2022-12-27T15:16:14.758Z</time>
      </trkpt>
      <trkpt lat="44.4768" lon="-0.60929">
        <ele>128.117643</ele>
        <time>2022-12-27T15:16:17.749Z</time>
      </trkpt>
      <trkpt lat="44.47671" lon="-0.60916">
        <ele>128.135039</ele>
        <time>2022-12-27T15:16:20.751Z</time>
      </trkpt>
      <trkpt lat="44.47665" lon="-0.60907">
        <ele>128.147327</ele>
        <time>2022-12-27T15:16:22.748Z</time>
      </trkpt>
      <trkpt lat="44.47658" lon="-0.60898">
        <ele>128.159867</ele>
        <time>2022-12-27T15:16:24.747Z</time>
      </trkpt>
      <trkpt lat="44.47651" lon="-0.60888">
        <ele>128.172576</ele>
        <time>2022-12-27T15:16:26.753Z</time>
      </trkpt>
      <trkpt lat="44.47645" lon="-0.60879">
        <ele>128.184864</ele>
        <time>2022-12-27T15:16:28.753Z</time>
      </trkpt>
      <trkpt lat="44.47634" lon="-0.60867">
        <ele>128.203063</ele>
        <time>2022-12-27T15:16:31.750Z</time>
      </trkpt>
      <trkpt lat="44.47627" lon="-0.60859">
        <ele>128.215421</ele>
        <time>2022-12-27T15:16:33.749Z</time>
      </trkpt>
      <trkpt lat="44.4762" lon="-0.60849">
        <ele>128.228717</ele>
        <time>2022-12-27T15:16:35.750Z</time>
      </trkpt>
      <trkpt lat="44.47613" lon="-0.60839">
        <ele>128.242447</ele>
        <time>2022-12-27T15:16:37.750Z</time>
      </trkpt>
      <trkpt lat="44.47606" lon="-0.60829">
        <ele>128.255842</ele>
        <time>2022-12-27T15:16:39.750Z</time>
      </trkpt>
      <trkpt lat="44.47596" lon="-0.60816">
        <ele>128.302166</ele>
        <time>2022-12-27T15:16:42.754Z</time>
      </trkpt>
      <trkpt lat="44.47589" lon="-0.60806">
        <ele>128.345754</ele>
        <time>2022-12-27T15:16:44.751Z</time>
      </trkpt>
      <trkpt lat="44.47582" lon="-0.60795">
        <ele>128.389114</ele>
        <time>2022-12-27T15:16:46.729Z</time>
      </trkpt>
      <trkpt lat="44.47575" lon="-0.60785">
        <ele>128.433818</ele>
        <time>2022-12-27T15:16:48.750Z</time>
      </trkpt>
      <trkpt lat="44.47568" lon="-0.60776">
        <ele>128.475947</ele>
        <time>2022-12-27T15:16:50.753Z</time>
      </trkpt>
      <trkpt lat="44.47562" lon="-0.60766">
        <ele>128.515374</ele>
        <time>2022-12-27T15:16:52.750Z</time>
      </trkpt>
      <trkpt lat="44.47555" lon="-0.60756">
        <ele>128.559499</ele>
        <time>2022-12-27T15:16:54.752Z</time>
      </trkpt>
      <trkpt lat="44.47545" lon="-0.60744">
        <ele>128.615208</ele>
        <time>2022-12-27T15:16:57.729Z</time>
      </trkpt>
      <trkpt lat="44.47538" lon="-0.60735">
        <ele>128.65566</ele>
        <time>2022-12-27T15:16:59.750Z</time>
      </trkpt>
      <trkpt lat="44.47531" lon="-0.60726">
        <ele>128.696214</ele>
        <time>2022-12-27T15:17:01.732Z</time>
      </trkpt>
      <trkpt lat="44.47525" lon="-0.60717">
        <ele>128.735937</ele>
        <time>2022-12-27T15:17:03.731Z</time>
      </trkpt>
      <trkpt lat="44.47518" lon="-0.60709">
        <ele>128.77586</ele>
        <time>2022-12-27T15:17:05.750Z</time>
      </trkpt>
      <trkpt lat="44.47511" lon="-0.60699">
        <ele>128.817878</ele>
        <time>2022-12-27T15:17:07.744Z</time>
      </trkpt>
      <trkpt lat="44.47504" lon="-0.6069">
        <ele>128.857692</ele>
        <time>2022-12-27T15:17:09.730Z</time>
      </trkpt>
      <trkpt lat="44.47495" lon="-0.60677">
        <ele>128.915195</ele>
        <time>2022-12-27T15:17:12.751Z</time>
      </trkpt>
      <trkpt lat="44.47486" lon="-0.60666">
        <ele>128.967113</ele>
        <time>2022-12-27T15:17:15.752Z</time>
      </trkpt>
      <trkpt lat="44.47477" lon="-0.60654">
        <ele>129.020413</ele>
        <time>2022-12-27T15:17:18.747Z</time>
      </trkpt>
      <trkpt lat="44.47468" lon="-0.60641">
        <ele>129.019468</ele>
        <time>2022-12-27T15:17:21.728Z</time>
      </trkpt>
      <trkpt lat="44.47461" lon="-0.60631">
        <ele>128.996634</ele>
        <time>2022-12-27T15:17:23.739Z</time>
      </trkpt>
      <trkpt lat="44.47454" lon="-0.60621">
        <ele>128.975908</ele>
        <time>2022-12-27T15:17:25.738Z</time>
      </trkpt>
      <trkpt lat="44.47446" lon="-0.60611">
        <ele>128.949879</ele>
        <time>2022-12-27T15:17:28.748Z</time>
      </trkpt>
      <trkpt lat="44.47436" lon="-0.60598">
        <ele>128.91921</ele>
        <time>2022-12-27T15:17:31.754Z</time>
      </trkpt>
      <trkpt lat="44.4743" lon="-0.60588">
        <ele>128.898178</ele>
        <time>2022-12-27T15:17:33.748Z</time>
      </trkpt>
      <trkpt lat="44.47421" lon="-0.60577">
        <ele>128.870052</ele>
        <time>2022-12-27T15:17:36.752Z</time>
      </trkpt>
      <trkpt lat="44.47414" lon="-0.60568">
        <ele>128.848241</ele>
        <time>2022-12-27T15:17:38.752Z</time>
      </trkpt>
      <trkpt lat="44.47406" lon="-0.60558">
        <ele>128.824713</ele>
        <time>2022-12-27T15:17:40.747Z</time>
      </trkpt>
      <trkpt lat="44.47399" lon="-0.60548">
        <ele>128.802459</ele>
        <time>2022-12-27T15:17:42.754Z</time>
      </trkpt>
      <trkpt lat="44.47392" lon="-0.60538">
        <ele>128.7799</ele>
        <time>2022-12-27T15:17:44.754Z</time>
      </trkpt>
      <trkpt lat="44.47386" lon="-0.60528">
        <ele>128.758115</ele>
        <time>2022-12-27T15:17:46.750Z</time>
      </trkpt>
      <trkpt lat="44.47377" lon="-0.60517">
        <ele>128.730492</ele>
        <time>2022-12-27T15:17:49.750Z</time>
      </trkpt>
      <trkpt lat="44.47369" lon="-0.60506">
        <ele>128.706187</ele>
        <time>2022-12-27T15:17:52.750Z</time>
      </trkpt>
      <trkpt lat="44.47362" lon="-0.60497">
        <ele>128.685318</ele>
        <time>2022-12-27T15:17:55.751Z</time>
      </trkpt>
      <trkpt lat="44.47356" lon="-0.60488">
        <ele>128.663999</ele>
        <time>2022-12-27T15:17:59.742Z</time>
      </trkpt>
      <trkpt lat="44.47349" lon="-0.60479">
        <ele>128.642465</ele>
        <time>2022-12-27T15:18:02.750Z</time>
      </trkpt>
      <trkpt lat="44.47341" lon="-0.60469">
        <ele>128.59426</ele>
        <time>2022-12-27T15:18:05.750Z</time>
      </trkpt>
      <trkpt lat="44.47333" lon="-0.60456">
        <ele>128.51375</ele>
        <time>2022-12-27T15:18:08.744Z</time>
      </trkpt>
      <trkpt lat="44.47324" lon="-0.60442">
        <ele>128.423006</ele>
        <time>2022-12-27T15:18:11.732Z</time>
      </trkpt>
      <trkpt lat="44.47314" lon="-0.60429">
        <ele>128.334897</ele>
        <time>2022-12-27T15:18:14.755Z</time>
      </trkpt>
      <trkpt lat="44.47307" lon="-0.60422">
        <ele>128.274973</ele>
        <time>2022-12-27T15:18:16.750Z</time>
      </trkpt>
      <trkpt lat="44.47299" lon="-0.60412">
        <ele>128.20479</ele>
        <time>2022-12-27T15:18:18.755Z</time>
      </trkpt>
      <trkpt lat="44.47292" lon="-0.60403">
        <ele>128.141102</ele>
        <time>2022-12-27T15:18:20.754Z</time>
      </trkpt>
      <trkpt lat="44.47282" lon="-0.6039">
        <ele>128.050282</ele>
        <time>2022-12-27T15:18:23.746Z</time>
      </trkpt>
      <trkpt lat="44.47276" lon="-0.6038">
        <ele>127.986123</ele>
        <time>2022-12-27T15:18:25.746Z</time>
      </trkpt>
      <trkpt lat="44.47269" lon="-0.60372">
        <ele>127.92525</ele>
        <time>2022-12-27T15:18:27.737Z</time>
      </trkpt>
      <trkpt lat="44.4726" lon="-0.60358">
        <ele>127.834971</ele>
        <time>2022-12-27T15:18:30.753Z</time>
      </trkpt>
      <trkpt lat="44.47252" lon="-0.60349">
        <ele>127.770679</ele>
        <time>2022-12-27T15:18:32.742Z</time>
      </trkpt>
      <trkpt lat="44.47245" lon="-0.60338">
        <ele>127.696985</ele>
        <time>2022-12-27T15:18:34.750Z</time>
      </trkpt>
      <trkpt lat="44.47237" lon="-0.60328">
        <ele>127.628464</ele>
        <time>2022-12-27T15:18:36.749Z</time>
      </trkpt>
      <trkpt lat="44.4723" lon="-0.60319">
        <ele>127.561727</ele>
        <time>2022-12-27T15:18:38.750Z</time>
      </trkpt>
      <trkpt lat="44.47222" lon="-0.60308">
        <ele>127.4893</ele>
        <time>2022-12-27T15:18:40.748Z</time>
      </trkpt>
      <trkpt lat="44.47213" lon="-0.60296">
        <ele>127.449587</ele>
        <time>2022-12-27T15:18:43.750Z</time>
      </trkpt>
      <trkpt lat="44.47204" lon="-0.60284">
        <ele>127.518932</ele>
        <time>2022-12-27T15:18:46.750Z</time>
      </trkpt>
      <trkpt lat="44.47195" lon="-0.60271">
        <ele>127.589411</ele>
        <time>2022-12-27T15:18:49.748Z</time>
      </trkpt>
      <trkpt lat="44.47189" lon="-0.6026">
        <ele>127.646254</ele>
        <time>2022-12-27T15:18:51.740Z</time>
      </trkpt>
      <trkpt lat="44.47182" lon="-0.60252">
        <ele>127.697014</ele>
        <time>2022-12-27T15:18:53.733Z</time>
      </trkpt>
      <trkpt lat="44.47174" lon="-0.60243">
        <ele>127.757878</ele>
        <time>2022-12-27T15:18:56.755Z</time>
      </trkpt>
      <trkpt lat="44.47167" lon="-0.60233">
        <ele>127.814729</ele>
        <time>2022-12-27T15:18:58.753Z</time>
      </trkpt>
      <trkpt lat="44.47159" lon="-0.60223">
        <ele>127.870866</ele>
        <time>2022-12-27T15:19:00.754Z</time>
      </trkpt>
      <trkpt lat="44.47153" lon="-0.60213">
        <ele>127.926147</ele>
        <time>2022-12-27T15:19:02.749Z</time>
      </trkpt>
      <trkpt lat="44.47145" lon="-0.60204">
        <ele>127.980793</ele>
        <time>2022-12-27T15:19:04.751Z</time>
      </trkpt>
      <trkpt lat="44.47138" lon="-0.60194">
        <ele>128.040224</ele>
        <time>2022-12-27T15:19:06.756Z</time>
      </trkpt>
      <trkpt lat="44.47131" lon="-0.60185">
        <ele>128.09349</ele>
        <time>2022-12-27T15:19:08.750Z</time>
      </trkpt>
      <trkpt lat="44.47123" lon="-0.60176">
        <ele>128.151129</ele>
        <time>2022-12-27T15:19:10.751Z</time>
      </trkpt>
      <trkpt lat="44.47116" lon="-0.60166">
        <ele>128.207808</ele>
        <time>2022-12-27T15:19:12.746Z</time>
      </trkpt>
      <trkpt lat="44.47108" lon="-0.60156">
        <ele>128.26531</ele>
        <time>2022-12-27T15:19:14.757Z</time>
      </trkpt>
      <trkpt lat="44.47101" lon="-0.60148">
        <ele>128.319002</ele>
        <time>2022-12-27T15:19:16.745Z</time>
      </trkpt>
      <trkpt lat="44.47094" lon="-0.60138">
        <ele>128.374485</ele>
        <time>2022-12-27T15:19:18.747Z</time>
      </trkpt>
      <trkpt lat="44.47087" lon="-0.60129">
        <ele>128.42843</ele>
        <time>2022-12-27T15:19:20.728Z</time>
      </trkpt>
      <trkpt lat="44.4708" lon="-0.60119">
        <ele>128.474436</ele>
        <time>2022-12-27T15:19:22.759Z</time>
      </trkpt>
      <trkpt lat="44.47073" lon="-0.60108">
        <ele>128.516047</ele>
        <time>2022-12-27T15:19:24.753Z</time>
      </trkpt>
      <trkpt lat="44.47065" lon="-0.60098">
        <ele>128.558321</ele>
        <time>2022-12-27T15:19:26.746Z</time>
      </trkpt>
      <trkpt lat="44.47058" lon="-0.60089">
        <ele>128.597723</ele>
        <time>2022-12-27T15:19:28.750Z</time>
      </trkpt>
      <trkpt lat="44.47051" lon="-0.60079">
        <ele>128.639047</ele>
        <time>2022-12-27T15:19:30.753Z</time>
      </trkpt>
      <trkpt lat="44.47044" lon="-0.60069">
        <ele>128.679959</ele>
        <time>2022-12-27T15:19:32.743Z</time>
      </trkpt>
      <trkpt lat="44.47036" lon="-0.60059">
        <ele>128.723334</ele>
        <time>2022-12-27T15:19:34.730Z</time>
      </trkpt>
      <trkpt lat="44.47029" lon="-0.60049">
        <ele>128.765358</ele>
        <time>2022-12-27T15:19:36.736Z</time>
      </trkpt>
      <trkpt lat="44.47022" lon="-0.60038">
        <ele>128.808991</ele>
        <time>2022-12-27T15:19:38.745Z</time>
      </trkpt>
      <trkpt lat="44.47015" lon="-0.60027">
        <ele>128.849686</ele>
        <time>2022-12-27T15:19:40.750Z</time>
      </trkpt>
      <trkpt lat="44.47007" lon="-0.60017">
        <ele>128.892857</ele>
        <time>2022-12-27T15:19:42.754Z</time>
      </trkpt>
      <trkpt lat="44.47" lon="-0.60008">
        <ele>128.932565</ele>
        <time>2022-12-27T15:19:44.749Z</time>
      </trkpt>
      <trkpt lat="44.46989" lon="-0.59994">
        <ele>128.99108</ele>
        <time>2022-12-27T15:19:47.747Z</time>
      </trkpt>
      <trkpt lat="44.46983" lon="-0.59984">
        <ele>129.031012</ele>
        <time>2022-12-27T15:19:49.732Z</time>
      </trkpt>
      <trkpt lat="44.46975" lon="-0.59973">
        <ele>129.075665</ele>
        <time>2022-12-27T15:19:51.731Z</time>
      </trkpt>
      <trkpt lat="44.46964" lon="-0.5996">
        <ele>129.133717</ele>
        <time>2022-12-27T15:19:54.746Z</time>
      </trkpt>
      <trkpt lat="44.46956" lon="-0.59952">
        <ele>129.173</ele>
        <time>2022-12-27T15:19:56.739Z</time>
      </trkpt>
      <trkpt lat="44.46949" lon="-0.59942">
        <ele>129.06913</ele>
        <time>2022-12-27T15:19:58.746Z</time>
      </trkpt>
      <trkpt lat="44.46942" lon="-0.59932">
        <ele>128.956274</ele>
        <time>2022-12-27T15:20:00.758Z</time>
      </trkpt>
      <trkpt lat="44.46933" lon="-0.59918">
        <ele>128.809986</ele>
        <time>2022-12-27T15:20:03.734Z</time>
      </trkpt>
      <trkpt lat="44.46927" lon="-0.59908">
        <ele>128.704499</ele>
        <time>2022-12-27T15:20:05.751Z</time>
      </trkpt>
      <trkpt lat="44.46918" lon="-0.59896">
        <ele>128.56349</ele>
        <time>2022-12-27T15:20:08.744Z</time>
      </trkpt>
      <trkpt lat="44.46907" lon="-0.59883">
        <ele>128.40648</ele>
        <time>2022-12-27T15:20:11.730Z</time>
      </trkpt>
      <trkpt lat="44.46901" lon="-0.59873">
        <ele>128.301749</ele>
        <time>2022-12-27T15:20:13.750Z</time>
      </trkpt>
      <trkpt lat="44.46894" lon="-0.59864">
        <ele>128.19459</ele>
        <time>2022-12-27T15:20:15.746Z</time>
      </trkpt>
      <trkpt lat="44.46887" lon="-0.59854">
        <ele>128.083931</ele>
        <time>2022-12-27T15:20:17.756Z</time>
      </trkpt>
      <trkpt lat="44.4688" lon="-0.59844">
        <ele>127.972099</ele>
        <time>2022-12-27T15:20:19.752Z</time>
      </trkpt>
      <trkpt lat="44.46872" lon="-0.59834">
        <ele>127.860071</ele>
        <time>2022-12-27T15:20:21.747Z</time>
      </trkpt>
      <trkpt lat="44.46865" lon="-0.59824">
        <ele>127.74711</ele>
        <time>2022-12-27T15:20:23.746Z</time>
      </trkpt>
      <trkpt lat="44.46858" lon="-0.59815">
        <ele>127.641282</ele>
        <time>2022-12-27T15:20:25.747Z</time>
      </trkpt>
      <trkpt lat="44.46851" lon="-0.59805">
        <ele>127.529094</ele>
        <time>2022-12-27T15:20:27.753Z</time>
      </trkpt>
      <trkpt lat="44.46844" lon="-0.59795">
        <ele>127.417587</ele>
        <time>2022-12-27T15:20:29.744Z</time>
      </trkpt>
      <trkpt lat="44.46837" lon="-0.59785">
        <ele>127.307178</ele>
        <time>2022-12-27T15:20:31.751Z</time>
      </trkpt>
      <trkpt lat="44.4683" lon="-0.59776">
        <ele>127.203978</ele>
        <time>2022-12-27T15:20:33.750Z</time>
      </trkpt>
      <trkpt lat="44.46824" lon="-0.59768">
        <ele>127.16924</ele>
        <time>2022-12-27T15:20:35.745Z</time>
      </trkpt>
      <trkpt lat="44.46817" lon="-0.59758">
        <ele>127.15792</ele>
        <time>2022-12-27T15:20:37.747Z</time>
      </trkpt>
      <trkpt lat="44.4681" lon="-0.59749">
        <ele>127.145835</ele>
        <time>2022-12-27T15:20:39.750Z</time>
      </trkpt>
      <trkpt lat="44.46803" lon="-0.59739">
        <ele>127.133048</ele>
        <time>2022-12-27T15:20:41.746Z</time>
      </trkpt>
      <trkpt lat="44.46796" lon="-0.59729">
        <ele>127.120991</ele>
        <time>2022-12-27T15:20:43.752Z</time>
      </trkpt>
      <trkpt lat="44.46789" lon="-0.59719">
        <ele>127.107777</ele>
        <time>2022-12-27T15:20:45.754Z</time>
      </trkpt>
      <trkpt lat="44.46782" lon="-0.59709">
        <ele>127.095418</ele>
        <time>2022-12-27T15:20:47.757Z</time>
      </trkpt>
      <trkpt lat="44.46774" lon="-0.59698">
        <ele>127.081926</ele>
        <time>2022-12-27T15:20:49.750Z</time>
      </trkpt>
      <trkpt lat="44.46767" lon="-0.59688">
        <ele>127.069014</ele>
        <time>2022-12-27T15:20:51.729Z</time>
      </trkpt>
      <trkpt lat="44.46759" lon="-0.59677">
        <ele>127.055673</ele>
        <time>2022-12-27T15:20:53.748Z</time>
      </trkpt>
      <trkpt lat="44.46751" lon="-0.59668">
        <ele>127.04264</ele>
        <time>2022-12-27T15:20:55.748Z</time>
      </trkpt>
      <trkpt lat="44.46744" lon="-0.59657">
        <ele>127.029513</ele>
        <time>2022-12-27T15:20:57.762Z</time>
      </trkpt>
      <trkpt lat="44.46737" lon="-0.59647">
        <ele>127.017125</ele>
        <time>2022-12-27T15:20:59.736Z</time>
      </trkpt>
      <trkpt lat="44.4673" lon="-0.59638">
        <ele>127.005163</ele>
        <time>2022-12-27T15:21:01.737Z</time>
      </trkpt>
      <trkpt lat="44.46723" lon="-0.59629">
        <ele>126.993471</ele>
        <time>2022-12-27T15:21:03.748Z</time>
      </trkpt>
      <trkpt lat="44.46716" lon="-0.59619">
        <ele>126.981627</ele>
        <time>2022-12-27T15:21:05.746Z</time>
      </trkpt>
      <trkpt lat="44.4671" lon="-0.5961">
        <ele>126.969961</ele>
        <time>2022-12-27T15:21:07.750Z</time>
      </trkpt>
      <trkpt lat="44.46703" lon="-0.596">
        <ele>126.957715</ele>
        <time>2022-12-27T15:21:09.729Z</time>
      </trkpt>
      <trkpt lat="44.46696" lon="-0.59591">
        <ele>126.985178</ele>
        <time>2022-12-27T15:21:11.737Z</time>
      </trkpt>
      <trkpt lat="44.46689" lon="-0.59582">
        <ele>127.035138</ele>
        <time>2022-12-27T15:21:13.748Z</time>
      </trkpt>
      <trkpt lat="44.46683" lon="-0.59572">
        <ele>127.085641</ele>
        <time>2022-12-27T15:21:15.750Z</time>
      </trkpt>
      <trkpt lat="44.46676" lon="-0.59563">
        <ele>127.134526</ele>
        <time>2022-12-27T15:21:17.747Z</time>
      </trkpt>
      <trkpt lat="44.46667" lon="-0.59551">
        <ele>127.202158</ele>
        <time>2022-12-27T15:21:20.724Z</time>
      </trkpt>
      <trkpt lat="44.46657" lon="-0.59539">
        <ele>127.272248</ele>
        <time>2022-12-27T15:21:23.743Z</time>
      </trkpt>
      <trkpt lat="44.4665" lon="-0.59529">
        <ele>127.321405</ele>
        <time>2022-12-27T15:21:25.751Z</time>
      </trkpt>
      <trkpt lat="44.46644" lon="-0.59521">
        <ele>127.370289</ele>
        <time>2022-12-27T15:21:27.748Z</time>
      </trkpt>
      <trkpt lat="44.46637" lon="-0.59511">
        <ele>127.420619</ele>
        <time>2022-12-27T15:21:29.743Z</time>
      </trkpt>
      <trkpt lat="44.4663" lon="-0.59501">
        <ele>127.471864</ele>
        <time>2022-12-27T15:21:31.732Z</time>
      </trkpt>
      <trkpt lat="44.46624" lon="-0.59492">
        <ele>127.522199</ele>
        <time>2022-12-27T15:21:33.753Z</time>
      </trkpt>
      <trkpt lat="44.46617" lon="-0.59483">
        <ele>127.572891</ele>
        <time>2022-12-27T15:21:35.750Z</time>
      </trkpt>
      <trkpt lat="44.4661" lon="-0.59473">
        <ele>127.624626</ele>
        <time>2022-12-27T15:21:37.750Z</time>
      </trkpt>
      <trkpt lat="44.46603" lon="-0.59464">
        <ele>127.676098</ele>
        <time>2022-12-27T15:21:39.751Z</time>
      </trkpt>
      <trkpt lat="44.46596" lon="-0.59454">
        <ele>127.726989</ele>
        <time>2022-12-27T15:21:41.729Z</time>
      </trkpt>
      <trkpt lat="44.4659" lon="-0.59444">
        <ele>127.777862</ele>
        <time>2022-12-27T15:21:43.745Z</time>
      </trkpt>
      <trkpt lat="44.46583" lon="-0.59434">
        <ele>127.831038</ele>
        <time>2022-12-27T15:21:45.748Z</time>
      </trkpt>
      <trkpt lat="44.46575" lon="-0.59425">
        <ele>127.885481</ele>
        <time>2022-12-27T15:21:47.747Z</time>
      </trkpt>
      <trkpt lat="44.46568" lon="-0.59415">
        <ele>127.922041</ele>
        <time>2022-12-27T15:21:49.734Z</time>
      </trkpt>
      <trkpt lat="44.46561" lon="-0.59406">
        <ele>127.946082</ele>
        <time>2022-12-27T15:21:51.729Z</time>
      </trkpt>
      <trkpt lat="44.46554" lon="-0.59396">
        <ele>127.97174</ele>
        <time>2022-12-27T15:21:53.751Z</time>
      </trkpt>
      <trkpt lat="44.46547" lon="-0.59387">
        <ele>127.996277</ele>
        <time>2022-12-27T15:21:55.750Z</time>
      </trkpt>
      <trkpt lat="44.4654" lon="-0.59378">
        <ele>128.020217</ele>
        <time>2022-12-27T15:21:57.750Z</time>
      </trkpt>
      <trkpt lat="44.46531" lon="-0.59366">
        <ele>128.052368</ele>
        <time>2022-12-27T15:22:00.751Z</time>
      </trkpt>
      <trkpt lat="44.46524" lon="-0.59354">
        <ele>128.08121</ele>
        <time>2022-12-27T15:22:03.747Z</time>
      </trkpt>
      <trkpt lat="44.46515" lon="-0.59342">
        <ele>128.114027</ele>
        <time>2022-12-27T15:22:06.739Z</time>
      </trkpt>
      <trkpt lat="44.46506" lon="-0.59329">
        <ele>128.147513</ele>
        <time>2022-12-27T15:22:09.750Z</time>
      </trkpt>
      <trkpt lat="44.46495" lon="-0.59316">
        <ele>128.182316</ele>
        <time>2022-12-27T15:22:12.753Z</time>
      </trkpt>
      <trkpt lat="44.46488" lon="-0.59308">
        <ele>128.205428</ele>
        <time>2022-12-27T15:22:14.729Z</time>
      </trkpt>
      <trkpt lat="44.46481" lon="-0.59299">
        <ele>128.230469</ele>
        <time>2022-12-27T15:22:16.757Z</time>
      </trkpt>
      <trkpt lat="44.46475" lon="-0.59289">
        <ele>128.25454</ele>
        <time>2022-12-27T15:22:18.751Z</time>
      </trkpt>
      <trkpt lat="44.46468" lon="-0.5928">
        <ele>128.278969</ele>
        <time>2022-12-27T15:22:20.750Z</time>
      </trkpt>
      <trkpt lat="44.46461" lon="-0.5927">
        <ele>128.303969</ele>
        <time>2022-12-27T15:22:22.736Z</time>
      </trkpt>
      <trkpt lat="44.46454" lon="-0.5926">
        <ele>128.329325</ele>
        <time>2022-12-27T15:22:24.750Z</time>
      </trkpt>
      <trkpt lat="44.46447" lon="-0.5925">
        <ele>128.354858</ele>
        <time>2022-12-27T15:22:26.744Z</time>
      </trkpt>
      <trkpt lat="44.4644" lon="-0.59241">
        <ele>128.352031</ele>
        <time>2022-12-27T15:22:28.752Z</time>
      </trkpt>
      <trkpt lat="44.46431" lon="-0.59229">
        <ele>128.298682</ele>
        <time>2022-12-27T15:22:31.730Z</time>
      </trkpt>
      <trkpt lat="44.46423" lon="-0.59218">
        <ele>128.248989</ele>
        <time>2022-12-27T15:22:34.734Z</time>
      </trkpt>
      <trkpt lat="44.46414" lon="-0.59206">
        <ele>128.196796</ele>
        <time>2022-12-27T15:22:37.746Z</time>
      </trkpt>
      <trkpt lat="44.46405" lon="-0.59193">
        <ele>128.140949</ele>
        <time>2022-12-27T15:22:40.745Z</time>
      </trkpt>
      <trkpt lat="44.46395" lon="-0.5918">
        <ele>128.084671</ele>
        <time>2022-12-27T15:22:43.749Z</time>
      </trkpt>
      <trkpt lat="44.46386" lon="-0.59167">
        <ele>128.027177</ele>
        <time>2022-12-27T15:22:46.729Z</time>
      </trkpt>
      <trkpt lat="44.46379" lon="-0.59157">
        <ele>127.985893</ele>
        <time>2022-12-27T15:22:48.743Z</time>
      </trkpt>
      <trkpt lat="44.46372" lon="-0.59148">
        <ele>127.945859</ele>
        <time>2022-12-27T15:22:50.749Z</time>
      </trkpt>
      <trkpt lat="44.46365" lon="-0.59139">
        <ele>127.906343</ele>
        <time>2022-12-27T15:22:52.751Z</time>
      </trkpt>
      <trkpt lat="44.46358" lon="-0.5913">
        <ele>127.865059</ele>
        <time>2022-12-27T15:22:54.740Z</time>
      </trkpt>
      <trkpt lat="44.46349" lon="-0.59117">
        <ele>127.807982</ele>
        <time>2022-12-27T15:22:57.730Z</time>
      </trkpt>
      <trkpt lat="44.46342" lon="-0.59108">
        <ele>127.767948</ele>
        <time>2022-12-27T15:22:59.761Z</time>
      </trkpt>
      <trkpt lat="44.46335" lon="-0.591">
        <ele>127.728542</ele>
        <time>2022-12-27T15:23:01.746Z</time>
      </trkpt>
      <trkpt lat="44.46328" lon="-0.5909">
        <ele>127.688083</ele>
        <time>2022-12-27T15:23:03.750Z</time>
      </trkpt>
      <trkpt lat="44.46321" lon="-0.5908">
        <ele>127.646585</ele>
        <time>2022-12-27T15:23:05.749Z</time>
      </trkpt>
      <trkpt lat="44.46315" lon="-0.59071">
        <ele>127.605819</ele>
        <time>2022-12-27T15:23:07.739Z</time>
      </trkpt>
      <trkpt lat="44.46308" lon="-0.59061">
        <ele>127.615609</ele>
        <time>2022-12-27T15:23:09.750Z</time>
      </trkpt>
      <trkpt lat="44.46301" lon="-0.59051">
        <ele>127.631331</ele>
        <time>2022-12-27T15:23:11.731Z</time>
      </trkpt>
      <trkpt lat="44.46293" lon="-0.59042">
        <ele>127.647597</ele>
        <time>2022-12-27T15:23:13.749Z</time>
      </trkpt>
      <trkpt lat="44.46286" lon="-0.59032">
        <ele>127.663745</ele>
        <time>2022-12-27T15:23:15.748Z</time>
      </trkpt>
      <trkpt lat="44.46279" lon="-0.59022">
        <ele>127.679845</ele>
        <time>2022-12-27T15:23:17.750Z</time>
      </trkpt>
      <trkpt lat="44.46272" lon="-0.59012">
        <ele>127.695923</ele>
        <time>2022-12-27T15:23:19.751Z</time>
      </trkpt>
      <trkpt lat="44.46264" lon="-0.59002">
        <ele>127.71274</ele>
        <time>2022-12-27T15:23:21.731Z</time>
      </trkpt>
      <trkpt lat="44.46257" lon="-0.58991">
        <ele>127.729504</ele>
        <time>2022-12-27T15:23:23.739Z</time>
      </trkpt>
      <trkpt lat="44.4625" lon="-0.58981">
        <ele>127.746296</ele>
        <time>2022-12-27T15:23:25.730Z</time>
      </trkpt>
      <trkpt lat="44.46242" lon="-0.58971">
        <ele>127.763113</ele>
        <time>2022-12-27T15:23:27.750Z</time>
      </trkpt>
      <trkpt lat="44.46235" lon="-0.58962">
        <ele>127.778481</ele>
        <time>2022-12-27T15:23:29.747Z</time>
      </trkpt>
      <trkpt lat="44.46228" lon="-0.58952">
        <ele>127.794398</ele>
        <time>2022-12-27T15:23:31.738Z</time>
      </trkpt>
      <trkpt lat="44.46221" lon="-0.58942">
        <ele>127.811141</ele>
        <time>2022-12-27T15:23:33.750Z</time>
      </trkpt>
      <trkpt lat="44.46213" lon="-0.58931">
        <ele>127.828354</ele>
        <time>2022-12-27T15:23:35.752Z</time>
      </trkpt>
      <trkpt lat="44.46206" lon="-0.58922">
        <ele>127.844387</ele>
        <time>2022-12-27T15:23:37.757Z</time>
      </trkpt>
      <trkpt lat="44.46198" lon="-0.58913">
        <ele>127.860224</ele>
        <time>2022-12-27T15:23:39.751Z</time>
      </trkpt>
      <trkpt lat="44.46191" lon="-0.58902">
        <ele>127.877001</ele>
        <time>2022-12-27T15:23:41.743Z</time>
      </trkpt>
      <trkpt lat="44.46184" lon="-0.58891">
        <ele>127.89473</ele>
        <time>2022-12-27T15:23:43.751Z</time>
      </trkpt>
      <trkpt lat="44.46176" lon="-0.58881">
        <ele>127.918087</ele>
        <time>2022-12-27T15:23:45.733Z</time>
      </trkpt>
      <trkpt lat="44.46169" lon="-0.5887">
        <ele>127.941214</ele>
        <time>2022-12-27T15:23:47.738Z</time>
      </trkpt>
      <trkpt lat="44.46162" lon="-0.5886">
        <ele>127.962794</ele>
        <time>2022-12-27T15:23:49.752Z</time>
      </trkpt>
      <trkpt lat="44.46154" lon="-0.5885">
        <ele>127.984112</ele>
        <time>2022-12-27T15:23:51.728Z</time>
      </trkpt>
      <trkpt lat="44.46147" lon="-0.5884">
        <ele>128.006713</ele>
        <time>2022-12-27T15:23:53.735Z</time>
      </trkpt>
      <trkpt lat="44.46139" lon="-0.58829">
        <ele>128.030073</ele>
        <time>2022-12-27T15:23:55.735Z</time>
      </trkpt>
      <trkpt lat="44.46131" lon="-0.58819">
        <ele>128.053167</ele>
        <time>2022-12-27T15:23:57.760Z</time>
      </trkpt>
      <trkpt lat="44.46124" lon="-0.58809">
        <ele>128.075658</ele>
        <time>2022-12-27T15:23:59.750Z</time>
      </trkpt>
      <trkpt lat="44.46117" lon="-0.58799">
        <ele>128.097028</ele>
        <time>2022-12-27T15:24:01.742Z</time>
      </trkpt>
      <trkpt lat="44.46109" lon="-0.5879">
        <ele>128.118343</ele>
        <time>2022-12-27T15:24:03.744Z</time>
      </trkpt>
      <trkpt lat="44.46103" lon="-0.58781">
        <ele>128.137795</ele>
        <time>2022-12-27T15:24:05.753Z</time>
      </trkpt>
      <trkpt lat="44.46093" lon="-0.58768">
        <ele>128.166079</ele>
        <time>2022-12-27T15:24:08.750Z</time>
      </trkpt>
      <trkpt lat="44.46087" lon="-0.58759">
        <ele>128.186791</ele>
        <time>2022-12-27T15:24:10.753Z</time>
      </trkpt>
      <trkpt lat="44.4608" lon="-0.5875">
        <ele>128.207057</ele>
        <time>2022-12-27T15:24:12.749Z</time>
      </trkpt>
      <trkpt lat="44.46073" lon="-0.5874">
        <ele>128.22764</ele>
        <time>2022-12-27T15:24:14.753Z</time>
      </trkpt>
      <trkpt lat="44.46066" lon="-0.58731">
        <ele>128.248544</ele>
        <time>2022-12-27T15:24:16.751Z</time>
      </trkpt>
      <trkpt lat="44.46059" lon="-0.58722">
        <ele>128.269755</ele>
        <time>2022-12-27T15:24:18.751Z</time>
      </trkpt>
      <trkpt lat="44.46051" lon="-0.58711">
        <ele>128.279873</ele>
        <time>2022-12-27T15:24:20.754Z</time>
      </trkpt>
      <trkpt lat="44.46044" lon="-0.58701">
        <ele>128.284289</ele>
        <time>2022-12-27T15:24:22.749Z</time>
      </trkpt>
      <trkpt lat="44.46037" lon="-0.5869">
        <ele>128.288765</ele>
        <time>2022-12-27T15:24:24.750Z</time>
      </trkpt>
      <trkpt lat="44.46029" lon="-0.5868">
        <ele>128.29324</ele>
        <time>2022-12-27T15:24:26.755Z</time>
      </trkpt>
      <trkpt lat="44.46022" lon="-0.58669">
        <ele>128.297846</ele>
        <time>2022-12-27T15:24:28.749Z</time>
      </trkpt>
      <trkpt lat="44.46014" lon="-0.58659">
        <ele>128.302342</ele>
        <time>2022-12-27T15:24:30.752Z</time>
      </trkpt>
      <trkpt lat="44.46007" lon="-0.5865">
        <ele>128.30662</ele>
        <time>2022-12-27T15:24:32.751Z</time>
      </trkpt>
      <trkpt lat="44.45999" lon="-0.5864">
        <ele>128.310929</ele>
        <time>2022-12-27T15:24:34.749Z</time>
      </trkpt>
      <trkpt lat="44.45992" lon="-0.5863">
        <ele>128.315302</ele>
        <time>2022-12-27T15:24:36.745Z</time>
      </trkpt>
      <trkpt lat="44.45985" lon="-0.5862">
        <ele>128.319569</ele>
        <time>2022-12-27T15:24:38.745Z</time>
      </trkpt>
      <trkpt lat="44.45977" lon="-0.5861">
        <ele>128.323992</ele>
        <time>2022-12-27T15:24:40.756Z</time>
      </trkpt>
      <trkpt lat="44.4597" lon="-0.586">
        <ele>128.328341</ele>
        <time>2022-12-27T15:24:42.749Z</time>
      </trkpt>
      <trkpt lat="44.45963" lon="-0.58589">
        <ele>128.332683</ele>
        <time>2022-12-27T15:24:44.729Z</time>
      </trkpt>
      <trkpt lat="44.45956" lon="-0.58579">
        <ele>128.337127</ele>
        <time>2022-12-27T15:24:46.748Z</time>
      </trkpt>
      <trkpt lat="44.45949" lon="-0.58569">
        <ele>128.341531</ele>
        <time>2022-12-27T15:24:48.750Z</time>
      </trkpt>
      <trkpt lat="44.45942" lon="-0.58558">
        <ele>128.345887</ele>
        <time>2022-12-27T15:24:50.762Z</time>
      </trkpt>
      <trkpt lat="44.45934" lon="-0.58549">
        <ele>128.3503</ele>
        <time>2022-12-27T15:24:52.747Z</time>
      </trkpt>
      <trkpt lat="44.45926" lon="-0.58538">
        <ele>128.334061</ele>
        <time>2022-12-27T15:24:54.753Z</time>
      </trkpt>
      <trkpt lat="44.45919" lon="-0.58528">
        <ele>128.264827</ele>
        <time>2022-12-27T15:24:56.754Z</time>
      </trkpt>
      <trkpt lat="44.45911" lon="-0.58517">
        <ele>128.193948</ele>
        <time>2022-12-27T15:24:58.754Z</time>
      </trkpt>
      <trkpt lat="44.45904" lon="-0.58507">
        <ele>128.124388</ele>
        <time>2022-12-27T15:25:00.747Z</time>
      </trkpt>
      <trkpt lat="44.45896" lon="-0.58497">
        <ele>128.055788</ele>
        <time>2022-12-27T15:25:02.751Z</time>
      </trkpt>
      <trkpt lat="44.45888" lon="-0.58487">
        <ele>127.985606</ele>
        <time>2022-12-27T15:25:04.750Z</time>
      </trkpt>
      <trkpt lat="44.4588" lon="-0.58476">
        <ele>127.915576</ele>
        <time>2022-12-27T15:25:06.752Z</time>
      </trkpt>
      <trkpt lat="44.45873" lon="-0.58467">
        <ele>127.850174</ele>
        <time>2022-12-27T15:25:08.745Z</time>
      </trkpt>
      <trkpt lat="44.45867" lon="-0.58457">
        <ele>127.789833</ele>
        <time>2022-12-27T15:25:10.756Z</time>
      </trkpt>
      <trkpt lat="44.4586" lon="-0.58448">
        <ele>127.730176</ele>
        <time>2022-12-27T15:25:12.749Z</time>
      </trkpt>
      <trkpt lat="44.45851" lon="-0.58435">
        <ele>127.644672</ele>
        <time>2022-12-27T15:25:15.745Z</time>
      </trkpt>
      <trkpt lat="44.45841" lon="-0.58422">
        <ele>127.554215</ele>
        <time>2022-12-27T15:25:18.729Z</time>
      </trkpt>
      <trkpt lat="44.45834" lon="-0.58412">
        <ele>127.491667</ele>
        <time>2022-12-27T15:25:20.751Z</time>
      </trkpt>
      <trkpt lat="44.45828" lon="-0.58402">
        <ele>127.427118</ele>
        <time>2022-12-27T15:25:22.747Z</time>
      </trkpt>
      <trkpt lat="44.45821" lon="-0.58393">
        <ele>127.363953</ele>
        <time>2022-12-27T15:25:24.739Z</time>
      </trkpt>
      <trkpt lat="44.45814" lon="-0.58384">
        <ele>127.301262</ele>
        <time>2022-12-27T15:25:26.749Z</time>
      </trkpt>
      <trkpt lat="44.45806" lon="-0.58374">
        <ele>127.236342</ele>
        <time>2022-12-27T15:25:28.748Z</time>
      </trkpt>
      <trkpt lat="44.45799" lon="-0.58365">
        <ele>127.17662</ele>
        <time>2022-12-27T15:25:30.751Z</time>
      </trkpt>
      <trkpt lat="44.45792" lon="-0.58355">
        <ele>127.185339</ele>
        <time>2022-12-27T15:25:32.748Z</time>
      </trkpt>
      <trkpt lat="44.45785" lon="-0.58344">
        <ele>127.193949</ele>
        <time>2022-12-27T15:25:34.750Z</time>
      </trkpt>
      <trkpt lat="44.45777" lon="-0.58335">
        <ele>127.202521</ele>
        <time>2022-12-27T15:25:36.749Z</time>
      </trkpt>
      <trkpt lat="44.4577" lon="-0.58325">
        <ele>127.21132</ele>
        <time>2022-12-27T15:25:38.730Z</time>
      </trkpt>
      <trkpt lat="44.45762" lon="-0.58315">
        <ele>127.220037</ele>
        <time>2022-12-27T15:25:40.751Z</time>
      </trkpt>
      <trkpt lat="44.45755" lon="-0.58304">
        <ele>127.229059</ele>
        <time>2022-12-27T15:25:42.734Z</time>
      </trkpt>
      <trkpt lat="44.45748" lon="-0.58294">
        <ele>127.237699</ele>
        <time>2022-12-27T15:25:44.754Z</time>
      </trkpt>
      <trkpt lat="44.45741" lon="-0.58284">
        <ele>127.246314</ele>
        <time>2022-12-27T15:25:46.751Z</time>
      </trkpt>
      <trkpt lat="44.45734" lon="-0.58274">
        <ele>127.255071</ele>
        <time>2022-12-27T15:25:48.748Z</time>
      </trkpt>
      <trkpt lat="44.45726" lon="-0.58264">
        <ele>127.263893</ele>
        <time>2022-12-27T15:25:50.754Z</time>
      </trkpt>
      <trkpt lat="44.45719" lon="-0.58254">
        <ele>127.272819</ele>
        <time>2022-12-27T15:25:52.749Z</time>
      </trkpt>
      <trkpt lat="44.45712" lon="-0.58244">
        <ele>127.28133</ele>
        <time>2022-12-27T15:25:54.728Z</time>
      </trkpt>
      <trkpt lat="44.45705" lon="-0.58234">
        <ele>127.289781</ele>
        <time>2022-12-27T15:25:56.752Z</time>
      </trkpt>
      <trkpt lat="44.45698" lon="-0.58224">
        <ele>127.298269</ele>
        <time>2022-12-27T15:25:58.752Z</time>
      </trkpt>
      <trkpt lat="44.4569" lon="-0.58215">
        <ele>127.306637</ele>
        <time>2022-12-27T15:26:00.748Z</time>
      </trkpt>
      <trkpt lat="44.45683" lon="-0.58205">
        <ele>127.315234</ele>
        <time>2022-12-27T15:26:02.748Z</time>
      </trkpt>
      <trkpt lat="44.45676" lon="-0.58195">
        <ele>127.323978</ele>
        <time>2022-12-27T15:26:04.743Z</time>
      </trkpt>
      <trkpt lat="44.45669" lon="-0.58185">
        <ele>127.30783</ele>
        <time>2022-12-27T15:26:06.750Z</time>
      </trkpt>
      <trkpt lat="44.45662" lon="-0.58175">
        <ele>127.25192</ele>
        <time>2022-12-27T15:26:08.752Z</time>
      </trkpt>
      <trkpt lat="44.45654" lon="-0.58165">
        <ele>127.192955</ele>
        <time>2022-12-27T15:26:10.747Z</time>
      </trkpt>
      <trkpt lat="44.45647" lon="-0.58156">
        <ele>127.135114</ele>
        <time>2022-12-27T15:26:12.756Z</time>
      </trkpt>
      <trkpt lat="44.4564" lon="-0.58146">
        <ele>127.077819</ele>
        <time>2022-12-27T15:26:14.746Z</time>
      </trkpt>
      <trkpt lat="44.45632" lon="-0.58136">
        <ele>127.019699</ele>
        <time>2022-12-27T15:26:16.754Z</time>
      </trkpt>
      <trkpt lat="44.45625" lon="-0.58125">
        <ele>126.956983</ele>
        <time>2022-12-27T15:26:18.745Z</time>
      </trkpt>
      <trkpt lat="44.45617" lon="-0.58115">
        <ele>126.897194</ele>
        <time>2022-12-27T15:26:20.767Z</time>
      </trkpt>
      <trkpt lat="44.45609" lon="-0.58105">
        <ele>126.837543</ele>
        <time>2022-12-27T15:26:22.730Z</time>
      </trkpt>
      <trkpt lat="44.45601" lon="-0.58095">
        <ele>126.777197</ele>
        <time>2022-12-27T15:26:24.751Z</time>
      </trkpt>
      <trkpt lat="44.45594" lon="-0.58086">
        <ele>126.721301</ele>
        <time>2022-12-27T15:26:26.753Z</time>
      </trkpt>
      <trkpt lat="44.45587" lon="-0.58075">
        <ele>126.660311</ele>
        <time>2022-12-27T15:26:28.746Z</time>
      </trkpt>
      <trkpt lat="44.4558" lon="-0.58065">
        <ele>126.602268</ele>
        <time>2022-12-27T15:26:30.750Z</time>
      </trkpt>
      <trkpt lat="44.45572" lon="-0.58054">
        <ele>126.541966</ele>
        <time>2022-12-27T15:26:32.747Z</time>
      </trkpt>
      <trkpt lat="44.45565" lon="-0.58044">
        <ele>126.480469</ele>
        <time>2022-12-27T15:26:34.751Z</time>
      </trkpt>
      <trkpt lat="44.45557" lon="-0.58033">
        <ele>126.419832</ele>
        <time>2022-12-27T15:26:36.749Z</time>
      </trkpt>
      <trkpt lat="44.4555" lon="-0.58023">
        <ele>126.360323</ele>
        <time>2022-12-27T15:26:38.750Z</time>
      </trkpt>
      <trkpt lat="44.45543" lon="-0.58012">
        <ele>126.304427</ele>
        <time>2022-12-27T15:26:40.753Z</time>
      </trkpt>
      <trkpt lat="44.45535" lon="-0.58003">
        <ele>126.335761</ele>
        <time>2022-12-27T15:26:42.730Z</time>
      </trkpt>
      <trkpt lat="44.45528" lon="-0.57992">
        <ele>126.368585</ele>
        <time>2022-12-27T15:26:44.745Z</time>
      </trkpt>
      <trkpt lat="44.45521" lon="-0.57982">
        <ele>126.401309</ele>
        <time>2022-12-27T15:26:46.749Z</time>
      </trkpt>
      <trkpt lat="44.45513" lon="-0.57973">
        <ele>126.433955</ele>
        <time>2022-12-27T15:26:48.746Z</time>
      </trkpt>
      <trkpt lat="44.45506" lon="-0.57962">
        <ele>126.468029</ele>
        <time>2022-12-27T15:26:50.747Z</time>
      </trkpt>
      <trkpt lat="44.45498" lon="-0.57952">
        <ele>126.500469</ele>
        <time>2022-12-27T15:26:52.728Z</time>
      </trkpt>
      <trkpt lat="44.45491" lon="-0.57942">
        <ele>126.532657</ele>
        <time>2022-12-27T15:26:54.751Z</time>
      </trkpt>
      <trkpt lat="44.45484" lon="-0.57932">
        <ele>126.562606</ele>
        <time>2022-12-27T15:26:56.750Z</time>
      </trkpt>
      <trkpt lat="44.45474" lon="-0.57919">
        <ele>126.605519</ele>
        <time>2022-12-27T15:26:59.751Z</time>
      </trkpt>
      <trkpt lat="44.45466" lon="-0.57907">
        <ele>126.64391</ele>
        <time>2022-12-27T15:27:02.749Z</time>
      </trkpt>
      <trkpt lat="44.45457" lon="-0.57896">
        <ele>126.682349</ele>
        <time>2022-12-27T15:27:05.749Z</time>
      </trkpt>
      <trkpt lat="44.45448" lon="-0.57883">
        <ele>126.722883</ele>
        <time>2022-12-27T15:27:08.754Z</time>
      </trkpt>
      <trkpt lat="44.45441" lon="-0.57874">
        <ele>126.751905</ele>
        <time>2022-12-27T15:27:10.730Z</time>
      </trkpt>
      <trkpt lat="44.45434" lon="-0.57865">
        <ele>126.782545</ele>
        <time>2022-12-27T15:27:12.750Z</time>
      </trkpt>
      <trkpt lat="44.45427" lon="-0.57856">
        <ele>126.811955</ele>
        <time>2022-12-27T15:27:14.750Z</time>
      </trkpt>
      <trkpt lat="44.4542" lon="-0.57847">
        <ele>126.843449</ele>
        <time>2022-12-27T15:27:16.755Z</time>
      </trkpt>
      <trkpt lat="44.45413" lon="-0.57837">
        <ele>126.878945</ele>
        <time>2022-12-27T15:27:18.757Z</time>
      </trkpt>
      <trkpt lat="44.45406" lon="-0.57828">
        <ele>126.973079</ele>
        <time>2022-12-27T15:27:20.736Z</time>
      </trkpt>
      <trkpt lat="44.45399" lon="-0.57818">
        <ele>127.065854</ele>
        <time>2022-12-27T15:27:22.757Z</time>
      </trkpt>
      <trkpt lat="44.45392" lon="-0.57807">
        <ele>127.166209</ele>
        <time>2022-12-27T15:27:24.731Z</time>
      </trkpt>
      <trkpt lat="44.45385" lon="-0.57796">
        <ele>127.264548</ele>
        <time>2022-12-27T15:27:26.751Z</time>
      </trkpt>
      <trkpt lat="44.45378" lon="-0.57787">
        <ele>127.358682</ele>
        <time>2022-12-27T15:27:28.749Z</time>
      </trkpt>
      <trkpt lat="44.45371" lon="-0.57778">
        <ele>127.448625</ele>
        <time>2022-12-27T15:27:30.732Z</time>
      </trkpt>
      <trkpt lat="44.45364" lon="-0.57768">
        <ele>127.540378</ele>
        <time>2022-12-27T15:27:32.742Z</time>
      </trkpt>
      <trkpt lat="44.45358" lon="-0.57759">
        <ele>127.629993</ele>
        <time>2022-12-27T15:27:34.748Z</time>
      </trkpt>
      <trkpt lat="44.45349" lon="-0.57746">
        <ele>127.749406</ele>
        <time>2022-12-27T15:27:37.748Z</time>
      </trkpt>
      <trkpt lat="44.45342" lon="-0.57734">
        <ele>127.854342</ele>
        <time>2022-12-27T15:27:40.752Z</time>
      </trkpt>
      <trkpt lat="44.45335" lon="-0.57723">
        <ele>127.953494</ele>
        <time>2022-12-27T15:27:43.740Z</time>
      </trkpt>
      <trkpt lat="44.45327" lon="-0.57712">
        <ele>128.064127</ele>
        <time>2022-12-27T15:27:46.753Z</time>
      </trkpt>
      <trkpt lat="44.45319" lon="-0.57699">
        <ele>128.181275</ele>
        <time>2022-12-27T15:27:49.752Z</time>
      </trkpt>
      <trkpt lat="44.45311" lon="-0.57685">
        <ele>128.299629</ele>
        <time>2022-12-27T15:27:52.751Z</time>
      </trkpt>
      <trkpt lat="44.45303" lon="-0.57672">
        <ele>128.417906</ele>
        <time>2022-12-27T15:27:55.750Z</time>
      </trkpt>
      <trkpt lat="44.45296" lon="-0.57658">
        <ele>128.531581</ele>
        <time>2022-12-27T15:27:58.750Z</time>
      </trkpt>
      <trkpt lat="44.4529" lon="-0.57647">
        <ele>128.620274</ele>
        <time>2022-12-27T15:28:01.730Z</time>
      </trkpt>
      <trkpt lat="44.45284" lon="-0.57638">
        <ele>128.686193</ele>
        <time>2022-12-27T15:28:04.750Z</time>
      </trkpt>
      <trkpt lat="44.45278" lon="-0.57627">
        <ele>128.754213</ele>
        <time>2022-12-27T15:28:07.751Z</time>
      </trkpt>
      <trkpt lat="44.45274" lon="-0.57614">
        <ele>128.826434</ele>
        <time>2022-12-27T15:28:10.754Z</time>
      </trkpt>
      <trkpt lat="44.45268" lon="-0.57602">
        <ele>128.903698</ele>
        <time>2022-12-27T15:28:13.733Z</time>
      </trkpt>
      <trkpt lat="44.45262" lon="-0.57588">
        <ele>128.986699</ele>
        <time>2022-12-27T15:28:16.750Z</time>
      </trkpt>
      <trkpt lat="44.45257" lon="-0.57572">
        <ele>129.07724</ele>
        <time>2022-12-27T15:28:19.753Z</time>
      </trkpt>
      <trkpt lat="44.45252" lon="-0.57557">
        <ele>129.164116</ele>
        <time>2022-12-27T15:28:22.729Z</time>
      </trkpt>
      <trkpt lat="44.45247" lon="-0.57541">
        <ele>129.250236</ele>
        <time>2022-12-27T15:28:25.746Z</time>
      </trkpt>
      <trkpt lat="44.45241" lon="-0.57526">
        <ele>129.343599</ele>
        <time>2022-12-27T15:28:28.750Z</time>
      </trkpt>
      <trkpt lat="44.45236" lon="-0.57509">
        <ele>129.435883</ele>
        <time>2022-12-27T15:28:31.749Z</time>
      </trkpt>
      <trkpt lat="44.45231" lon="-0.57497">
        <ele>129.509802</ele>
        <time>2022-12-27T15:28:33.750Z</time>
      </trkpt>
      <trkpt lat="44.45227" lon="-0.57485">
        <ele>129.577041</ele>
        <time>2022-12-27T15:28:35.750Z</time>
      </trkpt>
      <trkpt lat="44.45221" lon="-0.57468">
        <ele>129.677366</ele>
        <time>2022-12-27T15:28:38.753Z</time>
      </trkpt>
      <trkpt lat="44.45217" lon="-0.57455">
        <ele>129.746699</ele>
        <time>2022-12-27T15:28:40.736Z</time>
      </trkpt>
      <trkpt lat="44.45213" lon="-0.57443">
        <ele>129.818135</ele>
        <time>2022-12-27T15:28:42.751Z</time>
      </trkpt>
      <trkpt lat="44.45209" lon="-0.5743">
        <ele>129.886042</ele>
        <time>2022-12-27T15:28:44.734Z</time>
      </trkpt>
      <trkpt lat="44.45204" lon="-0.57412">
        <ele>129.771838</ele>
        <time>2022-12-27T15:28:47.731Z</time>
      </trkpt>
      <trkpt lat="44.45199" lon="-0.57399">
        <ele>129.681247</ele>
        <time>2022-12-27T15:28:49.735Z</time>
      </trkpt>
      <trkpt lat="44.45194" lon="-0.57386">
        <ele>129.594261</ele>
        <time>2022-12-27T15:28:51.731Z</time>
      </trkpt>
      <trkpt lat="44.45189" lon="-0.57375">
        <ele>129.513943</ele>
        <time>2022-12-27T15:28:53.748Z</time>
      </trkpt>
      <trkpt lat="44.45185" lon="-0.57362">
        <ele>129.429995</ele>
        <time>2022-12-27T15:28:55.749Z</time>
      </trkpt>
      <trkpt lat="44.4518" lon="-0.5735">
        <ele>129.345276</ele>
        <time>2022-12-27T15:28:57.752Z</time>
      </trkpt>
      <trkpt lat="44.45176" lon="-0.57338">
        <ele>129.263637</ele>
        <time>2022-12-27T15:28:59.731Z</time>
      </trkpt>
      <trkpt lat="44.45171" lon="-0.57325">
        <ele>129.176242</ele>
        <time>2022-12-27T15:29:01.730Z</time>
      </trkpt>
      <trkpt lat="44.45167" lon="-0.5731">
        <ele>129.078247</ele>
        <time>2022-12-27T15:29:04.752Z</time>
      </trkpt>
      <trkpt lat="44.45161" lon="-0.57294">
        <ele>128.970588</ele>
        <time>2022-12-27T15:29:07.745Z</time>
      </trkpt>
      <trkpt lat="44.45156" lon="-0.57278">
        <ele>128.860567</ele>
        <time>2022-12-27T15:29:10.754Z</time>
      </trkpt>
      <trkpt lat="44.45151" lon="-0.5726">
        <ele>128.744855</ele>
        <time>2022-12-27T15:29:13.750Z</time>
      </trkpt>
      <trkpt lat="44.45146" lon="-0.57242">
        <ele>128.62895</ele>
        <time>2022-12-27T15:29:16.737Z</time>
      </trkpt>
      <trkpt lat="44.45143" lon="-0.57229">
        <ele>128.547789</ele>
        <time>2022-12-27T15:29:18.736Z</time>
      </trkpt>
      <trkpt lat="44.4514" lon="-0.57216">
        <ele>128.462562</ele>
        <time>2022-12-27T15:29:20.728Z</time>
      </trkpt>
      <trkpt lat="44.45138" lon="-0.57202">
        <ele>128.374096</ele>
        <time>2022-12-27T15:29:22.752Z</time>
      </trkpt>
      <trkpt lat="44.45136" lon="-0.57189">
        <ele>128.253828</ele>
        <time>2022-12-27T15:29:24.731Z</time>
      </trkpt>
      <trkpt lat="44.45135" lon="-0.57176">
        <ele>128.125477</ele>
        <time>2022-12-27T15:29:26.750Z</time>
      </trkpt>
      <trkpt lat="44.45133" lon="-0.57162">
        <ele>127.98161</ele>
        <time>2022-12-27T15:29:28.755Z</time>
      </trkpt>
      <trkpt lat="44.45131" lon="-0.57146">
        <ele>127.821543</ele>
        <time>2022-12-27T15:29:30.749Z</time>
      </trkpt>
      <trkpt lat="44.45129" lon="-0.57131">
        <ele>127.667115</ele>
        <time>2022-12-27T15:29:32.750Z</time>
      </trkpt>
      <trkpt lat="44.45126" lon="-0.57116">
        <ele>127.512814</ele>
        <time>2022-12-27T15:29:34.735Z</time>
      </trkpt>
      <trkpt lat="44.45123" lon="-0.571">
        <ele>127.357824</ele>
        <time>2022-12-27T15:29:36.756Z</time>
      </trkpt>
      <trkpt lat="44.45121" lon="-0.57087">
        <ele>127.216397</ele>
        <time>2022-12-27T15:29:38.741Z</time>
      </trkpt>
      <trkpt lat="44.45119" lon="-0.57074">
        <ele>127.086219</ele>
        <time>2022-12-27T15:29:40.753Z</time>
      </trkpt>
      <trkpt lat="44.45116" lon="-0.5706">
        <ele>126.944139</ele>
        <time>2022-12-27T15:29:42.751Z</time>
      </trkpt>
      <trkpt lat="44.45114" lon="-0.57046">
        <ele>126.798835</ele>
        <time>2022-12-27T15:29:44.754Z</time>
      </trkpt>
      <trkpt lat="44.45112" lon="-0.57032">
        <ele>126.656442</ele>
        <time>2022-12-27T15:29:46.755Z</time>
      </trkpt>
      <trkpt lat="44.45109" lon="-0.57018">
        <ele>126.517555</ele>
        <time>2022-12-27T15:29:48.751Z</time>
      </trkpt>
      <trkpt lat="44.45107" lon="-0.57003">
        <ele>126.368065</ele>
        <time>2022-12-27T15:29:50.744Z</time>
      </trkpt>
      <trkpt lat="44.45105" lon="-0.56987">
        <ele>126.206319</ele>
        <time>2022-12-27T15:29:52.735Z</time>
      </trkpt>
      <trkpt lat="44.45103" lon="-0.56972">
        <ele>126.057018</ele>
        <time>2022-12-27T15:29:54.745Z</time>
      </trkpt>
      <trkpt lat="44.45101" lon="-0.56958">
        <ele>125.906994</ele>
        <time>2022-12-27T15:29:56.747Z</time>
      </trkpt>
      <trkpt lat="44.45099" lon="-0.56943">
        <ele>125.897096</ele>
        <time>2022-12-27T15:29:58.749Z</time>
      </trkpt>
      <trkpt lat="44.45096" lon="-0.56927">
        <ele>125.949669</ele>
        <time>2022-12-27T15:30:00.748Z</time>
      </trkpt>
      <trkpt lat="44.45094" lon="-0.56912">
        <ele>125.999666</ele>
        <time>2022-12-27T15:30:02.746Z</time>
      </trkpt>
      <trkpt lat="44.45092" lon="-0.56897">
        <ele>126.049432</ele>
        <time>2022-12-27T15:30:04.749Z</time>
      </trkpt>
      <trkpt lat="44.4509" lon="-0.56882">
        <ele>126.099476</ele>
        <time>2022-12-27T15:30:06.749Z</time>
      </trkpt>
      <trkpt lat="44.45087" lon="-0.56867">
        <ele>126.149727</ele>
        <time>2022-12-27T15:30:08.750Z</time>
      </trkpt>
      <trkpt lat="44.45086" lon="-0.56852">
        <ele>126.20053</ele>
        <time>2022-12-27T15:30:10.730Z</time>
      </trkpt>
      <trkpt lat="44.45083" lon="-0.56836">
        <ele>126.252706</ele>
        <time>2022-12-27T15:30:12.750Z</time>
      </trkpt>
      <trkpt lat="44.45081" lon="-0.56821">
        <ele>126.303664</ele>
        <time>2022-12-27T15:30:14.752Z</time>
      </trkpt>
      <trkpt lat="44.45079" lon="-0.56806">
        <ele>126.35381</ele>
        <time>2022-12-27T15:30:16.752Z</time>
      </trkpt>
      <trkpt lat="44.45077" lon="-0.5679">
        <ele>126.405577</ele>
        <time>2022-12-27T15:30:18.756Z</time>
      </trkpt>
      <trkpt lat="44.45074" lon="-0.56776">
        <ele>126.453298</ele>
        <time>2022-12-27T15:30:20.749Z</time>
      </trkpt>
      <trkpt lat="44.45072" lon="-0.56761">
        <ele>126.500971</ele>
        <time>2022-12-27T15:30:22.733Z</time>
      </trkpt>
      <trkpt lat="44.45071" lon="-0.56748">
        <ele>126.544638</ele>
        <time>2022-12-27T15:30:24.735Z</time>
      </trkpt>
      <trkpt lat="44.45069" lon="-0.56736">
        <ele>126.586383</ele>
        <time>2022-12-27T15:30:26.755Z</time>
      </trkpt>
      <trkpt lat="44.45067" lon="-0.56718">
        <ele>126.645045</ele>
        <time>2022-12-27T15:30:29.751Z</time>
      </trkpt>
      <trkpt lat="44.45065" lon="-0.56705">
        <ele>126.684155</ele>
        <time>2022-12-27T15:30:31.729Z</time>
      </trkpt>
      <trkpt lat="44.45063" lon="-0.56692">
        <ele>126.687722</ele>
        <time>2022-12-27T15:30:33.731Z</time>
      </trkpt>
      <trkpt lat="44.45061" lon="-0.56673">
        <ele>126.692811</ele>
        <time>2022-12-27T15:30:36.748Z</time>
      </trkpt>
      <trkpt lat="44.45058" lon="-0.56657">
        <ele>126.6971</ele>
        <time>2022-12-27T15:30:38.732Z</time>
      </trkpt>
      <trkpt lat="44.45056" lon="-0.56643">
        <ele>126.70093</ele>
        <time>2022-12-27T15:30:40.750Z</time>
      </trkpt>
      <trkpt lat="44.45054" lon="-0.56628">
        <ele>126.705047</ele>
        <time>2022-12-27T15:30:42.751Z</time>
      </trkpt>
      <trkpt lat="44.4505" lon="-0.56607">
        <ele>126.710696</ele>
        <time>2022-12-27T15:30:45.749Z</time>
      </trkpt>
      <trkpt lat="44.45048" lon="-0.56593">
        <ele>126.714351</ele>
        <time>2022-12-27T15:30:47.751Z</time>
      </trkpt>
      <trkpt lat="44.45046" lon="-0.56579">
        <ele>126.718161</ele>
        <time>2022-12-27T15:30:49.745Z</time>
      </trkpt>
      <trkpt lat="44.45045" lon="-0.56563">
        <ele>126.72256</ele>
        <time>2022-12-27T15:30:51.752Z</time>
      </trkpt>
      <trkpt lat="44.45042" lon="-0.56548">
        <ele>126.726712</ele>
        <time>2022-12-27T15:30:53.750Z</time>
      </trkpt>
      <trkpt lat="44.4504" lon="-0.56535">
        <ele>126.730178</ele>
        <time>2022-12-27T15:30:55.749Z</time>
      </trkpt>
      <trkpt lat="44.45038" lon="-0.5652">
        <ele>126.734145</ele>
        <time>2022-12-27T15:30:57.751Z</time>
      </trkpt>
      <trkpt lat="44.45036" lon="-0.56505">
        <ele>126.73836</ele>
        <time>2022-12-27T15:30:59.741Z</time>
      </trkpt>
      <trkpt lat="44.45034" lon="-0.56488">
        <ele>126.742718</ele>
        <time>2022-12-27T15:31:01.748Z</time>
      </trkpt>
      <trkpt lat="44.45031" lon="-0.56474">
        <ele>126.74669</ele>
        <time>2022-12-27T15:31:03.751Z</time>
      </trkpt>
      <trkpt lat="44.45029" lon="-0.56459">
        <ele>126.749391</ele>
        <time>2022-12-27T15:31:05.751Z</time>
      </trkpt>
      <trkpt lat="44.45027" lon="-0.56445">
        <ele>126.718281</ele>
        <time>2022-12-27T15:31:07.752Z</time>
      </trkpt>
      <trkpt lat="44.45026" lon="-0.56431">
        <ele>126.686517</ele>
        <time>2022-12-27T15:31:09.750Z</time>
      </trkpt>
      <trkpt lat="44.45023" lon="-0.56417">
        <ele>126.653537</ele>
        <time>2022-12-27T15:31:11.732Z</time>
      </trkpt>
      <trkpt lat="44.45021" lon="-0.56402">
        <ele>126.62062</ele>
        <time>2022-12-27T15:31:13.750Z</time>
      </trkpt>
      <trkpt lat="44.45019" lon="-0.56386">
        <ele>126.584973</ele>
        <time>2022-12-27T15:31:15.751Z</time>
      </trkpt>
      <trkpt lat="44.45018" lon="-0.56372">
        <ele>126.553325</ele>
        <time>2022-12-27T15:31:17.755Z</time>
      </trkpt>
      <trkpt lat="44.45016" lon="-0.56359">
        <ele>126.522494</ele>
        <time>2022-12-27T15:31:19.753Z</time>
      </trkpt>
      <trkpt lat="44.45014" lon="-0.56346">
        <ele>126.492652</ele>
        <time>2022-12-27T15:31:21.749Z</time>
      </trkpt>
      <trkpt lat="44.45012" lon="-0.56333">
        <ele>126.464299</ele>
        <time>2022-12-27T15:31:23.748Z</time>
      </trkpt>
      <trkpt lat="44.4501" lon="-0.56321">
        <ele>126.435946</ele>
        <time>2022-12-27T15:31:25.751Z</time>
      </trkpt>
      <trkpt lat="44.45008" lon="-0.56308">
        <ele>126.406577</ele>
        <time>2022-12-27T15:31:27.749Z</time>
      </trkpt>
      <trkpt lat="44.45006" lon="-0.56295">
        <ele>126.377611</ele>
        <time>2022-12-27T15:31:29.748Z</time>
      </trkpt>
      <trkpt lat="44.45004" lon="-0.56282">
        <ele>126.347957</ele>
        <time>2022-12-27T15:31:31.749Z</time>
      </trkpt>
      <trkpt lat="44.45001" lon="-0.56266">
        <ele>126.311518</ele>
        <time>2022-12-27T15:31:34.754Z</time>
      </trkpt>
      <trkpt lat="44.45" lon="-0.56253">
        <ele>126.282711</ele>
        <time>2022-12-27T15:31:37.741Z</time>
      </trkpt>
      <trkpt lat="44.44997" lon="-0.56235">
        <ele>126.241863</ele>
        <time>2022-12-27T15:31:40.757Z</time>
      </trkpt>
      <trkpt lat="44.44995" lon="-0.56221">
        <ele>126.2091</ele>
        <time>2022-12-27T15:31:42.748Z</time>
      </trkpt>
      <trkpt lat="44.44993" lon="-0.56207">
        <ele>126.200983</ele>
        <time>2022-12-27T15:31:44.747Z</time>
      </trkpt>
      <trkpt lat="44.44991" lon="-0.56194">
        <ele>126.226666</ele>
        <time>2022-12-27T15:31:46.753Z</time>
      </trkpt>
      <trkpt lat="44.44989" lon="-0.5618">
        <ele>126.25387</ele>
        <time>2022-12-27T15:31:48.747Z</time>
      </trkpt>
      <trkpt lat="44.44987" lon="-0.56166">
        <ele>126.28172</ele>
        <time>2022-12-27T15:31:50.753Z</time>
      </trkpt>
      <trkpt lat="44.44985" lon="-0.56151">
        <ele>126.310185</ele>
        <time>2022-12-27T15:31:52.751Z</time>
      </trkpt>
      <trkpt lat="44.44983" lon="-0.56136">
        <ele>126.339641</ele>
        <time>2022-12-27T15:31:54.750Z</time>
      </trkpt>
      <trkpt lat="44.44981" lon="-0.56121">
        <ele>126.368642</ele>
        <time>2022-12-27T15:31:56.747Z</time>
      </trkpt>
      <trkpt lat="44.44979" lon="-0.56106">
        <ele>126.397775</ele>
        <time>2022-12-27T15:31:58.733Z</time>
      </trkpt>
      <trkpt lat="44.44976" lon="-0.56092">
        <ele>126.425972</ele>
        <time>2022-12-27T15:32:00.735Z</time>
      </trkpt>
      <trkpt lat="44.44974" lon="-0.56077">
        <ele>126.455518</ele>
        <time>2022-12-27T15:32:02.750Z</time>
      </trkpt>
      <trkpt lat="44.44972" lon="-0.56062">
        <ele>126.484171</ele>
        <time>2022-12-27T15:32:04.746Z</time>
      </trkpt>
      <trkpt lat="44.44971" lon="-0.56047">
        <ele>126.513529</ele>
        <time>2022-12-27T15:32:06.751Z</time>
      </trkpt>
      <trkpt lat="44.44968" lon="-0.56032">
        <ele>126.54303</ele>
        <time>2022-12-27T15:32:08.793Z</time>
      </trkpt>
      <trkpt lat="44.44965" lon="-0.56018">
        <ele>126.570243</ele>
        <time>2022-12-27T15:32:10.741Z</time>
      </trkpt>
      <trkpt lat="44.44963" lon="-0.56003">
        <ele>126.59979</ele>
        <time>2022-12-27T15:32:12.749Z</time>
      </trkpt>
      <trkpt lat="44.44961" lon="-0.55988">
        <ele>126.62797</ele>
        <time>2022-12-27T15:32:14.749Z</time>
      </trkpt>
      <trkpt lat="44.44959" lon="-0.55974">
        <ele>126.655418</ele>
        <time>2022-12-27T15:32:16.734Z</time>
      </trkpt>
      <trkpt lat="44.44958" lon="-0.55961">
        <ele>126.659473</ele>
        <time>2022-12-27T15:32:18.747Z</time>
      </trkpt>
      <trkpt lat="44.44956" lon="-0.55949">
        <ele>126.622322</ele>
        <time>2022-12-27T15:32:20.739Z</time>
      </trkpt>
      <trkpt lat="44.44954" lon="-0.55936">
        <ele>126.584896</ele>
        <time>2022-12-27T15:32:22.745Z</time>
      </trkpt>
      <trkpt lat="44.44952" lon="-0.55923">
        <ele>126.545182</ele>
        <time>2022-12-27T15:32:24.751Z</time>
      </trkpt>
      <trkpt lat="44.4495" lon="-0.5591">
        <ele>126.506793</ele>
        <time>2022-12-27T15:32:26.748Z</time>
      </trkpt>
      <trkpt lat="44.44948" lon="-0.55896">
        <ele>126.465542</ele>
        <time>2022-12-27T15:32:28.748Z</time>
      </trkpt>
      <trkpt lat="44.44946" lon="-0.55882">
        <ele>126.421533</ele>
        <time>2022-12-27T15:32:30.752Z</time>
      </trkpt>
      <trkpt lat="44.44944" lon="-0.55868">
        <ele>126.380143</ele>
        <time>2022-12-27T15:32:32.752Z</time>
      </trkpt>
      <trkpt lat="44.44941" lon="-0.55854">
        <ele>126.336724</ele>
        <time>2022-12-27T15:32:34.745Z</time>
      </trkpt>
      <trkpt lat="44.4494" lon="-0.55839">
        <ele>126.293447</ele>
        <time>2022-12-27T15:32:36.749Z</time>
      </trkpt>
      <trkpt lat="44.44938" lon="-0.55823">
        <ele>126.245764</ele>
        <time>2022-12-27T15:32:38.749Z</time>
      </trkpt>
      <trkpt lat="44.44935" lon="-0.55807">
        <ele>126.198635</ele>
        <time>2022-12-27T15:32:40.752Z</time>
      </trkpt>
      <trkpt lat="44.44933" lon="-0.55791">
        <ele>126.15032</ele>
        <time>2022-12-27T15:32:42.745Z</time>
      </trkpt>
      <trkpt lat="44.44931" lon="-0.55776">
        <ele>126.104672</ele>
        <time>2022-12-27T15:32:44.746Z</time>
      </trkpt>
      <trkpt lat="44.44929" lon="-0.5576">
        <ele>126.058236</ele>
        <time>2022-12-27T15:32:46.754Z</time>
      </trkpt>
      <trkpt lat="44.44927" lon="-0.55744">
        <ele>126.010284</ele>
        <time>2022-12-27T15:32:48.753Z</time>
      </trkpt>
      <trkpt lat="44.44924" lon="-0.55727">
        <ele>125.95906</ele>
        <time>2022-12-27T15:32:50.735Z</time>
      </trkpt>
      <trkpt lat="44.44922" lon="-0.55711">
        <ele>125.873729</ele>
        <time>2022-12-27T15:32:52.744Z</time>
      </trkpt>
      <trkpt lat="44.4492" lon="-0.55696">
        <ele>125.748617</ele>
        <time>2022-12-27T15:32:54.747Z</time>
      </trkpt>
      <trkpt lat="44.44918" lon="-0.55679">
        <ele>125.617054</ele>
        <time>2022-12-27T15:32:56.755Z</time>
      </trkpt>
      <trkpt lat="44.44916" lon="-0.55663">
        <ele>125.482731</ele>
        <time>2022-12-27T15:32:58.750Z</time>
      </trkpt>
      <trkpt lat="44.44914" lon="-0.55647">
        <ele>125.354421</ele>
        <time>2022-12-27T15:33:00.730Z</time>
      </trkpt>
      <trkpt lat="44.44911" lon="-0.5563">
        <ele>125.216325</ele>
        <time>2022-12-27T15:33:02.762Z</time>
      </trkpt>
      <trkpt lat="44.44909" lon="-0.55614">
        <ele>125.08846</ele>
        <time>2022-12-27T15:33:04.756Z</time>
      </trkpt>
      <trkpt lat="44.44905" lon="-0.55598">
        <ele>124.952049</ele>
        <time>2022-12-27T15:33:06.750Z</time>
      </trkpt>
      <trkpt lat="44.44903" lon="-0.55582">
        <ele>124.822829</ele>
        <time>2022-12-27T15:33:08.748Z</time>
      </trkpt>
      <trkpt lat="44.44901" lon="-0.55566">
        <ele>124.693011</ele>
        <time>2022-12-27T15:33:10.751Z</time>
      </trkpt>
      <trkpt lat="44.44898" lon="-0.55549">
        <ele>124.558795</ele>
        <time>2022-12-27T15:33:12.750Z</time>
      </trkpt>
      <trkpt lat="44.44896" lon="-0.55532">
        <ele>124.420579</ele>
        <time>2022-12-27T15:33:14.750Z</time>
      </trkpt>
      <trkpt lat="44.44893" lon="-0.55514">
        <ele>124.275305</ele>
        <time>2022-12-27T15:33:16.751Z</time>
      </trkpt>
      <trkpt lat="44.4489" lon="-0.55497">
        <ele>124.133184</ele>
        <time>2022-12-27T15:33:18.762Z</time>
      </trkpt>
      <trkpt lat="44.44888" lon="-0.5548">
        <ele>123.994967</ele>
        <time>2022-12-27T15:33:20.754Z</time>
      </trkpt>
      <trkpt lat="44.44885" lon="-0.55461">
        <ele>123.723539</ele>
        <time>2022-12-27T15:33:22.749Z</time>
      </trkpt>
      <trkpt lat="44.44883" lon="-0.55444">
        <ele>123.372199</ele>
        <time>2022-12-27T15:33:24.751Z</time>
      </trkpt>
      <trkpt lat="44.4488" lon="-0.55425">
        <ele>123.010009</ele>
        <time>2022-12-27T15:33:26.753Z</time>
      </trkpt>
      <trkpt lat="44.44878" lon="-0.55408">
        <ele>122.657659</ele>
        <time>2022-12-27T15:33:28.749Z</time>
      </trkpt>
      <trkpt lat="44.44875" lon="-0.5539">
        <ele>122.314282</ele>
        <time>2022-12-27T15:33:30.751Z</time>
      </trkpt>
      <trkpt lat="44.44872" lon="-0.55374">
        <ele>121.991777</ele>
        <time>2022-12-27T15:33:32.754Z</time>
      </trkpt>
      <trkpt lat="44.4487" lon="-0.5536">
        <ele>121.703281</ele>
        <time>2022-12-27T15:33:34.754Z</time>
      </trkpt>
      <trkpt lat="44.44868" lon="-0.55344">
        <ele>121.384376</ele>
        <time>2022-12-27T15:33:36.752Z</time>
      </trkpt>
      <trkpt lat="44.44865" lon="-0.55327">
        <ele>121.064087</ele>
        <time>2022-12-27T15:33:38.752Z</time>
      </trkpt>
      <trkpt lat="44.44863" lon="-0.55312">
        <ele>120.755753</ele>
        <time>2022-12-27T15:33:40.755Z</time>
      </trkpt>
      <trkpt lat="44.44861" lon="-0.55294">
        <ele>120.408234</ele>
        <time>2022-12-27T15:33:42.751Z</time>
      </trkpt>
      <trkpt lat="44.44859" lon="-0.55277">
        <ele>120.064009</ele>
        <time>2022-12-27T15:33:44.750Z</time>
      </trkpt>
      <trkpt lat="44.44857" lon="-0.55258">
        <ele>119.700715</ele>
        <time>2022-12-27T15:33:46.750Z</time>
      </trkpt>
      <trkpt lat="44.44854" lon="-0.5524">
        <ele>119.339106</ele>
        <time>2022-12-27T15:33:48.750Z</time>
      </trkpt>
      <trkpt lat="44.44851" lon="-0.55222">
        <ele>119.052524</ele>
        <time>2022-12-27T15:33:50.751Z</time>
      </trkpt>
      <trkpt lat="44.44848" lon="-0.55205">
        <ele>119.120439</ele>
        <time>2022-12-27T15:33:52.755Z</time>
      </trkpt>
      <trkpt lat="44.44846" lon="-0.55188">
        <ele>119.190985</ele>
        <time>2022-12-27T15:33:54.750Z</time>
      </trkpt>
      <trkpt lat="44.44844" lon="-0.55171">
        <ele>119.25905</ele>
        <time>2022-12-27T15:33:56.759Z</time>
      </trkpt>
      <trkpt lat="44.44842" lon="-0.55155">
        <ele>119.32585</ele>
        <time>2022-12-27T15:33:58.750Z</time>
      </trkpt>
      <trkpt lat="44.44839" lon="-0.55138">
        <ele>119.392993</ele>
        <time>2022-12-27T15:34:00.748Z</time>
      </trkpt>
      <trkpt lat="44.44837" lon="-0.55123">
        <ele>119.453694</ele>
        <time>2022-12-27T15:34:02.740Z</time>
      </trkpt>
      <trkpt lat="44.44835" lon="-0.55108">
        <ele>119.516297</ele>
        <time>2022-12-27T15:34:04.733Z</time>
      </trkpt>
      <trkpt lat="44.44832" lon="-0.55094">
        <ele>119.57462</ele>
        <time>2022-12-27T15:34:06.750Z</time>
      </trkpt>
      <trkpt lat="44.4483" lon="-0.55079">
        <ele>119.634377</ele>
        <time>2022-12-27T15:34:08.759Z</time>
      </trkpt>
      <trkpt lat="44.44828" lon="-0.55064">
        <ele>119.695365</ele>
        <time>2022-12-27T15:34:10.757Z</time>
      </trkpt>
      <trkpt lat="44.44826" lon="-0.55049">
        <ele>119.758712</ele>
        <time>2022-12-27T15:34:12.755Z</time>
      </trkpt>
      <trkpt lat="44.44824" lon="-0.55032">
        <ele>119.825511</ele>
        <time>2022-12-27T15:34:14.756Z</time>
      </trkpt>
      <trkpt lat="44.44822" lon="-0.55016">
        <ele>119.89242</ele>
        <time>2022-12-27T15:34:16.753Z</time>
      </trkpt>
      <trkpt lat="44.4482" lon="-0.54999">
        <ele>119.960099</ele>
        <time>2022-12-27T15:34:18.750Z</time>
      </trkpt>
      <trkpt lat="44.44817" lon="-0.54983">
        <ele>120.027401</ele>
        <time>2022-12-27T15:34:20.738Z</time>
      </trkpt>
      <trkpt lat="44.44815" lon="-0.54966">
        <ele>119.908114</ele>
        <time>2022-12-27T15:34:22.755Z</time>
      </trkpt>
      <trkpt lat="44.44812" lon="-0.5495">
        <ele>119.726619</ele>
        <time>2022-12-27T15:34:24.752Z</time>
      </trkpt>
      <trkpt lat="44.4481" lon="-0.54933">
        <ele>119.529909</ele>
        <time>2022-12-27T15:34:26.754Z</time>
      </trkpt>
      <trkpt lat="44.44808" lon="-0.54916">
        <ele>119.342594</ele>
        <time>2022-12-27T15:34:28.753Z</time>
      </trkpt>
      <trkpt lat="44.44805" lon="-0.54899">
        <ele>119.146793</ele>
        <time>2022-12-27T15:34:30.757Z</time>
      </trkpt>
      <trkpt lat="44.44803" lon="-0.54882">
        <ele>118.953348</ele>
        <time>2022-12-27T15:34:32.743Z</time>
      </trkpt>
      <trkpt lat="44.448" lon="-0.54866">
        <ele>118.769566</ele>
        <time>2022-12-27T15:34:34.753Z</time>
      </trkpt>
      <trkpt lat="44.44798" lon="-0.54849">
        <ele>118.582801</ele>
        <time>2022-12-27T15:34:36.750Z</time>
      </trkpt>
      <trkpt lat="44.44795" lon="-0.54834">
        <ele>118.405278</ele>
        <time>2022-12-27T15:34:38.752Z</time>
      </trkpt>
      <trkpt lat="44.44793" lon="-0.54818">
        <ele>118.230979</ele>
        <time>2022-12-27T15:34:40.741Z</time>
      </trkpt>
      <trkpt lat="44.44791" lon="-0.54803">
        <ele>118.062109</ele>
        <time>2022-12-27T15:34:42.751Z</time>
      </trkpt>
      <trkpt lat="44.44789" lon="-0.54789">
        <ele>117.894212</ele>
        <time>2022-12-27T15:34:44.755Z</time>
      </trkpt>
      <trkpt lat="44.44786" lon="-0.54773">
        <ele>117.712913</ele>
        <time>2022-12-27T15:34:46.750Z</time>
      </trkpt>
      <trkpt lat="44.44784" lon="-0.54757">
        <ele>117.534891</ele>
        <time>2022-12-27T15:34:48.751Z</time>
      </trkpt>
      <trkpt lat="44.44783" lon="-0.54741">
        <ele>117.360633</ele>
        <time>2022-12-27T15:34:50.751Z</time>
      </trkpt>
      <trkpt lat="44.44779" lon="-0.54726">
        <ele>117.182159</ele>
        <time>2022-12-27T15:34:52.755Z</time>
      </trkpt>
      <trkpt lat="44.44777" lon="-0.5471">
        <ele>117.002523</ele>
        <time>2022-12-27T15:34:54.753Z</time>
      </trkpt>
      <trkpt lat="44.44775" lon="-0.54694">
        <ele>116.823863</ele>
        <time>2022-12-27T15:34:56.753Z</time>
      </trkpt>
      <trkpt lat="44.44772" lon="-0.54678">
        <ele>116.642258</ele>
        <time>2022-12-27T15:34:58.753Z</time>
      </trkpt>
      <trkpt lat="44.4477" lon="-0.54662">
        <ele>116.464677</ele>
        <time>2022-12-27T15:35:00.751Z</time>
      </trkpt>
      <trkpt lat="44.44768" lon="-0.54646">
        <ele>116.287096</ele>
        <time>2022-12-27T15:35:02.752Z</time>
      </trkpt>
      <trkpt lat="44.44766" lon="-0.54631">
        <ele>116.11255</ele>
        <time>2022-12-27T15:35:04.736Z</time>
      </trkpt>
      <trkpt lat="44.44763" lon="-0.54615">
        <ele>115.930344</ele>
        <time>2022-12-27T15:35:06.755Z</time>
      </trkpt>
      <trkpt lat="44.44761" lon="-0.54598">
        <ele>115.747817</ele>
        <time>2022-12-27T15:35:08.755Z</time>
      </trkpt>
      <trkpt lat="44.44759" lon="-0.54582">
        <ele>115.564327</ele>
        <time>2022-12-27T15:35:10.742Z</time>
      </trkpt>
      <trkpt lat="44.44756" lon="-0.54566">
        <ele>115.385045</ele>
        <time>2022-12-27T15:35:12.752Z</time>
      </trkpt>
      <trkpt lat="44.44754" lon="-0.5455">
        <ele>115.206161</ele>
        <time>2022-12-27T15:35:14.752Z</time>
      </trkpt>
      <trkpt lat="44.44752" lon="-0.54535">
        <ele>115.034283</ele>
        <time>2022-12-27T15:35:16.747Z</time>
      </trkpt>
      <trkpt lat="44.4475" lon="-0.54519">
        <ele>114.858084</ele>
        <time>2022-12-27T15:35:18.753Z</time>
      </trkpt>
      <trkpt lat="44.44747" lon="-0.54503">
        <ele>114.67911</ele>
        <time>2022-12-27T15:35:20.756Z</time>
      </trkpt>
      <trkpt lat="44.44745" lon="-0.54488">
        <ele>114.505647</ele>
        <time>2022-12-27T15:35:22.733Z</time>
      </trkpt>
      <trkpt lat="44.44742" lon="-0.54471">
        <ele>114.317296</ele>
        <time>2022-12-27T15:35:24.756Z</time>
      </trkpt>
      <trkpt lat="44.44741" lon="-0.54458">
        <ele>114.161612</ele>
        <time>2022-12-27T15:35:26.752Z</time>
      </trkpt>
      <trkpt lat="44.44738" lon="-0.54438">
        <ele>113.937034</ele>
        <time>2022-12-27T15:35:29.749Z</time>
      </trkpt>
      <trkpt lat="44.44735" lon="-0.54425">
        <ele>113.789652</ele>
        <time>2022-12-27T15:35:31.752Z</time>
      </trkpt>
      <trkpt lat="44.44733" lon="-0.54411">
        <ele>113.627884</ele>
        <time>2022-12-27T15:35:33.755Z</time>
      </trkpt>
      <trkpt lat="44.44729" lon="-0.54397">
        <ele>113.464391</ele>
        <time>2022-12-27T15:35:36.755Z</time>
      </trkpt>
      <trkpt lat="44.44729" lon="-0.54383">
        <ele>113.305863</ele>
        <time>2022-12-27T15:35:38.754Z</time>
      </trkpt>
      <trkpt lat="44.44729" lon="-0.54369">
        <ele>113.151921</ele>
        <time>2022-12-27T15:35:40.753Z</time>
      </trkpt>
      <trkpt lat="44.44726" lon="-0.54356">
        <ele>112.998309</ele>
        <time>2022-12-27T15:35:42.756Z</time>
      </trkpt>
      <trkpt lat="44.44725" lon="-0.54341">
        <ele>112.833765</ele>
        <time>2022-12-27T15:35:44.751Z</time>
      </trkpt>
      <trkpt lat="44.44722" lon="-0.54326">
        <ele>112.655748</ele>
        <time>2022-12-27T15:35:46.751Z</time>
      </trkpt>
      <trkpt lat="44.4472" lon="-0.5431">
        <ele>112.479457</ele>
        <time>2022-12-27T15:35:48.753Z</time>
      </trkpt>
      <trkpt lat="44.44718" lon="-0.54296">
        <ele>112.310153</ele>
        <time>2022-12-27T15:35:50.753Z</time>
      </trkpt>
      <trkpt lat="44.44715" lon="-0.54281">
        <ele>112.143378</ele>
        <time>2022-12-27T15:35:52.753Z</time>
      </trkpt>
      <trkpt lat="44.44713" lon="-0.54266">
        <ele>111.973721</ele>
        <time>2022-12-27T15:35:54.749Z</time>
      </trkpt>
      <trkpt lat="44.44711" lon="-0.54253">
        <ele>111.827495</ele>
        <time>2022-12-27T15:35:56.750Z</time>
      </trkpt>
      <trkpt lat="44.4471" lon="-0.54238">
        <ele>111.661425</ele>
        <time>2022-12-27T15:35:58.750Z</time>
      </trkpt>
      <trkpt lat="44.44708" lon="-0.54225">
        <ele>111.792553</ele>
        <time>2022-12-27T15:36:00.751Z</time>
      </trkpt>
      <trkpt lat="44.44705" lon="-0.54211">
        <ele>111.936507</ele>
        <time>2022-12-27T15:36:02.752Z</time>
      </trkpt>
      <trkpt lat="44.44703" lon="-0.54197">
        <ele>112.074423</ele>
        <time>2022-12-27T15:36:04.755Z</time>
      </trkpt>
      <trkpt lat="44.44701" lon="-0.54182">
        <ele>112.220338</ele>
        <time>2022-12-27T15:36:06.749Z</time>
      </trkpt>
      <trkpt lat="44.447" lon="-0.54169">
        <ele>112.352946</ele>
        <time>2022-12-27T15:36:08.733Z</time>
      </trkpt>
      <trkpt lat="44.44698" lon="-0.54155">
        <ele>112.498268</ele>
        <time>2022-12-27T15:36:10.742Z</time>
      </trkpt>
      <trkpt lat="44.44695" lon="-0.54139">
        <ele>112.651009</ele>
        <time>2022-12-27T15:36:12.737Z</time>
      </trkpt>
      <trkpt lat="44.44693" lon="-0.54123">
        <ele>112.815201</ele>
        <time>2022-12-27T15:36:14.753Z</time>
      </trkpt>
      <trkpt lat="44.4469" lon="-0.54108">
        <ele>112.964982</ele>
        <time>2022-12-27T15:36:16.752Z</time>
      </trkpt>
      <trkpt lat="44.44688" lon="-0.54092">
        <ele>113.131258</ele>
        <time>2022-12-27T15:36:18.752Z</time>
      </trkpt>
      <trkpt lat="44.44686" lon="-0.54077">
        <ele>113.282353</ele>
        <time>2022-12-27T15:36:20.756Z</time>
      </trkpt>
      <trkpt lat="44.44684" lon="-0.54061">
        <ele>113.440899</ele>
        <time>2022-12-27T15:36:22.752Z</time>
      </trkpt>
      <trkpt lat="44.44682" lon="-0.54045">
        <ele>113.60161</ele>
        <time>2022-12-27T15:36:24.753Z</time>
      </trkpt>
      <trkpt lat="44.4468" lon="-0.54029">
        <ele>113.760857</ele>
        <time>2022-12-27T15:36:26.750Z</time>
      </trkpt>
      <trkpt lat="44.44678" lon="-0.54013">
        <ele>113.915012</ele>
        <time>2022-12-27T15:36:28.724Z</time>
      </trkpt>
      <trkpt lat="44.44676" lon="-0.53998">
        <ele>114.06671</ele>
        <time>2022-12-27T15:36:30.752Z</time>
      </trkpt>
      <trkpt lat="44.44674" lon="-0.53984">
        <ele>114.106829</ele>
        <time>2022-12-27T15:36:32.752Z</time>
      </trkpt>
      <trkpt lat="44.44672" lon="-0.53969">
        <ele>114.043856</ele>
        <time>2022-12-27T15:36:34.749Z</time>
      </trkpt>
      <trkpt lat="44.4467" lon="-0.53954">
        <ele>113.981898</ele>
        <time>2022-12-27T15:36:36.732Z</time>
      </trkpt>
      <trkpt lat="44.44668" lon="-0.53938">
        <ele>113.915623</ele>
        <time>2022-12-27T15:36:38.755Z</time>
      </trkpt>
      <trkpt lat="44.44666" lon="-0.53924">
        <ele>113.853255</ele>
        <time>2022-12-27T15:36:40.732Z</time>
      </trkpt>
      <trkpt lat="44.44663" lon="-0.53908">
        <ele>113.784851</ele>
        <time>2022-12-27T15:36:42.747Z</time>
      </trkpt>
      <trkpt lat="44.44661" lon="-0.53892">
        <ele>113.71847</ele>
        <time>2022-12-27T15:36:44.753Z</time>
      </trkpt>
      <trkpt lat="44.44658" lon="-0.53876">
        <ele>113.650045</ele>
        <time>2022-12-27T15:36:46.742Z</time>
      </trkpt>
      <trkpt lat="44.44656" lon="-0.5386">
        <ele>113.583154</ele>
        <time>2022-12-27T15:36:48.748Z</time>
      </trkpt>
      <trkpt lat="44.44654" lon="-0.53844">
        <ele>113.513727</ele>
        <time>2022-12-27T15:36:50.752Z</time>
      </trkpt>
      <trkpt lat="44.44652" lon="-0.53828">
        <ele>113.447269</ele>
        <time>2022-12-27T15:36:52.738Z</time>
      </trkpt>
      <trkpt lat="44.44649" lon="-0.53812">
        <ele>113.376506</ele>
        <time>2022-12-27T15:36:54.754Z</time>
      </trkpt>
      <trkpt lat="44.44647" lon="-0.53795">
        <ele>113.305391</ele>
        <time>2022-12-27T15:36:56.757Z</time>
      </trkpt>
      <trkpt lat="44.44645" lon="-0.53779">
        <ele>113.238524</ele>
        <time>2022-12-27T15:36:58.750Z</time>
      </trkpt>
      <trkpt lat="44.44642" lon="-0.53762">
        <ele>113.164048</ele>
        <time>2022-12-27T15:37:00.751Z</time>
      </trkpt>
      <trkpt lat="44.44639" lon="-0.53744">
        <ele>113.085555</ele>
        <time>2022-12-27T15:37:02.760Z</time>
      </trkpt>
      <trkpt lat="44.44636" lon="-0.53727">
        <ele>112.848509</ele>
        <time>2022-12-27T15:37:04.754Z</time>
      </trkpt>
      <trkpt lat="44.44634" lon="-0.53709">
        <ele>112.612768</ele>
        <time>2022-12-27T15:37:06.731Z</time>
      </trkpt>
      <trkpt lat="44.44631" lon="-0.53692">
        <ele>112.373788</ele>
        <time>2022-12-27T15:37:08.753Z</time>
      </trkpt>
      <trkpt lat="44.44628" lon="-0.53675">
        <ele>112.148608</ele>
        <time>2022-12-27T15:37:10.754Z</time>
      </trkpt>
      <trkpt lat="44.44625" lon="-0.53658">
        <ele>111.909143</ele>
        <time>2022-12-27T15:37:12.761Z</time>
      </trkpt>
      <trkpt lat="44.44623" lon="-0.5364">
        <ele>111.67539</ele>
        <time>2022-12-27T15:37:14.749Z</time>
      </trkpt>
      <trkpt lat="44.44621" lon="-0.53624">
        <ele>111.453614</ele>
        <time>2022-12-27T15:37:16.755Z</time>
      </trkpt>
      <trkpt lat="44.44619" lon="-0.53608">
        <ele>111.239477</ele>
        <time>2022-12-27T15:37:18.755Z</time>
      </trkpt>
      <trkpt lat="44.44616" lon="-0.53593">
        <ele>111.026792</ele>
        <time>2022-12-27T15:37:20.753Z</time>
      </trkpt>
      <trkpt lat="44.44614" lon="-0.53578">
        <ele>110.823807</ele>
        <time>2022-12-27T15:37:22.753Z</time>
      </trkpt>
      <trkpt lat="44.44612" lon="-0.53563">
        <ele>110.630649</ele>
        <time>2022-12-27T15:37:24.751Z</time>
      </trkpt>
      <trkpt lat="44.44609" lon="-0.53549">
        <ele>110.427901</ele>
        <time>2022-12-27T15:37:26.751Z</time>
      </trkpt>
      <trkpt lat="44.44607" lon="-0.53532">
        <ele>110.205312</ele>
        <time>2022-12-27T15:37:28.751Z</time>
      </trkpt>
      <trkpt lat="44.44604" lon="-0.53516">
        <ele>109.982295</ele>
        <time>2022-12-27T15:37:30.753Z</time>
      </trkpt>
      <trkpt lat="44.44601" lon="-0.53499">
        <ele>109.746324</ele>
        <time>2022-12-27T15:37:32.755Z</time>
      </trkpt>
      <trkpt lat="44.44599" lon="-0.53483">
        <ele>109.777164</ele>
        <time>2022-12-27T15:37:34.750Z</time>
      </trkpt>
      <trkpt lat="44.44596" lon="-0.53468">
        <ele>109.817354</ele>
        <time>2022-12-27T15:37:36.754Z</time>
      </trkpt>
      <trkpt lat="44.44594" lon="-0.53452">
        <ele>109.85763</ele>
        <time>2022-12-27T15:37:38.751Z</time>
      </trkpt>
      <trkpt lat="44.44591" lon="-0.53436">
        <ele>109.89898</ele>
        <time>2022-12-27T15:37:40.753Z</time>
      </trkpt>
      <trkpt lat="44.44588" lon="-0.53419">
        <ele>109.941753</ele>
        <time>2022-12-27T15:37:42.747Z</time>
      </trkpt>
      <trkpt lat="44.44586" lon="-0.53401">
        <ele>109.986169</ele>
        <time>2022-12-27T15:37:44.753Z</time>
      </trkpt>
      <trkpt lat="44.44582" lon="-0.53383">
        <ele>110.034413</ele>
        <time>2022-12-27T15:37:46.751Z</time>
      </trkpt>
      <trkpt lat="44.44578" lon="-0.53365">
        <ele>110.082347</ele>
        <time>2022-12-27T15:37:48.752Z</time>
      </trkpt>
      <trkpt lat="44.44574" lon="-0.53348">
        <ele>110.126312</ele>
        <time>2022-12-27T15:37:50.756Z</time>
      </trkpt>
      <trkpt lat="44.44571" lon="-0.53333">
        <ele>110.165415</ele>
        <time>2022-12-27T15:37:52.750Z</time>
      </trkpt>
      <trkpt lat="44.44568" lon="-0.53317">
        <ele>110.205767</ele>
        <time>2022-12-27T15:37:54.753Z</time>
      </trkpt>
      <trkpt lat="44.44565" lon="-0.53301">
        <ele>110.246122</ele>
        <time>2022-12-27T15:37:56.756Z</time>
      </trkpt>
      <trkpt lat="44.44562" lon="-0.53287">
        <ele>110.283118</ele>
        <time>2022-12-27T15:37:58.751Z</time>
      </trkpt>
      <trkpt lat="44.44558" lon="-0.53273">
        <ele>110.320177</ele>
        <time>2022-12-27T15:38:00.754Z</time>
      </trkpt>
      <trkpt lat="44.44555" lon="-0.5326">
        <ele>110.353929</ele>
        <time>2022-12-27T15:38:02.760Z</time>
      </trkpt>
      <trkpt lat="44.44552" lon="-0.53245">
        <ele>110.373722</ele>
        <time>2022-12-27T15:38:04.756Z</time>
      </trkpt>
      <trkpt lat="44.44549" lon="-0.53232">
        <ele>110.383489</ele>
        <time>2022-12-27T15:38:06.756Z</time>
      </trkpt>
      <trkpt lat="44.44546" lon="-0.53218">
        <ele>110.393688</ele>
        <time>2022-12-27T15:38:08.754Z</time>
      </trkpt>
      <trkpt lat="44.44544" lon="-0.53204">
        <ele>110.403699</ele>
        <time>2022-12-27T15:38:10.755Z</time>
      </trkpt>
      <trkpt lat="44.44541" lon="-0.53189">
        <ele>110.41486</ele>
        <time>2022-12-27T15:38:12.763Z</time>
      </trkpt>
      <trkpt lat="44.44537" lon="-0.53174">
        <ele>110.426176</ele>
        <time>2022-12-27T15:38:14.753Z</time>
      </trkpt>
      <trkpt lat="44.44533" lon="-0.53157">
        <ele>110.438415</ele>
        <time>2022-12-27T15:38:16.752Z</time>
      </trkpt>
      <trkpt lat="44.4453" lon="-0.53144">
        <ele>110.448385</ele>
        <time>2022-12-27T15:38:18.741Z</time>
      </trkpt>
      <trkpt lat="44.44528" lon="-0.53129">
        <ele>110.4588</ele>
        <time>2022-12-27T15:38:20.755Z</time>
      </trkpt>
      <trkpt lat="44.44525" lon="-0.53117">
        <ele>110.46797</ele>
        <time>2022-12-27T15:38:22.753Z</time>
      </trkpt>
      <trkpt lat="44.44523" lon="-0.53104">
        <ele>110.477725</ele>
        <time>2022-12-27T15:38:24.740Z</time>
      </trkpt>
      <trkpt lat="44.4452" lon="-0.53091">
        <ele>110.487193</ele>
        <time>2022-12-27T15:38:26.752Z</time>
      </trkpt>
      <trkpt lat="44.44517" lon="-0.53078">
        <ele>110.496797</ele>
        <time>2022-12-27T15:38:28.753Z</time>
      </trkpt>
      <trkpt lat="44.44515" lon="-0.53065">
        <ele>110.505726</ele>
        <time>2022-12-27T15:38:30.743Z</time>
      </trkpt>
      <trkpt lat="44.44512" lon="-0.53052">
        <ele>110.515262</ele>
        <time>2022-12-27T15:38:32.734Z</time>
      </trkpt>
      <trkpt lat="44.44509" lon="-0.53034">
        <ele>110.528487</ele>
        <time>2022-12-27T15:38:35.752Z</time>
      </trkpt>
      <trkpt lat="44.44505" lon="-0.53016">
        <ele>110.541959</ele>
        <time>2022-12-27T15:38:38.757Z</time>
      </trkpt>
      <trkpt lat="44.44502" lon="-0.53003">
        <ele>110.348219</ele>
        <time>2022-12-27T15:38:40.739Z</time>
      </trkpt>
      <trkpt lat="44.44499" lon="-0.52989">
        <ele>110.069974</ele>
        <time>2022-12-27T15:38:42.753Z</time>
      </trkpt>
      <trkpt lat="44.44496" lon="-0.52975">
        <ele>109.805032</ele>
        <time>2022-12-27T15:38:44.754Z</time>
      </trkpt>
      <trkpt lat="44.44493" lon="-0.52963">
        <ele>109.55488</ele>
        <time>2022-12-27T15:38:46.749Z</time>
      </trkpt>
      <trkpt lat="44.44489" lon="-0.52948">
        <ele>109.261859</ele>
        <time>2022-12-27T15:38:49.754Z</time>
      </trkpt>
      <trkpt lat="44.44487" lon="-0.52934">
        <ele>109.010976</ele>
        <time>2022-12-27T15:38:52.753Z</time>
      </trkpt>
      <trkpt lat="44.44485" lon="-0.5292">
        <ele>108.735646</ele>
        <time>2022-12-27T15:38:55.751Z</time>
      </trkpt>
      <trkpt lat="44.44482" lon="-0.52907">
        <ele>108.479122</ele>
        <time>2022-12-27T15:38:58.753Z</time>
      </trkpt>
      <trkpt lat="44.44478" lon="-0.52895">
        <ele>108.241593</ele>
        <time>2022-12-27T15:39:33.753Z</time>
      </trkpt>
      <trkpt lat="44.44475" lon="-0.52883">
        <ele>107.992047</ele>
        <time>2022-12-27T15:39:36.753Z</time>
      </trkpt>
      <trkpt lat="44.44471" lon="-0.52868">
        <ele>107.691247</ele>
        <time>2022-12-27T15:39:39.747Z</time>
      </trkpt>
      <trkpt lat="44.44467" lon="-0.5285">
        <ele>107.357121</ele>
        <time>2022-12-27T15:39:42.752Z</time>
      </trkpt>
      <trkpt lat="44.44464" lon="-0.52834">
        <ele>107.049908</ele>
        <time>2022-12-27T15:39:45.734Z</time>
      </trkpt>
      <trkpt lat="44.44461" lon="-0.52816">
        <ele>106.69992</ele>
        <time>2022-12-27T15:39:48.750Z</time>
      </trkpt>
      <trkpt lat="44.44461" lon="-0.52798">
        <ele>106.365692</ele>
        <time>2022-12-27T15:39:50.752Z</time>
      </trkpt>
      <trkpt lat="44.44457" lon="-0.52784">
        <ele>106.083103</ele>
        <time>2022-12-27T15:39:52.757Z</time>
      </trkpt>
      <trkpt lat="44.44455" lon="-0.5277">
        <ele>105.850872</ele>
        <time>2022-12-27T15:39:54.766Z</time>
      </trkpt>
      <trkpt lat="44.44451" lon="-0.52755">
        <ele>105.767724</ele>
        <time>2022-12-27T15:39:56.754Z</time>
      </trkpt>
      <trkpt lat="44.44448" lon="-0.52739">
        <ele>105.683574</ele>
        <time>2022-12-27T15:39:58.751Z</time>
      </trkpt>
      <trkpt lat="44.44444" lon="-0.52724">
        <ele>105.597238</ele>
        <time>2022-12-27T15:40:00.751Z</time>
      </trkpt>
      <trkpt lat="44.44442" lon="-0.52709">
        <ele>105.51739</ele>
        <time>2022-12-27T15:40:02.752Z</time>
      </trkpt>
      <trkpt lat="44.44438" lon="-0.52692">
        <ele>105.42295</ele>
        <time>2022-12-27T15:40:04.750Z</time>
      </trkpt>
      <trkpt lat="44.44435" lon="-0.52676">
        <ele>105.338842</ele>
        <time>2022-12-27T15:40:06.740Z</time>
      </trkpt>
      <trkpt lat="44.44432" lon="-0.5266">
        <ele>105.251598</ele>
        <time>2022-12-27T15:40:08.755Z</time>
      </trkpt>
      <trkpt lat="44.44428" lon="-0.52643">
        <ele>105.155784</ele>
        <time>2022-12-27T15:40:10.763Z</time>
      </trkpt>
      <trkpt lat="44.44425" lon="-0.52628">
        <ele>105.070659</ele>
        <time>2022-12-27T15:40:12.755Z</time>
      </trkpt>
      <trkpt lat="44.44422" lon="-0.52612">
        <ele>104.985339</ele>
        <time>2022-12-27T15:40:14.755Z</time>
      </trkpt>
      <trkpt lat="44.44418" lon="-0.52597">
        <ele>104.900687</ele>
        <time>2022-12-27T15:40:16.753Z</time>
      </trkpt>
      <trkpt lat="44.44415" lon="-0.52581">
        <ele>104.817134</ele>
        <time>2022-12-27T15:40:18.735Z</time>
      </trkpt>
      <trkpt lat="44.44412" lon="-0.52565">
        <ele>104.72857</ele>
        <time>2022-12-27T15:40:20.738Z</time>
      </trkpt>
      <trkpt lat="44.44408" lon="-0.52549">
        <ele>104.638951</ele>
        <time>2022-12-27T15:40:22.756Z</time>
      </trkpt>
      <trkpt lat="44.44405" lon="-0.52532">
        <ele>104.547247</ele>
        <time>2022-12-27T15:40:24.742Z</time>
      </trkpt>
      <trkpt lat="44.44402" lon="-0.52516">
        <ele>104.40283</ele>
        <time>2022-12-27T15:40:26.750Z</time>
      </trkpt>
      <trkpt lat="44.44399" lon="-0.52499">
        <ele>104.236825</ele>
        <time>2022-12-27T15:40:28.750Z</time>
      </trkpt>
      <trkpt lat="44.44397" lon="-0.52485">
        <ele>104.103944</ele>
        <time>2022-12-27T15:40:30.751Z</time>
      </trkpt>
      <trkpt lat="44.44394" lon="-0.52471">
        <ele>103.971316</ele>
        <time>2022-12-27T15:40:32.754Z</time>
      </trkpt>
      <trkpt lat="44.44391" lon="-0.52456">
        <ele>103.824034</ele>
        <time>2022-12-27T15:40:34.755Z</time>
      </trkpt>
      <trkpt lat="44.44388" lon="-0.52443">
        <ele>103.690762</ele>
        <time>2022-12-27T15:40:36.750Z</time>
      </trkpt>
      <trkpt lat="44.44385" lon="-0.52429">
        <ele>103.556877</ele>
        <time>2022-12-27T15:40:38.754Z</time>
      </trkpt>
      <trkpt lat="44.44381" lon="-0.52413">
        <ele>103.400086</ele>
        <time>2022-12-27T15:40:40.739Z</time>
      </trkpt>
      <trkpt lat="44.44379" lon="-0.52399">
        <ele>103.266352</ele>
        <time>2022-12-27T15:40:42.746Z</time>
      </trkpt>
      <trkpt lat="44.44375" lon="-0.52381">
        <ele>103.096112</ele>
        <time>2022-12-27T15:40:44.754Z</time>
      </trkpt>
      <trkpt lat="44.4437" lon="-0.52364">
        <ele>102.925969</ele>
        <time>2022-12-27T15:40:46.734Z</time>
      </trkpt>
      <trkpt lat="44.44367" lon="-0.52348">
        <ele>102.767387</ele>
        <time>2022-12-27T15:40:48.738Z</time>
      </trkpt>
      <trkpt lat="44.44364" lon="-0.52334">
        <ele>102.634394</ele>
        <time>2022-12-27T15:40:50.757Z</time>
      </trkpt>
      <trkpt lat="44.4436" lon="-0.52318">
        <ele>102.472926</ele>
        <time>2022-12-27T15:40:52.751Z</time>
      </trkpt>
      <trkpt lat="44.44357" lon="-0.52303">
        <ele>102.333835</ele>
        <time>2022-12-27T15:40:54.755Z</time>
      </trkpt>
      <trkpt lat="44.44354" lon="-0.52286">
        <ele>102.219406</ele>
        <time>2022-12-27T15:40:56.762Z</time>
      </trkpt>
      <trkpt lat="44.44351" lon="-0.52272">
        <ele>102.358247</ele>
        <time>2022-12-27T15:40:58.751Z</time>
      </trkpt>
      <trkpt lat="44.44348" lon="-0.52258">
        <ele>102.490951</ele>
        <time>2022-12-27T15:41:00.754Z</time>
      </trkpt>
      <trkpt lat="44.44346" lon="-0.52246">
        <ele>102.612345</ele>
        <time>2022-12-27T15:41:02.761Z</time>
      </trkpt>
      <trkpt lat="44.44343" lon="-0.5223">
        <ele>102.762195</ele>
        <time>2022-12-27T15:41:04.751Z</time>
      </trkpt>
      <trkpt lat="44.44341" lon="-0.52216">
        <ele>102.903574</ele>
        <time>2022-12-27T15:41:06.757Z</time>
      </trkpt>
      <trkpt lat="44.44338" lon="-0.52202">
        <ele>103.032787</ele>
        <time>2022-12-27T15:41:08.744Z</time>
      </trkpt>
      <trkpt lat="44.44336" lon="-0.52187">
        <ele>103.178116</ele>
        <time>2022-12-27T15:41:10.733Z</time>
      </trkpt>
      <trkpt lat="44.44332" lon="-0.52171">
        <ele>103.338828</ele>
        <time>2022-12-27T15:41:12.737Z</time>
      </trkpt>
      <trkpt lat="44.4433" lon="-0.52159">
        <ele>103.457465</ele>
        <time>2022-12-27T15:41:14.756Z</time>
      </trkpt>
      <trkpt lat="44.44326" lon="-0.52144">
        <ele>103.601402</ele>
        <time>2022-12-27T15:41:16.752Z</time>
      </trkpt>
      <trkpt lat="44.44323" lon="-0.52129">
        <ele>103.752033</ele>
        <time>2022-12-27T15:41:18.750Z</time>
      </trkpt>
      <trkpt lat="44.44319" lon="-0.52113">
        <ele>103.905477</ele>
        <time>2022-12-27T15:41:20.766Z</time>
      </trkpt>
      <trkpt lat="44.44317" lon="-0.52099">
        <ele>104.043252</ele>
        <time>2022-12-27T15:41:22.754Z</time>
      </trkpt>
      <trkpt lat="44.44313" lon="-0.52085">
        <ele>104.1863</ele>
        <time>2022-12-27T15:41:24.753Z</time>
      </trkpt>
      <trkpt lat="44.4431" lon="-0.52068">
        <ele>104.351133</ele>
        <time>2022-12-27T15:41:27.751Z</time>
      </trkpt>
      <trkpt lat="44.44307" lon="-0.52054">
        <ele>104.480772</ele>
        <time>2022-12-27T15:41:30.742Z</time>
      </trkpt>
      <trkpt lat="44.44309" lon="-0.52048">
        <ele>104.539064</ele>
        <time>2022-12-27T15:42:28.149Z</time>
      </trkpt>
      <trkpt lat="44.44261" lon="-0.51833">
        <ele>104.358248</ele>
        <time>2022-12-27T15:46:42.757Z</time>
      </trkpt>
      <trkpt lat="44.44258" lon="-0.51815">
        <ele>104.341311</ele>
        <time>2022-12-27T15:46:45.758Z</time>
      </trkpt>
      <trkpt lat="44.44255" lon="-0.51802">
        <ele>104.347277</ele>
        <time>2022-12-27T15:46:47.757Z</time>
      </trkpt>
      <trkpt lat="44.44252" lon="-0.51787">
        <ele>104.397877</ele>
        <time>2022-12-27T15:46:49.767Z</time>
      </trkpt>
      <trkpt lat="44.44249" lon="-0.51775">
        <ele>104.443489</ele>
        <time>2022-12-27T15:46:51.747Z</time>
      </trkpt>
      <trkpt lat="44.44247" lon="-0.5176">
        <ele>104.494508</ele>
        <time>2022-12-27T15:46:53.759Z</time>
      </trkpt>
      <trkpt lat="44.44244" lon="-0.51747">
        <ele>104.543987</ele>
        <time>2022-12-27T15:46:55.757Z</time>
      </trkpt>
      <trkpt lat="44.44241" lon="-0.51732">
        <ele>104.596118</ele>
        <time>2022-12-27T15:46:57.759Z</time>
      </trkpt>
      <trkpt lat="44.44238" lon="-0.51717">
        <ele>104.647888</ele>
        <time>2022-12-27T15:46:59.752Z</time>
      </trkpt>
      <trkpt lat="44.44235" lon="-0.51702">
        <ele>104.701393</ele>
        <time>2022-12-27T15:47:01.746Z</time>
      </trkpt>
      <trkpt lat="44.44232" lon="-0.51688">
        <ele>104.754079</ele>
        <time>2022-12-27T15:47:03.761Z</time>
      </trkpt>
      <trkpt lat="44.44229" lon="-0.51674">
        <ele>104.801636</ele>
        <time>2022-12-27T15:47:05.753Z</time>
      </trkpt>
      <trkpt lat="44.44226" lon="-0.51659">
        <ele>104.855346</ele>
        <time>2022-12-27T15:47:07.763Z</time>
      </trkpt>
      <trkpt lat="44.44223" lon="-0.51645">
        <ele>104.908095</ele>
        <time>2022-12-27T15:47:09.756Z</time>
      </trkpt>
      <trkpt lat="44.4422" lon="-0.51629">
        <ele>104.963846</ele>
        <time>2022-12-27T15:47:11.746Z</time>
      </trkpt>
      <trkpt lat="44.44217" lon="-0.51614">
        <ele>105.01729</ele>
        <time>2022-12-27T15:47:13.757Z</time>
      </trkpt>
      <trkpt lat="44.44214" lon="-0.51599">
        <ele>105.06988</ele>
        <time>2022-12-27T15:47:15.743Z</time>
      </trkpt>
      <trkpt lat="44.44211" lon="-0.51584">
        <ele>105.123717</ele>
        <time>2022-12-27T15:47:17.756Z</time>
      </trkpt>
      <trkpt lat="44.44208" lon="-0.51569">
        <ele>105.17782</ele>
        <time>2022-12-27T15:47:19.757Z</time>
      </trkpt>
      <trkpt lat="44.44204" lon="-0.51554">
        <ele>105.253828</ele>
        <time>2022-12-27T15:47:21.748Z</time>
      </trkpt>
      <trkpt lat="44.44202" lon="-0.51539">
        <ele>105.337101</ele>
        <time>2022-12-27T15:47:23.756Z</time>
      </trkpt>
      <trkpt lat="44.44199" lon="-0.51525">
        <ele>105.417709</ele>
        <time>2022-12-27T15:47:25.753Z</time>
      </trkpt>
      <trkpt lat="44.44196" lon="-0.5151">
        <ele>105.501979</ele>
        <time>2022-12-27T15:47:27.761Z</time>
      </trkpt>
      <trkpt lat="44.44192" lon="-0.51494">
        <ele>105.592236</ele>
        <time>2022-12-27T15:47:29.755Z</time>
      </trkpt>
      <trkpt lat="44.44189" lon="-0.51479">
        <ele>105.678295</ele>
        <time>2022-12-27T15:47:31.743Z</time>
      </trkpt>
      <trkpt lat="44.44186" lon="-0.51464">
        <ele>105.762565</ele>
        <time>2022-12-27T15:47:33.754Z</time>
      </trkpt>
      <trkpt lat="44.44183" lon="-0.51449">
        <ele>105.850582</ele>
        <time>2022-12-27T15:47:35.760Z</time>
      </trkpt>
      <trkpt lat="44.4418" lon="-0.51435">
        <ele>105.927707</ele>
        <time>2022-12-27T15:47:37.755Z</time>
      </trkpt>
      <trkpt lat="44.44176" lon="-0.51419">
        <ele>106.019963</ele>
        <time>2022-12-27T15:47:39.755Z</time>
      </trkpt>
      <trkpt lat="44.44173" lon="-0.51404">
        <ele>106.103496</ele>
        <time>2022-12-27T15:47:41.746Z</time>
      </trkpt>
      <trkpt lat="44.44171" lon="-0.51389">
        <ele>106.190514</ele>
        <time>2022-12-27T15:47:43.754Z</time>
      </trkpt>
      <trkpt lat="44.44167" lon="-0.51374">
        <ele>106.27575</ele>
        <time>2022-12-27T15:47:45.767Z</time>
      </trkpt>
      <trkpt lat="44.44165" lon="-0.5136">
        <ele>106.357963</ele>
        <time>2022-12-27T15:47:47.755Z</time>
      </trkpt>
      <trkpt lat="44.44161" lon="-0.51345">
        <ele>106.442453</ele>
        <time>2022-12-27T15:47:49.757Z</time>
      </trkpt>
      <trkpt lat="44.44158" lon="-0.5133">
        <ele>106.528512</ele>
        <time>2022-12-27T15:47:51.740Z</time>
      </trkpt>
      <trkpt lat="44.44155" lon="-0.51313">
        <ele>106.525506</ele>
        <time>2022-12-27T15:47:53.758Z</time>
      </trkpt>
      <trkpt lat="44.44153" lon="-0.51299">
        <ele>106.44366</ele>
        <time>2022-12-27T15:47:55.752Z</time>
      </trkpt>
      <trkpt lat="44.4415" lon="-0.51286">
        <ele>106.363119</ele>
        <time>2022-12-27T15:47:57.767Z</time>
      </trkpt>
      <trkpt lat="44.44146" lon="-0.51271">
        <ele>106.27723</ele>
        <time>2022-12-27T15:47:59.767Z</time>
      </trkpt>
      <trkpt lat="44.44143" lon="-0.51256">
        <ele>106.186241</ele>
        <time>2022-12-27T15:48:01.738Z</time>
      </trkpt>
      <trkpt lat="44.4414" lon="-0.51242">
        <ele>106.103553</ele>
        <time>2022-12-27T15:48:03.753Z</time>
      </trkpt>
      <trkpt lat="44.44136" lon="-0.51226">
        <ele>106.0086</ele>
        <time>2022-12-27T15:48:05.760Z</time>
      </trkpt>
      <trkpt lat="44.44134" lon="-0.51212">
        <ele>105.925657</ele>
        <time>2022-12-27T15:48:07.757Z</time>
      </trkpt>
      <trkpt lat="44.44131" lon="-0.51197">
        <ele>105.834201</ele>
        <time>2022-12-27T15:48:09.767Z</time>
      </trkpt>
      <trkpt lat="44.44127" lon="-0.51182">
        <ele>105.747658</ele>
        <time>2022-12-27T15:48:11.745Z</time>
      </trkpt>
      <trkpt lat="44.44125" lon="-0.51167">
        <ele>105.661555</ele>
        <time>2022-12-27T15:48:13.755Z</time>
      </trkpt>
      <trkpt lat="44.44121" lon="-0.51152">
        <ele>105.568883</ele>
        <time>2022-12-27T15:48:15.767Z</time>
      </trkpt>
      <trkpt lat="44.44118" lon="-0.51137">
        <ele>105.48125</ele>
        <time>2022-12-27T15:48:17.759Z</time>
      </trkpt>
      <trkpt lat="44.44115" lon="-0.51121">
        <ele>105.388908</ele>
        <time>2022-12-27T15:48:19.758Z</time>
      </trkpt>
      <trkpt lat="44.44112" lon="-0.51106">
        <ele>105.298166</ele>
        <time>2022-12-27T15:48:21.750Z</time>
      </trkpt>
      <trkpt lat="44.44109" lon="-0.51091">
        <ele>105.209871</ele>
        <time>2022-12-27T15:48:23.758Z</time>
      </trkpt>
      <trkpt lat="44.44105" lon="-0.51076">
        <ele>105.097469</ele>
        <time>2022-12-27T15:48:25.764Z</time>
      </trkpt>
      <trkpt lat="44.44102" lon="-0.51061">
        <ele>104.941406</ele>
        <time>2022-12-27T15:48:27.756Z</time>
      </trkpt>
      <trkpt lat="44.44099" lon="-0.51046">
        <ele>104.790735</ele>
        <time>2022-12-27T15:48:29.757Z</time>
      </trkpt>
      <trkpt lat="44.44096" lon="-0.51031">
        <ele>104.63272</ele>
        <time>2022-12-27T15:48:31.747Z</time>
      </trkpt>
      <trkpt lat="44.44094" lon="-0.51017">
        <ele>104.483283</ele>
        <time>2022-12-27T15:48:33.764Z</time>
      </trkpt>
      <trkpt lat="44.44091" lon="-0.51003">
        <ele>104.334438</ele>
        <time>2022-12-27T15:48:35.770Z</time>
      </trkpt>
      <trkpt lat="44.44088" lon="-0.50989">
        <ele>104.185058</ele>
        <time>2022-12-27T15:48:37.766Z</time>
      </trkpt>
      <trkpt lat="44.44085" lon="-0.50975">
        <ele>104.037429</ele>
        <time>2022-12-27T15:48:39.762Z</time>
      </trkpt>
      <trkpt lat="44.44082" lon="-0.5096">
        <ele>103.883316</ele>
        <time>2022-12-27T15:48:41.749Z</time>
      </trkpt>
      <trkpt lat="44.44079" lon="-0.50946">
        <ele>103.730331</ele>
        <time>2022-12-27T15:48:43.756Z</time>
      </trkpt>
      <trkpt lat="44.44075" lon="-0.5093">
        <ele>103.558321</ele>
        <time>2022-12-27T15:48:45.758Z</time>
      </trkpt>
      <trkpt lat="44.44072" lon="-0.50915">
        <ele>103.401401</ele>
        <time>2022-12-27T15:48:47.766Z</time>
      </trkpt>
      <trkpt lat="44.44069" lon="-0.509">
        <ele>103.241045</ele>
        <time>2022-12-27T15:48:49.755Z</time>
      </trkpt>
      <trkpt lat="44.44066" lon="-0.50885">
        <ele>103.08436</ele>
        <time>2022-12-27T15:48:51.748Z</time>
      </trkpt>
      <trkpt lat="44.44063" lon="-0.50872">
        <ele>102.947169</ele>
        <time>2022-12-27T15:48:53.758Z</time>
      </trkpt>
      <trkpt lat="44.44061" lon="-0.50858">
        <ele>102.803089</ele>
        <time>2022-12-27T15:48:55.755Z</time>
      </trkpt>
      <trkpt lat="44.44058" lon="-0.50845">
        <ele>102.660874</ele>
        <time>2022-12-27T15:48:57.756Z</time>
      </trkpt>
      <trkpt lat="44.44055" lon="-0.50832">
        <ele>102.560788</ele>
        <time>2022-12-27T15:48:59.753Z</time>
      </trkpt>
      <trkpt lat="44.44052" lon="-0.50817">
        <ele>102.483196</ele>
        <time>2022-12-27T15:49:01.774Z</time>
      </trkpt>
      <trkpt lat="44.44049" lon="-0.50802">
        <ele>102.409145</ele>
        <time>2022-12-27T15:49:03.755Z</time>
      </trkpt>
      <trkpt lat="44.44046" lon="-0.50788">
        <ele>102.33888</ele>
        <time>2022-12-27T15:49:05.768Z</time>
      </trkpt>
      <trkpt lat="44.44043" lon="-0.50773">
        <ele>102.265097</ele>
        <time>2022-12-27T15:49:07.756Z</time>
      </trkpt>
      <trkpt lat="44.4404" lon="-0.50758">
        <ele>102.189201</ele>
        <time>2022-12-27T15:49:09.759Z</time>
      </trkpt>
      <trkpt lat="44.44037" lon="-0.50744">
        <ele>102.116651</ele>
        <time>2022-12-27T15:49:11.745Z</time>
      </trkpt>
      <trkpt lat="44.44034" lon="-0.5073">
        <ele>102.046562</ele>
        <time>2022-12-27T15:49:13.757Z</time>
      </trkpt>
      <trkpt lat="44.4403" lon="-0.50714">
        <ele>101.968253</ele>
        <time>2022-12-27T15:49:15.754Z</time>
      </trkpt>
      <trkpt lat="44.44028" lon="-0.507">
        <ele>101.899836</ele>
        <time>2022-12-27T15:49:17.758Z</time>
      </trkpt>
      <trkpt lat="44.44025" lon="-0.50686">
        <ele>101.826497</ele>
        <time>2022-12-27T15:49:19.755Z</time>
      </trkpt>
      <trkpt lat="44.44022" lon="-0.50672">
        <ele>101.758608</ele>
        <time>2022-12-27T15:49:21.740Z</time>
      </trkpt>
      <trkpt lat="44.44019" lon="-0.50656">
        <ele>101.680219</ele>
        <time>2022-12-27T15:49:23.768Z</time>
      </trkpt>
      <trkpt lat="44.44016" lon="-0.50641">
        <ele>101.602825</ele>
        <time>2022-12-27T15:49:25.753Z</time>
      </trkpt>
      <trkpt lat="44.44013" lon="-0.50627">
        <ele>101.534026</ele>
        <time>2022-12-27T15:49:27.752Z</time>
      </trkpt>
      <trkpt lat="44.4401" lon="-0.50612">
        <ele>101.457804</ele>
        <time>2022-12-27T15:49:29.757Z</time>
      </trkpt>
      <trkpt lat="44.44007" lon="-0.50599">
        <ele>101.39353</ele>
        <time>2022-12-27T15:49:31.748Z</time>
      </trkpt>
      <trkpt lat="44.44005" lon="-0.50586">
        <ele>101.350395</ele>
        <time>2022-12-27T15:49:33.761Z</time>
      </trkpt>
      <trkpt lat="44.44002" lon="-0.50572">
        <ele>101.312837</ele>
        <time>2022-12-27T15:49:35.756Z</time>
      </trkpt>
      <trkpt lat="44.44" lon="-0.50559">
        <ele>101.27644</ele>
        <time>2022-12-27T15:49:37.766Z</time>
      </trkpt>
      <trkpt lat="44.43997" lon="-0.50545">
        <ele>101.239835</ele>
        <time>2022-12-27T15:49:39.766Z</time>
      </trkpt>
      <trkpt lat="44.43994" lon="-0.5053">
        <ele>101.199085</ele>
        <time>2022-12-27T15:49:41.745Z</time>
      </trkpt>
      <trkpt lat="44.4399" lon="-0.50516">
        <ele>101.158381</ele>
        <time>2022-12-27T15:49:43.759Z</time>
      </trkpt>
      <trkpt lat="44.43987" lon="-0.50501">
        <ele>101.116361</ele>
        <time>2022-12-27T15:49:45.760Z</time>
      </trkpt>
      <trkpt lat="44.43983" lon="-0.50485">
        <ele>101.074395</ele>
        <time>2022-12-27T15:49:47.756Z</time>
      </trkpt>
      <trkpt lat="44.4398" lon="-0.5047">
        <ele>101.031603</ele>
        <time>2022-12-27T15:49:49.760Z</time>
      </trkpt>
      <trkpt lat="44.43977" lon="-0.50453">
        <ele>100.986947</ele>
        <time>2022-12-27T15:49:51.759Z</time>
      </trkpt>
      <trkpt lat="44.43974" lon="-0.50438">
        <ele>100.945804</ele>
        <time>2022-12-27T15:49:53.761Z</time>
      </trkpt>
      <trkpt lat="44.4397" lon="-0.50423">
        <ele>100.903784</ele>
        <time>2022-12-27T15:49:55.742Z</time>
      </trkpt>
      <trkpt lat="44.43967" lon="-0.50407">
        <ele>100.860047</ele>
        <time>2022-12-27T15:49:57.754Z</time>
      </trkpt>
      <trkpt lat="44.43964" lon="-0.50392">
        <ele>100.818981</ele>
        <time>2022-12-27T15:49:59.747Z</time>
      </trkpt>
      <trkpt lat="44.43961" lon="-0.50376">
        <ele>100.776257</ele>
        <time>2022-12-27T15:50:01.738Z</time>
      </trkpt>
      <trkpt lat="44.43958" lon="-0.50362">
        <ele>100.737449</ele>
        <time>2022-12-27T15:50:03.755Z</time>
      </trkpt>
      <trkpt lat="44.43955" lon="-0.5035">
        <ele>100.659558</ele>
        <time>2022-12-27T15:50:05.752Z</time>
      </trkpt>
      <trkpt lat="44.43952" lon="-0.50334">
        <ele>100.475103</ele>
        <time>2022-12-27T15:50:07.759Z</time>
      </trkpt>
      <trkpt lat="44.43949" lon="-0.50319">
        <ele>100.304471</ele>
        <time>2022-12-27T15:50:09.754Z</time>
      </trkpt>
      <trkpt lat="44.43946" lon="-0.50304">
        <ele>100.133996</ele>
        <time>2022-12-27T15:50:11.747Z</time>
      </trkpt>
      <trkpt lat="44.43943" lon="-0.50288">
        <ele>99.947379</ele>
        <time>2022-12-27T15:50:13.759Z</time>
      </trkpt>
      <trkpt lat="44.4394" lon="-0.50273">
        <ele>99.76419</ele>
        <time>2022-12-27T15:50:15.758Z</time>
      </trkpt>
      <trkpt lat="44.43936" lon="-0.50258">
        <ele>99.59005</ele>
        <time>2022-12-27T15:50:17.756Z</time>
      </trkpt>
      <trkpt lat="44.43933" lon="-0.50244">
        <ele>99.42971</ele>
        <time>2022-12-27T15:50:19.758Z</time>
      </trkpt>
      <trkpt lat="44.4393" lon="-0.5023">
        <ele>99.263829</ele>
        <time>2022-12-27T15:50:21.748Z</time>
      </trkpt>
      <trkpt lat="44.43927" lon="-0.50217">
        <ele>99.111324</ele>
        <time>2022-12-27T15:50:23.762Z</time>
      </trkpt>
      <trkpt lat="44.43925" lon="-0.50204">
        <ele>98.954352</ele>
        <time>2022-12-27T15:50:25.755Z</time>
      </trkpt>
      <trkpt lat="44.43922" lon="-0.5019">
        <ele>98.794483</ele>
        <time>2022-12-27T15:50:27.766Z</time>
      </trkpt>
      <trkpt lat="44.4392" lon="-0.50176">
        <ele>98.629837</ele>
        <time>2022-12-27T15:50:29.757Z</time>
      </trkpt>
      <trkpt lat="44.43917" lon="-0.50162">
        <ele>98.465465</ele>
        <time>2022-12-27T15:50:31.745Z</time>
      </trkpt>
      <trkpt lat="44.43914" lon="-0.50147">
        <ele>98.298504</ele>
        <time>2022-12-27T15:50:33.768Z</time>
      </trkpt>
      <trkpt lat="44.4391" lon="-0.50133">
        <ele>98.127093</ele>
        <time>2022-12-27T15:50:35.754Z</time>
      </trkpt>
      <trkpt lat="44.43908" lon="-0.5012">
        <ele>97.971358</ele>
        <time>2022-12-27T15:50:37.759Z</time>
      </trkpt>
      <trkpt lat="44.43905" lon="-0.50106">
        <ele>97.865961</ele>
        <time>2022-12-27T15:50:39.765Z</time>
      </trkpt>
      <trkpt lat="44.43902" lon="-0.50092">
        <ele>97.823367</ele>
        <time>2022-12-27T15:50:41.751Z</time>
      </trkpt>
      <trkpt lat="44.43899" lon="-0.50079">
        <ele>97.783443</ele>
        <time>2022-12-27T15:50:43.758Z</time>
      </trkpt>
      <trkpt lat="44.43896" lon="-0.50065">
        <ele>97.741563</ele>
        <time>2022-12-27T15:50:45.765Z</time>
      </trkpt>
      <trkpt lat="44.43892" lon="-0.50053">
        <ele>97.701291</ele>
        <time>2022-12-27T15:50:47.756Z</time>
      </trkpt>
      <trkpt lat="44.43889" lon="-0.50039">
        <ele>97.657691</ele>
        <time>2022-12-27T15:50:49.768Z</time>
      </trkpt>
      <trkpt lat="44.43887" lon="-0.50026">
        <ele>97.62054</ele>
        <time>2022-12-27T15:50:51.740Z</time>
      </trkpt>
      <trkpt lat="44.43884" lon="-0.5001">
        <ele>97.570484</ele>
        <time>2022-12-27T15:50:53.755Z</time>
      </trkpt>
      <trkpt lat="44.43881" lon="-0.49997">
        <ele>97.529136</ele>
        <time>2022-12-27T15:50:55.756Z</time>
      </trkpt>
      <trkpt lat="44.43878" lon="-0.49982">
        <ele>97.483488</ele>
        <time>2022-12-27T15:50:57.758Z</time>
      </trkpt>
      <trkpt lat="44.43875" lon="-0.49968">
        <ele>97.442262</ele>
        <time>2022-12-27T15:50:59.759Z</time>
      </trkpt>
      <trkpt lat="44.43871" lon="-0.49952">
        <ele>97.393175</ele>
        <time>2022-12-27T15:51:01.749Z</time>
      </trkpt>
      <trkpt lat="44.43868" lon="-0.49937">
        <ele>97.347526</ele>
        <time>2022-12-27T15:51:03.759Z</time>
      </trkpt>
      <trkpt lat="44.43865" lon="-0.49922">
        <ele>97.300109</ele>
        <time>2022-12-27T15:51:05.772Z</time>
      </trkpt>
      <trkpt lat="44.43861" lon="-0.49907">
        <ele>97.254053</ele>
        <time>2022-12-27T15:51:07.757Z</time>
      </trkpt>
      <trkpt lat="44.43858" lon="-0.49891">
        <ele>97.204621</ele>
        <time>2022-12-27T15:51:09.759Z</time>
      </trkpt>
      <trkpt lat="44.43855" lon="-0.49876">
        <ele>97.157742</ele>
        <time>2022-12-27T15:51:11.746Z</time>
      </trkpt>
      <trkpt lat="44.43852" lon="-0.49861">
        <ele>97.361597</ele>
        <time>2022-12-27T15:51:13.758Z</time>
      </trkpt>
      <trkpt lat="44.43849" lon="-0.49846">
        <ele>97.678355</ele>
        <time>2022-12-27T15:51:15.754Z</time>
      </trkpt>
      <trkpt lat="44.43846" lon="-0.49832">
        <ele>97.980357</ele>
        <time>2022-12-27T15:51:17.754Z</time>
      </trkpt>
      <trkpt lat="44.43843" lon="-0.49818">
        <ele>98.271877</ele>
        <time>2022-12-27T15:51:19.760Z</time>
      </trkpt>
      <trkpt lat="44.43841" lon="-0.49804">
        <ele>98.55478</ele>
        <time>2022-12-27T15:51:21.746Z</time>
      </trkpt>
      <trkpt lat="44.43839" lon="-0.4979">
        <ele>98.845328</ele>
        <time>2022-12-27T15:51:23.755Z</time>
      </trkpt>
      <trkpt lat="44.43836" lon="-0.49776">
        <ele>99.148243</ele>
        <time>2022-12-27T15:51:25.764Z</time>
      </trkpt>
      <trkpt lat="44.43833" lon="-0.49763">
        <ele>99.436979</ele>
        <time>2022-12-27T15:51:27.736Z</time>
      </trkpt>
      <trkpt lat="44.43829" lon="-0.49748">
        <ele>99.745686</ele>
        <time>2022-12-27T15:51:29.756Z</time>
      </trkpt>
      <trkpt lat="44.43826" lon="-0.49733">
        <ele>100.05822</ele>
        <time>2022-12-27T15:51:31.751Z</time>
      </trkpt>
      <trkpt lat="44.43823" lon="-0.49715">
        <ele>100.440124</ele>
        <time>2022-12-27T15:51:34.764Z</time>
      </trkpt>
      <trkpt lat="44.4382" lon="-0.49701">
        <ele>100.747154</ele>
        <time>2022-12-27T15:51:36.754Z</time>
      </trkpt>
      <trkpt lat="44.43817" lon="-0.49686">
        <ele>101.060423</ele>
        <time>2022-12-27T15:51:38.759Z</time>
      </trkpt>
      <trkpt lat="44.43814" lon="-0.49671">
        <ele>101.36316</ele>
        <time>2022-12-27T15:51:40.758Z</time>
      </trkpt>
      <trkpt lat="44.43811" lon="-0.49657">
        <ele>101.66744</ele>
        <time>2022-12-27T15:51:42.768Z</time>
      </trkpt>
      <trkpt lat="44.43808" lon="-0.49644">
        <ele>101.939842</ele>
        <time>2022-12-27T15:51:44.757Z</time>
      </trkpt>
      <trkpt lat="44.43805" lon="-0.49629">
        <ele>102.253849</ele>
        <time>2022-12-27T15:51:46.766Z</time>
      </trkpt>
      <trkpt lat="44.43802" lon="-0.49615">
        <ele>102.209039</ele>
        <time>2022-12-27T15:51:48.749Z</time>
      </trkpt>
      <trkpt lat="44.43798" lon="-0.49599">
        <ele>102.158748</ele>
        <time>2022-12-27T15:51:50.766Z</time>
      </trkpt>
      <trkpt lat="44.43795" lon="-0.49585">
        <ele>102.1148</ele>
        <time>2022-12-27T15:51:52.763Z</time>
      </trkpt>
      <trkpt lat="44.43792" lon="-0.49571">
        <ele>102.071766</ele>
        <time>2022-12-27T15:51:54.759Z</time>
      </trkpt>
      <trkpt lat="44.43788" lon="-0.49553">
        <ele>102.014706</ele>
        <time>2022-12-27T15:51:57.753Z</time>
      </trkpt>
      <trkpt lat="44.43784" lon="-0.49536">
        <ele>101.961722</ele>
        <time>2022-12-27T15:51:59.757Z</time>
      </trkpt>
      <trkpt lat="44.43781" lon="-0.49522">
        <ele>101.917747</ele>
        <time>2022-12-27T15:52:01.738Z</time>
      </trkpt>
      <trkpt lat="44.43778" lon="-0.49507">
        <ele>101.87073</ele>
        <time>2022-12-27T15:52:03.745Z</time>
      </trkpt>
      <trkpt lat="44.43775" lon="-0.49491">
        <ele>101.822136</ele>
        <time>2022-12-27T15:52:05.766Z</time>
      </trkpt>
      <trkpt lat="44.43771" lon="-0.49476">
        <ele>101.775026</ele>
        <time>2022-12-27T15:52:07.760Z</time>
      </trkpt>
      <trkpt lat="44.43767" lon="-0.49459">
        <ele>101.723608</ele>
        <time>2022-12-27T15:52:09.767Z</time>
      </trkpt>
      <trkpt lat="44.43764" lon="-0.49443">
        <ele>101.672421</ele>
        <time>2022-12-27T15:52:11.747Z</time>
      </trkpt>
      <trkpt lat="44.43762" lon="-0.49429">
        <ele>101.629273</ele>
        <time>2022-12-27T15:52:13.760Z</time>
      </trkpt>
      <trkpt lat="44.43759" lon="-0.49414">
        <ele>101.583019</ele>
        <time>2022-12-27T15:52:15.750Z</time>
      </trkpt>
      <trkpt lat="44.43756" lon="-0.494">
        <ele>101.541195</ele>
        <time>2022-12-27T15:52:17.765Z</time>
      </trkpt>
      <trkpt lat="44.43753" lon="-0.49388">
        <ele>101.50325</ele>
        <time>2022-12-27T15:52:19.760Z</time>
      </trkpt>
      <trkpt lat="44.43751" lon="-0.49375">
        <ele>101.502459</ele>
        <time>2022-12-27T15:52:21.748Z</time>
      </trkpt>
      <trkpt lat="44.43747" lon="-0.49357">
        <ele>101.502459</ele>
        <time>2022-12-27T15:52:24.750Z</time>
      </trkpt>
      <trkpt lat="44.43744" lon="-0.49339">
        <ele>101.502459</ele>
        <time>2022-12-27T15:52:27.765Z</time>
      </trkpt>
      <trkpt lat="44.43741" lon="-0.49326">
        <ele>101.502459</ele>
        <time>2022-12-27T15:52:29.754Z</time>
      </trkpt>
      <trkpt lat="44.43738" lon="-0.49309">
        <ele>101.502459</ele>
        <time>2022-12-27T15:52:32.767Z</time>
      </trkpt>
      <trkpt lat="44.43734" lon="-0.49293">
        <ele>101.502459</ele>
        <time>2022-12-27T15:52:35.793Z</time>
      </trkpt>
      <trkpt lat="44.43731" lon="-0.49277">
        <ele>101.502459</ele>
        <time>2022-12-27T15:52:38.757Z</time>
      </trkpt>
      <trkpt lat="44.43728" lon="-0.49262">
        <ele>101.502459</ele>
        <time>2022-12-27T15:52:41.758Z</time>
      </trkpt>
      <trkpt lat="44.43724" lon="-0.49248">
        <ele>101.502459</ele>
        <time>2022-12-27T15:52:44.757Z</time>
      </trkpt>
      <trkpt lat="44.43722" lon="-0.49238">
        <ele>101.502459</ele>
        <time>2022-12-27T15:52:54.955Z</time>
      </trkpt>
      <trkpt lat="44.43723" lon="-0.49239">
        <ele>103.315863</ele>
        <time>2022-12-27T15:56:09.442Z</time>
      </trkpt>
      <trkpt lat="44.43719" lon="-0.49222">
        <ele>103.315863</ele>
        <time>2022-12-27T15:56:22.730Z</time>
      </trkpt>
      <trkpt lat="44.43716" lon="-0.49207">
        <ele>103.315863</ele>
        <time>2022-12-27T15:56:26.726Z</time>
      </trkpt>
      <trkpt lat="44.43714" lon="-0.49194">
        <ele>103.315863</ele>
        <time>2022-12-27T15:56:29.745Z</time>
      </trkpt>
      <trkpt lat="44.4371" lon="-0.49179">
        <ele>103.315863</ele>
        <time>2022-12-27T15:56:32.736Z</time>
      </trkpt>
      <trkpt lat="44.43705" lon="-0.49164">
        <ele>103.315863</ele>
        <time>2022-12-27T15:56:35.746Z</time>
      </trkpt>
      <trkpt lat="44.43702" lon="-0.49146">
        <ele>103.315863</ele>
        <time>2022-12-27T15:56:38.744Z</time>
      </trkpt>
      <trkpt lat="44.43702" lon="-0.49133">
        <ele>103.315863</ele>
        <time>2022-12-27T15:56:40.745Z</time>
      </trkpt>
      <trkpt lat="44.43699" lon="-0.4912">
        <ele>103.315863</ele>
        <time>2022-12-27T15:56:42.742Z</time>
      </trkpt>
      <trkpt lat="44.43697" lon="-0.49107">
        <ele>103.240674</ele>
        <time>2022-12-27T15:56:44.746Z</time>
      </trkpt>
      <trkpt lat="44.43694" lon="-0.49094">
        <ele>103.157095</ele>
        <time>2022-12-27T15:56:46.732Z</time>
      </trkpt>
      <trkpt lat="44.43692" lon="-0.4908">
        <ele>103.067281</ele>
        <time>2022-12-27T15:56:48.737Z</time>
      </trkpt>
      <trkpt lat="44.43689" lon="-0.49066">
        <ele>102.976333</ele>
        <time>2022-12-27T15:56:50.732Z</time>
      </trkpt>
      <trkpt lat="44.43686" lon="-0.49053">
        <ele>102.885385</ele>
        <time>2022-12-27T15:56:52.745Z</time>
      </trkpt>
      <trkpt lat="44.43683" lon="-0.4904">
        <ele>102.799581</ele>
        <time>2022-12-27T15:56:54.729Z</time>
      </trkpt>
      <trkpt lat="44.4368" lon="-0.49026">
        <ele>102.70778</ele>
        <time>2022-12-27T15:56:56.752Z</time>
      </trkpt>
      <trkpt lat="44.43677" lon="-0.49013">
        <ele>102.622992</ele>
        <time>2022-12-27T15:56:58.744Z</time>
      </trkpt>
      <trkpt lat="44.43674" lon="-0.49">
        <ele>102.538653</ele>
        <time>2022-12-27T15:57:00.746Z</time>
      </trkpt>
      <trkpt lat="44.43671" lon="-0.48982">
        <ele>102.426414</ele>
        <time>2022-12-27T15:57:03.736Z</time>
      </trkpt>
      <trkpt lat="44.43669" lon="-0.4897">
        <ele>102.347543</ele>
        <time>2022-12-27T15:57:05.744Z</time>
      </trkpt>
      <trkpt lat="44.43665" lon="-0.48952">
        <ele>102.228284</ele>
        <time>2022-12-27T15:57:08.743Z</time>
      </trkpt>
      <trkpt lat="44.43661" lon="-0.48934">
        <ele>102.109796</ele>
        <time>2022-12-27T15:57:11.753Z</time>
      </trkpt>
      <trkpt lat="44.43659" lon="-0.48922">
        <ele>102.028117</ele>
        <time>2022-12-27T15:57:13.734Z</time>
      </trkpt>
      <trkpt lat="44.43656" lon="-0.48907">
        <ele>101.934754</ele>
        <time>2022-12-27T15:57:15.743Z</time>
      </trkpt>
      <trkpt lat="44.43653" lon="-0.48893">
        <ele>101.843296</ele>
        <time>2022-12-27T15:57:17.750Z</time>
      </trkpt>
      <trkpt lat="44.4365" lon="-0.48879">
        <ele>101.749087</ele>
        <time>2022-12-27T15:57:19.744Z</time>
      </trkpt>
      <trkpt lat="44.43647" lon="-0.48865">
        <ele>101.521226</ele>
        <time>2022-12-27T15:57:21.744Z</time>
      </trkpt>
      <trkpt lat="44.43644" lon="-0.48851">
        <ele>101.259546</ele>
        <time>2022-12-27T15:57:23.746Z</time>
      </trkpt>
      <trkpt lat="44.43641" lon="-0.48837">
        <ele>101.006765</ele>
        <time>2022-12-27T15:57:25.745Z</time>
      </trkpt>
      <trkpt lat="44.43638" lon="-0.48823">
        <ele>100.746061</ele>
        <time>2022-12-27T15:57:27.744Z</time>
      </trkpt>
      <trkpt lat="44.43635" lon="-0.48809">
        <ele>100.490492</ele>
        <time>2022-12-27T15:57:29.745Z</time>
      </trkpt>
      <trkpt lat="44.43632" lon="-0.48795">
        <ele>100.229512</ele>
        <time>2022-12-27T15:57:31.743Z</time>
      </trkpt>
      <trkpt lat="44.4363" lon="-0.48781">
        <ele>99.967658</ele>
        <time>2022-12-27T15:57:33.746Z</time>
      </trkpt>
      <trkpt lat="44.43627" lon="-0.48767">
        <ele>99.7118</ele>
        <time>2022-12-27T15:57:35.747Z</time>
      </trkpt>
      <trkpt lat="44.43624" lon="-0.48755">
        <ele>99.473082</ele>
        <time>2022-12-27T15:57:37.747Z</time>
      </trkpt>
      <trkpt lat="44.43621" lon="-0.48741">
        <ele>99.217224</ele>
        <time>2022-12-27T15:57:39.746Z</time>
      </trkpt>
      <trkpt lat="44.43618" lon="-0.48727">
        <ele>98.956689</ele>
        <time>2022-12-27T15:57:41.751Z</time>
      </trkpt>
      <trkpt lat="44.43615" lon="-0.48713">
        <ele>98.701817</ele>
        <time>2022-12-27T15:57:43.747Z</time>
      </trkpt>
      <trkpt lat="44.43612" lon="-0.487">
        <ele>98.465922</ele>
        <time>2022-12-27T15:57:45.731Z</time>
      </trkpt>
      <trkpt lat="44.4361" lon="-0.48687">
        <ele>98.224744</ele>
        <time>2022-12-27T15:57:47.755Z</time>
      </trkpt>
      <trkpt lat="44.43608" lon="-0.48675">
        <ele>97.998597</ele>
        <time>2022-12-27T15:57:49.744Z</time>
      </trkpt>
      <trkpt lat="44.43604" lon="-0.48661">
        <ele>97.736373</ele>
        <time>2022-12-27T15:57:51.744Z</time>
      </trkpt>
      <trkpt lat="44.43602" lon="-0.48647">
        <ele>97.486335</ele>
        <time>2022-12-27T15:57:53.745Z</time>
      </trkpt>
      <trkpt lat="44.43599" lon="-0.48633">
        <ele>97.237691</ele>
        <time>2022-12-27T15:57:55.733Z</time>
      </trkpt>
      <trkpt lat="44.43596" lon="-0.48619">
        <ele>97.093007</ele>
        <time>2022-12-27T15:57:57.744Z</time>
      </trkpt>
      <trkpt lat="44.43593" lon="-0.48604">
        <ele>96.948323</ele>
        <time>2022-12-27T15:57:59.749Z</time>
      </trkpt>
      <trkpt lat="44.4359" lon="-0.4859">
        <ele>96.802315</ele>
        <time>2022-12-27T15:58:01.759Z</time>
      </trkpt>
      <trkpt lat="44.43587" lon="-0.48576">
        <ele>96.664478</ele>
        <time>2022-12-27T15:58:03.752Z</time>
      </trkpt>
      <trkpt lat="44.43584" lon="-0.48561">
        <ele>96.515895</ele>
        <time>2022-12-27T15:58:05.745Z</time>
      </trkpt>
      <trkpt lat="44.4358" lon="-0.48547">
        <ele>96.363594</ele>
        <time>2022-12-27T15:58:07.733Z</time>
      </trkpt>
      <trkpt lat="44.43577" lon="-0.48532">
        <ele>96.213342</ele>
        <time>2022-12-27T15:58:09.746Z</time>
      </trkpt>
      <trkpt lat="44.43574" lon="-0.48516">
        <ele>96.054506</ele>
        <time>2022-12-27T15:58:11.743Z</time>
      </trkpt>
      <trkpt lat="44.43571" lon="-0.485">
        <ele>95.895505</ele>
        <time>2022-12-27T15:58:13.743Z</time>
      </trkpt>
      <trkpt lat="44.43568" lon="-0.48485">
        <ele>95.737565</ele>
        <time>2022-12-27T15:58:15.742Z</time>
      </trkpt>
      <trkpt lat="44.43564" lon="-0.4847">
        <ele>95.584775</ele>
        <time>2022-12-27T15:58:17.743Z</time>
      </trkpt>
      <trkpt lat="44.4356" lon="-0.48455">
        <ele>95.431596</ele>
        <time>2022-12-27T15:58:19.745Z</time>
      </trkpt>
      <trkpt lat="44.43556" lon="-0.4844">
        <ele>95.275193</ele>
        <time>2022-12-27T15:58:21.727Z</time>
      </trkpt>
      <trkpt lat="44.43552" lon="-0.48425">
        <ele>95.124205</ele>
        <time>2022-12-27T15:58:23.747Z</time>
      </trkpt>
      <trkpt lat="44.43547" lon="-0.48411">
        <ele>94.974431</ele>
        <time>2022-12-27T15:58:25.743Z</time>
      </trkpt>
      <trkpt lat="44.43542" lon="-0.48396">
        <ele>94.812366</ele>
        <time>2022-12-27T15:58:27.745Z</time>
      </trkpt>
      <trkpt lat="44.43536" lon="-0.48382">
        <ele>94.763582</ele>
        <time>2022-12-27T15:58:29.743Z</time>
      </trkpt>
      <trkpt lat="44.4353" lon="-0.48367">
        <ele>94.712593</ele>
        <time>2022-12-27T15:58:31.744Z</time>
      </trkpt>
      <trkpt lat="44.43525" lon="-0.48353">
        <ele>94.664876</ele>
        <time>2022-12-27T15:58:33.745Z</time>
      </trkpt>
      <trkpt lat="44.43519" lon="-0.48341">
        <ele>94.62166</ele>
        <time>2022-12-27T15:58:35.746Z</time>
      </trkpt>
      <trkpt lat="44.43514" lon="-0.4833">
        <ele>94.58117</ele>
        <time>2022-12-27T15:58:37.746Z</time>
      </trkpt>
      <trkpt lat="44.43509" lon="-0.48318">
        <ele>94.538416</ele>
        <time>2022-12-27T15:58:39.747Z</time>
      </trkpt>
      <trkpt lat="44.43503" lon="-0.48307">
        <ele>94.495219</ele>
        <time>2022-12-27T15:58:41.730Z</time>
      </trkpt>
      <trkpt lat="44.43496" lon="-0.48294">
        <ele>94.448328</ele>
        <time>2022-12-27T15:58:43.753Z</time>
      </trkpt>
      <trkpt lat="44.4349" lon="-0.48282">
        <ele>94.402157</ele>
        <time>2022-12-27T15:58:45.727Z</time>
      </trkpt>
      <trkpt lat="44.43483" lon="-0.4827">
        <ele>94.355872</ele>
        <time>2022-12-27T15:58:47.751Z</time>
      </trkpt>
      <trkpt lat="44.43476" lon="-0.48259">
        <ele>94.311016</ele>
        <time>2022-12-27T15:58:49.740Z</time>
      </trkpt>
      <trkpt lat="44.43468" lon="-0.48248">
        <ele>94.264307</ele>
        <time>2022-12-27T15:58:51.734Z</time>
      </trkpt>
      <trkpt lat="44.43461" lon="-0.48238">
        <ele>94.220085</ele>
        <time>2022-12-27T15:58:53.744Z</time>
      </trkpt>
      <trkpt lat="44.43454" lon="-0.48227">
        <ele>94.176455</ele>
        <time>2022-12-27T15:58:55.741Z</time>
      </trkpt>
      <trkpt lat="44.43447" lon="-0.48218">
        <ele>94.135688</ele>
        <time>2022-12-27T15:58:57.728Z</time>
      </trkpt>
      <trkpt lat="44.43439" lon="-0.48209">
        <ele>94.095373</ele>
        <time>2022-12-27T15:58:59.743Z</time>
      </trkpt>
      <trkpt lat="44.43429" lon="-0.48196">
        <ele>94.014474</ele>
        <time>2022-12-27T15:59:02.756Z</time>
      </trkpt>
      <trkpt lat="44.43421" lon="-0.48186">
        <ele>93.8954</ele>
        <time>2022-12-27T15:59:04.743Z</time>
      </trkpt>
      <trkpt lat="44.43413" lon="-0.48177">
        <ele>93.780157</ele>
        <time>2022-12-27T15:59:06.748Z</time>
      </trkpt>
      <trkpt lat="44.43404" lon="-0.48171">
        <ele>93.673704</ele>
        <time>2022-12-27T15:59:08.744Z</time>
      </trkpt>
      <trkpt lat="44.43395" lon="-0.4816">
        <ele>93.542185</ele>
        <time>2022-12-27T15:59:10.743Z</time>
      </trkpt>
      <trkpt lat="44.43384" lon="-0.48151">
        <ele>93.405815</ele>
        <time>2022-12-27T15:59:12.749Z</time>
      </trkpt>
      <trkpt lat="44.43374" lon="-0.48142">
        <ele>93.272317</ele>
        <time>2022-12-27T15:59:14.754Z</time>
      </trkpt>
      <trkpt lat="44.43364" lon="-0.48133">
        <ele>93.141083</ele>
        <time>2022-12-27T15:59:16.746Z</time>
      </trkpt>
      <trkpt lat="44.43354" lon="-0.48124">
        <ele>93.012971</ele>
        <time>2022-12-27T15:59:18.741Z</time>
      </trkpt>
      <trkpt lat="44.43345" lon="-0.48118">
        <ele>92.898603</ele>
        <time>2022-12-27T15:59:20.737Z</time>
      </trkpt>
      <trkpt lat="44.43336" lon="-0.48111">
        <ele>92.783576</ele>
        <time>2022-12-27T15:59:22.750Z</time>
      </trkpt>
      <trkpt lat="44.43327" lon="-0.48105">
        <ele>92.678196</ele>
        <time>2022-12-27T15:59:24.746Z</time>
      </trkpt>
      <trkpt lat="44.43318" lon="-0.48099">
        <ele>92.570407</ele>
        <time>2022-12-27T15:59:26.725Z</time>
      </trkpt>
      <trkpt lat="44.4331" lon="-0.48093">
        <ele>92.47146</ele>
        <time>2022-12-27T15:59:28.742Z</time>
      </trkpt>
      <trkpt lat="44.43298" lon="-0.48086">
        <ele>92.328009</ele>
        <time>2022-12-27T15:59:31.730Z</time>
      </trkpt>
      <trkpt lat="44.43289" lon="-0.48083">
        <ele>92.222179</ele>
        <time>2022-12-27T15:59:33.756Z</time>
      </trkpt>
      <trkpt lat="44.43279" lon="-0.48078">
        <ele>92.112703</ele>
        <time>2022-12-27T15:59:35.742Z</time>
      </trkpt>
      <trkpt lat="44.4327" lon="-0.48073">
        <ele>92.115183</ele>
        <time>2022-12-27T15:59:37.734Z</time>
      </trkpt>
      <trkpt lat="44.43261" lon="-0.48069">
        <ele>92.16986</ele>
        <time>2022-12-27T15:59:39.752Z</time>
      </trkpt>
      <trkpt lat="44.43249" lon="-0.48064">
        <ele>92.246433</ele>
        <time>2022-12-27T15:59:42.731Z</time>
      </trkpt>
      <trkpt lat="44.43237" lon="-0.48061">
        <ele>92.315265</ele>
        <time>2022-12-27T15:59:45.745Z</time>
      </trkpt>
      <trkpt lat="44.43226" lon="-0.48059">
        <ele>92.377025</ele>
        <time>2022-12-27T15:59:48.744Z</time>
      </trkpt>
      <trkpt lat="44.43217" lon="-0.48057">
        <ele>92.429446</ele>
        <time>2022-12-27T15:59:51.746Z</time>
      </trkpt>
      <trkpt lat="44.43206" lon="-0.48054">
        <ele>92.497008</ele>
        <time>2022-12-27T15:59:55.745Z</time>
      </trkpt>
      <trkpt lat="44.43194" lon="-0.48052">
        <ele>92.565162</ele>
        <time>2022-12-27T15:59:59.728Z</time>
      </trkpt>
      <trkpt lat="44.43184" lon="-0.4805">
        <ele>92.620059</ele>
        <time>2022-12-27T16:00:02.750Z</time>
      </trkpt>
      <trkpt lat="44.43174" lon="-0.48049">
        <ele>92.679328</ele>
        <time>2022-12-27T16:00:05.728Z</time>
      </trkpt>
      <trkpt lat="44.43164" lon="-0.48048">
        <ele>92.738678</ele>
        <time>2022-12-27T16:00:08.743Z</time>
      </trkpt>
      <trkpt lat="44.43153" lon="-0.48048">
        <ele>92.801877</ele>
        <time>2022-12-27T16:00:11.748Z</time>
      </trkpt>
      <trkpt lat="44.43142" lon="-0.48049">
        <ele>92.863441</ele>
        <time>2022-12-27T16:00:14.743Z</time>
      </trkpt>
      <trkpt lat="44.43131" lon="-0.4805">
        <ele>92.925185</ele>
        <time>2022-12-27T16:00:17.744Z</time>
      </trkpt>
      <trkpt lat="44.4312" lon="-0.4805">
        <ele>92.987822</ele>
        <time>2022-12-27T16:00:20.742Z</time>
      </trkpt>
      <trkpt lat="44.4311" lon="-0.48052">
        <ele>93.049791</ele>
        <time>2022-12-27T16:00:23.745Z</time>
      </trkpt>
      <trkpt lat="44.43098" lon="-0.48054">
        <ele>93.139818</ele>
        <time>2022-12-27T16:00:26.745Z</time>
      </trkpt>
      <trkpt lat="44.43087" lon="-0.48055">
        <ele>93.329728</ele>
        <time>2022-12-27T16:00:29.733Z</time>
      </trkpt>
      <trkpt lat="44.43076" lon="-0.4806">
        <ele>93.554618</ele>
        <time>2022-12-27T16:00:32.744Z</time>
      </trkpt>
      <trkpt lat="44.43065" lon="-0.48064">
        <ele>93.76595</ele>
        <time>2022-12-27T16:00:35.743Z</time>
      </trkpt>
      <trkpt lat="44.43054" lon="-0.48068">
        <ele>93.975814</ele>
        <time>2022-12-27T16:00:38.755Z</time>
      </trkpt>
      <trkpt lat="44.43043" lon="-0.48073">
        <ele>94.179937</ele>
        <time>2022-12-27T16:00:41.744Z</time>
      </trkpt>
      <trkpt lat="44.43033" lon="-0.48079">
        <ele>94.383318</ele>
        <time>2022-12-27T16:00:44.745Z</time>
      </trkpt>
      <trkpt lat="44.43022" lon="-0.48085">
        <ele>94.601222</ele>
        <time>2022-12-27T16:00:47.745Z</time>
      </trkpt>
      <trkpt lat="44.43012" lon="-0.48091">
        <ele>94.810757</ele>
        <time>2022-12-27T16:00:50.748Z</time>
      </trkpt>
      <trkpt lat="44.43002" lon="-0.48098">
        <ele>95.007775</ele>
        <time>2022-12-27T16:00:53.757Z</time>
      </trkpt>
      <trkpt lat="44.42992" lon="-0.48106">
        <ele>95.22616</ele>
        <time>2022-12-27T16:00:56.744Z</time>
      </trkpt>
      <trkpt lat="44.42982" lon="-0.48113">
        <ele>95.439638</ele>
        <time>2022-12-27T16:00:59.741Z</time>
      </trkpt>
      <trkpt lat="44.42973" lon="-0.4812">
        <ele>95.623318</ele>
        <time>2022-12-27T16:01:02.744Z</time>
      </trkpt>
      <trkpt lat="44.42965" lon="-0.48129">
        <ele>95.821137</ele>
        <time>2022-12-27T16:01:06.743Z</time>
      </trkpt>
      <trkpt lat="44.42956" lon="-0.48138">
        <ele>96.026437</ele>
        <time>2022-12-27T16:01:10.742Z</time>
      </trkpt>
      <trkpt lat="44.42947" lon="-0.48146">
        <ele>96.21281</ele>
        <time>2022-12-27T16:01:15.729Z</time>
      </trkpt>
      <trkpt lat="44.42931" lon="-0.48164">
        <ele>96.546205</ele>
        <time>2022-12-27T16:01:36.728Z</time>
      </trkpt>
      <trkpt lat="44.42925" lon="-0.48173">
        <ele>96.651379</ele>
        <time>2022-12-27T16:01:42.733Z</time>
      </trkpt>
      <trkpt lat="44.42915" lon="-0.48183">
        <ele>96.794392</ele>
        <time>2022-12-27T16:02:40.740Z</time>
      </trkpt>
      <trkpt lat="44.42906" lon="-0.48196">
        <ele>96.936934</ele>
        <time>2022-12-27T16:02:44.753Z</time>
      </trkpt>
      <trkpt lat="44.429" lon="-0.48206">
        <ele>97.053258</ele>
        <time>2022-12-27T16:02:47.748Z</time>
      </trkpt>
      <trkpt lat="44.42894" lon="-0.48217">
        <ele>97.16042</ele>
        <time>2022-12-27T16:02:50.726Z</time>
      </trkpt>
      <trkpt lat="44.42889" lon="-0.48228">
        <ele>97.273833</ele>
        <time>2022-12-27T16:02:53.756Z</time>
      </trkpt>
      <trkpt lat="44.42882" lon="-0.48238">
        <ele>97.382992</ele>
        <time>2022-12-27T16:02:57.725Z</time>
      </trkpt>
      <trkpt lat="44.42872" lon="-0.48234">
        <ele>97.507217</ele>
        <time>2022-12-27T16:03:02.734Z</time>
      </trkpt>
      <trkpt lat="44.4287" lon="-0.4822">
        <ele>97.623804</ele>
        <time>2022-12-27T16:03:07.748Z</time>
      </trkpt>
      <trkpt lat="44.42876" lon="-0.48208">
        <ele>97.741125</ele>
        <time>2022-12-27T16:03:10.749Z</time>
      </trkpt>
      <trkpt lat="44.42882" lon="-0.48195">
        <ele>97.874205</ele>
        <time>2022-12-27T16:03:13.744Z</time>
      </trkpt>
      <trkpt lat="44.42887" lon="-0.4818">
        <ele>98.014786</ele>
        <time>2022-12-27T16:03:16.746Z</time>
      </trkpt>
      <trkpt lat="44.42891" lon="-0.48162">
        <ele>98.167662</ele>
        <time>2022-12-27T16:03:19.743Z</time>
      </trkpt>
      <trkpt lat="44.42895" lon="-0.48149">
        <ele>98.279199</ele>
        <time>2022-12-27T16:03:21.731Z</time>
      </trkpt>
      <trkpt lat="44.42897" lon="-0.48137">
        <ele>98.389084</ele>
        <time>2022-12-27T16:03:23.746Z</time>
      </trkpt>
      <trkpt lat="44.42901" lon="-0.48118">
        <ele>98.534686</ele>
        <time>2022-12-27T16:03:26.722Z</time>
      </trkpt>
      <trkpt lat="44.42903" lon="-0.48105">
        <ele>98.517292</ele>
        <time>2022-12-27T16:03:28.746Z</time>
      </trkpt>
      <trkpt lat="44.42905" lon="-0.48092">
        <ele>98.500547</ele>
        <time>2022-12-27T16:03:30.748Z</time>
      </trkpt>
      <trkpt lat="44.42907" lon="-0.4808">
        <ele>98.48365</ele>
        <time>2022-12-27T16:03:32.748Z</time>
      </trkpt>
      <trkpt lat="44.42909" lon="-0.48066">
        <ele>98.465133</ele>
        <time>2022-12-27T16:03:34.756Z</time>
      </trkpt>
      <trkpt lat="44.42912" lon="-0.48052">
        <ele>98.447532</ele>
        <time>2022-12-27T16:03:36.753Z</time>
      </trkpt>
      <trkpt lat="44.42914" lon="-0.48039">
        <ele>98.429595</ele>
        <time>2022-12-27T16:03:38.759Z</time>
      </trkpt>
      <trkpt lat="44.42917" lon="-0.48026">
        <ele>98.411935</ele>
        <time>2022-12-27T16:03:40.741Z</time>
      </trkpt>
      <trkpt lat="44.4292" lon="-0.48012">
        <ele>98.39378</ele>
        <time>2022-12-27T16:03:42.756Z</time>
      </trkpt>
      <trkpt lat="44.42922" lon="-0.47998">
        <ele>98.37484</ele>
        <time>2022-12-27T16:03:44.750Z</time>
      </trkpt>
      <trkpt lat="44.42924" lon="-0.47983">
        <ele>98.355306</ele>
        <time>2022-12-27T16:03:46.750Z</time>
      </trkpt>
      <trkpt lat="44.42926" lon="-0.47969">
        <ele>98.33683</ele>
        <time>2022-12-27T16:03:48.749Z</time>
      </trkpt>
      <trkpt lat="44.42927" lon="-0.47955">
        <ele>98.319102</ele>
        <time>2022-12-27T16:03:50.735Z</time>
      </trkpt>
      <trkpt lat="44.4293" lon="-0.47941">
        <ele>98.300916</ele>
        <time>2022-12-27T16:03:52.745Z</time>
      </trkpt>
      <trkpt lat="44.42932" lon="-0.47927">
        <ele>98.281734</ele>
        <time>2022-12-27T16:03:54.746Z</time>
      </trkpt>
      <trkpt lat="44.42934" lon="-0.47913">
        <ele>98.263672</ele>
        <time>2022-12-27T16:03:56.745Z</time>
      </trkpt>
      <trkpt lat="44.42936" lon="-0.47899">
        <ele>98.244838</ele>
        <time>2022-12-27T16:03:58.752Z</time>
      </trkpt>
      <trkpt lat="44.42938" lon="-0.47884">
        <ele>98.225685</ele>
        <time>2022-12-27T16:04:00.764Z</time>
      </trkpt>
      <trkpt lat="44.4294" lon="-0.47871">
        <ele>98.218427</ele>
        <time>2022-12-27T16:04:02.751Z</time>
      </trkpt>
      <trkpt lat="44.42942" lon="-0.47856">
        <ele>98.248313</ele>
        <time>2022-12-27T16:04:04.748Z</time>
      </trkpt>
      <trkpt lat="44.42944" lon="-0.47842">
        <ele>98.278107</ele>
        <time>2022-12-27T16:04:06.753Z</time>
      </trkpt>
      <trkpt lat="44.42946" lon="-0.47827">
        <ele>98.307737</ele>
        <time>2022-12-27T16:04:08.744Z</time>
      </trkpt>
      <trkpt lat="44.42948" lon="-0.47813">
        <ele>98.337198</ele>
        <time>2022-12-27T16:04:10.749Z</time>
      </trkpt>
      <trkpt lat="44.42951" lon="-0.47799">
        <ele>98.366135</ele>
        <time>2022-12-27T16:04:12.753Z</time>
      </trkpt>
      <trkpt lat="44.42953" lon="-0.47784">
        <ele>98.395872</ele>
        <time>2022-12-27T16:04:14.731Z</time>
      </trkpt>
      <trkpt lat="44.42955" lon="-0.4777">
        <ele>98.424711</ele>
        <time>2022-12-27T16:04:16.737Z</time>
      </trkpt>
      <trkpt lat="44.42956" lon="-0.47756">
        <ele>98.453208</ele>
        <time>2022-12-27T16:04:18.725Z</time>
      </trkpt>
      <trkpt lat="44.42958" lon="-0.47742">
        <ele>98.482298</ele>
        <time>2022-12-27T16:04:20.732Z</time>
      </trkpt>
      <trkpt lat="44.42961" lon="-0.47728">
        <ele>98.511692</ele>
        <time>2022-12-27T16:04:22.743Z</time>
      </trkpt>
      <trkpt lat="44.42963" lon="-0.47714">
        <ele>98.540334</ele>
        <time>2022-12-27T16:04:24.747Z</time>
      </trkpt>
      <trkpt lat="44.42965" lon="-0.47699">
        <ele>98.569964</ele>
        <time>2022-12-27T16:04:26.744Z</time>
      </trkpt>
      <trkpt lat="44.42967" lon="-0.47685">
        <ele>98.599621</ele>
        <time>2022-12-27T16:04:28.732Z</time>
      </trkpt>
      <trkpt lat="44.42969" lon="-0.4767">
        <ele>98.629357</ele>
        <time>2022-12-27T16:04:30.731Z</time>
      </trkpt>
      <trkpt lat="44.42971" lon="-0.47656">
        <ele>98.658231</ele>
        <time>2022-12-27T16:04:32.749Z</time>
      </trkpt>
      <trkpt lat="44.42974" lon="-0.47643">
        <ele>98.686408</ele>
        <time>2022-12-27T16:04:34.753Z</time>
      </trkpt>
      <trkpt lat="44.42976" lon="-0.47629">
        <ele>98.715301</ele>
        <time>2022-12-27T16:04:36.748Z</time>
      </trkpt>
      <trkpt lat="44.42977" lon="-0.47614">
        <ele>98.672866</ele>
        <time>2022-12-27T16:04:38.744Z</time>
      </trkpt>
      <trkpt lat="44.4298" lon="-0.476">
        <ele>98.621305</ele>
        <time>2022-12-27T16:04:40.757Z</time>
      </trkpt>
      <trkpt lat="44.42982" lon="-0.47586">
        <ele>98.572187</ele>
        <time>2022-12-27T16:04:42.744Z</time>
      </trkpt>
      <trkpt lat="44.42985" lon="-0.47572">
        <ele>98.524975</ele>
        <time>2022-12-27T16:04:44.745Z</time>
      </trkpt>
      <trkpt lat="44.42987" lon="-0.47559">
        <ele>98.476079</ele>
        <time>2022-12-27T16:04:46.750Z</time>
      </trkpt>
      <trkpt lat="44.42988" lon="-0.47543">
        <ele>98.423053</ele>
        <time>2022-12-27T16:04:48.749Z</time>
      </trkpt>
      <trkpt lat="44.42991" lon="-0.4753">
        <ele>98.374726</ele>
        <time>2022-12-27T16:04:50.746Z</time>
      </trkpt>
      <trkpt lat="44.42992" lon="-0.47516">
        <ele>98.327124</ele>
        <time>2022-12-27T16:04:52.744Z</time>
      </trkpt>
      <trkpt lat="44.42995" lon="-0.47502">
        <ele>98.2789</ele>
        <time>2022-12-27T16:04:54.759Z</time>
      </trkpt>
      <trkpt lat="44.42997" lon="-0.47489">
        <ele>98.231581</ele>
        <time>2022-12-27T16:04:56.747Z</time>
      </trkpt>
      <trkpt lat="44.42999" lon="-0.47475">
        <ele>98.182249</ele>
        <time>2022-12-27T16:04:58.747Z</time>
      </trkpt>
      <trkpt lat="44.43002" lon="-0.47461">
        <ele>98.131582</ele>
        <time>2022-12-27T16:05:00.747Z</time>
      </trkpt>
      <trkpt lat="44.43004" lon="-0.47448">
        <ele>98.086941</ele>
        <time>2022-12-27T16:05:02.750Z</time>
      </trkpt>
      <trkpt lat="44.43006" lon="-0.47429">
        <ele>98.020232</ele>
        <time>2022-12-27T16:05:05.753Z</time>
      </trkpt>
      <trkpt lat="44.43008" lon="-0.47416">
        <ele>97.973917</ele>
        <time>2022-12-27T16:05:07.751Z</time>
      </trkpt>
      <trkpt lat="44.4301" lon="-0.47403">
        <ele>97.927238</ele>
        <time>2022-12-27T16:05:09.746Z</time>
      </trkpt>
      <trkpt lat="44.43012" lon="-0.47389">
        <ele>97.878678</ele>
        <time>2022-12-27T16:05:11.751Z</time>
      </trkpt>
      <trkpt lat="44.43014" lon="-0.47374">
        <ele>97.840848</ele>
        <time>2022-12-27T16:05:13.731Z</time>
      </trkpt>
      <trkpt lat="44.43016" lon="-0.4736">
        <ele>97.817234</ele>
        <time>2022-12-27T16:05:15.746Z</time>
      </trkpt>
      <trkpt lat="44.43018" lon="-0.47345">
        <ele>97.794264</ele>
        <time>2022-12-27T16:05:17.742Z</time>
      </trkpt>
      <trkpt lat="44.4302" lon="-0.4733">
        <ele>97.770262</ele>
        <time>2022-12-27T16:05:19.743Z</time>
      </trkpt>
      <trkpt lat="44.43022" lon="-0.47317">
        <ele>97.74829</ele>
        <time>2022-12-27T16:05:21.730Z</time>
      </trkpt>
      <trkpt lat="44.43024" lon="-0.47302">
        <ele>97.724663</ele>
        <time>2022-12-27T16:05:23.745Z</time>
      </trkpt>
      <trkpt lat="44.43026" lon="-0.47288">
        <ele>97.702194</ele>
        <time>2022-12-27T16:05:25.758Z</time>
      </trkpt>
      <trkpt lat="44.43028" lon="-0.47273">
        <ele>97.678702</ele>
        <time>2022-12-27T16:05:27.751Z</time>
      </trkpt>
      <trkpt lat="44.4303" lon="-0.4726">
        <ele>97.657807</ele>
        <time>2022-12-27T16:05:29.737Z</time>
      </trkpt>
      <trkpt lat="44.43032" lon="-0.47247">
        <ele>97.63599</ele>
        <time>2022-12-27T16:05:31.758Z</time>
      </trkpt>
      <trkpt lat="44.43035" lon="-0.47228">
        <ele>97.605922</ele>
        <time>2022-12-27T16:05:34.759Z</time>
      </trkpt>
      <trkpt lat="44.43037" lon="-0.47214">
        <ele>97.583994</ele>
        <time>2022-12-27T16:05:36.751Z</time>
      </trkpt>
      <trkpt lat="44.43039" lon="-0.47201">
        <ele>97.562682</ele>
        <time>2022-12-27T16:05:38.746Z</time>
      </trkpt>
      <trkpt lat="44.43041" lon="-0.47187">
        <ele>97.540924</ele>
        <time>2022-12-27T16:05:40.755Z</time>
      </trkpt>
      <trkpt lat="44.43043" lon="-0.47174">
        <ele>97.519117</ele>
        <time>2022-12-27T16:05:42.759Z</time>
      </trkpt>
      <trkpt lat="44.43045" lon="-0.47161">
        <ele>97.498505</ele>
        <time>2022-12-27T16:05:44.740Z</time>
      </trkpt>
      <trkpt lat="44.43047" lon="-0.47147">
        <ele>97.476688</ele>
        <time>2022-12-27T16:05:46.744Z</time>
      </trkpt>
      <trkpt lat="44.4305" lon="-0.47133">
        <ele>97.464233</ele>
        <time>2022-12-27T16:05:48.745Z</time>
      </trkpt>
      <trkpt lat="44.43052" lon="-0.47119">
        <ele>97.545137</ele>
        <time>2022-12-27T16:05:50.751Z</time>
      </trkpt>
      <trkpt lat="44.43054" lon="-0.47106">
        <ele>97.624183</ele>
        <time>2022-12-27T16:05:52.744Z</time>
      </trkpt>
      <trkpt lat="44.43056" lon="-0.47091">
        <ele>97.710521</ele>
        <time>2022-12-27T16:05:54.745Z</time>
      </trkpt>
      <trkpt lat="44.43059" lon="-0.47077">
        <ele>97.792161</ele>
        <time>2022-12-27T16:05:56.747Z</time>
      </trkpt>
      <trkpt lat="44.43061" lon="-0.47062">
        <ele>97.880033</ele>
        <time>2022-12-27T16:05:58.749Z</time>
      </trkpt>
      <trkpt lat="44.43062" lon="-0.47048">
        <ele>97.960863</ele>
        <time>2022-12-27T16:06:00.749Z</time>
      </trkpt>
      <trkpt lat="44.43065" lon="-0.47033">
        <ele>98.049375</ele>
        <time>2022-12-27T16:06:02.743Z</time>
      </trkpt>
      <trkpt lat="44.43067" lon="-0.47018">
        <ele>98.135873</ele>
        <time>2022-12-27T16:06:04.753Z</time>
      </trkpt>
      <trkpt lat="44.43069" lon="-0.47004">
        <ele>98.219661</ele>
        <time>2022-12-27T16:06:06.756Z</time>
      </trkpt>
      <trkpt lat="44.43071" lon="-0.4699">
        <ele>98.301761</ele>
        <time>2022-12-27T16:06:08.744Z</time>
      </trkpt>
      <trkpt lat="44.43073" lon="-0.46975">
        <ele>98.389071</ele>
        <time>2022-12-27T16:06:10.758Z</time>
      </trkpt>
      <trkpt lat="44.43075" lon="-0.4696">
        <ele>98.47442</ele>
        <time>2022-12-27T16:06:12.731Z</time>
      </trkpt>
      <trkpt lat="44.43077" lon="-0.46945">
        <ele>98.561886</ele>
        <time>2022-12-27T16:06:14.745Z</time>
      </trkpt>
      <trkpt lat="44.43079" lon="-0.46931">
        <ele>98.642968</ele>
        <time>2022-12-27T16:06:16.746Z</time>
      </trkpt>
      <trkpt lat="44.43081" lon="-0.46916">
        <ele>98.730999</ele>
        <time>2022-12-27T16:06:18.729Z</time>
      </trkpt>
      <trkpt lat="44.43083" lon="-0.46901">
        <ele>98.816545</ele>
        <time>2022-12-27T16:06:20.735Z</time>
      </trkpt>
      <trkpt lat="44.43086" lon="-0.46887">
        <ele>98.895388</ele>
        <time>2022-12-27T16:06:22.743Z</time>
      </trkpt>
      <trkpt lat="44.43088" lon="-0.46874">
        <ele>98.842622</ele>
        <time>2022-12-27T16:06:24.744Z</time>
      </trkpt>
      <trkpt lat="44.43091" lon="-0.4686">
        <ele>98.786515</ele>
        <time>2022-12-27T16:06:26.750Z</time>
      </trkpt>
      <trkpt lat="44.43093" lon="-0.46845">
        <ele>98.729572</ele>
        <time>2022-12-27T16:06:28.755Z</time>
      </trkpt>
      <trkpt lat="44.43095" lon="-0.46829">
        <ele>98.670145</ele>
        <time>2022-12-27T16:06:30.728Z</time>
      </trkpt>
      <trkpt lat="44.43098" lon="-0.46814">
        <ele>98.61087</ele>
        <time>2022-12-27T16:06:32.742Z</time>
      </trkpt>
      <trkpt lat="44.431" lon="-0.46799">
        <ele>98.551337</ele>
        <time>2022-12-27T16:06:34.744Z</time>
      </trkpt>
      <trkpt lat="44.43102" lon="-0.46784">
        <ele>98.493126</ele>
        <time>2022-12-27T16:06:36.742Z</time>
      </trkpt>
      <trkpt lat="44.43104" lon="-0.46768">
        <ele>98.432685</ele>
        <time>2022-12-27T16:06:38.750Z</time>
      </trkpt>
      <trkpt lat="44.43106" lon="-0.46753">
        <ele>98.376702</ele>
        <time>2022-12-27T16:06:40.738Z</time>
      </trkpt>
      <trkpt lat="44.43108" lon="-0.46739">
        <ele>98.320077</ele>
        <time>2022-12-27T16:06:42.754Z</time>
      </trkpt>
      <trkpt lat="44.4311" lon="-0.46726">
        <ele>98.271928</ele>
        <time>2022-12-27T16:06:44.753Z</time>
      </trkpt>
      <trkpt lat="44.43112" lon="-0.46712">
        <ele>98.217904</ele>
        <time>2022-12-27T16:06:46.736Z</time>
      </trkpt>
      <trkpt lat="44.43114" lon="-0.46699">
        <ele>98.165938</ele>
        <time>2022-12-27T16:06:48.754Z</time>
      </trkpt>
      <trkpt lat="44.43116" lon="-0.46684">
        <ele>98.108879</ele>
        <time>2022-12-27T16:06:50.745Z</time>
      </trkpt>
      <trkpt lat="44.43119" lon="-0.46669">
        <ele>98.049737</ele>
        <time>2022-12-27T16:06:52.733Z</time>
      </trkpt>
      <trkpt lat="44.43122" lon="-0.46654">
        <ele>97.990101</ele>
        <time>2022-12-27T16:06:54.746Z</time>
      </trkpt>
      <trkpt lat="44.43124" lon="-0.46638">
        <ele>97.926176</ele>
        <time>2022-12-27T16:06:56.744Z</time>
      </trkpt>
      <trkpt lat="44.43127" lon="-0.46623">
        <ele>97.843164</ele>
        <time>2022-12-27T16:06:58.744Z</time>
      </trkpt>
      <trkpt lat="44.43129" lon="-0.46607">
        <ele>97.756425</ele>
        <time>2022-12-27T16:07:00.745Z</time>
      </trkpt>
      <trkpt lat="44.43132" lon="-0.46593">
        <ele>97.679102</ele>
        <time>2022-12-27T16:07:02.727Z</time>
      </trkpt>
      <trkpt lat="44.43135" lon="-0.46579">
        <ele>97.600933</ele>
        <time>2022-12-27T16:07:04.743Z</time>
      </trkpt>
      <trkpt lat="44.43137" lon="-0.46565">
        <ele>97.525867</ele>
        <time>2022-12-27T16:07:06.755Z</time>
      </trkpt>
      <trkpt lat="44.4314" lon="-0.46553">
        <ele>97.458941</ele>
        <time>2022-12-27T16:07:08.747Z</time>
      </trkpt>
      <trkpt lat="44.43144" lon="-0.46541">
        <ele>97.391432</ele>
        <time>2022-12-27T16:07:10.750Z</time>
      </trkpt>
      <trkpt lat="44.43147" lon="-0.46529">
        <ele>97.320776</ele>
        <time>2022-12-27T16:07:12.745Z</time>
      </trkpt>
      <trkpt lat="44.43151" lon="-0.46515">
        <ele>97.244528</ele>
        <time>2022-12-27T16:07:14.746Z</time>
      </trkpt>
      <trkpt lat="44.43155" lon="-0.46501">
        <ele>97.16589</ele>
        <time>2022-12-27T16:07:16.743Z</time>
      </trkpt>
      <trkpt lat="44.43159" lon="-0.46487">
        <ele>97.086</ele>
        <time>2022-12-27T16:07:18.745Z</time>
      </trkpt>
      <trkpt lat="44.43163" lon="-0.46474">
        <ele>97.00703</ele>
        <time>2022-12-27T16:07:20.760Z</time>
      </trkpt>
      <trkpt lat="44.43166" lon="-0.4646">
        <ele>96.929148</ele>
        <time>2022-12-27T16:07:22.730Z</time>
      </trkpt>
      <trkpt lat="44.43171" lon="-0.46446">
        <ele>96.850565</ele>
        <time>2022-12-27T16:07:24.743Z</time>
      </trkpt>
      <trkpt lat="44.43175" lon="-0.46432">
        <ele>96.7681</ele>
        <time>2022-12-27T16:07:26.746Z</time>
      </trkpt>
      <trkpt lat="44.43179" lon="-0.46417">
        <ele>96.686746</ele>
        <time>2022-12-27T16:07:28.755Z</time>
      </trkpt>
      <trkpt lat="44.43183" lon="-0.46403">
        <ele>96.621489</ele>
        <time>2022-12-27T16:07:30.726Z</time>
      </trkpt>
      <trkpt lat="44.43188" lon="-0.46389">
        <ele>96.745679</ele>
        <time>2022-12-27T16:07:32.747Z</time>
      </trkpt>
      <trkpt lat="44.43193" lon="-0.46375">
        <ele>96.866314</ele>
        <time>2022-12-27T16:07:34.745Z</time>
      </trkpt>
      <trkpt lat="44.43198" lon="-0.46362">
        <ele>96.979322</ele>
        <time>2022-12-27T16:07:36.757Z</time>
      </trkpt>
      <trkpt lat="44.43203" lon="-0.46349">
        <ele>97.089971</ele>
        <time>2022-12-27T16:07:38.745Z</time>
      </trkpt>
      <trkpt lat="44.43208" lon="-0.46337">
        <ele>97.199595</ele>
        <time>2022-12-27T16:07:40.741Z</time>
      </trkpt>
      <trkpt lat="44.43213" lon="-0.46324">
        <ele>97.318414</ele>
        <time>2022-12-27T16:07:42.751Z</time>
      </trkpt>
      <trkpt lat="44.43219" lon="-0.4631">
        <ele>97.438875</ele>
        <time>2022-12-27T16:07:44.746Z</time>
      </trkpt>
      <trkpt lat="44.43224" lon="-0.46296">
        <ele>97.559176</ele>
        <time>2022-12-27T16:07:46.757Z</time>
      </trkpt>
      <trkpt lat="44.43229" lon="-0.46283">
        <ele>97.670931</ele>
        <time>2022-12-27T16:07:48.750Z</time>
      </trkpt>
      <trkpt lat="44.43234" lon="-0.46268">
        <ele>97.797527</ele>
        <time>2022-12-27T16:07:50.761Z</time>
      </trkpt>
      <trkpt lat="44.43239" lon="-0.46255">
        <ele>97.913582</ele>
        <time>2022-12-27T16:07:52.754Z</time>
      </trkpt>
      <trkpt lat="44.43244" lon="-0.46241">
        <ele>98.032063</ele>
        <time>2022-12-27T16:07:54.745Z</time>
      </trkpt>
      <trkpt lat="44.4325" lon="-0.46228">
        <ele>98.152243</ele>
        <time>2022-12-27T16:07:56.754Z</time>
      </trkpt>
      <trkpt lat="44.43256" lon="-0.46215">
        <ele>98.268958</ele>
        <time>2022-12-27T16:07:58.759Z</time>
      </trkpt>
      <trkpt lat="44.43262" lon="-0.46202">
        <ele>98.386149</ele>
        <time>2022-12-27T16:08:00.746Z</time>
      </trkpt>
      <trkpt lat="44.43267" lon="-0.46188">
        <ele>98.510008</ele>
        <time>2022-12-27T16:08:02.746Z</time>
      </trkpt>
      <trkpt lat="44.43272" lon="-0.46174">
        <ele>98.450901</ele>
        <time>2022-12-27T16:08:04.749Z</time>
      </trkpt>
      <trkpt lat="44.43277" lon="-0.46161">
        <ele>98.307381</ele>
        <time>2022-12-27T16:08:06.753Z</time>
      </trkpt>
      <trkpt lat="44.43282" lon="-0.46147">
        <ele>98.158739</ele>
        <time>2022-12-27T16:08:08.759Z</time>
      </trkpt>
      <trkpt lat="44.43287" lon="-0.46135">
        <ele>98.022709</ele>
        <time>2022-12-27T16:08:10.745Z</time>
      </trkpt>
      <trkpt lat="44.43292" lon="-0.46122">
        <ele>97.882692</ele>
        <time>2022-12-27T16:08:12.736Z</time>
      </trkpt>
      <trkpt lat="44.43296" lon="-0.4611">
        <ele>97.755293</ele>
        <time>2022-12-27T16:08:14.746Z</time>
      </trkpt>
      <trkpt lat="44.43303" lon="-0.46094">
        <ele>97.574286</ele>
        <time>2022-12-27T16:08:17.760Z</time>
      </trkpt>
      <trkpt lat="44.43307" lon="-0.46082">
        <ele>97.450304</ele>
        <time>2022-12-27T16:08:19.748Z</time>
      </trkpt>
      <trkpt lat="44.43312" lon="-0.46069">
        <ele>97.315934</ele>
        <time>2022-12-27T16:08:21.752Z</time>
      </trkpt>
      <trkpt lat="44.43316" lon="-0.46057">
        <ele>97.182675</ele>
        <time>2022-12-27T16:08:23.756Z</time>
      </trkpt>
      <trkpt lat="44.43322" lon="-0.46044">
        <ele>97.037184</ele>
        <time>2022-12-27T16:08:25.755Z</time>
      </trkpt>
      <trkpt lat="44.43328" lon="-0.46031">
        <ele>96.892455</ele>
        <time>2022-12-27T16:08:27.729Z</time>
      </trkpt>
      <trkpt lat="44.43333" lon="-0.46018">
        <ele>96.747407</ele>
        <time>2022-12-27T16:08:29.731Z</time>
      </trkpt>
      <trkpt lat="44.43338" lon="-0.46004">
        <ele>96.599407</ele>
        <time>2022-12-27T16:08:31.745Z</time>
      </trkpt>
      <trkpt lat="44.43343" lon="-0.4599">
        <ele>96.453636</ele>
        <time>2022-12-27T16:08:33.741Z</time>
      </trkpt>
      <trkpt lat="44.43347" lon="-0.45977">
        <ele>96.309887</ele>
        <time>2022-12-27T16:08:35.754Z</time>
      </trkpt>
      <trkpt lat="44.43353" lon="-0.45964">
        <ele>96.164042</ele>
        <time>2022-12-27T16:08:37.753Z</time>
      </trkpt>
      <trkpt lat="44.43359" lon="-0.4595">
        <ele>96.248651</ele>
        <time>2022-12-27T16:08:39.756Z</time>
      </trkpt>
      <trkpt lat="44.43364" lon="-0.45937">
        <ele>96.357347</ele>
        <time>2022-12-27T16:08:41.740Z</time>
      </trkpt>
      <trkpt lat="44.43368" lon="-0.45924">
        <ele>96.468551</ele>
        <time>2022-12-27T16:08:43.744Z</time>
      </trkpt>
      <trkpt lat="44.43373" lon="-0.45912">
        <ele>96.577647</ele>
        <time>2022-12-27T16:08:45.753Z</time>
      </trkpt>
      <trkpt lat="44.43378" lon="-0.459">
        <ele>96.680816</ele>
        <time>2022-12-27T16:08:47.747Z</time>
      </trkpt>
      <trkpt lat="44.43382" lon="-0.45888">
        <ele>96.77679</ele>
        <time>2022-12-27T16:08:49.735Z</time>
      </trkpt>
      <trkpt lat="44.43387" lon="-0.45877">
        <ele>96.878386</ele>
        <time>2022-12-27T16:08:51.752Z</time>
      </trkpt>
      <trkpt lat="44.43392" lon="-0.45865">
        <ele>96.979713</ele>
        <time>2022-12-27T16:08:53.733Z</time>
      </trkpt>
      <trkpt lat="44.43396" lon="-0.45854">
        <ele>97.076422</ele>
        <time>2022-12-27T16:08:55.752Z</time>
      </trkpt>
      <trkpt lat="44.43401" lon="-0.45842">
        <ele>97.183429</ele>
        <time>2022-12-27T16:08:57.745Z</time>
      </trkpt>
      <trkpt lat="44.43406" lon="-0.4583">
        <ele>97.290145</ele>
        <time>2022-12-27T16:08:59.751Z</time>
      </trkpt>
      <trkpt lat="44.4341" lon="-0.45818">
        <ele>97.393159</ele>
        <time>2022-12-27T16:09:01.750Z</time>
      </trkpt>
      <trkpt lat="44.43415" lon="-0.45804">
        <ele>97.506518</ele>
        <time>2022-12-27T16:09:03.743Z</time>
      </trkpt>
      <trkpt lat="44.43421" lon="-0.45791">
        <ele>97.621272</ele>
        <time>2022-12-27T16:09:05.731Z</time>
      </trkpt>
      <trkpt lat="44.43426" lon="-0.45778">
        <ele>97.736646</ele>
        <time>2022-12-27T16:09:07.746Z</time>
      </trkpt>
      <trkpt lat="44.43431" lon="-0.45764">
        <ele>97.851347</ele>
        <time>2022-12-27T16:09:09.744Z</time>
      </trkpt>
      <trkpt lat="44.43436" lon="-0.45751">
        <ele>97.963211</ele>
        <time>2022-12-27T16:09:11.749Z</time>
      </trkpt>
      <trkpt lat="44.43441" lon="-0.45738">
        <ele>98.073458</ele>
        <time>2022-12-27T16:09:13.756Z</time>
      </trkpt>
      <trkpt lat="44.43446" lon="-0.45725">
        <ele>98.167064</ele>
        <time>2022-12-27T16:09:15.740Z</time>
      </trkpt>
      <trkpt lat="44.43451" lon="-0.45712">
        <ele>98.25931</ele>
        <time>2022-12-27T16:09:17.747Z</time>
      </trkpt>
      <trkpt lat="44.43456" lon="-0.45699">
        <ele>98.351007</ele>
        <time>2022-12-27T16:09:19.731Z</time>
      </trkpt>
      <trkpt lat="44.43461" lon="-0.45686">
        <ele>98.43696</ele>
        <time>2022-12-27T16:09:21.735Z</time>
      </trkpt>
      <trkpt lat="44.43466" lon="-0.45673">
        <ele>98.530707</ele>
        <time>2022-12-27T16:09:23.735Z</time>
      </trkpt>
      <trkpt lat="44.43471" lon="-0.4566">
        <ele>98.622559</ele>
        <time>2022-12-27T16:09:25.755Z</time>
      </trkpt>
      <trkpt lat="44.43476" lon="-0.45648">
        <ele>98.709891</ele>
        <time>2022-12-27T16:09:27.746Z</time>
      </trkpt>
      <trkpt lat="44.43481" lon="-0.45636">
        <ele>98.797908</ele>
        <time>2022-12-27T16:09:29.748Z</time>
      </trkpt>
      <trkpt lat="44.43487" lon="-0.45622">
        <ele>98.893206</ele>
        <time>2022-12-27T16:09:31.752Z</time>
      </trkpt>
      <trkpt lat="44.43492" lon="-0.45609">
        <ele>98.986139</ele>
        <time>2022-12-27T16:09:33.746Z</time>
      </trkpt>
      <trkpt lat="44.43497" lon="-0.45596">
        <ele>99.078541</ele>
        <time>2022-12-27T16:09:35.745Z</time>
      </trkpt>
      <trkpt lat="44.43502" lon="-0.45583">
        <ele>99.168345</ele>
        <time>2022-12-27T16:09:37.756Z</time>
      </trkpt>
      <trkpt lat="44.43506" lon="-0.45572">
        <ele>99.246785</ele>
        <time>2022-12-27T16:09:39.758Z</time>
      </trkpt>
      <trkpt lat="44.4351" lon="-0.4556">
        <ele>99.3317</ele>
        <time>2022-12-27T16:09:41.750Z</time>
      </trkpt>
      <trkpt lat="44.43515" lon="-0.45547">
        <ele>99.423396</ele>
        <time>2022-12-27T16:09:43.749Z</time>
      </trkpt>
      <trkpt lat="44.4352" lon="-0.45534">
        <ele>99.511141</ele>
        <time>2022-12-27T16:09:45.728Z</time>
      </trkpt>
      <trkpt lat="44.43524" lon="-0.45522">
        <ele>99.596685</ele>
        <time>2022-12-27T16:09:47.738Z</time>
      </trkpt>
      <trkpt lat="44.43529" lon="-0.45509">
        <ele>99.581783</ele>
        <time>2022-12-27T16:09:49.738Z</time>
      </trkpt>
      <trkpt lat="44.43534" lon="-0.45496">
        <ele>99.537204</ele>
        <time>2022-12-27T16:09:51.746Z</time>
      </trkpt>
      <trkpt lat="44.43539" lon="-0.45484">
        <ele>99.493833</ele>
        <time>2022-12-27T16:09:53.732Z</time>
      </trkpt>
      <trkpt lat="44.43544" lon="-0.45472">
        <ele>99.453076</ele>
        <time>2022-12-27T16:09:55.745Z</time>
      </trkpt>
      <trkpt lat="44.43552" lon="-0.45456">
        <ele>99.394062</ele>
        <time>2022-12-27T16:09:58.757Z</time>
      </trkpt>
      <trkpt lat="44.43556" lon="-0.45443">
        <ele>99.352334</ele>
        <time>2022-12-27T16:10:00.749Z</time>
      </trkpt>
      <trkpt lat="44.4356" lon="-0.45431">
        <ele>99.310419</ele>
        <time>2022-12-27T16:10:02.750Z</time>
      </trkpt>
      <trkpt lat="44.43567" lon="-0.45415">
        <ele>99.25364</ele>
        <time>2022-12-27T16:10:05.751Z</time>
      </trkpt>
      <trkpt lat="44.43573" lon="-0.45399">
        <ele>99.200331</ele>
        <time>2022-12-27T16:10:08.745Z</time>
      </trkpt>
      <trkpt lat="44.43579" lon="-0.45384">
        <ele>99.148389</ele>
        <time>2022-12-27T16:10:11.729Z</time>
      </trkpt>
      <trkpt lat="44.43585" lon="-0.45369">
        <ele>99.094609</ele>
        <time>2022-12-27T16:10:14.754Z</time>
      </trkpt>
      <trkpt lat="44.4359" lon="-0.45357">
        <ele>99.05231</ele>
        <time>2022-12-27T16:10:16.756Z</time>
      </trkpt>
      <trkpt lat="44.43595" lon="-0.45345">
        <ele>99.010139</ele>
        <time>2022-12-27T16:10:18.742Z</time>
      </trkpt>
      <trkpt lat="44.43602" lon="-0.45328">
        <ele>98.952945</ele>
        <time>2022-12-27T16:10:21.728Z</time>
      </trkpt>
      <trkpt lat="44.43607" lon="-0.45316">
        <ele>98.910248</ele>
        <time>2022-12-27T16:10:23.729Z</time>
      </trkpt>
      <trkpt lat="44.43611" lon="-0.45303">
        <ele>98.866054</ele>
        <time>2022-12-27T16:10:25.735Z</time>
      </trkpt>
      <trkpt lat="44.43616" lon="-0.4529">
        <ele>98.768748</ele>
        <time>2022-12-27T16:10:27.730Z</time>
      </trkpt>
      <trkpt lat="44.43621" lon="-0.45278">
        <ele>98.661207</ele>
        <time>2022-12-27T16:10:29.730Z</time>
      </trkpt>
      <trkpt lat="44.43626" lon="-0.45267">
        <ele>98.556782</ele>
        <time>2022-12-27T16:10:31.728Z</time>
      </trkpt>
      <trkpt lat="44.43632" lon="-0.45249">
        <ele>98.402054</ele>
        <time>2022-12-27T16:10:34.730Z</time>
      </trkpt>
      <trkpt lat="44.43637" lon="-0.45237">
        <ele>98.291918</ele>
        <time>2022-12-27T16:10:36.744Z</time>
      </trkpt>
      <trkpt lat="44.43641" lon="-0.45225">
        <ele>98.185585</ele>
        <time>2022-12-27T16:10:38.760Z</time>
      </trkpt>
      <trkpt lat="44.43646" lon="-0.45213">
        <ele>98.07421</ele>
        <time>2022-12-27T16:10:40.743Z</time>
      </trkpt>
      <trkpt lat="44.43651" lon="-0.45201">
        <ele>97.961842</ele>
        <time>2022-12-27T16:10:42.746Z</time>
      </trkpt>
      <trkpt lat="44.43656" lon="-0.45189">
        <ele>97.851706</ele>
        <time>2022-12-27T16:10:44.730Z</time>
      </trkpt>
      <trkpt lat="44.43661" lon="-0.45176">
        <ele>97.739091</ele>
        <time>2022-12-27T16:10:46.753Z</time>
      </trkpt>
      <trkpt lat="44.43666" lon="-0.45164">
        <ele>97.624671</ele>
        <time>2022-12-27T16:10:48.732Z</time>
      </trkpt>
      <trkpt lat="44.4367" lon="-0.45152">
        <ele>97.517701</ele>
        <time>2022-12-27T16:10:50.732Z</time>
      </trkpt>
      <trkpt lat="44.43675" lon="-0.4514">
        <ele>97.409646</ele>
        <time>2022-12-27T16:10:52.744Z</time>
      </trkpt>
      <trkpt lat="44.4368" lon="-0.45128">
        <ele>97.298647</ele>
        <time>2022-12-27T16:10:54.756Z</time>
      </trkpt>
      <trkpt lat="44.43685" lon="-0.45115">
        <ele>97.181779</ele>
        <time>2022-12-27T16:10:56.757Z</time>
      </trkpt>
      <trkpt lat="44.4369" lon="-0.45102">
        <ele>97.063759</ele>
        <time>2022-12-27T16:10:58.746Z</time>
      </trkpt>
      <trkpt lat="44.43695" lon="-0.45088">
        <ele>96.939209</ele>
        <time>2022-12-27T16:11:00.736Z</time>
      </trkpt>
      <trkpt lat="44.437" lon="-0.45074">
        <ele>96.884716</ele>
        <time>2022-12-27T16:11:02.733Z</time>
      </trkpt>
      <trkpt lat="44.43705" lon="-0.45061">
        <ele>97.013413</ele>
        <time>2022-12-27T16:11:04.730Z</time>
      </trkpt>
      <trkpt lat="44.4371" lon="-0.45047">
        <ele>97.149233</ele>
        <time>2022-12-27T16:11:06.750Z</time>
      </trkpt>
      <trkpt lat="44.43715" lon="-0.45033">
        <ele>97.280458</ele>
        <time>2022-12-27T16:11:08.735Z</time>
      </trkpt>
      <trkpt lat="44.43721" lon="-0.45019">
        <ele>97.413604</ele>
        <time>2022-12-27T16:11:10.745Z</time>
      </trkpt>
      <trkpt lat="44.43726" lon="-0.45006">
        <ele>97.539861</ele>
        <time>2022-12-27T16:11:12.744Z</time>
      </trkpt>
      <trkpt lat="44.43731" lon="-0.44993">
        <ele>97.659191</ele>
        <time>2022-12-27T16:11:14.732Z</time>
      </trkpt>
      <trkpt lat="44.43736" lon="-0.44982">
        <ele>97.773801</ele>
        <time>2022-12-27T16:11:16.741Z</time>
      </trkpt>
      <trkpt lat="44.43741" lon="-0.4497">
        <ele>97.891073</ele>
        <time>2022-12-27T16:11:18.758Z</time>
      </trkpt>
      <trkpt lat="44.43746" lon="-0.44958">
        <ele>98.008149</ele>
        <time>2022-12-27T16:11:20.745Z</time>
      </trkpt>
      <trkpt lat="44.43751" lon="-0.44946">
        <ele>98.124723</ele>
        <time>2022-12-27T16:11:22.756Z</time>
      </trkpt>
      <trkpt lat="44.43755" lon="-0.44933">
        <ele>98.245393</ele>
        <time>2022-12-27T16:11:24.744Z</time>
      </trkpt>
      <trkpt lat="44.4376" lon="-0.4492">
        <ele>98.369054</ele>
        <time>2022-12-27T16:11:26.750Z</time>
      </trkpt>
      <trkpt lat="44.43765" lon="-0.44907">
        <ele>98.490111</ele>
        <time>2022-12-27T16:11:28.749Z</time>
      </trkpt>
      <trkpt lat="44.4377" lon="-0.44893">
        <ele>98.622377</ele>
        <time>2022-12-27T16:11:30.759Z</time>
      </trkpt>
      <trkpt lat="44.43775" lon="-0.4488">
        <ele>98.754678</ele>
        <time>2022-12-27T16:11:32.749Z</time>
      </trkpt>
      <trkpt lat="44.4378" lon="-0.44868">
        <ele>98.872</ele>
        <time>2022-12-27T16:11:34.746Z</time>
      </trkpt>
      <trkpt lat="44.43785" lon="-0.44854">
        <ele>99.061354</ele>
        <time>2022-12-27T16:11:36.749Z</time>
      </trkpt>
      <trkpt lat="44.4379" lon="-0.44841">
        <ele>99.495838</ele>
        <time>2022-12-27T16:11:38.751Z</time>
      </trkpt>
      <trkpt lat="44.43796" lon="-0.44828">
        <ele>99.945698</ele>
        <time>2022-12-27T16:11:40.744Z</time>
      </trkpt>
      <trkpt lat="44.438" lon="-0.44815">
        <ele>100.358072</ele>
        <time>2022-12-27T16:11:42.752Z</time>
      </trkpt>
      <trkpt lat="44.43805" lon="-0.44802">
        <ele>100.7848</ele>
        <time>2022-12-27T16:11:44.739Z</time>
      </trkpt>
      <trkpt lat="44.43809" lon="-0.4479">
        <ele>101.196198</ele>
        <time>2022-12-27T16:11:46.745Z</time>
      </trkpt>
      <trkpt lat="44.43813" lon="-0.44777">
        <ele>101.596487</ele>
        <time>2022-12-27T16:11:48.747Z</time>
      </trkpt>
      <trkpt lat="44.43818" lon="-0.44765">
        <ele>101.98093</ele>
        <time>2022-12-27T16:11:50.750Z</time>
      </trkpt>
      <trkpt lat="44.43822" lon="-0.44754">
        <ele>102.352973</ele>
        <time>2022-12-27T16:11:52.739Z</time>
      </trkpt>
      <trkpt lat="44.4383" lon="-0.44738">
        <ele>102.928636</ele>
        <time>2022-12-27T16:11:55.754Z</time>
      </trkpt>
      <trkpt lat="44.43834" lon="-0.44725">
        <ele>103.334138</ele>
        <time>2022-12-27T16:11:57.757Z</time>
      </trkpt>
      <trkpt lat="44.43839" lon="-0.44714">
        <ele>103.721647</ele>
        <time>2022-12-27T16:11:59.744Z</time>
      </trkpt>
      <trkpt lat="44.43844" lon="-0.447">
        <ele>104.179608</ele>
        <time>2022-12-27T16:12:01.733Z</time>
      </trkpt>
      <trkpt lat="44.43848" lon="-0.44688">
        <ele>104.565482</ele>
        <time>2022-12-27T16:12:03.745Z</time>
      </trkpt>
      <trkpt lat="44.43853" lon="-0.44674">
        <ele>105.008941</ele>
        <time>2022-12-27T16:12:05.748Z</time>
      </trkpt>
      <trkpt lat="44.43857" lon="-0.44662">
        <ele>105.41</ele>
        <time>2022-12-27T16:12:07.752Z</time>
      </trkpt>
      <trkpt lat="44.43863" lon="-0.4465">
        <ele>105.828507</ele>
        <time>2022-12-27T16:12:09.757Z</time>
      </trkpt>
      <trkpt lat="44.43867" lon="-0.44636">
        <ele>106.275552</ele>
        <time>2022-12-27T16:12:11.747Z</time>
      </trkpt>
      <trkpt lat="44.43871" lon="-0.44624">
        <ele>105.951356</ele>
        <time>2022-12-27T16:12:13.745Z</time>
      </trkpt>
      <trkpt lat="44.43877" lon="-0.44611">
        <ele>105.458924</ele>
        <time>2022-12-27T16:12:15.747Z</time>
      </trkpt>
      <trkpt lat="44.43884" lon="-0.44594">
        <ele>104.824888</ele>
        <time>2022-12-27T16:12:17.751Z</time>
      </trkpt>
      <trkpt lat="44.43892" lon="-0.44581">
        <ele>104.250233</ele>
        <time>2022-12-27T16:12:20.747Z</time>
      </trkpt>
      <trkpt lat="44.43898" lon="-0.44561">
        <ele>103.574496</ele>
        <time>2022-12-27T16:12:23.745Z</time>
      </trkpt>
      <trkpt lat="44.43905" lon="-0.44548">
        <ele>103.015773</ele>
        <time>2022-12-27T16:12:25.748Z</time>
      </trkpt>
      <trkpt lat="44.43913" lon="-0.44537">
        <ele>102.516594</ele>
        <time>2022-12-27T16:12:27.755Z</time>
      </trkpt>
      <trkpt lat="44.43917" lon="-0.44523">
        <ele>102.032904</ele>
        <time>2022-12-27T16:12:29.729Z</time>
      </trkpt>
      <trkpt lat="44.43922" lon="-0.44511">
        <ele>101.562647</ele>
        <time>2022-12-27T16:12:31.727Z</time>
      </trkpt>
      <trkpt lat="44.43927" lon="-0.44498">
        <ele>101.094577</ele>
        <time>2022-12-27T16:12:33.733Z</time>
      </trkpt>
      <trkpt lat="44.43932" lon="-0.4448">
        <ele>100.465197</ele>
        <time>2022-12-27T16:12:35.747Z</time>
      </trkpt>
      <trkpt lat="44.43936" lon="-0.44466">
        <ele>99.960498</ele>
        <time>2022-12-27T16:12:37.747Z</time>
      </trkpt>
      <trkpt lat="44.43941" lon="-0.44453">
        <ele>99.467384</ele>
        <time>2022-12-27T16:12:39.752Z</time>
      </trkpt>
      <trkpt lat="44.43948" lon="-0.44438">
        <ele>98.906897</ele>
        <time>2022-12-27T16:12:41.741Z</time>
      </trkpt>
      <trkpt lat="44.43953" lon="-0.44424">
        <ele>98.402986</ele>
        <time>2022-12-27T16:12:43.747Z</time>
      </trkpt>
      <trkpt lat="44.43958" lon="-0.44411">
        <ele>98.053289</ele>
        <time>2022-12-27T16:12:45.747Z</time>
      </trkpt>
      <trkpt lat="44.43963" lon="-0.44397">
        <ele>97.926858</ele>
        <time>2022-12-27T16:12:47.762Z</time>
      </trkpt>
      <trkpt lat="44.43968" lon="-0.44383">
        <ele>97.7993</ele>
        <time>2022-12-27T16:12:49.748Z</time>
      </trkpt>
      <trkpt lat="44.43974" lon="-0.4437">
        <ele>97.675581</ele>
        <time>2022-12-27T16:12:51.744Z</time>
      </trkpt>
      <trkpt lat="44.43979" lon="-0.44356">
        <ele>97.548024</ele>
        <time>2022-12-27T16:12:53.743Z</time>
      </trkpt>
      <trkpt lat="44.43985" lon="-0.44342">
        <ele>97.414717</ele>
        <time>2022-12-27T16:12:55.744Z</time>
      </trkpt>
      <trkpt lat="44.4399" lon="-0.44328">
        <ele>97.287567</ele>
        <time>2022-12-27T16:12:57.757Z</time>
      </trkpt>
      <trkpt lat="44.43996" lon="-0.44315">
        <ele>97.16245</ele>
        <time>2022-12-27T16:12:59.732Z</time>
      </trkpt>
      <trkpt lat="44.44001" lon="-0.44301">
        <ele>97.037775</ele>
        <time>2022-12-27T16:13:01.761Z</time>
      </trkpt>
      <trkpt lat="44.44005" lon="-0.44289">
        <ele>96.925155</ele>
        <time>2022-12-27T16:13:03.758Z</time>
      </trkpt>
      <trkpt lat="44.44011" lon="-0.44276">
        <ele>96.803304</ele>
        <time>2022-12-27T16:13:05.745Z</time>
      </trkpt>
      <trkpt lat="44.44016" lon="-0.44263">
        <ele>96.679899</ele>
        <time>2022-12-27T16:13:07.740Z</time>
      </trkpt>
      <trkpt lat="44.44021" lon="-0.44249">
        <ele>96.557221</ele>
        <time>2022-12-27T16:13:09.746Z</time>
      </trkpt>
      <trkpt lat="44.44026" lon="-0.44235">
        <ele>96.425581</ele>
        <time>2022-12-27T16:13:11.775Z</time>
      </trkpt>
      <trkpt lat="44.44032" lon="-0.44222">
        <ele>96.298777</ele>
        <time>2022-12-27T16:13:13.750Z</time>
      </trkpt>
      <trkpt lat="44.44037" lon="-0.44208">
        <ele>96.169281</ele>
        <time>2022-12-27T16:13:15.748Z</time>
      </trkpt>
      <trkpt lat="44.44043" lon="-0.44193">
        <ele>96.058295</ele>
        <time>2022-12-27T16:13:17.756Z</time>
      </trkpt>
      <trkpt lat="44.44048" lon="-0.44179">
        <ele>96.09368</ele>
        <time>2022-12-27T16:13:19.752Z</time>
      </trkpt>
      <trkpt lat="44.44053" lon="-0.44165">
        <ele>96.129888</ele>
        <time>2022-12-27T16:13:21.742Z</time>
      </trkpt>
      <trkpt lat="44.44059" lon="-0.4415">
        <ele>96.167052</ele>
        <time>2022-12-27T16:13:23.757Z</time>
      </trkpt>
      <trkpt lat="44.44064" lon="-0.44136">
        <ele>96.203328</ele>
        <time>2022-12-27T16:13:25.729Z</time>
      </trkpt>
      <trkpt lat="44.44075" lon="-0.44106">
        <ele>96.279467</ele>
        <time>2022-12-27T16:13:27.432Z</time>
      </trkpt>
      <trkpt lat="44.44081" lon="-0.44091">
        <ele>96.316133</ele>
        <time>2022-12-27T16:13:29.436Z</time>
      </trkpt>
      <trkpt lat="44.44086" lon="-0.44077">
        <ele>96.351537</ele>
        <time>2022-12-27T16:13:31.434Z</time>
      </trkpt>
      <trkpt lat="44.44091" lon="-0.44063">
        <ele>96.385799</ele>
        <time>2022-12-27T16:13:33.433Z</time>
      </trkpt>
      <trkpt lat="44.44096" lon="-0.44052">
        <ele>96.416643</ele>
        <time>2022-12-27T16:13:35.434Z</time>
      </trkpt>
      <trkpt lat="44.44101" lon="-0.44039">
        <ele>96.448138</ele>
        <time>2022-12-27T16:13:37.444Z</time>
      </trkpt>
      <trkpt lat="44.44106" lon="-0.44027">
        <ele>96.478855</ele>
        <time>2022-12-27T16:13:39.440Z</time>
      </trkpt>
      <trkpt lat="44.44111" lon="-0.44015">
        <ele>96.510082</ele>
        <time>2022-12-27T16:13:41.434Z</time>
      </trkpt>
      <trkpt lat="44.44116" lon="-0.44003">
        <ele>96.54212</ele>
        <time>2022-12-27T16:13:43.432Z</time>
      </trkpt>
      <trkpt lat="44.4412" lon="-0.4399">
        <ele>96.574638</ele>
        <time>2022-12-27T16:13:45.439Z</time>
      </trkpt>
      <trkpt lat="44.44126" lon="-0.43977">
        <ele>96.607992</ele>
        <time>2022-12-27T16:13:47.428Z</time>
      </trkpt>
      <trkpt lat="44.4413" lon="-0.43964">
        <ele>96.622837</ele>
        <time>2022-12-27T16:13:49.427Z</time>
      </trkpt>
      <trkpt lat="44.44135" lon="-0.4395">
        <ele>96.631812</ele>
        <time>2022-12-27T16:13:51.433Z</time>
      </trkpt>
      <trkpt lat="44.44141" lon="-0.43936">
        <ele>96.641054</ele>
        <time>2022-12-27T16:13:53.439Z</time>
      </trkpt>
      <trkpt lat="44.44147" lon="-0.43921">
        <ele>96.650885</ele>
        <time>2022-12-27T16:13:55.438Z</time>
      </trkpt>
      <trkpt lat="44.44152" lon="-0.43909">
        <ele>96.659345</ele>
        <time>2022-12-27T16:13:57.445Z</time>
      </trkpt>
      <trkpt lat="44.44159" lon="-0.43894">
        <ele>96.66978</ele>
        <time>2022-12-27T16:13:59.433Z</time>
      </trkpt>
      <trkpt lat="44.44163" lon="-0.4388">
        <ele>96.678423</ele>
        <time>2022-12-27T16:14:01.428Z</time>
      </trkpt>
      <trkpt lat="44.44168" lon="-0.43866">
        <ele>96.687123</ele>
        <time>2022-12-27T16:14:03.444Z</time>
      </trkpt>
      <trkpt lat="44.44174" lon="-0.43852">
        <ele>96.697003</ele>
        <time>2022-12-27T16:14:05.447Z</time>
      </trkpt>
      <trkpt lat="44.4418" lon="-0.43837">
        <ele>96.706615</ele>
        <time>2022-12-27T16:14:07.451Z</time>
      </trkpt>
      <trkpt lat="44.44185" lon="-0.43825">
        <ele>96.715026</ele>
        <time>2022-12-27T16:14:09.443Z</time>
      </trkpt>
      <trkpt lat="44.4419" lon="-0.4381">
        <ele>96.724626</ele>
        <time>2022-12-27T16:14:11.434Z</time>
      </trkpt>
      <trkpt lat="44.44196" lon="-0.43796">
        <ele>96.733872</ele>
        <time>2022-12-27T16:14:13.446Z</time>
      </trkpt>
      <trkpt lat="44.44202" lon="-0.43784">
        <ele>96.742753</ele>
        <time>2022-12-27T16:14:15.456Z</time>
      </trkpt>
      <trkpt lat="44.44207" lon="-0.4377">
        <ele>96.751656</ele>
        <time>2022-12-27T16:14:17.444Z</time>
      </trkpt>
      <trkpt lat="44.44212" lon="-0.43756">
        <ele>96.760552</ele>
        <time>2022-12-27T16:14:19.448Z</time>
      </trkpt>
      <trkpt lat="44.44217" lon="-0.43743">
        <ele>96.699179</ele>
        <time>2022-12-27T16:14:21.457Z</time>
      </trkpt>
      <trkpt lat="44.44223" lon="-0.4373">
        <ele>96.614889</ele>
        <time>2022-12-27T16:14:23.443Z</time>
      </trkpt>
      <trkpt lat="44.44228" lon="-0.43717">
        <ele>96.528284</ele>
        <time>2022-12-27T16:14:25.453Z</time>
      </trkpt>
      <trkpt lat="44.44234" lon="-0.43704">
        <ele>96.439185</ele>
        <time>2022-12-27T16:14:27.447Z</time>
      </trkpt>
      <trkpt lat="44.44239" lon="-0.43689">
        <ele>96.343811</ele>
        <time>2022-12-27T16:14:29.429Z</time>
      </trkpt>
      <trkpt lat="44.44244" lon="-0.43674">
        <ele>96.250199</ele>
        <time>2022-12-27T16:14:31.444Z</time>
      </trkpt>
      <trkpt lat="44.4425" lon="-0.43659">
        <ele>96.155483</ele>
        <time>2022-12-27T16:14:33.451Z</time>
      </trkpt>
      <trkpt lat="44.44257" lon="-0.43643">
        <ele>96.051973</ele>
        <time>2022-12-27T16:14:35.445Z</time>
      </trkpt>
      <trkpt lat="44.44262" lon="-0.43628">
        <ele>95.954419</ele>
        <time>2022-12-27T16:14:37.445Z</time>
      </trkpt>
      <trkpt lat="44.44268" lon="-0.43613">
        <ele>95.856046</ele>
        <time>2022-12-27T16:14:39.451Z</time>
      </trkpt>
      <trkpt lat="44.44274" lon="-0.43597">
        <ele>95.751156</ele>
        <time>2022-12-27T16:14:41.449Z</time>
      </trkpt>
      <trkpt lat="44.4428" lon="-0.43581">
        <ele>95.651517</ele>
        <time>2022-12-27T16:14:43.460Z</time>
      </trkpt>
      <trkpt lat="44.44287" lon="-0.43566">
        <ele>95.551583</ele>
        <time>2022-12-27T16:14:45.427Z</time>
      </trkpt>
      <trkpt lat="44.44293" lon="-0.43551">
        <ele>95.450914</ele>
        <time>2022-12-27T16:14:47.444Z</time>
      </trkpt>
      <trkpt lat="44.44299" lon="-0.43534">
        <ele>95.343385</ele>
        <time>2022-12-27T16:14:49.444Z</time>
      </trkpt>
      <trkpt lat="44.44306" lon="-0.43519">
        <ele>95.191585</ele>
        <time>2022-12-27T16:14:51.443Z</time>
      </trkpt>
      <trkpt lat="44.44312" lon="-0.43502">
        <ele>95.025437</ele>
        <time>2022-12-27T16:14:53.449Z</time>
      </trkpt>
      <trkpt lat="44.44318" lon="-0.43487">
        <ele>94.874195</ele>
        <time>2022-12-27T16:14:55.452Z</time>
      </trkpt>
      <trkpt lat="44.44324" lon="-0.4347">
        <ele>94.710957</ele>
        <time>2022-12-27T16:14:57.444Z</time>
      </trkpt>
      <trkpt lat="44.4433" lon="-0.43454">
        <ele>94.552363</ele>
        <time>2022-12-27T16:14:59.431Z</time>
      </trkpt>
      <trkpt lat="44.44337" lon="-0.43438">
        <ele>94.39043</ele>
        <time>2022-12-27T16:15:01.454Z</time>
      </trkpt>
      <trkpt lat="44.44343" lon="-0.43423">
        <ele>94.231239</ele>
        <time>2022-12-27T16:15:03.454Z</time>
      </trkpt>
      <trkpt lat="44.44349" lon="-0.43407">
        <ele>94.072609</ele>
        <time>2022-12-27T16:15:05.451Z</time>
      </trkpt>
      <trkpt lat="44.44355" lon="-0.43391">
        <ele>93.913724</ele>
        <time>2022-12-27T16:15:07.453Z</time>
      </trkpt>
      <trkpt lat="44.44361" lon="-0.43376">
        <ele>93.770432</ele>
        <time>2022-12-27T16:15:09.450Z</time>
      </trkpt>
      <trkpt lat="44.44367" lon="-0.43361">
        <ele>93.614562</ele>
        <time>2022-12-27T16:15:11.445Z</time>
      </trkpt>
      <trkpt lat="44.44372" lon="-0.43345">
        <ele>93.459065</ele>
        <time>2022-12-27T16:15:13.458Z</time>
      </trkpt>
      <trkpt lat="44.44378" lon="-0.43331">
        <ele>93.310263</ele>
        <time>2022-12-27T16:15:15.452Z</time>
      </trkpt>
      <trkpt lat="44.44384" lon="-0.43315">
        <ele>93.157105</ele>
        <time>2022-12-27T16:15:17.451Z</time>
      </trkpt>
      <trkpt lat="44.4439" lon="-0.433">
        <ele>93.069115</ele>
        <time>2022-12-27T16:15:19.430Z</time>
      </trkpt>
      <trkpt lat="44.44397" lon="-0.43284">
        <ele>93.003676</ele>
        <time>2022-12-27T16:15:21.454Z</time>
      </trkpt>
      <trkpt lat="44.44403" lon="-0.43269">
        <ele>92.938618</ele>
        <time>2022-12-27T16:15:23.456Z</time>
      </trkpt>
      <trkpt lat="44.44409" lon="-0.43253">
        <ele>92.87462</ele>
        <time>2022-12-27T16:15:25.445Z</time>
      </trkpt>
      <trkpt lat="44.44415" lon="-0.43237">
        <ele>92.810286</ele>
        <time>2022-12-27T16:15:27.430Z</time>
      </trkpt>
      <trkpt lat="44.4442" lon="-0.43222">
        <ele>92.749399</ele>
        <time>2022-12-27T16:15:29.464Z</time>
      </trkpt>
      <trkpt lat="44.44426" lon="-0.43207">
        <ele>92.687227</ele>
        <time>2022-12-27T16:15:31.456Z</time>
      </trkpt>
      <trkpt lat="44.44432" lon="-0.43192">
        <ele>92.62474</ele>
        <time>2022-12-27T16:15:33.458Z</time>
      </trkpt>
      <trkpt lat="44.44438" lon="-0.43177">
        <ele>92.56169</ele>
        <time>2022-12-27T16:15:35.449Z</time>
      </trkpt>
      <trkpt lat="44.44445" lon="-0.43162">
        <ele>92.49845</ele>
        <time>2022-12-27T16:15:37.438Z</time>
      </trkpt>
      <trkpt lat="44.44451" lon="-0.43147">
        <ele>92.435647</ele>
        <time>2022-12-27T16:15:39.446Z</time>
      </trkpt>
      <trkpt lat="44.44457" lon="-0.43131">
        <ele>92.373327</ele>
        <time>2022-12-27T16:15:41.452Z</time>
      </trkpt>
      <trkpt lat="44.44462" lon="-0.43116">
        <ele>92.309408</ele>
        <time>2022-12-27T16:15:43.431Z</time>
      </trkpt>
      <trkpt lat="44.44468" lon="-0.431">
        <ele>92.246685</ele>
        <time>2022-12-27T16:15:45.446Z</time>
      </trkpt>
      <trkpt lat="44.44474" lon="-0.43086">
        <ele>92.205457</ele>
        <time>2022-12-27T16:15:47.448Z</time>
      </trkpt>
      <trkpt lat="44.4448" lon="-0.43071">
        <ele>92.212412</ele>
        <time>2022-12-27T16:15:49.460Z</time>
      </trkpt>
      <trkpt lat="44.44485" lon="-0.43058">
        <ele>92.21903</ele>
        <time>2022-12-27T16:15:51.438Z</time>
      </trkpt>
      <trkpt lat="44.4449" lon="-0.43044">
        <ele>92.225359</ele>
        <time>2022-12-27T16:15:53.437Z</time>
      </trkpt>
      <trkpt lat="44.44495" lon="-0.43033">
        <ele>92.231132</ele>
        <time>2022-12-27T16:15:55.441Z</time>
      </trkpt>
      <trkpt lat="44.44501" lon="-0.4302">
        <ele>92.237151</ele>
        <time>2022-12-27T16:15:57.431Z</time>
      </trkpt>
      <trkpt lat="44.44506" lon="-0.43007">
        <ele>92.24361</ele>
        <time>2022-12-27T16:15:59.439Z</time>
      </trkpt>
      <trkpt lat="44.44511" lon="-0.42993">
        <ele>92.250245</ele>
        <time>2022-12-27T16:16:01.458Z</time>
      </trkpt>
      <trkpt lat="44.44516" lon="-0.42979">
        <ele>92.256741</ele>
        <time>2022-12-27T16:16:03.434Z</time>
      </trkpt>
      <trkpt lat="44.44521" lon="-0.42965">
        <ele>92.263395</ele>
        <time>2022-12-27T16:16:05.447Z</time>
      </trkpt>
      <trkpt lat="44.44527" lon="-0.42951">
        <ele>92.270124</ele>
        <time>2022-12-27T16:16:07.458Z</time>
      </trkpt>
      <trkpt lat="44.44532" lon="-0.42936">
        <ele>92.277037</ele>
        <time>2022-12-27T16:16:09.444Z</time>
      </trkpt>
      <trkpt lat="44.44537" lon="-0.42922">
        <ele>92.284009</ele>
        <time>2022-12-27T16:16:11.448Z</time>
      </trkpt>
      <trkpt lat="44.44543" lon="-0.42907">
        <ele>92.29111</ele>
        <time>2022-12-27T16:16:13.446Z</time>
      </trkpt>
      <trkpt lat="44.44549" lon="-0.42892">
        <ele>92.298061</ele>
        <time>2022-12-27T16:16:15.445Z</time>
      </trkpt>
      <trkpt lat="44.44554" lon="-0.42878">
        <ele>92.304789</ele>
        <time>2022-12-27T16:16:17.438Z</time>
      </trkpt>
      <trkpt lat="44.4456" lon="-0.42865">
        <ele>92.363702</ele>
        <time>2022-12-27T16:16:19.445Z</time>
      </trkpt>
      <trkpt lat="44.44566" lon="-0.42852">
        <ele>92.578167</ele>
        <time>2022-12-27T16:16:21.438Z</time>
      </trkpt>
      <trkpt lat="44.44571" lon="-0.42838">
        <ele>92.778919</ele>
        <time>2022-12-27T16:16:23.437Z</time>
      </trkpt>
      <trkpt lat="44.44577" lon="-0.42824">
        <ele>93.002257</ele>
        <time>2022-12-27T16:16:25.445Z</time>
      </trkpt>
      <trkpt lat="44.44582" lon="-0.4281">
        <ele>93.210416</ele>
        <time>2022-12-27T16:16:27.447Z</time>
      </trkpt>
      <trkpt lat="44.44588" lon="-0.42795">
        <ele>93.429362</ele>
        <time>2022-12-27T16:16:29.448Z</time>
      </trkpt>
      <trkpt lat="44.44593" lon="-0.42781">
        <ele>93.649471</ele>
        <time>2022-12-27T16:16:31.451Z</time>
      </trkpt>
      <trkpt lat="44.44598" lon="-0.42767">
        <ele>93.852278</ele>
        <time>2022-12-27T16:16:33.447Z</time>
      </trkpt>
      <trkpt lat="44.44606" lon="-0.42753">
        <ele>94.087208</ele>
        <time>2022-12-27T16:16:35.444Z</time>
      </trkpt>
      <trkpt lat="44.44611" lon="-0.42739">
        <ele>94.296126</ele>
        <time>2022-12-27T16:16:37.452Z</time>
      </trkpt>
      <trkpt lat="44.44616" lon="-0.42723">
        <ele>94.533528</ele>
        <time>2022-12-27T16:16:39.460Z</time>
      </trkpt>
      <trkpt lat="44.44621" lon="-0.42709">
        <ele>94.736843</ele>
        <time>2022-12-27T16:16:41.447Z</time>
      </trkpt>
      <trkpt lat="44.44626" lon="-0.42696">
        <ele>94.934362</ele>
        <time>2022-12-27T16:16:43.455Z</time>
      </trkpt>
      <trkpt lat="44.44631" lon="-0.42684">
        <ele>95.12142</ele>
        <time>2022-12-27T16:16:45.447Z</time>
      </trkpt>
      <trkpt lat="44.44636" lon="-0.42672">
        <ele>95.311712</ele>
        <time>2022-12-27T16:16:47.449Z</time>
      </trkpt>
      <trkpt lat="44.44641" lon="-0.42657">
        <ele>95.520274</ele>
        <time>2022-12-27T16:16:49.457Z</time>
      </trkpt>
      <trkpt lat="44.44646" lon="-0.42643">
        <ele>95.663238</ele>
        <time>2022-12-27T16:16:51.457Z</time>
      </trkpt>
      <trkpt lat="44.44651" lon="-0.4263">
        <ele>95.673509</ele>
        <time>2022-12-27T16:16:53.459Z</time>
      </trkpt>
      <trkpt lat="44.44656" lon="-0.42616">
        <ele>95.684466</ele>
        <time>2022-12-27T16:16:55.451Z</time>
      </trkpt>
      <trkpt lat="44.44661" lon="-0.42602">
        <ele>95.694808</ele>
        <time>2022-12-27T16:16:57.448Z</time>
      </trkpt>
      <trkpt lat="44.44667" lon="-0.42591">
        <ele>95.70385</ele>
        <time>2022-12-27T16:16:59.447Z</time>
      </trkpt>
      <trkpt lat="44.44672" lon="-0.4258">
        <ele>95.712885</ele>
        <time>2022-12-27T16:17:01.446Z</time>
      </trkpt>
      <trkpt lat="44.44677" lon="-0.42568">
        <ele>95.7223</ele>
        <time>2022-12-27T16:17:03.459Z</time>
      </trkpt>
      <trkpt lat="44.44682" lon="-0.42553">
        <ele>95.733615</ele>
        <time>2022-12-27T16:17:06.453Z</time>
      </trkpt>
      <trkpt lat="44.44687" lon="-0.42538">
        <ele>95.745038</ele>
        <time>2022-12-27T16:17:09.458Z</time>
      </trkpt>
      <trkpt lat="44.44693" lon="-0.42524">
        <ele>95.756452</ele>
        <time>2022-12-27T16:17:12.457Z</time>
      </trkpt>
      <trkpt lat="44.44698" lon="-0.42512">
        <ele>95.765432</ele>
        <time>2022-12-27T16:17:14.456Z</time>
      </trkpt>
      <trkpt lat="44.44704" lon="-0.425">
        <ele>95.775633</ele>
        <time>2022-12-27T16:17:16.450Z</time>
      </trkpt>
      <trkpt lat="44.44708" lon="-0.42487">
        <ele>95.785271</ele>
        <time>2022-12-27T16:17:18.458Z</time>
      </trkpt>
      <trkpt lat="44.44711" lon="-0.42474">
        <ele>95.794547</ele>
        <time>2022-12-27T16:17:20.440Z</time>
      </trkpt>
      <trkpt lat="44.44717" lon="-0.42463">
        <ele>95.803751</ele>
        <time>2022-12-27T16:17:22.456Z</time>
      </trkpt>
      <trkpt lat="44.44721" lon="-0.4245">
        <ele>95.813477</ele>
        <time>2022-12-27T16:17:24.449Z</time>
      </trkpt>
      <trkpt lat="44.44727" lon="-0.42438">
        <ele>95.82347</ele>
        <time>2022-12-27T16:17:26.452Z</time>
      </trkpt>
      <trkpt lat="44.44732" lon="-0.42425">
        <ele>95.765562</ele>
        <time>2022-12-27T16:17:28.436Z</time>
      </trkpt>
      <trkpt lat="44.44736" lon="-0.42413">
        <ele>95.462891</ele>
        <time>2022-12-27T16:17:30.446Z</time>
      </trkpt>
      <trkpt lat="44.44742" lon="-0.424">
        <ele>95.137279</ele>
        <time>2022-12-27T16:17:32.428Z</time>
      </trkpt>
      <trkpt lat="44.44747" lon="-0.42388">
        <ele>94.843566</ele>
        <time>2022-12-27T16:17:34.449Z</time>
      </trkpt>
      <trkpt lat="44.44752" lon="-0.42376">
        <ele>94.536709</ele>
        <time>2022-12-27T16:17:36.455Z</time>
      </trkpt>
      <trkpt lat="44.44757" lon="-0.42364">
        <ele>94.223728</ele>
        <time>2022-12-27T16:17:38.432Z</time>
      </trkpt>
      <trkpt lat="44.44762" lon="-0.4235">
        <ele>93.892486</ele>
        <time>2022-12-27T16:17:40.445Z</time>
      </trkpt>
      <trkpt lat="44.44767" lon="-0.42337">
        <ele>93.564076</ele>
        <time>2022-12-27T16:17:42.460Z</time>
      </trkpt>
      <trkpt lat="44.44772" lon="-0.42324">
        <ele>93.245802</ele>
        <time>2022-12-27T16:17:44.459Z</time>
      </trkpt>
      <trkpt lat="44.44777" lon="-0.42312">
        <ele>92.927363</ele>
        <time>2022-12-27T16:17:46.443Z</time>
      </trkpt>
      <trkpt lat="44.44782" lon="-0.42298">
        <ele>92.60365</ele>
        <time>2022-12-27T16:17:48.447Z</time>
      </trkpt>
      <trkpt lat="44.44787" lon="-0.42285">
        <ele>92.262286</ele>
        <time>2022-12-27T16:17:50.459Z</time>
      </trkpt>
      <trkpt lat="44.44793" lon="-0.4227">
        <ele>91.894455</ele>
        <time>2022-12-27T16:17:52.449Z</time>
      </trkpt>
      <trkpt lat="44.44799" lon="-0.42255">
        <ele>91.52168</ele>
        <time>2022-12-27T16:17:54.448Z</time>
      </trkpt>
      <trkpt lat="44.44804" lon="-0.42241">
        <ele>91.188992</ele>
        <time>2022-12-27T16:17:56.447Z</time>
      </trkpt>
      <trkpt lat="44.44809" lon="-0.42228">
        <ele>90.85524</ele>
        <time>2022-12-27T16:17:58.448Z</time>
      </trkpt>
      <trkpt lat="44.44815" lon="-0.42213">
        <ele>90.480973</ele>
        <time>2022-12-27T16:18:00.453Z</time>
      </trkpt>
      <trkpt lat="44.44819" lon="-0.42199">
        <ele>90.307303</ele>
        <time>2022-12-27T16:18:02.451Z</time>
      </trkpt>
      <trkpt lat="44.44825" lon="-0.42185">
        <ele>90.254164</ele>
        <time>2022-12-27T16:18:04.457Z</time>
      </trkpt>
      <trkpt lat="44.4483" lon="-0.42171">
        <ele>90.201024</ele>
        <time>2022-12-27T16:18:06.443Z</time>
      </trkpt>
      <trkpt lat="44.44836" lon="-0.42158">
        <ele>90.149747</ele>
        <time>2022-12-27T16:18:08.456Z</time>
      </trkpt>
      <trkpt lat="44.44841" lon="-0.42145">
        <ele>90.100728</ele>
        <time>2022-12-27T16:18:10.457Z</time>
      </trkpt>
      <trkpt lat="44.44846" lon="-0.42133">
        <ele>90.05421</ele>
        <time>2022-12-27T16:18:12.446Z</time>
      </trkpt>
      <trkpt lat="44.4485" lon="-0.42121">
        <ele>90.008135</ele>
        <time>2022-12-27T16:18:14.432Z</time>
      </trkpt>
      <trkpt lat="44.44855" lon="-0.42108">
        <ele>89.961252</ele>
        <time>2022-12-27T16:18:16.446Z</time>
      </trkpt>
      <trkpt lat="44.4486" lon="-0.42095">
        <ele>89.9123</ele>
        <time>2022-12-27T16:18:18.455Z</time>
      </trkpt>
      <trkpt lat="44.44865" lon="-0.42082">
        <ele>89.862913</ele>
        <time>2022-12-27T16:18:20.451Z</time>
      </trkpt>
      <trkpt lat="44.4487" lon="-0.4207">
        <ele>89.81522</ele>
        <time>2022-12-27T16:18:22.455Z</time>
      </trkpt>
      <trkpt lat="44.44875" lon="-0.42056">
        <ele>89.76354</ele>
        <time>2022-12-27T16:18:24.435Z</time>
      </trkpt>
      <trkpt lat="44.44881" lon="-0.42043">
        <ele>89.711533</ele>
        <time>2022-12-27T16:18:26.450Z</time>
      </trkpt>
      <trkpt lat="44.44886" lon="-0.42029">
        <ele>89.658234</ele>
        <time>2022-12-27T16:18:28.450Z</time>
      </trkpt>
      <trkpt lat="44.44892" lon="-0.42015">
        <ele>89.604756</ele>
        <time>2022-12-27T16:18:30.456Z</time>
      </trkpt>
      <trkpt lat="44.44898" lon="-0.42001">
        <ele>89.550753</ele>
        <time>2022-12-27T16:18:32.447Z</time>
      </trkpt>
      <trkpt lat="44.44904" lon="-0.41988">
        <ele>89.498423</ele>
        <time>2022-12-27T16:18:34.456Z</time>
      </trkpt>
      <trkpt lat="44.44909" lon="-0.41974">
        <ele>89.501882</ele>
        <time>2022-12-27T16:18:36.461Z</time>
      </trkpt>
      <trkpt lat="44.44913" lon="-0.4196">
        <ele>89.510527</ele>
        <time>2022-12-27T16:18:38.446Z</time>
      </trkpt>
      <trkpt lat="44.44918" lon="-0.41946">
        <ele>89.518955</ele>
        <time>2022-12-27T16:18:40.453Z</time>
      </trkpt>
      <trkpt lat="44.44924" lon="-0.41932">
        <ele>89.528543</ele>
        <time>2022-12-27T16:18:42.448Z</time>
      </trkpt>
      <trkpt lat="44.44929" lon="-0.41918">
        <ele>89.537325</ele>
        <time>2022-12-27T16:18:44.446Z</time>
      </trkpt>
      <trkpt lat="44.44935" lon="-0.41904">
        <ele>89.546438</ele>
        <time>2022-12-27T16:18:46.449Z</time>
      </trkpt>
      <trkpt lat="44.44939" lon="-0.41889">
        <ele>89.555526</ele>
        <time>2022-12-27T16:18:48.439Z</time>
      </trkpt>
      <trkpt lat="44.44945" lon="-0.41875">
        <ele>89.564344</ele>
        <time>2022-12-27T16:18:50.456Z</time>
      </trkpt>
      <trkpt lat="44.4495" lon="-0.41861">
        <ele>89.573041</ele>
        <time>2022-12-27T16:18:52.439Z</time>
      </trkpt>
      <trkpt lat="44.44955" lon="-0.41847">
        <ele>89.581822</ele>
        <time>2022-12-27T16:18:54.456Z</time>
      </trkpt>
      <trkpt lat="44.4496" lon="-0.41834">
        <ele>89.590354</ele>
        <time>2022-12-27T16:18:56.448Z</time>
      </trkpt>
      <trkpt lat="44.44964" lon="-0.41819">
        <ele>89.599153</ele>
        <time>2022-12-27T16:18:58.428Z</time>
      </trkpt>
      <trkpt lat="44.44969" lon="-0.41806">
        <ele>89.607586</ele>
        <time>2022-12-27T16:19:00.445Z</time>
      </trkpt>
      <trkpt lat="44.44974" lon="-0.41792">
        <ele>89.616554</ele>
        <time>2022-12-27T16:19:02.441Z</time>
      </trkpt>
      <trkpt lat="44.44979" lon="-0.41777">
        <ele>89.625744</ele>
        <time>2022-12-27T16:19:04.433Z</time>
      </trkpt>
      <trkpt lat="44.44984" lon="-0.41763">
        <ele>89.634272</ele>
        <time>2022-12-27T16:19:06.455Z</time>
      </trkpt>
      <trkpt lat="44.44987" lon="-0.41749">
        <ele>89.646852</ele>
        <time>2022-12-27T16:19:08.446Z</time>
      </trkpt>
      <trkpt lat="44.44991" lon="-0.41737">
        <ele>89.659417</ele>
        <time>2022-12-27T16:19:10.479Z</time>
      </trkpt>
      <trkpt lat="44.44995" lon="-0.41725">
        <ele>89.67173</ele>
        <time>2022-12-27T16:19:12.454Z</time>
      </trkpt>
      <trkpt lat="44.44999" lon="-0.41713">
        <ele>89.684096</ele>
        <time>2022-12-27T16:19:14.447Z</time>
      </trkpt>
      <trkpt lat="44.45004" lon="-0.41697">
        <ele>89.699642</ele>
        <time>2022-12-27T16:19:17.433Z</time>
      </trkpt>
      <trkpt lat="44.45008" lon="-0.41686">
        <ele>89.711343</ele>
        <time>2022-12-27T16:19:19.435Z</time>
      </trkpt>
      <trkpt lat="44.45013" lon="-0.41668">
        <ele>89.728915</ele>
        <time>2022-12-27T16:19:22.447Z</time>
      </trkpt>
      <trkpt lat="44.45016" lon="-0.41655">
        <ele>89.741344</ele>
        <time>2022-12-27T16:19:24.451Z</time>
      </trkpt>
      <trkpt lat="44.4502" lon="-0.41643">
        <ele>89.753674</ele>
        <time>2022-12-27T16:19:26.448Z</time>
      </trkpt>
      <trkpt lat="44.45024" lon="-0.41629">
        <ele>89.76726</ele>
        <time>2022-12-27T16:19:28.448Z</time>
      </trkpt>
      <trkpt lat="44.45028" lon="-0.41616">
        <ele>89.780408</ele>
        <time>2022-12-27T16:19:30.448Z</time>
      </trkpt>
      <trkpt lat="44.45031" lon="-0.41603">
        <ele>89.792904</ele>
        <time>2022-12-27T16:19:32.445Z</time>
      </trkpt>
      <trkpt lat="44.45034" lon="-0.41589">
        <ele>89.806182</ele>
        <time>2022-12-27T16:19:34.433Z</time>
      </trkpt>
      <trkpt lat="44.45037" lon="-0.41575">
        <ele>89.819849</ele>
        <time>2022-12-27T16:19:36.446Z</time>
      </trkpt>
      <trkpt lat="44.45041" lon="-0.41561">
        <ele>89.833568</ele>
        <time>2022-12-27T16:19:38.450Z</time>
      </trkpt>
      <trkpt lat="44.45044" lon="-0.41547">
        <ele>89.847626</ele>
        <time>2022-12-27T16:19:40.448Z</time>
      </trkpt>
      <trkpt lat="44.45047" lon="-0.41533">
        <ele>89.860913</ele>
        <time>2022-12-27T16:19:42.460Z</time>
      </trkpt>
      <trkpt lat="44.45051" lon="-0.41518">
        <ele>89.857586</ele>
        <time>2022-12-27T16:19:44.459Z</time>
      </trkpt>
      <trkpt lat="44.45054" lon="-0.41503">
        <ele>89.83972</ele>
        <time>2022-12-27T16:19:46.457Z</time>
      </trkpt>
      <trkpt lat="44.45057" lon="-0.41488">
        <ele>89.822566</ele>
        <time>2022-12-27T16:19:48.453Z</time>
      </trkpt>
      <trkpt lat="44.45059" lon="-0.41473">
        <ele>89.805075</ele>
        <time>2022-12-27T16:19:50.446Z</time>
      </trkpt>
      <trkpt lat="44.45062" lon="-0.41459">
        <ele>89.787783</ele>
        <time>2022-12-27T16:19:52.459Z</time>
      </trkpt>
      <trkpt lat="44.45066" lon="-0.41444">
        <ele>89.77041</ele>
        <time>2022-12-27T16:19:54.451Z</time>
      </trkpt>
      <trkpt lat="44.45068" lon="-0.4143">
        <ele>89.753786</ele>
        <time>2022-12-27T16:19:56.456Z</time>
      </trkpt>
      <trkpt lat="44.45071" lon="-0.41415">
        <ele>89.736473</ele>
        <time>2022-12-27T16:19:58.452Z</time>
      </trkpt>
      <trkpt lat="44.45073" lon="-0.41401">
        <ele>89.719788</ele>
        <time>2022-12-27T16:20:00.446Z</time>
      </trkpt>
      <trkpt lat="44.45076" lon="-0.41385">
        <ele>89.701448</ele>
        <time>2022-12-27T16:20:02.460Z</time>
      </trkpt>
      <trkpt lat="44.4508" lon="-0.41371">
        <ele>89.684104</ele>
        <time>2022-12-27T16:20:04.451Z</time>
      </trkpt>
      <trkpt lat="44.45083" lon="-0.41357">
        <ele>89.666812</ele>
        <time>2022-12-27T16:20:06.448Z</time>
      </trkpt>
      <trkpt lat="44.45087" lon="-0.41342">
        <ele>89.649278</ele>
        <time>2022-12-27T16:20:08.448Z</time>
      </trkpt>
      <trkpt lat="44.45092" lon="-0.41327">
        <ele>89.630953</ele>
        <time>2022-12-27T16:20:10.458Z</time>
      </trkpt>
      <trkpt lat="44.45094" lon="-0.41313">
        <ele>89.614609</ele>
        <time>2022-12-27T16:20:12.453Z</time>
      </trkpt>
      <trkpt lat="44.45098" lon="-0.41299">
        <ele>89.597068</ele>
        <time>2022-12-27T16:20:14.457Z</time>
      </trkpt>
      <trkpt lat="44.45102" lon="-0.41284">
        <ele>89.570435</ele>
        <time>2022-12-27T16:20:16.456Z</time>
      </trkpt>
      <trkpt lat="44.45104" lon="-0.41269">
        <ele>89.464568</ele>
        <time>2022-12-27T16:20:18.435Z</time>
      </trkpt>
      <trkpt lat="44.45107" lon="-0.41255">
        <ele>89.362834</ele>
        <time>2022-12-27T16:20:20.434Z</time>
      </trkpt>
      <trkpt lat="44.4511" lon="-0.41239">
        <ele>89.248766</ele>
        <time>2022-12-27T16:20:22.447Z</time>
      </trkpt>
      <trkpt lat="44.45112" lon="-0.41224">
        <ele>89.14757</ele>
        <time>2022-12-27T16:20:24.457Z</time>
      </trkpt>
      <trkpt lat="44.45116" lon="-0.41211">
        <ele>89.047022</ele>
        <time>2022-12-27T16:20:26.454Z</time>
      </trkpt>
      <trkpt lat="44.45118" lon="-0.41196">
        <ele>88.947824</ele>
        <time>2022-12-27T16:20:28.450Z</time>
      </trkpt>
      <trkpt lat="44.45121" lon="-0.41182">
        <ele>88.846928</ele>
        <time>2022-12-27T16:20:30.457Z</time>
      </trkpt>
      <trkpt lat="44.45125" lon="-0.41168">
        <ele>88.745078</ele>
        <time>2022-12-27T16:20:32.434Z</time>
      </trkpt>
      <trkpt lat="44.45128" lon="-0.41154">
        <ele>88.64542</ele>
        <time>2022-12-27T16:20:34.441Z</time>
      </trkpt>
      <trkpt lat="44.45131" lon="-0.4114">
        <ele>88.54118</ele>
        <time>2022-12-27T16:20:36.459Z</time>
      </trkpt>
      <trkpt lat="44.45134" lon="-0.41125">
        <ele>88.437723</ele>
        <time>2022-12-27T16:20:38.445Z</time>
      </trkpt>
      <trkpt lat="44.45136" lon="-0.41111">
        <ele>88.338743</ele>
        <time>2022-12-27T16:20:40.457Z</time>
      </trkpt>
      <trkpt lat="44.45139" lon="-0.41097">
        <ele>88.238586</ele>
        <time>2022-12-27T16:20:42.439Z</time>
      </trkpt>
      <trkpt lat="44.45141" lon="-0.41084">
        <ele>88.143142</ele>
        <time>2022-12-27T16:20:44.445Z</time>
      </trkpt>
      <trkpt lat="44.45144" lon="-0.41071">
        <ele>88.050216</ele>
        <time>2022-12-27T16:20:46.453Z</time>
      </trkpt>
      <trkpt lat="44.45148" lon="-0.41053">
        <ele>87.928478</ele>
        <time>2022-12-27T16:20:49.447Z</time>
      </trkpt>
      <trkpt lat="44.45152" lon="-0.41037">
        <ele>87.800955</ele>
        <time>2022-12-27T16:20:52.458Z</time>
      </trkpt>
      <trkpt lat="44.45156" lon="-0.41019">
        <ele>87.634296</ele>
        <time>2022-12-27T16:20:55.446Z</time>
      </trkpt>
      <trkpt lat="44.45159" lon="-0.41007">
        <ele>87.520758</ele>
        <time>2022-12-27T16:20:57.433Z</time>
      </trkpt>
      <trkpt lat="44.45162" lon="-0.40994">
        <ele>87.403716</ele>
        <time>2022-12-27T16:20:59.448Z</time>
      </trkpt>
      <trkpt lat="44.45165" lon="-0.40981">
        <ele>87.287785</ele>
        <time>2022-12-27T16:21:01.442Z</time>
      </trkpt>
      <trkpt lat="44.45169" lon="-0.40968">
        <ele>87.168187</ele>
        <time>2022-12-27T16:21:03.431Z</time>
      </trkpt>
      <trkpt lat="44.45171" lon="-0.40954">
        <ele>87.046162</ele>
        <time>2022-12-27T16:21:05.428Z</time>
      </trkpt>
      <trkpt lat="44.45174" lon="-0.40941">
        <ele>86.923157</ele>
        <time>2022-12-27T16:21:07.457Z</time>
      </trkpt>
      <trkpt lat="44.45178" lon="-0.40927">
        <ele>86.799511</ele>
        <time>2022-12-27T16:21:09.448Z</time>
      </trkpt>
      <trkpt lat="44.45181" lon="-0.40914">
        <ele>86.682768</ele>
        <time>2022-12-27T16:21:11.448Z</time>
      </trkpt>
      <trkpt lat="44.45184" lon="-0.40901">
        <ele>86.561413</ele>
        <time>2022-12-27T16:21:13.457Z</time>
      </trkpt>
      <trkpt lat="44.45186" lon="-0.40886">
        <ele>86.435224</ele>
        <time>2022-12-27T16:21:15.458Z</time>
      </trkpt>
      <trkpt lat="44.45189" lon="-0.40873">
        <ele>86.310901</ele>
        <time>2022-12-27T16:21:17.439Z</time>
      </trkpt>
      <trkpt lat="44.45192" lon="-0.40859">
        <ele>86.186001</ele>
        <time>2022-12-27T16:21:19.435Z</time>
      </trkpt>
      <trkpt lat="44.45195" lon="-0.40845">
        <ele>86.062831</ele>
        <time>2022-12-27T16:21:21.448Z</time>
      </trkpt>
      <trkpt lat="44.45198" lon="-0.4083">
        <ele>85.932539</ele>
        <time>2022-12-27T16:21:23.456Z</time>
      </trkpt>
      <trkpt lat="44.45201" lon="-0.40816">
        <ele>85.805403</ele>
        <time>2022-12-27T16:21:25.447Z</time>
      </trkpt>
      <trkpt lat="44.45204" lon="-0.40802">
        <ele>85.687785</ele>
        <time>2022-12-27T16:21:27.450Z</time>
      </trkpt>
      <trkpt lat="44.45207" lon="-0.40786">
        <ele>85.683622</ele>
        <time>2022-12-27T16:21:29.448Z</time>
      </trkpt>
      <trkpt lat="44.4521" lon="-0.40772">
        <ele>85.679566</ele>
        <time>2022-12-27T16:21:31.458Z</time>
      </trkpt>
      <trkpt lat="44.45213" lon="-0.40757">
        <ele>85.675545</ele>
        <time>2022-12-27T16:21:33.430Z</time>
      </trkpt>
      <trkpt lat="44.45216" lon="-0.40742">
        <ele>85.671528</ele>
        <time>2022-12-27T16:21:35.438Z</time>
      </trkpt>
      <trkpt lat="44.4522" lon="-0.40727">
        <ele>85.667467</ele>
        <time>2022-12-27T16:21:37.457Z</time>
      </trkpt>
      <trkpt lat="44.45223" lon="-0.40712">
        <ele>85.663353</ele>
        <time>2022-12-27T16:21:39.446Z</time>
      </trkpt>
      <trkpt lat="44.45227" lon="-0.40697">
        <ele>85.659096</ele>
        <time>2022-12-27T16:21:41.444Z</time>
      </trkpt>
      <trkpt lat="44.45229" lon="-0.40681">
        <ele>85.654816</ele>
        <time>2022-12-27T16:21:43.444Z</time>
      </trkpt>
      <trkpt lat="44.45232" lon="-0.40666">
        <ele>85.650784</ele>
        <time>2022-12-27T16:21:45.453Z</time>
      </trkpt>
      <trkpt lat="44.45236" lon="-0.40651">
        <ele>85.646582</ele>
        <time>2022-12-27T16:21:47.455Z</time>
      </trkpt>
      <trkpt lat="44.45239" lon="-0.40636">
        <ele>85.642566</ele>
        <time>2022-12-27T16:21:49.456Z</time>
      </trkpt>
      <trkpt lat="44.45242" lon="-0.40621">
        <ele>85.638499</ele>
        <time>2022-12-27T16:21:51.461Z</time>
      </trkpt>
      <trkpt lat="44.45245" lon="-0.40607">
        <ele>85.634724</ele>
        <time>2022-12-27T16:21:53.453Z</time>
      </trkpt>
      <trkpt lat="44.45248" lon="-0.40593">
        <ele>85.630884</ele>
        <time>2022-12-27T16:21:55.455Z</time>
      </trkpt>
      <trkpt lat="44.45252" lon="-0.4058">
        <ele>85.627154</ele>
        <time>2022-12-27T16:21:57.446Z</time>
      </trkpt>
      <trkpt lat="44.45254" lon="-0.40567">
        <ele>85.62367</ele>
        <time>2022-12-27T16:21:59.460Z</time>
      </trkpt>
      <trkpt lat="44.45257" lon="-0.40554">
        <ele>85.604599</ele>
        <time>2022-12-27T16:22:01.460Z</time>
      </trkpt>
      <trkpt lat="44.4526" lon="-0.40537">
        <ele>85.56569</ele>
        <time>2022-12-27T16:22:04.437Z</time>
      </trkpt>
      <trkpt lat="44.45263" lon="-0.40521">
        <ele>85.529401</ele>
        <time>2022-12-27T16:22:07.457Z</time>
      </trkpt>
      <trkpt lat="44.45266" lon="-0.40505">
        <ele>85.493462</ele>
        <time>2022-12-27T16:22:10.455Z</time>
      </trkpt>
      <trkpt lat="44.45269" lon="-0.40488">
        <ele>85.455025</ele>
        <time>2022-12-27T16:22:13.460Z</time>
      </trkpt>
      <trkpt lat="44.45272" lon="-0.40475">
        <ele>85.426343</ele>
        <time>2022-12-27T16:22:15.444Z</time>
      </trkpt>
      <trkpt lat="44.45274" lon="-0.40463">
        <ele>85.398951</ele>
        <time>2022-12-27T16:22:17.429Z</time>
      </trkpt>
      <trkpt lat="44.45278" lon="-0.4045">
        <ele>85.369109</ele>
        <time>2022-12-27T16:22:19.456Z</time>
      </trkpt>
      <trkpt lat="44.45281" lon="-0.40437">
        <ele>85.338742</ele>
        <time>2022-12-27T16:22:21.460Z</time>
      </trkpt>
      <trkpt lat="44.45284" lon="-0.40424">
        <ele>85.308901</ele>
        <time>2022-12-27T16:22:23.444Z</time>
      </trkpt>
      <trkpt lat="44.45287" lon="-0.4041">
        <ele>85.277286</ele>
        <time>2022-12-27T16:22:25.445Z</time>
      </trkpt>
      <trkpt lat="44.45289" lon="-0.40398">
        <ele>85.249752</ele>
        <time>2022-12-27T16:22:27.460Z</time>
      </trkpt>
      <trkpt lat="44.45292" lon="-0.40384">
        <ele>85.218179</ele>
        <time>2022-12-27T16:22:29.456Z</time>
      </trkpt>
      <trkpt lat="44.45295" lon="-0.40369">
        <ele>85.186024</ele>
        <time>2022-12-27T16:22:31.457Z</time>
      </trkpt>
      <trkpt lat="44.45298" lon="-0.40356">
        <ele>85.154734</ele>
        <time>2022-12-27T16:22:33.454Z</time>
      </trkpt>
      <trkpt lat="44.45301" lon="-0.40342">
        <ele>85.122523</ele>
        <time>2022-12-27T16:22:35.456Z</time>
      </trkpt>
      <trkpt lat="44.45303" lon="-0.40328">
        <ele>85.09279</ele>
        <time>2022-12-27T16:22:37.458Z</time>
      </trkpt>
      <trkpt lat="44.45306" lon="-0.40315">
        <ele>85.060048</ele>
        <time>2022-12-27T16:22:39.458Z</time>
      </trkpt>
      <trkpt lat="44.45309" lon="-0.40303">
        <ele>85.023988</ele>
        <time>2022-12-27T16:22:41.457Z</time>
      </trkpt>
      <trkpt lat="44.45311" lon="-0.40289">
        <ele>84.985138</ele>
        <time>2022-12-27T16:22:43.454Z</time>
      </trkpt>
      <trkpt lat="44.45314" lon="-0.40276">
        <ele>84.947283</ele>
        <time>2022-12-27T16:22:45.436Z</time>
      </trkpt>
      <trkpt lat="44.45317" lon="-0.40263">
        <ele>84.907145</ele>
        <time>2022-12-27T16:22:47.444Z</time>
      </trkpt>
      <trkpt lat="44.4532" lon="-0.40248">
        <ele>84.865477</ele>
        <time>2022-12-27T16:22:49.458Z</time>
      </trkpt>
      <trkpt lat="44.45323" lon="-0.40234">
        <ele>84.824535</ele>
        <time>2022-12-27T16:22:51.450Z</time>
      </trkpt>
      <trkpt lat="44.45327" lon="-0.4022">
        <ele>84.781827</ele>
        <time>2022-12-27T16:22:53.452Z</time>
      </trkpt>
      <trkpt lat="44.4533" lon="-0.40205">
        <ele>84.738736</ele>
        <time>2022-12-27T16:22:55.448Z</time>
      </trkpt>
      <trkpt lat="44.45333" lon="-0.40191">
        <ele>84.697068</ele>
        <time>2022-12-27T16:22:57.450Z</time>
      </trkpt>
      <trkpt lat="44.45336" lon="-0.40176">
        <ele>84.654988</ele>
        <time>2022-12-27T16:22:59.441Z</time>
      </trkpt>
      <trkpt lat="44.4534" lon="-0.40162">
        <ele>84.61281</ele>
        <time>2022-12-27T16:23:01.448Z</time>
      </trkpt>
      <trkpt lat="44.45342" lon="-0.40147">
        <ele>84.570375</ele>
        <time>2022-12-27T16:23:03.448Z</time>
      </trkpt>
      <trkpt lat="44.45346" lon="-0.40133">
        <ele>84.528321</ele>
        <time>2022-12-27T16:23:05.449Z</time>
      </trkpt>
      <trkpt lat="44.45349" lon="-0.40118">
        <ele>84.48587</ele>
        <time>2022-12-27T16:23:07.452Z</time>
      </trkpt>
      <trkpt lat="44.45352" lon="-0.40104">
        <ele>84.44408</ele>
        <time>2022-12-27T16:23:09.458Z</time>
      </trkpt>
      <trkpt lat="44.45355" lon="-0.4009">
        <ele>84.403514</ele>
        <time>2022-12-27T16:23:11.449Z</time>
      </trkpt>
      <trkpt lat="44.45358" lon="-0.40075">
        <ele>84.343462</ele>
        <time>2022-12-27T16:23:13.457Z</time>
      </trkpt>
      <trkpt lat="44.45361" lon="-0.40061">
        <ele>84.226775</ele>
        <time>2022-12-27T16:23:15.450Z</time>
      </trkpt>
      <trkpt lat="44.45364" lon="-0.40046">
        <ele>84.113345</ele>
        <time>2022-12-27T16:23:17.444Z</time>
      </trkpt>
      <trkpt lat="44.45367" lon="-0.40031">
        <ele>83.997993</ele>
        <time>2022-12-27T16:23:19.454Z</time>
      </trkpt>
      <trkpt lat="44.4537" lon="-0.40017">
        <ele>83.88254</ele>
        <time>2022-12-27T16:23:21.452Z</time>
      </trkpt>
      <trkpt lat="44.45373" lon="-0.40003">
        <ele>83.769099</ele>
        <time>2022-12-27T16:23:23.452Z</time>
      </trkpt>
      <trkpt lat="44.45377" lon="-0.3999">
        <ele>83.664415</ele>
        <time>2022-12-27T16:23:25.451Z</time>
      </trkpt>
      <trkpt lat="44.4538" lon="-0.39977">
        <ele>83.561288</ele>
        <time>2022-12-27T16:23:27.455Z</time>
      </trkpt>
      <trkpt lat="44.45383" lon="-0.39964">
        <ele>83.45905</ele>
        <time>2022-12-27T16:23:29.461Z</time>
      </trkpt>
      <trkpt lat="44.45386" lon="-0.39946">
        <ele>83.31897</ele>
        <time>2022-12-27T16:23:32.460Z</time>
      </trkpt>
      <trkpt lat="44.45388" lon="-0.39933">
        <ele>83.222881</ele>
        <time>2022-12-27T16:23:34.460Z</time>
      </trkpt>
      <trkpt lat="44.45391" lon="-0.39917">
        <ele>83.093922</ele>
        <time>2022-12-27T16:23:37.457Z</time>
      </trkpt>
      <trkpt lat="44.45394" lon="-0.39899">
        <ele>82.960098</ele>
        <time>2022-12-27T16:23:40.459Z</time>
      </trkpt>
      <trkpt lat="44.45395" lon="-0.39887">
        <ele>82.864009</ele>
        <time>2022-12-27T16:23:42.459Z</time>
      </trkpt>
      <trkpt lat="44.45397" lon="-0.39874">
        <ele>82.768621</ele>
        <time>2022-12-27T16:23:44.441Z</time>
      </trkpt>
      <trkpt lat="44.45398" lon="-0.39861">
        <ele>82.667849</ele>
        <time>2022-12-27T16:23:46.431Z</time>
      </trkpt>
      <trkpt lat="44.45399" lon="-0.39848">
        <ele>82.567813</ele>
        <time>2022-12-27T16:23:48.457Z</time>
      </trkpt>
      <trkpt lat="44.45399" lon="-0.39834">
        <ele>82.465663</ele>
        <time>2022-12-27T16:23:50.454Z</time>
      </trkpt>
      <trkpt lat="44.45401" lon="-0.3982">
        <ele>82.40903</ele>
        <time>2022-12-27T16:23:52.453Z</time>
      </trkpt>
      <trkpt lat="44.45401" lon="-0.39803">
        <ele>82.344639</ele>
        <time>2022-12-27T16:23:54.456Z</time>
      </trkpt>
      <trkpt lat="44.45402" lon="-0.39786">
        <ele>82.280899</ele>
        <time>2022-12-27T16:23:56.430Z</time>
      </trkpt>
      <trkpt lat="44.45403" lon="-0.39771">
        <ele>82.221502</ele>
        <time>2022-12-27T16:23:58.457Z</time>
      </trkpt>
      <trkpt lat="44.45404" lon="-0.39752">
        <ele>82.14901</ele>
        <time>2022-12-27T16:24:00.458Z</time>
      </trkpt>
      <trkpt lat="44.45404" lon="-0.39735">
        <ele>82.082313</ele>
        <time>2022-12-27T16:24:02.446Z</time>
      </trkpt>
      <trkpt lat="44.45405" lon="-0.39717">
        <ele>82.014899</ele>
        <time>2022-12-27T16:24:04.448Z</time>
      </trkpt>
      <trkpt lat="44.45404" lon="-0.39701">
        <ele>81.949739</ele>
        <time>2022-12-27T16:24:06.458Z</time>
      </trkpt>
      <trkpt lat="44.45404" lon="-0.39683">
        <ele>81.882274</ele>
        <time>2022-12-27T16:24:08.437Z</time>
      </trkpt>
      <trkpt lat="44.45403" lon="-0.39666">
        <ele>81.816312</ele>
        <time>2022-12-27T16:24:10.459Z</time>
      </trkpt>
      <trkpt lat="44.45401" lon="-0.3965">
        <ele>81.753181</ele>
        <time>2022-12-27T16:24:12.462Z</time>
      </trkpt>
      <trkpt lat="44.454" lon="-0.39633">
        <ele>81.689539</ele>
        <time>2022-12-27T16:24:14.431Z</time>
      </trkpt>
      <trkpt lat="44.45398" lon="-0.39618">
        <ele>81.629712</ele>
        <time>2022-12-27T16:24:16.458Z</time>
      </trkpt>
      <trkpt lat="44.45397" lon="-0.39603">
        <ele>81.571411</ele>
        <time>2022-12-27T16:24:18.439Z</time>
      </trkpt>
      <trkpt lat="44.45395" lon="-0.39588">
        <ele>81.51154</ele>
        <time>2022-12-27T16:24:20.440Z</time>
      </trkpt>
      <trkpt lat="44.45393" lon="-0.39572">
        <ele>81.560038</ele>
        <time>2022-12-27T16:24:22.447Z</time>
      </trkpt>
      <trkpt lat="44.4539" lon="-0.39555">
        <ele>81.642318</ele>
        <time>2022-12-27T16:24:24.457Z</time>
      </trkpt>
      <trkpt lat="44.45388" lon="-0.3954">
        <ele>81.716956</ele>
        <time>2022-12-27T16:24:26.440Z</time>
      </trkpt>
      <trkpt lat="44.45385" lon="-0.39524">
        <ele>81.803585</ele>
        <time>2022-12-27T16:24:28.453Z</time>
      </trkpt>
      <trkpt lat="44.45382" lon="-0.39506">
        <ele>81.893948</ele>
        <time>2022-12-27T16:24:30.454Z</time>
      </trkpt>
      <trkpt lat="44.45378" lon="-0.39488">
        <ele>81.983527</ele>
        <time>2022-12-27T16:24:32.456Z</time>
      </trkpt>
      <trkpt lat="44.45374" lon="-0.39471">
        <ele>82.074721</ele>
        <time>2022-12-27T16:24:34.455Z</time>
      </trkpt>
      <trkpt lat="44.4537" lon="-0.39452">
        <ele>82.16894</ele>
        <time>2022-12-27T16:24:36.459Z</time>
      </trkpt>
      <trkpt lat="44.45367" lon="-0.39434">
        <ele>82.260604</ele>
        <time>2022-12-27T16:24:38.457Z</time>
      </trkpt>
      <trkpt lat="44.45363" lon="-0.39417">
        <ele>82.347707</ele>
        <time>2022-12-27T16:24:40.462Z</time>
      </trkpt>
      <trkpt lat="44.4536" lon="-0.39401">
        <ele>82.43332</ele>
        <time>2022-12-27T16:24:42.446Z</time>
      </trkpt>
      <trkpt lat="44.45356" lon="-0.39384">
        <ele>82.521882</ele>
        <time>2022-12-27T16:24:44.457Z</time>
      </trkpt>
      <trkpt lat="44.45352" lon="-0.39366">
        <ele>82.612343</ele>
        <time>2022-12-27T16:24:46.460Z</time>
      </trkpt>
      <trkpt lat="44.45347" lon="-0.3935">
        <ele>82.698583</ele>
        <time>2022-12-27T16:24:48.455Z</time>
      </trkpt>
      <trkpt lat="44.45345" lon="-0.39333">
        <ele>82.805208</ele>
        <time>2022-12-27T16:24:50.453Z</time>
      </trkpt>
      <trkpt lat="44.45342" lon="-0.39317">
        <ele>82.918188</ele>
        <time>2022-12-27T16:24:52.453Z</time>
      </trkpt>
      <trkpt lat="44.45339" lon="-0.39302">
        <ele>83.029374</ele>
        <time>2022-12-27T16:24:54.445Z</time>
      </trkpt>
      <trkpt lat="44.45337" lon="-0.39288">
        <ele>83.130982</ele>
        <time>2022-12-27T16:24:56.456Z</time>
      </trkpt>
      <trkpt lat="44.45335" lon="-0.39274">
        <ele>83.228994</ele>
        <time>2022-12-27T16:24:58.445Z</time>
      </trkpt>
      <trkpt lat="44.45333" lon="-0.39261">
        <ele>83.329205</ele>
        <time>2022-12-27T16:25:00.458Z</time>
      </trkpt>
      <trkpt lat="44.45331" lon="-0.39247">
        <ele>83.428206</ele>
        <time>2022-12-27T16:25:02.458Z</time>
      </trkpt>
      <trkpt lat="44.45329" lon="-0.39234">
        <ele>83.520055</ele>
        <time>2022-12-27T16:25:04.461Z</time>
      </trkpt>
      <trkpt lat="44.45327" lon="-0.39218">
        <ele>83.637378</ele>
        <time>2022-12-27T16:25:07.470Z</time>
      </trkpt>
      <trkpt lat="44.45325" lon="-0.392">
        <ele>83.768558</ele>
        <time>2022-12-27T16:25:10.460Z</time>
      </trkpt>
      <trkpt lat="44.45324" lon="-0.39182">
        <ele>83.891681</ele>
        <time>2022-12-27T16:25:13.451Z</time>
      </trkpt>
      <trkpt lat="44.45322" lon="-0.39165">
        <ele>84.012844</ele>
        <time>2022-12-27T16:25:16.458Z</time>
      </trkpt>
      <trkpt lat="44.45322" lon="-0.3915">
        <ele>84.124219</ele>
        <time>2022-12-27T16:25:19.455Z</time>
      </trkpt>
      <trkpt lat="44.45322" lon="-0.39134">
        <ele>84.233503</ele>
        <time>2022-12-27T16:25:22.451Z</time>
      </trkpt>
      <trkpt lat="44.45321" lon="-0.39118">
        <ele>84.350701</ele>
        <time>2022-12-27T16:25:25.460Z</time>
      </trkpt>
      <trkpt lat="44.45321" lon="-0.39101">
        <ele>84.471359</ele>
        <time>2022-12-27T16:25:28.461Z</time>
      </trkpt>
      <trkpt lat="44.4532" lon="-0.39084">
        <ele>84.704217</ele>
        <time>2022-12-27T16:25:31.456Z</time>
      </trkpt>
      <trkpt lat="44.4532" lon="-0.39066">
        <ele>85.037435</ele>
        <time>2022-12-27T16:25:34.459Z</time>
      </trkpt>
      <trkpt lat="44.4532" lon="-0.39048">
        <ele>85.383982</ele>
        <time>2022-12-27T16:25:37.455Z</time>
      </trkpt>
      <trkpt lat="44.45319" lon="-0.3903">
        <ele>85.738495</ele>
        <time>2022-12-27T16:25:40.450Z</time>
      </trkpt>
      <trkpt lat="44.45319" lon="-0.39011">
        <ele>86.086935</ele>
        <time>2022-12-27T16:25:43.443Z</time>
      </trkpt>
      <trkpt lat="44.4532" lon="-0.38998">
        <ele>86.336493</ele>
        <time>2022-12-27T16:25:45.448Z</time>
      </trkpt>
      <trkpt lat="44.4532" lon="-0.38985">
        <ele>86.586279</ele>
        <time>2022-12-27T16:25:47.442Z</time>
      </trkpt>
      <trkpt lat="44.4532" lon="-0.38971">
        <ele>86.854802</ele>
        <time>2022-12-27T16:25:49.446Z</time>
      </trkpt>
      <trkpt lat="44.4532" lon="-0.38958">
        <ele>87.096631</ele>
        <time>2022-12-27T16:25:51.431Z</time>
      </trkpt>
      <trkpt lat="44.4532" lon="-0.38944">
        <ele>87.361306</ele>
        <time>2022-12-27T16:25:53.455Z</time>
      </trkpt>
      <trkpt lat="44.45321" lon="-0.38931">
        <ele>87.609993</ele>
        <time>2022-12-27T16:25:55.456Z</time>
      </trkpt>
      <trkpt lat="44.45323" lon="-0.38918">
        <ele>87.859295</ele>
        <time>2022-12-27T16:25:57.455Z</time>
      </trkpt>
      <trkpt lat="44.45324" lon="-0.38906">
        <ele>88.10133</ele>
        <time>2022-12-27T16:25:59.456Z</time>
      </trkpt>
      <trkpt lat="44.45325" lon="-0.38891">
        <ele>88.37824</ele>
        <time>2022-12-27T16:26:01.458Z</time>
      </trkpt>
      <trkpt lat="44.45327" lon="-0.38872">
        <ele>88.747688</ele>
        <time>2022-12-27T16:26:04.461Z</time>
      </trkpt>
      <trkpt lat="44.45328" lon="-0.38859">
        <ele>88.992119</ele>
        <time>2022-12-27T16:26:06.456Z</time>
      </trkpt>
      <trkpt lat="44.45329" lon="-0.38843">
        <ele>89.306301</ele>
        <time>2022-12-27T16:26:09.440Z</time>
      </trkpt>
      <trkpt lat="44.45332" lon="-0.38827">
        <ele>89.220796</ele>
        <time>2022-12-27T16:26:12.458Z</time>
      </trkpt>
      <trkpt lat="44.45335" lon="-0.3881">
        <ele>89.107139</ele>
        <time>2022-12-27T16:26:15.451Z</time>
      </trkpt>
      <trkpt lat="44.45336" lon="-0.38797">
        <ele>89.022026</ele>
        <time>2022-12-27T16:26:17.433Z</time>
      </trkpt>
      <trkpt lat="44.45338" lon="-0.38782">
        <ele>88.925192</ele>
        <time>2022-12-27T16:26:19.459Z</time>
      </trkpt>
      <trkpt lat="44.45338" lon="-0.3877">
        <ele>88.84274</ele>
        <time>2022-12-27T16:26:21.454Z</time>
      </trkpt>
      <trkpt lat="44.45339" lon="-0.38757">
        <ele>88.757578</ele>
        <time>2022-12-27T16:26:23.449Z</time>
      </trkpt>
      <trkpt lat="44.4534" lon="-0.38742">
        <ele>88.663219</ele>
        <time>2022-12-27T16:26:25.453Z</time>
      </trkpt>
      <trkpt lat="44.45342" lon="-0.38728">
        <ele>88.563932</ele>
        <time>2022-12-27T16:26:27.458Z</time>
      </trkpt>
      <trkpt lat="44.45343" lon="-0.38712">
        <ele>88.459959</ele>
        <time>2022-12-27T16:26:29.459Z</time>
      </trkpt>
      <trkpt lat="44.45346" lon="-0.38697">
        <ele>88.360491</ele>
        <time>2022-12-27T16:26:31.463Z</time>
      </trkpt>
      <trkpt lat="44.45346" lon="-0.38682">
        <ele>88.261569</ele>
        <time>2022-12-27T16:26:33.448Z</time>
      </trkpt>
      <trkpt lat="44.45348" lon="-0.38666">
        <ele>88.16073</ele>
        <time>2022-12-27T16:26:35.445Z</time>
      </trkpt>
      <trkpt lat="44.45349" lon="-0.38652">
        <ele>88.062706</ele>
        <time>2022-12-27T16:26:37.459Z</time>
      </trkpt>
      <trkpt lat="44.4535" lon="-0.38639">
        <ele>87.979198</ele>
        <time>2022-12-27T16:26:39.450Z</time>
      </trkpt>
      <trkpt lat="44.45352" lon="-0.38626">
        <ele>87.893271</ele>
        <time>2022-12-27T16:26:41.446Z</time>
      </trkpt>
      <trkpt lat="44.45354" lon="-0.38611">
        <ele>87.795769</ele>
        <time>2022-12-27T16:26:43.457Z</time>
      </trkpt>
      <trkpt lat="44.45355" lon="-0.38596">
        <ele>87.698015</ele>
        <time>2022-12-27T16:26:45.447Z</time>
      </trkpt>
      <trkpt lat="44.45357" lon="-0.38581">
        <ele>87.586277</ele>
        <time>2022-12-27T16:26:47.461Z</time>
      </trkpt>
      <trkpt lat="44.45359" lon="-0.38567">
        <ele>87.480255</ele>
        <time>2022-12-27T16:26:49.458Z</time>
      </trkpt>
      <trkpt lat="44.4536" lon="-0.38551">
        <ele>87.366424</ele>
        <time>2022-12-27T16:26:51.457Z</time>
      </trkpt>
      <trkpt lat="44.45361" lon="-0.38536">
        <ele>87.260929</ele>
        <time>2022-12-27T16:26:53.444Z</time>
      </trkpt>
      <trkpt lat="44.45362" lon="-0.38522">
        <ele>87.158621</ele>
        <time>2022-12-27T16:26:55.445Z</time>
      </trkpt>
      <trkpt lat="44.45364" lon="-0.38507">
        <ele>87.04957</ele>
        <time>2022-12-27T16:26:57.458Z</time>
      </trkpt>
      <trkpt lat="44.45365" lon="-0.38495">
        <ele>86.958418</ele>
        <time>2022-12-27T16:26:59.431Z</time>
      </trkpt>
      <trkpt lat="44.45366" lon="-0.3848">
        <ele>86.853313</ele>
        <time>2022-12-27T16:27:01.436Z</time>
      </trkpt>
      <trkpt lat="44.45367" lon="-0.38465">
        <ele>86.743715</ele>
        <time>2022-12-27T16:27:03.430Z</time>
      </trkpt>
      <trkpt lat="44.45367" lon="-0.38452">
        <ele>86.644373</ele>
        <time>2022-12-27T16:27:05.433Z</time>
      </trkpt>
      <trkpt lat="44.45369" lon="-0.38438">
        <ele>86.548488</ele>
        <time>2022-12-27T16:27:07.466Z</time>
      </trkpt>
      <trkpt lat="44.4537" lon="-0.38424">
        <ele>86.446321</ele>
        <time>2022-12-27T16:27:09.451Z</time>
      </trkpt>
      <trkpt lat="44.45372" lon="-0.38409">
        <ele>86.335129</ele>
        <time>2022-12-27T16:27:11.445Z</time>
      </trkpt>
      <trkpt lat="44.45374" lon="-0.38395">
        <ele>86.231387</ele>
        <time>2022-12-27T16:27:13.447Z</time>
      </trkpt>
      <trkpt lat="44.45375" lon="-0.38382">
        <ele>86.134075</ele>
        <time>2022-12-27T16:27:15.461Z</time>
      </trkpt>
      <trkpt lat="44.45377" lon="-0.38366">
        <ele>86.020951</ele>
        <time>2022-12-27T16:27:17.457Z</time>
      </trkpt>
      <trkpt lat="44.45379" lon="-0.38351">
        <ele>85.909196</ele>
        <time>2022-12-27T16:27:19.441Z</time>
      </trkpt>
      <trkpt lat="44.45381" lon="-0.38337">
        <ele>85.798712</ele>
        <time>2022-12-27T16:27:21.454Z</time>
      </trkpt>
      <trkpt lat="44.45383" lon="-0.3832">
        <ele>85.665425</ele>
        <time>2022-12-27T16:27:23.432Z</time>
      </trkpt>
      <trkpt lat="44.45384" lon="-0.38305">
        <ele>85.538184</ele>
        <time>2022-12-27T16:27:25.458Z</time>
      </trkpt>
      <trkpt lat="44.45385" lon="-0.38288">
        <ele>85.406665</ele>
        <time>2022-12-27T16:27:27.449Z</time>
      </trkpt>
      <trkpt lat="44.45386" lon="-0.38273">
        <ele>85.282097</ele>
        <time>2022-12-27T16:27:29.456Z</time>
      </trkpt>
      <trkpt lat="44.45387" lon="-0.38258">
        <ele>85.16028</ele>
        <time>2022-12-27T16:27:31.456Z</time>
      </trkpt>
      <trkpt lat="44.45389" lon="-0.38243">
        <ele>85.043148</ele>
        <time>2022-12-27T16:27:33.455Z</time>
      </trkpt>
      <trkpt lat="44.4539" lon="-0.3823">
        <ele>84.93322</ele>
        <time>2022-12-27T16:27:35.452Z</time>
      </trkpt>
      <trkpt lat="44.45392" lon="-0.38216">
        <ele>84.820457</ele>
        <time>2022-12-27T16:27:37.458Z</time>
      </trkpt>
      <trkpt lat="44.45395" lon="-0.38196">
        <ele>84.656347</ele>
        <time>2022-12-27T16:27:40.451Z</time>
      </trkpt>
      <trkpt lat="44.45397" lon="-0.38182">
        <ele>84.53831</ele>
        <time>2022-12-27T16:27:42.461Z</time>
      </trkpt>
      <trkpt lat="44.45398" lon="-0.38168">
        <ele>84.42661</ele>
        <time>2022-12-27T16:27:44.453Z</time>
      </trkpt>
      <trkpt lat="44.454" lon="-0.38154">
        <ele>84.313203</ele>
        <time>2022-12-27T16:27:46.457Z</time>
      </trkpt>
      <trkpt lat="44.45401" lon="-0.3814">
        <ele>84.198999</ele>
        <time>2022-12-27T16:27:48.460Z</time>
      </trkpt>
      <trkpt lat="44.45402" lon="-0.38123">
        <ele>84.064469</ele>
        <time>2022-12-27T16:27:50.459Z</time>
      </trkpt>
      <trkpt lat="44.45403" lon="-0.38108">
        <ele>83.939103</ele>
        <time>2022-12-27T16:27:52.462Z</time>
      </trkpt>
      <trkpt lat="44.45405" lon="-0.38091">
        <ele>83.798561</ele>
        <time>2022-12-27T16:27:54.458Z</time>
      </trkpt>
      <trkpt lat="44.45407" lon="-0.38076">
        <ele>83.637942</ele>
        <time>2022-12-27T16:27:56.456Z</time>
      </trkpt>
      <trkpt lat="44.45408" lon="-0.38061">
        <ele>83.488591</ele>
        <time>2022-12-27T16:27:58.459Z</time>
      </trkpt>
      <trkpt lat="44.45409" lon="-0.38046">
        <ele>83.329991</ele>
        <time>2022-12-27T16:28:00.445Z</time>
      </trkpt>
      <trkpt lat="44.45411" lon="-0.3803">
        <ele>83.17341</ele>
        <time>2022-12-27T16:28:02.462Z</time>
      </trkpt>
      <trkpt lat="44.45412" lon="-0.38015">
        <ele>83.015645</ele>
        <time>2022-12-27T16:28:04.461Z</time>
      </trkpt>
      <trkpt lat="44.45413" lon="-0.37999">
        <ele>82.857695</ele>
        <time>2022-12-27T16:28:06.439Z</time>
      </trkpt>
      <trkpt lat="44.45415" lon="-0.37984">
        <ele>82.702435</ele>
        <time>2022-12-27T16:28:08.438Z</time>
      </trkpt>
      <trkpt lat="44.45415" lon="-0.37971">
        <ele>82.563635</ele>
        <time>2022-12-27T16:28:10.431Z</time>
      </trkpt>
      <trkpt lat="44.45417" lon="-0.37956">
        <ele>82.418148</ele>
        <time>2022-12-27T16:28:12.462Z</time>
      </trkpt>
      <trkpt lat="44.45419" lon="-0.37943">
        <ele>82.281305</ele>
        <time>2022-12-27T16:28:14.456Z</time>
      </trkpt>
      <trkpt lat="44.4542" lon="-0.37929">
        <ele>82.134276</ele>
        <time>2022-12-27T16:28:16.458Z</time>
      </trkpt>
      <trkpt lat="44.4542" lon="-0.37916">
        <ele>82.003058</ele>
        <time>2022-12-27T16:28:18.456Z</time>
      </trkpt>
      <trkpt lat="44.45421" lon="-0.37902">
        <ele>81.862097</ele>
        <time>2022-12-27T16:28:20.451Z</time>
      </trkpt>
      <trkpt lat="44.45422" lon="-0.37888">
        <ele>81.714594</ele>
        <time>2022-12-27T16:28:22.460Z</time>
      </trkpt>
      <trkpt lat="44.45423" lon="-0.37874">
        <ele>81.575794</ele>
        <time>2022-12-27T16:28:24.430Z</time>
      </trkpt>
      <trkpt lat="44.45425" lon="-0.3786">
        <ele>81.429703</ele>
        <time>2022-12-27T16:28:26.449Z</time>
      </trkpt>
      <trkpt lat="44.45427" lon="-0.37845">
        <ele>81.279372</ele>
        <time>2022-12-27T16:28:28.458Z</time>
      </trkpt>
      <trkpt lat="44.45428" lon="-0.37831">
        <ele>81.109506</ele>
        <time>2022-12-27T16:28:30.458Z</time>
      </trkpt>
      <trkpt lat="44.45429" lon="-0.37817">
        <ele>80.940425</ele>
        <time>2022-12-27T16:28:32.455Z</time>
      </trkpt>
      <trkpt lat="44.4543" lon="-0.37804">
        <ele>80.775532</ele>
        <time>2022-12-27T16:28:34.452Z</time>
      </trkpt>
      <trkpt lat="44.45431" lon="-0.37789">
        <ele>80.600115</ele>
        <time>2022-12-27T16:28:36.458Z</time>
      </trkpt>
      <trkpt lat="44.45432" lon="-0.37775">
        <ele>80.431336</ele>
        <time>2022-12-27T16:28:38.454Z</time>
      </trkpt>
      <trkpt lat="44.45434" lon="-0.37761">
        <ele>80.262643</ele>
        <time>2022-12-27T16:28:40.455Z</time>
      </trkpt>
      <trkpt lat="44.45435" lon="-0.37748">
        <ele>80.100551</ele>
        <time>2022-12-27T16:28:42.459Z</time>
      </trkpt>
      <trkpt lat="44.45435" lon="-0.37735">
        <ele>79.941888</ele>
        <time>2022-12-27T16:28:44.458Z</time>
      </trkpt>
      <trkpt lat="44.45436" lon="-0.37719">
        <ele>79.74992</ele>
        <time>2022-12-27T16:28:47.445Z</time>
      </trkpt>
      <trkpt lat="44.45437" lon="-0.37705">
        <ele>79.588012</ele>
        <time>2022-12-27T16:28:51.448Z</time>
      </trkpt>
      <trkpt lat="44.45439" lon="-0.3769">
        <ele>79.402811</ele>
        <time>2022-12-27T16:28:55.446Z</time>
      </trkpt>
      <trkpt lat="44.4544" lon="-0.37675">
        <ele>79.216058</ele>
        <time>2022-12-27T16:28:58.457Z</time>
      </trkpt>
      <trkpt lat="44.45441" lon="-0.37657">
        <ele>79.002689</ele>
        <time>2022-12-27T16:29:01.451Z</time>
      </trkpt>
      <trkpt lat="44.45442" lon="-0.37638">
        <ele>78.777552</ele>
        <time>2022-12-27T16:29:04.458Z</time>
      </trkpt>
      <trkpt lat="44.45443" lon="-0.37625">
        <ele>78.610685</ele>
        <time>2022-12-27T16:29:06.448Z</time>
      </trkpt>
      <trkpt lat="44.45444" lon="-0.37611">
        <ele>78.442234</ele>
        <time>2022-12-27T16:29:08.453Z</time>
      </trkpt>
      <trkpt lat="44.45445" lon="-0.37597">
        <ele>78.277936</ele>
        <time>2022-12-27T16:29:10.460Z</time>
      </trkpt>
      <trkpt lat="44.45446" lon="-0.37582">
        <ele>78.20721</ele>
        <time>2022-12-27T16:29:12.456Z</time>
      </trkpt>
      <trkpt lat="44.45447" lon="-0.37567">
        <ele>78.163868</ele>
        <time>2022-12-27T16:29:14.460Z</time>
      </trkpt>
      <trkpt lat="44.45448" lon="-0.37552">
        <ele>78.119892</ele>
        <time>2022-12-27T16:29:16.457Z</time>
      </trkpt>
      <trkpt lat="44.45448" lon="-0.37537">
        <ele>78.078778</ele>
        <time>2022-12-27T16:29:18.447Z</time>
      </trkpt>
      <trkpt lat="44.45449" lon="-0.37524">
        <ele>78.040743</ele>
        <time>2022-12-27T16:29:20.458Z</time>
      </trkpt>
      <trkpt lat="44.4545" lon="-0.37511">
        <ele>78.002172</ele>
        <time>2022-12-27T16:29:22.449Z</time>
      </trkpt>
      <trkpt lat="44.45451" lon="-0.37491">
        <ele>77.946719</ele>
        <time>2022-12-27T16:29:25.459Z</time>
      </trkpt>
      <trkpt lat="44.45452" lon="-0.37478">
        <ele>77.90818</ele>
        <time>2022-12-27T16:29:27.461Z</time>
      </trkpt>
      <trkpt lat="44.45453" lon="-0.37464">
        <ele>77.868644</ele>
        <time>2022-12-27T16:29:29.456Z</time>
      </trkpt>
      <trkpt lat="44.45454" lon="-0.37451">
        <ele>77.829869</ele>
        <time>2022-12-27T16:29:31.459Z</time>
      </trkpt>
      <trkpt lat="44.45455" lon="-0.37438">
        <ele>77.791584</ele>
        <time>2022-12-27T16:29:33.462Z</time>
      </trkpt>
      <trkpt lat="44.45456" lon="-0.37419">
        <ele>77.738622</ele>
        <time>2022-12-27T16:29:36.448Z</time>
      </trkpt>
      <trkpt lat="44.45455" lon="-0.37401">
        <ele>77.686985</ele>
        <time>2022-12-27T16:29:39.461Z</time>
      </trkpt>
      <trkpt lat="44.45454" lon="-0.37386">
        <ele>77.642219</ele>
        <time>2022-12-27T16:29:42.432Z</time>
      </trkpt>
      <trkpt lat="44.45454" lon="-0.37372">
        <ele>77.603707</ele>
        <time>2022-12-27T16:29:45.435Z</time>
      </trkpt>
      <trkpt lat="44.45455" lon="-0.37358">
        <ele>77.561737</ele>
        <time>2022-12-27T16:29:49.446Z</time>
      </trkpt>
      <trkpt lat="44.45456" lon="-0.37343">
        <ele>77.520279</ele>
        <time>2022-12-27T16:29:52.456Z</time>
      </trkpt>
      <trkpt lat="44.45456" lon="-0.37329">
        <ele>77.56738</ele>
        <time>2022-12-27T16:29:55.453Z</time>
      </trkpt>
      <trkpt lat="44.45456" lon="-0.37312">
        <ele>77.619711</ele>
        <time>2022-12-27T16:29:58.457Z</time>
      </trkpt>
      <trkpt lat="44.45456" lon="-0.37295">
        <ele>77.674633</ele>
        <time>2022-12-27T16:30:01.457Z</time>
      </trkpt>
      <trkpt lat="44.45457" lon="-0.37277">
        <ele>77.733833</ele>
        <time>2022-12-27T16:30:04.461Z</time>
      </trkpt>
      <trkpt lat="44.45457" lon="-0.37264">
        <ele>77.775269</ele>
        <time>2022-12-27T16:30:06.457Z</time>
      </trkpt>
      <trkpt lat="44.45459" lon="-0.3725">
        <ele>77.82132</ele>
        <time>2022-12-27T16:30:08.455Z</time>
      </trkpt>
      <trkpt lat="44.4546" lon="-0.37237">
        <ele>77.86457</ele>
        <time>2022-12-27T16:30:10.459Z</time>
      </trkpt>
      <trkpt lat="44.45461" lon="-0.37223">
        <ele>77.909939</ele>
        <time>2022-12-27T16:30:12.459Z</time>
      </trkpt>
      <trkpt lat="44.45462" lon="-0.37209">
        <ele>77.956505</ele>
        <time>2022-12-27T16:30:14.446Z</time>
      </trkpt>
      <trkpt lat="44.45464" lon="-0.37195">
        <ele>78.000234</ele>
        <time>2022-12-27T16:30:16.450Z</time>
      </trkpt>
      <trkpt lat="44.45465" lon="-0.37183">
        <ele>78.041742</ele>
        <time>2022-12-27T16:30:18.453Z</time>
      </trkpt>
      <trkpt lat="44.45469" lon="-0.37165">
        <ele>78.099394</ele>
        <time>2022-12-27T16:30:21.460Z</time>
      </trkpt>
      <trkpt lat="44.45471" lon="-0.37149">
        <ele>78.155146</ele>
        <time>2022-12-27T16:30:24.454Z</time>
      </trkpt>
      <trkpt lat="44.45473" lon="-0.37133">
        <ele>78.205392</ele>
        <time>2022-12-27T16:30:27.437Z</time>
      </trkpt>
      <trkpt lat="44.45476" lon="-0.37119">
        <ele>78.252747</ele>
        <time>2022-12-27T16:30:30.449Z</time>
      </trkpt>
      <trkpt lat="44.45478" lon="-0.37105">
        <ele>78.299184</ele>
        <time>2022-12-27T16:30:33.456Z</time>
      </trkpt>
      <trkpt lat="44.45479" lon="-0.37091">
        <ele>78.320169</ele>
        <time>2022-12-27T16:30:36.455Z</time>
      </trkpt>
      <trkpt lat="44.45479" lon="-0.37075">
        <ele>78.259277</ele>
        <time>2022-12-27T16:30:40.453Z</time>
      </trkpt>
      <trkpt lat="44.45479" lon="-0.3706">
        <ele>78.20028</ele>
        <time>2022-12-27T16:30:44.458Z</time>
      </trkpt>
      <trkpt lat="44.4548" lon="-0.37044">
        <ele>78.139581</ele>
        <time>2022-12-27T16:30:48.449Z</time>
      </trkpt>
      <trkpt lat="44.4548" lon="-0.3703">
        <ele>78.086348</ele>
        <time>2022-12-27T16:30:51.453Z</time>
      </trkpt>
      <trkpt lat="44.4548" lon="-0.37015">
        <ele>78.027695</ele>
        <time>2022-12-27T16:30:54.458Z</time>
      </trkpt>
      <trkpt lat="44.45479" lon="-0.36998">
        <ele>77.964505</ele>
        <time>2022-12-27T16:30:57.438Z</time>
      </trkpt>
      <trkpt lat="44.4548" lon="-0.36981">
        <ele>77.898245</ele>
        <time>2022-12-27T16:31:00.458Z</time>
      </trkpt>
      <trkpt lat="44.45479" lon="-0.36964">
        <ele>77.832681</ele>
        <time>2022-12-27T16:31:03.440Z</time>
      </trkpt>
      <trkpt lat="44.45479" lon="-0.36946">
        <ele>77.764515</ele>
        <time>2022-12-27T16:31:06.458Z</time>
      </trkpt>
      <trkpt lat="44.45478" lon="-0.36927">
        <ele>77.692392</ele>
        <time>2022-12-27T16:31:09.461Z</time>
      </trkpt>
      <trkpt lat="44.45477" lon="-0.36914">
        <ele>77.640741</ele>
        <time>2022-12-27T16:31:11.459Z</time>
      </trkpt>
      <trkpt lat="44.45475" lon="-0.369">
        <ele>77.585601</ele>
        <time>2022-12-27T16:31:13.457Z</time>
      </trkpt>
      <trkpt lat="44.45473" lon="-0.36887">
        <ele>77.536299</ele>
        <time>2022-12-27T16:31:15.457Z</time>
      </trkpt>
      <trkpt lat="44.45471" lon="-0.36874">
        <ele>77.485025</ele>
        <time>2022-12-27T16:31:17.460Z</time>
      </trkpt>
      <trkpt lat="44.45469" lon="-0.36861">
        <ele>77.435918</ele>
        <time>2022-12-27T16:31:19.461Z</time>
      </trkpt>
      <trkpt lat="44.45467" lon="-0.36848">
        <ele>77.383867</ele>
        <time>2022-12-27T16:31:21.451Z</time>
      </trkpt>
      <trkpt lat="44.45464" lon="-0.3683">
        <ele>77.187126</ele>
        <time>2022-12-27T16:31:24.465Z</time>
      </trkpt>
      <trkpt lat="44.45461" lon="-0.36812">
        <ele>76.963435</ele>
        <time>2022-12-27T16:31:27.458Z</time>
      </trkpt>
      <trkpt lat="44.45459" lon="-0.36796">
        <ele>76.758436</ele>
        <time>2022-12-27T16:31:30.436Z</time>
      </trkpt>
      <trkpt lat="44.45456" lon="-0.36781">
        <ele>76.576035</ele>
        <time>2022-12-27T16:31:33.458Z</time>
      </trkpt>
      <trkpt lat="44.45453" lon="-0.36765">
        <ele>76.373176</ele>
        <time>2022-12-27T16:31:36.462Z</time>
      </trkpt>
      <trkpt lat="44.45449" lon="-0.36753">
        <ele>76.211908</ele>
        <time>2022-12-27T16:31:38.458Z</time>
      </trkpt>
      <trkpt lat="44.45446" lon="-0.36741">
        <ele>76.048632</ele>
        <time>2022-12-27T16:31:40.455Z</time>
      </trkpt>
      <trkpt lat="44.45442" lon="-0.36728">
        <ele>75.874514</ele>
        <time>2022-12-27T16:31:42.447Z</time>
      </trkpt>
      <trkpt lat="44.45439" lon="-0.36714">
        <ele>75.70581</ele>
        <time>2022-12-27T16:31:44.458Z</time>
      </trkpt>
      <trkpt lat="44.45435" lon="-0.36701">
        <ele>75.526389</ele>
        <time>2022-12-27T16:31:46.460Z</time>
      </trkpt>
      <trkpt lat="44.45432" lon="-0.36687">
        <ele>75.346937</ele>
        <time>2022-12-27T16:31:48.446Z</time>
      </trkpt>
      <trkpt lat="44.45428" lon="-0.36674">
        <ele>75.176167</ele>
        <time>2022-12-27T16:31:50.456Z</time>
      </trkpt>
      <trkpt lat="44.45425" lon="-0.36661">
        <ele>75.005846</ele>
        <time>2022-12-27T16:31:52.463Z</time>
      </trkpt>
      <trkpt lat="44.4542" lon="-0.36649">
        <ele>74.842442</ele>
        <time>2022-12-27T16:31:54.462Z</time>
      </trkpt>
      <trkpt lat="44.45417" lon="-0.36637">
        <ele>74.686544</ele>
        <time>2022-12-27T16:31:56.451Z</time>
      </trkpt>
      <trkpt lat="44.45413" lon="-0.36625">
        <ele>74.526596</ele>
        <time>2022-12-27T16:31:58.458Z</time>
      </trkpt>
      <trkpt lat="44.45408" lon="-0.36609">
        <ele>74.30381</ele>
        <time>2022-12-27T16:32:01.459Z</time>
      </trkpt>
      <trkpt lat="44.45404" lon="-0.36593">
        <ele>74.478615</ele>
        <time>2022-12-27T16:32:04.459Z</time>
      </trkpt>
      <trkpt lat="44.454" lon="-0.36578">
        <ele>74.700487</ele>
        <time>2022-12-27T16:32:07.459Z</time>
      </trkpt>
      <trkpt lat="44.45396" lon="-0.3656">
        <ele>74.944837</ele>
        <time>2022-12-27T16:32:10.434Z</time>
      </trkpt>
      <trkpt lat="44.45391" lon="-0.36544">
        <ele>75.175985</ele>
        <time>2022-12-27T16:32:13.460Z</time>
      </trkpt>
      <trkpt lat="44.45388" lon="-0.36527">
        <ele>75.410635</ele>
        <time>2022-12-27T16:32:16.458Z</time>
      </trkpt>
      <trkpt lat="44.45383" lon="-0.36513">
        <ele>75.62386</ele>
        <time>2022-12-27T16:32:19.438Z</time>
      </trkpt>
      <trkpt lat="44.45378" lon="-0.36497">
        <ele>75.854705</ele>
        <time>2022-12-27T16:32:22.460Z</time>
      </trkpt>
      <trkpt lat="44.45374" lon="-0.3648">
        <ele>76.106004</ele>
        <time>2022-12-27T16:32:25.456Z</time>
      </trkpt>
      <trkpt lat="44.45371" lon="-0.36467">
        <ele>76.284222</ele>
        <time>2022-12-27T16:32:27.437Z</time>
      </trkpt>
      <trkpt lat="44.45368" lon="-0.36454">
        <ele>76.460451</ele>
        <time>2022-12-27T16:32:29.458Z</time>
      </trkpt>
      <trkpt lat="44.45366" lon="-0.36442">
        <ele>76.629637</ele>
        <time>2022-12-27T16:32:31.461Z</time>
      </trkpt>
      <trkpt lat="44.45363" lon="-0.36424">
        <ele>76.877563</ele>
        <time>2022-12-27T16:32:34.458Z</time>
      </trkpt>
      <trkpt lat="44.4536" lon="-0.36406">
        <ele>77.123433</ele>
        <time>2022-12-27T16:32:37.457Z</time>
      </trkpt>
      <trkpt lat="44.45358" lon="-0.36389">
        <ele>77.352445</ele>
        <time>2022-12-27T16:32:40.455Z</time>
      </trkpt>
      <trkpt lat="44.45357" lon="-0.36374">
        <ele>77.562708</ele>
        <time>2022-12-27T16:32:43.460Z</time>
      </trkpt>
      <trkpt lat="44.45354" lon="-0.36358">
        <ele>77.795224</ele>
        <time>2022-12-27T16:32:46.457Z</time>
      </trkpt>
      <trkpt lat="44.45352" lon="-0.36341">
        <ele>78.038986</ele>
        <time>2022-12-27T16:32:49.458Z</time>
      </trkpt>
      <trkpt lat="44.45351" lon="-0.36324">
        <ele>78.289207</ele>
        <time>2022-12-27T16:32:52.458Z</time>
      </trkpt>
      <trkpt lat="44.4535" lon="-0.36307">
        <ele>78.52959</ele>
        <time>2022-12-27T16:32:55.458Z</time>
      </trkpt>
      <trkpt lat="44.45348" lon="-0.3629">
        <ele>78.779952</ele>
        <time>2022-12-27T16:32:58.465Z</time>
      </trkpt>
      <trkpt lat="44.45347" lon="-0.36274">
        <ele>79.017632</ele>
        <time>2022-12-27T16:33:01.436Z</time>
      </trkpt>
      <trkpt lat="44.45347" lon="-0.36258">
        <ele>79.244988</ele>
        <time>2022-12-27T16:33:04.464Z</time>
      </trkpt>
      <trkpt lat="44.45347" lon="-0.36244">
        <ele>79.444671</ele>
        <time>2022-12-27T16:33:07.459Z</time>
      </trkpt>
      <trkpt lat="44.45347" lon="-0.3623">
        <ele>79.65324</ele>
        <time>2022-12-27T16:33:10.455Z</time>
      </trkpt>
      <trkpt lat="44.45348" lon="-0.36213">
        <ele>79.893467</ele>
        <time>2022-12-27T16:33:13.454Z</time>
      </trkpt>
      <trkpt lat="44.45348" lon="-0.36196">
        <ele>80.13514</ele>
        <time>2022-12-27T16:33:16.439Z</time>
      </trkpt>
      <trkpt lat="44.45349" lon="-0.36182">
        <ele>80.34842</ele>
        <time>2022-12-27T16:33:19.444Z</time>
      </trkpt>
      <trkpt lat="44.45349" lon="-0.36166">
        <ele>80.580208</ele>
        <time>2022-12-27T16:33:22.457Z</time>
      </trkpt>
      <trkpt lat="44.4535" lon="-0.36148">
        <ele>80.833775</ele>
        <time>2022-12-27T16:33:25.451Z</time>
      </trkpt>
      <trkpt lat="44.45351" lon="-0.36131">
        <ele>81.087237</ele>
        <time>2022-12-27T16:33:28.460Z</time>
      </trkpt>
      <trkpt lat="44.45351" lon="-0.36114">
        <ele>81.312224</ele>
        <time>2022-12-27T16:33:31.453Z</time>
      </trkpt>
      <trkpt lat="44.45353" lon="-0.36099">
        <ele>81.398372</ele>
        <time>2022-12-27T16:33:34.450Z</time>
      </trkpt>
      <trkpt lat="44.45355" lon="-0.36083">
        <ele>81.481607</ele>
        <time>2022-12-27T16:33:37.459Z</time>
      </trkpt>
      <trkpt lat="44.45357" lon="-0.36068">
        <ele>81.563939</ele>
        <time>2022-12-27T16:33:40.462Z</time>
      </trkpt>
      <trkpt lat="44.45359" lon="-0.36053">
        <ele>81.64757</ele>
        <time>2022-12-27T16:33:43.437Z</time>
      </trkpt>
      <trkpt lat="44.45361" lon="-0.36039">
        <ele>81.724446</ele>
        <time>2022-12-27T16:33:46.461Z</time>
      </trkpt>
      <trkpt lat="44.45364" lon="-0.36023">
        <ele>81.81297</ele>
        <time>2022-12-27T16:33:50.438Z</time>
      </trkpt>
      <trkpt lat="44.45366" lon="-0.36009">
        <ele>81.885553</ele>
        <time>2022-12-27T16:33:53.461Z</time>
      </trkpt>
      <trkpt lat="44.45368" lon="-0.35995">
        <ele>81.964356</ele>
        <time>2022-12-27T16:33:56.457Z</time>
      </trkpt>
      <trkpt lat="44.45371" lon="-0.3598">
        <ele>82.045656</ele>
        <time>2022-12-27T16:33:59.433Z</time>
      </trkpt>
      <trkpt lat="44.45373" lon="-0.35965">
        <ele>82.128365</ele>
        <time>2022-12-27T16:34:02.460Z</time>
      </trkpt>
      <trkpt lat="44.45377" lon="-0.3595">
        <ele>82.21481</ele>
        <time>2022-12-27T16:34:05.441Z</time>
      </trkpt>
      <trkpt lat="44.4538" lon="-0.35934">
        <ele>82.303527</ele>
        <time>2022-12-27T16:34:08.435Z</time>
      </trkpt>
      <trkpt lat="44.45383" lon="-0.35918">
        <ele>82.393605</ele>
        <time>2022-12-27T16:34:11.462Z</time>
      </trkpt>
      <trkpt lat="44.45386" lon="-0.35901">
        <ele>82.483683</ele>
        <time>2022-12-27T16:34:14.461Z</time>
      </trkpt>
      <trkpt lat="44.45389" lon="-0.35885">
        <ele>82.576097</ele>
        <time>2022-12-27T16:34:17.440Z</time>
      </trkpt>
      <trkpt lat="44.45392" lon="-0.35868">
        <ele>82.685589</ele>
        <time>2022-12-27T16:34:20.457Z</time>
      </trkpt>
      <trkpt lat="44.45396" lon="-0.35851">
        <ele>82.874384</ele>
        <time>2022-12-27T16:34:23.446Z</time>
      </trkpt>
      <trkpt lat="44.45398" lon="-0.35835">
        <ele>83.062258</ele>
        <time>2022-12-27T16:34:26.436Z</time>
      </trkpt>
      <trkpt lat="44.45401" lon="-0.35817">
        <ele>83.255221</ele>
        <time>2022-12-27T16:34:29.458Z</time>
      </trkpt>
      <trkpt lat="44.45404" lon="-0.35801">
        <ele>83.444199</ele>
        <time>2022-12-27T16:34:32.457Z</time>
      </trkpt>
      <trkpt lat="44.45407" lon="-0.35784">
        <ele>83.635643</ele>
        <time>2022-12-27T16:34:35.449Z</time>
      </trkpt>
      <trkpt lat="44.4541" lon="-0.35767">
        <ele>83.829724</ele>
        <time>2022-12-27T16:34:38.457Z</time>
      </trkpt>
      <trkpt lat="44.45413" lon="-0.35749">
        <ele>84.027576</ele>
        <time>2022-12-27T16:34:41.458Z</time>
      </trkpt>
      <trkpt lat="44.45416" lon="-0.35732">
        <ele>84.225792</ele>
        <time>2022-12-27T16:34:44.446Z</time>
      </trkpt>
      <trkpt lat="44.45419" lon="-0.35714">
        <ele>84.428279</ele>
        <time>2022-12-27T16:34:47.458Z</time>
      </trkpt>
      <trkpt lat="44.45422" lon="-0.35697">
        <ele>84.620074</ele>
        <time>2022-12-27T16:34:50.461Z</time>
      </trkpt>
      <trkpt lat="44.45426" lon="-0.3568">
        <ele>84.809623</ele>
        <time>2022-12-27T16:34:53.437Z</time>
      </trkpt>
      <trkpt lat="44.45429" lon="-0.35664">
        <ele>84.997361</ele>
        <time>2022-12-27T16:34:56.453Z</time>
      </trkpt>
      <trkpt lat="44.45432" lon="-0.35649">
        <ele>85.169031</ele>
        <time>2022-12-27T16:34:59.445Z</time>
      </trkpt>
      <trkpt lat="44.45435" lon="-0.35633">
        <ele>85.353712</ele>
        <time>2022-12-27T16:35:02.455Z</time>
      </trkpt>
      <trkpt lat="44.45438" lon="-0.35616">
        <ele>85.577489</ele>
        <time>2022-12-27T16:35:05.460Z</time>
      </trkpt>
      <trkpt lat="44.45441" lon="-0.35601">
        <ele>85.805206</ele>
        <time>2022-12-27T16:35:08.462Z</time>
      </trkpt>
      <trkpt lat="44.45444" lon="-0.35585">
        <ele>86.044744</ele>
        <time>2022-12-27T16:35:11.458Z</time>
      </trkpt>
      <trkpt lat="44.45447" lon="-0.3557">
        <ele>86.271454</ele>
        <time>2022-12-27T16:35:14.438Z</time>
      </trkpt>
      <trkpt lat="44.45449" lon="-0.35556">
        <ele>86.483519</ele>
        <time>2022-12-27T16:35:17.457Z</time>
      </trkpt>
      <trkpt lat="44.45453" lon="-0.35541">
        <ele>86.711214</ele>
        <time>2022-12-27T16:35:21.458Z</time>
      </trkpt>
      <trkpt lat="44.45456" lon="-0.35526">
        <ele>86.939035</ele>
        <time>2022-12-27T16:35:25.449Z</time>
      </trkpt>
      <trkpt lat="44.45459" lon="-0.35514">
        <ele>87.133135</ele>
        <time>2022-12-27T16:35:28.458Z</time>
      </trkpt>
      <trkpt lat="44.45463" lon="-0.35502">
        <ele>87.323798</ele>
        <time>2022-12-27T16:35:31.457Z</time>
      </trkpt>
      <trkpt lat="44.45465" lon="-0.35486">
        <ele>87.550508</ele>
        <time>2022-12-27T16:35:34.460Z</time>
      </trkpt>
      <trkpt lat="44.45468" lon="-0.3547">
        <ele>87.79326</ele>
        <time>2022-12-27T16:35:37.459Z</time>
      </trkpt>
      <trkpt lat="44.45471" lon="-0.35454">
        <ele>88.032705</ele>
        <time>2022-12-27T16:35:40.460Z</time>
      </trkpt>
      <trkpt lat="44.45474" lon="-0.35438">
        <ele>88.283505</ele>
        <time>2022-12-27T16:35:43.457Z</time>
      </trkpt>
      <trkpt lat="44.45476" lon="-0.35422">
        <ele>88.509727</ele>
        <time>2022-12-27T16:35:46.456Z</time>
      </trkpt>
      <trkpt lat="44.45478" lon="-0.35407">
        <ele>88.74379</ele>
        <time>2022-12-27T16:35:49.459Z</time>
      </trkpt>
      <trkpt lat="44.45481" lon="-0.35391">
        <ele>88.985618</ele>
        <time>2022-12-27T16:35:52.460Z</time>
      </trkpt>
      <trkpt lat="44.45484" lon="-0.35376">
        <ele>89.154609</ele>
        <time>2022-12-27T16:35:55.456Z</time>
      </trkpt>
      <trkpt lat="44.45486" lon="-0.35361">
        <ele>89.292192</ele>
        <time>2022-12-27T16:35:58.437Z</time>
      </trkpt>
      <trkpt lat="44.45488" lon="-0.35345">
        <ele>89.427163</ele>
        <time>2022-12-27T16:36:01.460Z</time>
      </trkpt>
      <trkpt lat="44.45489" lon="-0.35329">
        <ele>89.566293</ele>
        <time>2022-12-27T16:36:04.460Z</time>
      </trkpt>
      <trkpt lat="44.45491" lon="-0.35316">
        <ele>89.679797</ele>
        <time>2022-12-27T16:36:07.455Z</time>
      </trkpt>
      <trkpt lat="44.45491" lon="-0.35301">
        <ele>89.810907</ele>
        <time>2022-12-27T16:36:11.463Z</time>
      </trkpt>
      <trkpt lat="44.45492" lon="-0.35286">
        <ele>89.937986</ele>
        <time>2022-12-27T16:36:16.455Z</time>
      </trkpt>
      <trkpt lat="44.45497" lon="-0.35259">
        <ele>90.171681</ele>
        <time>2022-12-27T16:37:48.437Z</time>
      </trkpt>
      <trkpt lat="44.45497" lon="-0.35247">
        <ele>90.281527</ele>
        <time>2022-12-27T16:37:52.434Z</time>
      </trkpt>
      <trkpt lat="44.45498" lon="-0.35231">
        <ele>90.415466</ele>
        <time>2022-12-27T16:37:56.437Z</time>
      </trkpt>
      <trkpt lat="44.45499" lon="-0.35215">
        <ele>90.551796</ele>
        <time>2022-12-27T16:38:00.459Z</time>
      </trkpt>
      <trkpt lat="44.45498" lon="-0.35198">
        <ele>90.698448</ele>
        <time>2022-12-27T16:38:04.461Z</time>
      </trkpt>
      <trkpt lat="44.45498" lon="-0.35183">
        <ele>90.825359</ele>
        <time>2022-12-27T16:38:07.459Z</time>
      </trkpt>
      <trkpt lat="44.45497" lon="-0.35169">
        <ele>90.949223</ele>
        <time>2022-12-27T16:38:10.457Z</time>
      </trkpt>
      <trkpt lat="44.45496" lon="-0.35155">
        <ele>91.06882</ele>
        <time>2022-12-27T16:38:13.457Z</time>
      </trkpt>
      <trkpt lat="44.45493" lon="-0.35137">
        <ele>91.22259</ele>
        <time>2022-12-27T16:38:16.460Z</time>
      </trkpt>
      <trkpt lat="44.45491" lon="-0.35121">
        <ele>91.350089</ele>
        <time>2022-12-27T16:38:19.462Z</time>
      </trkpt>
      <trkpt lat="44.4549" lon="-0.35106">
        <ele>91.455859</ele>
        <time>2022-12-27T16:38:22.459Z</time>
      </trkpt>
      <trkpt lat="44.45487" lon="-0.35089">
        <ele>91.578183</ele>
        <time>2022-12-27T16:38:25.439Z</time>
      </trkpt>
      <trkpt lat="44.45485" lon="-0.35074">
        <ele>91.688188</ele>
        <time>2022-12-27T16:38:28.459Z</time>
      </trkpt>
      <trkpt lat="44.45481" lon="-0.3506">
        <ele>91.796215</ele>
        <time>2022-12-27T16:38:31.460Z</time>
      </trkpt>
      <trkpt lat="44.45479" lon="-0.35046">
        <ele>91.898196</ele>
        <time>2022-12-27T16:38:34.463Z</time>
      </trkpt>
      <trkpt lat="44.45476" lon="-0.35032">
        <ele>92.006057</ele>
        <time>2022-12-27T16:38:37.460Z</time>
      </trkpt>
      <trkpt lat="44.45474" lon="-0.35015">
        <ele>92.128234</ele>
        <time>2022-12-27T16:38:40.461Z</time>
      </trkpt>
      <trkpt lat="44.45469" lon="-0.34999">
        <ele>92.251719</ele>
        <time>2022-12-27T16:38:43.461Z</time>
      </trkpt>
      <trkpt lat="44.45466" lon="-0.34984">
        <ele>92.366431</ele>
        <time>2022-12-27T16:38:46.454Z</time>
      </trkpt>
      <trkpt lat="44.45461" lon="-0.34969">
        <ele>92.477577</ele>
        <time>2022-12-27T16:38:49.459Z</time>
      </trkpt>
      <trkpt lat="44.45457" lon="-0.34955">
        <ele>92.592298</ele>
        <time>2022-12-27T16:38:52.457Z</time>
      </trkpt>
      <trkpt lat="44.45453" lon="-0.34943">
        <ele>92.687394</ele>
        <time>2022-12-27T16:38:55.452Z</time>
      </trkpt>
      <trkpt lat="44.45448" lon="-0.3493">
        <ele>92.787959</ele>
        <time>2022-12-27T16:38:58.463Z</time>
      </trkpt>
      <trkpt lat="44.45442" lon="-0.34915">
        <ele>92.908748</ele>
        <time>2022-12-27T16:39:01.452Z</time>
      </trkpt>
      <trkpt lat="44.45437" lon="-0.34902">
        <ele>93.017345</ele>
        <time>2022-12-27T16:39:04.462Z</time>
      </trkpt>
      <trkpt lat="44.45431" lon="-0.3489">
        <ele>93.117524</ele>
        <time>2022-12-27T16:39:07.456Z</time>
      </trkpt>
      <trkpt lat="44.45426" lon="-0.34879">
        <ele>93.205135</ele>
        <time>2022-12-27T16:39:10.460Z</time>
      </trkpt>
      <trkpt lat="44.45421" lon="-0.34868">
        <ele>93.296063</ele>
        <time>2022-12-27T16:39:14.459Z</time>
      </trkpt>
      <trkpt lat="44.45416" lon="-0.34857">
        <ele>93.386081</ele>
        <time>2022-12-27T16:39:18.458Z</time>
      </trkpt>
      <trkpt lat="44.4541" lon="-0.34843">
        <ele>93.500155</ele>
        <time>2022-12-27T16:39:22.460Z</time>
      </trkpt>
      <trkpt lat="44.45404" lon="-0.34833">
        <ele>93.586737</ele>
        <time>2022-12-27T16:39:25.458Z</time>
      </trkpt>
      <trkpt lat="44.45397" lon="-0.34821">
        <ele>93.696056</ele>
        <time>2022-12-27T16:39:28.459Z</time>
      </trkpt>
      <trkpt lat="44.4539" lon="-0.34809">
        <ele>93.795733</ele>
        <time>2022-12-27T16:39:31.451Z</time>
      </trkpt>
      <trkpt lat="44.45383" lon="-0.34797">
        <ele>93.90462</ele>
        <time>2022-12-27T16:39:34.463Z</time>
      </trkpt>
      <trkpt lat="44.45376" lon="-0.34784">
        <ele>94.012283</ele>
        <time>2022-12-27T16:39:37.452Z</time>
      </trkpt>
      <trkpt lat="44.45369" lon="-0.34773">
        <ele>94.110339</ele>
        <time>2022-12-27T16:39:40.460Z</time>
      </trkpt>
      <trkpt lat="44.45363" lon="-0.34762">
        <ele>94.207815</ele>
        <time>2022-12-27T16:39:43.460Z</time>
      </trkpt>
      <trkpt lat="44.45356" lon="-0.34749">
        <ele>94.315478</ele>
        <time>2022-12-27T16:39:46.461Z</time>
      </trkpt>
      <trkpt lat="44.45349" lon="-0.34737">
        <ele>94.423999</ele>
        <time>2022-12-27T16:39:49.461Z</time>
      </trkpt>
      <trkpt lat="44.45342" lon="-0.34725">
        <ele>94.527927</ele>
        <time>2022-12-27T16:39:52.459Z</time>
      </trkpt>
      <trkpt lat="44.45335" lon="-0.34712">
        <ele>94.639203</ele>
        <time>2022-12-27T16:39:55.457Z</time>
      </trkpt>
      <trkpt lat="44.45328" lon="-0.34699">
        <ele>94.752236</ele>
        <time>2022-12-27T16:39:58.451Z</time>
      </trkpt>
      <trkpt lat="44.45321" lon="-0.34685">
        <ele>94.95479</ele>
        <time>2022-12-27T16:40:01.458Z</time>
      </trkpt>
      <trkpt lat="44.45313" lon="-0.34673">
        <ele>95.1693</ele>
        <time>2022-12-27T16:40:04.455Z</time>
      </trkpt>
      <trkpt lat="44.45306" lon="-0.3466">
        <ele>95.392303</ele>
        <time>2022-12-27T16:40:07.459Z</time>
      </trkpt>
      <trkpt lat="44.45299" lon="-0.34646">
        <ele>95.609989</ele>
        <time>2022-12-27T16:40:10.455Z</time>
      </trkpt>
      <trkpt lat="44.45293" lon="-0.34633">
        <ele>95.826477</ele>
        <time>2022-12-27T16:40:13.461Z</time>
      </trkpt>
      <trkpt lat="44.45286" lon="-0.34618">
        <ele>96.056984</ele>
        <time>2022-12-27T16:40:16.458Z</time>
      </trkpt>
      <trkpt lat="44.45279" lon="-0.34604">
        <ele>96.272905</ele>
        <time>2022-12-27T16:40:19.455Z</time>
      </trkpt>
      <trkpt lat="44.45274" lon="-0.34592">
        <ele>96.472316</ele>
        <time>2022-12-27T16:40:22.462Z</time>
      </trkpt>
      <trkpt lat="44.45269" lon="-0.34579">
        <ele>96.664243</ele>
        <time>2022-12-27T16:40:25.457Z</time>
      </trkpt>
      <trkpt lat="44.45263" lon="-0.34566">
        <ele>96.858227</ele>
        <time>2022-12-27T16:40:28.466Z</time>
      </trkpt>
      <trkpt lat="44.45259" lon="-0.34553">
        <ele>97.051065</ele>
        <time>2022-12-27T16:40:31.458Z</time>
      </trkpt>
      <trkpt lat="44.45255" lon="-0.3454">
        <ele>97.240641</ele>
        <time>2022-12-27T16:40:34.440Z</time>
      </trkpt>
      <trkpt lat="44.45251" lon="-0.34527">
        <ele>97.419559</ele>
        <time>2022-12-27T16:40:37.461Z</time>
      </trkpt>
      <trkpt lat="44.45248" lon="-0.34514">
        <ele>97.612115</ele>
        <time>2022-12-27T16:40:40.460Z</time>
      </trkpt>
      <trkpt lat="44.45244" lon="-0.34499">
        <ele>97.814669</ele>
        <time>2022-12-27T16:40:43.458Z</time>
      </trkpt>
      <trkpt lat="44.4524" lon="-0.34484">
        <ele>98.026122</ele>
        <time>2022-12-27T16:40:46.458Z</time>
      </trkpt>
      <trkpt lat="44.45238" lon="-0.34469">
        <ele>98.256669</ele>
        <time>2022-12-27T16:40:49.469Z</time>
      </trkpt>
      <trkpt lat="44.45234" lon="-0.34454">
        <ele>98.484898</ele>
        <time>2022-12-27T16:40:52.458Z</time>
      </trkpt>
      <trkpt lat="44.4523" lon="-0.3444">
        <ele>98.718851</ele>
        <time>2022-12-27T16:40:56.462Z</time>
      </trkpt>
      <trkpt lat="44.45228" lon="-0.34427">
        <ele>98.91236</ele>
        <time>2022-12-27T16:40:59.441Z</time>
      </trkpt>
      <trkpt lat="44.45227" lon="-0.34413">
        <ele>99.130177</ele>
        <time>2022-12-27T16:41:02.447Z</time>
      </trkpt>
      <trkpt lat="44.45225" lon="-0.34397">
        <ele>99.369811</ele>
        <time>2022-12-27T16:41:05.459Z</time>
      </trkpt>
      <trkpt lat="44.45224" lon="-0.34382">
        <ele>99.602324</ele>
        <time>2022-12-27T16:41:08.456Z</time>
      </trkpt>
      <trkpt lat="44.45223" lon="-0.34368">
        <ele>99.824972</ele>
        <time>2022-12-27T16:41:11.444Z</time>
      </trkpt>
      <trkpt lat="44.45222" lon="-0.34351">
        <ele>100.071684</ele>
        <time>2022-12-27T16:41:14.462Z</time>
      </trkpt>
      <trkpt lat="44.45221" lon="-0.34335">
        <ele>100.315562</ele>
        <time>2022-12-27T16:41:17.445Z</time>
      </trkpt>
      <trkpt lat="44.45219" lon="-0.34319">
        <ele>100.557591</ele>
        <time>2022-12-27T16:41:20.460Z</time>
      </trkpt>
      <trkpt lat="44.45218" lon="-0.34305">
        <ele>100.770408</ele>
        <time>2022-12-27T16:41:23.454Z</time>
      </trkpt>
      <trkpt lat="44.45216" lon="-0.34289">
        <ele>101.016666</ele>
        <time>2022-12-27T16:41:26.460Z</time>
      </trkpt>
      <trkpt lat="44.45214" lon="-0.34273">
        <ele>101.262924</ele>
        <time>2022-12-27T16:41:29.460Z</time>
      </trkpt>
      <trkpt lat="44.45212" lon="-0.34258">
        <ele>101.495442</ele>
        <time>2022-12-27T16:41:32.448Z</time>
      </trkpt>
      <trkpt lat="44.45212" lon="-0.34244">
        <ele>101.704379</ele>
        <time>2022-12-27T16:41:35.456Z</time>
      </trkpt>
      <trkpt lat="44.45211" lon="-0.3423">
        <ele>101.912006</ele>
        <time>2022-12-27T16:41:38.461Z</time>
      </trkpt>
      <trkpt lat="44.45211" lon="-0.34218">
        <ele>102.151458</ele>
        <time>2022-12-27T16:41:41.459Z</time>
      </trkpt>
      <trkpt lat="44.45208" lon="-0.34202">
        <ele>102.448809</ele>
        <time>2022-12-27T16:41:44.460Z</time>
      </trkpt>
      <trkpt lat="44.45207" lon="-0.34186">
        <ele>102.751167</ele>
        <time>2022-12-27T16:41:48.459Z</time>
      </trkpt>
      <trkpt lat="44.45207" lon="-0.3417">
        <ele>103.051751</ele>
        <time>2022-12-27T16:41:52.461Z</time>
      </trkpt>
      <trkpt lat="44.45205" lon="-0.34155">
        <ele>103.323403</ele>
        <time>2022-12-27T16:41:55.458Z</time>
      </trkpt>
      <trkpt lat="44.45204" lon="-0.34141">
        <ele>103.589142</ele>
        <time>2022-12-27T16:41:58.457Z</time>
      </trkpt>
      <trkpt lat="44.45204" lon="-0.34128">
        <ele>103.843013</ele>
        <time>2022-12-27T16:42:01.460Z</time>
      </trkpt>
      <trkpt lat="44.45203" lon="-0.34115">
        <ele>104.087089</ele>
        <time>2022-12-27T16:42:04.462Z</time>
      </trkpt>
      <trkpt lat="44.45201" lon="-0.341">
        <ele>104.371115</ele>
        <time>2022-12-27T16:42:07.461Z</time>
      </trkpt>
      <trkpt lat="44.452" lon="-0.34084">
        <ele>104.669311</ele>
        <time>2022-12-27T16:42:10.452Z</time>
      </trkpt>
      <trkpt lat="44.45198" lon="-0.34071">
        <ele>104.91805</ele>
        <time>2022-12-27T16:42:13.459Z</time>
      </trkpt>
      <trkpt lat="44.45197" lon="-0.34055">
        <ele>105.219724</ele>
        <time>2022-12-27T16:42:16.462Z</time>
      </trkpt>
      <trkpt lat="44.45197" lon="-0.34041">
        <ele>105.475943</ele>
        <time>2022-12-27T16:42:19.461Z</time>
      </trkpt>
      <trkpt lat="44.45194" lon="-0.34025">
        <ele>105.773296</ele>
        <time>2022-12-27T16:42:22.459Z</time>
      </trkpt>
      <trkpt lat="44.45193" lon="-0.3401">
        <ele>106.062203</ele>
        <time>2022-12-27T16:42:25.438Z</time>
      </trkpt>
      <trkpt lat="44.45192" lon="-0.33994">
        <ele>106.357889</ele>
        <time>2022-12-27T16:42:28.460Z</time>
      </trkpt>
      <trkpt lat="44.45191" lon="-0.33982">
        <ele>106.595191</ele>
        <time>2022-12-27T16:42:31.464Z</time>
      </trkpt>
      <trkpt lat="44.45191" lon="-0.33965">
        <ele>106.649317</ele>
        <time>2022-12-27T16:42:35.458Z</time>
      </trkpt>
      <trkpt lat="44.4519" lon="-0.3395">
        <ele>106.683924</ele>
        <time>2022-12-27T16:42:38.460Z</time>
      </trkpt>
      <trkpt lat="44.45189" lon="-0.33933">
        <ele>106.724973</ele>
        <time>2022-12-27T16:42:42.451Z</time>
      </trkpt>
      <trkpt lat="44.45189" lon="-0.33918">
        <ele>106.760408</ele>
        <time>2022-12-27T16:42:45.456Z</time>
      </trkpt>
      <trkpt lat="44.45188" lon="-0.33903">
        <ele>106.79422</ele>
        <time>2022-12-27T16:42:48.438Z</time>
      </trkpt>
      <trkpt lat="44.45187" lon="-0.3389">
        <ele>106.825477</ele>
        <time>2022-12-27T16:42:51.459Z</time>
      </trkpt>
      <trkpt lat="44.45186" lon="-0.33876">
        <ele>106.858289</ele>
        <time>2022-12-27T16:42:54.457Z</time>
      </trkpt>
      <trkpt lat="44.45184" lon="-0.33862">
        <ele>106.892113</ele>
        <time>2022-12-27T16:42:57.459Z</time>
      </trkpt>
      <trkpt lat="44.45181" lon="-0.33847">
        <ele>106.928882</ele>
        <time>2022-12-27T16:43:00.451Z</time>
      </trkpt>
      <trkpt lat="44.45179" lon="-0.33831">
        <ele>106.96726</ele>
        <time>2022-12-27T16:43:03.459Z</time>
      </trkpt>
      <trkpt lat="44.45176" lon="-0.33816">
        <ele>107.005252</ele>
        <time>2022-12-27T16:43:06.453Z</time>
      </trkpt>
      <trkpt lat="44.45173" lon="-0.33799">
        <ele>107.044696</ele>
        <time>2022-12-27T16:43:09.461Z</time>
      </trkpt>
      <trkpt lat="44.45171" lon="-0.33784">
        <ele>107.082615</ele>
        <time>2022-12-27T16:43:12.459Z</time>
      </trkpt>
      <trkpt lat="44.45168" lon="-0.33769">
        <ele>107.117941</ele>
        <time>2022-12-27T16:43:15.459Z</time>
      </trkpt>
      <trkpt lat="44.45164" lon="-0.33753">
        <ele>107.157971</ele>
        <time>2022-12-27T16:43:18.460Z</time>
      </trkpt>
      <trkpt lat="44.45161" lon="-0.33738">
        <ele>107.194649</ele>
        <time>2022-12-27T16:43:21.461Z</time>
      </trkpt>
      <trkpt lat="44.45158" lon="-0.33723">
        <ele>107.290808</ele>
        <time>2022-12-27T16:43:24.462Z</time>
      </trkpt>
      <trkpt lat="44.45154" lon="-0.33708">
        <ele>107.409837</ele>
        <time>2022-12-27T16:43:27.462Z</time>
      </trkpt>
      <trkpt lat="44.45151" lon="-0.33692">
        <ele>107.535678</ele>
        <time>2022-12-27T16:43:30.464Z</time>
      </trkpt>
      <trkpt lat="44.45147" lon="-0.33677">
        <ele>107.655511</ele>
        <time>2022-12-27T16:43:33.462Z</time>
      </trkpt>
      <trkpt lat="44.45144" lon="-0.33663">
        <ele>107.774301</ele>
        <time>2022-12-27T16:43:36.461Z</time>
      </trkpt>
      <trkpt lat="44.45141" lon="-0.33649">
        <ele>107.885756</ele>
        <time>2022-12-27T16:43:39.460Z</time>
      </trkpt>
      <trkpt lat="44.45137" lon="-0.33634">
        <ele>108.003681</ele>
        <time>2022-12-27T16:43:42.461Z</time>
      </trkpt>
      <trkpt lat="44.45133" lon="-0.33619">
        <ele>108.125982</ele>
        <time>2022-12-27T16:43:45.447Z</time>
      </trkpt>
      <trkpt lat="44.45129" lon="-0.33606">
        <ele>108.239813</ele>
        <time>2022-12-27T16:43:48.464Z</time>
      </trkpt>
      <trkpt lat="44.45124" lon="-0.33591">
        <ele>108.362825</ele>
        <time>2022-12-27T16:43:51.461Z</time>
      </trkpt>
      <trkpt lat="44.4512" lon="-0.33577">
        <ele>108.480938</ele>
        <time>2022-12-27T16:43:54.461Z</time>
      </trkpt>
      <trkpt lat="44.45115" lon="-0.33563">
        <ele>108.598854</ele>
        <time>2022-12-27T16:43:57.456Z</time>
      </trkpt>
      <trkpt lat="44.45111" lon="-0.33549">
        <ele>108.714089</ele>
        <time>2022-12-27T16:44:00.463Z</time>
      </trkpt>
      <trkpt lat="44.45107" lon="-0.33537">
        <ele>108.812484</ele>
        <time>2022-12-27T16:44:03.461Z</time>
      </trkpt>
      <trkpt lat="44.45102" lon="-0.33522">
        <ele>108.937169</ele>
        <time>2022-12-27T16:44:07.460Z</time>
      </trkpt>
      <trkpt lat="44.45097" lon="-0.3351">
        <ele>109.04486</ele>
        <time>2022-12-27T16:44:10.464Z</time>
      </trkpt>
      <trkpt lat="44.45092" lon="-0.33496">
        <ele>109.220127</ele>
        <time>2022-12-27T16:44:13.462Z</time>
      </trkpt>
      <trkpt lat="44.45086" lon="-0.33482">
        <ele>109.529685</ele>
        <time>2022-12-27T16:44:16.462Z</time>
      </trkpt>
      <trkpt lat="44.4508" lon="-0.33468">
        <ele>109.836793</ele>
        <time>2022-12-27T16:44:19.463Z</time>
      </trkpt>
      <trkpt lat="44.45074" lon="-0.33453">
        <ele>110.172967</ele>
        <time>2022-12-27T16:44:22.463Z</time>
      </trkpt>
      <trkpt lat="44.45068" lon="-0.3344">
        <ele>110.46525</ele>
        <time>2022-12-27T16:44:25.457Z</time>
      </trkpt>
      <trkpt lat="44.45062" lon="-0.33428">
        <ele>110.749265</ele>
        <time>2022-12-27T16:44:28.458Z</time>
      </trkpt>
      <trkpt lat="44.45057" lon="-0.33416">
        <ele>111.020438</ele>
        <time>2022-12-27T16:44:31.460Z</time>
      </trkpt>
      <trkpt lat="44.45052" lon="-0.33404">
        <ele>111.283073</ele>
        <time>2022-12-27T16:44:34.460Z</time>
      </trkpt>
      <trkpt lat="44.45047" lon="-0.33393">
        <ele>111.527902</ele>
        <time>2022-12-27T16:44:37.438Z</time>
      </trkpt>
      <trkpt lat="44.45041" lon="-0.33381">
        <ele>111.808633</ele>
        <time>2022-12-27T16:44:40.459Z</time>
      </trkpt>
      <trkpt lat="44.45035" lon="-0.3337">
        <ele>112.083073</ele>
        <time>2022-12-27T16:44:43.460Z</time>
      </trkpt>
      <trkpt lat="44.4503" lon="-0.33359">
        <ele>112.328235</ele>
        <time>2022-12-27T16:44:46.458Z</time>
      </trkpt>
      <trkpt lat="44.45024" lon="-0.33345">
        <ele>112.637386</ele>
        <time>2022-12-27T16:44:49.465Z</time>
      </trkpt>
      <trkpt lat="44.45017" lon="-0.33331">
        <ele>112.97425</ele>
        <time>2022-12-27T16:44:52.459Z</time>
      </trkpt>
      <trkpt lat="44.45011" lon="-0.33318">
        <ele>113.25966</ele>
        <time>2022-12-27T16:44:55.459Z</time>
      </trkpt>
      <trkpt lat="44.45006" lon="-0.33305">
        <ele>113.542566</ele>
        <time>2022-12-27T16:44:58.461Z</time>
      </trkpt>
      <trkpt lat="44.45" lon="-0.33291">
        <ele>113.869976</ele>
        <time>2022-12-27T16:45:01.463Z</time>
      </trkpt>
      <trkpt lat="44.44994" lon="-0.33276">
        <ele>113.81792</ele>
        <time>2022-12-27T16:45:04.461Z</time>
      </trkpt>
      <trkpt lat="44.44988" lon="-0.33262">
        <ele>113.636411</ele>
        <time>2022-12-27T16:45:07.461Z</time>
      </trkpt>
      <trkpt lat="44.44981" lon="-0.33248">
        <ele>113.454311</ele>
        <time>2022-12-27T16:45:10.445Z</time>
      </trkpt>
      <trkpt lat="44.44975" lon="-0.33235">
        <ele>113.275019</ele>
        <time>2022-12-27T16:45:13.461Z</time>
      </trkpt>
      <trkpt lat="44.44968" lon="-0.3322">
        <ele>113.073038</ele>
        <time>2022-12-27T16:45:16.462Z</time>
      </trkpt>
      <trkpt lat="44.44961" lon="-0.33206">
        <ele>112.879287</ele>
        <time>2022-12-27T16:45:19.460Z</time>
      </trkpt>
      <trkpt lat="44.44953" lon="-0.3319">
        <ele>112.668289</ele>
        <time>2022-12-27T16:45:22.462Z</time>
      </trkpt>
      <trkpt lat="44.44948" lon="-0.33179">
        <ele>112.517205</ele>
        <time>2022-12-27T16:45:24.461Z</time>
      </trkpt>
      <trkpt lat="44.44941" lon="-0.33164">
        <ele>112.322317</ele>
        <time>2022-12-27T16:45:27.459Z</time>
      </trkpt>
      <trkpt lat="44.44934" lon="-0.33151">
        <ele>112.134963</ele>
        <time>2022-12-27T16:45:30.462Z</time>
      </trkpt>
      <trkpt lat="44.44928" lon="-0.33138">
        <ele>111.962711</ele>
        <time>2022-12-27T16:45:33.458Z</time>
      </trkpt>
      <trkpt lat="44.44921" lon="-0.33122">
        <ele>111.758927</ele>
        <time>2022-12-27T16:45:36.459Z</time>
      </trkpt>
      <trkpt lat="44.44915" lon="-0.33107">
        <ele>111.562335</ele>
        <time>2022-12-27T16:45:39.443Z</time>
      </trkpt>
      <trkpt lat="44.44908" lon="-0.33092">
        <ele>111.357267</ele>
        <time>2022-12-27T16:45:42.459Z</time>
      </trkpt>
      <trkpt lat="44.449" lon="-0.33076">
        <ele>111.151678</ele>
        <time>2022-12-27T16:45:45.459Z</time>
      </trkpt>
      <trkpt lat="44.44894" lon="-0.33062">
        <ele>111.404327</ele>
        <time>2022-12-27T16:45:48.461Z</time>
      </trkpt>
      <trkpt lat="44.44887" lon="-0.33048">
        <ele>111.676853</ele>
        <time>2022-12-27T16:45:51.460Z</time>
      </trkpt>
      <trkpt lat="44.44881" lon="-0.33035">
        <ele>111.930364</ele>
        <time>2022-12-27T16:45:54.463Z</time>
      </trkpt>
      <trkpt lat="44.44875" lon="-0.33023">
        <ele>112.174512</ele>
        <time>2022-12-27T16:45:57.461Z</time>
      </trkpt>
      <trkpt lat="44.44869" lon="-0.3301">
        <ele>112.434657</ele>
        <time>2022-12-27T16:46:00.451Z</time>
      </trkpt>
      <trkpt lat="44.44863" lon="-0.32995">
        <ele>112.707185</ele>
        <time>2022-12-27T16:46:03.462Z</time>
      </trkpt>
      <trkpt lat="44.44856" lon="-0.32983">
        <ele>112.957879</ele>
        <time>2022-12-27T16:46:06.458Z</time>
      </trkpt>
      <trkpt lat="44.44851" lon="-0.32972">
        <ele>113.183249</ele>
        <time>2022-12-27T16:46:09.453Z</time>
      </trkpt>
      <trkpt lat="44.44844" lon="-0.3296">
        <ele>113.431282</ele>
        <time>2022-12-27T16:46:12.434Z</time>
      </trkpt>
      <trkpt lat="44.44837" lon="-0.32946">
        <ele>113.718138</ele>
        <time>2022-12-27T16:46:15.462Z</time>
      </trkpt>
      <trkpt lat="44.44832" lon="-0.32934">
        <ele>113.939785</ele>
        <time>2022-12-27T16:46:17.440Z</time>
      </trkpt>
      <trkpt lat="44.44827" lon="-0.32923">
        <ele>114.154823</ele>
        <time>2022-12-27T16:46:19.462Z</time>
      </trkpt>
      <trkpt lat="44.44821" lon="-0.32911">
        <ele>114.384464</ele>
        <time>2022-12-27T16:46:21.462Z</time>
      </trkpt>
      <trkpt lat="44.44816" lon="-0.32901">
        <ele>114.595254</ele>
        <time>2022-12-27T16:46:23.455Z</time>
      </trkpt>
      <trkpt lat="44.44809" lon="-0.32885">
        <ele>114.902123</ele>
        <time>2022-12-27T16:46:26.461Z</time>
      </trkpt>
      <trkpt lat="44.44803" lon="-0.32874">
        <ele>115.134233</ele>
        <time>2022-12-27T16:46:28.457Z</time>
      </trkpt>
      <trkpt lat="44.44798" lon="-0.32863">
        <ele>115.374537</ele>
        <time>2022-12-27T16:46:30.463Z</time>
      </trkpt>
      <trkpt lat="44.44793" lon="-0.32852">
        <ele>115.671778</ele>
        <time>2022-12-27T16:46:32.464Z</time>
      </trkpt>
      <trkpt lat="44.44786" lon="-0.32837">
        <ele>116.087909</ele>
        <time>2022-12-27T16:46:35.460Z</time>
      </trkpt>
      <trkpt lat="44.4478" lon="-0.32823">
        <ele>116.464642</ele>
        <time>2022-12-27T16:46:38.440Z</time>
      </trkpt>
      <trkpt lat="44.44774" lon="-0.3281">
        <ele>116.830474</ele>
        <time>2022-12-27T16:46:41.460Z</time>
      </trkpt>
      <trkpt lat="44.44768" lon="-0.32798">
        <ele>117.145556</ele>
        <time>2022-12-27T16:46:44.462Z</time>
      </trkpt>
      <trkpt lat="44.44764" lon="-0.32787">
        <ele>117.453654</ele>
        <time>2022-12-27T16:46:47.459Z</time>
      </trkpt>
      <trkpt lat="44.44759" lon="-0.32775">
        <ele>117.776318</ele>
        <time>2022-12-27T16:46:50.460Z</time>
      </trkpt>
      <trkpt lat="44.44753" lon="-0.32763">
        <ele>118.094438</ele>
        <time>2022-12-27T16:46:53.461Z</time>
      </trkpt>
      <trkpt lat="44.44747" lon="-0.3275">
        <ele>118.468141</ele>
        <time>2022-12-27T16:46:56.462Z</time>
      </trkpt>
      <trkpt lat="44.44741" lon="-0.32735">
        <ele>118.854816</ele>
        <time>2022-12-27T16:46:59.459Z</time>
      </trkpt>
      <trkpt lat="44.44734" lon="-0.32721">
        <ele>119.244773</ele>
        <time>2022-12-27T16:47:02.462Z</time>
      </trkpt>
      <trkpt lat="44.44727" lon="-0.32707">
        <ele>119.638195</ele>
        <time>2022-12-27T16:47:05.461Z</time>
      </trkpt>
      <trkpt lat="44.4472" lon="-0.32693">
        <ele>120.039141</ele>
        <time>2022-12-27T16:47:08.461Z</time>
      </trkpt>
      <trkpt lat="44.44715" lon="-0.32682">
        <ele>120.355725</ele>
        <time>2022-12-27T16:47:10.462Z</time>
      </trkpt>
      <trkpt lat="44.44708" lon="-0.32667">
        <ele>120.755203</ele>
        <time>2022-12-27T16:47:13.467Z</time>
      </trkpt>
      <trkpt lat="44.44702" lon="-0.32654">
        <ele>121.093678</ele>
        <time>2022-12-27T16:47:16.463Z</time>
      </trkpt>
      <trkpt lat="44.44696" lon="-0.3264">
        <ele>121.062187</ele>
        <time>2022-12-27T16:47:19.453Z</time>
      </trkpt>
      <trkpt lat="44.44689" lon="-0.32625">
        <ele>121.027897</ele>
        <time>2022-12-27T16:47:22.462Z</time>
      </trkpt>
      <trkpt lat="44.44682" lon="-0.32611">
        <ele>120.996107</ele>
        <time>2022-12-27T16:47:25.448Z</time>
      </trkpt>
      <trkpt lat="44.44675" lon="-0.32597">
        <ele>120.962269</ele>
        <time>2022-12-27T16:47:28.460Z</time>
      </trkpt>
      <trkpt lat="44.44668" lon="-0.32582">
        <ele>120.92906</ele>
        <time>2022-12-27T16:47:31.462Z</time>
      </trkpt>
      <trkpt lat="44.44663" lon="-0.32568">
        <ele>120.89776</ele>
        <time>2022-12-27T16:47:34.462Z</time>
      </trkpt>
      <trkpt lat="44.44657" lon="-0.32556">
        <ele>120.869264</ele>
        <time>2022-12-27T16:47:37.462Z</time>
      </trkpt>
      <trkpt lat="44.44651" lon="-0.32543">
        <ele>120.84041</ele>
        <time>2022-12-27T16:47:40.470Z</time>
      </trkpt>
      <trkpt lat="44.44645" lon="-0.3253">
        <ele>120.811229</ele>
        <time>2022-12-27T16:47:43.462Z</time>
      </trkpt>
      <trkpt lat="44.44639" lon="-0.32516">
        <ele>120.779398</ele>
        <time>2022-12-27T16:47:46.462Z</time>
      </trkpt>
      <trkpt lat="44.44633" lon="-0.32503">
        <ele>120.748504</ele>
        <time>2022-12-27T16:47:49.465Z</time>
      </trkpt>
      <trkpt lat="44.44628" lon="-0.32492">
        <ele>120.72415</ele>
        <time>2022-12-27T16:47:52.459Z</time>
      </trkpt>
      <trkpt lat="44.44623" lon="-0.3248">
        <ele>120.697497</ele>
        <time>2022-12-27T16:47:55.461Z</time>
      </trkpt>
      <trkpt lat="44.44617" lon="-0.32468">
        <ele>120.670068</ele>
        <time>2022-12-27T16:47:58.462Z</time>
      </trkpt>
      <trkpt lat="44.44612" lon="-0.32457">
        <ele>120.644985</ele>
        <time>2022-12-27T16:48:01.462Z</time>
      </trkpt>
      <trkpt lat="44.44607" lon="-0.32445">
        <ele>120.617429</ele>
        <time>2022-12-27T16:48:04.461Z</time>
      </trkpt>
      <trkpt lat="44.44601" lon="-0.32433">
        <ele>120.611499</ele>
        <time>2022-12-27T16:48:07.460Z</time>
      </trkpt>
      <trkpt lat="44.44595" lon="-0.32421">
        <ele>120.611499</ele>
        <time>2022-12-27T16:48:10.459Z</time>
      </trkpt>
      <trkpt lat="44.44589" lon="-0.32409">
        <ele>120.611499</ele>
        <time>2022-12-27T16:48:13.464Z</time>
      </trkpt>
      <trkpt lat="44.44583" lon="-0.32395">
        <ele>120.611499</ele>
        <time>2022-12-27T16:48:16.444Z</time>
      </trkpt>
      <trkpt lat="44.44577" lon="-0.32383">
        <ele>120.611499</ele>
        <time>2022-12-27T16:48:19.444Z</time>
      </trkpt>
      <trkpt lat="44.44571" lon="-0.32371">
        <ele>120.611499</ele>
        <time>2022-12-27T16:48:22.461Z</time>
      </trkpt>
      <trkpt lat="44.44565" lon="-0.32358">
        <ele>120.611499</ele>
        <time>2022-12-27T16:48:25.461Z</time>
      </trkpt>
      <trkpt lat="44.4456" lon="-0.32344">
        <ele>120.611499</ele>
        <time>2022-12-27T16:48:28.464Z</time>
      </trkpt>
      <trkpt lat="44.44554" lon="-0.3233">
        <ele>120.611499</ele>
        <time>2022-12-27T16:48:31.460Z</time>
      </trkpt>
      <trkpt lat="44.44548" lon="-0.32316">
        <ele>120.611499</ele>
        <time>2022-12-27T16:48:34.460Z</time>
      </trkpt>
      <trkpt lat="44.44542" lon="-0.32302">
        <ele>120.611499</ele>
        <time>2022-12-27T16:48:37.463Z</time>
      </trkpt>
      <trkpt lat="44.44536" lon="-0.32287">
        <ele>120.611499</ele>
        <time>2022-12-27T16:48:40.463Z</time>
      </trkpt>
      <trkpt lat="44.4453" lon="-0.32273">
        <ele>120.611499</ele>
        <time>2022-12-27T16:48:43.462Z</time>
      </trkpt>
      <trkpt lat="44.44526" lon="-0.3226">
        <ele>120.611499</ele>
        <time>2022-12-27T16:48:46.458Z</time>
      </trkpt>
      <trkpt lat="44.44522" lon="-0.32247">
        <ele>120.611499</ele>
        <time>2022-12-27T16:48:50.463Z</time>
      </trkpt>
      <trkpt lat="44.44517" lon="-0.32235">
        <ele>120.611499</ele>
        <time>2022-12-27T16:48:54.444Z</time>
      </trkpt>
      <trkpt lat="44.44511" lon="-0.3222">
        <ele>120.611499</ele>
        <time>2022-12-27T16:48:58.460Z</time>
      </trkpt>
      <trkpt lat="44.44506" lon="-0.32206">
        <ele>120.611499</ele>
        <time>2022-12-27T16:49:02.460Z</time>
      </trkpt>
      <trkpt lat="44.445" lon="-0.32192">
        <ele>120.611499</ele>
        <time>2022-12-27T16:49:06.461Z</time>
      </trkpt>
      <trkpt lat="44.44495" lon="-0.3218">
        <ele>120.611499</ele>
        <time>2022-12-27T16:49:10.462Z</time>
      </trkpt>
      <trkpt lat="44.44489" lon="-0.32168">
        <ele>120.611499</ele>
        <time>2022-12-27T16:49:15.440Z</time>
      </trkpt>
      <trkpt lat="44.44488" lon="-0.32165">
        <ele>120.611499</ele>
        <time>2022-12-27T16:49:25.638Z</time>
        <extensions>
          <visugpx:TrkExtension xmlns:visugpx="https://www.visugpx.com/editgpx/">
            <visugpx:node>1</visugpx:node>
            </visugpx:TrkExtension>
        </extensions>
      </trkpt>
    </trkseg>
  </trk>
</gpx>